<?xml version="1.0" encoding="UTF-8" standalone="no" ?>
<gpx xmlns="http://www.topografix.com/GPX/1/1" xmlns:xsi="http://www.w3.org/2001/XMLSchema-instance" xsi:schemaLocation="http://www.topografix.com/GPX/1/1 http://www.topografix.com/GPX/1/1/gpx.xsd" version="1.1" creator="VisuGPX - https://www.visugpx.com">
  <metadata>
    <name>Refuge et étang du Pinet retour par l'étang Sourd et visite de la cascade de l'artigue</name>
    <desc><![CDATA[Trace AlpineQuest 31/08/2024 08:42:07]]></desc>
  </metadata>
  <trk>
    <name><![CDATA[Refuge et étang du Pinet retour par l'étang Sourd et visite de la cascade de l'artigue_1]]></name>
    <trkseg>
      <trkpt lat="42.71036" lon="1.4262">
        <ele>1172.175</ele>
        <time>2024-08-31T06:42:06Z</time>
      </trkpt>
      <trkpt lat="42.71021" lon="1.42615">
        <ele>1172.858</ele>
        <time>2024-08-31T06:42:09Z</time>
      </trkpt>
      <trkpt lat="42.7102" lon="1.42616">
        <ele>1174.318</ele>
        <time>2024-08-31T06:42:11Z</time>
      </trkpt>
      <trkpt lat="42.71019" lon="1.42616">
        <ele>1175.662</ele>
        <time>2024-08-31T06:42:13Z</time>
      </trkpt>
      <trkpt lat="42.71019" lon="1.42616">
        <ele>1174.631</ele>
        <time>2024-08-31T06:42:15Z</time>
      </trkpt>
      <trkpt lat="42.71017" lon="1.42615">
        <ele>1174.839</ele>
        <time>2024-08-31T06:42:17Z</time>
      </trkpt>
      <trkpt lat="42.71017" lon="1.42614">
        <ele>1173.888</ele>
        <time>2024-08-31T06:42:19Z</time>
      </trkpt>
      <trkpt lat="42.71017" lon="1.42614">
        <ele>1173.052</ele>
        <time>2024-08-31T06:42:21Z</time>
      </trkpt>
      <trkpt lat="42.71017" lon="1.42614">
        <ele>1172.384</ele>
        <time>2024-08-31T06:42:23Z</time>
      </trkpt>
      <trkpt lat="42.71017" lon="1.42614">
        <ele>1172.201</ele>
        <time>2024-08-31T06:42:25Z</time>
      </trkpt>
      <trkpt lat="42.71017" lon="1.42614">
        <ele>1172.196</ele>
        <time>2024-08-31T06:42:27Z</time>
      </trkpt>
      <trkpt lat="42.71017" lon="1.42614">
        <ele>1172.214</ele>
        <time>2024-08-31T06:42:29Z</time>
      </trkpt>
      <trkpt lat="42.71017" lon="1.42614">
        <ele>1172.229</ele>
        <time>2024-08-31T06:42:31Z</time>
      </trkpt>
      <trkpt lat="42.71017" lon="1.42614">
        <ele>1172.233</ele>
        <time>2024-08-31T06:42:33Z</time>
      </trkpt>
      <trkpt lat="42.71017" lon="1.42614">
        <ele>1172.493</ele>
        <time>2024-08-31T06:42:35Z</time>
      </trkpt>
      <trkpt lat="42.71017" lon="1.42614">
        <ele>1172.508</ele>
        <time>2024-08-31T06:42:37Z</time>
      </trkpt>
      <trkpt lat="42.71017" lon="1.42614">
        <ele>1172.507</ele>
        <time>2024-08-31T06:42:39Z</time>
      </trkpt>
      <trkpt lat="42.71017" lon="1.42614">
        <ele>1172.815</ele>
        <time>2024-08-31T06:42:41Z</time>
      </trkpt>
      <trkpt lat="42.71017" lon="1.42614">
        <ele>1171.778</ele>
        <time>2024-08-31T06:42:43Z</time>
      </trkpt>
      <trkpt lat="42.71017" lon="1.42614">
        <ele>1171.654</ele>
        <time>2024-08-31T06:42:45Z</time>
      </trkpt>
      <trkpt lat="42.71017" lon="1.42614">
        <ele>1171.071</ele>
        <time>2024-08-31T06:42:47Z</time>
      </trkpt>
      <trkpt lat="42.71017" lon="1.42614">
        <ele>1170.574</ele>
        <time>2024-08-31T06:42:49Z</time>
      </trkpt>
      <trkpt lat="42.71017" lon="1.42614">
        <ele>1171.001</ele>
        <time>2024-08-31T06:42:51Z</time>
      </trkpt>
      <trkpt lat="42.71017" lon="1.42614">
        <ele>1170.763</ele>
        <time>2024-08-31T06:42:53Z</time>
      </trkpt>
      <trkpt lat="42.71017" lon="1.42614">
        <ele>1170.626</ele>
        <time>2024-08-31T06:42:55Z</time>
      </trkpt>
      <trkpt lat="42.71017" lon="1.42614">
        <ele>1169.721</ele>
        <time>2024-08-31T06:42:57Z</time>
      </trkpt>
      <trkpt lat="42.71017" lon="1.42614">
        <ele>1169.112</ele>
        <time>2024-08-31T06:42:59Z</time>
      </trkpt>
      <trkpt lat="42.71017" lon="1.42614">
        <ele>1169.641</ele>
        <time>2024-08-31T06:43:01Z</time>
      </trkpt>
      <trkpt lat="42.71017" lon="1.42614">
        <ele>1169.408</ele>
        <time>2024-08-31T06:43:03Z</time>
      </trkpt>
      <trkpt lat="42.71017" lon="1.42614">
        <ele>1169.31</ele>
        <time>2024-08-31T06:43:05Z</time>
      </trkpt>
      <trkpt lat="42.71017" lon="1.42614">
        <ele>1169.282</ele>
        <time>2024-08-31T06:43:07Z</time>
      </trkpt>
      <trkpt lat="42.71017" lon="1.42614">
        <ele>1169.372</ele>
        <time>2024-08-31T06:43:09Z</time>
      </trkpt>
      <trkpt lat="42.71017" lon="1.42614">
        <ele>1169.37</ele>
        <time>2024-08-31T06:43:11Z</time>
      </trkpt>
      <trkpt lat="42.71017" lon="1.42614">
        <ele>1169.378</ele>
        <time>2024-08-31T06:43:13Z</time>
      </trkpt>
      <trkpt lat="42.71017" lon="1.42614">
        <ele>1169.436</ele>
        <time>2024-08-31T06:43:15Z</time>
      </trkpt>
      <trkpt lat="42.71017" lon="1.42614">
        <ele>1169.434</ele>
        <time>2024-08-31T06:43:17Z</time>
      </trkpt>
      <trkpt lat="42.71017" lon="1.42614">
        <ele>1169.637</ele>
        <time>2024-08-31T06:43:19Z</time>
      </trkpt>
      <trkpt lat="42.71017" lon="1.42614">
        <ele>1170.515</ele>
        <time>2024-08-31T06:43:21Z</time>
      </trkpt>
      <trkpt lat="42.71017" lon="1.42614">
        <ele>1171.955</ele>
        <time>2024-08-31T06:43:23Z</time>
      </trkpt>
      <trkpt lat="42.71017" lon="1.42614">
        <ele>1171.916</ele>
        <time>2024-08-31T06:43:25Z</time>
      </trkpt>
      <trkpt lat="42.71017" lon="1.42614">
        <ele>1173.495</ele>
        <time>2024-08-31T06:43:27Z</time>
      </trkpt>
      <trkpt lat="42.71017" lon="1.42614">
        <ele>1175.558</ele>
        <time>2024-08-31T06:43:29Z</time>
      </trkpt>
      <trkpt lat="42.71017" lon="1.42614">
        <ele>1177.308</ele>
        <time>2024-08-31T06:43:31Z</time>
      </trkpt>
      <trkpt lat="42.71017" lon="1.42614">
        <ele>1177.735</ele>
        <time>2024-08-31T06:43:33Z</time>
      </trkpt>
      <trkpt lat="42.71017" lon="1.42614">
        <ele>1177.839</ele>
        <time>2024-08-31T06:43:35Z</time>
      </trkpt>
      <trkpt lat="42.71017" lon="1.42614">
        <ele>1177.889</ele>
        <time>2024-08-31T06:43:37Z</time>
      </trkpt>
      <trkpt lat="42.71017" lon="1.42614">
        <ele>1177.87</ele>
        <time>2024-08-31T06:43:39Z</time>
      </trkpt>
      <trkpt lat="42.71017" lon="1.42614">
        <ele>1177.859</ele>
        <time>2024-08-31T06:43:41Z</time>
      </trkpt>
      <trkpt lat="42.71017" lon="1.42614">
        <ele>1177.859</ele>
        <time>2024-08-31T06:43:43Z</time>
      </trkpt>
      <trkpt lat="42.71017" lon="1.42614">
        <ele>1177.867</ele>
        <time>2024-08-31T06:43:45Z</time>
      </trkpt>
      <trkpt lat="42.71017" lon="1.42614">
        <ele>1177.686</ele>
        <time>2024-08-31T06:43:47Z</time>
      </trkpt>
      <trkpt lat="42.71017" lon="1.42614">
        <ele>1176.538</ele>
        <time>2024-08-31T06:43:49Z</time>
      </trkpt>
      <trkpt lat="42.71017" lon="1.42614">
        <ele>1174.725</ele>
        <time>2024-08-31T06:43:51Z</time>
      </trkpt>
      <trkpt lat="42.71017" lon="1.42614">
        <ele>1174.927</ele>
        <time>2024-08-31T06:43:53Z</time>
      </trkpt>
      <trkpt lat="42.71017" lon="1.42614">
        <ele>1176.079</ele>
        <time>2024-08-31T06:43:55Z</time>
      </trkpt>
      <trkpt lat="42.71017" lon="1.42614">
        <ele>1178.421</ele>
        <time>2024-08-31T06:43:57Z</time>
      </trkpt>
      <trkpt lat="42.71017" lon="1.42614">
        <ele>1178.839</ele>
        <time>2024-08-31T06:43:59Z</time>
      </trkpt>
      <trkpt lat="42.71017" lon="1.42614">
        <ele>1179.551</ele>
        <time>2024-08-31T06:44:01Z</time>
      </trkpt>
      <trkpt lat="42.71017" lon="1.42614">
        <ele>1178.796</ele>
        <time>2024-08-31T06:44:03Z</time>
      </trkpt>
      <trkpt lat="42.71017" lon="1.42614">
        <ele>1178.276</ele>
        <time>2024-08-31T06:44:05Z</time>
      </trkpt>
      <trkpt lat="42.71017" lon="1.42614">
        <ele>1176.376</ele>
        <time>2024-08-31T06:44:07Z</time>
      </trkpt>
      <trkpt lat="42.71022" lon="1.42615">
        <ele>1175.13</ele>
        <time>2024-08-31T06:44:09Z</time>
      </trkpt>
      <trkpt lat="42.71023" lon="1.42613">
        <ele>1172.692</ele>
        <time>2024-08-31T06:44:11Z</time>
      </trkpt>
      <trkpt lat="42.71022" lon="1.42611">
        <ele>1171.557</ele>
        <time>2024-08-31T06:44:13Z</time>
      </trkpt>
      <trkpt lat="42.71022" lon="1.42609">
        <ele>1170.836</ele>
        <time>2024-08-31T06:44:15Z</time>
      </trkpt>
      <trkpt lat="42.71022" lon="1.42607">
        <ele>1171.203</ele>
        <time>2024-08-31T06:44:17Z</time>
      </trkpt>
      <trkpt lat="42.71021" lon="1.42604">
        <ele>1171.092</ele>
        <time>2024-08-31T06:44:19Z</time>
      </trkpt>
      <trkpt lat="42.71021" lon="1.42603">
        <ele>1170.097</ele>
        <time>2024-08-31T06:44:21Z</time>
      </trkpt>
      <trkpt lat="42.71021" lon="1.426">
        <ele>1169.564</ele>
        <time>2024-08-31T06:44:23Z</time>
      </trkpt>
      <trkpt lat="42.71021" lon="1.42598">
        <ele>1167.008</ele>
        <time>2024-08-31T06:44:25Z</time>
      </trkpt>
      <trkpt lat="42.7102" lon="1.42595">
        <ele>1166.169</ele>
        <time>2024-08-31T06:44:27Z</time>
      </trkpt>
      <trkpt lat="42.7102" lon="1.42592">
        <ele>1166.869</ele>
        <time>2024-08-31T06:44:29Z</time>
      </trkpt>
      <trkpt lat="42.71019" lon="1.42589">
        <ele>1167.013</ele>
        <time>2024-08-31T06:44:31Z</time>
      </trkpt>
      <trkpt lat="42.71018" lon="1.42586">
        <ele>1166.37</ele>
        <time>2024-08-31T06:44:33Z</time>
      </trkpt>
      <trkpt lat="42.71018" lon="1.42583">
        <ele>1167.704</ele>
        <time>2024-08-31T06:44:35Z</time>
      </trkpt>
      <trkpt lat="42.71018" lon="1.42581">
        <ele>1166.445</ele>
        <time>2024-08-31T06:44:37Z</time>
      </trkpt>
      <trkpt lat="42.71018" lon="1.42578">
        <ele>1164.379</ele>
        <time>2024-08-31T06:44:39Z</time>
      </trkpt>
      <trkpt lat="42.71018" lon="1.42575">
        <ele>1163.645</ele>
        <time>2024-08-31T06:44:41Z</time>
      </trkpt>
      <trkpt lat="42.71018" lon="1.42573">
        <ele>1162.647</ele>
        <time>2024-08-31T06:44:43Z</time>
      </trkpt>
      <trkpt lat="42.71019" lon="1.42571">
        <ele>1162.967</ele>
        <time>2024-08-31T06:44:45Z</time>
      </trkpt>
      <trkpt lat="42.71019" lon="1.4257">
        <ele>1162.421</ele>
        <time>2024-08-31T06:44:47Z</time>
      </trkpt>
      <trkpt lat="42.7102" lon="1.42568">
        <ele>1160.932</ele>
        <time>2024-08-31T06:44:49Z</time>
      </trkpt>
      <trkpt lat="42.7102" lon="1.42567">
        <ele>1162.032</ele>
        <time>2024-08-31T06:44:51Z</time>
      </trkpt>
      <trkpt lat="42.71021" lon="1.42565">
        <ele>1162.99</ele>
        <time>2024-08-31T06:44:53Z</time>
      </trkpt>
      <trkpt lat="42.71021" lon="1.42563">
        <ele>1163.824</ele>
        <time>2024-08-31T06:44:55Z</time>
      </trkpt>
      <trkpt lat="42.71023" lon="1.42562">
        <ele>1165.749</ele>
        <time>2024-08-31T06:44:57Z</time>
      </trkpt>
      <trkpt lat="42.71024" lon="1.42561">
        <ele>1167.172</ele>
        <time>2024-08-31T06:44:59Z</time>
      </trkpt>
      <trkpt lat="42.71025" lon="1.42561">
        <ele>1167.604</ele>
        <time>2024-08-31T06:45:01Z</time>
      </trkpt>
      <trkpt lat="42.71026" lon="1.4256">
        <ele>1168.523</ele>
        <time>2024-08-31T06:45:03Z</time>
      </trkpt>
      <trkpt lat="42.71028" lon="1.4256">
        <ele>1170.114</ele>
        <time>2024-08-31T06:45:05Z</time>
      </trkpt>
      <trkpt lat="42.71029" lon="1.42559">
        <ele>1170.097</ele>
        <time>2024-08-31T06:45:07Z</time>
      </trkpt>
      <trkpt lat="42.71031" lon="1.42558">
        <ele>1170.809</ele>
        <time>2024-08-31T06:45:09Z</time>
      </trkpt>
      <trkpt lat="42.71032" lon="1.42556">
        <ele>1169.602</ele>
        <time>2024-08-31T06:45:11Z</time>
      </trkpt>
      <trkpt lat="42.71033" lon="1.42556">
        <ele>1171.003</ele>
        <time>2024-08-31T06:45:13Z</time>
      </trkpt>
      <trkpt lat="42.71035" lon="1.42555">
        <ele>1171.469</ele>
        <time>2024-08-31T06:45:15Z</time>
      </trkpt>
      <trkpt lat="42.71036" lon="1.42555">
        <ele>1171.165</ele>
        <time>2024-08-31T06:45:17Z</time>
      </trkpt>
      <trkpt lat="42.71037" lon="1.42555">
        <ele>1170.895</ele>
        <time>2024-08-31T06:45:19Z</time>
      </trkpt>
      <trkpt lat="42.71038" lon="1.42553">
        <ele>1170.202</ele>
        <time>2024-08-31T06:45:21Z</time>
      </trkpt>
      <trkpt lat="42.71037" lon="1.42552">
        <ele>1171.213</ele>
        <time>2024-08-31T06:45:23Z</time>
      </trkpt>
      <trkpt lat="42.71037" lon="1.42549">
        <ele>1169.461</ele>
        <time>2024-08-31T06:45:25Z</time>
      </trkpt>
      <trkpt lat="42.71036" lon="1.42547">
        <ele>1170.094</ele>
        <time>2024-08-31T06:45:27Z</time>
      </trkpt>
      <trkpt lat="42.71036" lon="1.42545">
        <ele>1170.063</ele>
        <time>2024-08-31T06:45:29Z</time>
      </trkpt>
      <trkpt lat="42.71035" lon="1.42544">
        <ele>1170.214</ele>
        <time>2024-08-31T06:45:31Z</time>
      </trkpt>
      <trkpt lat="42.71035" lon="1.42542">
        <ele>1169.963</ele>
        <time>2024-08-31T06:45:33Z</time>
      </trkpt>
      <trkpt lat="42.71034" lon="1.4254">
        <ele>1169.252</ele>
        <time>2024-08-31T06:45:35Z</time>
      </trkpt>
      <trkpt lat="42.71033" lon="1.42538">
        <ele>1171.176</ele>
        <time>2024-08-31T06:45:37Z</time>
      </trkpt>
      <trkpt lat="42.71032" lon="1.42537">
        <ele>1172.581</ele>
        <time>2024-08-31T06:45:39Z</time>
      </trkpt>
      <trkpt lat="42.71033" lon="1.42535">
        <ele>1173.582</ele>
        <time>2024-08-31T06:45:41Z</time>
      </trkpt>
      <trkpt lat="42.71034" lon="1.42534">
        <ele>1175.393</ele>
        <time>2024-08-31T06:45:43Z</time>
      </trkpt>
      <trkpt lat="42.71035" lon="1.42534">
        <ele>1176.726</ele>
        <time>2024-08-31T06:45:45Z</time>
      </trkpt>
      <trkpt lat="42.71037" lon="1.42534">
        <ele>1176.075</ele>
        <time>2024-08-31T06:45:47Z</time>
      </trkpt>
      <trkpt lat="42.71038" lon="1.42532">
        <ele>1177.422</ele>
        <time>2024-08-31T06:45:49Z</time>
      </trkpt>
      <trkpt lat="42.71039" lon="1.42531">
        <ele>1178.739</ele>
        <time>2024-08-31T06:45:51Z</time>
      </trkpt>
      <trkpt lat="42.71039" lon="1.42529">
        <ele>1179.421</ele>
        <time>2024-08-31T06:45:53Z</time>
      </trkpt>
      <trkpt lat="42.71038" lon="1.42528">
        <ele>1181.142</ele>
        <time>2024-08-31T06:45:55Z</time>
      </trkpt>
      <trkpt lat="42.71037" lon="1.42526">
        <ele>1181.205</ele>
        <time>2024-08-31T06:45:57Z</time>
      </trkpt>
      <trkpt lat="42.71036" lon="1.42524">
        <ele>1181.209</ele>
        <time>2024-08-31T06:45:59Z</time>
      </trkpt>
      <trkpt lat="42.71035" lon="1.42522">
        <ele>1181.55</ele>
        <time>2024-08-31T06:46:01Z</time>
      </trkpt>
      <trkpt lat="42.71035" lon="1.4252">
        <ele>1181.413</ele>
        <time>2024-08-31T06:46:03Z</time>
      </trkpt>
      <trkpt lat="42.71034" lon="1.42518">
        <ele>1182.251</ele>
        <time>2024-08-31T06:46:05Z</time>
      </trkpt>
      <trkpt lat="42.71033" lon="1.42516">
        <ele>1183.343</ele>
        <time>2024-08-31T06:46:07Z</time>
      </trkpt>
      <trkpt lat="42.71032" lon="1.42514">
        <ele>1183.547</ele>
        <time>2024-08-31T06:46:09Z</time>
      </trkpt>
      <trkpt lat="42.71031" lon="1.42512">
        <ele>1184.26</ele>
        <time>2024-08-31T06:46:11Z</time>
      </trkpt>
      <trkpt lat="42.71031" lon="1.4251">
        <ele>1184.38</ele>
        <time>2024-08-31T06:46:13Z</time>
      </trkpt>
      <trkpt lat="42.7103" lon="1.42508">
        <ele>1184.907</ele>
        <time>2024-08-31T06:46:15Z</time>
      </trkpt>
      <trkpt lat="42.71028" lon="1.42505">
        <ele>1184.898</ele>
        <time>2024-08-31T06:46:17Z</time>
      </trkpt>
      <trkpt lat="42.71027" lon="1.42503">
        <ele>1185.568</ele>
        <time>2024-08-31T06:46:19Z</time>
      </trkpt>
      <trkpt lat="42.71025" lon="1.42501">
        <ele>1186.115</ele>
        <time>2024-08-31T06:46:21Z</time>
      </trkpt>
      <trkpt lat="42.71024" lon="1.42498">
        <ele>1185.535</ele>
        <time>2024-08-31T06:46:23Z</time>
      </trkpt>
      <trkpt lat="42.71023" lon="1.42496">
        <ele>1183.941</ele>
        <time>2024-08-31T06:46:25Z</time>
      </trkpt>
      <trkpt lat="42.71022" lon="1.42493">
        <ele>1182.849</ele>
        <time>2024-08-31T06:46:27Z</time>
      </trkpt>
      <trkpt lat="42.71021" lon="1.42491">
        <ele>1183.042</ele>
        <time>2024-08-31T06:46:29Z</time>
      </trkpt>
      <trkpt lat="42.7102" lon="1.42488">
        <ele>1183.208</ele>
        <time>2024-08-31T06:46:31Z</time>
      </trkpt>
      <trkpt lat="42.71018" lon="1.42485">
        <ele>1183.478</ele>
        <time>2024-08-31T06:46:33Z</time>
      </trkpt>
      <trkpt lat="42.71018" lon="1.42483">
        <ele>1183.967</ele>
        <time>2024-08-31T06:46:35Z</time>
      </trkpt>
      <trkpt lat="42.71016" lon="1.4248">
        <ele>1183.521</ele>
        <time>2024-08-31T06:46:37Z</time>
      </trkpt>
      <trkpt lat="42.71015" lon="1.42478">
        <ele>1184.498</ele>
        <time>2024-08-31T06:46:39Z</time>
      </trkpt>
      <trkpt lat="42.71014" lon="1.42476">
        <ele>1185.245</ele>
        <time>2024-08-31T06:46:41Z</time>
      </trkpt>
      <trkpt lat="42.71012" lon="1.42474">
        <ele>1185.583</ele>
        <time>2024-08-31T06:46:43Z</time>
      </trkpt>
      <trkpt lat="42.7101" lon="1.42475">
        <ele>1184.003</ele>
        <time>2024-08-31T06:46:45Z</time>
      </trkpt>
      <trkpt lat="42.71009" lon="1.42477">
        <ele>1185.447</ele>
        <time>2024-08-31T06:46:47Z</time>
      </trkpt>
      <trkpt lat="42.71008" lon="1.42477">
        <ele>1185.088</ele>
        <time>2024-08-31T06:46:49Z</time>
      </trkpt>
      <trkpt lat="42.71007" lon="1.42478">
        <ele>1185.575</ele>
        <time>2024-08-31T06:46:51Z</time>
      </trkpt>
      <trkpt lat="42.71007" lon="1.42478">
        <ele>1185.572</ele>
        <time>2024-08-31T06:46:53Z</time>
      </trkpt>
      <trkpt lat="42.71007" lon="1.42478">
        <ele>1185.575</ele>
        <time>2024-08-31T06:46:54Z</time>
      </trkpt>
      <trkpt lat="42.71007" lon="1.42476">
        <ele>1184.566</ele>
        <time>2024-08-31T06:46:57Z</time>
      </trkpt>
      <trkpt lat="42.71005" lon="1.42472">
        <ele>1184.852</ele>
        <time>2024-08-31T06:46:59Z</time>
      </trkpt>
      <trkpt lat="42.71005" lon="1.42469">
        <ele>1183.545</ele>
        <time>2024-08-31T06:47:01Z</time>
      </trkpt>
      <trkpt lat="42.71005" lon="1.42466">
        <ele>1184.281</ele>
        <time>2024-08-31T06:47:03Z</time>
      </trkpt>
      <trkpt lat="42.71004" lon="1.42462">
        <ele>1184.799</ele>
        <time>2024-08-31T06:47:05Z</time>
      </trkpt>
      <trkpt lat="42.71004" lon="1.4246">
        <ele>1182.672</ele>
        <time>2024-08-31T06:47:07Z</time>
      </trkpt>
      <trkpt lat="42.71003" lon="1.42457">
        <ele>1182.837</ele>
        <time>2024-08-31T06:47:09Z</time>
      </trkpt>
      <trkpt lat="42.71002" lon="1.42454">
        <ele>1183.387</ele>
        <time>2024-08-31T06:47:11Z</time>
      </trkpt>
      <trkpt lat="42.71001" lon="1.42451">
        <ele>1183.25</ele>
        <time>2024-08-31T06:47:13Z</time>
      </trkpt>
      <trkpt lat="42.71001" lon="1.42448">
        <ele>1184.043</ele>
        <time>2024-08-31T06:47:15Z</time>
      </trkpt>
      <trkpt lat="42.71001" lon="1.42444">
        <ele>1183.94</ele>
        <time>2024-08-31T06:47:17Z</time>
      </trkpt>
      <trkpt lat="42.71" lon="1.4244">
        <ele>1182.279</ele>
        <time>2024-08-31T06:47:19Z</time>
      </trkpt>
      <trkpt lat="42.70999" lon="1.42437">
        <ele>1182.646</ele>
        <time>2024-08-31T06:47:21Z</time>
      </trkpt>
      <trkpt lat="42.70998" lon="1.42435">
        <ele>1182.101</ele>
        <time>2024-08-31T06:47:23Z</time>
      </trkpt>
      <trkpt lat="42.70998" lon="1.42431">
        <ele>1181.066</ele>
        <time>2024-08-31T06:47:25Z</time>
      </trkpt>
      <trkpt lat="42.70997" lon="1.42427">
        <ele>1180.365</ele>
        <time>2024-08-31T06:47:27Z</time>
      </trkpt>
      <trkpt lat="42.70996" lon="1.42424">
        <ele>1178.558</ele>
        <time>2024-08-31T06:47:29Z</time>
      </trkpt>
      <trkpt lat="42.70995" lon="1.42422">
        <ele>1180.47</ele>
        <time>2024-08-31T06:47:31Z</time>
      </trkpt>
      <trkpt lat="42.70995" lon="1.42419">
        <ele>1180.575</ele>
        <time>2024-08-31T06:47:33Z</time>
      </trkpt>
      <trkpt lat="42.70994" lon="1.42417">
        <ele>1182.194</ele>
        <time>2024-08-31T06:47:35Z</time>
      </trkpt>
      <trkpt lat="42.70993" lon="1.42414">
        <ele>1181.581</ele>
        <time>2024-08-31T06:47:37Z</time>
      </trkpt>
      <trkpt lat="42.70992" lon="1.42412">
        <ele>1181.321</ele>
        <time>2024-08-31T06:47:39Z</time>
      </trkpt>
      <trkpt lat="42.7099" lon="1.42409">
        <ele>1180.773</ele>
        <time>2024-08-31T06:47:41Z</time>
      </trkpt>
      <trkpt lat="42.7099" lon="1.42405">
        <ele>1178.013</ele>
        <time>2024-08-31T06:47:43Z</time>
      </trkpt>
      <trkpt lat="42.70989" lon="1.42402">
        <ele>1178.002</ele>
        <time>2024-08-31T06:47:45Z</time>
      </trkpt>
      <trkpt lat="42.70988" lon="1.42399">
        <ele>1178.387</ele>
        <time>2024-08-31T06:47:47Z</time>
      </trkpt>
      <trkpt lat="42.70987" lon="1.42396">
        <ele>1178.219</ele>
        <time>2024-08-31T06:47:49Z</time>
      </trkpt>
      <trkpt lat="42.70986" lon="1.42393">
        <ele>1180.94</ele>
        <time>2024-08-31T06:47:51Z</time>
      </trkpt>
      <trkpt lat="42.70986" lon="1.4239">
        <ele>1181.362</ele>
        <time>2024-08-31T06:47:53Z</time>
      </trkpt>
      <trkpt lat="42.70985" lon="1.42388">
        <ele>1181.996</ele>
        <time>2024-08-31T06:47:55Z</time>
      </trkpt>
      <trkpt lat="42.70984" lon="1.42385">
        <ele>1182.484</ele>
        <time>2024-08-31T06:47:57Z</time>
      </trkpt>
      <trkpt lat="42.70984" lon="1.42382">
        <ele>1183.119</ele>
        <time>2024-08-31T06:47:59Z</time>
      </trkpt>
      <trkpt lat="42.70984" lon="1.42379">
        <ele>1183.629</ele>
        <time>2024-08-31T06:48:01Z</time>
      </trkpt>
      <trkpt lat="42.70984" lon="1.42377">
        <ele>1184.692</ele>
        <time>2024-08-31T06:48:03Z</time>
      </trkpt>
      <trkpt lat="42.70983" lon="1.42374">
        <ele>1185.161</ele>
        <time>2024-08-31T06:48:05Z</time>
      </trkpt>
      <trkpt lat="42.70983" lon="1.42372">
        <ele>1185.034</ele>
        <time>2024-08-31T06:48:07Z</time>
      </trkpt>
      <trkpt lat="42.70983" lon="1.42368">
        <ele>1184.996</ele>
        <time>2024-08-31T06:48:09Z</time>
      </trkpt>
      <trkpt lat="42.70983" lon="1.42366">
        <ele>1185.832</ele>
        <time>2024-08-31T06:48:11Z</time>
      </trkpt>
      <trkpt lat="42.70982" lon="1.42363">
        <ele>1187.72</ele>
        <time>2024-08-31T06:48:13Z</time>
      </trkpt>
      <trkpt lat="42.70981" lon="1.42361">
        <ele>1188.219</ele>
        <time>2024-08-31T06:48:15Z</time>
      </trkpt>
      <trkpt lat="42.70981" lon="1.42358">
        <ele>1186.368</ele>
        <time>2024-08-31T06:48:17Z</time>
      </trkpt>
      <trkpt lat="42.7098" lon="1.42356">
        <ele>1182.311</ele>
        <time>2024-08-31T06:48:19Z</time>
      </trkpt>
      <trkpt lat="42.70979" lon="1.42354">
        <ele>1181.548</ele>
        <time>2024-08-31T06:48:21Z</time>
      </trkpt>
      <trkpt lat="42.70978" lon="1.42352">
        <ele>1180.908</ele>
        <time>2024-08-31T06:48:23Z</time>
      </trkpt>
      <trkpt lat="42.70976" lon="1.42349">
        <ele>1181.59</ele>
        <time>2024-08-31T06:48:25Z</time>
      </trkpt>
      <trkpt lat="42.70974" lon="1.42347">
        <ele>1181.066</ele>
        <time>2024-08-31T06:48:27Z</time>
      </trkpt>
      <trkpt lat="42.70973" lon="1.42344">
        <ele>1183.113</ele>
        <time>2024-08-31T06:48:29Z</time>
      </trkpt>
      <trkpt lat="42.70971" lon="1.42342">
        <ele>1184.395</ele>
        <time>2024-08-31T06:48:31Z</time>
      </trkpt>
      <trkpt lat="42.70971" lon="1.42339">
        <ele>1185.398</ele>
        <time>2024-08-31T06:48:33Z</time>
      </trkpt>
      <trkpt lat="42.7097" lon="1.42336">
        <ele>1184.088</ele>
        <time>2024-08-31T06:48:35Z</time>
      </trkpt>
      <trkpt lat="42.7097" lon="1.42333">
        <ele>1183.773</ele>
        <time>2024-08-31T06:48:37Z</time>
      </trkpt>
      <trkpt lat="42.70969" lon="1.4233">
        <ele>1184.061</ele>
        <time>2024-08-31T06:48:39Z</time>
      </trkpt>
      <trkpt lat="42.70968" lon="1.42327">
        <ele>1185.273</ele>
        <time>2024-08-31T06:48:41Z</time>
      </trkpt>
      <trkpt lat="42.70968" lon="1.42325">
        <ele>1182.735</ele>
        <time>2024-08-31T06:48:43Z</time>
      </trkpt>
      <trkpt lat="42.70968" lon="1.42322">
        <ele>1182.785</ele>
        <time>2024-08-31T06:48:45Z</time>
      </trkpt>
      <trkpt lat="42.70968" lon="1.42319">
        <ele>1183.463</ele>
        <time>2024-08-31T06:48:47Z</time>
      </trkpt>
      <trkpt lat="42.70968" lon="1.42316">
        <ele>1183.844</ele>
        <time>2024-08-31T06:48:49Z</time>
      </trkpt>
      <trkpt lat="42.70968" lon="1.42313">
        <ele>1183.365</ele>
        <time>2024-08-31T06:48:51Z</time>
      </trkpt>
      <trkpt lat="42.70968" lon="1.42311">
        <ele>1181.857</ele>
        <time>2024-08-31T06:48:53Z</time>
      </trkpt>
      <trkpt lat="42.70968" lon="1.42308">
        <ele>1183.526</ele>
        <time>2024-08-31T06:48:55Z</time>
      </trkpt>
      <trkpt lat="42.70967" lon="1.42305">
        <ele>1183.577</ele>
        <time>2024-08-31T06:48:57Z</time>
      </trkpt>
      <trkpt lat="42.70967" lon="1.42301">
        <ele>1182.75</ele>
        <time>2024-08-31T06:48:59Z</time>
      </trkpt>
      <trkpt lat="42.70968" lon="1.42298">
        <ele>1183.406</ele>
        <time>2024-08-31T06:49:01Z</time>
      </trkpt>
      <trkpt lat="42.70968" lon="1.42294">
        <ele>1181.906</ele>
        <time>2024-08-31T06:49:03Z</time>
      </trkpt>
      <trkpt lat="42.70968" lon="1.42291">
        <ele>1181.893</ele>
        <time>2024-08-31T06:49:05Z</time>
      </trkpt>
      <trkpt lat="42.70968" lon="1.42287">
        <ele>1179.357</ele>
        <time>2024-08-31T06:49:07Z</time>
      </trkpt>
      <trkpt lat="42.70968" lon="1.42284">
        <ele>1178.301</ele>
        <time>2024-08-31T06:49:09Z</time>
      </trkpt>
      <trkpt lat="42.70969" lon="1.42281">
        <ele>1179.071</ele>
        <time>2024-08-31T06:49:11Z</time>
      </trkpt>
      <trkpt lat="42.70968" lon="1.42278">
        <ele>1178.729</ele>
        <time>2024-08-31T06:49:13Z</time>
      </trkpt>
      <trkpt lat="42.70968" lon="1.42275">
        <ele>1178.672</ele>
        <time>2024-08-31T06:49:15Z</time>
      </trkpt>
      <trkpt lat="42.70968" lon="1.42272">
        <ele>1178.841</ele>
        <time>2024-08-31T06:49:17Z</time>
      </trkpt>
      <trkpt lat="42.70968" lon="1.42269">
        <ele>1178.504</ele>
        <time>2024-08-31T06:49:19Z</time>
      </trkpt>
      <trkpt lat="42.70967" lon="1.42267">
        <ele>1178.99</ele>
        <time>2024-08-31T06:49:21Z</time>
      </trkpt>
      <trkpt lat="42.70967" lon="1.42264">
        <ele>1180.388</ele>
        <time>2024-08-31T06:49:23Z</time>
      </trkpt>
      <trkpt lat="42.70966" lon="1.42261">
        <ele>1179.442</ele>
        <time>2024-08-31T06:49:25Z</time>
      </trkpt>
      <trkpt lat="42.70965" lon="1.42259">
        <ele>1178.41</ele>
        <time>2024-08-31T06:49:27Z</time>
      </trkpt>
      <trkpt lat="42.70964" lon="1.42256">
        <ele>1177.029</ele>
        <time>2024-08-31T06:49:29Z</time>
      </trkpt>
      <trkpt lat="42.70963" lon="1.42253">
        <ele>1177.652</ele>
        <time>2024-08-31T06:49:31Z</time>
      </trkpt>
      <trkpt lat="42.70963" lon="1.42249">
        <ele>1177.103</ele>
        <time>2024-08-31T06:49:33Z</time>
      </trkpt>
      <trkpt lat="42.70962" lon="1.42246">
        <ele>1177.035</ele>
        <time>2024-08-31T06:49:35Z</time>
      </trkpt>
      <trkpt lat="42.70961" lon="1.42243">
        <ele>1177.841</ele>
        <time>2024-08-31T06:49:37Z</time>
      </trkpt>
      <trkpt lat="42.70961" lon="1.42239">
        <ele>1176.38</ele>
        <time>2024-08-31T06:49:39Z</time>
      </trkpt>
      <trkpt lat="42.70961" lon="1.42236">
        <ele>1176.796</ele>
        <time>2024-08-31T06:49:41Z</time>
      </trkpt>
      <trkpt lat="42.70961" lon="1.42232">
        <ele>1178.05</ele>
        <time>2024-08-31T06:49:43Z</time>
      </trkpt>
      <trkpt lat="42.7096" lon="1.42229">
        <ele>1179.483</ele>
        <time>2024-08-31T06:49:45Z</time>
      </trkpt>
      <trkpt lat="42.70961" lon="1.42225">
        <ele>1178.165</ele>
        <time>2024-08-31T06:49:47Z</time>
      </trkpt>
      <trkpt lat="42.70961" lon="1.42221">
        <ele>1177.67</ele>
        <time>2024-08-31T06:49:49Z</time>
      </trkpt>
      <trkpt lat="42.70962" lon="1.42218">
        <ele>1176.733</ele>
        <time>2024-08-31T06:49:51Z</time>
      </trkpt>
      <trkpt lat="42.70962" lon="1.42214">
        <ele>1177.002</ele>
        <time>2024-08-31T06:49:53Z</time>
      </trkpt>
      <trkpt lat="42.70962" lon="1.42212">
        <ele>1178.005</ele>
        <time>2024-08-31T06:49:55Z</time>
      </trkpt>
      <trkpt lat="42.70961" lon="1.42209">
        <ele>1177.569</ele>
        <time>2024-08-31T06:49:57Z</time>
      </trkpt>
      <trkpt lat="42.70961" lon="1.42205">
        <ele>1178.685</ele>
        <time>2024-08-31T06:49:59Z</time>
      </trkpt>
      <trkpt lat="42.7096" lon="1.42201">
        <ele>1178.91</ele>
        <time>2024-08-31T06:50:01Z</time>
      </trkpt>
      <trkpt lat="42.70958" lon="1.42199">
        <ele>1178.83</ele>
        <time>2024-08-31T06:50:03Z</time>
      </trkpt>
      <trkpt lat="42.70958" lon="1.42196">
        <ele>1179.467</ele>
        <time>2024-08-31T06:50:05Z</time>
      </trkpt>
      <trkpt lat="42.70957" lon="1.42192">
        <ele>1179.076</ele>
        <time>2024-08-31T06:50:07Z</time>
      </trkpt>
      <trkpt lat="42.70957" lon="1.42189">
        <ele>1179.067</ele>
        <time>2024-08-31T06:50:09Z</time>
      </trkpt>
      <trkpt lat="42.70956" lon="1.42186">
        <ele>1178.769</ele>
        <time>2024-08-31T06:50:11Z</time>
      </trkpt>
      <trkpt lat="42.70954" lon="1.42184">
        <ele>1179.878</ele>
        <time>2024-08-31T06:50:13Z</time>
      </trkpt>
      <trkpt lat="42.70953" lon="1.42181">
        <ele>1180.25</ele>
        <time>2024-08-31T06:50:15Z</time>
      </trkpt>
      <trkpt lat="42.70952" lon="1.42178">
        <ele>1180.15</ele>
        <time>2024-08-31T06:50:17Z</time>
      </trkpt>
      <trkpt lat="42.70952" lon="1.42175">
        <ele>1179.915</ele>
        <time>2024-08-31T06:50:19Z</time>
      </trkpt>
      <trkpt lat="42.70951" lon="1.42172">
        <ele>1179.621</ele>
        <time>2024-08-31T06:50:21Z</time>
      </trkpt>
      <trkpt lat="42.7095" lon="1.42168">
        <ele>1180.587</ele>
        <time>2024-08-31T06:50:23Z</time>
      </trkpt>
      <trkpt lat="42.7095" lon="1.42165">
        <ele>1181.692</ele>
        <time>2024-08-31T06:50:25Z</time>
      </trkpt>
      <trkpt lat="42.70949" lon="1.42162">
        <ele>1181.513</ele>
        <time>2024-08-31T06:50:27Z</time>
      </trkpt>
      <trkpt lat="42.70949" lon="1.42159">
        <ele>1181.91</ele>
        <time>2024-08-31T06:50:29Z</time>
      </trkpt>
      <trkpt lat="42.70948" lon="1.42155">
        <ele>1181.989</ele>
        <time>2024-08-31T06:50:31Z</time>
      </trkpt>
      <trkpt lat="42.70947" lon="1.42151">
        <ele>1180.861</ele>
        <time>2024-08-31T06:50:33Z</time>
      </trkpt>
      <trkpt lat="42.70946" lon="1.42147">
        <ele>1181.645</ele>
        <time>2024-08-31T06:50:35Z</time>
      </trkpt>
      <trkpt lat="42.70945" lon="1.42143">
        <ele>1183.306</ele>
        <time>2024-08-31T06:50:37Z</time>
      </trkpt>
      <trkpt lat="42.70945" lon="1.42139">
        <ele>1182.499</ele>
        <time>2024-08-31T06:50:39Z</time>
      </trkpt>
      <trkpt lat="42.70944" lon="1.42135">
        <ele>1183.453</ele>
        <time>2024-08-31T06:50:41Z</time>
      </trkpt>
      <trkpt lat="42.70944" lon="1.4213">
        <ele>1181.834</ele>
        <time>2024-08-31T06:50:43Z</time>
      </trkpt>
      <trkpt lat="42.70944" lon="1.42126">
        <ele>1182.065</ele>
        <time>2024-08-31T06:50:45Z</time>
      </trkpt>
      <trkpt lat="42.70943" lon="1.42122">
        <ele>1183.34</ele>
        <time>2024-08-31T06:50:47Z</time>
      </trkpt>
      <trkpt lat="42.70943" lon="1.42118">
        <ele>1183.161</ele>
        <time>2024-08-31T06:50:49Z</time>
      </trkpt>
      <trkpt lat="42.70944" lon="1.42114">
        <ele>1182.576</ele>
        <time>2024-08-31T06:50:51Z</time>
      </trkpt>
      <trkpt lat="42.70945" lon="1.4211">
        <ele>1179.311</ele>
        <time>2024-08-31T06:50:53Z</time>
      </trkpt>
      <trkpt lat="42.70945" lon="1.42106">
        <ele>1176.291</ele>
        <time>2024-08-31T06:50:55Z</time>
      </trkpt>
      <trkpt lat="42.70945" lon="1.42102">
        <ele>1172.598</ele>
        <time>2024-08-31T06:50:57Z</time>
      </trkpt>
      <trkpt lat="42.70945" lon="1.42099">
        <ele>1170.76</ele>
        <time>2024-08-31T06:50:59Z</time>
      </trkpt>
      <trkpt lat="42.70945" lon="1.42096">
        <ele>1170.653</ele>
        <time>2024-08-31T06:51:01Z</time>
      </trkpt>
      <trkpt lat="42.70945" lon="1.42095">
        <ele>1170.017</ele>
        <time>2024-08-31T06:51:03Z</time>
      </trkpt>
      <trkpt lat="42.70944" lon="1.42093">
        <ele>1171.471</ele>
        <time>2024-08-31T06:51:05Z</time>
      </trkpt>
      <trkpt lat="42.70944" lon="1.42092">
        <ele>1170.754</ele>
        <time>2024-08-31T06:51:07Z</time>
      </trkpt>
      <trkpt lat="42.70944" lon="1.42091">
        <ele>1169.497</ele>
        <time>2024-08-31T06:51:09Z</time>
      </trkpt>
      <trkpt lat="42.70944" lon="1.42089">
        <ele>1170.414</ele>
        <time>2024-08-31T06:51:11Z</time>
      </trkpt>
      <trkpt lat="42.70943" lon="1.42088">
        <ele>1170.83</ele>
        <time>2024-08-31T06:51:13Z</time>
      </trkpt>
      <trkpt lat="42.70942" lon="1.42088">
        <ele>1172.183</ele>
        <time>2024-08-31T06:51:15Z</time>
      </trkpt>
      <trkpt lat="42.70941" lon="1.42087">
        <ele>1172.507</ele>
        <time>2024-08-31T06:51:17Z</time>
      </trkpt>
      <trkpt lat="42.70941" lon="1.42086">
        <ele>1175.428</ele>
        <time>2024-08-31T06:51:19Z</time>
      </trkpt>
      <trkpt lat="42.70941" lon="1.42084">
        <ele>1176.866</ele>
        <time>2024-08-31T06:51:21Z</time>
      </trkpt>
      <trkpt lat="42.70941" lon="1.42083">
        <ele>1177.827</ele>
        <time>2024-08-31T06:51:23Z</time>
      </trkpt>
      <trkpt lat="42.70941" lon="1.42081">
        <ele>1179.014</ele>
        <time>2024-08-31T06:51:25Z</time>
      </trkpt>
      <trkpt lat="42.7094" lon="1.4208">
        <ele>1179.991</ele>
        <time>2024-08-31T06:51:27Z</time>
      </trkpt>
      <trkpt lat="42.7094" lon="1.42078">
        <ele>1179.889</ele>
        <time>2024-08-31T06:51:29Z</time>
      </trkpt>
      <trkpt lat="42.7094" lon="1.42077">
        <ele>1178.897</ele>
        <time>2024-08-31T06:51:31Z</time>
      </trkpt>
      <trkpt lat="42.70939" lon="1.42076">
        <ele>1179.405</ele>
        <time>2024-08-31T06:51:33Z</time>
      </trkpt>
      <trkpt lat="42.70939" lon="1.42075">
        <ele>1180.216</ele>
        <time>2024-08-31T06:51:35Z</time>
      </trkpt>
      <trkpt lat="42.70939" lon="1.42074">
        <ele>1181.342</ele>
        <time>2024-08-31T06:51:37Z</time>
      </trkpt>
      <trkpt lat="42.70939" lon="1.42073">
        <ele>1180.978</ele>
        <time>2024-08-31T06:51:39Z</time>
      </trkpt>
      <trkpt lat="42.70938" lon="1.42072">
        <ele>1183.105</ele>
        <time>2024-08-31T06:51:41Z</time>
      </trkpt>
      <trkpt lat="42.70938" lon="1.42072">
        <ele>1182.204</ele>
        <time>2024-08-31T06:51:43Z</time>
      </trkpt>
      <trkpt lat="42.70938" lon="1.4207">
        <ele>1183.079</ele>
        <time>2024-08-31T06:51:45Z</time>
      </trkpt>
      <trkpt lat="42.70938" lon="1.42069">
        <ele>1183.318</ele>
        <time>2024-08-31T06:51:47Z</time>
      </trkpt>
      <trkpt lat="42.70936" lon="1.42067">
        <ele>1186.111</ele>
        <time>2024-08-31T06:51:49Z</time>
      </trkpt>
      <trkpt lat="42.70935" lon="1.42065">
        <ele>1186.272</ele>
        <time>2024-08-31T06:51:51Z</time>
      </trkpt>
      <trkpt lat="42.70934" lon="1.42063">
        <ele>1187.938</ele>
        <time>2024-08-31T06:51:53Z</time>
      </trkpt>
      <trkpt lat="42.70933" lon="1.42061">
        <ele>1188.439</ele>
        <time>2024-08-31T06:51:55Z</time>
      </trkpt>
      <trkpt lat="42.70932" lon="1.42059">
        <ele>1188.403</ele>
        <time>2024-08-31T06:51:57Z</time>
      </trkpt>
      <trkpt lat="42.7093" lon="1.42057">
        <ele>1189.263</ele>
        <time>2024-08-31T06:51:59Z</time>
      </trkpt>
      <trkpt lat="42.70929" lon="1.42055">
        <ele>1189.684</ele>
        <time>2024-08-31T06:52:01Z</time>
      </trkpt>
      <trkpt lat="42.70928" lon="1.42053">
        <ele>1189.354</ele>
        <time>2024-08-31T06:52:03Z</time>
      </trkpt>
      <trkpt lat="42.70927" lon="1.4205">
        <ele>1188.169</ele>
        <time>2024-08-31T06:52:05Z</time>
      </trkpt>
      <trkpt lat="42.70927" lon="1.42047">
        <ele>1188.309</ele>
        <time>2024-08-31T06:52:07Z</time>
      </trkpt>
      <trkpt lat="42.70927" lon="1.42044">
        <ele>1188.622</ele>
        <time>2024-08-31T06:52:09Z</time>
      </trkpt>
      <trkpt lat="42.70927" lon="1.42042">
        <ele>1188.386</ele>
        <time>2024-08-31T06:52:11Z</time>
      </trkpt>
      <trkpt lat="42.70927" lon="1.42039">
        <ele>1189.048</ele>
        <time>2024-08-31T06:52:13Z</time>
      </trkpt>
      <trkpt lat="42.70927" lon="1.42037">
        <ele>1191.348</ele>
        <time>2024-08-31T06:52:15Z</time>
      </trkpt>
      <trkpt lat="42.70927" lon="1.42035">
        <ele>1193.214</ele>
        <time>2024-08-31T06:52:17Z</time>
      </trkpt>
      <trkpt lat="42.70926" lon="1.42032">
        <ele>1194.349</ele>
        <time>2024-08-31T06:52:19Z</time>
      </trkpt>
      <trkpt lat="42.70926" lon="1.4203">
        <ele>1195.216</ele>
        <time>2024-08-31T06:52:21Z</time>
      </trkpt>
      <trkpt lat="42.70926" lon="1.42027">
        <ele>1196.047</ele>
        <time>2024-08-31T06:52:23Z</time>
      </trkpt>
      <trkpt lat="42.70926" lon="1.42024">
        <ele>1196.204</ele>
        <time>2024-08-31T06:52:25Z</time>
      </trkpt>
      <trkpt lat="42.70927" lon="1.42021">
        <ele>1196.492</ele>
        <time>2024-08-31T06:52:27Z</time>
      </trkpt>
      <trkpt lat="42.70926" lon="1.42019">
        <ele>1197.023</ele>
        <time>2024-08-31T06:52:29Z</time>
      </trkpt>
      <trkpt lat="42.70926" lon="1.42017">
        <ele>1196.848</ele>
        <time>2024-08-31T06:52:31Z</time>
      </trkpt>
      <trkpt lat="42.70926" lon="1.42014">
        <ele>1197.444</ele>
        <time>2024-08-31T06:52:33Z</time>
      </trkpt>
      <trkpt lat="42.70926" lon="1.42012">
        <ele>1197.902</ele>
        <time>2024-08-31T06:52:35Z</time>
      </trkpt>
      <trkpt lat="42.70926" lon="1.42009">
        <ele>1198.199</ele>
        <time>2024-08-31T06:52:37Z</time>
      </trkpt>
      <trkpt lat="42.70926" lon="1.42006">
        <ele>1199.815</ele>
        <time>2024-08-31T06:52:39Z</time>
      </trkpt>
      <trkpt lat="42.70926" lon="1.42004">
        <ele>1199.823</ele>
        <time>2024-08-31T06:52:41Z</time>
      </trkpt>
      <trkpt lat="42.70926" lon="1.42001">
        <ele>1198.879</ele>
        <time>2024-08-31T06:52:43Z</time>
      </trkpt>
      <trkpt lat="42.70926" lon="1.41999">
        <ele>1199.247</ele>
        <time>2024-08-31T06:52:45Z</time>
      </trkpt>
      <trkpt lat="42.70927" lon="1.41996">
        <ele>1200.31</ele>
        <time>2024-08-31T06:52:47Z</time>
      </trkpt>
      <trkpt lat="42.70927" lon="1.41993">
        <ele>1201.109</ele>
        <time>2024-08-31T06:52:49Z</time>
      </trkpt>
      <trkpt lat="42.70928" lon="1.41991">
        <ele>1202.691</ele>
        <time>2024-08-31T06:52:51Z</time>
      </trkpt>
      <trkpt lat="42.70928" lon="1.41988">
        <ele>1203.776</ele>
        <time>2024-08-31T06:52:53Z</time>
      </trkpt>
      <trkpt lat="42.70928" lon="1.41984">
        <ele>1205.061</ele>
        <time>2024-08-31T06:52:55Z</time>
      </trkpt>
      <trkpt lat="42.70928" lon="1.41981">
        <ele>1206.455</ele>
        <time>2024-08-31T06:52:57Z</time>
      </trkpt>
      <trkpt lat="42.70928" lon="1.41977">
        <ele>1207.911</ele>
        <time>2024-08-31T06:52:59Z</time>
      </trkpt>
      <trkpt lat="42.70929" lon="1.41972">
        <ele>1209.306</ele>
        <time>2024-08-31T06:53:01Z</time>
      </trkpt>
      <trkpt lat="42.7093" lon="1.41968">
        <ele>1210.316</ele>
        <time>2024-08-31T06:53:03Z</time>
      </trkpt>
      <trkpt lat="42.7093" lon="1.41964">
        <ele>1212.006</ele>
        <time>2024-08-31T06:53:05Z</time>
      </trkpt>
      <trkpt lat="42.70932" lon="1.41959">
        <ele>1213.966</ele>
        <time>2024-08-31T06:53:07Z</time>
      </trkpt>
      <trkpt lat="42.70933" lon="1.41955">
        <ele>1215.425</ele>
        <time>2024-08-31T06:53:09Z</time>
      </trkpt>
      <trkpt lat="42.70934" lon="1.4195">
        <ele>1213.41</ele>
        <time>2024-08-31T06:53:11Z</time>
      </trkpt>
      <trkpt lat="42.70935" lon="1.41946">
        <ele>1213.664</ele>
        <time>2024-08-31T06:53:13Z</time>
      </trkpt>
      <trkpt lat="42.70935" lon="1.41941">
        <ele>1215.192</ele>
        <time>2024-08-31T06:53:15Z</time>
      </trkpt>
      <trkpt lat="42.70935" lon="1.4194">
        <ele>1214.635</ele>
        <time>2024-08-31T06:53:17Z</time>
      </trkpt>
      <trkpt lat="42.70936" lon="1.4194">
        <ele>1215.499</ele>
        <time>2024-08-31T06:53:19Z</time>
      </trkpt>
      <trkpt lat="42.70937" lon="1.41938">
        <ele>1217.653</ele>
        <time>2024-08-31T06:53:21Z</time>
      </trkpt>
      <trkpt lat="42.70938" lon="1.41937">
        <ele>1217.068</ele>
        <time>2024-08-31T06:53:23Z</time>
      </trkpt>
      <trkpt lat="42.70938" lon="1.41936">
        <ele>1215.534</ele>
        <time>2024-08-31T06:53:25Z</time>
      </trkpt>
      <trkpt lat="42.70939" lon="1.41934">
        <ele>1217.027</ele>
        <time>2024-08-31T06:53:27Z</time>
      </trkpt>
      <trkpt lat="42.70939" lon="1.41932">
        <ele>1217.419</ele>
        <time>2024-08-31T06:53:29Z</time>
      </trkpt>
      <trkpt lat="42.70939" lon="1.4193">
        <ele>1217.207</ele>
        <time>2024-08-31T06:53:31Z</time>
      </trkpt>
      <trkpt lat="42.7094" lon="1.4193">
        <ele>1216.511</ele>
        <time>2024-08-31T06:53:33Z</time>
      </trkpt>
      <trkpt lat="42.7094" lon="1.41928">
        <ele>1217.459</ele>
        <time>2024-08-31T06:53:35Z</time>
      </trkpt>
      <trkpt lat="42.70941" lon="1.41925">
        <ele>1216.28</ele>
        <time>2024-08-31T06:53:37Z</time>
      </trkpt>
      <trkpt lat="42.70943" lon="1.41923">
        <ele>1217.325</ele>
        <time>2024-08-31T06:53:39Z</time>
      </trkpt>
      <trkpt lat="42.70944" lon="1.4192">
        <ele>1217.146</ele>
        <time>2024-08-31T06:53:41Z</time>
      </trkpt>
      <trkpt lat="42.70944" lon="1.41918">
        <ele>1217.028</ele>
        <time>2024-08-31T06:53:43Z</time>
      </trkpt>
      <trkpt lat="42.70944" lon="1.41914">
        <ele>1217.418</ele>
        <time>2024-08-31T06:53:45Z</time>
      </trkpt>
      <trkpt lat="42.70944" lon="1.41912">
        <ele>1217.987</ele>
        <time>2024-08-31T06:53:47Z</time>
      </trkpt>
      <trkpt lat="42.70944" lon="1.41908">
        <ele>1216.058</ele>
        <time>2024-08-31T06:53:49Z</time>
      </trkpt>
      <trkpt lat="42.70944" lon="1.41906">
        <ele>1217.187</ele>
        <time>2024-08-31T06:53:51Z</time>
      </trkpt>
      <trkpt lat="42.70944" lon="1.41904">
        <ele>1217.982</ele>
        <time>2024-08-31T06:53:53Z</time>
      </trkpt>
      <trkpt lat="42.70943" lon="1.41901">
        <ele>1218.835</ele>
        <time>2024-08-31T06:53:55Z</time>
      </trkpt>
      <trkpt lat="42.70943" lon="1.41899">
        <ele>1219.926</ele>
        <time>2024-08-31T06:53:57Z</time>
      </trkpt>
      <trkpt lat="42.70942" lon="1.41896">
        <ele>1220.249</ele>
        <time>2024-08-31T06:53:59Z</time>
      </trkpt>
      <trkpt lat="42.70941" lon="1.41893">
        <ele>1220.333</ele>
        <time>2024-08-31T06:54:01Z</time>
      </trkpt>
      <trkpt lat="42.70941" lon="1.41891">
        <ele>1219.383</ele>
        <time>2024-08-31T06:54:03Z</time>
      </trkpt>
      <trkpt lat="42.7094" lon="1.41888">
        <ele>1219.424</ele>
        <time>2024-08-31T06:54:05Z</time>
      </trkpt>
      <trkpt lat="42.70939" lon="1.41887">
        <ele>1218.043</ele>
        <time>2024-08-31T06:54:07Z</time>
      </trkpt>
      <trkpt lat="42.70939" lon="1.41887">
        <ele>1218.111</ele>
        <time>2024-08-31T06:54:09Z</time>
      </trkpt>
      <trkpt lat="42.70939" lon="1.41887">
        <ele>1218.126</ele>
        <time>2024-08-31T06:54:11Z</time>
      </trkpt>
      <trkpt lat="42.70939" lon="1.41887">
        <ele>1218.145</ele>
        <time>2024-08-31T06:54:13Z</time>
      </trkpt>
      <trkpt lat="42.70939" lon="1.41887">
        <ele>1218.156</ele>
        <time>2024-08-31T06:54:15Z</time>
      </trkpt>
      <trkpt lat="42.70939" lon="1.41887">
        <ele>1218.193</ele>
        <time>2024-08-31T06:54:17Z</time>
      </trkpt>
      <trkpt lat="42.70939" lon="1.41887">
        <ele>1218.216</ele>
        <time>2024-08-31T06:54:19Z</time>
      </trkpt>
      <trkpt lat="42.70939" lon="1.41887">
        <ele>1218.239</ele>
        <time>2024-08-31T06:54:21Z</time>
      </trkpt>
      <trkpt lat="42.70939" lon="1.41887">
        <ele>1218.237</ele>
        <time>2024-08-31T06:54:23Z</time>
      </trkpt>
      <trkpt lat="42.70939" lon="1.41887">
        <ele>1218.66</ele>
        <time>2024-08-31T06:54:25Z</time>
      </trkpt>
      <trkpt lat="42.70939" lon="1.41887">
        <ele>1217.359</ele>
        <time>2024-08-31T06:54:27Z</time>
      </trkpt>
      <trkpt lat="42.70939" lon="1.41887">
        <ele>1217.333</ele>
        <time>2024-08-31T06:54:29Z</time>
      </trkpt>
      <trkpt lat="42.70939" lon="1.41887">
        <ele>1216.816</ele>
        <time>2024-08-31T06:54:31Z</time>
      </trkpt>
      <trkpt lat="42.70939" lon="1.41887">
        <ele>1216.173</ele>
        <time>2024-08-31T06:54:33Z</time>
      </trkpt>
      <trkpt lat="42.70939" lon="1.41882">
        <ele>1215.205</ele>
        <time>2024-08-31T06:54:35Z</time>
      </trkpt>
      <trkpt lat="42.70937" lon="1.4188">
        <ele>1215.734</ele>
        <time>2024-08-31T06:54:37Z</time>
      </trkpt>
      <trkpt lat="42.70936" lon="1.41877">
        <ele>1215.559</ele>
        <time>2024-08-31T06:54:39Z</time>
      </trkpt>
      <trkpt lat="42.70935" lon="1.41874">
        <ele>1215.205</ele>
        <time>2024-08-31T06:54:41Z</time>
      </trkpt>
      <trkpt lat="42.70935" lon="1.4187">
        <ele>1214.854</ele>
        <time>2024-08-31T06:54:43Z</time>
      </trkpt>
      <trkpt lat="42.70935" lon="1.41867">
        <ele>1216.091</ele>
        <time>2024-08-31T06:54:45Z</time>
      </trkpt>
      <trkpt lat="42.70935" lon="1.41864">
        <ele>1215.947</ele>
        <time>2024-08-31T06:54:47Z</time>
      </trkpt>
      <trkpt lat="42.70936" lon="1.4186">
        <ele>1215.815</ele>
        <time>2024-08-31T06:54:49Z</time>
      </trkpt>
      <trkpt lat="42.70937" lon="1.41857">
        <ele>1215.239</ele>
        <time>2024-08-31T06:54:51Z</time>
      </trkpt>
      <trkpt lat="42.7094" lon="1.41855">
        <ele>1213.865</ele>
        <time>2024-08-31T06:54:53Z</time>
      </trkpt>
      <trkpt lat="42.70943" lon="1.41854">
        <ele>1214.238</ele>
        <time>2024-08-31T06:54:55Z</time>
      </trkpt>
      <trkpt lat="42.70943" lon="1.41854">
        <ele>1223.478</ele>
        <time>2024-08-31T06:54:57Z</time>
      </trkpt>
      <trkpt lat="42.70943" lon="1.41854">
        <ele>1223.506</ele>
        <time>2024-08-31T06:54:59Z</time>
      </trkpt>
      <trkpt lat="42.70943" lon="1.41854">
        <ele>1223.351</ele>
        <time>2024-08-31T06:55:01Z</time>
      </trkpt>
      <trkpt lat="42.70943" lon="1.41854">
        <ele>1223.813</ele>
        <time>2024-08-31T06:55:03Z</time>
      </trkpt>
      <trkpt lat="42.70943" lon="1.41854">
        <ele>1221.727</ele>
        <time>2024-08-31T06:55:05Z</time>
      </trkpt>
      <trkpt lat="42.70943" lon="1.41854">
        <ele>1220.824</ele>
        <time>2024-08-31T06:55:07Z</time>
      </trkpt>
      <trkpt lat="42.70943" lon="1.41854">
        <ele>1217.181</ele>
        <time>2024-08-31T06:55:09Z</time>
      </trkpt>
      <trkpt lat="42.70943" lon="1.41854">
        <ele>1215.154</ele>
        <time>2024-08-31T06:55:11Z</time>
      </trkpt>
      <trkpt lat="42.70943" lon="1.41854">
        <ele>1214.321</ele>
        <time>2024-08-31T06:55:13Z</time>
      </trkpt>
      <trkpt lat="42.70943" lon="1.41854">
        <ele>1216.433</ele>
        <time>2024-08-31T06:55:15Z</time>
      </trkpt>
      <trkpt lat="42.70943" lon="1.41854">
        <ele>1216.42</ele>
        <time>2024-08-31T06:55:17Z</time>
      </trkpt>
      <trkpt lat="42.70943" lon="1.41854">
        <ele>1216.411</ele>
        <time>2024-08-31T06:55:19Z</time>
      </trkpt>
      <trkpt lat="42.70943" lon="1.41854">
        <ele>1216.395</ele>
        <time>2024-08-31T06:55:21Z</time>
      </trkpt>
      <trkpt lat="42.70943" lon="1.41854">
        <ele>1216.39</ele>
        <time>2024-08-31T06:55:23Z</time>
      </trkpt>
      <trkpt lat="42.70943" lon="1.41854">
        <ele>1216.391</ele>
        <time>2024-08-31T06:55:25Z</time>
      </trkpt>
      <trkpt lat="42.70943" lon="1.41854">
        <ele>1216.524</ele>
        <time>2024-08-31T06:55:27Z</time>
      </trkpt>
      <trkpt lat="42.70943" lon="1.41854">
        <ele>1216.597</ele>
        <time>2024-08-31T06:55:29Z</time>
      </trkpt>
      <trkpt lat="42.70943" lon="1.41854">
        <ele>1216.86</ele>
        <time>2024-08-31T06:55:31Z</time>
      </trkpt>
      <trkpt lat="42.70943" lon="1.41854">
        <ele>1216.853</ele>
        <time>2024-08-31T06:55:33Z</time>
      </trkpt>
      <trkpt lat="42.70943" lon="1.41854">
        <ele>1216.847</ele>
        <time>2024-08-31T06:55:35Z</time>
      </trkpt>
      <trkpt lat="42.70943" lon="1.41854">
        <ele>1216.837</ele>
        <time>2024-08-31T06:55:37Z</time>
      </trkpt>
      <trkpt lat="42.70943" lon="1.41854">
        <ele>1216.834</ele>
        <time>2024-08-31T06:55:39Z</time>
      </trkpt>
      <trkpt lat="42.70943" lon="1.41854">
        <ele>1216.852</ele>
        <time>2024-08-31T06:55:41Z</time>
      </trkpt>
      <trkpt lat="42.70943" lon="1.41854">
        <ele>1216.875</ele>
        <time>2024-08-31T06:55:43Z</time>
      </trkpt>
      <trkpt lat="42.70943" lon="1.41854">
        <ele>1216.866</ele>
        <time>2024-08-31T06:55:45Z</time>
      </trkpt>
      <trkpt lat="42.70943" lon="1.41854">
        <ele>1216.869</ele>
        <time>2024-08-31T06:55:47Z</time>
      </trkpt>
      <trkpt lat="42.70943" lon="1.41854">
        <ele>1216.903</ele>
        <time>2024-08-31T06:55:49Z</time>
      </trkpt>
      <trkpt lat="42.70943" lon="1.41854">
        <ele>1216.906</ele>
        <time>2024-08-31T06:55:51Z</time>
      </trkpt>
      <trkpt lat="42.70943" lon="1.41854">
        <ele>1216.902</ele>
        <time>2024-08-31T06:55:53Z</time>
      </trkpt>
      <trkpt lat="42.70943" lon="1.41854">
        <ele>1216.901</ele>
        <time>2024-08-31T06:55:55Z</time>
      </trkpt>
      <trkpt lat="42.70943" lon="1.41854">
        <ele>1217.163</ele>
        <time>2024-08-31T06:55:57Z</time>
      </trkpt>
      <trkpt lat="42.70943" lon="1.41854">
        <ele>1216.582</ele>
        <time>2024-08-31T06:55:59Z</time>
      </trkpt>
      <trkpt lat="42.70943" lon="1.41854">
        <ele>1216.558</ele>
        <time>2024-08-31T06:56:01Z</time>
      </trkpt>
      <trkpt lat="42.70943" lon="1.41854">
        <ele>1216.531</ele>
        <time>2024-08-31T06:56:03Z</time>
      </trkpt>
      <trkpt lat="42.70943" lon="1.41854">
        <ele>1216.523</ele>
        <time>2024-08-31T06:56:05Z</time>
      </trkpt>
      <trkpt lat="42.70943" lon="1.41854">
        <ele>1216.489</ele>
        <time>2024-08-31T06:56:07Z</time>
      </trkpt>
      <trkpt lat="42.70942" lon="1.41842">
        <ele>1216.496</ele>
        <time>2024-08-31T06:56:09Z</time>
      </trkpt>
      <trkpt lat="42.70942" lon="1.41842">
        <ele>1216.503</ele>
        <time>2024-08-31T06:56:11Z</time>
      </trkpt>
      <trkpt lat="42.70942" lon="1.41842">
        <ele>1216.509</ele>
        <time>2024-08-31T06:56:13Z</time>
      </trkpt>
      <trkpt lat="42.70942" lon="1.41841">
        <ele>1215.98</ele>
        <time>2024-08-31T06:56:15Z</time>
      </trkpt>
      <trkpt lat="42.7094" lon="1.41839">
        <ele>1215.109</ele>
        <time>2024-08-31T06:56:17Z</time>
      </trkpt>
      <trkpt lat="42.70933" lon="1.41834">
        <ele>1207.878</ele>
        <time>2024-08-31T06:56:19Z</time>
      </trkpt>
      <trkpt lat="42.70933" lon="1.41834">
        <ele>1209.291</ele>
        <time>2024-08-31T06:56:21Z</time>
      </trkpt>
      <trkpt lat="42.70933" lon="1.41832">
        <ele>1209.542</ele>
        <time>2024-08-31T06:56:23Z</time>
      </trkpt>
      <trkpt lat="42.70933" lon="1.41829">
        <ele>1209.005</ele>
        <time>2024-08-31T06:56:25Z</time>
      </trkpt>
      <trkpt lat="42.70933" lon="1.41827">
        <ele>1209.071</ele>
        <time>2024-08-31T06:56:27Z</time>
      </trkpt>
      <trkpt lat="42.70933" lon="1.41825">
        <ele>1209.118</ele>
        <time>2024-08-31T06:56:29Z</time>
      </trkpt>
      <trkpt lat="42.70933" lon="1.41823">
        <ele>1209.649</ele>
        <time>2024-08-31T06:56:31Z</time>
      </trkpt>
      <trkpt lat="42.70932" lon="1.41822">
        <ele>1210.055</ele>
        <time>2024-08-31T06:56:33Z</time>
      </trkpt>
      <trkpt lat="42.70931" lon="1.41821">
        <ele>1209.908</ele>
        <time>2024-08-31T06:56:35Z</time>
      </trkpt>
      <trkpt lat="42.7093" lon="1.41819">
        <ele>1208.506</ele>
        <time>2024-08-31T06:56:37Z</time>
      </trkpt>
      <trkpt lat="42.70929" lon="1.41818">
        <ele>1208.546</ele>
        <time>2024-08-31T06:56:39Z</time>
      </trkpt>
      <trkpt lat="42.70928" lon="1.41816">
        <ele>1207.35</ele>
        <time>2024-08-31T06:56:41Z</time>
      </trkpt>
      <trkpt lat="42.7093" lon="1.41813">
        <ele>1207.772</ele>
        <time>2024-08-31T06:56:43Z</time>
      </trkpt>
      <trkpt lat="42.70931" lon="1.41812">
        <ele>1207.876</ele>
        <time>2024-08-31T06:56:45Z</time>
      </trkpt>
      <trkpt lat="42.70931" lon="1.41809">
        <ele>1207.461</ele>
        <time>2024-08-31T06:56:47Z</time>
      </trkpt>
      <trkpt lat="42.70932" lon="1.41807">
        <ele>1207.533</ele>
        <time>2024-08-31T06:56:49Z</time>
      </trkpt>
      <trkpt lat="42.70933" lon="1.41805">
        <ele>1206.811</ele>
        <time>2024-08-31T06:56:51Z</time>
      </trkpt>
      <trkpt lat="42.70933" lon="1.41803">
        <ele>1207.968</ele>
        <time>2024-08-31T06:56:53Z</time>
      </trkpt>
      <trkpt lat="42.70934" lon="1.418">
        <ele>1208.88</ele>
        <time>2024-08-31T06:56:55Z</time>
      </trkpt>
      <trkpt lat="42.70934" lon="1.41797">
        <ele>1209.241</ele>
        <time>2024-08-31T06:56:57Z</time>
      </trkpt>
      <trkpt lat="42.70933" lon="1.41794">
        <ele>1210.278</ele>
        <time>2024-08-31T06:56:59Z</time>
      </trkpt>
      <trkpt lat="42.70932" lon="1.41791">
        <ele>1210.459</ele>
        <time>2024-08-31T06:57:01Z</time>
      </trkpt>
      <trkpt lat="42.70931" lon="1.41788">
        <ele>1210.132</ele>
        <time>2024-08-31T06:57:03Z</time>
      </trkpt>
      <trkpt lat="42.70929" lon="1.41786">
        <ele>1211.36</ele>
        <time>2024-08-31T06:57:05Z</time>
      </trkpt>
      <trkpt lat="42.70928" lon="1.41784">
        <ele>1210.72</ele>
        <time>2024-08-31T06:57:07Z</time>
      </trkpt>
      <trkpt lat="42.70927" lon="1.41781">
        <ele>1211.638</ele>
        <time>2024-08-31T06:57:09Z</time>
      </trkpt>
      <trkpt lat="42.70926" lon="1.41779">
        <ele>1212.465</ele>
        <time>2024-08-31T06:57:11Z</time>
      </trkpt>
      <trkpt lat="42.70925" lon="1.41778">
        <ele>1211.304</ele>
        <time>2024-08-31T06:57:13Z</time>
      </trkpt>
      <trkpt lat="42.70924" lon="1.41776">
        <ele>1211.326</ele>
        <time>2024-08-31T06:57:15Z</time>
      </trkpt>
      <trkpt lat="42.70923" lon="1.41774">
        <ele>1210.399</ele>
        <time>2024-08-31T06:57:17Z</time>
      </trkpt>
      <trkpt lat="42.70922" lon="1.41772">
        <ele>1210.263</ele>
        <time>2024-08-31T06:57:19Z</time>
      </trkpt>
      <trkpt lat="42.70922" lon="1.4177">
        <ele>1210.881</ele>
        <time>2024-08-31T06:57:21Z</time>
      </trkpt>
      <trkpt lat="42.70921" lon="1.41768">
        <ele>1210.267</ele>
        <time>2024-08-31T06:57:23Z</time>
      </trkpt>
      <trkpt lat="42.7092" lon="1.41766">
        <ele>1210.942</ele>
        <time>2024-08-31T06:57:25Z</time>
      </trkpt>
      <trkpt lat="42.7092" lon="1.41763">
        <ele>1209.984</ele>
        <time>2024-08-31T06:57:27Z</time>
      </trkpt>
      <trkpt lat="42.7092" lon="1.41762">
        <ele>1209.617</ele>
        <time>2024-08-31T06:57:29Z</time>
      </trkpt>
      <trkpt lat="42.70921" lon="1.4176">
        <ele>1210.55</ele>
        <time>2024-08-31T06:57:31Z</time>
      </trkpt>
      <trkpt lat="42.70921" lon="1.41758">
        <ele>1209.58</ele>
        <time>2024-08-31T06:57:33Z</time>
      </trkpt>
      <trkpt lat="42.70921" lon="1.41755">
        <ele>1210.392</ele>
        <time>2024-08-31T06:57:35Z</time>
      </trkpt>
      <trkpt lat="42.7092" lon="1.41753">
        <ele>1211.363</ele>
        <time>2024-08-31T06:57:37Z</time>
      </trkpt>
      <trkpt lat="42.70919" lon="1.4175">
        <ele>1210.63</ele>
        <time>2024-08-31T06:57:39Z</time>
      </trkpt>
      <trkpt lat="42.70918" lon="1.41748">
        <ele>1210.844</ele>
        <time>2024-08-31T06:57:41Z</time>
      </trkpt>
      <trkpt lat="42.70917" lon="1.41746">
        <ele>1210.243</ele>
        <time>2024-08-31T06:57:43Z</time>
      </trkpt>
      <trkpt lat="42.70916" lon="1.41743">
        <ele>1209.703</ele>
        <time>2024-08-31T06:57:45Z</time>
      </trkpt>
      <trkpt lat="42.70915" lon="1.41742">
        <ele>1209.389</ele>
        <time>2024-08-31T06:57:47Z</time>
      </trkpt>
      <trkpt lat="42.70914" lon="1.4174">
        <ele>1208.894</ele>
        <time>2024-08-31T06:57:49Z</time>
      </trkpt>
      <trkpt lat="42.70914" lon="1.4174">
        <ele>1211.027</ele>
        <time>2024-08-31T06:57:51Z</time>
      </trkpt>
      <trkpt lat="42.70913" lon="1.41739">
        <ele>1210.391</ele>
        <time>2024-08-31T06:57:53Z</time>
      </trkpt>
      <trkpt lat="42.70912" lon="1.41737">
        <ele>1210.037</ele>
        <time>2024-08-31T06:57:55Z</time>
      </trkpt>
      <trkpt lat="42.7091" lon="1.41735">
        <ele>1210.941</ele>
        <time>2024-08-31T06:57:57Z</time>
      </trkpt>
      <trkpt lat="42.70909" lon="1.41732">
        <ele>1211.473</ele>
        <time>2024-08-31T06:57:59Z</time>
      </trkpt>
      <trkpt lat="42.70908" lon="1.4173">
        <ele>1211.022</ele>
        <time>2024-08-31T06:58:01Z</time>
      </trkpt>
      <trkpt lat="42.70908" lon="1.41727">
        <ele>1212.483</ele>
        <time>2024-08-31T06:58:03Z</time>
      </trkpt>
      <trkpt lat="42.70907" lon="1.41725">
        <ele>1214.179</ele>
        <time>2024-08-31T06:58:05Z</time>
      </trkpt>
      <trkpt lat="42.70907" lon="1.41722">
        <ele>1212.965</ele>
        <time>2024-08-31T06:58:07Z</time>
      </trkpt>
      <trkpt lat="42.70906" lon="1.41719">
        <ele>1213.309</ele>
        <time>2024-08-31T06:58:09Z</time>
      </trkpt>
      <trkpt lat="42.70905" lon="1.41717">
        <ele>1213.473</ele>
        <time>2024-08-31T06:58:11Z</time>
      </trkpt>
      <trkpt lat="42.70905" lon="1.41714">
        <ele>1213.584</ele>
        <time>2024-08-31T06:58:13Z</time>
      </trkpt>
      <trkpt lat="42.70905" lon="1.41711">
        <ele>1214.553</ele>
        <time>2024-08-31T06:58:15Z</time>
      </trkpt>
      <trkpt lat="42.70905" lon="1.41709">
        <ele>1216.114</ele>
        <time>2024-08-31T06:58:17Z</time>
      </trkpt>
      <trkpt lat="42.70905" lon="1.41706">
        <ele>1217.458</ele>
        <time>2024-08-31T06:58:19Z</time>
      </trkpt>
      <trkpt lat="42.70905" lon="1.41703">
        <ele>1216.784</ele>
        <time>2024-08-31T06:58:21Z</time>
      </trkpt>
      <trkpt lat="42.70906" lon="1.41701">
        <ele>1216.532</ele>
        <time>2024-08-31T06:58:23Z</time>
      </trkpt>
      <trkpt lat="42.70906" lon="1.41698">
        <ele>1215.564</ele>
        <time>2024-08-31T06:58:25Z</time>
      </trkpt>
      <trkpt lat="42.70905" lon="1.41695">
        <ele>1215.867</ele>
        <time>2024-08-31T06:58:27Z</time>
      </trkpt>
      <trkpt lat="42.70904" lon="1.41693">
        <ele>1215.955</ele>
        <time>2024-08-31T06:58:29Z</time>
      </trkpt>
      <trkpt lat="42.70904" lon="1.41691">
        <ele>1216.508</ele>
        <time>2024-08-31T06:58:31Z</time>
      </trkpt>
      <trkpt lat="42.70903" lon="1.41689">
        <ele>1215.956</ele>
        <time>2024-08-31T06:58:33Z</time>
      </trkpt>
      <trkpt lat="42.70903" lon="1.41686">
        <ele>1216.692</ele>
        <time>2024-08-31T06:58:35Z</time>
      </trkpt>
      <trkpt lat="42.70902" lon="1.41684">
        <ele>1216.982</ele>
        <time>2024-08-31T06:58:37Z</time>
      </trkpt>
      <trkpt lat="42.70902" lon="1.41681">
        <ele>1218.441</ele>
        <time>2024-08-31T06:58:39Z</time>
      </trkpt>
      <trkpt lat="42.70902" lon="1.41678">
        <ele>1218.888</ele>
        <time>2024-08-31T06:58:41Z</time>
      </trkpt>
      <trkpt lat="42.70901" lon="1.41675">
        <ele>1219.295</ele>
        <time>2024-08-31T06:58:43Z</time>
      </trkpt>
      <trkpt lat="42.709" lon="1.41673">
        <ele>1219.94</ele>
        <time>2024-08-31T06:58:45Z</time>
      </trkpt>
      <trkpt lat="42.70899" lon="1.41671">
        <ele>1220.391</ele>
        <time>2024-08-31T06:58:47Z</time>
      </trkpt>
      <trkpt lat="42.70899" lon="1.41668">
        <ele>1220.886</ele>
        <time>2024-08-31T06:58:49Z</time>
      </trkpt>
      <trkpt lat="42.70897" lon="1.41666">
        <ele>1220.074</ele>
        <time>2024-08-31T06:58:51Z</time>
      </trkpt>
      <trkpt lat="42.70896" lon="1.41663">
        <ele>1220.984</ele>
        <time>2024-08-31T06:58:53Z</time>
      </trkpt>
      <trkpt lat="42.70895" lon="1.41661">
        <ele>1220.814</ele>
        <time>2024-08-31T06:58:55Z</time>
      </trkpt>
      <trkpt lat="42.70894" lon="1.41659">
        <ele>1220.757</ele>
        <time>2024-08-31T06:58:57Z</time>
      </trkpt>
      <trkpt lat="42.70894" lon="1.41656">
        <ele>1220.905</ele>
        <time>2024-08-31T06:58:59Z</time>
      </trkpt>
      <trkpt lat="42.70894" lon="1.41654">
        <ele>1221.852</ele>
        <time>2024-08-31T06:59:01Z</time>
      </trkpt>
      <trkpt lat="42.70893" lon="1.41652">
        <ele>1222.033</ele>
        <time>2024-08-31T06:59:03Z</time>
      </trkpt>
      <trkpt lat="42.70893" lon="1.4165">
        <ele>1222.546</ele>
        <time>2024-08-31T06:59:05Z</time>
      </trkpt>
      <trkpt lat="42.70893" lon="1.41646">
        <ele>1221.89</ele>
        <time>2024-08-31T06:59:07Z</time>
      </trkpt>
      <trkpt lat="42.70892" lon="1.41643">
        <ele>1221.64</ele>
        <time>2024-08-31T06:59:09Z</time>
      </trkpt>
      <trkpt lat="42.7089" lon="1.4164">
        <ele>1221.464</ele>
        <time>2024-08-31T06:59:11Z</time>
      </trkpt>
      <trkpt lat="42.70889" lon="1.41637">
        <ele>1220.498</ele>
        <time>2024-08-31T06:59:13Z</time>
      </trkpt>
      <trkpt lat="42.70888" lon="1.41633">
        <ele>1219.551</ele>
        <time>2024-08-31T06:59:15Z</time>
      </trkpt>
      <trkpt lat="42.70887" lon="1.41631">
        <ele>1220.064</ele>
        <time>2024-08-31T06:59:17Z</time>
      </trkpt>
      <trkpt lat="42.70886" lon="1.41629">
        <ele>1218.841</ele>
        <time>2024-08-31T06:59:19Z</time>
      </trkpt>
      <trkpt lat="42.70887" lon="1.41626">
        <ele>1219.553</ele>
        <time>2024-08-31T06:59:21Z</time>
      </trkpt>
      <trkpt lat="42.70886" lon="1.41624">
        <ele>1219.912</ele>
        <time>2024-08-31T06:59:23Z</time>
      </trkpt>
      <trkpt lat="42.70885" lon="1.41621">
        <ele>1219.112</ele>
        <time>2024-08-31T06:59:25Z</time>
      </trkpt>
      <trkpt lat="42.70885" lon="1.41619">
        <ele>1218.549</ele>
        <time>2024-08-31T06:59:27Z</time>
      </trkpt>
      <trkpt lat="42.70885" lon="1.41616">
        <ele>1218.301</ele>
        <time>2024-08-31T06:59:29Z</time>
      </trkpt>
      <trkpt lat="42.70884" lon="1.41614">
        <ele>1216.86</ele>
        <time>2024-08-31T06:59:31Z</time>
      </trkpt>
      <trkpt lat="42.70882" lon="1.41613">
        <ele>1217.538</ele>
        <time>2024-08-31T06:59:33Z</time>
      </trkpt>
      <trkpt lat="42.70882" lon="1.41611">
        <ele>1217.778</ele>
        <time>2024-08-31T06:59:35Z</time>
      </trkpt>
      <trkpt lat="42.70882" lon="1.41608">
        <ele>1218.211</ele>
        <time>2024-08-31T06:59:37Z</time>
      </trkpt>
      <trkpt lat="42.70882" lon="1.41605">
        <ele>1219.694</ele>
        <time>2024-08-31T06:59:39Z</time>
      </trkpt>
      <trkpt lat="42.70882" lon="1.41602">
        <ele>1220.688</ele>
        <time>2024-08-31T06:59:41Z</time>
      </trkpt>
      <trkpt lat="42.70881" lon="1.416">
        <ele>1220.997</ele>
        <time>2024-08-31T06:59:43Z</time>
      </trkpt>
      <trkpt lat="42.70881" lon="1.41598">
        <ele>1221.714</ele>
        <time>2024-08-31T06:59:45Z</time>
      </trkpt>
      <trkpt lat="42.70881" lon="1.41596">
        <ele>1222.041</ele>
        <time>2024-08-31T06:59:47Z</time>
      </trkpt>
      <trkpt lat="42.7088" lon="1.41594">
        <ele>1221.519</ele>
        <time>2024-08-31T06:59:49Z</time>
      </trkpt>
      <trkpt lat="42.7088" lon="1.41591">
        <ele>1221.716</ele>
        <time>2024-08-31T06:59:51Z</time>
      </trkpt>
      <trkpt lat="42.7088" lon="1.41589">
        <ele>1222.347</ele>
        <time>2024-08-31T06:59:53Z</time>
      </trkpt>
      <trkpt lat="42.7088" lon="1.41587">
        <ele>1222.738</ele>
        <time>2024-08-31T06:59:55Z</time>
      </trkpt>
      <trkpt lat="42.70879" lon="1.41584">
        <ele>1223.303</ele>
        <time>2024-08-31T06:59:57Z</time>
      </trkpt>
      <trkpt lat="42.70879" lon="1.41582">
        <ele>1224.057</ele>
        <time>2024-08-31T06:59:59Z</time>
      </trkpt>
      <trkpt lat="42.70878" lon="1.41579">
        <ele>1225.352</ele>
        <time>2024-08-31T07:00:01Z</time>
      </trkpt>
      <trkpt lat="42.70878" lon="1.41577">
        <ele>1225.001</ele>
        <time>2024-08-31T07:00:03Z</time>
      </trkpt>
      <trkpt lat="42.70879" lon="1.41574">
        <ele>1224.543</ele>
        <time>2024-08-31T07:00:05Z</time>
      </trkpt>
      <trkpt lat="42.7088" lon="1.41572">
        <ele>1225.825</ele>
        <time>2024-08-31T07:00:07Z</time>
      </trkpt>
      <trkpt lat="42.70882" lon="1.41569">
        <ele>1226.64</ele>
        <time>2024-08-31T07:00:09Z</time>
      </trkpt>
      <trkpt lat="42.70882" lon="1.41567">
        <ele>1226.574</ele>
        <time>2024-08-31T07:00:11Z</time>
      </trkpt>
      <trkpt lat="42.70883" lon="1.41565">
        <ele>1228.226</ele>
        <time>2024-08-31T07:00:13Z</time>
      </trkpt>
      <trkpt lat="42.70884" lon="1.41563">
        <ele>1227.94</ele>
        <time>2024-08-31T07:00:15Z</time>
      </trkpt>
      <trkpt lat="42.70884" lon="1.41561">
        <ele>1228.228</ele>
        <time>2024-08-31T07:00:17Z</time>
      </trkpt>
      <trkpt lat="42.70885" lon="1.41559">
        <ele>1229.062</ele>
        <time>2024-08-31T07:00:19Z</time>
      </trkpt>
      <trkpt lat="42.70887" lon="1.41557">
        <ele>1230.125</ele>
        <time>2024-08-31T07:00:21Z</time>
      </trkpt>
      <trkpt lat="42.70888" lon="1.41555">
        <ele>1232.664</ele>
        <time>2024-08-31T07:00:23Z</time>
      </trkpt>
      <trkpt lat="42.70889" lon="1.41553">
        <ele>1233.708</ele>
        <time>2024-08-31T07:00:25Z</time>
      </trkpt>
      <trkpt lat="42.70889" lon="1.41551">
        <ele>1234.036</ele>
        <time>2024-08-31T07:00:27Z</time>
      </trkpt>
      <trkpt lat="42.7089" lon="1.41549">
        <ele>1235.177</ele>
        <time>2024-08-31T07:00:29Z</time>
      </trkpt>
      <trkpt lat="42.7089" lon="1.41548">
        <ele>1234.861</ele>
        <time>2024-08-31T07:00:31Z</time>
      </trkpt>
      <trkpt lat="42.70891" lon="1.41546">
        <ele>1235.046</ele>
        <time>2024-08-31T07:00:33Z</time>
      </trkpt>
      <trkpt lat="42.70891" lon="1.41544">
        <ele>1235.264</ele>
        <time>2024-08-31T07:00:35Z</time>
      </trkpt>
      <trkpt lat="42.70891" lon="1.41542">
        <ele>1234.671</ele>
        <time>2024-08-31T07:00:37Z</time>
      </trkpt>
      <trkpt lat="42.7089" lon="1.4154">
        <ele>1235.49</ele>
        <time>2024-08-31T07:00:39Z</time>
      </trkpt>
      <trkpt lat="42.70891" lon="1.41538">
        <ele>1236.616</ele>
        <time>2024-08-31T07:00:41Z</time>
      </trkpt>
      <trkpt lat="42.70891" lon="1.41537">
        <ele>1237.516</ele>
        <time>2024-08-31T07:00:43Z</time>
      </trkpt>
      <trkpt lat="42.70891" lon="1.41535">
        <ele>1238.138</ele>
        <time>2024-08-31T07:00:45Z</time>
      </trkpt>
      <trkpt lat="42.70891" lon="1.41533">
        <ele>1238.401</ele>
        <time>2024-08-31T07:00:47Z</time>
      </trkpt>
      <trkpt lat="42.70891" lon="1.41532">
        <ele>1239.133</ele>
        <time>2024-08-31T07:00:49Z</time>
      </trkpt>
      <trkpt lat="42.7089" lon="1.41532">
        <ele>1239.961</ele>
        <time>2024-08-31T07:00:51Z</time>
      </trkpt>
      <trkpt lat="42.70888" lon="1.41533">
        <ele>1239.755</ele>
        <time>2024-08-31T07:00:53Z</time>
      </trkpt>
      <trkpt lat="42.70888" lon="1.41534">
        <ele>1240.902</ele>
        <time>2024-08-31T07:00:55Z</time>
      </trkpt>
      <trkpt lat="42.70887" lon="1.41534">
        <ele>1242.655</ele>
        <time>2024-08-31T07:00:57Z</time>
      </trkpt>
      <trkpt lat="42.70887" lon="1.41533">
        <ele>1241.604</ele>
        <time>2024-08-31T07:00:59Z</time>
      </trkpt>
      <trkpt lat="42.70887" lon="1.41532">
        <ele>1241.58</ele>
        <time>2024-08-31T07:01:01Z</time>
      </trkpt>
      <trkpt lat="42.70887" lon="1.41532">
        <ele>1241.574</ele>
        <time>2024-08-31T07:01:03Z</time>
      </trkpt>
      <trkpt lat="42.70887" lon="1.41532">
        <ele>1241.579</ele>
        <time>2024-08-31T07:01:05Z</time>
      </trkpt>
      <trkpt lat="42.70887" lon="1.41532">
        <ele>1241.578</ele>
        <time>2024-08-31T07:01:07Z</time>
      </trkpt>
      <trkpt lat="42.70887" lon="1.41532">
        <ele>1241.571</ele>
        <time>2024-08-31T07:01:09Z</time>
      </trkpt>
      <trkpt lat="42.70887" lon="1.41532">
        <ele>1241.571</ele>
        <time>2024-08-31T07:01:11Z</time>
      </trkpt>
      <trkpt lat="42.70887" lon="1.41532">
        <ele>1241.577</ele>
        <time>2024-08-31T07:01:13Z</time>
      </trkpt>
      <trkpt lat="42.70887" lon="1.41531">
        <ele>1241.527</ele>
        <time>2024-08-31T07:01:15Z</time>
      </trkpt>
      <trkpt lat="42.70887" lon="1.41531">
        <ele>1241.922</ele>
        <time>2024-08-31T07:01:17Z</time>
      </trkpt>
      <trkpt lat="42.70887" lon="1.41531">
        <ele>1241.903</ele>
        <time>2024-08-31T07:01:19Z</time>
      </trkpt>
      <trkpt lat="42.70887" lon="1.41531">
        <ele>1241.904</ele>
        <time>2024-08-31T07:01:21Z</time>
      </trkpt>
      <trkpt lat="42.70887" lon="1.41531">
        <ele>1241.903</ele>
        <time>2024-08-31T07:01:23Z</time>
      </trkpt>
      <trkpt lat="42.70887" lon="1.41532">
        <ele>1241.977</ele>
        <time>2024-08-31T07:01:25Z</time>
      </trkpt>
      <trkpt lat="42.70887" lon="1.41531">
        <ele>1242.012</ele>
        <time>2024-08-31T07:01:27Z</time>
      </trkpt>
      <trkpt lat="42.70886" lon="1.41528">
        <ele>1242.982</ele>
        <time>2024-08-31T07:01:29Z</time>
      </trkpt>
      <trkpt lat="42.70884" lon="1.41529">
        <ele>1243.757</ele>
        <time>2024-08-31T07:01:31Z</time>
      </trkpt>
      <trkpt lat="42.70883" lon="1.41529">
        <ele>1243.847</ele>
        <time>2024-08-31T07:01:33Z</time>
      </trkpt>
      <trkpt lat="42.70882" lon="1.41529">
        <ele>1244.037</ele>
        <time>2024-08-31T07:01:35Z</time>
      </trkpt>
      <trkpt lat="42.70881" lon="1.41529">
        <ele>1244.676</ele>
        <time>2024-08-31T07:01:37Z</time>
      </trkpt>
      <trkpt lat="42.7088" lon="1.41529">
        <ele>1245.312</ele>
        <time>2024-08-31T07:01:39Z</time>
      </trkpt>
      <trkpt lat="42.70878" lon="1.41528">
        <ele>1247.056</ele>
        <time>2024-08-31T07:01:41Z</time>
      </trkpt>
      <trkpt lat="42.70877" lon="1.41528">
        <ele>1247.387</ele>
        <time>2024-08-31T07:01:43Z</time>
      </trkpt>
      <trkpt lat="42.70876" lon="1.41528">
        <ele>1247.727</ele>
        <time>2024-08-31T07:01:45Z</time>
      </trkpt>
      <trkpt lat="42.70875" lon="1.41529">
        <ele>1248.603</ele>
        <time>2024-08-31T07:01:47Z</time>
      </trkpt>
      <trkpt lat="42.70874" lon="1.41529">
        <ele>1249.319</ele>
        <time>2024-08-31T07:01:49Z</time>
      </trkpt>
      <trkpt lat="42.70872" lon="1.4153">
        <ele>1249.333</ele>
        <time>2024-08-31T07:01:51Z</time>
      </trkpt>
      <trkpt lat="42.70871" lon="1.4153">
        <ele>1249.087</ele>
        <time>2024-08-31T07:01:53Z</time>
      </trkpt>
      <trkpt lat="42.7087" lon="1.4153">
        <ele>1250.252</ele>
        <time>2024-08-31T07:01:55Z</time>
      </trkpt>
      <trkpt lat="42.70869" lon="1.4153">
        <ele>1251.422</ele>
        <time>2024-08-31T07:01:57Z</time>
      </trkpt>
      <trkpt lat="42.70868" lon="1.4153">
        <ele>1252.592</ele>
        <time>2024-08-31T07:01:59Z</time>
      </trkpt>
      <trkpt lat="42.70867" lon="1.41531">
        <ele>1252.068</ele>
        <time>2024-08-31T07:02:01Z</time>
      </trkpt>
      <trkpt lat="42.70867" lon="1.41532">
        <ele>1253.781</ele>
        <time>2024-08-31T07:02:03Z</time>
      </trkpt>
      <trkpt lat="42.70866" lon="1.41533">
        <ele>1254.936</ele>
        <time>2024-08-31T07:02:05Z</time>
      </trkpt>
      <trkpt lat="42.70866" lon="1.41534">
        <ele>1255.456</ele>
        <time>2024-08-31T07:02:07Z</time>
      </trkpt>
      <trkpt lat="42.70865" lon="1.41536">
        <ele>1255.677</ele>
        <time>2024-08-31T07:02:09Z</time>
      </trkpt>
      <trkpt lat="42.70864" lon="1.41536">
        <ele>1256.629</ele>
        <time>2024-08-31T07:02:11Z</time>
      </trkpt>
      <trkpt lat="42.70863" lon="1.41537">
        <ele>1257.375</ele>
        <time>2024-08-31T07:02:13Z</time>
      </trkpt>
      <trkpt lat="42.70862" lon="1.41537">
        <ele>1258.339</ele>
        <time>2024-08-31T07:02:15Z</time>
      </trkpt>
      <trkpt lat="42.70861" lon="1.41537">
        <ele>1258.129</ele>
        <time>2024-08-31T07:02:17Z</time>
      </trkpt>
      <trkpt lat="42.70859" lon="1.41537">
        <ele>1258.898</ele>
        <time>2024-08-31T07:02:19Z</time>
      </trkpt>
      <trkpt lat="42.70858" lon="1.41537">
        <ele>1258.408</ele>
        <time>2024-08-31T07:02:21Z</time>
      </trkpt>
      <trkpt lat="42.70857" lon="1.41537">
        <ele>1258.933</ele>
        <time>2024-08-31T07:02:23Z</time>
      </trkpt>
      <trkpt lat="42.70855" lon="1.41537">
        <ele>1258.94</ele>
        <time>2024-08-31T07:02:25Z</time>
      </trkpt>
      <trkpt lat="42.70854" lon="1.41538">
        <ele>1258.591</ele>
        <time>2024-08-31T07:02:27Z</time>
      </trkpt>
      <trkpt lat="42.70853" lon="1.41538">
        <ele>1258.69</ele>
        <time>2024-08-31T07:02:29Z</time>
      </trkpt>
      <trkpt lat="42.70851" lon="1.41537">
        <ele>1258.326</ele>
        <time>2024-08-31T07:02:31Z</time>
      </trkpt>
      <trkpt lat="42.7085" lon="1.41536">
        <ele>1258.551</ele>
        <time>2024-08-31T07:02:33Z</time>
      </trkpt>
      <trkpt lat="42.70849" lon="1.41536">
        <ele>1258.183</ele>
        <time>2024-08-31T07:02:35Z</time>
      </trkpt>
      <trkpt lat="42.70848" lon="1.41537">
        <ele>1257.968</ele>
        <time>2024-08-31T07:02:37Z</time>
      </trkpt>
      <trkpt lat="42.70847" lon="1.41537">
        <ele>1258.401</ele>
        <time>2024-08-31T07:02:39Z</time>
      </trkpt>
      <trkpt lat="42.70845" lon="1.41537">
        <ele>1257.786</ele>
        <time>2024-08-31T07:02:41Z</time>
      </trkpt>
      <trkpt lat="42.70844" lon="1.41537">
        <ele>1257.681</ele>
        <time>2024-08-31T07:02:43Z</time>
      </trkpt>
      <trkpt lat="42.70843" lon="1.41537">
        <ele>1257.759</ele>
        <time>2024-08-31T07:02:45Z</time>
      </trkpt>
      <trkpt lat="42.70842" lon="1.41536">
        <ele>1258.559</ele>
        <time>2024-08-31T07:02:47Z</time>
      </trkpt>
      <trkpt lat="42.70841" lon="1.41537">
        <ele>1259.391</ele>
        <time>2024-08-31T07:02:49Z</time>
      </trkpt>
      <trkpt lat="42.7084" lon="1.41538">
        <ele>1260.09</ele>
        <time>2024-08-31T07:02:51Z</time>
      </trkpt>
      <trkpt lat="42.70839" lon="1.41539">
        <ele>1260.976</ele>
        <time>2024-08-31T07:02:53Z</time>
      </trkpt>
      <trkpt lat="42.70838" lon="1.4154">
        <ele>1262.112</ele>
        <time>2024-08-31T07:02:55Z</time>
      </trkpt>
      <trkpt lat="42.70837" lon="1.41541">
        <ele>1262.939</ele>
        <time>2024-08-31T07:02:57Z</time>
      </trkpt>
      <trkpt lat="42.70837" lon="1.41542">
        <ele>1263.589</ele>
        <time>2024-08-31T07:02:59Z</time>
      </trkpt>
      <trkpt lat="42.70837" lon="1.41544">
        <ele>1263.699</ele>
        <time>2024-08-31T07:03:01Z</time>
      </trkpt>
      <trkpt lat="42.70837" lon="1.41545">
        <ele>1264.154</ele>
        <time>2024-08-31T07:03:03Z</time>
      </trkpt>
      <trkpt lat="42.70836" lon="1.41546">
        <ele>1264.284</ele>
        <time>2024-08-31T07:03:05Z</time>
      </trkpt>
      <trkpt lat="42.70837" lon="1.41548">
        <ele>1264.192</ele>
        <time>2024-08-31T07:03:07Z</time>
      </trkpt>
      <trkpt lat="42.70837" lon="1.4155">
        <ele>1263.903</ele>
        <time>2024-08-31T07:03:09Z</time>
      </trkpt>
      <trkpt lat="42.70837" lon="1.41552">
        <ele>1264.208</ele>
        <time>2024-08-31T07:03:11Z</time>
      </trkpt>
      <trkpt lat="42.70836" lon="1.41554">
        <ele>1264.672</ele>
        <time>2024-08-31T07:03:13Z</time>
      </trkpt>
      <trkpt lat="42.70836" lon="1.41556">
        <ele>1265.407</ele>
        <time>2024-08-31T07:03:15Z</time>
      </trkpt>
      <trkpt lat="42.70834" lon="1.41557">
        <ele>1265.96</ele>
        <time>2024-08-31T07:03:17Z</time>
      </trkpt>
      <trkpt lat="42.70834" lon="1.41559">
        <ele>1266.593</ele>
        <time>2024-08-31T07:03:19Z</time>
      </trkpt>
      <trkpt lat="42.70833" lon="1.41561">
        <ele>1267.239</ele>
        <time>2024-08-31T07:03:21Z</time>
      </trkpt>
      <trkpt lat="42.70832" lon="1.41562">
        <ele>1268.212</ele>
        <time>2024-08-31T07:03:23Z</time>
      </trkpt>
      <trkpt lat="42.70832" lon="1.41563">
        <ele>1268.92</ele>
        <time>2024-08-31T07:03:25Z</time>
      </trkpt>
      <trkpt lat="42.70832" lon="1.41564">
        <ele>1269.953</ele>
        <time>2024-08-31T07:03:27Z</time>
      </trkpt>
      <trkpt lat="42.70832" lon="1.41566">
        <ele>1270.49</ele>
        <time>2024-08-31T07:03:29Z</time>
      </trkpt>
      <trkpt lat="42.70831" lon="1.41567">
        <ele>1270.901</ele>
        <time>2024-08-31T07:03:31Z</time>
      </trkpt>
      <trkpt lat="42.7083" lon="1.41567">
        <ele>1270.995</ele>
        <time>2024-08-31T07:03:33Z</time>
      </trkpt>
      <trkpt lat="42.70829" lon="1.41567">
        <ele>1271.218</ele>
        <time>2024-08-31T07:03:35Z</time>
      </trkpt>
      <trkpt lat="42.70828" lon="1.41567">
        <ele>1270.41</ele>
        <time>2024-08-31T07:03:37Z</time>
      </trkpt>
      <trkpt lat="42.70827" lon="1.41568">
        <ele>1270.796</ele>
        <time>2024-08-31T07:03:39Z</time>
      </trkpt>
      <trkpt lat="42.70826" lon="1.41569">
        <ele>1271.263</ele>
        <time>2024-08-31T07:03:41Z</time>
      </trkpt>
      <trkpt lat="42.70826" lon="1.4157">
        <ele>1271.798</ele>
        <time>2024-08-31T07:03:43Z</time>
      </trkpt>
      <trkpt lat="42.70825" lon="1.41571">
        <ele>1271.796</ele>
        <time>2024-08-31T07:03:45Z</time>
      </trkpt>
      <trkpt lat="42.70825" lon="1.41573">
        <ele>1272.047</ele>
        <time>2024-08-31T07:03:47Z</time>
      </trkpt>
      <trkpt lat="42.70826" lon="1.41574">
        <ele>1272.393</ele>
        <time>2024-08-31T07:03:49Z</time>
      </trkpt>
      <trkpt lat="42.70826" lon="1.41575">
        <ele>1273.113</ele>
        <time>2024-08-31T07:03:51Z</time>
      </trkpt>
      <trkpt lat="42.70826" lon="1.41576">
        <ele>1274.203</ele>
        <time>2024-08-31T07:03:53Z</time>
      </trkpt>
      <trkpt lat="42.70826" lon="1.41577">
        <ele>1274.025</ele>
        <time>2024-08-31T07:03:55Z</time>
      </trkpt>
      <trkpt lat="42.70825" lon="1.41579">
        <ele>1274.964</ele>
        <time>2024-08-31T07:03:57Z</time>
      </trkpt>
      <trkpt lat="42.70824" lon="1.41579">
        <ele>1274.655</ele>
        <time>2024-08-31T07:03:59Z</time>
      </trkpt>
      <trkpt lat="42.70823" lon="1.41579">
        <ele>1274.27</ele>
        <time>2024-08-31T07:04:01Z</time>
      </trkpt>
      <trkpt lat="42.70822" lon="1.41579">
        <ele>1274.236</ele>
        <time>2024-08-31T07:04:03Z</time>
      </trkpt>
      <trkpt lat="42.70822" lon="1.41579">
        <ele>1274.239</ele>
        <time>2024-08-31T07:04:05Z</time>
      </trkpt>
      <trkpt lat="42.70822" lon="1.41579">
        <ele>1274.502</ele>
        <time>2024-08-31T07:04:07Z</time>
      </trkpt>
      <trkpt lat="42.70822" lon="1.41579">
        <ele>1274.505</ele>
        <time>2024-08-31T07:04:09Z</time>
      </trkpt>
      <trkpt lat="42.70822" lon="1.41579">
        <ele>1274.502</ele>
        <time>2024-08-31T07:04:11Z</time>
      </trkpt>
      <trkpt lat="42.70822" lon="1.41579">
        <ele>1274.495</ele>
        <time>2024-08-31T07:04:13Z</time>
      </trkpt>
      <trkpt lat="42.70822" lon="1.41579">
        <ele>1274.5</ele>
        <time>2024-08-31T07:04:15Z</time>
      </trkpt>
      <trkpt lat="42.70822" lon="1.41579">
        <ele>1274.505</ele>
        <time>2024-08-31T07:04:17Z</time>
      </trkpt>
      <trkpt lat="42.70822" lon="1.41579">
        <ele>1274.509</ele>
        <time>2024-08-31T07:04:19Z</time>
      </trkpt>
      <trkpt lat="42.70822" lon="1.41579">
        <ele>1274.515</ele>
        <time>2024-08-31T07:04:21Z</time>
      </trkpt>
      <trkpt lat="42.70822" lon="1.41579">
        <ele>1274.522</ele>
        <time>2024-08-31T07:04:23Z</time>
      </trkpt>
      <trkpt lat="42.70822" lon="1.41579">
        <ele>1274.528</ele>
        <time>2024-08-31T07:04:25Z</time>
      </trkpt>
      <trkpt lat="42.70822" lon="1.41579">
        <ele>1274.431</ele>
        <time>2024-08-31T07:04:27Z</time>
      </trkpt>
      <trkpt lat="42.70821" lon="1.41579">
        <ele>1275.192</ele>
        <time>2024-08-31T07:04:29Z</time>
      </trkpt>
      <trkpt lat="42.7082" lon="1.41581">
        <ele>1275.45</ele>
        <time>2024-08-31T07:04:31Z</time>
      </trkpt>
      <trkpt lat="42.7082" lon="1.41583">
        <ele>1276.368</ele>
        <time>2024-08-31T07:04:33Z</time>
      </trkpt>
      <trkpt lat="42.7082" lon="1.41584">
        <ele>1276.666</ele>
        <time>2024-08-31T07:04:35Z</time>
      </trkpt>
      <trkpt lat="42.7082" lon="1.41585">
        <ele>1276.903</ele>
        <time>2024-08-31T07:04:37Z</time>
      </trkpt>
      <trkpt lat="42.70819" lon="1.41587">
        <ele>1278.201</ele>
        <time>2024-08-31T07:04:39Z</time>
      </trkpt>
      <trkpt lat="42.70818" lon="1.41588">
        <ele>1279.092</ele>
        <time>2024-08-31T07:04:41Z</time>
      </trkpt>
      <trkpt lat="42.70817" lon="1.41587">
        <ele>1279.05</ele>
        <time>2024-08-31T07:04:43Z</time>
      </trkpt>
      <trkpt lat="42.70816" lon="1.41586">
        <ele>1278.889</ele>
        <time>2024-08-31T07:04:45Z</time>
      </trkpt>
      <trkpt lat="42.70815" lon="1.41585">
        <ele>1279.243</ele>
        <time>2024-08-31T07:04:47Z</time>
      </trkpt>
      <trkpt lat="42.70814" lon="1.41585">
        <ele>1280.114</ele>
        <time>2024-08-31T07:04:49Z</time>
      </trkpt>
      <trkpt lat="42.70813" lon="1.41585">
        <ele>1280.244</ele>
        <time>2024-08-31T07:04:51Z</time>
      </trkpt>
      <trkpt lat="42.70812" lon="1.41586">
        <ele>1280.674</ele>
        <time>2024-08-31T07:04:53Z</time>
      </trkpt>
      <trkpt lat="42.70811" lon="1.41587">
        <ele>1280.583</ele>
        <time>2024-08-31T07:04:55Z</time>
      </trkpt>
      <trkpt lat="42.70811" lon="1.41588">
        <ele>1281.266</ele>
        <time>2024-08-31T07:04:57Z</time>
      </trkpt>
      <trkpt lat="42.70812" lon="1.41589">
        <ele>1282.271</ele>
        <time>2024-08-31T07:04:59Z</time>
      </trkpt>
      <trkpt lat="42.70812" lon="1.4159">
        <ele>1281.73</ele>
        <time>2024-08-31T07:05:01Z</time>
      </trkpt>
      <trkpt lat="42.70811" lon="1.41592">
        <ele>1283.054</ele>
        <time>2024-08-31T07:05:03Z</time>
      </trkpt>
      <trkpt lat="42.70811" lon="1.41593">
        <ele>1283.339</ele>
        <time>2024-08-31T07:05:05Z</time>
      </trkpt>
      <trkpt lat="42.7081" lon="1.41594">
        <ele>1284.117</ele>
        <time>2024-08-31T07:05:07Z</time>
      </trkpt>
      <trkpt lat="42.70809" lon="1.41594">
        <ele>1284.535</ele>
        <time>2024-08-31T07:05:09Z</time>
      </trkpt>
      <trkpt lat="42.70809" lon="1.41595">
        <ele>1284.429</ele>
        <time>2024-08-31T07:05:10Z</time>
      </trkpt>
      <trkpt lat="42.70808" lon="1.41597">
        <ele>1285.906</ele>
        <time>2024-08-31T07:05:13Z</time>
      </trkpt>
      <trkpt lat="42.70807" lon="1.41598">
        <ele>1286.451</ele>
        <time>2024-08-31T07:05:15Z</time>
      </trkpt>
      <trkpt lat="42.70807" lon="1.41599">
        <ele>1287.006</ele>
        <time>2024-08-31T07:05:17Z</time>
      </trkpt>
      <trkpt lat="42.70807" lon="1.416">
        <ele>1286.952</ele>
        <time>2024-08-31T07:05:19Z</time>
      </trkpt>
      <trkpt lat="42.70807" lon="1.41601">
        <ele>1286.836</ele>
        <time>2024-08-31T07:05:21Z</time>
      </trkpt>
      <trkpt lat="42.70807" lon="1.41602">
        <ele>1287.144</ele>
        <time>2024-08-31T07:05:23Z</time>
      </trkpt>
      <trkpt lat="42.70806" lon="1.41603">
        <ele>1287.727</ele>
        <time>2024-08-31T07:05:25Z</time>
      </trkpt>
      <trkpt lat="42.70806" lon="1.41603">
        <ele>1288.2</ele>
        <time>2024-08-31T07:05:27Z</time>
      </trkpt>
      <trkpt lat="42.70805" lon="1.41602">
        <ele>1288.58</ele>
        <time>2024-08-31T07:05:29Z</time>
      </trkpt>
      <trkpt lat="42.70804" lon="1.41602">
        <ele>1288.778</ele>
        <time>2024-08-31T07:05:31Z</time>
      </trkpt>
      <trkpt lat="42.70804" lon="1.41603">
        <ele>1288.926</ele>
        <time>2024-08-31T07:05:33Z</time>
      </trkpt>
      <trkpt lat="42.70804" lon="1.41603">
        <ele>1288.934</ele>
        <time>2024-08-31T07:05:35Z</time>
      </trkpt>
      <trkpt lat="42.70803" lon="1.41605">
        <ele>1288.908</ele>
        <time>2024-08-31T07:05:37Z</time>
      </trkpt>
      <trkpt lat="42.70803" lon="1.41605">
        <ele>1288.799</ele>
        <time>2024-08-31T07:05:39Z</time>
      </trkpt>
      <trkpt lat="42.70802" lon="1.41607">
        <ele>1289.831</ele>
        <time>2024-08-31T07:05:41Z</time>
      </trkpt>
      <trkpt lat="42.70802" lon="1.41608">
        <ele>1289.917</ele>
        <time>2024-08-31T07:05:43Z</time>
      </trkpt>
      <trkpt lat="42.70801" lon="1.41609">
        <ele>1290.305</ele>
        <time>2024-08-31T07:05:45Z</time>
      </trkpt>
      <trkpt lat="42.70801" lon="1.4161">
        <ele>1289.915</ele>
        <time>2024-08-31T07:05:47Z</time>
      </trkpt>
      <trkpt lat="42.70799" lon="1.41609">
        <ele>1289.811</ele>
        <time>2024-08-31T07:05:49Z</time>
      </trkpt>
      <trkpt lat="42.70799" lon="1.41608">
        <ele>1290.023</ele>
        <time>2024-08-31T07:05:51Z</time>
      </trkpt>
      <trkpt lat="42.70799" lon="1.41606">
        <ele>1290.737</ele>
        <time>2024-08-31T07:05:53Z</time>
      </trkpt>
      <trkpt lat="42.70798" lon="1.41605">
        <ele>1290.882</ele>
        <time>2024-08-31T07:05:55Z</time>
      </trkpt>
      <trkpt lat="42.70797" lon="1.41604">
        <ele>1291.529</ele>
        <time>2024-08-31T07:05:57Z</time>
      </trkpt>
      <trkpt lat="42.70797" lon="1.41604">
        <ele>1291.781</ele>
        <time>2024-08-31T07:05:59Z</time>
      </trkpt>
      <trkpt lat="42.70796" lon="1.41604">
        <ele>1292.772</ele>
        <time>2024-08-31T07:06:01Z</time>
      </trkpt>
      <trkpt lat="42.70795" lon="1.41604">
        <ele>1292.775</ele>
        <time>2024-08-31T07:06:03Z</time>
      </trkpt>
      <trkpt lat="42.70794" lon="1.41605">
        <ele>1293.295</ele>
        <time>2024-08-31T07:06:05Z</time>
      </trkpt>
      <trkpt lat="42.70794" lon="1.41606">
        <ele>1294.057</ele>
        <time>2024-08-31T07:06:07Z</time>
      </trkpt>
      <trkpt lat="42.70794" lon="1.41607">
        <ele>1294.76</ele>
        <time>2024-08-31T07:06:09Z</time>
      </trkpt>
      <trkpt lat="42.70793" lon="1.41609">
        <ele>1295.725</ele>
        <time>2024-08-31T07:06:11Z</time>
      </trkpt>
      <trkpt lat="42.70793" lon="1.4161">
        <ele>1296.378</ele>
        <time>2024-08-31T07:06:13Z</time>
      </trkpt>
      <trkpt lat="42.70793" lon="1.4161">
        <ele>1296.148</ele>
        <time>2024-08-31T07:06:15Z</time>
      </trkpt>
      <trkpt lat="42.70792" lon="1.4161">
        <ele>1296.211</ele>
        <time>2024-08-31T07:06:17Z</time>
      </trkpt>
      <trkpt lat="42.70792" lon="1.4161">
        <ele>1296.055</ele>
        <time>2024-08-31T07:06:19Z</time>
      </trkpt>
      <trkpt lat="42.70792" lon="1.4161">
        <ele>1296.059</ele>
        <time>2024-08-31T07:06:21Z</time>
      </trkpt>
      <trkpt lat="42.70792" lon="1.4161">
        <ele>1296.064</ele>
        <time>2024-08-31T07:06:23Z</time>
      </trkpt>
      <trkpt lat="42.70792" lon="1.4161">
        <ele>1296.065</ele>
        <time>2024-08-31T07:06:25Z</time>
      </trkpt>
      <trkpt lat="42.70792" lon="1.4161">
        <ele>1296.074</ele>
        <time>2024-08-31T07:06:27Z</time>
      </trkpt>
      <trkpt lat="42.70792" lon="1.4161">
        <ele>1296.08</ele>
        <time>2024-08-31T07:06:29Z</time>
      </trkpt>
      <trkpt lat="42.70792" lon="1.4161">
        <ele>1296.086</ele>
        <time>2024-08-31T07:06:31Z</time>
      </trkpt>
      <trkpt lat="42.70792" lon="1.4161">
        <ele>1296.088</ele>
        <time>2024-08-31T07:06:33Z</time>
      </trkpt>
      <trkpt lat="42.70792" lon="1.4161">
        <ele>1296.089</ele>
        <time>2024-08-31T07:06:35Z</time>
      </trkpt>
      <trkpt lat="42.70792" lon="1.4161">
        <ele>1296.088</ele>
        <time>2024-08-31T07:06:37Z</time>
      </trkpt>
      <trkpt lat="42.70792" lon="1.4161">
        <ele>1296.08</ele>
        <time>2024-08-31T07:06:39Z</time>
      </trkpt>
      <trkpt lat="42.70792" lon="1.4161">
        <ele>1296.08</ele>
        <time>2024-08-31T07:06:41Z</time>
      </trkpt>
      <trkpt lat="42.70792" lon="1.4161">
        <ele>1296.077</ele>
        <time>2024-08-31T07:06:43Z</time>
      </trkpt>
      <trkpt lat="42.70792" lon="1.4161">
        <ele>1296.078</ele>
        <time>2024-08-31T07:06:45Z</time>
      </trkpt>
      <trkpt lat="42.70792" lon="1.4161">
        <ele>1296.081</ele>
        <time>2024-08-31T07:06:47Z</time>
      </trkpt>
      <trkpt lat="42.70792" lon="1.4161">
        <ele>1296.613</ele>
        <time>2024-08-31T07:06:49Z</time>
      </trkpt>
      <trkpt lat="42.70791" lon="1.4161">
        <ele>1296.283</ele>
        <time>2024-08-31T07:06:51Z</time>
      </trkpt>
      <trkpt lat="42.70791" lon="1.4161">
        <ele>1296.802</ele>
        <time>2024-08-31T07:06:53Z</time>
      </trkpt>
      <trkpt lat="42.70791" lon="1.4161">
        <ele>1296.824</ele>
        <time>2024-08-31T07:06:55Z</time>
      </trkpt>
      <trkpt lat="42.70791" lon="1.4161">
        <ele>1296.811</ele>
        <time>2024-08-31T07:06:57Z</time>
      </trkpt>
      <trkpt lat="42.70791" lon="1.4161">
        <ele>1296.8</ele>
        <time>2024-08-31T07:06:59Z</time>
      </trkpt>
      <trkpt lat="42.70791" lon="1.4161">
        <ele>1296.794</ele>
        <time>2024-08-31T07:07:01Z</time>
      </trkpt>
      <trkpt lat="42.70791" lon="1.4161">
        <ele>1296.806</ele>
        <time>2024-08-31T07:07:03Z</time>
      </trkpt>
      <trkpt lat="42.70791" lon="1.4161">
        <ele>1296.807</ele>
        <time>2024-08-31T07:07:05Z</time>
      </trkpt>
      <trkpt lat="42.70791" lon="1.4161">
        <ele>1296.755</ele>
        <time>2024-08-31T07:07:07Z</time>
      </trkpt>
      <trkpt lat="42.70791" lon="1.4161">
        <ele>1296.856</ele>
        <time>2024-08-31T07:07:09Z</time>
      </trkpt>
      <trkpt lat="42.70791" lon="1.4161">
        <ele>1296.854</ele>
        <time>2024-08-31T07:07:11Z</time>
      </trkpt>
      <trkpt lat="42.70791" lon="1.4161">
        <ele>1296.675</ele>
        <time>2024-08-31T07:07:13Z</time>
      </trkpt>
      <trkpt lat="42.7079" lon="1.4161">
        <ele>1297.737</ele>
        <time>2024-08-31T07:07:15Z</time>
      </trkpt>
      <trkpt lat="42.7079" lon="1.41609">
        <ele>1298.118</ele>
        <time>2024-08-31T07:07:17Z</time>
      </trkpt>
      <trkpt lat="42.70788" lon="1.41608">
        <ele>1298.296</ele>
        <time>2024-08-31T07:07:19Z</time>
      </trkpt>
      <trkpt lat="42.70787" lon="1.41608">
        <ele>1298.368</ele>
        <time>2024-08-31T07:07:21Z</time>
      </trkpt>
      <trkpt lat="42.70787" lon="1.41607">
        <ele>1298.87</ele>
        <time>2024-08-31T07:07:23Z</time>
      </trkpt>
      <trkpt lat="42.70786" lon="1.41608">
        <ele>1298.578</ele>
        <time>2024-08-31T07:07:25Z</time>
      </trkpt>
      <trkpt lat="42.70785" lon="1.4161">
        <ele>1298.558</ele>
        <time>2024-08-31T07:07:27Z</time>
      </trkpt>
      <trkpt lat="42.70785" lon="1.41611">
        <ele>1299.134</ele>
        <time>2024-08-31T07:07:29Z</time>
      </trkpt>
      <trkpt lat="42.70784" lon="1.41612">
        <ele>1299.525</ele>
        <time>2024-08-31T07:07:31Z</time>
      </trkpt>
      <trkpt lat="42.70783" lon="1.41611">
        <ele>1299.795</ele>
        <time>2024-08-31T07:07:33Z</time>
      </trkpt>
      <trkpt lat="42.70782" lon="1.41611">
        <ele>1300.212</ele>
        <time>2024-08-31T07:07:35Z</time>
      </trkpt>
      <trkpt lat="42.70781" lon="1.41611">
        <ele>1300.099</ele>
        <time>2024-08-31T07:07:37Z</time>
      </trkpt>
      <trkpt lat="42.7078" lon="1.41612">
        <ele>1300.236</ele>
        <time>2024-08-31T07:07:39Z</time>
      </trkpt>
      <trkpt lat="42.7078" lon="1.41613">
        <ele>1300.997</ele>
        <time>2024-08-31T07:07:41Z</time>
      </trkpt>
      <trkpt lat="42.70779" lon="1.41614">
        <ele>1302.247</ele>
        <time>2024-08-31T07:07:43Z</time>
      </trkpt>
      <trkpt lat="42.70778" lon="1.41616">
        <ele>1303.189</ele>
        <time>2024-08-31T07:07:45Z</time>
      </trkpt>
      <trkpt lat="42.70778" lon="1.41617">
        <ele>1304.062</ele>
        <time>2024-08-31T07:07:47Z</time>
      </trkpt>
      <trkpt lat="42.70777" lon="1.41617">
        <ele>1304.269</ele>
        <time>2024-08-31T07:07:49Z</time>
      </trkpt>
      <trkpt lat="42.70776" lon="1.41618">
        <ele>1303.346</ele>
        <time>2024-08-31T07:07:51Z</time>
      </trkpt>
      <trkpt lat="42.70776" lon="1.4162">
        <ele>1303.938</ele>
        <time>2024-08-31T07:07:53Z</time>
      </trkpt>
      <trkpt lat="42.70776" lon="1.41621">
        <ele>1305.09</ele>
        <time>2024-08-31T07:07:55Z</time>
      </trkpt>
      <trkpt lat="42.70775" lon="1.41622">
        <ele>1306.104</ele>
        <time>2024-08-31T07:07:57Z</time>
      </trkpt>
      <trkpt lat="42.70774" lon="1.41623">
        <ele>1306.408</ele>
        <time>2024-08-31T07:07:59Z</time>
      </trkpt>
      <trkpt lat="42.70773" lon="1.41624">
        <ele>1306.432</ele>
        <time>2024-08-31T07:08:01Z</time>
      </trkpt>
      <trkpt lat="42.70772" lon="1.41625">
        <ele>1307.673</ele>
        <time>2024-08-31T07:08:03Z</time>
      </trkpt>
      <trkpt lat="42.70771" lon="1.41624">
        <ele>1307.832</ele>
        <time>2024-08-31T07:08:05Z</time>
      </trkpt>
      <trkpt lat="42.7077" lon="1.41625">
        <ele>1309.474</ele>
        <time>2024-08-31T07:08:07Z</time>
      </trkpt>
      <trkpt lat="42.70769" lon="1.41627">
        <ele>1309.389</ele>
        <time>2024-08-31T07:08:09Z</time>
      </trkpt>
      <trkpt lat="42.70769" lon="1.41627">
        <ele>1310.21</ele>
        <time>2024-08-31T07:08:11Z</time>
      </trkpt>
      <trkpt lat="42.70768" lon="1.41628">
        <ele>1312.17</ele>
        <time>2024-08-31T07:08:13Z</time>
      </trkpt>
      <trkpt lat="42.70768" lon="1.41629">
        <ele>1312.804</ele>
        <time>2024-08-31T07:08:15Z</time>
      </trkpt>
      <trkpt lat="42.70767" lon="1.4163">
        <ele>1313.049</ele>
        <time>2024-08-31T07:08:17Z</time>
      </trkpt>
      <trkpt lat="42.70766" lon="1.4163">
        <ele>1314.261</ele>
        <time>2024-08-31T07:08:19Z</time>
      </trkpt>
      <trkpt lat="42.70766" lon="1.41632">
        <ele>1315.027</ele>
        <time>2024-08-31T07:08:21Z</time>
      </trkpt>
      <trkpt lat="42.70765" lon="1.41632">
        <ele>1314.587</ele>
        <time>2024-08-31T07:08:23Z</time>
      </trkpt>
      <trkpt lat="42.70764" lon="1.41632">
        <ele>1314.652</ele>
        <time>2024-08-31T07:08:25Z</time>
      </trkpt>
      <trkpt lat="42.70763" lon="1.41631">
        <ele>1314.98</ele>
        <time>2024-08-31T07:08:27Z</time>
      </trkpt>
      <trkpt lat="42.70763" lon="1.4163">
        <ele>1314.329</ele>
        <time>2024-08-31T07:08:29Z</time>
      </trkpt>
      <trkpt lat="42.70762" lon="1.41631">
        <ele>1315.074</ele>
        <time>2024-08-31T07:08:31Z</time>
      </trkpt>
      <trkpt lat="42.70762" lon="1.41632">
        <ele>1316.629</ele>
        <time>2024-08-31T07:08:33Z</time>
      </trkpt>
      <trkpt lat="42.70761" lon="1.41632">
        <ele>1316.97</ele>
        <time>2024-08-31T07:08:35Z</time>
      </trkpt>
      <trkpt lat="42.70761" lon="1.41633">
        <ele>1317.712</ele>
        <time>2024-08-31T07:08:37Z</time>
      </trkpt>
      <trkpt lat="42.7076" lon="1.41633">
        <ele>1318.733</ele>
        <time>2024-08-31T07:08:39Z</time>
      </trkpt>
      <trkpt lat="42.70759" lon="1.41634">
        <ele>1319.073</ele>
        <time>2024-08-31T07:08:41Z</time>
      </trkpt>
      <trkpt lat="42.70758" lon="1.41635">
        <ele>1319.574</ele>
        <time>2024-08-31T07:08:43Z</time>
      </trkpt>
      <trkpt lat="42.70757" lon="1.41635">
        <ele>1318.611</ele>
        <time>2024-08-31T07:08:45Z</time>
      </trkpt>
      <trkpt lat="42.70756" lon="1.41635">
        <ele>1319.335</ele>
        <time>2024-08-31T07:08:47Z</time>
      </trkpt>
      <trkpt lat="42.70755" lon="1.41634">
        <ele>1318.71</ele>
        <time>2024-08-31T07:08:49Z</time>
      </trkpt>
      <trkpt lat="42.70755" lon="1.41633">
        <ele>1318.972</ele>
        <time>2024-08-31T07:08:51Z</time>
      </trkpt>
      <trkpt lat="42.70754" lon="1.41633">
        <ele>1318.964</ele>
        <time>2024-08-31T07:08:53Z</time>
      </trkpt>
      <trkpt lat="42.70753" lon="1.41634">
        <ele>1319.131</ele>
        <time>2024-08-31T07:08:55Z</time>
      </trkpt>
      <trkpt lat="42.70752" lon="1.41635">
        <ele>1319.668</ele>
        <time>2024-08-31T07:08:57Z</time>
      </trkpt>
      <trkpt lat="42.70752" lon="1.41636">
        <ele>1318.466</ele>
        <time>2024-08-31T07:08:59Z</time>
      </trkpt>
      <trkpt lat="42.7075" lon="1.41637">
        <ele>1318.112</ele>
        <time>2024-08-31T07:09:01Z</time>
      </trkpt>
      <trkpt lat="42.70749" lon="1.41638">
        <ele>1317.388</ele>
        <time>2024-08-31T07:09:03Z</time>
      </trkpt>
      <trkpt lat="42.70749" lon="1.41639">
        <ele>1317.769</ele>
        <time>2024-08-31T07:09:05Z</time>
      </trkpt>
      <trkpt lat="42.70748" lon="1.41639">
        <ele>1318.901</ele>
        <time>2024-08-31T07:09:07Z</time>
      </trkpt>
      <trkpt lat="42.70747" lon="1.4164">
        <ele>1320.123</ele>
        <time>2024-08-31T07:09:09Z</time>
      </trkpt>
      <trkpt lat="42.70747" lon="1.41641">
        <ele>1320.08</ele>
        <time>2024-08-31T07:09:11Z</time>
      </trkpt>
      <trkpt lat="42.70746" lon="1.41643">
        <ele>1319.908</ele>
        <time>2024-08-31T07:09:13Z</time>
      </trkpt>
      <trkpt lat="42.70746" lon="1.41644">
        <ele>1320.465</ele>
        <time>2024-08-31T07:09:15Z</time>
      </trkpt>
      <trkpt lat="42.70745" lon="1.41645">
        <ele>1322.442</ele>
        <time>2024-08-31T07:09:17Z</time>
      </trkpt>
      <trkpt lat="42.70744" lon="1.41646">
        <ele>1321.732</ele>
        <time>2024-08-31T07:09:19Z</time>
      </trkpt>
      <trkpt lat="42.70743" lon="1.41647">
        <ele>1321.953</ele>
        <time>2024-08-31T07:09:21Z</time>
      </trkpt>
      <trkpt lat="42.70743" lon="1.41648">
        <ele>1322.527</ele>
        <time>2024-08-31T07:09:23Z</time>
      </trkpt>
      <trkpt lat="42.70742" lon="1.41649">
        <ele>1322.959</ele>
        <time>2024-08-31T07:09:25Z</time>
      </trkpt>
      <trkpt lat="42.70741" lon="1.41651">
        <ele>1323.607</ele>
        <time>2024-08-31T07:09:27Z</time>
      </trkpt>
      <trkpt lat="42.7074" lon="1.41653">
        <ele>1324.667</ele>
        <time>2024-08-31T07:09:29Z</time>
      </trkpt>
      <trkpt lat="42.7074" lon="1.41654">
        <ele>1326.383</ele>
        <time>2024-08-31T07:09:31Z</time>
      </trkpt>
      <trkpt lat="42.70739" lon="1.41655">
        <ele>1325.696</ele>
        <time>2024-08-31T07:09:33Z</time>
      </trkpt>
      <trkpt lat="42.70739" lon="1.41656">
        <ele>1326.23</ele>
        <time>2024-08-31T07:09:35Z</time>
      </trkpt>
      <trkpt lat="42.70739" lon="1.41657">
        <ele>1327.313</ele>
        <time>2024-08-31T07:09:37Z</time>
      </trkpt>
      <trkpt lat="42.70738" lon="1.41658">
        <ele>1327.968</ele>
        <time>2024-08-31T07:09:39Z</time>
      </trkpt>
      <trkpt lat="42.70738" lon="1.41658">
        <ele>1328.725</ele>
        <time>2024-08-31T07:09:41Z</time>
      </trkpt>
      <trkpt lat="42.70737" lon="1.41659">
        <ele>1327.62</ele>
        <time>2024-08-31T07:09:43Z</time>
      </trkpt>
      <trkpt lat="42.70737" lon="1.41659">
        <ele>1326.812</ele>
        <time>2024-08-31T07:09:45Z</time>
      </trkpt>
      <trkpt lat="42.70736" lon="1.41659">
        <ele>1326.238</ele>
        <time>2024-08-31T07:09:47Z</time>
      </trkpt>
      <trkpt lat="42.70735" lon="1.4166">
        <ele>1326.779</ele>
        <time>2024-08-31T07:09:49Z</time>
      </trkpt>
      <trkpt lat="42.70734" lon="1.4166">
        <ele>1325.942</ele>
        <time>2024-08-31T07:09:51Z</time>
      </trkpt>
      <trkpt lat="42.70734" lon="1.4166">
        <ele>1325.586</ele>
        <time>2024-08-31T07:09:53Z</time>
      </trkpt>
      <trkpt lat="42.70733" lon="1.41661">
        <ele>1325.572</ele>
        <time>2024-08-31T07:09:55Z</time>
      </trkpt>
      <trkpt lat="42.70733" lon="1.41661">
        <ele>1325.307</ele>
        <time>2024-08-31T07:09:57Z</time>
      </trkpt>
      <trkpt lat="42.70732" lon="1.41661">
        <ele>1325.063</ele>
        <time>2024-08-31T07:09:59Z</time>
      </trkpt>
      <trkpt lat="42.70731" lon="1.41661">
        <ele>1324.716</ele>
        <time>2024-08-31T07:10:01Z</time>
      </trkpt>
      <trkpt lat="42.7073" lon="1.41661">
        <ele>1325.458</ele>
        <time>2024-08-31T07:10:03Z</time>
      </trkpt>
      <trkpt lat="42.70729" lon="1.41662">
        <ele>1326.127</ele>
        <time>2024-08-31T07:10:05Z</time>
      </trkpt>
      <trkpt lat="42.70729" lon="1.41662">
        <ele>1326.596</ele>
        <time>2024-08-31T07:10:07Z</time>
      </trkpt>
      <trkpt lat="42.70728" lon="1.4166">
        <ele>1326.447</ele>
        <time>2024-08-31T07:10:09Z</time>
      </trkpt>
      <trkpt lat="42.70728" lon="1.4166">
        <ele>1326.362</ele>
        <time>2024-08-31T07:10:11Z</time>
      </trkpt>
      <trkpt lat="42.70728" lon="1.4166">
        <ele>1325.921</ele>
        <time>2024-08-31T07:10:13Z</time>
      </trkpt>
      <trkpt lat="42.70728" lon="1.4166">
        <ele>1328.37</ele>
        <time>2024-08-31T07:10:15Z</time>
      </trkpt>
      <trkpt lat="42.70727" lon="1.41661">
        <ele>1329.663</ele>
        <time>2024-08-31T07:10:17Z</time>
      </trkpt>
      <trkpt lat="42.70726" lon="1.41662">
        <ele>1330.776</ele>
        <time>2024-08-31T07:10:19Z</time>
      </trkpt>
      <trkpt lat="42.70725" lon="1.41662">
        <ele>1330.614</ele>
        <time>2024-08-31T07:10:21Z</time>
      </trkpt>
      <trkpt lat="42.70724" lon="1.41662">
        <ele>1331.153</ele>
        <time>2024-08-31T07:10:23Z</time>
      </trkpt>
      <trkpt lat="42.70723" lon="1.41663">
        <ele>1332.036</ele>
        <time>2024-08-31T07:10:25Z</time>
      </trkpt>
      <trkpt lat="42.70723" lon="1.41664">
        <ele>1333.428</ele>
        <time>2024-08-31T07:10:27Z</time>
      </trkpt>
      <trkpt lat="42.70722" lon="1.41665">
        <ele>1335.86</ele>
        <time>2024-08-31T07:10:29Z</time>
      </trkpt>
      <trkpt lat="42.70722" lon="1.41667">
        <ele>1336.515</ele>
        <time>2024-08-31T07:10:31Z</time>
      </trkpt>
      <trkpt lat="42.70722" lon="1.41668">
        <ele>1335.531</ele>
        <time>2024-08-31T07:10:33Z</time>
      </trkpt>
      <trkpt lat="42.70722" lon="1.41669">
        <ele>1336.204</ele>
        <time>2024-08-31T07:10:35Z</time>
      </trkpt>
      <trkpt lat="42.70722" lon="1.4167">
        <ele>1337.277</ele>
        <time>2024-08-31T07:10:37Z</time>
      </trkpt>
      <trkpt lat="42.70721" lon="1.41671">
        <ele>1337.219</ele>
        <time>2024-08-31T07:10:39Z</time>
      </trkpt>
      <trkpt lat="42.7072" lon="1.41671">
        <ele>1338.245</ele>
        <time>2024-08-31T07:10:41Z</time>
      </trkpt>
      <trkpt lat="42.7072" lon="1.41672">
        <ele>1340.093</ele>
        <time>2024-08-31T07:10:43Z</time>
      </trkpt>
      <trkpt lat="42.7072" lon="1.41674">
        <ele>1340.267</ele>
        <time>2024-08-31T07:10:45Z</time>
      </trkpt>
      <trkpt lat="42.7072" lon="1.41675">
        <ele>1339.882</ele>
        <time>2024-08-31T07:10:47Z</time>
      </trkpt>
      <trkpt lat="42.7072" lon="1.41677">
        <ele>1341.8</ele>
        <time>2024-08-31T07:10:49Z</time>
      </trkpt>
      <trkpt lat="42.7072" lon="1.41678">
        <ele>1342.059</ele>
        <time>2024-08-31T07:10:51Z</time>
      </trkpt>
      <trkpt lat="42.7072" lon="1.4168">
        <ele>1343.745</ele>
        <time>2024-08-31T07:10:53Z</time>
      </trkpt>
      <trkpt lat="42.7072" lon="1.41682">
        <ele>1344.448</ele>
        <time>2024-08-31T07:10:55Z</time>
      </trkpt>
      <trkpt lat="42.70721" lon="1.41683">
        <ele>1345.714</ele>
        <time>2024-08-31T07:10:57Z</time>
      </trkpt>
      <trkpt lat="42.7072" lon="1.41684">
        <ele>1346.959</ele>
        <time>2024-08-31T07:10:59Z</time>
      </trkpt>
      <trkpt lat="42.70721" lon="1.41686">
        <ele>1347.047</ele>
        <time>2024-08-31T07:11:01Z</time>
      </trkpt>
      <trkpt lat="42.7072" lon="1.41687">
        <ele>1347.57</ele>
        <time>2024-08-31T07:11:03Z</time>
      </trkpt>
      <trkpt lat="42.7072" lon="1.41688">
        <ele>1348.101</ele>
        <time>2024-08-31T07:11:05Z</time>
      </trkpt>
      <trkpt lat="42.70719" lon="1.41689">
        <ele>1347.083</ele>
        <time>2024-08-31T07:11:07Z</time>
      </trkpt>
      <trkpt lat="42.70718" lon="1.41689">
        <ele>1347.864</ele>
        <time>2024-08-31T07:11:09Z</time>
      </trkpt>
      <trkpt lat="42.70718" lon="1.41689">
        <ele>1348.295</ele>
        <time>2024-08-31T07:11:11Z</time>
      </trkpt>
      <trkpt lat="42.70717" lon="1.4169">
        <ele>1350.394</ele>
        <time>2024-08-31T07:11:13Z</time>
      </trkpt>
      <trkpt lat="42.70717" lon="1.41691">
        <ele>1350.734</ele>
        <time>2024-08-31T07:11:15Z</time>
      </trkpt>
      <trkpt lat="42.70717" lon="1.41693">
        <ele>1351.255</ele>
        <time>2024-08-31T07:11:17Z</time>
      </trkpt>
      <trkpt lat="42.70716" lon="1.41694">
        <ele>1351.851</ele>
        <time>2024-08-31T07:11:19Z</time>
      </trkpt>
      <trkpt lat="42.70715" lon="1.41695">
        <ele>1352.087</ele>
        <time>2024-08-31T07:11:21Z</time>
      </trkpt>
      <trkpt lat="42.70715" lon="1.41697">
        <ele>1353.051</ele>
        <time>2024-08-31T07:11:23Z</time>
      </trkpt>
      <trkpt lat="42.70715" lon="1.41697">
        <ele>1352.816</ele>
        <time>2024-08-31T07:11:25Z</time>
      </trkpt>
      <trkpt lat="42.70715" lon="1.41698">
        <ele>1352.814</ele>
        <time>2024-08-31T07:11:27Z</time>
      </trkpt>
      <trkpt lat="42.70715" lon="1.41698">
        <ele>1352.098</ele>
        <time>2024-08-31T07:11:29Z</time>
      </trkpt>
      <trkpt lat="42.70715" lon="1.41698">
        <ele>1351.723</ele>
        <time>2024-08-31T07:11:31Z</time>
      </trkpt>
      <trkpt lat="42.70715" lon="1.41698">
        <ele>1351.721</ele>
        <time>2024-08-31T07:11:33Z</time>
      </trkpt>
      <trkpt lat="42.70714" lon="1.41698">
        <ele>1351.736</ele>
        <time>2024-08-31T07:11:35Z</time>
      </trkpt>
      <trkpt lat="42.70714" lon="1.41698">
        <ele>1352.241</ele>
        <time>2024-08-31T07:11:37Z</time>
      </trkpt>
      <trkpt lat="42.70714" lon="1.41699">
        <ele>1353.528</ele>
        <time>2024-08-31T07:11:39Z</time>
      </trkpt>
      <trkpt lat="42.70714" lon="1.41699">
        <ele>1352.74</ele>
        <time>2024-08-31T07:11:41Z</time>
      </trkpt>
      <trkpt lat="42.70713" lon="1.41701">
        <ele>1352.459</ele>
        <time>2024-08-31T07:11:43Z</time>
      </trkpt>
      <trkpt lat="42.70713" lon="1.41703">
        <ele>1352.724</ele>
        <time>2024-08-31T07:11:45Z</time>
      </trkpt>
      <trkpt lat="42.70713" lon="1.41704">
        <ele>1352.987</ele>
        <time>2024-08-31T07:11:47Z</time>
      </trkpt>
      <trkpt lat="42.70712" lon="1.41706">
        <ele>1353.284</ele>
        <time>2024-08-31T07:11:49Z</time>
      </trkpt>
      <trkpt lat="42.70711" lon="1.41707">
        <ele>1352.885</ele>
        <time>2024-08-31T07:11:51Z</time>
      </trkpt>
      <trkpt lat="42.7071" lon="1.41708">
        <ele>1353.391</ele>
        <time>2024-08-31T07:11:53Z</time>
      </trkpt>
      <trkpt lat="42.70709" lon="1.41708">
        <ele>1353.131</ele>
        <time>2024-08-31T07:11:55Z</time>
      </trkpt>
      <trkpt lat="42.70708" lon="1.41709">
        <ele>1353.4</ele>
        <time>2024-08-31T07:11:57Z</time>
      </trkpt>
      <trkpt lat="42.70707" lon="1.41711">
        <ele>1354.258</ele>
        <time>2024-08-31T07:11:59Z</time>
      </trkpt>
      <trkpt lat="42.70706" lon="1.41712">
        <ele>1354.241</ele>
        <time>2024-08-31T07:12:01Z</time>
      </trkpt>
      <trkpt lat="42.70705" lon="1.41711">
        <ele>1353.962</ele>
        <time>2024-08-31T07:12:03Z</time>
      </trkpt>
      <trkpt lat="42.70705" lon="1.41711">
        <ele>1354.614</ele>
        <time>2024-08-31T07:12:05Z</time>
      </trkpt>
      <trkpt lat="42.70704" lon="1.41711">
        <ele>1354.445</ele>
        <time>2024-08-31T07:12:07Z</time>
      </trkpt>
      <trkpt lat="42.70703" lon="1.4171">
        <ele>1354.699</ele>
        <time>2024-08-31T07:12:09Z</time>
      </trkpt>
      <trkpt lat="42.70703" lon="1.4171">
        <ele>1353.895</ele>
        <time>2024-08-31T07:12:11Z</time>
      </trkpt>
      <trkpt lat="42.70702" lon="1.41709">
        <ele>1352.993</ele>
        <time>2024-08-31T07:12:13Z</time>
      </trkpt>
      <trkpt lat="42.70702" lon="1.41708">
        <ele>1352.126</ele>
        <time>2024-08-31T07:12:15Z</time>
      </trkpt>
      <trkpt lat="42.70701" lon="1.41707">
        <ele>1352.166</ele>
        <time>2024-08-31T07:12:17Z</time>
      </trkpt>
      <trkpt lat="42.70701" lon="1.41707">
        <ele>1352.947</ele>
        <time>2024-08-31T07:12:19Z</time>
      </trkpt>
      <trkpt lat="42.70701" lon="1.41706">
        <ele>1353.268</ele>
        <time>2024-08-31T07:12:21Z</time>
      </trkpt>
      <trkpt lat="42.707" lon="1.41705">
        <ele>1352.467</ele>
        <time>2024-08-31T07:12:23Z</time>
      </trkpt>
      <trkpt lat="42.70699" lon="1.41704">
        <ele>1352.16</ele>
        <time>2024-08-31T07:12:25Z</time>
      </trkpt>
      <trkpt lat="42.70699" lon="1.41703">
        <ele>1352.25</ele>
        <time>2024-08-31T07:12:27Z</time>
      </trkpt>
      <trkpt lat="42.70698" lon="1.41702">
        <ele>1353.386</ele>
        <time>2024-08-31T07:12:29Z</time>
      </trkpt>
      <trkpt lat="42.70698" lon="1.417">
        <ele>1353.048</ele>
        <time>2024-08-31T07:12:31Z</time>
      </trkpt>
      <trkpt lat="42.70698" lon="1.41699">
        <ele>1353.089</ele>
        <time>2024-08-31T07:12:33Z</time>
      </trkpt>
      <trkpt lat="42.70698" lon="1.41698">
        <ele>1354.108</ele>
        <time>2024-08-31T07:12:35Z</time>
      </trkpt>
      <trkpt lat="42.70698" lon="1.41696">
        <ele>1352.593</ele>
        <time>2024-08-31T07:12:37Z</time>
      </trkpt>
      <trkpt lat="42.70697" lon="1.41695">
        <ele>1352.306</ele>
        <time>2024-08-31T07:12:39Z</time>
      </trkpt>
      <trkpt lat="42.70696" lon="1.41694">
        <ele>1351.949</ele>
        <time>2024-08-31T07:12:41Z</time>
      </trkpt>
      <trkpt lat="42.70696" lon="1.41693">
        <ele>1351.865</ele>
        <time>2024-08-31T07:12:43Z</time>
      </trkpt>
      <trkpt lat="42.70695" lon="1.41692">
        <ele>1351.196</ele>
        <time>2024-08-31T07:12:45Z</time>
      </trkpt>
      <trkpt lat="42.70695" lon="1.41691">
        <ele>1352.21</ele>
        <time>2024-08-31T07:12:47Z</time>
      </trkpt>
      <trkpt lat="42.70693" lon="1.41689">
        <ele>1352.239</ele>
        <time>2024-08-31T07:12:49Z</time>
      </trkpt>
      <trkpt lat="42.70692" lon="1.41687">
        <ele>1351.243</ele>
        <time>2024-08-31T07:12:51Z</time>
      </trkpt>
      <trkpt lat="42.70691" lon="1.41685">
        <ele>1350.666</ele>
        <time>2024-08-31T07:12:53Z</time>
      </trkpt>
      <trkpt lat="42.70689" lon="1.41684">
        <ele>1349.314</ele>
        <time>2024-08-31T07:12:55Z</time>
      </trkpt>
      <trkpt lat="42.70688" lon="1.41683">
        <ele>1347.193</ele>
        <time>2024-08-31T07:12:57Z</time>
      </trkpt>
      <trkpt lat="42.70686" lon="1.41682">
        <ele>1347.189</ele>
        <time>2024-08-31T07:12:59Z</time>
      </trkpt>
      <trkpt lat="42.70685" lon="1.4168">
        <ele>1347.178</ele>
        <time>2024-08-31T07:13:01Z</time>
      </trkpt>
      <trkpt lat="42.70683" lon="1.41679">
        <ele>1345.353</ele>
        <time>2024-08-31T07:13:03Z</time>
      </trkpt>
      <trkpt lat="42.70682" lon="1.41677">
        <ele>1345.991</ele>
        <time>2024-08-31T07:13:05Z</time>
      </trkpt>
      <trkpt lat="42.70681" lon="1.41677">
        <ele>1347.019</ele>
        <time>2024-08-31T07:13:07Z</time>
      </trkpt>
      <trkpt lat="42.7068" lon="1.41676">
        <ele>1345.6</ele>
        <time>2024-08-31T07:13:09Z</time>
      </trkpt>
      <trkpt lat="42.70679" lon="1.41676">
        <ele>1345.438</ele>
        <time>2024-08-31T07:13:11Z</time>
      </trkpt>
      <trkpt lat="42.70679" lon="1.41675">
        <ele>1345.812</ele>
        <time>2024-08-31T07:13:13Z</time>
      </trkpt>
      <trkpt lat="42.70678" lon="1.41674">
        <ele>1346.796</ele>
        <time>2024-08-31T07:13:15Z</time>
      </trkpt>
      <trkpt lat="42.70678" lon="1.41673">
        <ele>1346.333</ele>
        <time>2024-08-31T07:13:17Z</time>
      </trkpt>
      <trkpt lat="42.70677" lon="1.41672">
        <ele>1346.857</ele>
        <time>2024-08-31T07:13:19Z</time>
      </trkpt>
      <trkpt lat="42.70677" lon="1.41671">
        <ele>1346.339</ele>
        <time>2024-08-31T07:13:21Z</time>
      </trkpt>
      <trkpt lat="42.70676" lon="1.4167">
        <ele>1345.884</ele>
        <time>2024-08-31T07:13:23Z</time>
      </trkpt>
      <trkpt lat="42.70676" lon="1.4167">
        <ele>1346.497</ele>
        <time>2024-08-31T07:13:25Z</time>
      </trkpt>
      <trkpt lat="42.70675" lon="1.41669">
        <ele>1346.651</ele>
        <time>2024-08-31T07:13:27Z</time>
      </trkpt>
      <trkpt lat="42.70675" lon="1.41667">
        <ele>1347.362</ele>
        <time>2024-08-31T07:13:29Z</time>
      </trkpt>
      <trkpt lat="42.70674" lon="1.41666">
        <ele>1347.851</ele>
        <time>2024-08-31T07:13:31Z</time>
      </trkpt>
      <trkpt lat="42.70674" lon="1.41664">
        <ele>1347.725</ele>
        <time>2024-08-31T07:13:33Z</time>
      </trkpt>
      <trkpt lat="42.70673" lon="1.41663">
        <ele>1347.844</ele>
        <time>2024-08-31T07:13:35Z</time>
      </trkpt>
      <trkpt lat="42.70673" lon="1.41661">
        <ele>1348.406</ele>
        <time>2024-08-31T07:13:37Z</time>
      </trkpt>
      <trkpt lat="42.70673" lon="1.41659">
        <ele>1346.534</ele>
        <time>2024-08-31T07:13:39Z</time>
      </trkpt>
      <trkpt lat="42.70673" lon="1.41657">
        <ele>1346.915</ele>
        <time>2024-08-31T07:13:41Z</time>
      </trkpt>
      <trkpt lat="42.70673" lon="1.41655">
        <ele>1346.521</ele>
        <time>2024-08-31T07:13:43Z</time>
      </trkpt>
      <trkpt lat="42.70673" lon="1.41654">
        <ele>1347.959</ele>
        <time>2024-08-31T07:13:45Z</time>
      </trkpt>
      <trkpt lat="42.70673" lon="1.41653">
        <ele>1348.981</ele>
        <time>2024-08-31T07:13:47Z</time>
      </trkpt>
      <trkpt lat="42.70673" lon="1.41652">
        <ele>1348.752</ele>
        <time>2024-08-31T07:13:49Z</time>
      </trkpt>
      <trkpt lat="42.70673" lon="1.4165">
        <ele>1348.049</ele>
        <time>2024-08-31T07:13:51Z</time>
      </trkpt>
      <trkpt lat="42.70672" lon="1.41648">
        <ele>1348.749</ele>
        <time>2024-08-31T07:13:53Z</time>
      </trkpt>
      <trkpt lat="42.70672" lon="1.41647">
        <ele>1350.289</ele>
        <time>2024-08-31T07:13:55Z</time>
      </trkpt>
      <trkpt lat="42.70672" lon="1.41645">
        <ele>1349.628</ele>
        <time>2024-08-31T07:13:57Z</time>
      </trkpt>
      <trkpt lat="42.70672" lon="1.41644">
        <ele>1351.154</ele>
        <time>2024-08-31T07:13:59Z</time>
      </trkpt>
      <trkpt lat="42.70672" lon="1.41642">
        <ele>1349.491</ele>
        <time>2024-08-31T07:14:01Z</time>
      </trkpt>
      <trkpt lat="42.70672" lon="1.4164">
        <ele>1349.797</ele>
        <time>2024-08-31T07:14:03Z</time>
      </trkpt>
      <trkpt lat="42.70671" lon="1.41639">
        <ele>1349.79</ele>
        <time>2024-08-31T07:14:05Z</time>
      </trkpt>
      <trkpt lat="42.70671" lon="1.41639">
        <ele>1350.267</ele>
        <time>2024-08-31T07:14:07Z</time>
      </trkpt>
      <trkpt lat="42.7067" lon="1.41638">
        <ele>1351.794</ele>
        <time>2024-08-31T07:14:09Z</time>
      </trkpt>
      <trkpt lat="42.70671" lon="1.41636">
        <ele>1351.912</ele>
        <time>2024-08-31T07:14:11Z</time>
      </trkpt>
      <trkpt lat="42.70671" lon="1.41634">
        <ele>1352.527</ele>
        <time>2024-08-31T07:14:13Z</time>
      </trkpt>
      <trkpt lat="42.7067" lon="1.41633">
        <ele>1352.478</ele>
        <time>2024-08-31T07:14:15Z</time>
      </trkpt>
      <trkpt lat="42.7067" lon="1.41631">
        <ele>1351.719</ele>
        <time>2024-08-31T07:14:17Z</time>
      </trkpt>
      <trkpt lat="42.70669" lon="1.4163">
        <ele>1352.423</ele>
        <time>2024-08-31T07:14:19Z</time>
      </trkpt>
      <trkpt lat="42.70669" lon="1.41628">
        <ele>1353.107</ele>
        <time>2024-08-31T07:14:21Z</time>
      </trkpt>
      <trkpt lat="42.70669" lon="1.41627">
        <ele>1353.326</ele>
        <time>2024-08-31T07:14:23Z</time>
      </trkpt>
      <trkpt lat="42.70668" lon="1.41626">
        <ele>1353.37</ele>
        <time>2024-08-31T07:14:25Z</time>
      </trkpt>
      <trkpt lat="42.70668" lon="1.41624">
        <ele>1353.896</ele>
        <time>2024-08-31T07:14:27Z</time>
      </trkpt>
      <trkpt lat="42.70668" lon="1.41623">
        <ele>1353.739</ele>
        <time>2024-08-31T07:14:29Z</time>
      </trkpt>
      <trkpt lat="42.70667" lon="1.41621">
        <ele>1354.032</ele>
        <time>2024-08-31T07:14:31Z</time>
      </trkpt>
      <trkpt lat="42.70667" lon="1.4162">
        <ele>1354.416</ele>
        <time>2024-08-31T07:14:33Z</time>
      </trkpt>
      <trkpt lat="42.70666" lon="1.41619">
        <ele>1355.034</ele>
        <time>2024-08-31T07:14:35Z</time>
      </trkpt>
      <trkpt lat="42.70665" lon="1.41618">
        <ele>1354.649</ele>
        <time>2024-08-31T07:14:37Z</time>
      </trkpt>
      <trkpt lat="42.70665" lon="1.41616">
        <ele>1354.926</ele>
        <time>2024-08-31T07:14:39Z</time>
      </trkpt>
      <trkpt lat="42.70665" lon="1.41614">
        <ele>1354.473</ele>
        <time>2024-08-31T07:14:41Z</time>
      </trkpt>
      <trkpt lat="42.70665" lon="1.41612">
        <ele>1352.662</ele>
        <time>2024-08-31T07:14:43Z</time>
      </trkpt>
      <trkpt lat="42.70665" lon="1.41611">
        <ele>1352.857</ele>
        <time>2024-08-31T07:14:45Z</time>
      </trkpt>
      <trkpt lat="42.70664" lon="1.4161">
        <ele>1350.844</ele>
        <time>2024-08-31T07:14:47Z</time>
      </trkpt>
      <trkpt lat="42.70664" lon="1.41609">
        <ele>1351.51</ele>
        <time>2024-08-31T07:14:49Z</time>
      </trkpt>
      <trkpt lat="42.70664" lon="1.41608">
        <ele>1352.692</ele>
        <time>2024-08-31T07:14:51Z</time>
      </trkpt>
      <trkpt lat="42.70664" lon="1.41606">
        <ele>1352.723</ele>
        <time>2024-08-31T07:14:53Z</time>
      </trkpt>
      <trkpt lat="42.70663" lon="1.41605">
        <ele>1353.164</ele>
        <time>2024-08-31T07:14:55Z</time>
      </trkpt>
      <trkpt lat="42.70663" lon="1.41603">
        <ele>1353.953</ele>
        <time>2024-08-31T07:14:57Z</time>
      </trkpt>
      <trkpt lat="42.70663" lon="1.41602">
        <ele>1353.689</ele>
        <time>2024-08-31T07:14:59Z</time>
      </trkpt>
      <trkpt lat="42.70663" lon="1.41601">
        <ele>1354.407</ele>
        <time>2024-08-31T07:15:01Z</time>
      </trkpt>
      <trkpt lat="42.70662" lon="1.41599">
        <ele>1354.711</ele>
        <time>2024-08-31T07:15:03Z</time>
      </trkpt>
      <trkpt lat="42.70662" lon="1.41598">
        <ele>1354.451</ele>
        <time>2024-08-31T07:15:05Z</time>
      </trkpt>
      <trkpt lat="42.70662" lon="1.41597">
        <ele>1354.529</ele>
        <time>2024-08-31T07:15:07Z</time>
      </trkpt>
      <trkpt lat="42.70661" lon="1.41596">
        <ele>1356.404</ele>
        <time>2024-08-31T07:15:09Z</time>
      </trkpt>
      <trkpt lat="42.70661" lon="1.41595">
        <ele>1356.033</ele>
        <time>2024-08-31T07:15:11Z</time>
      </trkpt>
      <trkpt lat="42.7066" lon="1.41594">
        <ele>1356.716</ele>
        <time>2024-08-31T07:15:13Z</time>
      </trkpt>
      <trkpt lat="42.7066" lon="1.41594">
        <ele>1356.866</ele>
        <time>2024-08-31T07:15:15Z</time>
      </trkpt>
      <trkpt lat="42.7066" lon="1.41594">
        <ele>1356.426</ele>
        <time>2024-08-31T07:15:17Z</time>
      </trkpt>
      <trkpt lat="42.7066" lon="1.41594">
        <ele>1357.6</ele>
        <time>2024-08-31T07:15:19Z</time>
      </trkpt>
      <trkpt lat="42.7066" lon="1.41594">
        <ele>1359.445</ele>
        <time>2024-08-31T07:15:21Z</time>
      </trkpt>
      <trkpt lat="42.7066" lon="1.41594">
        <ele>1359.355</ele>
        <time>2024-08-31T07:15:23Z</time>
      </trkpt>
      <trkpt lat="42.7066" lon="1.41594">
        <ele>1360.588</ele>
        <time>2024-08-31T07:15:25Z</time>
      </trkpt>
      <trkpt lat="42.7066" lon="1.41594">
        <ele>1360.184</ele>
        <time>2024-08-31T07:15:27Z</time>
      </trkpt>
      <trkpt lat="42.7066" lon="1.41594">
        <ele>1359.894</ele>
        <time>2024-08-31T07:15:29Z</time>
      </trkpt>
      <trkpt lat="42.70659" lon="1.4159">
        <ele>1361.352</ele>
        <time>2024-08-31T07:15:31Z</time>
      </trkpt>
      <trkpt lat="42.70659" lon="1.4159">
        <ele>1361.846</ele>
        <time>2024-08-31T07:15:33Z</time>
      </trkpt>
      <trkpt lat="42.70658" lon="1.41589">
        <ele>1362.873</ele>
        <time>2024-08-31T07:15:35Z</time>
      </trkpt>
      <trkpt lat="42.70658" lon="1.41587">
        <ele>1364.038</ele>
        <time>2024-08-31T07:15:37Z</time>
      </trkpt>
      <trkpt lat="42.70657" lon="1.41587">
        <ele>1364.747</ele>
        <time>2024-08-31T07:15:39Z</time>
      </trkpt>
      <trkpt lat="42.70656" lon="1.41586">
        <ele>1364.234</ele>
        <time>2024-08-31T07:15:41Z</time>
      </trkpt>
      <trkpt lat="42.70655" lon="1.41584">
        <ele>1364.015</ele>
        <time>2024-08-31T07:15:43Z</time>
      </trkpt>
      <trkpt lat="42.70654" lon="1.41582">
        <ele>1363.485</ele>
        <time>2024-08-31T07:15:45Z</time>
      </trkpt>
      <trkpt lat="42.70654" lon="1.41581">
        <ele>1364.218</ele>
        <time>2024-08-31T07:15:47Z</time>
      </trkpt>
      <trkpt lat="42.70653" lon="1.4158">
        <ele>1363.073</ele>
        <time>2024-08-31T07:15:49Z</time>
      </trkpt>
      <trkpt lat="42.70652" lon="1.41577">
        <ele>1361.524</ele>
        <time>2024-08-31T07:15:51Z</time>
      </trkpt>
      <trkpt lat="42.70651" lon="1.41575">
        <ele>1363.483</ele>
        <time>2024-08-31T07:15:53Z</time>
      </trkpt>
      <trkpt lat="42.70651" lon="1.41573">
        <ele>1362.88</ele>
        <time>2024-08-31T07:15:55Z</time>
      </trkpt>
      <trkpt lat="42.70651" lon="1.41572">
        <ele>1363.143</ele>
        <time>2024-08-31T07:15:57Z</time>
      </trkpt>
      <trkpt lat="42.70651" lon="1.4157">
        <ele>1363.518</ele>
        <time>2024-08-31T07:15:59Z</time>
      </trkpt>
      <trkpt lat="42.70651" lon="1.41569">
        <ele>1364.103</ele>
        <time>2024-08-31T07:16:01Z</time>
      </trkpt>
      <trkpt lat="42.70651" lon="1.41568">
        <ele>1365.435</ele>
        <time>2024-08-31T07:16:03Z</time>
      </trkpt>
      <trkpt lat="42.70651" lon="1.41567">
        <ele>1367.056</ele>
        <time>2024-08-31T07:16:05Z</time>
      </trkpt>
      <trkpt lat="42.70651" lon="1.41566">
        <ele>1368.187</ele>
        <time>2024-08-31T07:16:07Z</time>
      </trkpt>
      <trkpt lat="42.7065" lon="1.41565">
        <ele>1369.644</ele>
        <time>2024-08-31T07:16:09Z</time>
      </trkpt>
      <trkpt lat="42.7065" lon="1.41564">
        <ele>1369.515</ele>
        <time>2024-08-31T07:16:11Z</time>
      </trkpt>
      <trkpt lat="42.7065" lon="1.41564">
        <ele>1370.793</ele>
        <time>2024-08-31T07:16:13Z</time>
      </trkpt>
      <trkpt lat="42.7065" lon="1.41564">
        <ele>1371.45</ele>
        <time>2024-08-31T07:16:15Z</time>
      </trkpt>
      <trkpt lat="42.7065" lon="1.41564">
        <ele>1373.239</ele>
        <time>2024-08-31T07:16:17Z</time>
      </trkpt>
      <trkpt lat="42.7065" lon="1.41564">
        <ele>1373.351</ele>
        <time>2024-08-31T07:16:19Z</time>
      </trkpt>
      <trkpt lat="42.7065" lon="1.41564">
        <ele>1373.358</ele>
        <time>2024-08-31T07:16:21Z</time>
      </trkpt>
      <trkpt lat="42.7065" lon="1.41564">
        <ele>1373.689</ele>
        <time>2024-08-31T07:16:23Z</time>
      </trkpt>
      <trkpt lat="42.7065" lon="1.41564">
        <ele>1373.776</ele>
        <time>2024-08-31T07:16:25Z</time>
      </trkpt>
      <trkpt lat="42.7065" lon="1.41564">
        <ele>1377.454</ele>
        <time>2024-08-31T07:16:27Z</time>
      </trkpt>
      <trkpt lat="42.7065" lon="1.41564">
        <ele>1377.431</ele>
        <time>2024-08-31T07:16:29Z</time>
      </trkpt>
      <trkpt lat="42.7065" lon="1.41564">
        <ele>1377.44</ele>
        <time>2024-08-31T07:16:31Z</time>
      </trkpt>
      <trkpt lat="42.7065" lon="1.41564">
        <ele>1377.444</ele>
        <time>2024-08-31T07:16:33Z</time>
      </trkpt>
      <trkpt lat="42.7065" lon="1.41564">
        <ele>1377.447</ele>
        <time>2024-08-31T07:16:35Z</time>
      </trkpt>
      <trkpt lat="42.7065" lon="1.41564">
        <ele>1377.445</ele>
        <time>2024-08-31T07:16:37Z</time>
      </trkpt>
      <trkpt lat="42.7065" lon="1.41564">
        <ele>1377.438</ele>
        <time>2024-08-31T07:16:39Z</time>
      </trkpt>
      <trkpt lat="42.7065" lon="1.41564">
        <ele>1377.436</ele>
        <time>2024-08-31T07:16:41Z</time>
      </trkpt>
      <trkpt lat="42.7065" lon="1.41564">
        <ele>1377.44</ele>
        <time>2024-08-31T07:16:43Z</time>
      </trkpt>
      <trkpt lat="42.7065" lon="1.41564">
        <ele>1377.443</ele>
        <time>2024-08-31T07:16:45Z</time>
      </trkpt>
      <trkpt lat="42.7065" lon="1.41564">
        <ele>1377.445</ele>
        <time>2024-08-31T07:16:47Z</time>
      </trkpt>
      <trkpt lat="42.7065" lon="1.41564">
        <ele>1377.457</ele>
        <time>2024-08-31T07:16:49Z</time>
      </trkpt>
      <trkpt lat="42.7065" lon="1.41564">
        <ele>1377.456</ele>
        <time>2024-08-31T07:16:51Z</time>
      </trkpt>
      <trkpt lat="42.7065" lon="1.41564">
        <ele>1377.469</ele>
        <time>2024-08-31T07:16:53Z</time>
      </trkpt>
      <trkpt lat="42.7065" lon="1.41564">
        <ele>1377.48</ele>
        <time>2024-08-31T07:16:55Z</time>
      </trkpt>
      <trkpt lat="42.7065" lon="1.41564">
        <ele>1377.492</ele>
        <time>2024-08-31T07:16:57Z</time>
      </trkpt>
      <trkpt lat="42.7065" lon="1.41564">
        <ele>1377.497</ele>
        <time>2024-08-31T07:16:59Z</time>
      </trkpt>
      <trkpt lat="42.7065" lon="1.41564">
        <ele>1377.499</ele>
        <time>2024-08-31T07:17:01Z</time>
      </trkpt>
      <trkpt lat="42.7065" lon="1.41564">
        <ele>1377.504</ele>
        <time>2024-08-31T07:17:03Z</time>
      </trkpt>
      <trkpt lat="42.7065" lon="1.41564">
        <ele>1377.508</ele>
        <time>2024-08-31T07:17:05Z</time>
      </trkpt>
      <trkpt lat="42.7065" lon="1.41564">
        <ele>1377.511</ele>
        <time>2024-08-31T07:17:07Z</time>
      </trkpt>
      <trkpt lat="42.7065" lon="1.41564">
        <ele>1377.516</ele>
        <time>2024-08-31T07:17:09Z</time>
      </trkpt>
      <trkpt lat="42.7065" lon="1.41564">
        <ele>1377.488</ele>
        <time>2024-08-31T07:17:11Z</time>
      </trkpt>
      <trkpt lat="42.7065" lon="1.41564">
        <ele>1377.444</ele>
        <time>2024-08-31T07:17:13Z</time>
      </trkpt>
      <trkpt lat="42.7065" lon="1.41564">
        <ele>1377.501</ele>
        <time>2024-08-31T07:17:15Z</time>
      </trkpt>
      <trkpt lat="42.7065" lon="1.41564">
        <ele>1377.497</ele>
        <time>2024-08-31T07:17:17Z</time>
      </trkpt>
      <trkpt lat="42.7065" lon="1.41564">
        <ele>1377.504</ele>
        <time>2024-08-31T07:17:19Z</time>
      </trkpt>
      <trkpt lat="42.7065" lon="1.41564">
        <ele>1377.505</ele>
        <time>2024-08-31T07:17:21Z</time>
      </trkpt>
      <trkpt lat="42.7065" lon="1.41564">
        <ele>1377.511</ele>
        <time>2024-08-31T07:17:23Z</time>
      </trkpt>
      <trkpt lat="42.7065" lon="1.41564">
        <ele>1377.529</ele>
        <time>2024-08-31T07:17:25Z</time>
      </trkpt>
      <trkpt lat="42.7065" lon="1.41564">
        <ele>1377.552</ele>
        <time>2024-08-31T07:17:27Z</time>
      </trkpt>
      <trkpt lat="42.7065" lon="1.41564">
        <ele>1377.563</ele>
        <time>2024-08-31T07:17:29Z</time>
      </trkpt>
      <trkpt lat="42.7065" lon="1.41564">
        <ele>1377.581</ele>
        <time>2024-08-31T07:17:31Z</time>
      </trkpt>
      <trkpt lat="42.7065" lon="1.41564">
        <ele>1377.593</ele>
        <time>2024-08-31T07:17:33Z</time>
      </trkpt>
      <trkpt lat="42.7065" lon="1.41564">
        <ele>1377.601</ele>
        <time>2024-08-31T07:17:35Z</time>
      </trkpt>
      <trkpt lat="42.7065" lon="1.41564">
        <ele>1377.611</ele>
        <time>2024-08-31T07:17:37Z</time>
      </trkpt>
      <trkpt lat="42.7065" lon="1.41564">
        <ele>1377.623</ele>
        <time>2024-08-31T07:17:39Z</time>
      </trkpt>
      <trkpt lat="42.7065" lon="1.41564">
        <ele>1377.632</ele>
        <time>2024-08-31T07:17:41Z</time>
      </trkpt>
      <trkpt lat="42.7065" lon="1.41564">
        <ele>1377.646</ele>
        <time>2024-08-31T07:17:43Z</time>
      </trkpt>
      <trkpt lat="42.7065" lon="1.41564">
        <ele>1377.651</ele>
        <time>2024-08-31T07:17:45Z</time>
      </trkpt>
      <trkpt lat="42.7065" lon="1.41564">
        <ele>1377.667</ele>
        <time>2024-08-31T07:17:47Z</time>
      </trkpt>
      <trkpt lat="42.7065" lon="1.41564">
        <ele>1377.681</ele>
        <time>2024-08-31T07:17:49Z</time>
      </trkpt>
      <trkpt lat="42.7065" lon="1.41564">
        <ele>1377.687</ele>
        <time>2024-08-31T07:17:51Z</time>
      </trkpt>
      <trkpt lat="42.70652" lon="1.41557">
        <ele>1378.251</ele>
        <time>2024-08-31T07:17:53Z</time>
      </trkpt>
      <trkpt lat="42.70652" lon="1.41556">
        <ele>1378.471</ele>
        <time>2024-08-31T07:17:55Z</time>
      </trkpt>
      <trkpt lat="42.70652" lon="1.41554">
        <ele>1377.487</ele>
        <time>2024-08-31T07:17:57Z</time>
      </trkpt>
      <trkpt lat="42.70652" lon="1.41552">
        <ele>1376.51</ele>
        <time>2024-08-31T07:17:59Z</time>
      </trkpt>
      <trkpt lat="42.70651" lon="1.4155">
        <ele>1377.395</ele>
        <time>2024-08-31T07:18:01Z</time>
      </trkpt>
      <trkpt lat="42.70651" lon="1.41549">
        <ele>1377.027</ele>
        <time>2024-08-31T07:18:03Z</time>
      </trkpt>
      <trkpt lat="42.70651" lon="1.41548">
        <ele>1378.016</ele>
        <time>2024-08-31T07:18:05Z</time>
      </trkpt>
      <trkpt lat="42.70652" lon="1.41546">
        <ele>1379.075</ele>
        <time>2024-08-31T07:18:07Z</time>
      </trkpt>
      <trkpt lat="42.70653" lon="1.41545">
        <ele>1380.132</ele>
        <time>2024-08-31T07:18:09Z</time>
      </trkpt>
      <trkpt lat="42.70654" lon="1.41544">
        <ele>1382.107</ele>
        <time>2024-08-31T07:18:11Z</time>
      </trkpt>
      <trkpt lat="42.70655" lon="1.41543">
        <ele>1382.716</ele>
        <time>2024-08-31T07:18:13Z</time>
      </trkpt>
      <trkpt lat="42.70655" lon="1.41542">
        <ele>1381.592</ele>
        <time>2024-08-31T07:18:15Z</time>
      </trkpt>
      <trkpt lat="42.70655" lon="1.41542">
        <ele>1383.621</ele>
        <time>2024-08-31T07:18:17Z</time>
      </trkpt>
      <trkpt lat="42.70655" lon="1.41542">
        <ele>1385.014</ele>
        <time>2024-08-31T07:18:19Z</time>
      </trkpt>
      <trkpt lat="42.70655" lon="1.41542">
        <ele>1384.987</ele>
        <time>2024-08-31T07:18:21Z</time>
      </trkpt>
      <trkpt lat="42.70655" lon="1.41542">
        <ele>1386.08</ele>
        <time>2024-08-31T07:18:23Z</time>
      </trkpt>
      <trkpt lat="42.70655" lon="1.41542">
        <ele>1386.537</ele>
        <time>2024-08-31T07:18:25Z</time>
      </trkpt>
      <trkpt lat="42.70655" lon="1.41542">
        <ele>1386.406</ele>
        <time>2024-08-31T07:18:27Z</time>
      </trkpt>
      <trkpt lat="42.70655" lon="1.41542">
        <ele>1385.509</ele>
        <time>2024-08-31T07:18:29Z</time>
      </trkpt>
      <trkpt lat="42.70655" lon="1.41542">
        <ele>1385.071</ele>
        <time>2024-08-31T07:18:31Z</time>
      </trkpt>
      <trkpt lat="42.70655" lon="1.41542">
        <ele>1384.889</ele>
        <time>2024-08-31T07:18:33Z</time>
      </trkpt>
      <trkpt lat="42.70655" lon="1.41542">
        <ele>1385.886</ele>
        <time>2024-08-31T07:18:35Z</time>
      </trkpt>
      <trkpt lat="42.70655" lon="1.41542">
        <ele>1385.042</ele>
        <time>2024-08-31T07:18:37Z</time>
      </trkpt>
      <trkpt lat="42.70655" lon="1.41542">
        <ele>1384.868</ele>
        <time>2024-08-31T07:18:39Z</time>
      </trkpt>
      <trkpt lat="42.70655" lon="1.41542">
        <ele>1384.823</ele>
        <time>2024-08-31T07:18:41Z</time>
      </trkpt>
      <trkpt lat="42.70655" lon="1.41542">
        <ele>1384.233</ele>
        <time>2024-08-31T07:18:43Z</time>
      </trkpt>
      <trkpt lat="42.70655" lon="1.41542">
        <ele>1383.949</ele>
        <time>2024-08-31T07:18:45Z</time>
      </trkpt>
      <trkpt lat="42.70655" lon="1.41542">
        <ele>1386.886</ele>
        <time>2024-08-31T07:18:47Z</time>
      </trkpt>
      <trkpt lat="42.70655" lon="1.41542">
        <ele>1387.095</ele>
        <time>2024-08-31T07:18:49Z</time>
      </trkpt>
      <trkpt lat="42.70653" lon="1.41526">
        <ele>1387.127</ele>
        <time>2024-08-31T07:18:51Z</time>
      </trkpt>
      <trkpt lat="42.70652" lon="1.41524">
        <ele>1387.104</ele>
        <time>2024-08-31T07:18:53Z</time>
      </trkpt>
      <trkpt lat="42.70652" lon="1.41523">
        <ele>1386.752</ele>
        <time>2024-08-31T07:18:55Z</time>
      </trkpt>
      <trkpt lat="42.70653" lon="1.41522">
        <ele>1387.943</ele>
        <time>2024-08-31T07:18:57Z</time>
      </trkpt>
      <trkpt lat="42.70653" lon="1.41521">
        <ele>1387.761</ele>
        <time>2024-08-31T07:18:59Z</time>
      </trkpt>
      <trkpt lat="42.70653" lon="1.4152">
        <ele>1388.652</ele>
        <time>2024-08-31T07:19:01Z</time>
      </trkpt>
      <trkpt lat="42.70654" lon="1.4152">
        <ele>1388.815</ele>
        <time>2024-08-31T07:19:03Z</time>
      </trkpt>
      <trkpt lat="42.70655" lon="1.41519">
        <ele>1387.287</ele>
        <time>2024-08-31T07:19:05Z</time>
      </trkpt>
      <trkpt lat="42.70656" lon="1.4152">
        <ele>1388.614</ele>
        <time>2024-08-31T07:19:07Z</time>
      </trkpt>
      <trkpt lat="42.70658" lon="1.4152">
        <ele>1388.255</ele>
        <time>2024-08-31T07:19:09Z</time>
      </trkpt>
      <trkpt lat="42.70659" lon="1.41519">
        <ele>1388.129</ele>
        <time>2024-08-31T07:19:11Z</time>
      </trkpt>
      <trkpt lat="42.70659" lon="1.4152">
        <ele>1388.137</ele>
        <time>2024-08-31T07:19:13Z</time>
      </trkpt>
      <trkpt lat="42.70661" lon="1.41519">
        <ele>1387.349</ele>
        <time>2024-08-31T07:19:15Z</time>
      </trkpt>
      <trkpt lat="42.70662" lon="1.41518">
        <ele>1387.001</ele>
        <time>2024-08-31T07:19:17Z</time>
      </trkpt>
      <trkpt lat="42.70664" lon="1.41516">
        <ele>1388.105</ele>
        <time>2024-08-31T07:19:19Z</time>
      </trkpt>
      <trkpt lat="42.70665" lon="1.41516">
        <ele>1387.968</ele>
        <time>2024-08-31T07:19:21Z</time>
      </trkpt>
      <trkpt lat="42.70666" lon="1.41515">
        <ele>1388.436</ele>
        <time>2024-08-31T07:19:23Z</time>
      </trkpt>
      <trkpt lat="42.70666" lon="1.41513">
        <ele>1389.248</ele>
        <time>2024-08-31T07:19:25Z</time>
      </trkpt>
      <trkpt lat="42.70666" lon="1.41511">
        <ele>1389.534</ele>
        <time>2024-08-31T07:19:27Z</time>
      </trkpt>
      <trkpt lat="42.70666" lon="1.41509">
        <ele>1389.737</ele>
        <time>2024-08-31T07:19:29Z</time>
      </trkpt>
      <trkpt lat="42.70666" lon="1.41508">
        <ele>1389.228</ele>
        <time>2024-08-31T07:19:31Z</time>
      </trkpt>
      <trkpt lat="42.70666" lon="1.41505">
        <ele>1388.378</ele>
        <time>2024-08-31T07:19:33Z</time>
      </trkpt>
      <trkpt lat="42.70666" lon="1.41504">
        <ele>1386.14</ele>
        <time>2024-08-31T07:19:35Z</time>
      </trkpt>
      <trkpt lat="42.70667" lon="1.41502">
        <ele>1385.827</ele>
        <time>2024-08-31T07:19:37Z</time>
      </trkpt>
      <trkpt lat="42.70667" lon="1.41499">
        <ele>1385.666</ele>
        <time>2024-08-31T07:19:39Z</time>
      </trkpt>
      <trkpt lat="42.70666" lon="1.41498">
        <ele>1384.978</ele>
        <time>2024-08-31T07:19:41Z</time>
      </trkpt>
      <trkpt lat="42.70666" lon="1.41495">
        <ele>1384.486</ele>
        <time>2024-08-31T07:19:43Z</time>
      </trkpt>
      <trkpt lat="42.70666" lon="1.41492">
        <ele>1384.45</ele>
        <time>2024-08-31T07:19:45Z</time>
      </trkpt>
      <trkpt lat="42.70665" lon="1.41491">
        <ele>1384.244</ele>
        <time>2024-08-31T07:19:47Z</time>
      </trkpt>
      <trkpt lat="42.70663" lon="1.41489">
        <ele>1383.363</ele>
        <time>2024-08-31T07:19:49Z</time>
      </trkpt>
      <trkpt lat="42.70663" lon="1.41486">
        <ele>1382.86</ele>
        <time>2024-08-31T07:19:51Z</time>
      </trkpt>
      <trkpt lat="42.70661" lon="1.41486">
        <ele>1383.711</ele>
        <time>2024-08-31T07:19:53Z</time>
      </trkpt>
      <trkpt lat="42.70661" lon="1.41484">
        <ele>1384.39</ele>
        <time>2024-08-31T07:19:55Z</time>
      </trkpt>
      <trkpt lat="42.7066" lon="1.41482">
        <ele>1384.371</ele>
        <time>2024-08-31T07:19:57Z</time>
      </trkpt>
      <trkpt lat="42.7066" lon="1.41479">
        <ele>1384.41</ele>
        <time>2024-08-31T07:19:59Z</time>
      </trkpt>
      <trkpt lat="42.70659" lon="1.41477">
        <ele>1384.304</ele>
        <time>2024-08-31T07:20:01Z</time>
      </trkpt>
      <trkpt lat="42.70659" lon="1.41475">
        <ele>1385.455</ele>
        <time>2024-08-31T07:20:03Z</time>
      </trkpt>
      <trkpt lat="42.70659" lon="1.41473">
        <ele>1385.68</ele>
        <time>2024-08-31T07:20:05Z</time>
      </trkpt>
      <trkpt lat="42.70659" lon="1.41471">
        <ele>1385.83</ele>
        <time>2024-08-31T07:20:07Z</time>
      </trkpt>
      <trkpt lat="42.70658" lon="1.41468">
        <ele>1385.894</ele>
        <time>2024-08-31T07:20:09Z</time>
      </trkpt>
      <trkpt lat="42.70658" lon="1.41466">
        <ele>1385.53</ele>
        <time>2024-08-31T07:20:11Z</time>
      </trkpt>
      <trkpt lat="42.70658" lon="1.41463">
        <ele>1384.432</ele>
        <time>2024-08-31T07:20:13Z</time>
      </trkpt>
      <trkpt lat="42.70657" lon="1.41461">
        <ele>1385.032</ele>
        <time>2024-08-31T07:20:15Z</time>
      </trkpt>
      <trkpt lat="42.70657" lon="1.41458">
        <ele>1385.855</ele>
        <time>2024-08-31T07:20:17Z</time>
      </trkpt>
      <trkpt lat="42.70656" lon="1.41455">
        <ele>1385.493</ele>
        <time>2024-08-31T07:20:19Z</time>
      </trkpt>
      <trkpt lat="42.70655" lon="1.41453">
        <ele>1384.706</ele>
        <time>2024-08-31T07:20:21Z</time>
      </trkpt>
      <trkpt lat="42.70654" lon="1.41451">
        <ele>1382.847</ele>
        <time>2024-08-31T07:20:23Z</time>
      </trkpt>
      <trkpt lat="42.70654" lon="1.41449">
        <ele>1382.923</ele>
        <time>2024-08-31T07:20:25Z</time>
      </trkpt>
      <trkpt lat="42.70654" lon="1.41447">
        <ele>1383.617</ele>
        <time>2024-08-31T07:20:27Z</time>
      </trkpt>
      <trkpt lat="42.70654" lon="1.41444">
        <ele>1383.613</ele>
        <time>2024-08-31T07:20:29Z</time>
      </trkpt>
      <trkpt lat="42.70653" lon="1.41442">
        <ele>1382.413</ele>
        <time>2024-08-31T07:20:31Z</time>
      </trkpt>
      <trkpt lat="42.70654" lon="1.41439">
        <ele>1382.408</ele>
        <time>2024-08-31T07:20:33Z</time>
      </trkpt>
      <trkpt lat="42.70654" lon="1.41437">
        <ele>1382.1</ele>
        <time>2024-08-31T07:20:35Z</time>
      </trkpt>
      <trkpt lat="42.70654" lon="1.41434">
        <ele>1381.319</ele>
        <time>2024-08-31T07:20:37Z</time>
      </trkpt>
      <trkpt lat="42.70654" lon="1.41431">
        <ele>1381.297</ele>
        <time>2024-08-31T07:20:39Z</time>
      </trkpt>
      <trkpt lat="42.70654" lon="1.41429">
        <ele>1382.017</ele>
        <time>2024-08-31T07:20:41Z</time>
      </trkpt>
      <trkpt lat="42.70654" lon="1.41426">
        <ele>1381.97</ele>
        <time>2024-08-31T07:20:43Z</time>
      </trkpt>
      <trkpt lat="42.70653" lon="1.41425">
        <ele>1381.409</ele>
        <time>2024-08-31T07:20:45Z</time>
      </trkpt>
      <trkpt lat="42.70653" lon="1.41423">
        <ele>1380.63</ele>
        <time>2024-08-31T07:20:47Z</time>
      </trkpt>
      <trkpt lat="42.70653" lon="1.41421">
        <ele>1381.089</ele>
        <time>2024-08-31T07:20:49Z</time>
      </trkpt>
      <trkpt lat="42.70654" lon="1.41418">
        <ele>1380.325</ele>
        <time>2024-08-31T07:20:51Z</time>
      </trkpt>
      <trkpt lat="42.70654" lon="1.41414">
        <ele>1378.543</ele>
        <time>2024-08-31T07:20:53Z</time>
      </trkpt>
      <trkpt lat="42.70653" lon="1.41412">
        <ele>1376.716</ele>
        <time>2024-08-31T07:20:55Z</time>
      </trkpt>
      <trkpt lat="42.70653" lon="1.41408">
        <ele>1376.093</ele>
        <time>2024-08-31T07:20:57Z</time>
      </trkpt>
      <trkpt lat="42.70652" lon="1.41405">
        <ele>1377.14</ele>
        <time>2024-08-31T07:20:59Z</time>
      </trkpt>
      <trkpt lat="42.70653" lon="1.41403">
        <ele>1378.614</ele>
        <time>2024-08-31T07:21:01Z</time>
      </trkpt>
      <trkpt lat="42.70652" lon="1.414">
        <ele>1379.723</ele>
        <time>2024-08-31T07:21:03Z</time>
      </trkpt>
      <trkpt lat="42.70652" lon="1.41398">
        <ele>1380.199</ele>
        <time>2024-08-31T07:21:05Z</time>
      </trkpt>
      <trkpt lat="42.70652" lon="1.41396">
        <ele>1380.472</ele>
        <time>2024-08-31T07:21:07Z</time>
      </trkpt>
      <trkpt lat="42.70652" lon="1.41394">
        <ele>1381.858</ele>
        <time>2024-08-31T07:21:09Z</time>
      </trkpt>
      <trkpt lat="42.70652" lon="1.41392">
        <ele>1382.032</ele>
        <time>2024-08-31T07:21:11Z</time>
      </trkpt>
      <trkpt lat="42.70652" lon="1.41388">
        <ele>1380.792</ele>
        <time>2024-08-31T07:21:13Z</time>
      </trkpt>
      <trkpt lat="42.70652" lon="1.41386">
        <ele>1380.214</ele>
        <time>2024-08-31T07:21:15Z</time>
      </trkpt>
      <trkpt lat="42.70653" lon="1.41383">
        <ele>1380.529</ele>
        <time>2024-08-31T07:21:17Z</time>
      </trkpt>
      <trkpt lat="42.70652" lon="1.41381">
        <ele>1379.263</ele>
        <time>2024-08-31T07:21:19Z</time>
      </trkpt>
      <trkpt lat="42.70652" lon="1.41379">
        <ele>1380.06</ele>
        <time>2024-08-31T07:21:21Z</time>
      </trkpt>
      <trkpt lat="42.70652" lon="1.41377">
        <ele>1380.26</ele>
        <time>2024-08-31T07:21:23Z</time>
      </trkpt>
      <trkpt lat="42.70652" lon="1.41374">
        <ele>1380.658</ele>
        <time>2024-08-31T07:21:25Z</time>
      </trkpt>
      <trkpt lat="42.70653" lon="1.41372">
        <ele>1382.495</ele>
        <time>2024-08-31T07:21:27Z</time>
      </trkpt>
      <trkpt lat="42.70652" lon="1.41369">
        <ele>1381.377</ele>
        <time>2024-08-31T07:21:29Z</time>
      </trkpt>
      <trkpt lat="42.70653" lon="1.41366">
        <ele>1381.449</ele>
        <time>2024-08-31T07:21:31Z</time>
      </trkpt>
      <trkpt lat="42.70652" lon="1.41364">
        <ele>1382.269</ele>
        <time>2024-08-31T07:21:33Z</time>
      </trkpt>
      <trkpt lat="42.70652" lon="1.4136">
        <ele>1381.045</ele>
        <time>2024-08-31T07:21:35Z</time>
      </trkpt>
      <trkpt lat="42.70653" lon="1.41357">
        <ele>1378.933</ele>
        <time>2024-08-31T07:21:37Z</time>
      </trkpt>
      <trkpt lat="42.70652" lon="1.41354">
        <ele>1378.193</ele>
        <time>2024-08-31T07:21:39Z</time>
      </trkpt>
      <trkpt lat="42.70653" lon="1.41352">
        <ele>1378.255</ele>
        <time>2024-08-31T07:21:41Z</time>
      </trkpt>
      <trkpt lat="42.70653" lon="1.4135">
        <ele>1380.306</ele>
        <time>2024-08-31T07:21:43Z</time>
      </trkpt>
      <trkpt lat="42.70653" lon="1.41347">
        <ele>1380.495</ele>
        <time>2024-08-31T07:21:45Z</time>
      </trkpt>
      <trkpt lat="42.70653" lon="1.41345">
        <ele>1381.79</ele>
        <time>2024-08-31T07:21:47Z</time>
      </trkpt>
      <trkpt lat="42.70654" lon="1.41344">
        <ele>1382.279</ele>
        <time>2024-08-31T07:21:49Z</time>
      </trkpt>
      <trkpt lat="42.70654" lon="1.41343">
        <ele>1383.053</ele>
        <time>2024-08-31T07:21:51Z</time>
      </trkpt>
      <trkpt lat="42.70654" lon="1.4134">
        <ele>1382.942</ele>
        <time>2024-08-31T07:21:53Z</time>
      </trkpt>
      <trkpt lat="42.70655" lon="1.41338">
        <ele>1383.245</ele>
        <time>2024-08-31T07:21:55Z</time>
      </trkpt>
      <trkpt lat="42.70654" lon="1.41335">
        <ele>1383.034</ele>
        <time>2024-08-31T07:21:57Z</time>
      </trkpt>
      <trkpt lat="42.70653" lon="1.41334">
        <ele>1382.152</ele>
        <time>2024-08-31T07:21:59Z</time>
      </trkpt>
      <trkpt lat="42.70652" lon="1.41331">
        <ele>1380.203</ele>
        <time>2024-08-31T07:22:01Z</time>
      </trkpt>
      <trkpt lat="42.70652" lon="1.41329">
        <ele>1381.253</ele>
        <time>2024-08-31T07:22:03Z</time>
      </trkpt>
      <trkpt lat="42.70651" lon="1.41327">
        <ele>1381.111</ele>
        <time>2024-08-31T07:22:05Z</time>
      </trkpt>
      <trkpt lat="42.7065" lon="1.41324">
        <ele>1378.996</ele>
        <time>2024-08-31T07:22:07Z</time>
      </trkpt>
      <trkpt lat="42.70648" lon="1.41322">
        <ele>1378.611</ele>
        <time>2024-08-31T07:22:09Z</time>
      </trkpt>
      <trkpt lat="42.70647" lon="1.41319">
        <ele>1379.165</ele>
        <time>2024-08-31T07:22:11Z</time>
      </trkpt>
      <trkpt lat="42.70646" lon="1.41317">
        <ele>1379.817</ele>
        <time>2024-08-31T07:22:13Z</time>
      </trkpt>
      <trkpt lat="42.70646" lon="1.41316">
        <ele>1380.916</ele>
        <time>2024-08-31T07:22:15Z</time>
      </trkpt>
      <trkpt lat="42.70646" lon="1.41313">
        <ele>1382.177</ele>
        <time>2024-08-31T07:22:17Z</time>
      </trkpt>
      <trkpt lat="42.70645" lon="1.41312">
        <ele>1382.577</ele>
        <time>2024-08-31T07:22:19Z</time>
      </trkpt>
      <trkpt lat="42.70645" lon="1.41311">
        <ele>1384.408</ele>
        <time>2024-08-31T07:22:21Z</time>
      </trkpt>
      <trkpt lat="42.70645" lon="1.41309">
        <ele>1385.603</ele>
        <time>2024-08-31T07:22:23Z</time>
      </trkpt>
      <trkpt lat="42.70645" lon="1.41307">
        <ele>1385.161</ele>
        <time>2024-08-31T07:22:25Z</time>
      </trkpt>
      <trkpt lat="42.70646" lon="1.41305">
        <ele>1385.889</ele>
        <time>2024-08-31T07:22:27Z</time>
      </trkpt>
      <trkpt lat="42.70646" lon="1.41303">
        <ele>1385.085</ele>
        <time>2024-08-31T07:22:29Z</time>
      </trkpt>
      <trkpt lat="42.70645" lon="1.41301">
        <ele>1385.803</ele>
        <time>2024-08-31T07:22:31Z</time>
      </trkpt>
      <trkpt lat="42.70645" lon="1.41298">
        <ele>1386.245</ele>
        <time>2024-08-31T07:22:33Z</time>
      </trkpt>
      <trkpt lat="42.70645" lon="1.41296">
        <ele>1385.861</ele>
        <time>2024-08-31T07:22:35Z</time>
      </trkpt>
      <trkpt lat="42.70645" lon="1.41293">
        <ele>1387.226</ele>
        <time>2024-08-31T07:22:37Z</time>
      </trkpt>
      <trkpt lat="42.70645" lon="1.4129">
        <ele>1387.531</ele>
        <time>2024-08-31T07:22:39Z</time>
      </trkpt>
      <trkpt lat="42.70645" lon="1.41288">
        <ele>1387.325</ele>
        <time>2024-08-31T07:22:41Z</time>
      </trkpt>
      <trkpt lat="42.70646" lon="1.41286">
        <ele>1387.664</ele>
        <time>2024-08-31T07:22:43Z</time>
      </trkpt>
      <trkpt lat="42.70645" lon="1.41284">
        <ele>1387.854</ele>
        <time>2024-08-31T07:22:45Z</time>
      </trkpt>
      <trkpt lat="42.70646" lon="1.41281">
        <ele>1387.589</ele>
        <time>2024-08-31T07:22:47Z</time>
      </trkpt>
      <trkpt lat="42.70646" lon="1.41278">
        <ele>1388.42</ele>
        <time>2024-08-31T07:22:49Z</time>
      </trkpt>
      <trkpt lat="42.70645" lon="1.41275">
        <ele>1388.29</ele>
        <time>2024-08-31T07:22:51Z</time>
      </trkpt>
      <trkpt lat="42.70645" lon="1.41273">
        <ele>1387.384</ele>
        <time>2024-08-31T07:22:53Z</time>
      </trkpt>
      <trkpt lat="42.70645" lon="1.4127">
        <ele>1386.648</ele>
        <time>2024-08-31T07:22:55Z</time>
      </trkpt>
      <trkpt lat="42.70645" lon="1.41268">
        <ele>1386.156</ele>
        <time>2024-08-31T07:22:57Z</time>
      </trkpt>
      <trkpt lat="42.70645" lon="1.41266">
        <ele>1385.558</ele>
        <time>2024-08-31T07:22:59Z</time>
      </trkpt>
      <trkpt lat="42.70646" lon="1.41263">
        <ele>1386.072</ele>
        <time>2024-08-31T07:23:01Z</time>
      </trkpt>
      <trkpt lat="42.70645" lon="1.41262">
        <ele>1386.296</ele>
        <time>2024-08-31T07:23:03Z</time>
      </trkpt>
      <trkpt lat="42.70645" lon="1.4126">
        <ele>1386.552</ele>
        <time>2024-08-31T07:23:05Z</time>
      </trkpt>
      <trkpt lat="42.70645" lon="1.41259">
        <ele>1387.427</ele>
        <time>2024-08-31T07:23:07Z</time>
      </trkpt>
      <trkpt lat="42.70645" lon="1.41257">
        <ele>1388.387</ele>
        <time>2024-08-31T07:23:09Z</time>
      </trkpt>
      <trkpt lat="42.70645" lon="1.41255">
        <ele>1389.031</ele>
        <time>2024-08-31T07:23:11Z</time>
      </trkpt>
      <trkpt lat="42.70645" lon="1.41253">
        <ele>1389.682</ele>
        <time>2024-08-31T07:23:13Z</time>
      </trkpt>
      <trkpt lat="42.70645" lon="1.41251">
        <ele>1388.846</ele>
        <time>2024-08-31T07:23:15Z</time>
      </trkpt>
      <trkpt lat="42.70646" lon="1.41249">
        <ele>1390.515</ele>
        <time>2024-08-31T07:23:17Z</time>
      </trkpt>
      <trkpt lat="42.70646" lon="1.41247">
        <ele>1390.633</ele>
        <time>2024-08-31T07:23:19Z</time>
      </trkpt>
      <trkpt lat="42.70647" lon="1.41244">
        <ele>1390.588</ele>
        <time>2024-08-31T07:23:21Z</time>
      </trkpt>
      <trkpt lat="42.70648" lon="1.41242">
        <ele>1390.44</ele>
        <time>2024-08-31T07:23:23Z</time>
      </trkpt>
      <trkpt lat="42.70648" lon="1.41239">
        <ele>1390.312</ele>
        <time>2024-08-31T07:23:25Z</time>
      </trkpt>
      <trkpt lat="42.70648" lon="1.41238">
        <ele>1390.676</ele>
        <time>2024-08-31T07:23:27Z</time>
      </trkpt>
      <trkpt lat="42.70648" lon="1.41236">
        <ele>1391.513</ele>
        <time>2024-08-31T07:23:29Z</time>
      </trkpt>
      <trkpt lat="42.70649" lon="1.41234">
        <ele>1391.127</ele>
        <time>2024-08-31T07:23:31Z</time>
      </trkpt>
      <trkpt lat="42.7065" lon="1.41231">
        <ele>1390.513</ele>
        <time>2024-08-31T07:23:33Z</time>
      </trkpt>
      <trkpt lat="42.70651" lon="1.41229">
        <ele>1390.471</ele>
        <time>2024-08-31T07:23:35Z</time>
      </trkpt>
      <trkpt lat="42.70651" lon="1.41227">
        <ele>1390.782</ele>
        <time>2024-08-31T07:23:37Z</time>
      </trkpt>
      <trkpt lat="42.70652" lon="1.41225">
        <ele>1391.653</ele>
        <time>2024-08-31T07:23:39Z</time>
      </trkpt>
      <trkpt lat="42.70652" lon="1.41223">
        <ele>1392.431</ele>
        <time>2024-08-31T07:23:41Z</time>
      </trkpt>
      <trkpt lat="42.70653" lon="1.41222">
        <ele>1393.016</ele>
        <time>2024-08-31T07:23:43Z</time>
      </trkpt>
      <trkpt lat="42.70654" lon="1.4122">
        <ele>1392.055</ele>
        <time>2024-08-31T07:23:45Z</time>
      </trkpt>
      <trkpt lat="42.70655" lon="1.41218">
        <ele>1393.584</ele>
        <time>2024-08-31T07:23:47Z</time>
      </trkpt>
      <trkpt lat="42.70655" lon="1.41216">
        <ele>1393.847</ele>
        <time>2024-08-31T07:23:49Z</time>
      </trkpt>
      <trkpt lat="42.70656" lon="1.41216">
        <ele>1395.885</ele>
        <time>2024-08-31T07:23:51Z</time>
      </trkpt>
      <trkpt lat="42.70657" lon="1.41213">
        <ele>1396.016</ele>
        <time>2024-08-31T07:23:53Z</time>
      </trkpt>
      <trkpt lat="42.70657" lon="1.4121">
        <ele>1396.252</ele>
        <time>2024-08-31T07:23:55Z</time>
      </trkpt>
      <trkpt lat="42.70658" lon="1.41208">
        <ele>1397.771</ele>
        <time>2024-08-31T07:23:57Z</time>
      </trkpt>
      <trkpt lat="42.70659" lon="1.41206">
        <ele>1399.791</ele>
        <time>2024-08-31T07:23:59Z</time>
      </trkpt>
      <trkpt lat="42.70659" lon="1.41205">
        <ele>1400.649</ele>
        <time>2024-08-31T07:24:01Z</time>
      </trkpt>
      <trkpt lat="42.7066" lon="1.41203">
        <ele>1399.767</ele>
        <time>2024-08-31T07:24:03Z</time>
      </trkpt>
      <trkpt lat="42.70661" lon="1.41202">
        <ele>1400.943</ele>
        <time>2024-08-31T07:24:05Z</time>
      </trkpt>
      <trkpt lat="42.70661" lon="1.412">
        <ele>1400.542</ele>
        <time>2024-08-31T07:24:07Z</time>
      </trkpt>
      <trkpt lat="42.70663" lon="1.41198">
        <ele>1401.294</ele>
        <time>2024-08-31T07:24:09Z</time>
      </trkpt>
      <trkpt lat="42.70663" lon="1.41196">
        <ele>1401.433</ele>
        <time>2024-08-31T07:24:11Z</time>
      </trkpt>
      <trkpt lat="42.70664" lon="1.41194">
        <ele>1402.571</ele>
        <time>2024-08-31T07:24:13Z</time>
      </trkpt>
      <trkpt lat="42.70664" lon="1.41192">
        <ele>1401.272</ele>
        <time>2024-08-31T07:24:15Z</time>
      </trkpt>
      <trkpt lat="42.70665" lon="1.4119">
        <ele>1401.102</ele>
        <time>2024-08-31T07:24:17Z</time>
      </trkpt>
      <trkpt lat="42.70666" lon="1.41188">
        <ele>1402.394</ele>
        <time>2024-08-31T07:24:19Z</time>
      </trkpt>
      <trkpt lat="42.70666" lon="1.41186">
        <ele>1403.275</ele>
        <time>2024-08-31T07:24:21Z</time>
      </trkpt>
      <trkpt lat="42.70666" lon="1.41185">
        <ele>1402.223</ele>
        <time>2024-08-31T07:24:23Z</time>
      </trkpt>
      <trkpt lat="42.70666" lon="1.41183">
        <ele>1402.382</ele>
        <time>2024-08-31T07:24:25Z</time>
      </trkpt>
      <trkpt lat="42.70667" lon="1.41181">
        <ele>1403.427</ele>
        <time>2024-08-31T07:24:27Z</time>
      </trkpt>
      <trkpt lat="42.70667" lon="1.4118">
        <ele>1404.353</ele>
        <time>2024-08-31T07:24:29Z</time>
      </trkpt>
      <trkpt lat="42.70667" lon="1.41178">
        <ele>1404.866</ele>
        <time>2024-08-31T07:24:31Z</time>
      </trkpt>
      <trkpt lat="42.70668" lon="1.41175">
        <ele>1405.168</ele>
        <time>2024-08-31T07:24:33Z</time>
      </trkpt>
      <trkpt lat="42.70669" lon="1.41174">
        <ele>1407.099</ele>
        <time>2024-08-31T07:24:35Z</time>
      </trkpt>
      <trkpt lat="42.70671" lon="1.41172">
        <ele>1407.234</ele>
        <time>2024-08-31T07:24:37Z</time>
      </trkpt>
      <trkpt lat="42.70671" lon="1.4117">
        <ele>1407.471</ele>
        <time>2024-08-31T07:24:39Z</time>
      </trkpt>
      <trkpt lat="42.70671" lon="1.41168">
        <ele>1407.069</ele>
        <time>2024-08-31T07:24:41Z</time>
      </trkpt>
      <trkpt lat="42.70671" lon="1.41167">
        <ele>1408.146</ele>
        <time>2024-08-31T07:24:43Z</time>
      </trkpt>
      <trkpt lat="42.70672" lon="1.41165">
        <ele>1407.27</ele>
        <time>2024-08-31T07:24:45Z</time>
      </trkpt>
      <trkpt lat="42.70673" lon="1.41163">
        <ele>1407.03</ele>
        <time>2024-08-31T07:24:47Z</time>
      </trkpt>
      <trkpt lat="42.70673" lon="1.41161">
        <ele>1406.418</ele>
        <time>2024-08-31T07:24:49Z</time>
      </trkpt>
      <trkpt lat="42.70674" lon="1.4116">
        <ele>1406.669</ele>
        <time>2024-08-31T07:24:51Z</time>
      </trkpt>
      <trkpt lat="42.70674" lon="1.4116">
        <ele>1408.365</ele>
        <time>2024-08-31T07:24:53Z</time>
      </trkpt>
      <trkpt lat="42.70675" lon="1.41158">
        <ele>1408.872</ele>
        <time>2024-08-31T07:24:55Z</time>
      </trkpt>
      <trkpt lat="42.70675" lon="1.41156">
        <ele>1410.233</ele>
        <time>2024-08-31T07:24:57Z</time>
      </trkpt>
      <trkpt lat="42.70675" lon="1.41155">
        <ele>1410.787</ele>
        <time>2024-08-31T07:24:59Z</time>
      </trkpt>
      <trkpt lat="42.70676" lon="1.41153">
        <ele>1412.053</ele>
        <time>2024-08-31T07:25:01Z</time>
      </trkpt>
      <trkpt lat="42.70677" lon="1.41152">
        <ele>1412.776</ele>
        <time>2024-08-31T07:25:03Z</time>
      </trkpt>
      <trkpt lat="42.70677" lon="1.41151">
        <ele>1412.671</ele>
        <time>2024-08-31T07:25:05Z</time>
      </trkpt>
      <trkpt lat="42.70677" lon="1.41149">
        <ele>1412.108</ele>
        <time>2024-08-31T07:25:07Z</time>
      </trkpt>
      <trkpt lat="42.70678" lon="1.41147">
        <ele>1412.471</ele>
        <time>2024-08-31T07:25:09Z</time>
      </trkpt>
      <trkpt lat="42.70679" lon="1.41146">
        <ele>1413.688</ele>
        <time>2024-08-31T07:25:11Z</time>
      </trkpt>
      <trkpt lat="42.7068" lon="1.41144">
        <ele>1413.718</ele>
        <time>2024-08-31T07:25:13Z</time>
      </trkpt>
      <trkpt lat="42.7068" lon="1.41142">
        <ele>1414.119</ele>
        <time>2024-08-31T07:25:15Z</time>
      </trkpt>
      <trkpt lat="42.7068" lon="1.41141">
        <ele>1415.284</ele>
        <time>2024-08-31T07:25:17Z</time>
      </trkpt>
      <trkpt lat="42.7068" lon="1.4114">
        <ele>1416.551</ele>
        <time>2024-08-31T07:25:19Z</time>
      </trkpt>
      <trkpt lat="42.70681" lon="1.41139">
        <ele>1417.573</ele>
        <time>2024-08-31T07:25:21Z</time>
      </trkpt>
      <trkpt lat="42.70681" lon="1.41138">
        <ele>1417.177</ele>
        <time>2024-08-31T07:25:23Z</time>
      </trkpt>
      <trkpt lat="42.70681" lon="1.41136">
        <ele>1417.554</ele>
        <time>2024-08-31T07:25:25Z</time>
      </trkpt>
      <trkpt lat="42.70681" lon="1.41134">
        <ele>1418.881</ele>
        <time>2024-08-31T07:25:27Z</time>
      </trkpt>
      <trkpt lat="42.70681" lon="1.41132">
        <ele>1419.183</ele>
        <time>2024-08-31T07:25:29Z</time>
      </trkpt>
      <trkpt lat="42.70682" lon="1.41131">
        <ele>1420.693</ele>
        <time>2024-08-31T07:25:31Z</time>
      </trkpt>
      <trkpt lat="42.70682" lon="1.4113">
        <ele>1421.45</ele>
        <time>2024-08-31T07:25:33Z</time>
      </trkpt>
      <trkpt lat="42.70682" lon="1.41128">
        <ele>1422.216</ele>
        <time>2024-08-31T07:25:35Z</time>
      </trkpt>
      <trkpt lat="42.70682" lon="1.41127">
        <ele>1422.854</ele>
        <time>2024-08-31T07:25:37Z</time>
      </trkpt>
      <trkpt lat="42.70683" lon="1.41126">
        <ele>1423.192</ele>
        <time>2024-08-31T07:25:39Z</time>
      </trkpt>
      <trkpt lat="42.70683" lon="1.41124">
        <ele>1424.837</ele>
        <time>2024-08-31T07:25:41Z</time>
      </trkpt>
      <trkpt lat="42.70682" lon="1.41124">
        <ele>1425.225</ele>
        <time>2024-08-31T07:25:43Z</time>
      </trkpt>
      <trkpt lat="42.70682" lon="1.41123">
        <ele>1424.076</ele>
        <time>2024-08-31T07:25:45Z</time>
      </trkpt>
      <trkpt lat="42.70682" lon="1.41122">
        <ele>1424.22</ele>
        <time>2024-08-31T07:25:47Z</time>
      </trkpt>
      <trkpt lat="42.70682" lon="1.41121">
        <ele>1424.677</ele>
        <time>2024-08-31T07:25:49Z</time>
      </trkpt>
      <trkpt lat="42.70683" lon="1.4112">
        <ele>1426.338</ele>
        <time>2024-08-31T07:25:51Z</time>
      </trkpt>
      <trkpt lat="42.70682" lon="1.41118">
        <ele>1425.29</ele>
        <time>2024-08-31T07:25:53Z</time>
      </trkpt>
      <trkpt lat="42.70682" lon="1.41116">
        <ele>1423.976</ele>
        <time>2024-08-31T07:25:55Z</time>
      </trkpt>
      <trkpt lat="42.70682" lon="1.41114">
        <ele>1424.681</ele>
        <time>2024-08-31T07:25:57Z</time>
      </trkpt>
      <trkpt lat="42.70682" lon="1.41113">
        <ele>1424.288</ele>
        <time>2024-08-31T07:25:59Z</time>
      </trkpt>
      <trkpt lat="42.70682" lon="1.41112">
        <ele>1424.772</ele>
        <time>2024-08-31T07:26:01Z</time>
      </trkpt>
      <trkpt lat="42.70683" lon="1.41111">
        <ele>1426.441</ele>
        <time>2024-08-31T07:26:03Z</time>
      </trkpt>
      <trkpt lat="42.70683" lon="1.41109">
        <ele>1426.431</ele>
        <time>2024-08-31T07:26:05Z</time>
      </trkpt>
      <trkpt lat="42.70683" lon="1.41108">
        <ele>1427.156</ele>
        <time>2024-08-31T07:26:07Z</time>
      </trkpt>
      <trkpt lat="42.70683" lon="1.41106">
        <ele>1428.164</ele>
        <time>2024-08-31T07:26:09Z</time>
      </trkpt>
      <trkpt lat="42.70682" lon="1.41104">
        <ele>1428.869</ele>
        <time>2024-08-31T07:26:11Z</time>
      </trkpt>
      <trkpt lat="42.70683" lon="1.41103">
        <ele>1430.797</ele>
        <time>2024-08-31T07:26:13Z</time>
      </trkpt>
      <trkpt lat="42.70683" lon="1.41101">
        <ele>1429.522</ele>
        <time>2024-08-31T07:26:15Z</time>
      </trkpt>
      <trkpt lat="42.70683" lon="1.41099">
        <ele>1430.238</ele>
        <time>2024-08-31T07:26:17Z</time>
      </trkpt>
      <trkpt lat="42.70683" lon="1.41098">
        <ele>1432.023</ele>
        <time>2024-08-31T07:26:19Z</time>
      </trkpt>
      <trkpt lat="42.70683" lon="1.41097">
        <ele>1431.078</ele>
        <time>2024-08-31T07:26:21Z</time>
      </trkpt>
      <trkpt lat="42.70683" lon="1.41095">
        <ele>1431.977</ele>
        <time>2024-08-31T07:26:23Z</time>
      </trkpt>
      <trkpt lat="42.70683" lon="1.41092">
        <ele>1432.735</ele>
        <time>2024-08-31T07:26:25Z</time>
      </trkpt>
      <trkpt lat="42.70683" lon="1.41091">
        <ele>1432.746</ele>
        <time>2024-08-31T07:26:27Z</time>
      </trkpt>
      <trkpt lat="42.70682" lon="1.4109">
        <ele>1433.378</ele>
        <time>2024-08-31T07:26:29Z</time>
      </trkpt>
      <trkpt lat="42.70682" lon="1.41088">
        <ele>1434.92</ele>
        <time>2024-08-31T07:26:31Z</time>
      </trkpt>
      <trkpt lat="42.70682" lon="1.41087">
        <ele>1435.476</ele>
        <time>2024-08-31T07:26:33Z</time>
      </trkpt>
      <trkpt lat="42.70681" lon="1.41085">
        <ele>1433.996</ele>
        <time>2024-08-31T07:26:35Z</time>
      </trkpt>
      <trkpt lat="42.70681" lon="1.41084">
        <ele>1433.46</ele>
        <time>2024-08-31T07:26:37Z</time>
      </trkpt>
      <trkpt lat="42.70681" lon="1.41082">
        <ele>1432.234</ele>
        <time>2024-08-31T07:26:39Z</time>
      </trkpt>
      <trkpt lat="42.70681" lon="1.4108">
        <ele>1433.636</ele>
        <time>2024-08-31T07:26:41Z</time>
      </trkpt>
      <trkpt lat="42.70681" lon="1.41077">
        <ele>1434.699</ele>
        <time>2024-08-31T07:26:43Z</time>
      </trkpt>
      <trkpt lat="42.70682" lon="1.41075">
        <ele>1435.236</ele>
        <time>2024-08-31T07:26:45Z</time>
      </trkpt>
      <trkpt lat="42.70682" lon="1.41074">
        <ele>1436.51</ele>
        <time>2024-08-31T07:26:47Z</time>
      </trkpt>
      <trkpt lat="42.70682" lon="1.41073">
        <ele>1438.646</ele>
        <time>2024-08-31T07:26:49Z</time>
      </trkpt>
      <trkpt lat="42.70682" lon="1.41072">
        <ele>1439.864</ele>
        <time>2024-08-31T07:26:51Z</time>
      </trkpt>
      <trkpt lat="42.70681" lon="1.41072">
        <ele>1440.097</ele>
        <time>2024-08-31T07:26:53Z</time>
      </trkpt>
      <trkpt lat="42.70681" lon="1.41072">
        <ele>1442.853</ele>
        <time>2024-08-31T07:26:55Z</time>
      </trkpt>
      <trkpt lat="42.70681" lon="1.41071">
        <ele>1443.025</ele>
        <time>2024-08-31T07:26:57Z</time>
      </trkpt>
      <trkpt lat="42.70682" lon="1.4107">
        <ele>1443.993</ele>
        <time>2024-08-31T07:26:59Z</time>
      </trkpt>
      <trkpt lat="42.70682" lon="1.41069">
        <ele>1443.225</ele>
        <time>2024-08-31T07:27:01Z</time>
      </trkpt>
      <trkpt lat="42.70681" lon="1.41067">
        <ele>1443.427</ele>
        <time>2024-08-31T07:27:03Z</time>
      </trkpt>
      <trkpt lat="42.70681" lon="1.41067">
        <ele>1443.83</ele>
        <time>2024-08-31T07:27:05Z</time>
      </trkpt>
      <trkpt lat="42.7068" lon="1.41068">
        <ele>1444.328</ele>
        <time>2024-08-31T07:27:07Z</time>
      </trkpt>
      <trkpt lat="42.70679" lon="1.41066">
        <ele>1444.429</ele>
        <time>2024-08-31T07:27:09Z</time>
      </trkpt>
      <trkpt lat="42.70679" lon="1.41065">
        <ele>1444.062</ele>
        <time>2024-08-31T07:27:11Z</time>
      </trkpt>
      <trkpt lat="42.70678" lon="1.41062">
        <ele>1445.878</ele>
        <time>2024-08-31T07:27:13Z</time>
      </trkpt>
      <trkpt lat="42.70678" lon="1.4106">
        <ele>1444.877</ele>
        <time>2024-08-31T07:27:15Z</time>
      </trkpt>
      <trkpt lat="42.70677" lon="1.4106">
        <ele>1444.105</ele>
        <time>2024-08-31T07:27:17Z</time>
      </trkpt>
      <trkpt lat="42.70676" lon="1.41058">
        <ele>1444.522</ele>
        <time>2024-08-31T07:27:19Z</time>
      </trkpt>
      <trkpt lat="42.70676" lon="1.41056">
        <ele>1445.09</ele>
        <time>2024-08-31T07:27:21Z</time>
      </trkpt>
      <trkpt lat="42.70676" lon="1.41054">
        <ele>1444.184</ele>
        <time>2024-08-31T07:27:23Z</time>
      </trkpt>
      <trkpt lat="42.70675" lon="1.41053">
        <ele>1444.756</ele>
        <time>2024-08-31T07:27:25Z</time>
      </trkpt>
      <trkpt lat="42.70675" lon="1.41051">
        <ele>1444.829</ele>
        <time>2024-08-31T07:27:27Z</time>
      </trkpt>
      <trkpt lat="42.70676" lon="1.4105">
        <ele>1446.242</ele>
        <time>2024-08-31T07:27:29Z</time>
      </trkpt>
      <trkpt lat="42.70676" lon="1.41049">
        <ele>1445.517</ele>
        <time>2024-08-31T07:27:31Z</time>
      </trkpt>
      <trkpt lat="42.70676" lon="1.41049">
        <ele>1446.845</ele>
        <time>2024-08-31T07:27:33Z</time>
      </trkpt>
      <trkpt lat="42.70675" lon="1.41048">
        <ele>1446.519</ele>
        <time>2024-08-31T07:27:35Z</time>
      </trkpt>
      <trkpt lat="42.70675" lon="1.41047">
        <ele>1447.322</ele>
        <time>2024-08-31T07:27:37Z</time>
      </trkpt>
      <trkpt lat="42.70674" lon="1.41047">
        <ele>1448.042</ele>
        <time>2024-08-31T07:27:39Z</time>
      </trkpt>
      <trkpt lat="42.70674" lon="1.41046">
        <ele>1449.973</ele>
        <time>2024-08-31T07:27:41Z</time>
      </trkpt>
      <trkpt lat="42.70673" lon="1.41046">
        <ele>1450.137</ele>
        <time>2024-08-31T07:27:43Z</time>
      </trkpt>
      <trkpt lat="42.70673" lon="1.41044">
        <ele>1450.5</ele>
        <time>2024-08-31T07:27:45Z</time>
      </trkpt>
      <trkpt lat="42.70673" lon="1.41042">
        <ele>1449.394</ele>
        <time>2024-08-31T07:27:47Z</time>
      </trkpt>
      <trkpt lat="42.70673" lon="1.41041">
        <ele>1448.377</ele>
        <time>2024-08-31T07:27:49Z</time>
      </trkpt>
      <trkpt lat="42.70673" lon="1.4104">
        <ele>1448.196</ele>
        <time>2024-08-31T07:27:51Z</time>
      </trkpt>
      <trkpt lat="42.70673" lon="1.41039">
        <ele>1448.894</ele>
        <time>2024-08-31T07:27:53Z</time>
      </trkpt>
      <trkpt lat="42.70673" lon="1.41039">
        <ele>1448.396</ele>
        <time>2024-08-31T07:27:55Z</time>
      </trkpt>
      <trkpt lat="42.70673" lon="1.41038">
        <ele>1448.96</ele>
        <time>2024-08-31T07:27:57Z</time>
      </trkpt>
      <trkpt lat="42.70673" lon="1.41038">
        <ele>1448.663</ele>
        <time>2024-08-31T07:27:59Z</time>
      </trkpt>
      <trkpt lat="42.70672" lon="1.41037">
        <ele>1448.846</ele>
        <time>2024-08-31T07:28:01Z</time>
      </trkpt>
      <trkpt lat="42.70671" lon="1.41037">
        <ele>1450.08</ele>
        <time>2024-08-31T07:28:03Z</time>
      </trkpt>
      <trkpt lat="42.7067" lon="1.41036">
        <ele>1450.519</ele>
        <time>2024-08-31T07:28:05Z</time>
      </trkpt>
      <trkpt lat="42.7067" lon="1.41035">
        <ele>1450.201</ele>
        <time>2024-08-31T07:28:07Z</time>
      </trkpt>
      <trkpt lat="42.70669" lon="1.41034">
        <ele>1450.864</ele>
        <time>2024-08-31T07:28:09Z</time>
      </trkpt>
      <trkpt lat="42.70669" lon="1.41032">
        <ele>1449.1</ele>
        <time>2024-08-31T07:28:11Z</time>
      </trkpt>
      <trkpt lat="42.70669" lon="1.41032">
        <ele>1450.178</ele>
        <time>2024-08-31T07:28:13Z</time>
      </trkpt>
      <trkpt lat="42.70669" lon="1.41031">
        <ele>1450.02</ele>
        <time>2024-08-31T07:28:15Z</time>
      </trkpt>
      <trkpt lat="42.70668" lon="1.41031">
        <ele>1451.197</ele>
        <time>2024-08-31T07:28:17Z</time>
      </trkpt>
      <trkpt lat="42.70667" lon="1.41032">
        <ele>1452.287</ele>
        <time>2024-08-31T07:28:19Z</time>
      </trkpt>
      <trkpt lat="42.70667" lon="1.41033">
        <ele>1453.934</ele>
        <time>2024-08-31T07:28:21Z</time>
      </trkpt>
      <trkpt lat="42.70666" lon="1.41032">
        <ele>1453.375</ele>
        <time>2024-08-31T07:28:23Z</time>
      </trkpt>
      <trkpt lat="42.70665" lon="1.41032">
        <ele>1453.242</ele>
        <time>2024-08-31T07:28:25Z</time>
      </trkpt>
      <trkpt lat="42.70665" lon="1.41031">
        <ele>1453.202</ele>
        <time>2024-08-31T07:28:27Z</time>
      </trkpt>
      <trkpt lat="42.70664" lon="1.41031">
        <ele>1453.691</ele>
        <time>2024-08-31T07:28:29Z</time>
      </trkpt>
      <trkpt lat="42.70664" lon="1.41031">
        <ele>1453.518</ele>
        <time>2024-08-31T07:28:31Z</time>
      </trkpt>
      <trkpt lat="42.70664" lon="1.41032">
        <ele>1454.161</ele>
        <time>2024-08-31T07:28:33Z</time>
      </trkpt>
      <trkpt lat="42.70664" lon="1.41032">
        <ele>1453.945</ele>
        <time>2024-08-31T07:28:35Z</time>
      </trkpt>
      <trkpt lat="42.70664" lon="1.41032">
        <ele>1454.836</ele>
        <time>2024-08-31T07:28:37Z</time>
      </trkpt>
      <trkpt lat="42.70664" lon="1.41032">
        <ele>1455.001</ele>
        <time>2024-08-31T07:28:39Z</time>
      </trkpt>
      <trkpt lat="42.70664" lon="1.41032">
        <ele>1455.68</ele>
        <time>2024-08-31T07:28:41Z</time>
      </trkpt>
      <trkpt lat="42.70664" lon="1.41032">
        <ele>1457.539</ele>
        <time>2024-08-31T07:28:43Z</time>
      </trkpt>
      <trkpt lat="42.70664" lon="1.41032">
        <ele>1457.593</ele>
        <time>2024-08-31T07:28:45Z</time>
      </trkpt>
      <trkpt lat="42.70664" lon="1.41032">
        <ele>1459.545</ele>
        <time>2024-08-31T07:28:47Z</time>
      </trkpt>
      <trkpt lat="42.70664" lon="1.41032">
        <ele>1460.963</ele>
        <time>2024-08-31T07:28:49Z</time>
      </trkpt>
      <trkpt lat="42.70664" lon="1.41032">
        <ele>1462.407</ele>
        <time>2024-08-31T07:28:51Z</time>
      </trkpt>
      <trkpt lat="42.70664" lon="1.41032">
        <ele>1462.311</ele>
        <time>2024-08-31T07:28:53Z</time>
      </trkpt>
      <trkpt lat="42.70664" lon="1.41032">
        <ele>1463.659</ele>
        <time>2024-08-31T07:28:55Z</time>
      </trkpt>
      <trkpt lat="42.70664" lon="1.41032">
        <ele>1463.303</ele>
        <time>2024-08-31T07:28:57Z</time>
      </trkpt>
      <trkpt lat="42.70664" lon="1.41032">
        <ele>1465.387</ele>
        <time>2024-08-31T07:28:59Z</time>
      </trkpt>
      <trkpt lat="42.70664" lon="1.41032">
        <ele>1465.884</ele>
        <time>2024-08-31T07:29:01Z</time>
      </trkpt>
      <trkpt lat="42.70664" lon="1.41032">
        <ele>1466.244</ele>
        <time>2024-08-31T07:29:03Z</time>
      </trkpt>
      <trkpt lat="42.70664" lon="1.41032">
        <ele>1467.621</ele>
        <time>2024-08-31T07:29:05Z</time>
      </trkpt>
      <trkpt lat="42.70664" lon="1.41032">
        <ele>1468.908</ele>
        <time>2024-08-31T07:29:07Z</time>
      </trkpt>
      <trkpt lat="42.70664" lon="1.41032">
        <ele>1467.074</ele>
        <time>2024-08-31T07:29:09Z</time>
      </trkpt>
      <trkpt lat="42.70664" lon="1.41032">
        <ele>1467.168</ele>
        <time>2024-08-31T07:29:11Z</time>
      </trkpt>
      <trkpt lat="42.70664" lon="1.41032">
        <ele>1467.692</ele>
        <time>2024-08-31T07:29:13Z</time>
      </trkpt>
      <trkpt lat="42.70664" lon="1.41032">
        <ele>1465.922</ele>
        <time>2024-08-31T07:29:15Z</time>
      </trkpt>
      <trkpt lat="42.70664" lon="1.41032">
        <ele>1464.946</ele>
        <time>2024-08-31T07:29:17Z</time>
      </trkpt>
      <trkpt lat="42.70664" lon="1.41032">
        <ele>1464.468</ele>
        <time>2024-08-31T07:29:19Z</time>
      </trkpt>
      <trkpt lat="42.70664" lon="1.41032">
        <ele>1464.339</ele>
        <time>2024-08-31T07:29:21Z</time>
      </trkpt>
      <trkpt lat="42.70664" lon="1.41032">
        <ele>1463.402</ele>
        <time>2024-08-31T07:29:23Z</time>
      </trkpt>
      <trkpt lat="42.70664" lon="1.41032">
        <ele>1462.425</ele>
        <time>2024-08-31T07:29:25Z</time>
      </trkpt>
      <trkpt lat="42.70664" lon="1.41032">
        <ele>1462.98</ele>
        <time>2024-08-31T07:29:27Z</time>
      </trkpt>
      <trkpt lat="42.70664" lon="1.41032">
        <ele>1462.552</ele>
        <time>2024-08-31T07:29:29Z</time>
      </trkpt>
      <trkpt lat="42.70664" lon="1.41032">
        <ele>1463.436</ele>
        <time>2024-08-31T07:29:31Z</time>
      </trkpt>
      <trkpt lat="42.70654" lon="1.41035">
        <ele>1463.596</ele>
        <time>2024-08-31T07:29:33Z</time>
      </trkpt>
      <trkpt lat="42.70653" lon="1.41034">
        <ele>1464.754</ele>
        <time>2024-08-31T07:29:35Z</time>
      </trkpt>
      <trkpt lat="42.70653" lon="1.41032">
        <ele>1463.954</ele>
        <time>2024-08-31T07:29:37Z</time>
      </trkpt>
      <trkpt lat="42.70653" lon="1.4103">
        <ele>1463.321</ele>
        <time>2024-08-31T07:29:39Z</time>
      </trkpt>
      <trkpt lat="42.70653" lon="1.41029">
        <ele>1463.398</ele>
        <time>2024-08-31T07:29:41Z</time>
      </trkpt>
      <trkpt lat="42.70652" lon="1.41027">
        <ele>1463.507</ele>
        <time>2024-08-31T07:29:43Z</time>
      </trkpt>
      <trkpt lat="42.70651" lon="1.41026">
        <ele>1464.331</ele>
        <time>2024-08-31T07:29:45Z</time>
      </trkpt>
      <trkpt lat="42.70651" lon="1.41024">
        <ele>1463.407</ele>
        <time>2024-08-31T07:29:47Z</time>
      </trkpt>
      <trkpt lat="42.70651" lon="1.41023">
        <ele>1463.993</ele>
        <time>2024-08-31T07:29:49Z</time>
      </trkpt>
      <trkpt lat="42.70651" lon="1.41022">
        <ele>1464.77</ele>
        <time>2024-08-31T07:29:51Z</time>
      </trkpt>
      <trkpt lat="42.7065" lon="1.41021">
        <ele>1464.376</ele>
        <time>2024-08-31T07:29:53Z</time>
      </trkpt>
      <trkpt lat="42.7065" lon="1.4102">
        <ele>1464.532</ele>
        <time>2024-08-31T07:29:55Z</time>
      </trkpt>
      <trkpt lat="42.70649" lon="1.41018">
        <ele>1464.695</ele>
        <time>2024-08-31T07:29:57Z</time>
      </trkpt>
      <trkpt lat="42.70649" lon="1.41016">
        <ele>1465.139</ele>
        <time>2024-08-31T07:29:59Z</time>
      </trkpt>
      <trkpt lat="42.70649" lon="1.41015">
        <ele>1464.924</ele>
        <time>2024-08-31T07:30:01Z</time>
      </trkpt>
      <trkpt lat="42.70648" lon="1.41013">
        <ele>1464.947</ele>
        <time>2024-08-31T07:30:03Z</time>
      </trkpt>
      <trkpt lat="42.70648" lon="1.41012">
        <ele>1464.341</ele>
        <time>2024-08-31T07:30:05Z</time>
      </trkpt>
      <trkpt lat="42.70647" lon="1.4101">
        <ele>1465.702</ele>
        <time>2024-08-31T07:30:07Z</time>
      </trkpt>
      <trkpt lat="42.70647" lon="1.41008">
        <ele>1465.246</ele>
        <time>2024-08-31T07:30:09Z</time>
      </trkpt>
      <trkpt lat="42.70646" lon="1.41007">
        <ele>1464.279</ele>
        <time>2024-08-31T07:30:11Z</time>
      </trkpt>
      <trkpt lat="42.70646" lon="1.41007">
        <ele>1465.178</ele>
        <time>2024-08-31T07:30:13Z</time>
      </trkpt>
      <trkpt lat="42.70647" lon="1.41006">
        <ele>1466.085</ele>
        <time>2024-08-31T07:30:15Z</time>
      </trkpt>
      <trkpt lat="42.70646" lon="1.41004">
        <ele>1466.922</ele>
        <time>2024-08-31T07:30:17Z</time>
      </trkpt>
      <trkpt lat="42.70646" lon="1.41002">
        <ele>1466.477</ele>
        <time>2024-08-31T07:30:19Z</time>
      </trkpt>
      <trkpt lat="42.70645" lon="1.41">
        <ele>1465.654</ele>
        <time>2024-08-31T07:30:21Z</time>
      </trkpt>
      <trkpt lat="42.70645" lon="1.40998">
        <ele>1464.464</ele>
        <time>2024-08-31T07:30:23Z</time>
      </trkpt>
      <trkpt lat="42.70645" lon="1.40996">
        <ele>1463.778</ele>
        <time>2024-08-31T07:30:25Z</time>
      </trkpt>
      <trkpt lat="42.70644" lon="1.40995">
        <ele>1463.436</ele>
        <time>2024-08-31T07:30:27Z</time>
      </trkpt>
      <trkpt lat="42.70644" lon="1.40993">
        <ele>1464.382</ele>
        <time>2024-08-31T07:30:29Z</time>
      </trkpt>
      <trkpt lat="42.70643" lon="1.40991">
        <ele>1464.823</ele>
        <time>2024-08-31T07:30:31Z</time>
      </trkpt>
      <trkpt lat="42.70643" lon="1.40989">
        <ele>1464.804</ele>
        <time>2024-08-31T07:30:33Z</time>
      </trkpt>
      <trkpt lat="42.70642" lon="1.40988">
        <ele>1465.623</ele>
        <time>2024-08-31T07:30:35Z</time>
      </trkpt>
      <trkpt lat="42.70643" lon="1.40987">
        <ele>1465.655</ele>
        <time>2024-08-31T07:30:37Z</time>
      </trkpt>
      <trkpt lat="42.70643" lon="1.40985">
        <ele>1465.385</ele>
        <time>2024-08-31T07:30:39Z</time>
      </trkpt>
      <trkpt lat="42.70643" lon="1.40982">
        <ele>1464.398</ele>
        <time>2024-08-31T07:30:41Z</time>
      </trkpt>
      <trkpt lat="42.70643" lon="1.40981">
        <ele>1464.385</ele>
        <time>2024-08-31T07:30:43Z</time>
      </trkpt>
      <trkpt lat="42.70643" lon="1.40979">
        <ele>1463.961</ele>
        <time>2024-08-31T07:30:45Z</time>
      </trkpt>
      <trkpt lat="42.70643" lon="1.40977">
        <ele>1463.812</ele>
        <time>2024-08-31T07:30:47Z</time>
      </trkpt>
      <trkpt lat="42.70642" lon="1.40975">
        <ele>1464.565</ele>
        <time>2024-08-31T07:30:49Z</time>
      </trkpt>
      <trkpt lat="42.70641" lon="1.40974">
        <ele>1465.423</ele>
        <time>2024-08-31T07:30:51Z</time>
      </trkpt>
      <trkpt lat="42.70642" lon="1.40972">
        <ele>1466.836</ele>
        <time>2024-08-31T07:30:53Z</time>
      </trkpt>
      <trkpt lat="42.70641" lon="1.4097">
        <ele>1466.757</ele>
        <time>2024-08-31T07:30:55Z</time>
      </trkpt>
      <trkpt lat="42.70641" lon="1.4097">
        <ele>1468.374</ele>
        <time>2024-08-31T07:30:57Z</time>
      </trkpt>
      <trkpt lat="42.70641" lon="1.4097">
        <ele>1470.16</ele>
        <time>2024-08-31T07:30:59Z</time>
      </trkpt>
      <trkpt lat="42.70641" lon="1.40969">
        <ele>1470.553</ele>
        <time>2024-08-31T07:31:01Z</time>
      </trkpt>
      <trkpt lat="42.70642" lon="1.40967">
        <ele>1470.407</ele>
        <time>2024-08-31T07:31:03Z</time>
      </trkpt>
      <trkpt lat="42.70641" lon="1.40966">
        <ele>1471.125</ele>
        <time>2024-08-31T07:31:05Z</time>
      </trkpt>
      <trkpt lat="42.7064" lon="1.40964">
        <ele>1470.458</ele>
        <time>2024-08-31T07:31:07Z</time>
      </trkpt>
      <trkpt lat="42.7064" lon="1.40963">
        <ele>1470.933</ele>
        <time>2024-08-31T07:31:09Z</time>
      </trkpt>
      <trkpt lat="42.70639" lon="1.40962">
        <ele>1472.062</ele>
        <time>2024-08-31T07:31:11Z</time>
      </trkpt>
      <trkpt lat="42.70639" lon="1.4096">
        <ele>1472.002</ele>
        <time>2024-08-31T07:31:13Z</time>
      </trkpt>
      <trkpt lat="42.70639" lon="1.40959">
        <ele>1471.715</ele>
        <time>2024-08-31T07:31:15Z</time>
      </trkpt>
      <trkpt lat="42.70639" lon="1.40957">
        <ele>1471.543</ele>
        <time>2024-08-31T07:31:17Z</time>
      </trkpt>
      <trkpt lat="42.70638" lon="1.40956">
        <ele>1471.459</ele>
        <time>2024-08-31T07:31:19Z</time>
      </trkpt>
      <trkpt lat="42.70639" lon="1.40953">
        <ele>1470.89</ele>
        <time>2024-08-31T07:31:21Z</time>
      </trkpt>
      <trkpt lat="42.70639" lon="1.40951">
        <ele>1470.121</ele>
        <time>2024-08-31T07:31:23Z</time>
      </trkpt>
      <trkpt lat="42.70638" lon="1.40949">
        <ele>1468.655</ele>
        <time>2024-08-31T07:31:25Z</time>
      </trkpt>
      <trkpt lat="42.70638" lon="1.40947">
        <ele>1468.802</ele>
        <time>2024-08-31T07:31:27Z</time>
      </trkpt>
      <trkpt lat="42.70638" lon="1.40945">
        <ele>1468.427</ele>
        <time>2024-08-31T07:31:29Z</time>
      </trkpt>
      <trkpt lat="42.70637" lon="1.40944">
        <ele>1467.852</ele>
        <time>2024-08-31T07:31:31Z</time>
      </trkpt>
      <trkpt lat="42.70637" lon="1.40942">
        <ele>1468.235</ele>
        <time>2024-08-31T07:31:33Z</time>
      </trkpt>
      <trkpt lat="42.70636" lon="1.4094">
        <ele>1466.775</ele>
        <time>2024-08-31T07:31:35Z</time>
      </trkpt>
      <trkpt lat="42.70637" lon="1.40938">
        <ele>1467.77</ele>
        <time>2024-08-31T07:31:37Z</time>
      </trkpt>
      <trkpt lat="42.70638" lon="1.40936">
        <ele>1467.794</ele>
        <time>2024-08-31T07:31:39Z</time>
      </trkpt>
      <trkpt lat="42.70638" lon="1.40934">
        <ele>1468.977</ele>
        <time>2024-08-31T07:31:41Z</time>
      </trkpt>
      <trkpt lat="42.70638" lon="1.40932">
        <ele>1468.769</ele>
        <time>2024-08-31T07:31:43Z</time>
      </trkpt>
      <trkpt lat="42.70639" lon="1.4093">
        <ele>1468.925</ele>
        <time>2024-08-31T07:31:45Z</time>
      </trkpt>
      <trkpt lat="42.7064" lon="1.40929">
        <ele>1469.396</ele>
        <time>2024-08-31T07:31:47Z</time>
      </trkpt>
      <trkpt lat="42.7064" lon="1.40928">
        <ele>1470.719</ele>
        <time>2024-08-31T07:31:49Z</time>
      </trkpt>
      <trkpt lat="42.70641" lon="1.40927">
        <ele>1470.129</ele>
        <time>2024-08-31T07:31:51Z</time>
      </trkpt>
      <trkpt lat="42.70641" lon="1.40925">
        <ele>1470.748</ele>
        <time>2024-08-31T07:31:53Z</time>
      </trkpt>
      <trkpt lat="42.70641" lon="1.40924">
        <ele>1470.545</ele>
        <time>2024-08-31T07:31:55Z</time>
      </trkpt>
      <trkpt lat="42.70641" lon="1.40922">
        <ele>1472.035</ele>
        <time>2024-08-31T07:31:57Z</time>
      </trkpt>
      <trkpt lat="42.70641" lon="1.4092">
        <ele>1471.738</ele>
        <time>2024-08-31T07:31:59Z</time>
      </trkpt>
      <trkpt lat="42.70641" lon="1.40918">
        <ele>1470.828</ele>
        <time>2024-08-31T07:32:01Z</time>
      </trkpt>
      <trkpt lat="42.70641" lon="1.40917">
        <ele>1470.874</ele>
        <time>2024-08-31T07:32:03Z</time>
      </trkpt>
      <trkpt lat="42.70641" lon="1.40915">
        <ele>1470.72</ele>
        <time>2024-08-31T07:32:05Z</time>
      </trkpt>
      <trkpt lat="42.70641" lon="1.40914">
        <ele>1473.048</ele>
        <time>2024-08-31T07:32:07Z</time>
      </trkpt>
      <trkpt lat="42.70641" lon="1.40913">
        <ele>1472.538</ele>
        <time>2024-08-31T07:32:09Z</time>
      </trkpt>
      <trkpt lat="42.70641" lon="1.40912">
        <ele>1472.989</ele>
        <time>2024-08-31T07:32:11Z</time>
      </trkpt>
      <trkpt lat="42.70641" lon="1.4091">
        <ele>1473.33</ele>
        <time>2024-08-31T07:32:13Z</time>
      </trkpt>
      <trkpt lat="42.70642" lon="1.40908">
        <ele>1473.062</ele>
        <time>2024-08-31T07:32:15Z</time>
      </trkpt>
      <trkpt lat="42.70641" lon="1.40906">
        <ele>1471.764</ele>
        <time>2024-08-31T07:32:17Z</time>
      </trkpt>
      <trkpt lat="42.70641" lon="1.40905">
        <ele>1471.892</ele>
        <time>2024-08-31T07:32:19Z</time>
      </trkpt>
      <trkpt lat="42.70641" lon="1.40904">
        <ele>1471.37</ele>
        <time>2024-08-31T07:32:21Z</time>
      </trkpt>
      <trkpt lat="42.70641" lon="1.40902">
        <ele>1470.725</ele>
        <time>2024-08-31T07:32:23Z</time>
      </trkpt>
      <trkpt lat="42.70641" lon="1.40899">
        <ele>1470.646</ele>
        <time>2024-08-31T07:32:25Z</time>
      </trkpt>
      <trkpt lat="42.70641" lon="1.40898">
        <ele>1472.382</ele>
        <time>2024-08-31T07:32:27Z</time>
      </trkpt>
      <trkpt lat="42.7064" lon="1.40897">
        <ele>1472.836</ele>
        <time>2024-08-31T07:32:29Z</time>
      </trkpt>
      <trkpt lat="42.7064" lon="1.40896">
        <ele>1472.061</ele>
        <time>2024-08-31T07:32:30Z</time>
      </trkpt>
      <trkpt lat="42.7064" lon="1.40894">
        <ele>1472.679</ele>
        <time>2024-08-31T07:32:33Z</time>
      </trkpt>
      <trkpt lat="42.70639" lon="1.40893">
        <ele>1472.664</ele>
        <time>2024-08-31T07:32:35Z</time>
      </trkpt>
      <trkpt lat="42.70639" lon="1.40892">
        <ele>1473.169</ele>
        <time>2024-08-31T07:32:37Z</time>
      </trkpt>
      <trkpt lat="42.70639" lon="1.4089">
        <ele>1472.793</ele>
        <time>2024-08-31T07:32:39Z</time>
      </trkpt>
      <trkpt lat="42.7064" lon="1.40888">
        <ele>1473.871</ele>
        <time>2024-08-31T07:32:41Z</time>
      </trkpt>
      <trkpt lat="42.7064" lon="1.40887">
        <ele>1474.453</ele>
        <time>2024-08-31T07:32:43Z</time>
      </trkpt>
      <trkpt lat="42.70641" lon="1.40885">
        <ele>1475.214</ele>
        <time>2024-08-31T07:32:45Z</time>
      </trkpt>
      <trkpt lat="42.7064" lon="1.40883">
        <ele>1475.888</ele>
        <time>2024-08-31T07:32:47Z</time>
      </trkpt>
      <trkpt lat="42.7064" lon="1.40881">
        <ele>1475.447</ele>
        <time>2024-08-31T07:32:49Z</time>
      </trkpt>
      <trkpt lat="42.7064" lon="1.40879">
        <ele>1474.926</ele>
        <time>2024-08-31T07:32:51Z</time>
      </trkpt>
      <trkpt lat="42.7064" lon="1.40877">
        <ele>1475.825</ele>
        <time>2024-08-31T07:32:53Z</time>
      </trkpt>
      <trkpt lat="42.7064" lon="1.40875">
        <ele>1477.045</ele>
        <time>2024-08-31T07:32:55Z</time>
      </trkpt>
      <trkpt lat="42.7064" lon="1.40874">
        <ele>1478.806</ele>
        <time>2024-08-31T07:32:57Z</time>
      </trkpt>
      <trkpt lat="42.70639" lon="1.40872">
        <ele>1478.542</ele>
        <time>2024-08-31T07:32:59Z</time>
      </trkpt>
      <trkpt lat="42.70639" lon="1.40871">
        <ele>1478.554</ele>
        <time>2024-08-31T07:33:01Z</time>
      </trkpt>
      <trkpt lat="42.70639" lon="1.40869">
        <ele>1478.654</ele>
        <time>2024-08-31T07:33:03Z</time>
      </trkpt>
      <trkpt lat="42.70638" lon="1.40868">
        <ele>1479.372</ele>
        <time>2024-08-31T07:33:05Z</time>
      </trkpt>
      <trkpt lat="42.70638" lon="1.40867">
        <ele>1479.106</ele>
        <time>2024-08-31T07:33:07Z</time>
      </trkpt>
      <trkpt lat="42.70638" lon="1.40866">
        <ele>1479.349</ele>
        <time>2024-08-31T07:33:09Z</time>
      </trkpt>
      <trkpt lat="42.70638" lon="1.40863">
        <ele>1479.395</ele>
        <time>2024-08-31T07:33:11Z</time>
      </trkpt>
      <trkpt lat="42.70637" lon="1.40862">
        <ele>1479.549</ele>
        <time>2024-08-31T07:33:13Z</time>
      </trkpt>
      <trkpt lat="42.70638" lon="1.4086">
        <ele>1479.945</ele>
        <time>2024-08-31T07:33:15Z</time>
      </trkpt>
      <trkpt lat="42.70637" lon="1.40858">
        <ele>1481.147</ele>
        <time>2024-08-31T07:33:17Z</time>
      </trkpt>
      <trkpt lat="42.70637" lon="1.40858">
        <ele>1481.516</ele>
        <time>2024-08-31T07:33:19Z</time>
      </trkpt>
      <trkpt lat="42.70637" lon="1.40857">
        <ele>1483.091</ele>
        <time>2024-08-31T07:33:21Z</time>
      </trkpt>
      <trkpt lat="42.70636" lon="1.40856">
        <ele>1482.943</ele>
        <time>2024-08-31T07:33:23Z</time>
      </trkpt>
      <trkpt lat="42.70637" lon="1.40856">
        <ele>1482.47</ele>
        <time>2024-08-31T07:33:25Z</time>
      </trkpt>
      <trkpt lat="42.70637" lon="1.40854">
        <ele>1481.942</ele>
        <time>2024-08-31T07:33:27Z</time>
      </trkpt>
      <trkpt lat="42.70637" lon="1.40852">
        <ele>1480.772</ele>
        <time>2024-08-31T07:33:29Z</time>
      </trkpt>
      <trkpt lat="42.70637" lon="1.4085">
        <ele>1480.654</ele>
        <time>2024-08-31T07:33:31Z</time>
      </trkpt>
      <trkpt lat="42.70636" lon="1.40848">
        <ele>1481.345</ele>
        <time>2024-08-31T07:33:33Z</time>
      </trkpt>
      <trkpt lat="42.70636" lon="1.40848">
        <ele>1481.788</ele>
        <time>2024-08-31T07:33:35Z</time>
      </trkpt>
      <trkpt lat="42.70636" lon="1.40846">
        <ele>1482.436</ele>
        <time>2024-08-31T07:33:37Z</time>
      </trkpt>
      <trkpt lat="42.70636" lon="1.40845">
        <ele>1481.8</ele>
        <time>2024-08-31T07:33:39Z</time>
      </trkpt>
      <trkpt lat="42.70635" lon="1.40843">
        <ele>1481.388</ele>
        <time>2024-08-31T07:33:41Z</time>
      </trkpt>
      <trkpt lat="42.70634" lon="1.40843">
        <ele>1481.759</ele>
        <time>2024-08-31T07:33:43Z</time>
      </trkpt>
      <trkpt lat="42.70634" lon="1.4084">
        <ele>1481.208</ele>
        <time>2024-08-31T07:33:45Z</time>
      </trkpt>
      <trkpt lat="42.70633" lon="1.40839">
        <ele>1481.468</ele>
        <time>2024-08-31T07:33:47Z</time>
      </trkpt>
      <trkpt lat="42.70632" lon="1.40838">
        <ele>1481.607</ele>
        <time>2024-08-31T07:33:49Z</time>
      </trkpt>
      <trkpt lat="42.70631" lon="1.40836">
        <ele>1481.518</ele>
        <time>2024-08-31T07:33:51Z</time>
      </trkpt>
      <trkpt lat="42.70631" lon="1.40836">
        <ele>1481.32</ele>
        <time>2024-08-31T07:33:53Z</time>
      </trkpt>
      <trkpt lat="42.70631" lon="1.40836">
        <ele>1481.391</ele>
        <time>2024-08-31T07:33:55Z</time>
      </trkpt>
      <trkpt lat="42.70631" lon="1.40836">
        <ele>1482.007</ele>
        <time>2024-08-31T07:33:57Z</time>
      </trkpt>
      <trkpt lat="42.70631" lon="1.40836">
        <ele>1481.81</ele>
        <time>2024-08-31T07:33:59Z</time>
      </trkpt>
      <trkpt lat="42.70631" lon="1.40836">
        <ele>1482.999</ele>
        <time>2024-08-31T07:34:01Z</time>
      </trkpt>
      <trkpt lat="42.70631" lon="1.40836">
        <ele>1483.428</ele>
        <time>2024-08-31T07:34:03Z</time>
      </trkpt>
      <trkpt lat="42.70631" lon="1.40836">
        <ele>1483.705</ele>
        <time>2024-08-31T07:34:05Z</time>
      </trkpt>
      <trkpt lat="42.70631" lon="1.40836">
        <ele>1483.445</ele>
        <time>2024-08-31T07:34:07Z</time>
      </trkpt>
      <trkpt lat="42.70631" lon="1.40836">
        <ele>1484.405</ele>
        <time>2024-08-31T07:34:09Z</time>
      </trkpt>
      <trkpt lat="42.70631" lon="1.40836">
        <ele>1484.793</ele>
        <time>2024-08-31T07:34:11Z</time>
      </trkpt>
      <trkpt lat="42.70631" lon="1.40836">
        <ele>1483.919</ele>
        <time>2024-08-31T07:34:13Z</time>
      </trkpt>
      <trkpt lat="42.70631" lon="1.40836">
        <ele>1483.214</ele>
        <time>2024-08-31T07:34:15Z</time>
      </trkpt>
      <trkpt lat="42.70631" lon="1.40836">
        <ele>1483.215</ele>
        <time>2024-08-31T07:34:17Z</time>
      </trkpt>
      <trkpt lat="42.70631" lon="1.40836">
        <ele>1483.217</ele>
        <time>2024-08-31T07:34:19Z</time>
      </trkpt>
      <trkpt lat="42.70631" lon="1.40836">
        <ele>1483.22</ele>
        <time>2024-08-31T07:34:21Z</time>
      </trkpt>
      <trkpt lat="42.70631" lon="1.40836">
        <ele>1483.224</ele>
        <time>2024-08-31T07:34:23Z</time>
      </trkpt>
      <trkpt lat="42.70631" lon="1.40836">
        <ele>1483.231</ele>
        <time>2024-08-31T07:34:25Z</time>
      </trkpt>
      <trkpt lat="42.70631" lon="1.40836">
        <ele>1483.328</ele>
        <time>2024-08-31T07:34:27Z</time>
      </trkpt>
      <trkpt lat="42.70633" lon="1.4082">
        <ele>1484.407</ele>
        <time>2024-08-31T07:34:29Z</time>
      </trkpt>
      <trkpt lat="42.70633" lon="1.4082">
        <ele>1484.258</ele>
        <time>2024-08-31T07:34:31Z</time>
      </trkpt>
      <trkpt lat="42.70633" lon="1.40819">
        <ele>1484.43</ele>
        <time>2024-08-31T07:34:33Z</time>
      </trkpt>
      <trkpt lat="42.70632" lon="1.40818">
        <ele>1484.855</ele>
        <time>2024-08-31T07:34:35Z</time>
      </trkpt>
      <trkpt lat="42.70632" lon="1.40817">
        <ele>1486.084</ele>
        <time>2024-08-31T07:34:37Z</time>
      </trkpt>
      <trkpt lat="42.70632" lon="1.40816">
        <ele>1487.465</ele>
        <time>2024-08-31T07:34:39Z</time>
      </trkpt>
      <trkpt lat="42.70631" lon="1.40816">
        <ele>1488.384</ele>
        <time>2024-08-31T07:34:41Z</time>
      </trkpt>
      <trkpt lat="42.70631" lon="1.40815">
        <ele>1489.773</ele>
        <time>2024-08-31T07:34:43Z</time>
      </trkpt>
      <trkpt lat="42.7063" lon="1.40815">
        <ele>1490.412</ele>
        <time>2024-08-31T07:34:45Z</time>
      </trkpt>
      <trkpt lat="42.7063" lon="1.40815">
        <ele>1491.333</ele>
        <time>2024-08-31T07:34:47Z</time>
      </trkpt>
      <trkpt lat="42.7063" lon="1.40815">
        <ele>1491.872</ele>
        <time>2024-08-31T07:34:49Z</time>
      </trkpt>
      <trkpt lat="42.7063" lon="1.40815">
        <ele>1491.769</ele>
        <time>2024-08-31T07:34:51Z</time>
      </trkpt>
      <trkpt lat="42.7063" lon="1.40815">
        <ele>1491.77</ele>
        <time>2024-08-31T07:34:53Z</time>
      </trkpt>
      <trkpt lat="42.7063" lon="1.40815">
        <ele>1491.771</ele>
        <time>2024-08-31T07:34:55Z</time>
      </trkpt>
      <trkpt lat="42.7063" lon="1.40815">
        <ele>1491.593</ele>
        <time>2024-08-31T07:34:57Z</time>
      </trkpt>
      <trkpt lat="42.7063" lon="1.40815">
        <ele>1492.303</ele>
        <time>2024-08-31T07:34:59Z</time>
      </trkpt>
      <trkpt lat="42.7063" lon="1.40815">
        <ele>1492.698</ele>
        <time>2024-08-31T07:35:01Z</time>
      </trkpt>
      <trkpt lat="42.7063" lon="1.40815">
        <ele>1493.074</ele>
        <time>2024-08-31T07:35:03Z</time>
      </trkpt>
      <trkpt lat="42.7063" lon="1.40815">
        <ele>1494.084</ele>
        <time>2024-08-31T07:35:05Z</time>
      </trkpt>
      <trkpt lat="42.7063" lon="1.40815">
        <ele>1494.24</ele>
        <time>2024-08-31T07:35:07Z</time>
      </trkpt>
      <trkpt lat="42.7063" lon="1.40815">
        <ele>1496.321</ele>
        <time>2024-08-31T07:35:09Z</time>
      </trkpt>
      <trkpt lat="42.7063" lon="1.40815">
        <ele>1496.393</ele>
        <time>2024-08-31T07:35:11Z</time>
      </trkpt>
      <trkpt lat="42.7063" lon="1.40815">
        <ele>1495.659</ele>
        <time>2024-08-31T07:35:13Z</time>
      </trkpt>
      <trkpt lat="42.7063" lon="1.40815">
        <ele>1496.856</ele>
        <time>2024-08-31T07:35:15Z</time>
      </trkpt>
      <trkpt lat="42.7063" lon="1.40815">
        <ele>1496.936</ele>
        <time>2024-08-31T07:35:17Z</time>
      </trkpt>
      <trkpt lat="42.7063" lon="1.40815">
        <ele>1496.771</ele>
        <time>2024-08-31T07:35:19Z</time>
      </trkpt>
      <trkpt lat="42.7063" lon="1.40815">
        <ele>1497.015</ele>
        <time>2024-08-31T07:35:21Z</time>
      </trkpt>
      <trkpt lat="42.7063" lon="1.40815">
        <ele>1497.228</ele>
        <time>2024-08-31T07:35:23Z</time>
      </trkpt>
      <trkpt lat="42.7063" lon="1.40815">
        <ele>1498.129</ele>
        <time>2024-08-31T07:35:25Z</time>
      </trkpt>
      <trkpt lat="42.7063" lon="1.40815">
        <ele>1498.411</ele>
        <time>2024-08-31T07:35:27Z</time>
      </trkpt>
      <trkpt lat="42.7063" lon="1.40815">
        <ele>1496.976</ele>
        <time>2024-08-31T07:35:29Z</time>
      </trkpt>
      <trkpt lat="42.7063" lon="1.40815">
        <ele>1498.894</ele>
        <time>2024-08-31T07:35:31Z</time>
      </trkpt>
      <trkpt lat="42.7063" lon="1.40815">
        <ele>1499.561</ele>
        <time>2024-08-31T07:35:33Z</time>
      </trkpt>
      <trkpt lat="42.7063" lon="1.40815">
        <ele>1499.605</ele>
        <time>2024-08-31T07:35:35Z</time>
      </trkpt>
      <trkpt lat="42.7063" lon="1.40815">
        <ele>1498.735</ele>
        <time>2024-08-31T07:35:37Z</time>
      </trkpt>
      <trkpt lat="42.7063" lon="1.40815">
        <ele>1497.401</ele>
        <time>2024-08-31T07:35:39Z</time>
      </trkpt>
      <trkpt lat="42.70618" lon="1.40809">
        <ele>1497.374</ele>
        <time>2024-08-31T07:35:41Z</time>
      </trkpt>
      <trkpt lat="42.70618" lon="1.40808">
        <ele>1498.424</ele>
        <time>2024-08-31T07:35:43Z</time>
      </trkpt>
      <trkpt lat="42.70617" lon="1.40806">
        <ele>1499.048</ele>
        <time>2024-08-31T07:35:45Z</time>
      </trkpt>
      <trkpt lat="42.70617" lon="1.40805">
        <ele>1500.206</ele>
        <time>2024-08-31T07:35:47Z</time>
      </trkpt>
      <trkpt lat="42.70616" lon="1.40803">
        <ele>1500.833</ele>
        <time>2024-08-31T07:35:49Z</time>
      </trkpt>
      <trkpt lat="42.70616" lon="1.40802">
        <ele>1501.585</ele>
        <time>2024-08-31T07:35:51Z</time>
      </trkpt>
      <trkpt lat="42.70616" lon="1.408">
        <ele>1502.014</ele>
        <time>2024-08-31T07:35:53Z</time>
      </trkpt>
      <trkpt lat="42.70616" lon="1.40799">
        <ele>1501.854</ele>
        <time>2024-08-31T07:35:55Z</time>
      </trkpt>
      <trkpt lat="42.70616" lon="1.40798">
        <ele>1503.173</ele>
        <time>2024-08-31T07:35:57Z</time>
      </trkpt>
      <trkpt lat="42.70616" lon="1.40797">
        <ele>1504.102</ele>
        <time>2024-08-31T07:35:59Z</time>
      </trkpt>
      <trkpt lat="42.70615" lon="1.40796">
        <ele>1504.357</ele>
        <time>2024-08-31T07:36:01Z</time>
      </trkpt>
      <trkpt lat="42.70615" lon="1.40795">
        <ele>1503.586</ele>
        <time>2024-08-31T07:36:03Z</time>
      </trkpt>
      <trkpt lat="42.70614" lon="1.40795">
        <ele>1505.211</ele>
        <time>2024-08-31T07:36:05Z</time>
      </trkpt>
      <trkpt lat="42.70612" lon="1.40796">
        <ele>1505.579</ele>
        <time>2024-08-31T07:36:07Z</time>
      </trkpt>
      <trkpt lat="42.70612" lon="1.40797">
        <ele>1506.3</ele>
        <time>2024-08-31T07:36:09Z</time>
      </trkpt>
      <trkpt lat="42.70612" lon="1.40797">
        <ele>1507.502</ele>
        <time>2024-08-31T07:36:11Z</time>
      </trkpt>
      <trkpt lat="42.70611" lon="1.40797">
        <ele>1507.089</ele>
        <time>2024-08-31T07:36:13Z</time>
      </trkpt>
      <trkpt lat="42.7061" lon="1.40797">
        <ele>1506.978</ele>
        <time>2024-08-31T07:36:15Z</time>
      </trkpt>
      <trkpt lat="42.70609" lon="1.40798">
        <ele>1507.1</ele>
        <time>2024-08-31T07:36:17Z</time>
      </trkpt>
      <trkpt lat="42.70608" lon="1.40798">
        <ele>1507.783</ele>
        <time>2024-08-31T07:36:19Z</time>
      </trkpt>
      <trkpt lat="42.70607" lon="1.40799">
        <ele>1508.276</ele>
        <time>2024-08-31T07:36:21Z</time>
      </trkpt>
      <trkpt lat="42.70606" lon="1.40799">
        <ele>1508.219</ele>
        <time>2024-08-31T07:36:23Z</time>
      </trkpt>
      <trkpt lat="42.70605" lon="1.408">
        <ele>1511.786</ele>
        <time>2024-08-31T07:36:25Z</time>
      </trkpt>
      <trkpt lat="42.70605" lon="1.40801">
        <ele>1512.494</ele>
        <time>2024-08-31T07:36:27Z</time>
      </trkpt>
      <trkpt lat="42.70604" lon="1.408">
        <ele>1514.136</ele>
        <time>2024-08-31T07:36:29Z</time>
      </trkpt>
      <trkpt lat="42.70603" lon="1.408">
        <ele>1513.536</ele>
        <time>2024-08-31T07:36:31Z</time>
      </trkpt>
      <trkpt lat="42.70602" lon="1.408">
        <ele>1514.498</ele>
        <time>2024-08-31T07:36:33Z</time>
      </trkpt>
      <trkpt lat="42.70602" lon="1.408">
        <ele>1514.513</ele>
        <time>2024-08-31T07:36:35Z</time>
      </trkpt>
      <trkpt lat="42.70599" lon="1.40799">
        <ele>1513.985</ele>
        <time>2024-08-31T07:36:37Z</time>
      </trkpt>
      <trkpt lat="42.70599" lon="1.40801">
        <ele>1516.558</ele>
        <time>2024-08-31T07:36:39Z</time>
      </trkpt>
      <trkpt lat="42.70598" lon="1.40802">
        <ele>1516.431</ele>
        <time>2024-08-31T07:36:41Z</time>
      </trkpt>
      <trkpt lat="42.70597" lon="1.40802">
        <ele>1515.314</ele>
        <time>2024-08-31T07:36:43Z</time>
      </trkpt>
      <trkpt lat="42.70597" lon="1.40804">
        <ele>1515.307</ele>
        <time>2024-08-31T07:36:45Z</time>
      </trkpt>
      <trkpt lat="42.70596" lon="1.40804">
        <ele>1515.675</ele>
        <time>2024-08-31T07:36:47Z</time>
      </trkpt>
      <trkpt lat="42.70596" lon="1.40804">
        <ele>1515.721</ele>
        <time>2024-08-31T07:36:49Z</time>
      </trkpt>
      <trkpt lat="42.70596" lon="1.40804">
        <ele>1515.839</ele>
        <time>2024-08-31T07:36:51Z</time>
      </trkpt>
      <trkpt lat="42.70596" lon="1.40804">
        <ele>1516.921</ele>
        <time>2024-08-31T07:36:53Z</time>
      </trkpt>
      <trkpt lat="42.70596" lon="1.40804">
        <ele>1517.391</ele>
        <time>2024-08-31T07:36:55Z</time>
      </trkpt>
      <trkpt lat="42.70596" lon="1.40804">
        <ele>1519.253</ele>
        <time>2024-08-31T07:36:57Z</time>
      </trkpt>
      <trkpt lat="42.70596" lon="1.40804">
        <ele>1520.34</ele>
        <time>2024-08-31T07:36:59Z</time>
      </trkpt>
      <trkpt lat="42.70596" lon="1.40804">
        <ele>1519.9</ele>
        <time>2024-08-31T07:37:01Z</time>
      </trkpt>
      <trkpt lat="42.70596" lon="1.40804">
        <ele>1520.611</ele>
        <time>2024-08-31T07:37:03Z</time>
      </trkpt>
      <trkpt lat="42.70593" lon="1.40809">
        <ele>1519.913</ele>
        <time>2024-08-31T07:37:05Z</time>
      </trkpt>
      <trkpt lat="42.70592" lon="1.4081">
        <ele>1520.463</ele>
        <time>2024-08-31T07:37:07Z</time>
      </trkpt>
      <trkpt lat="42.70592" lon="1.4081">
        <ele>1520.211</ele>
        <time>2024-08-31T07:37:09Z</time>
      </trkpt>
      <trkpt lat="42.70591" lon="1.4081">
        <ele>1520.974</ele>
        <time>2024-08-31T07:37:11Z</time>
      </trkpt>
      <trkpt lat="42.70591" lon="1.40811">
        <ele>1521.229</ele>
        <time>2024-08-31T07:37:13Z</time>
      </trkpt>
      <trkpt lat="42.70591" lon="1.40812">
        <ele>1521.829</ele>
        <time>2024-08-31T07:37:15Z</time>
      </trkpt>
      <trkpt lat="42.7059" lon="1.40812">
        <ele>1519.908</ele>
        <time>2024-08-31T07:37:17Z</time>
      </trkpt>
      <trkpt lat="42.7059" lon="1.40814">
        <ele>1521.029</ele>
        <time>2024-08-31T07:37:19Z</time>
      </trkpt>
      <trkpt lat="42.7059" lon="1.40815">
        <ele>1521.907</ele>
        <time>2024-08-31T07:37:21Z</time>
      </trkpt>
      <trkpt lat="42.70589" lon="1.40816">
        <ele>1521.627</ele>
        <time>2024-08-31T07:37:23Z</time>
      </trkpt>
      <trkpt lat="42.70588" lon="1.40817">
        <ele>1522.469</ele>
        <time>2024-08-31T07:37:25Z</time>
      </trkpt>
      <trkpt lat="42.70588" lon="1.40818">
        <ele>1523.603</ele>
        <time>2024-08-31T07:37:27Z</time>
      </trkpt>
      <trkpt lat="42.70588" lon="1.40818">
        <ele>1523.273</ele>
        <time>2024-08-31T07:37:29Z</time>
      </trkpt>
      <trkpt lat="42.70587" lon="1.40819">
        <ele>1524.081</ele>
        <time>2024-08-31T07:37:31Z</time>
      </trkpt>
      <trkpt lat="42.70586" lon="1.40819">
        <ele>1524.582</ele>
        <time>2024-08-31T07:37:33Z</time>
      </trkpt>
      <trkpt lat="42.70586" lon="1.4082">
        <ele>1524.075</ele>
        <time>2024-08-31T07:37:35Z</time>
      </trkpt>
      <trkpt lat="42.70585" lon="1.40821">
        <ele>1524.496</ele>
        <time>2024-08-31T07:37:37Z</time>
      </trkpt>
      <trkpt lat="42.70585" lon="1.40821">
        <ele>1526.158</ele>
        <time>2024-08-31T07:37:39Z</time>
      </trkpt>
      <trkpt lat="42.70584" lon="1.40819">
        <ele>1526.11</ele>
        <time>2024-08-31T07:37:41Z</time>
      </trkpt>
      <trkpt lat="42.70583" lon="1.40819">
        <ele>1526.284</ele>
        <time>2024-08-31T07:37:43Z</time>
      </trkpt>
      <trkpt lat="42.70582" lon="1.40817">
        <ele>1527.013</ele>
        <time>2024-08-31T07:37:45Z</time>
      </trkpt>
      <trkpt lat="42.7058" lon="1.40816">
        <ele>1526.574</ele>
        <time>2024-08-31T07:37:47Z</time>
      </trkpt>
      <trkpt lat="42.70578" lon="1.40816">
        <ele>1526.18</ele>
        <time>2024-08-31T07:37:49Z</time>
      </trkpt>
      <trkpt lat="42.70577" lon="1.40816">
        <ele>1525.548</ele>
        <time>2024-08-31T07:37:51Z</time>
      </trkpt>
      <trkpt lat="42.70577" lon="1.40816">
        <ele>1525.244</ele>
        <time>2024-08-31T07:37:53Z</time>
      </trkpt>
      <trkpt lat="42.70576" lon="1.40815">
        <ele>1524.602</ele>
        <time>2024-08-31T07:37:55Z</time>
      </trkpt>
      <trkpt lat="42.70576" lon="1.40815">
        <ele>1524.502</ele>
        <time>2024-08-31T07:37:57Z</time>
      </trkpt>
      <trkpt lat="42.70576" lon="1.40815">
        <ele>1524.064</ele>
        <time>2024-08-31T07:37:59Z</time>
      </trkpt>
      <trkpt lat="42.70575" lon="1.40814">
        <ele>1523.266</ele>
        <time>2024-08-31T07:38:01Z</time>
      </trkpt>
      <trkpt lat="42.70574" lon="1.40813">
        <ele>1522.491</ele>
        <time>2024-08-31T07:38:03Z</time>
      </trkpt>
      <trkpt lat="42.70574" lon="1.40811">
        <ele>1522.995</ele>
        <time>2024-08-31T07:38:05Z</time>
      </trkpt>
      <trkpt lat="42.70574" lon="1.40811">
        <ele>1523.701</ele>
        <time>2024-08-31T07:38:07Z</time>
      </trkpt>
      <trkpt lat="42.70574" lon="1.40811">
        <ele>1523.697</ele>
        <time>2024-08-31T07:38:09Z</time>
      </trkpt>
      <trkpt lat="42.70574" lon="1.40811">
        <ele>1523.797</ele>
        <time>2024-08-31T07:38:11Z</time>
      </trkpt>
      <trkpt lat="42.70574" lon="1.40811">
        <ele>1523.442</ele>
        <time>2024-08-31T07:38:13Z</time>
      </trkpt>
      <trkpt lat="42.70574" lon="1.40811">
        <ele>1524.454</ele>
        <time>2024-08-31T07:38:15Z</time>
      </trkpt>
      <trkpt lat="42.70574" lon="1.40811">
        <ele>1523.693</ele>
        <time>2024-08-31T07:38:17Z</time>
      </trkpt>
      <trkpt lat="42.70574" lon="1.40811">
        <ele>1525.23</ele>
        <time>2024-08-31T07:38:19Z</time>
      </trkpt>
      <trkpt lat="42.70574" lon="1.40811">
        <ele>1525.01</ele>
        <time>2024-08-31T07:38:21Z</time>
      </trkpt>
      <trkpt lat="42.70574" lon="1.40811">
        <ele>1525.708</ele>
        <time>2024-08-31T07:38:23Z</time>
      </trkpt>
      <trkpt lat="42.70574" lon="1.40811">
        <ele>1526.384</ele>
        <time>2024-08-31T07:38:25Z</time>
      </trkpt>
      <trkpt lat="42.70574" lon="1.40811">
        <ele>1525.651</ele>
        <time>2024-08-31T07:38:27Z</time>
      </trkpt>
      <trkpt lat="42.70574" lon="1.40811">
        <ele>1525.811</ele>
        <time>2024-08-31T07:38:29Z</time>
      </trkpt>
      <trkpt lat="42.7057" lon="1.40802">
        <ele>1527.579</ele>
        <time>2024-08-31T07:38:31Z</time>
      </trkpt>
      <trkpt lat="42.7057" lon="1.40801">
        <ele>1527.938</ele>
        <time>2024-08-31T07:38:33Z</time>
      </trkpt>
      <trkpt lat="42.7057" lon="1.408">
        <ele>1526.904</ele>
        <time>2024-08-31T07:38:35Z</time>
      </trkpt>
      <trkpt lat="42.7057" lon="1.40799">
        <ele>1526.319</ele>
        <time>2024-08-31T07:38:37Z</time>
      </trkpt>
      <trkpt lat="42.7057" lon="1.40797">
        <ele>1525.152</ele>
        <time>2024-08-31T07:38:39Z</time>
      </trkpt>
      <trkpt lat="42.70569" lon="1.40795">
        <ele>1524.833</ele>
        <time>2024-08-31T07:38:41Z</time>
      </trkpt>
      <trkpt lat="42.70569" lon="1.40793">
        <ele>1524.401</ele>
        <time>2024-08-31T07:38:43Z</time>
      </trkpt>
      <trkpt lat="42.7057" lon="1.40792">
        <ele>1525.235</ele>
        <time>2024-08-31T07:38:45Z</time>
      </trkpt>
      <trkpt lat="42.7057" lon="1.40791">
        <ele>1525.909</ele>
        <time>2024-08-31T07:38:47Z</time>
      </trkpt>
      <trkpt lat="42.7057" lon="1.40789">
        <ele>1525.435</ele>
        <time>2024-08-31T07:38:49Z</time>
      </trkpt>
      <trkpt lat="42.70569" lon="1.40789">
        <ele>1526.313</ele>
        <time>2024-08-31T07:38:51Z</time>
      </trkpt>
      <trkpt lat="42.70568" lon="1.40788">
        <ele>1527.775</ele>
        <time>2024-08-31T07:38:53Z</time>
      </trkpt>
      <trkpt lat="42.70567" lon="1.40788">
        <ele>1528.297</ele>
        <time>2024-08-31T07:38:55Z</time>
      </trkpt>
      <trkpt lat="42.70566" lon="1.40787">
        <ele>1528.007</ele>
        <time>2024-08-31T07:38:57Z</time>
      </trkpt>
      <trkpt lat="42.70566" lon="1.40785">
        <ele>1528.571</ele>
        <time>2024-08-31T07:38:59Z</time>
      </trkpt>
      <trkpt lat="42.70567" lon="1.40784">
        <ele>1528.755</ele>
        <time>2024-08-31T07:39:01Z</time>
      </trkpt>
      <trkpt lat="42.70567" lon="1.40783">
        <ele>1529.05</ele>
        <time>2024-08-31T07:39:03Z</time>
      </trkpt>
      <trkpt lat="42.70566" lon="1.40782">
        <ele>1528.246</ele>
        <time>2024-08-31T07:39:05Z</time>
      </trkpt>
      <trkpt lat="42.70566" lon="1.4078">
        <ele>1528.562</ele>
        <time>2024-08-31T07:39:07Z</time>
      </trkpt>
      <trkpt lat="42.70565" lon="1.40779">
        <ele>1528.303</ele>
        <time>2024-08-31T07:39:09Z</time>
      </trkpt>
      <trkpt lat="42.70564" lon="1.40779">
        <ele>1528.773</ele>
        <time>2024-08-31T07:39:11Z</time>
      </trkpt>
      <trkpt lat="42.70564" lon="1.40777">
        <ele>1528.834</ele>
        <time>2024-08-31T07:39:13Z</time>
      </trkpt>
      <trkpt lat="42.70563" lon="1.40775">
        <ele>1528.255</ele>
        <time>2024-08-31T07:39:15Z</time>
      </trkpt>
      <trkpt lat="42.70563" lon="1.40774">
        <ele>1528.884</ele>
        <time>2024-08-31T07:39:17Z</time>
      </trkpt>
      <trkpt lat="42.70562" lon="1.40772">
        <ele>1529.031</ele>
        <time>2024-08-31T07:39:19Z</time>
      </trkpt>
      <trkpt lat="42.70562" lon="1.4077">
        <ele>1528.439</ele>
        <time>2024-08-31T07:39:21Z</time>
      </trkpt>
      <trkpt lat="42.70562" lon="1.40769">
        <ele>1528.245</ele>
        <time>2024-08-31T07:39:23Z</time>
      </trkpt>
      <trkpt lat="42.70561" lon="1.40769">
        <ele>1528.494</ele>
        <time>2024-08-31T07:39:25Z</time>
      </trkpt>
      <trkpt lat="42.70561" lon="1.40767">
        <ele>1527.879</ele>
        <time>2024-08-31T07:39:27Z</time>
      </trkpt>
      <trkpt lat="42.7056" lon="1.40766">
        <ele>1529.111</ele>
        <time>2024-08-31T07:39:29Z</time>
      </trkpt>
      <trkpt lat="42.7056" lon="1.40765">
        <ele>1529.915</ele>
        <time>2024-08-31T07:39:31Z</time>
      </trkpt>
      <trkpt lat="42.7056" lon="1.40764">
        <ele>1529.242</ele>
        <time>2024-08-31T07:39:33Z</time>
      </trkpt>
      <trkpt lat="42.7056" lon="1.40763">
        <ele>1529.909</ele>
        <time>2024-08-31T07:39:35Z</time>
      </trkpt>
      <trkpt lat="42.7056" lon="1.40761">
        <ele>1530.502</ele>
        <time>2024-08-31T07:39:37Z</time>
      </trkpt>
      <trkpt lat="42.70561" lon="1.4076">
        <ele>1530.204</ele>
        <time>2024-08-31T07:39:39Z</time>
      </trkpt>
      <trkpt lat="42.7056" lon="1.40759">
        <ele>1529.774</ele>
        <time>2024-08-31T07:39:41Z</time>
      </trkpt>
      <trkpt lat="42.70559" lon="1.40758">
        <ele>1529.9</ele>
        <time>2024-08-31T07:39:43Z</time>
      </trkpt>
      <trkpt lat="42.70559" lon="1.40758">
        <ele>1531.165</ele>
        <time>2024-08-31T07:39:45Z</time>
      </trkpt>
      <trkpt lat="42.70559" lon="1.40758">
        <ele>1531.424</ele>
        <time>2024-08-31T07:39:47Z</time>
      </trkpt>
      <trkpt lat="42.70559" lon="1.40757">
        <ele>1531.611</ele>
        <time>2024-08-31T07:39:49Z</time>
      </trkpt>
      <trkpt lat="42.7056" lon="1.40755">
        <ele>1532.747</ele>
        <time>2024-08-31T07:39:51Z</time>
      </trkpt>
      <trkpt lat="42.70559" lon="1.40755">
        <ele>1533.378</ele>
        <time>2024-08-31T07:39:53Z</time>
      </trkpt>
      <trkpt lat="42.70558" lon="1.40754">
        <ele>1533.477</ele>
        <time>2024-08-31T07:39:55Z</time>
      </trkpt>
      <trkpt lat="42.70558" lon="1.40754">
        <ele>1533.467</ele>
        <time>2024-08-31T07:39:57Z</time>
      </trkpt>
      <trkpt lat="42.70557" lon="1.40754">
        <ele>1534.312</ele>
        <time>2024-08-31T07:39:59Z</time>
      </trkpt>
      <trkpt lat="42.70556" lon="1.40754">
        <ele>1537.02</ele>
        <time>2024-08-31T07:40:01Z</time>
      </trkpt>
      <trkpt lat="42.70555" lon="1.40755">
        <ele>1536.382</ele>
        <time>2024-08-31T07:40:03Z</time>
      </trkpt>
      <trkpt lat="42.70554" lon="1.40755">
        <ele>1536.575</ele>
        <time>2024-08-31T07:40:05Z</time>
      </trkpt>
      <trkpt lat="42.70554" lon="1.40755">
        <ele>1536.5</ele>
        <time>2024-08-31T07:40:07Z</time>
      </trkpt>
      <trkpt lat="42.70554" lon="1.40753">
        <ele>1536.574</ele>
        <time>2024-08-31T07:40:09Z</time>
      </trkpt>
      <trkpt lat="42.70554" lon="1.40751">
        <ele>1536.429</ele>
        <time>2024-08-31T07:40:11Z</time>
      </trkpt>
      <trkpt lat="42.70554" lon="1.40751">
        <ele>1537.831</ele>
        <time>2024-08-31T07:40:13Z</time>
      </trkpt>
      <trkpt lat="42.70553" lon="1.4075">
        <ele>1539.046</ele>
        <time>2024-08-31T07:40:15Z</time>
      </trkpt>
      <trkpt lat="42.70553" lon="1.40749">
        <ele>1539.297</ele>
        <time>2024-08-31T07:40:17Z</time>
      </trkpt>
      <trkpt lat="42.70552" lon="1.40748">
        <ele>1537.777</ele>
        <time>2024-08-31T07:40:19Z</time>
      </trkpt>
      <trkpt lat="42.70552" lon="1.40747">
        <ele>1537.623</ele>
        <time>2024-08-31T07:40:21Z</time>
      </trkpt>
      <trkpt lat="42.70551" lon="1.40747">
        <ele>1538.285</ele>
        <time>2024-08-31T07:40:23Z</time>
      </trkpt>
      <trkpt lat="42.70551" lon="1.40745">
        <ele>1539.164</ele>
        <time>2024-08-31T07:40:25Z</time>
      </trkpt>
      <trkpt lat="42.70551" lon="1.40744">
        <ele>1540.235</ele>
        <time>2024-08-31T07:40:27Z</time>
      </trkpt>
      <trkpt lat="42.70551" lon="1.40743">
        <ele>1541.37</ele>
        <time>2024-08-31T07:40:29Z</time>
      </trkpt>
      <trkpt lat="42.70551" lon="1.40743">
        <ele>1541.25</ele>
        <time>2024-08-31T07:40:31Z</time>
      </trkpt>
      <trkpt lat="42.7055" lon="1.40742">
        <ele>1540.201</ele>
        <time>2024-08-31T07:40:33Z</time>
      </trkpt>
      <trkpt lat="42.7055" lon="1.40741">
        <ele>1540.907</ele>
        <time>2024-08-31T07:40:35Z</time>
      </trkpt>
      <trkpt lat="42.70549" lon="1.4074">
        <ele>1540.737</ele>
        <time>2024-08-31T07:40:37Z</time>
      </trkpt>
      <trkpt lat="42.70548" lon="1.40739">
        <ele>1540.607</ele>
        <time>2024-08-31T07:40:39Z</time>
      </trkpt>
      <trkpt lat="42.70548" lon="1.40738">
        <ele>1540.913</ele>
        <time>2024-08-31T07:40:41Z</time>
      </trkpt>
      <trkpt lat="42.70547" lon="1.40738">
        <ele>1541.411</ele>
        <time>2024-08-31T07:40:43Z</time>
      </trkpt>
      <trkpt lat="42.70547" lon="1.40738">
        <ele>1540.592</ele>
        <time>2024-08-31T07:40:45Z</time>
      </trkpt>
      <trkpt lat="42.70546" lon="1.40739">
        <ele>1540.11</ele>
        <time>2024-08-31T07:40:47Z</time>
      </trkpt>
      <trkpt lat="42.70545" lon="1.40738">
        <ele>1540.78</ele>
        <time>2024-08-31T07:40:49Z</time>
      </trkpt>
      <trkpt lat="42.70544" lon="1.40738">
        <ele>1540.423</ele>
        <time>2024-08-31T07:40:51Z</time>
      </trkpt>
      <trkpt lat="42.70544" lon="1.40737">
        <ele>1539.99</ele>
        <time>2024-08-31T07:40:53Z</time>
      </trkpt>
      <trkpt lat="42.70543" lon="1.40737">
        <ele>1540.163</ele>
        <time>2024-08-31T07:40:55Z</time>
      </trkpt>
      <trkpt lat="42.70543" lon="1.40737">
        <ele>1541.56</ele>
        <time>2024-08-31T07:40:57Z</time>
      </trkpt>
      <trkpt lat="42.70543" lon="1.40737">
        <ele>1542.93</ele>
        <time>2024-08-31T07:40:59Z</time>
      </trkpt>
      <trkpt lat="42.70542" lon="1.40737">
        <ele>1543.609</ele>
        <time>2024-08-31T07:41:01Z</time>
      </trkpt>
      <trkpt lat="42.70541" lon="1.40738">
        <ele>1544.304</ele>
        <time>2024-08-31T07:41:03Z</time>
      </trkpt>
      <trkpt lat="42.7054" lon="1.40738">
        <ele>1544.443</ele>
        <time>2024-08-31T07:41:05Z</time>
      </trkpt>
      <trkpt lat="42.70539" lon="1.40739">
        <ele>1544.399</ele>
        <time>2024-08-31T07:41:07Z</time>
      </trkpt>
      <trkpt lat="42.70538" lon="1.40739">
        <ele>1544.938</ele>
        <time>2024-08-31T07:41:09Z</time>
      </trkpt>
      <trkpt lat="42.70537" lon="1.40739">
        <ele>1544.64</ele>
        <time>2024-08-31T07:41:11Z</time>
      </trkpt>
      <trkpt lat="42.70537" lon="1.4074">
        <ele>1546.624</ele>
        <time>2024-08-31T07:41:13Z</time>
      </trkpt>
      <trkpt lat="42.70537" lon="1.4074">
        <ele>1548.21</ele>
        <time>2024-08-31T07:41:15Z</time>
      </trkpt>
      <trkpt lat="42.70537" lon="1.4074">
        <ele>1549.375</ele>
        <time>2024-08-31T07:41:17Z</time>
      </trkpt>
      <trkpt lat="42.70537" lon="1.4074">
        <ele>1548.632</ele>
        <time>2024-08-31T07:41:19Z</time>
      </trkpt>
      <trkpt lat="42.70537" lon="1.4074">
        <ele>1548.918</ele>
        <time>2024-08-31T07:41:21Z</time>
      </trkpt>
      <trkpt lat="42.70537" lon="1.4074">
        <ele>1547.894</ele>
        <time>2024-08-31T07:41:23Z</time>
      </trkpt>
      <trkpt lat="42.70537" lon="1.4074">
        <ele>1547.833</ele>
        <time>2024-08-31T07:41:25Z</time>
      </trkpt>
      <trkpt lat="42.70537" lon="1.4074">
        <ele>1547.825</ele>
        <time>2024-08-31T07:41:27Z</time>
      </trkpt>
      <trkpt lat="42.70537" lon="1.4074">
        <ele>1547.822</ele>
        <time>2024-08-31T07:41:29Z</time>
      </trkpt>
      <trkpt lat="42.70537" lon="1.4074">
        <ele>1547.81</ele>
        <time>2024-08-31T07:41:31Z</time>
      </trkpt>
      <trkpt lat="42.70537" lon="1.4074">
        <ele>1547.805</ele>
        <time>2024-08-31T07:41:33Z</time>
      </trkpt>
      <trkpt lat="42.70537" lon="1.4074">
        <ele>1547.794</ele>
        <time>2024-08-31T07:41:35Z</time>
      </trkpt>
      <trkpt lat="42.70537" lon="1.4074">
        <ele>1547.786</ele>
        <time>2024-08-31T07:41:37Z</time>
      </trkpt>
      <trkpt lat="42.70537" lon="1.4074">
        <ele>1547.782</ele>
        <time>2024-08-31T07:41:39Z</time>
      </trkpt>
      <trkpt lat="42.70537" lon="1.4074">
        <ele>1547.781</ele>
        <time>2024-08-31T07:41:41Z</time>
      </trkpt>
      <trkpt lat="42.70537" lon="1.4074">
        <ele>1547.774</ele>
        <time>2024-08-31T07:41:43Z</time>
      </trkpt>
      <trkpt lat="42.70537" lon="1.4074">
        <ele>1547.766</ele>
        <time>2024-08-31T07:41:45Z</time>
      </trkpt>
      <trkpt lat="42.70537" lon="1.4074">
        <ele>1547.758</ele>
        <time>2024-08-31T07:41:47Z</time>
      </trkpt>
      <trkpt lat="42.70537" lon="1.4074">
        <ele>1547.744</ele>
        <time>2024-08-31T07:41:49Z</time>
      </trkpt>
      <trkpt lat="42.70537" lon="1.4074">
        <ele>1547.737</ele>
        <time>2024-08-31T07:41:51Z</time>
      </trkpt>
      <trkpt lat="42.70537" lon="1.4074">
        <ele>1547.742</ele>
        <time>2024-08-31T07:41:53Z</time>
      </trkpt>
      <trkpt lat="42.70537" lon="1.4074">
        <ele>1547.746</ele>
        <time>2024-08-31T07:41:55Z</time>
      </trkpt>
      <trkpt lat="42.70537" lon="1.4074">
        <ele>1547.756</ele>
        <time>2024-08-31T07:41:57Z</time>
      </trkpt>
      <trkpt lat="42.70537" lon="1.4074">
        <ele>1547.76</ele>
        <time>2024-08-31T07:41:59Z</time>
      </trkpt>
      <trkpt lat="42.70537" lon="1.4074">
        <ele>1547.755</ele>
        <time>2024-08-31T07:42:01Z</time>
      </trkpt>
      <trkpt lat="42.70537" lon="1.4074">
        <ele>1547.766</ele>
        <time>2024-08-31T07:42:03Z</time>
      </trkpt>
      <trkpt lat="42.70537" lon="1.4074">
        <ele>1547.753</ele>
        <time>2024-08-31T07:42:05Z</time>
      </trkpt>
      <trkpt lat="42.70537" lon="1.4074">
        <ele>1547.744</ele>
        <time>2024-08-31T07:42:07Z</time>
      </trkpt>
      <trkpt lat="42.70537" lon="1.4074">
        <ele>1547.746</ele>
        <time>2024-08-31T07:42:09Z</time>
      </trkpt>
      <trkpt lat="42.70537" lon="1.4074">
        <ele>1547.757</ele>
        <time>2024-08-31T07:42:11Z</time>
      </trkpt>
      <trkpt lat="42.70537" lon="1.4074">
        <ele>1547.77</ele>
        <time>2024-08-31T07:42:13Z</time>
      </trkpt>
      <trkpt lat="42.70537" lon="1.4074">
        <ele>1547.774</ele>
        <time>2024-08-31T07:42:15Z</time>
      </trkpt>
      <trkpt lat="42.70537" lon="1.4074">
        <ele>1547.774</ele>
        <time>2024-08-31T07:42:17Z</time>
      </trkpt>
      <trkpt lat="42.70537" lon="1.4074">
        <ele>1547.767</ele>
        <time>2024-08-31T07:42:19Z</time>
      </trkpt>
      <trkpt lat="42.70537" lon="1.4074">
        <ele>1547.768</ele>
        <time>2024-08-31T07:42:21Z</time>
      </trkpt>
      <trkpt lat="42.70537" lon="1.4074">
        <ele>1547.756</ele>
        <time>2024-08-31T07:42:23Z</time>
      </trkpt>
      <trkpt lat="42.70537" lon="1.4074">
        <ele>1547.735</ele>
        <time>2024-08-31T07:42:25Z</time>
      </trkpt>
      <trkpt lat="42.70537" lon="1.4074">
        <ele>1547.721</ele>
        <time>2024-08-31T07:42:27Z</time>
      </trkpt>
      <trkpt lat="42.70537" lon="1.4074">
        <ele>1547.712</ele>
        <time>2024-08-31T07:42:29Z</time>
      </trkpt>
      <trkpt lat="42.70537" lon="1.4074">
        <ele>1547.702</ele>
        <time>2024-08-31T07:42:31Z</time>
      </trkpt>
      <trkpt lat="42.70537" lon="1.4074">
        <ele>1547.701</ele>
        <time>2024-08-31T07:42:33Z</time>
      </trkpt>
      <trkpt lat="42.70537" lon="1.4074">
        <ele>1547.705</ele>
        <time>2024-08-31T07:42:35Z</time>
      </trkpt>
      <trkpt lat="42.70537" lon="1.4074">
        <ele>1548.582</ele>
        <time>2024-08-31T07:42:37Z</time>
      </trkpt>
      <trkpt lat="42.70537" lon="1.4074">
        <ele>1548.508</ele>
        <time>2024-08-31T07:42:39Z</time>
      </trkpt>
      <trkpt lat="42.70537" lon="1.4074">
        <ele>1548.513</ele>
        <time>2024-08-31T07:42:41Z</time>
      </trkpt>
      <trkpt lat="42.70538" lon="1.40733">
        <ele>1549.315</ele>
        <time>2024-08-31T07:42:43Z</time>
      </trkpt>
      <trkpt lat="42.70538" lon="1.40732">
        <ele>1548.48</ele>
        <time>2024-08-31T07:42:45Z</time>
      </trkpt>
      <trkpt lat="42.70538" lon="1.4073">
        <ele>1548.338</ele>
        <time>2024-08-31T07:42:47Z</time>
      </trkpt>
      <trkpt lat="42.70538" lon="1.40728">
        <ele>1548.75</ele>
        <time>2024-08-31T07:42:49Z</time>
      </trkpt>
      <trkpt lat="42.70537" lon="1.40726">
        <ele>1547.841</ele>
        <time>2024-08-31T07:42:51Z</time>
      </trkpt>
      <trkpt lat="42.70537" lon="1.40725">
        <ele>1548.367</ele>
        <time>2024-08-31T07:42:53Z</time>
      </trkpt>
      <trkpt lat="42.70537" lon="1.40724">
        <ele>1549.118</ele>
        <time>2024-08-31T07:42:55Z</time>
      </trkpt>
      <trkpt lat="42.70536" lon="1.40722">
        <ele>1549.589</ele>
        <time>2024-08-31T07:42:57Z</time>
      </trkpt>
      <trkpt lat="42.70536" lon="1.4072">
        <ele>1550.134</ele>
        <time>2024-08-31T07:42:59Z</time>
      </trkpt>
      <trkpt lat="42.70536" lon="1.40719">
        <ele>1550.698</ele>
        <time>2024-08-31T07:43:01Z</time>
      </trkpt>
      <trkpt lat="42.70537" lon="1.40717">
        <ele>1551.345</ele>
        <time>2024-08-31T07:43:03Z</time>
      </trkpt>
      <trkpt lat="42.70537" lon="1.40716">
        <ele>1551.946</ele>
        <time>2024-08-31T07:43:05Z</time>
      </trkpt>
      <trkpt lat="42.70537" lon="1.40715">
        <ele>1552.386</ele>
        <time>2024-08-31T07:43:07Z</time>
      </trkpt>
      <trkpt lat="42.70537" lon="1.40714">
        <ele>1552.976</ele>
        <time>2024-08-31T07:43:09Z</time>
      </trkpt>
      <trkpt lat="42.70536" lon="1.40713">
        <ele>1553.552</ele>
        <time>2024-08-31T07:43:11Z</time>
      </trkpt>
      <trkpt lat="42.70536" lon="1.40712">
        <ele>1552.874</ele>
        <time>2024-08-31T07:43:13Z</time>
      </trkpt>
      <trkpt lat="42.70535" lon="1.40711">
        <ele>1552.983</ele>
        <time>2024-08-31T07:43:15Z</time>
      </trkpt>
      <trkpt lat="42.70535" lon="1.40709">
        <ele>1553.777</ele>
        <time>2024-08-31T07:43:17Z</time>
      </trkpt>
      <trkpt lat="42.70535" lon="1.40707">
        <ele>1554.015</ele>
        <time>2024-08-31T07:43:19Z</time>
      </trkpt>
      <trkpt lat="42.70534" lon="1.40706">
        <ele>1553.565</ele>
        <time>2024-08-31T07:43:21Z</time>
      </trkpt>
      <trkpt lat="42.70534" lon="1.40705">
        <ele>1553.072</ele>
        <time>2024-08-31T07:43:23Z</time>
      </trkpt>
      <trkpt lat="42.70533" lon="1.40703">
        <ele>1552.523</ele>
        <time>2024-08-31T07:43:25Z</time>
      </trkpt>
      <trkpt lat="42.70533" lon="1.40702">
        <ele>1552.957</ele>
        <time>2024-08-31T07:43:27Z</time>
      </trkpt>
      <trkpt lat="42.70532" lon="1.407">
        <ele>1552.34</ele>
        <time>2024-08-31T07:43:29Z</time>
      </trkpt>
      <trkpt lat="42.70531" lon="1.40699">
        <ele>1552.276</ele>
        <time>2024-08-31T07:43:31Z</time>
      </trkpt>
      <trkpt lat="42.70531" lon="1.40699">
        <ele>1551.865</ele>
        <time>2024-08-31T07:43:33Z</time>
      </trkpt>
      <trkpt lat="42.70531" lon="1.40698">
        <ele>1552.193</ele>
        <time>2024-08-31T07:43:35Z</time>
      </trkpt>
      <trkpt lat="42.70531" lon="1.40698">
        <ele>1552.205</ele>
        <time>2024-08-31T07:43:37Z</time>
      </trkpt>
      <trkpt lat="42.70531" lon="1.40697">
        <ele>1552.875</ele>
        <time>2024-08-31T07:43:39Z</time>
      </trkpt>
      <trkpt lat="42.70531" lon="1.40696">
        <ele>1552.644</ele>
        <time>2024-08-31T07:43:41Z</time>
      </trkpt>
      <trkpt lat="42.70531" lon="1.40695">
        <ele>1553.41</ele>
        <time>2024-08-31T07:43:43Z</time>
      </trkpt>
      <trkpt lat="42.7053" lon="1.40695">
        <ele>1552.387</ele>
        <time>2024-08-31T07:43:45Z</time>
      </trkpt>
      <trkpt lat="42.7053" lon="1.40694">
        <ele>1552.989</ele>
        <time>2024-08-31T07:43:47Z</time>
      </trkpt>
      <trkpt lat="42.70531" lon="1.40693">
        <ele>1553.251</ele>
        <time>2024-08-31T07:43:49Z</time>
      </trkpt>
      <trkpt lat="42.7053" lon="1.40692">
        <ele>1552.922</ele>
        <time>2024-08-31T07:43:51Z</time>
      </trkpt>
      <trkpt lat="42.70529" lon="1.40691">
        <ele>1553.172</ele>
        <time>2024-08-31T07:43:53Z</time>
      </trkpt>
      <trkpt lat="42.70529" lon="1.4069">
        <ele>1553.25</ele>
        <time>2024-08-31T07:43:55Z</time>
      </trkpt>
      <trkpt lat="42.70528" lon="1.4069">
        <ele>1553.934</ele>
        <time>2024-08-31T07:43:57Z</time>
      </trkpt>
      <trkpt lat="42.70528" lon="1.40689">
        <ele>1554.064</ele>
        <time>2024-08-31T07:43:59Z</time>
      </trkpt>
      <trkpt lat="42.70528" lon="1.40688">
        <ele>1554.623</ele>
        <time>2024-08-31T07:44:01Z</time>
      </trkpt>
      <trkpt lat="42.70527" lon="1.40688">
        <ele>1554.462</ele>
        <time>2024-08-31T07:44:03Z</time>
      </trkpt>
      <trkpt lat="42.70526" lon="1.40688">
        <ele>1555.526</ele>
        <time>2024-08-31T07:44:05Z</time>
      </trkpt>
      <trkpt lat="42.70526" lon="1.40688">
        <ele>1556.975</ele>
        <time>2024-08-31T07:44:07Z</time>
      </trkpt>
      <trkpt lat="42.70525" lon="1.40689">
        <ele>1557.839</ele>
        <time>2024-08-31T07:44:09Z</time>
      </trkpt>
      <trkpt lat="42.70525" lon="1.40689">
        <ele>1558.989</ele>
        <time>2024-08-31T07:44:11Z</time>
      </trkpt>
      <trkpt lat="42.70525" lon="1.40689">
        <ele>1559.484</ele>
        <time>2024-08-31T07:44:13Z</time>
      </trkpt>
      <trkpt lat="42.70524" lon="1.40689">
        <ele>1559.789</ele>
        <time>2024-08-31T07:44:15Z</time>
      </trkpt>
      <trkpt lat="42.70523" lon="1.40688">
        <ele>1558.835</ele>
        <time>2024-08-31T07:44:17Z</time>
      </trkpt>
      <trkpt lat="42.70523" lon="1.40688">
        <ele>1556.211</ele>
        <time>2024-08-31T07:44:19Z</time>
      </trkpt>
      <trkpt lat="42.70523" lon="1.40688">
        <ele>1555.818</ele>
        <time>2024-08-31T07:44:21Z</time>
      </trkpt>
      <trkpt lat="42.70523" lon="1.40687">
        <ele>1557.172</ele>
        <time>2024-08-31T07:44:23Z</time>
      </trkpt>
      <trkpt lat="42.70522" lon="1.40686">
        <ele>1557.022</ele>
        <time>2024-08-31T07:44:25Z</time>
      </trkpt>
      <trkpt lat="42.70522" lon="1.40685">
        <ele>1557.593</ele>
        <time>2024-08-31T07:44:27Z</time>
      </trkpt>
      <trkpt lat="42.70521" lon="1.40684">
        <ele>1556.758</ele>
        <time>2024-08-31T07:44:29Z</time>
      </trkpt>
      <trkpt lat="42.70522" lon="1.40683">
        <ele>1558.529</ele>
        <time>2024-08-31T07:44:31Z</time>
      </trkpt>
      <trkpt lat="42.70522" lon="1.40681">
        <ele>1559.002</ele>
        <time>2024-08-31T07:44:33Z</time>
      </trkpt>
      <trkpt lat="42.70522" lon="1.4068">
        <ele>1558.76</ele>
        <time>2024-08-31T07:44:35Z</time>
      </trkpt>
      <trkpt lat="42.70522" lon="1.40679">
        <ele>1559.11</ele>
        <time>2024-08-31T07:44:37Z</time>
      </trkpt>
      <trkpt lat="42.70522" lon="1.40679">
        <ele>1559.169</ele>
        <time>2024-08-31T07:44:39Z</time>
      </trkpt>
      <trkpt lat="42.70522" lon="1.40677">
        <ele>1559.512</ele>
        <time>2024-08-31T07:44:41Z</time>
      </trkpt>
      <trkpt lat="42.70522" lon="1.40676">
        <ele>1561.556</ele>
        <time>2024-08-31T07:44:43Z</time>
      </trkpt>
      <trkpt lat="42.70522" lon="1.40676">
        <ele>1560.917</ele>
        <time>2024-08-31T07:44:45Z</time>
      </trkpt>
      <trkpt lat="42.70522" lon="1.40675">
        <ele>1562.336</ele>
        <time>2024-08-31T07:44:47Z</time>
      </trkpt>
      <trkpt lat="42.70522" lon="1.40673">
        <ele>1561.804</ele>
        <time>2024-08-31T07:44:49Z</time>
      </trkpt>
      <trkpt lat="42.70522" lon="1.40673">
        <ele>1561.737</ele>
        <time>2024-08-31T07:44:51Z</time>
      </trkpt>
      <trkpt lat="42.70521" lon="1.40672">
        <ele>1562.096</ele>
        <time>2024-08-31T07:44:53Z</time>
      </trkpt>
      <trkpt lat="42.70521" lon="1.40671">
        <ele>1561.51</ele>
        <time>2024-08-31T07:44:55Z</time>
      </trkpt>
      <trkpt lat="42.7052" lon="1.40671">
        <ele>1561.779</ele>
        <time>2024-08-31T07:44:57Z</time>
      </trkpt>
      <trkpt lat="42.70519" lon="1.4067">
        <ele>1562.354</ele>
        <time>2024-08-31T07:44:59Z</time>
      </trkpt>
      <trkpt lat="42.7052" lon="1.40668">
        <ele>1562.741</ele>
        <time>2024-08-31T07:45:01Z</time>
      </trkpt>
      <trkpt lat="42.70521" lon="1.40667">
        <ele>1563.341</ele>
        <time>2024-08-31T07:45:03Z</time>
      </trkpt>
      <trkpt lat="42.7052" lon="1.40665">
        <ele>1563.323</ele>
        <time>2024-08-31T07:45:05Z</time>
      </trkpt>
      <trkpt lat="42.70521" lon="1.40665">
        <ele>1563.331</ele>
        <time>2024-08-31T07:45:07Z</time>
      </trkpt>
      <trkpt lat="42.7052" lon="1.40664">
        <ele>1563.39</ele>
        <time>2024-08-31T07:45:09Z</time>
      </trkpt>
      <trkpt lat="42.7052" lon="1.40663">
        <ele>1565.148</ele>
        <time>2024-08-31T07:45:11Z</time>
      </trkpt>
      <trkpt lat="42.7052" lon="1.40663">
        <ele>1565.74</ele>
        <time>2024-08-31T07:45:13Z</time>
      </trkpt>
      <trkpt lat="42.7052" lon="1.40662">
        <ele>1565.962</ele>
        <time>2024-08-31T07:45:15Z</time>
      </trkpt>
      <trkpt lat="42.70519" lon="1.40661">
        <ele>1566.374</ele>
        <time>2024-08-31T07:45:17Z</time>
      </trkpt>
      <trkpt lat="42.70518" lon="1.4066">
        <ele>1567.315</ele>
        <time>2024-08-31T07:45:19Z</time>
      </trkpt>
      <trkpt lat="42.70517" lon="1.40659">
        <ele>1566.635</ele>
        <time>2024-08-31T07:45:21Z</time>
      </trkpt>
      <trkpt lat="42.70517" lon="1.40658">
        <ele>1566.168</ele>
        <time>2024-08-31T07:45:23Z</time>
      </trkpt>
      <trkpt lat="42.70516" lon="1.40657">
        <ele>1566.255</ele>
        <time>2024-08-31T07:45:25Z</time>
      </trkpt>
      <trkpt lat="42.70516" lon="1.40657">
        <ele>1566.51</ele>
        <time>2024-08-31T07:45:27Z</time>
      </trkpt>
      <trkpt lat="42.70516" lon="1.40657">
        <ele>1567.934</ele>
        <time>2024-08-31T07:45:29Z</time>
      </trkpt>
      <trkpt lat="42.70516" lon="1.40657">
        <ele>1568.372</ele>
        <time>2024-08-31T07:45:31Z</time>
      </trkpt>
      <trkpt lat="42.70516" lon="1.40657">
        <ele>1568.473</ele>
        <time>2024-08-31T07:45:33Z</time>
      </trkpt>
      <trkpt lat="42.70516" lon="1.40657">
        <ele>1568.839</ele>
        <time>2024-08-31T07:45:35Z</time>
      </trkpt>
      <trkpt lat="42.70516" lon="1.40657">
        <ele>1568.844</ele>
        <time>2024-08-31T07:45:37Z</time>
      </trkpt>
      <trkpt lat="42.70516" lon="1.40657">
        <ele>1568.845</ele>
        <time>2024-08-31T07:45:39Z</time>
      </trkpt>
      <trkpt lat="42.70516" lon="1.40657">
        <ele>1569.947</ele>
        <time>2024-08-31T07:45:41Z</time>
      </trkpt>
      <trkpt lat="42.70516" lon="1.40657">
        <ele>1570.427</ele>
        <time>2024-08-31T07:45:43Z</time>
      </trkpt>
      <trkpt lat="42.70516" lon="1.40657">
        <ele>1570.557</ele>
        <time>2024-08-31T07:45:45Z</time>
      </trkpt>
      <trkpt lat="42.70516" lon="1.40657">
        <ele>1570.629</ele>
        <time>2024-08-31T07:45:47Z</time>
      </trkpt>
      <trkpt lat="42.70516" lon="1.40657">
        <ele>1570.551</ele>
        <time>2024-08-31T07:45:49Z</time>
      </trkpt>
      <trkpt lat="42.70516" lon="1.40657">
        <ele>1570.548</ele>
        <time>2024-08-31T07:45:51Z</time>
      </trkpt>
      <trkpt lat="42.70516" lon="1.40657">
        <ele>1570.553</ele>
        <time>2024-08-31T07:45:53Z</time>
      </trkpt>
      <trkpt lat="42.70516" lon="1.40657">
        <ele>1570.553</ele>
        <time>2024-08-31T07:45:55Z</time>
      </trkpt>
      <trkpt lat="42.70516" lon="1.40657">
        <ele>1570.552</ele>
        <time>2024-08-31T07:45:57Z</time>
      </trkpt>
      <trkpt lat="42.70516" lon="1.40657">
        <ele>1570.686</ele>
        <time>2024-08-31T07:45:59Z</time>
      </trkpt>
      <trkpt lat="42.70516" lon="1.40657">
        <ele>1570.643</ele>
        <time>2024-08-31T07:46:01Z</time>
      </trkpt>
      <trkpt lat="42.70516" lon="1.40657">
        <ele>1570.641</ele>
        <time>2024-08-31T07:46:03Z</time>
      </trkpt>
      <trkpt lat="42.70516" lon="1.40657">
        <ele>1570.644</ele>
        <time>2024-08-31T07:46:05Z</time>
      </trkpt>
      <trkpt lat="42.70516" lon="1.40657">
        <ele>1570.65</ele>
        <time>2024-08-31T07:46:07Z</time>
      </trkpt>
      <trkpt lat="42.70516" lon="1.40657">
        <ele>1570.967</ele>
        <time>2024-08-31T07:46:09Z</time>
      </trkpt>
      <trkpt lat="42.70516" lon="1.40657">
        <ele>1570.656</ele>
        <time>2024-08-31T07:46:11Z</time>
      </trkpt>
      <trkpt lat="42.70516" lon="1.40657">
        <ele>1570.53</ele>
        <time>2024-08-31T07:46:13Z</time>
      </trkpt>
      <trkpt lat="42.70516" lon="1.40657">
        <ele>1570.702</ele>
        <time>2024-08-31T07:46:15Z</time>
      </trkpt>
      <trkpt lat="42.70516" lon="1.40657">
        <ele>1570.705</ele>
        <time>2024-08-31T07:46:17Z</time>
      </trkpt>
      <trkpt lat="42.70516" lon="1.40657">
        <ele>1570.708</ele>
        <time>2024-08-31T07:46:19Z</time>
      </trkpt>
      <trkpt lat="42.70516" lon="1.40657">
        <ele>1570.707</ele>
        <time>2024-08-31T07:46:21Z</time>
      </trkpt>
      <trkpt lat="42.70516" lon="1.40657">
        <ele>1570.706</ele>
        <time>2024-08-31T07:46:23Z</time>
      </trkpt>
      <trkpt lat="42.70516" lon="1.40657">
        <ele>1570.708</ele>
        <time>2024-08-31T07:46:25Z</time>
      </trkpt>
      <trkpt lat="42.70516" lon="1.40657">
        <ele>1570.709</ele>
        <time>2024-08-31T07:46:27Z</time>
      </trkpt>
      <trkpt lat="42.70516" lon="1.40657">
        <ele>1570.71</ele>
        <time>2024-08-31T07:46:29Z</time>
      </trkpt>
      <trkpt lat="42.70516" lon="1.40657">
        <ele>1570.714</ele>
        <time>2024-08-31T07:46:31Z</time>
      </trkpt>
      <trkpt lat="42.70516" lon="1.40657">
        <ele>1570.718</ele>
        <time>2024-08-31T07:46:33Z</time>
      </trkpt>
      <trkpt lat="42.70516" lon="1.40657">
        <ele>1570.72</ele>
        <time>2024-08-31T07:46:35Z</time>
      </trkpt>
      <trkpt lat="42.70516" lon="1.40657">
        <ele>1570.72</ele>
        <time>2024-08-31T07:46:37Z</time>
      </trkpt>
      <trkpt lat="42.70516" lon="1.40657">
        <ele>1570.72</ele>
        <time>2024-08-31T07:46:39Z</time>
      </trkpt>
      <trkpt lat="42.70516" lon="1.40657">
        <ele>1570.722</ele>
        <time>2024-08-31T07:46:41Z</time>
      </trkpt>
      <trkpt lat="42.70516" lon="1.40657">
        <ele>1570.725</ele>
        <time>2024-08-31T07:46:43Z</time>
      </trkpt>
      <trkpt lat="42.70516" lon="1.40657">
        <ele>1570.726</ele>
        <time>2024-08-31T07:46:45Z</time>
      </trkpt>
      <trkpt lat="42.70516" lon="1.40657">
        <ele>1570.726</ele>
        <time>2024-08-31T07:46:47Z</time>
      </trkpt>
      <trkpt lat="42.70516" lon="1.40657">
        <ele>1570.726</ele>
        <time>2024-08-31T07:46:49Z</time>
      </trkpt>
      <trkpt lat="42.70516" lon="1.40657">
        <ele>1570.732</ele>
        <time>2024-08-31T07:46:51Z</time>
      </trkpt>
      <trkpt lat="42.70516" lon="1.40657">
        <ele>1570.74</ele>
        <time>2024-08-31T07:46:53Z</time>
      </trkpt>
      <trkpt lat="42.70516" lon="1.40657">
        <ele>1570.738</ele>
        <time>2024-08-31T07:46:55Z</time>
      </trkpt>
      <trkpt lat="42.70516" lon="1.40657">
        <ele>1570.741</ele>
        <time>2024-08-31T07:46:57Z</time>
      </trkpt>
      <trkpt lat="42.70516" lon="1.40657">
        <ele>1570.748</ele>
        <time>2024-08-31T07:46:59Z</time>
      </trkpt>
      <trkpt lat="42.70516" lon="1.40657">
        <ele>1570.755</ele>
        <time>2024-08-31T07:47:01Z</time>
      </trkpt>
      <trkpt lat="42.70516" lon="1.40657">
        <ele>1570.758</ele>
        <time>2024-08-31T07:47:03Z</time>
      </trkpt>
      <trkpt lat="42.70516" lon="1.40657">
        <ele>1570.762</ele>
        <time>2024-08-31T07:47:05Z</time>
      </trkpt>
      <trkpt lat="42.70516" lon="1.40657">
        <ele>1570.763</ele>
        <time>2024-08-31T07:47:07Z</time>
      </trkpt>
      <trkpt lat="42.70516" lon="1.40657">
        <ele>1570.763</ele>
        <time>2024-08-31T07:47:09Z</time>
      </trkpt>
      <trkpt lat="42.70516" lon="1.40657">
        <ele>1570.769</ele>
        <time>2024-08-31T07:47:11Z</time>
      </trkpt>
      <trkpt lat="42.70516" lon="1.40657">
        <ele>1570.767</ele>
        <time>2024-08-31T07:47:13Z</time>
      </trkpt>
      <trkpt lat="42.70516" lon="1.40657">
        <ele>1570.768</ele>
        <time>2024-08-31T07:47:15Z</time>
      </trkpt>
      <trkpt lat="42.70516" lon="1.40657">
        <ele>1570.767</ele>
        <time>2024-08-31T07:47:17Z</time>
      </trkpt>
      <trkpt lat="42.70516" lon="1.40657">
        <ele>1570.769</ele>
        <time>2024-08-31T07:47:19Z</time>
      </trkpt>
      <trkpt lat="42.70516" lon="1.40657">
        <ele>1570.77</ele>
        <time>2024-08-31T07:47:21Z</time>
      </trkpt>
      <trkpt lat="42.70516" lon="1.40657">
        <ele>1570.771</ele>
        <time>2024-08-31T07:47:23Z</time>
      </trkpt>
      <trkpt lat="42.70516" lon="1.40657">
        <ele>1570.771</ele>
        <time>2024-08-31T07:47:25Z</time>
      </trkpt>
      <trkpt lat="42.70516" lon="1.40657">
        <ele>1570.769</ele>
        <time>2024-08-31T07:47:27Z</time>
      </trkpt>
      <trkpt lat="42.70516" lon="1.40657">
        <ele>1570.771</ele>
        <time>2024-08-31T07:47:29Z</time>
      </trkpt>
      <trkpt lat="42.70516" lon="1.40657">
        <ele>1570.772</ele>
        <time>2024-08-31T07:47:31Z</time>
      </trkpt>
      <trkpt lat="42.70516" lon="1.40657">
        <ele>1570.779</ele>
        <time>2024-08-31T07:47:33Z</time>
      </trkpt>
      <trkpt lat="42.70516" lon="1.40657">
        <ele>1570.78</ele>
        <time>2024-08-31T07:47:35Z</time>
      </trkpt>
      <trkpt lat="42.70516" lon="1.40657">
        <ele>1570.78</ele>
        <time>2024-08-31T07:47:37Z</time>
      </trkpt>
      <trkpt lat="42.70516" lon="1.40657">
        <ele>1570.777</ele>
        <time>2024-08-31T07:47:39Z</time>
      </trkpt>
      <trkpt lat="42.70516" lon="1.40657">
        <ele>1570.772</ele>
        <time>2024-08-31T07:47:41Z</time>
      </trkpt>
      <trkpt lat="42.70516" lon="1.40657">
        <ele>1570.774</ele>
        <time>2024-08-31T07:47:43Z</time>
      </trkpt>
      <trkpt lat="42.70516" lon="1.40657">
        <ele>1570.78</ele>
        <time>2024-08-31T07:47:45Z</time>
      </trkpt>
      <trkpt lat="42.70516" lon="1.40657">
        <ele>1570.779</ele>
        <time>2024-08-31T07:47:47Z</time>
      </trkpt>
      <trkpt lat="42.70516" lon="1.40657">
        <ele>1570.951</ele>
        <time>2024-08-31T07:47:49Z</time>
      </trkpt>
      <trkpt lat="42.70516" lon="1.40657">
        <ele>1570.7</ele>
        <time>2024-08-31T07:47:51Z</time>
      </trkpt>
      <trkpt lat="42.70512" lon="1.40656">
        <ele>1571.338</ele>
        <time>2024-08-31T07:47:53Z</time>
      </trkpt>
      <trkpt lat="42.70511" lon="1.40658">
        <ele>1571.391</ele>
        <time>2024-08-31T07:47:55Z</time>
      </trkpt>
      <trkpt lat="42.70511" lon="1.40659">
        <ele>1572.771</ele>
        <time>2024-08-31T07:47:57Z</time>
      </trkpt>
      <trkpt lat="42.7051" lon="1.4066">
        <ele>1571.089</ele>
        <time>2024-08-31T07:47:59Z</time>
      </trkpt>
      <trkpt lat="42.7051" lon="1.40661">
        <ele>1571.167</ele>
        <time>2024-08-31T07:48:01Z</time>
      </trkpt>
      <trkpt lat="42.7051" lon="1.40663">
        <ele>1572.538</ele>
        <time>2024-08-31T07:48:03Z</time>
      </trkpt>
      <trkpt lat="42.70509" lon="1.40664">
        <ele>1573.095</ele>
        <time>2024-08-31T07:48:05Z</time>
      </trkpt>
      <trkpt lat="42.70508" lon="1.40664">
        <ele>1574.184</ele>
        <time>2024-08-31T07:48:07Z</time>
      </trkpt>
      <trkpt lat="42.70507" lon="1.40664">
        <ele>1573.661</ele>
        <time>2024-08-31T07:48:09Z</time>
      </trkpt>
      <trkpt lat="42.70507" lon="1.40664">
        <ele>1573.161</ele>
        <time>2024-08-31T07:48:11Z</time>
      </trkpt>
      <trkpt lat="42.70506" lon="1.40664">
        <ele>1572.669</ele>
        <time>2024-08-31T07:48:13Z</time>
      </trkpt>
      <trkpt lat="42.70506" lon="1.40664">
        <ele>1572.435</ele>
        <time>2024-08-31T07:48:15Z</time>
      </trkpt>
      <trkpt lat="42.70505" lon="1.40664">
        <ele>1572.71</ele>
        <time>2024-08-31T07:48:17Z</time>
      </trkpt>
      <trkpt lat="42.70505" lon="1.40665">
        <ele>1572.87</ele>
        <time>2024-08-31T07:48:19Z</time>
      </trkpt>
      <trkpt lat="42.70505" lon="1.40666">
        <ele>1572.329</ele>
        <time>2024-08-31T07:48:21Z</time>
      </trkpt>
      <trkpt lat="42.70504" lon="1.40667">
        <ele>1573.117</ele>
        <time>2024-08-31T07:48:23Z</time>
      </trkpt>
      <trkpt lat="42.70503" lon="1.40668">
        <ele>1572.661</ele>
        <time>2024-08-31T07:48:25Z</time>
      </trkpt>
      <trkpt lat="42.70503" lon="1.40669">
        <ele>1574.076</ele>
        <time>2024-08-31T07:48:27Z</time>
      </trkpt>
      <trkpt lat="42.70503" lon="1.4067">
        <ele>1575.775</ele>
        <time>2024-08-31T07:48:29Z</time>
      </trkpt>
      <trkpt lat="42.70502" lon="1.40671">
        <ele>1576.708</ele>
        <time>2024-08-31T07:48:31Z</time>
      </trkpt>
      <trkpt lat="42.70502" lon="1.40671">
        <ele>1576.738</ele>
        <time>2024-08-31T07:48:33Z</time>
      </trkpt>
      <trkpt lat="42.70501" lon="1.40672">
        <ele>1576.835</ele>
        <time>2024-08-31T07:48:35Z</time>
      </trkpt>
      <trkpt lat="42.705" lon="1.40672">
        <ele>1576.339</ele>
        <time>2024-08-31T07:48:37Z</time>
      </trkpt>
      <trkpt lat="42.70499" lon="1.40672">
        <ele>1575.484</ele>
        <time>2024-08-31T07:48:39Z</time>
      </trkpt>
      <trkpt lat="42.70499" lon="1.40672">
        <ele>1575.311</ele>
        <time>2024-08-31T07:48:41Z</time>
      </trkpt>
      <trkpt lat="42.70499" lon="1.40673">
        <ele>1576.5</ele>
        <time>2024-08-31T07:48:43Z</time>
      </trkpt>
      <trkpt lat="42.70498" lon="1.40673">
        <ele>1575.87</ele>
        <time>2024-08-31T07:48:45Z</time>
      </trkpt>
      <trkpt lat="42.70498" lon="1.40671">
        <ele>1576.924</ele>
        <time>2024-08-31T07:48:47Z</time>
      </trkpt>
      <trkpt lat="42.70497" lon="1.40669">
        <ele>1576.77</ele>
        <time>2024-08-31T07:48:49Z</time>
      </trkpt>
      <trkpt lat="42.70496" lon="1.40668">
        <ele>1577.159</ele>
        <time>2024-08-31T07:48:51Z</time>
      </trkpt>
      <trkpt lat="42.70494" lon="1.40667">
        <ele>1577.122</ele>
        <time>2024-08-31T07:48:53Z</time>
      </trkpt>
      <trkpt lat="42.70494" lon="1.40665">
        <ele>1577.524</ele>
        <time>2024-08-31T07:48:55Z</time>
      </trkpt>
      <trkpt lat="42.70493" lon="1.40663">
        <ele>1577.031</ele>
        <time>2024-08-31T07:48:57Z</time>
      </trkpt>
      <trkpt lat="42.70493" lon="1.40661">
        <ele>1577.636</ele>
        <time>2024-08-31T07:48:59Z</time>
      </trkpt>
      <trkpt lat="42.70492" lon="1.4066">
        <ele>1577.493</ele>
        <time>2024-08-31T07:49:01Z</time>
      </trkpt>
      <trkpt lat="42.70492" lon="1.40658">
        <ele>1576.478</ele>
        <time>2024-08-31T07:49:03Z</time>
      </trkpt>
      <trkpt lat="42.70491" lon="1.40657">
        <ele>1576.666</ele>
        <time>2024-08-31T07:49:05Z</time>
      </trkpt>
      <trkpt lat="42.70492" lon="1.40656">
        <ele>1576.649</ele>
        <time>2024-08-31T07:49:07Z</time>
      </trkpt>
      <trkpt lat="42.70492" lon="1.40654">
        <ele>1577.599</ele>
        <time>2024-08-31T07:49:09Z</time>
      </trkpt>
      <trkpt lat="42.70492" lon="1.40653">
        <ele>1577.648</ele>
        <time>2024-08-31T07:49:11Z</time>
      </trkpt>
      <trkpt lat="42.70492" lon="1.40653">
        <ele>1578.273</ele>
        <time>2024-08-31T07:49:13Z</time>
      </trkpt>
      <trkpt lat="42.70492" lon="1.40653">
        <ele>1578.239</ele>
        <time>2024-08-31T07:49:15Z</time>
      </trkpt>
      <trkpt lat="42.70492" lon="1.40653">
        <ele>1578.24</ele>
        <time>2024-08-31T07:49:17Z</time>
      </trkpt>
      <trkpt lat="42.70492" lon="1.40653">
        <ele>1578.282</ele>
        <time>2024-08-31T07:49:19Z</time>
      </trkpt>
      <trkpt lat="42.70492" lon="1.40653">
        <ele>1577.967</ele>
        <time>2024-08-31T07:49:21Z</time>
      </trkpt>
      <trkpt lat="42.70492" lon="1.40653">
        <ele>1577.691</ele>
        <time>2024-08-31T07:49:23Z</time>
      </trkpt>
      <trkpt lat="42.70492" lon="1.40653">
        <ele>1577.693</ele>
        <time>2024-08-31T07:49:25Z</time>
      </trkpt>
      <trkpt lat="42.70492" lon="1.40653">
        <ele>1577.699</ele>
        <time>2024-08-31T07:49:27Z</time>
      </trkpt>
      <trkpt lat="42.70492" lon="1.40653">
        <ele>1577.709</ele>
        <time>2024-08-31T07:49:29Z</time>
      </trkpt>
      <trkpt lat="42.70492" lon="1.40653">
        <ele>1577.712</ele>
        <time>2024-08-31T07:49:31Z</time>
      </trkpt>
      <trkpt lat="42.70492" lon="1.40653">
        <ele>1577.715</ele>
        <time>2024-08-31T07:49:34Z</time>
      </trkpt>
      <trkpt lat="42.70492" lon="1.40653">
        <ele>1577.726</ele>
        <time>2024-08-31T07:49:36Z</time>
      </trkpt>
      <trkpt lat="42.70492" lon="1.40653">
        <ele>1577.739</ele>
        <time>2024-08-31T07:49:38Z</time>
      </trkpt>
      <trkpt lat="42.70492" lon="1.40653">
        <ele>1577.752</ele>
        <time>2024-08-31T07:49:40Z</time>
      </trkpt>
      <trkpt lat="42.70492" lon="1.40653">
        <ele>1577.754</ele>
        <time>2024-08-31T07:49:42Z</time>
      </trkpt>
      <trkpt lat="42.70492" lon="1.40653">
        <ele>1577.757</ele>
        <time>2024-08-31T07:49:44Z</time>
      </trkpt>
      <trkpt lat="42.70492" lon="1.40653">
        <ele>1577.759</ele>
        <time>2024-08-31T07:49:46Z</time>
      </trkpt>
      <trkpt lat="42.70492" lon="1.40653">
        <ele>1577.765</ele>
        <time>2024-08-31T07:49:48Z</time>
      </trkpt>
      <trkpt lat="42.70492" lon="1.40653">
        <ele>1577.764</ele>
        <time>2024-08-31T07:49:50Z</time>
      </trkpt>
      <trkpt lat="42.70492" lon="1.40653">
        <ele>1577.762</ele>
        <time>2024-08-31T07:49:52Z</time>
      </trkpt>
      <trkpt lat="42.70492" lon="1.40653">
        <ele>1577.764</ele>
        <time>2024-08-31T07:49:54Z</time>
      </trkpt>
      <trkpt lat="42.70492" lon="1.40653">
        <ele>1577.764</ele>
        <time>2024-08-31T07:49:56Z</time>
      </trkpt>
      <trkpt lat="42.70492" lon="1.40653">
        <ele>1577.77</ele>
        <time>2024-08-31T07:49:58Z</time>
      </trkpt>
      <trkpt lat="42.70492" lon="1.40653">
        <ele>1577.769</ele>
        <time>2024-08-31T07:50:00Z</time>
      </trkpt>
      <trkpt lat="42.70492" lon="1.40653">
        <ele>1577.771</ele>
        <time>2024-08-31T07:50:02Z</time>
      </trkpt>
      <trkpt lat="42.70492" lon="1.40653">
        <ele>1577.771</ele>
        <time>2024-08-31T07:50:04Z</time>
      </trkpt>
      <trkpt lat="42.70492" lon="1.40653">
        <ele>1577.758</ele>
        <time>2024-08-31T07:50:06Z</time>
      </trkpt>
      <trkpt lat="42.70492" lon="1.40653">
        <ele>1577.755</ele>
        <time>2024-08-31T07:50:08Z</time>
      </trkpt>
      <trkpt lat="42.70492" lon="1.40653">
        <ele>1577.758</ele>
        <time>2024-08-31T07:50:10Z</time>
      </trkpt>
      <trkpt lat="42.70492" lon="1.40653">
        <ele>1577.755</ele>
        <time>2024-08-31T07:50:12Z</time>
      </trkpt>
      <trkpt lat="42.70492" lon="1.40653">
        <ele>1577.76</ele>
        <time>2024-08-31T07:50:14Z</time>
      </trkpt>
      <trkpt lat="42.70492" lon="1.40653">
        <ele>1577.76</ele>
        <time>2024-08-31T07:50:16Z</time>
      </trkpt>
      <trkpt lat="42.70492" lon="1.40653">
        <ele>1577.762</ele>
        <time>2024-08-31T07:50:18Z</time>
      </trkpt>
      <trkpt lat="42.70492" lon="1.40653">
        <ele>1577.761</ele>
        <time>2024-08-31T07:50:20Z</time>
      </trkpt>
      <trkpt lat="42.70492" lon="1.40653">
        <ele>1577.764</ele>
        <time>2024-08-31T07:50:22Z</time>
      </trkpt>
      <trkpt lat="42.70492" lon="1.40653">
        <ele>1577.768</ele>
        <time>2024-08-31T07:50:24Z</time>
      </trkpt>
      <trkpt lat="42.70492" lon="1.40653">
        <ele>1577.768</ele>
        <time>2024-08-31T07:50:26Z</time>
      </trkpt>
      <trkpt lat="42.70492" lon="1.40653">
        <ele>1577.764</ele>
        <time>2024-08-31T07:50:28Z</time>
      </trkpt>
      <trkpt lat="42.70492" lon="1.40653">
        <ele>1577.762</ele>
        <time>2024-08-31T07:50:30Z</time>
      </trkpt>
      <trkpt lat="42.70492" lon="1.40653">
        <ele>1577.77</ele>
        <time>2024-08-31T07:50:32Z</time>
      </trkpt>
      <trkpt lat="42.70492" lon="1.40653">
        <ele>1577.769</ele>
        <time>2024-08-31T07:50:34Z</time>
      </trkpt>
      <trkpt lat="42.70492" lon="1.40653">
        <ele>1577.77</ele>
        <time>2024-08-31T07:50:36Z</time>
      </trkpt>
      <trkpt lat="42.70492" lon="1.40653">
        <ele>1577.774</ele>
        <time>2024-08-31T07:50:38Z</time>
      </trkpt>
      <trkpt lat="42.70492" lon="1.40653">
        <ele>1577.781</ele>
        <time>2024-08-31T07:50:40Z</time>
      </trkpt>
      <trkpt lat="42.70492" lon="1.40653">
        <ele>1577.781</ele>
        <time>2024-08-31T07:50:42Z</time>
      </trkpt>
      <trkpt lat="42.70492" lon="1.40653">
        <ele>1577.783</ele>
        <time>2024-08-31T07:50:44Z</time>
      </trkpt>
      <trkpt lat="42.70492" lon="1.40653">
        <ele>1577.778</ele>
        <time>2024-08-31T07:50:46Z</time>
      </trkpt>
      <trkpt lat="42.70492" lon="1.40653">
        <ele>1577.776</ele>
        <time>2024-08-31T07:50:48Z</time>
      </trkpt>
      <trkpt lat="42.70492" lon="1.40653">
        <ele>1577.571</ele>
        <time>2024-08-31T07:50:50Z</time>
      </trkpt>
      <trkpt lat="42.70492" lon="1.40653">
        <ele>1577.572</ele>
        <time>2024-08-31T07:50:52Z</time>
      </trkpt>
      <trkpt lat="42.70492" lon="1.40653">
        <ele>1577.569</ele>
        <time>2024-08-31T07:50:54Z</time>
      </trkpt>
      <trkpt lat="42.70492" lon="1.40653">
        <ele>1577.859</ele>
        <time>2024-08-31T07:50:56Z</time>
      </trkpt>
      <trkpt lat="42.70492" lon="1.40653">
        <ele>1577.833</ele>
        <time>2024-08-31T07:50:58Z</time>
      </trkpt>
      <trkpt lat="42.70492" lon="1.40653">
        <ele>1577.835</ele>
        <time>2024-08-31T07:51:00Z</time>
      </trkpt>
      <trkpt lat="42.70492" lon="1.40653">
        <ele>1577.844</ele>
        <time>2024-08-31T07:51:02Z</time>
      </trkpt>
      <trkpt lat="42.70492" lon="1.40653">
        <ele>1577.849</ele>
        <time>2024-08-31T07:51:04Z</time>
      </trkpt>
      <trkpt lat="42.70492" lon="1.40653">
        <ele>1577.859</ele>
        <time>2024-08-31T07:51:06Z</time>
      </trkpt>
      <trkpt lat="42.70492" lon="1.40653">
        <ele>1577.863</ele>
        <time>2024-08-31T07:51:08Z</time>
      </trkpt>
      <trkpt lat="42.70492" lon="1.40653">
        <ele>1577.871</ele>
        <time>2024-08-31T07:51:10Z</time>
      </trkpt>
      <trkpt lat="42.70492" lon="1.40653">
        <ele>1577.869</ele>
        <time>2024-08-31T07:51:12Z</time>
      </trkpt>
      <trkpt lat="42.70492" lon="1.40653">
        <ele>1577.873</ele>
        <time>2024-08-31T07:51:14Z</time>
      </trkpt>
      <trkpt lat="42.70492" lon="1.40653">
        <ele>1577.877</ele>
        <time>2024-08-31T07:51:16Z</time>
      </trkpt>
      <trkpt lat="42.70492" lon="1.40653">
        <ele>1577.876</ele>
        <time>2024-08-31T07:51:18Z</time>
      </trkpt>
      <trkpt lat="42.70492" lon="1.40653">
        <ele>1577.599</ele>
        <time>2024-08-31T07:51:20Z</time>
      </trkpt>
      <trkpt lat="42.70492" lon="1.40653">
        <ele>1577.599</ele>
        <time>2024-08-31T07:51:22Z</time>
      </trkpt>
      <trkpt lat="42.70492" lon="1.40653">
        <ele>1577.601</ele>
        <time>2024-08-31T07:51:24Z</time>
      </trkpt>
      <trkpt lat="42.70492" lon="1.40653">
        <ele>1577.608</ele>
        <time>2024-08-31T07:51:26Z</time>
      </trkpt>
      <trkpt lat="42.70492" lon="1.40653">
        <ele>1577.618</ele>
        <time>2024-08-31T07:51:28Z</time>
      </trkpt>
      <trkpt lat="42.70492" lon="1.40653">
        <ele>1577.616</ele>
        <time>2024-08-31T07:51:30Z</time>
      </trkpt>
      <trkpt lat="42.70492" lon="1.40653">
        <ele>1577.621</ele>
        <time>2024-08-31T07:51:32Z</time>
      </trkpt>
      <trkpt lat="42.70492" lon="1.40653">
        <ele>1577.621</ele>
        <time>2024-08-31T07:51:34Z</time>
      </trkpt>
      <trkpt lat="42.70492" lon="1.40653">
        <ele>1577.621</ele>
        <time>2024-08-31T07:51:36Z</time>
      </trkpt>
      <trkpt lat="42.70492" lon="1.40653">
        <ele>1577.621</ele>
        <time>2024-08-31T07:51:38Z</time>
      </trkpt>
      <trkpt lat="42.70492" lon="1.40653">
        <ele>1577.62</ele>
        <time>2024-08-31T07:51:40Z</time>
      </trkpt>
      <trkpt lat="42.70492" lon="1.40653">
        <ele>1577.62</ele>
        <time>2024-08-31T07:51:42Z</time>
      </trkpt>
      <trkpt lat="42.70492" lon="1.40653">
        <ele>1577.623</ele>
        <time>2024-08-31T07:51:44Z</time>
      </trkpt>
      <trkpt lat="42.70492" lon="1.40653">
        <ele>1577.623</ele>
        <time>2024-08-31T07:51:46Z</time>
      </trkpt>
      <trkpt lat="42.70492" lon="1.40653">
        <ele>1577.623</ele>
        <time>2024-08-31T07:51:48Z</time>
      </trkpt>
      <trkpt lat="42.70492" lon="1.40653">
        <ele>1577.623</ele>
        <time>2024-08-31T07:51:50Z</time>
      </trkpt>
      <trkpt lat="42.70492" lon="1.40653">
        <ele>1577.619</ele>
        <time>2024-08-31T07:51:52Z</time>
      </trkpt>
      <trkpt lat="42.70492" lon="1.40653">
        <ele>1577.619</ele>
        <time>2024-08-31T07:51:54Z</time>
      </trkpt>
      <trkpt lat="42.70492" lon="1.40653">
        <ele>1577.623</ele>
        <time>2024-08-31T07:51:56Z</time>
      </trkpt>
      <trkpt lat="42.70492" lon="1.40653">
        <ele>1577.619</ele>
        <time>2024-08-31T07:51:58Z</time>
      </trkpt>
      <trkpt lat="42.70492" lon="1.40653">
        <ele>1577.614</ele>
        <time>2024-08-31T07:52:00Z</time>
      </trkpt>
      <trkpt lat="42.70492" lon="1.40653">
        <ele>1577.614</ele>
        <time>2024-08-31T07:52:02Z</time>
      </trkpt>
      <trkpt lat="42.70492" lon="1.40653">
        <ele>1577.622</ele>
        <time>2024-08-31T07:52:04Z</time>
      </trkpt>
      <trkpt lat="42.70492" lon="1.40653">
        <ele>1577.618</ele>
        <time>2024-08-31T07:52:06Z</time>
      </trkpt>
      <trkpt lat="42.70492" lon="1.40653">
        <ele>1577.623</ele>
        <time>2024-08-31T07:52:08Z</time>
      </trkpt>
      <trkpt lat="42.70492" lon="1.40653">
        <ele>1577.621</ele>
        <time>2024-08-31T07:52:10Z</time>
      </trkpt>
      <trkpt lat="42.70492" lon="1.40653">
        <ele>1577.625</ele>
        <time>2024-08-31T07:52:12Z</time>
      </trkpt>
      <trkpt lat="42.70492" lon="1.40653">
        <ele>1577.624</ele>
        <time>2024-08-31T07:52:14Z</time>
      </trkpt>
      <trkpt lat="42.70492" lon="1.40653">
        <ele>1577.627</ele>
        <time>2024-08-31T07:52:16Z</time>
      </trkpt>
      <trkpt lat="42.70492" lon="1.40653">
        <ele>1578.011</ele>
        <time>2024-08-31T07:52:18Z</time>
      </trkpt>
      <trkpt lat="42.70492" lon="1.4065">
        <ele>1577.326</ele>
        <time>2024-08-31T07:52:20Z</time>
      </trkpt>
      <trkpt lat="42.7049" lon="1.40649">
        <ele>1576.822</ele>
        <time>2024-08-31T07:52:22Z</time>
      </trkpt>
      <trkpt lat="42.7049" lon="1.40648">
        <ele>1577.027</ele>
        <time>2024-08-31T07:52:24Z</time>
      </trkpt>
      <trkpt lat="42.70489" lon="1.40647">
        <ele>1577.266</ele>
        <time>2024-08-31T07:52:26Z</time>
      </trkpt>
      <trkpt lat="42.70489" lon="1.40646">
        <ele>1578.196</ele>
        <time>2024-08-31T07:52:28Z</time>
      </trkpt>
      <trkpt lat="42.70488" lon="1.40646">
        <ele>1578.655</ele>
        <time>2024-08-31T07:52:30Z</time>
      </trkpt>
      <trkpt lat="42.70488" lon="1.40645">
        <ele>1579.101</ele>
        <time>2024-08-31T07:52:32Z</time>
      </trkpt>
      <trkpt lat="42.70487" lon="1.40646">
        <ele>1579.104</ele>
        <time>2024-08-31T07:52:34Z</time>
      </trkpt>
      <trkpt lat="42.70487" lon="1.40647">
        <ele>1580.967</ele>
        <time>2024-08-31T07:52:36Z</time>
      </trkpt>
      <trkpt lat="42.70486" lon="1.40648">
        <ele>1580.594</ele>
        <time>2024-08-31T07:52:38Z</time>
      </trkpt>
      <trkpt lat="42.70485" lon="1.40648">
        <ele>1580.681</ele>
        <time>2024-08-31T07:52:40Z</time>
      </trkpt>
      <trkpt lat="42.70485" lon="1.40649">
        <ele>1579.629</ele>
        <time>2024-08-31T07:52:42Z</time>
      </trkpt>
      <trkpt lat="42.70484" lon="1.4065">
        <ele>1579.492</ele>
        <time>2024-08-31T07:52:44Z</time>
      </trkpt>
      <trkpt lat="42.70484" lon="1.4065">
        <ele>1579.322</ele>
        <time>2024-08-31T07:52:46Z</time>
      </trkpt>
      <trkpt lat="42.70483" lon="1.40651">
        <ele>1579.701</ele>
        <time>2024-08-31T07:52:48Z</time>
      </trkpt>
      <trkpt lat="42.70483" lon="1.40652">
        <ele>1580.669</ele>
        <time>2024-08-31T07:52:50Z</time>
      </trkpt>
      <trkpt lat="42.70482" lon="1.40654">
        <ele>1580.165</ele>
        <time>2024-08-31T07:52:52Z</time>
      </trkpt>
      <trkpt lat="42.70481" lon="1.40655">
        <ele>1579.136</ele>
        <time>2024-08-31T07:52:54Z</time>
      </trkpt>
      <trkpt lat="42.7048" lon="1.40655">
        <ele>1578.001</ele>
        <time>2024-08-31T07:52:56Z</time>
      </trkpt>
      <trkpt lat="42.70479" lon="1.40655">
        <ele>1578.009</ele>
        <time>2024-08-31T07:52:58Z</time>
      </trkpt>
      <trkpt lat="42.70479" lon="1.40655">
        <ele>1578.245</ele>
        <time>2024-08-31T07:53:00Z</time>
      </trkpt>
      <trkpt lat="42.70478" lon="1.40656">
        <ele>1578.79</ele>
        <time>2024-08-31T07:53:02Z</time>
      </trkpt>
      <trkpt lat="42.70478" lon="1.40657">
        <ele>1579.844</ele>
        <time>2024-08-31T07:53:04Z</time>
      </trkpt>
      <trkpt lat="42.70477" lon="1.40657">
        <ele>1580.749</ele>
        <time>2024-08-31T07:53:06Z</time>
      </trkpt>
      <trkpt lat="42.70477" lon="1.40657">
        <ele>1580.975</ele>
        <time>2024-08-31T07:53:08Z</time>
      </trkpt>
      <trkpt lat="42.70477" lon="1.40657">
        <ele>1582.214</ele>
        <time>2024-08-31T07:53:10Z</time>
      </trkpt>
      <trkpt lat="42.70477" lon="1.40657">
        <ele>1583.035</ele>
        <time>2024-08-31T07:53:12Z</time>
      </trkpt>
      <trkpt lat="42.70475" lon="1.40653">
        <ele>1583.962</ele>
        <time>2024-08-31T07:53:14Z</time>
      </trkpt>
      <trkpt lat="42.70475" lon="1.40652">
        <ele>1584.49</ele>
        <time>2024-08-31T07:53:16Z</time>
      </trkpt>
      <trkpt lat="42.70475" lon="1.4065">
        <ele>1585.399</ele>
        <time>2024-08-31T07:53:18Z</time>
      </trkpt>
      <trkpt lat="42.70475" lon="1.40649">
        <ele>1587.056</ele>
        <time>2024-08-31T07:53:20Z</time>
      </trkpt>
      <trkpt lat="42.70475" lon="1.40647">
        <ele>1587.108</ele>
        <time>2024-08-31T07:53:22Z</time>
      </trkpt>
      <trkpt lat="42.70475" lon="1.40646">
        <ele>1587.401</ele>
        <time>2024-08-31T07:53:24Z</time>
      </trkpt>
      <trkpt lat="42.70474" lon="1.40645">
        <ele>1586.633</ele>
        <time>2024-08-31T07:53:26Z</time>
      </trkpt>
      <trkpt lat="42.70473" lon="1.40644">
        <ele>1587.233</ele>
        <time>2024-08-31T07:53:28Z</time>
      </trkpt>
      <trkpt lat="42.70473" lon="1.40643">
        <ele>1587.622</ele>
        <time>2024-08-31T07:53:30Z</time>
      </trkpt>
      <trkpt lat="42.70472" lon="1.40642">
        <ele>1586.915</ele>
        <time>2024-08-31T07:53:32Z</time>
      </trkpt>
      <trkpt lat="42.70471" lon="1.40642">
        <ele>1587.603</ele>
        <time>2024-08-31T07:53:34Z</time>
      </trkpt>
      <trkpt lat="42.70471" lon="1.40641">
        <ele>1588.101</ele>
        <time>2024-08-31T07:53:36Z</time>
      </trkpt>
      <trkpt lat="42.7047" lon="1.4064">
        <ele>1588.007</ele>
        <time>2024-08-31T07:53:38Z</time>
      </trkpt>
      <trkpt lat="42.70469" lon="1.40639">
        <ele>1587.857</ele>
        <time>2024-08-31T07:53:40Z</time>
      </trkpt>
      <trkpt lat="42.70468" lon="1.40639">
        <ele>1586.919</ele>
        <time>2024-08-31T07:53:42Z</time>
      </trkpt>
      <trkpt lat="42.70467" lon="1.40639">
        <ele>1586.925</ele>
        <time>2024-08-31T07:53:44Z</time>
      </trkpt>
      <trkpt lat="42.70467" lon="1.4064">
        <ele>1586.995</ele>
        <time>2024-08-31T07:53:46Z</time>
      </trkpt>
      <trkpt lat="42.70466" lon="1.40641">
        <ele>1586.956</ele>
        <time>2024-08-31T07:53:48Z</time>
      </trkpt>
      <trkpt lat="42.70466" lon="1.40641">
        <ele>1587.222</ele>
        <time>2024-08-31T07:53:50Z</time>
      </trkpt>
      <trkpt lat="42.70465" lon="1.40642">
        <ele>1588.439</ele>
        <time>2024-08-31T07:53:52Z</time>
      </trkpt>
      <trkpt lat="42.70465" lon="1.40643">
        <ele>1589.209</ele>
        <time>2024-08-31T07:53:54Z</time>
      </trkpt>
      <trkpt lat="42.70464" lon="1.40643">
        <ele>1589.691</ele>
        <time>2024-08-31T07:53:56Z</time>
      </trkpt>
      <trkpt lat="42.70463" lon="1.40643">
        <ele>1590.813</ele>
        <time>2024-08-31T07:53:58Z</time>
      </trkpt>
      <trkpt lat="42.70463" lon="1.40645">
        <ele>1590.882</ele>
        <time>2024-08-31T07:54:00Z</time>
      </trkpt>
      <trkpt lat="42.70463" lon="1.40646">
        <ele>1591.097</ele>
        <time>2024-08-31T07:54:02Z</time>
      </trkpt>
      <trkpt lat="42.70463" lon="1.40647">
        <ele>1592.155</ele>
        <time>2024-08-31T07:54:04Z</time>
      </trkpt>
      <trkpt lat="42.70463" lon="1.40648">
        <ele>1592.234</ele>
        <time>2024-08-31T07:54:06Z</time>
      </trkpt>
      <trkpt lat="42.70463" lon="1.40649">
        <ele>1593.137</ele>
        <time>2024-08-31T07:54:08Z</time>
      </trkpt>
      <trkpt lat="42.70462" lon="1.40649">
        <ele>1593.084</ele>
        <time>2024-08-31T07:54:10Z</time>
      </trkpt>
      <trkpt lat="42.70461" lon="1.4065">
        <ele>1593.354</ele>
        <time>2024-08-31T07:54:12Z</time>
      </trkpt>
      <trkpt lat="42.7046" lon="1.40651">
        <ele>1593.96</ele>
        <time>2024-08-31T07:54:14Z</time>
      </trkpt>
      <trkpt lat="42.7046" lon="1.40651">
        <ele>1594.507</ele>
        <time>2024-08-31T07:54:16Z</time>
      </trkpt>
      <trkpt lat="42.70459" lon="1.40652">
        <ele>1594.329</ele>
        <time>2024-08-31T07:54:18Z</time>
      </trkpt>
      <trkpt lat="42.70459" lon="1.40652">
        <ele>1594.347</ele>
        <time>2024-08-31T07:54:20Z</time>
      </trkpt>
      <trkpt lat="42.70458" lon="1.40653">
        <ele>1595.292</ele>
        <time>2024-08-31T07:54:22Z</time>
      </trkpt>
      <trkpt lat="42.70457" lon="1.40653">
        <ele>1595.633</ele>
        <time>2024-08-31T07:54:24Z</time>
      </trkpt>
      <trkpt lat="42.70456" lon="1.40654">
        <ele>1596.844</ele>
        <time>2024-08-31T07:54:26Z</time>
      </trkpt>
      <trkpt lat="42.70456" lon="1.40655">
        <ele>1598.269</ele>
        <time>2024-08-31T07:54:29Z</time>
      </trkpt>
      <trkpt lat="42.70456" lon="1.40657">
        <ele>1598.499</ele>
        <time>2024-08-31T07:54:31Z</time>
      </trkpt>
      <trkpt lat="42.70456" lon="1.40658">
        <ele>1599.593</ele>
        <time>2024-08-31T07:54:33Z</time>
      </trkpt>
      <trkpt lat="42.70455" lon="1.40659">
        <ele>1599.439</ele>
        <time>2024-08-31T07:54:35Z</time>
      </trkpt>
      <trkpt lat="42.70454" lon="1.4066">
        <ele>1599.485</ele>
        <time>2024-08-31T07:54:37Z</time>
      </trkpt>
      <trkpt lat="42.70453" lon="1.40661">
        <ele>1599.564</ele>
        <time>2024-08-31T07:54:39Z</time>
      </trkpt>
      <trkpt lat="42.70452" lon="1.40661">
        <ele>1601.134</ele>
        <time>2024-08-31T07:54:41Z</time>
      </trkpt>
      <trkpt lat="42.70452" lon="1.40662">
        <ele>1601.468</ele>
        <time>2024-08-31T07:54:43Z</time>
      </trkpt>
      <trkpt lat="42.70451" lon="1.40662">
        <ele>1601.475</ele>
        <time>2024-08-31T07:54:45Z</time>
      </trkpt>
      <trkpt lat="42.7045" lon="1.40664">
        <ele>1601.309</ele>
        <time>2024-08-31T07:54:47Z</time>
      </trkpt>
      <trkpt lat="42.7045" lon="1.40663">
        <ele>1601.766</ele>
        <time>2024-08-31T07:54:49Z</time>
      </trkpt>
      <trkpt lat="42.70449" lon="1.40663">
        <ele>1601.694</ele>
        <time>2024-08-31T07:54:51Z</time>
      </trkpt>
      <trkpt lat="42.70448" lon="1.40662">
        <ele>1602.256</ele>
        <time>2024-08-31T07:54:53Z</time>
      </trkpt>
      <trkpt lat="42.70447" lon="1.40663">
        <ele>1602.206</ele>
        <time>2024-08-31T07:54:55Z</time>
      </trkpt>
      <trkpt lat="42.70446" lon="1.40664">
        <ele>1600.794</ele>
        <time>2024-08-31T07:54:57Z</time>
      </trkpt>
      <trkpt lat="42.70445" lon="1.40663">
        <ele>1601.223</ele>
        <time>2024-08-31T07:54:59Z</time>
      </trkpt>
      <trkpt lat="42.70444" lon="1.40663">
        <ele>1602.151</ele>
        <time>2024-08-31T07:55:01Z</time>
      </trkpt>
      <trkpt lat="42.70443" lon="1.40663">
        <ele>1602.646</ele>
        <time>2024-08-31T07:55:03Z</time>
      </trkpt>
      <trkpt lat="42.70443" lon="1.40662">
        <ele>1602.796</ele>
        <time>2024-08-31T07:55:05Z</time>
      </trkpt>
      <trkpt lat="42.70442" lon="1.40661">
        <ele>1603.288</ele>
        <time>2024-08-31T07:55:07Z</time>
      </trkpt>
      <trkpt lat="42.70441" lon="1.4066">
        <ele>1603.447</ele>
        <time>2024-08-31T07:55:09Z</time>
      </trkpt>
      <trkpt lat="42.7044" lon="1.40659">
        <ele>1603.686</ele>
        <time>2024-08-31T07:55:11Z</time>
      </trkpt>
      <trkpt lat="42.7044" lon="1.40659">
        <ele>1603.076</ele>
        <time>2024-08-31T07:55:13Z</time>
      </trkpt>
      <trkpt lat="42.70439" lon="1.40659">
        <ele>1604.106</ele>
        <time>2024-08-31T07:55:15Z</time>
      </trkpt>
      <trkpt lat="42.70438" lon="1.40659">
        <ele>1603.722</ele>
        <time>2024-08-31T07:55:17Z</time>
      </trkpt>
      <trkpt lat="42.70437" lon="1.40658">
        <ele>1603.277</ele>
        <time>2024-08-31T07:55:19Z</time>
      </trkpt>
      <trkpt lat="42.70437" lon="1.40658">
        <ele>1603.777</ele>
        <time>2024-08-31T07:55:21Z</time>
      </trkpt>
      <trkpt lat="42.70436" lon="1.40659">
        <ele>1604.53</ele>
        <time>2024-08-31T07:55:23Z</time>
      </trkpt>
      <trkpt lat="42.70436" lon="1.40659">
        <ele>1606.896</ele>
        <time>2024-08-31T07:55:25Z</time>
      </trkpt>
      <trkpt lat="42.70436" lon="1.40659">
        <ele>1607.457</ele>
        <time>2024-08-31T07:55:27Z</time>
      </trkpt>
      <trkpt lat="42.70436" lon="1.40659">
        <ele>1609.179</ele>
        <time>2024-08-31T07:55:29Z</time>
      </trkpt>
      <trkpt lat="42.70436" lon="1.40659">
        <ele>1610.594</ele>
        <time>2024-08-31T07:55:31Z</time>
      </trkpt>
      <trkpt lat="42.70436" lon="1.40659">
        <ele>1610.73</ele>
        <time>2024-08-31T07:55:33Z</time>
      </trkpt>
      <trkpt lat="42.70436" lon="1.40659">
        <ele>1610.681</ele>
        <time>2024-08-31T07:55:35Z</time>
      </trkpt>
      <trkpt lat="42.70436" lon="1.40659">
        <ele>1610.594</ele>
        <time>2024-08-31T07:55:37Z</time>
      </trkpt>
      <trkpt lat="42.70436" lon="1.40659">
        <ele>1610.363</ele>
        <time>2024-08-31T07:55:39Z</time>
      </trkpt>
      <trkpt lat="42.70436" lon="1.40659">
        <ele>1609.77</ele>
        <time>2024-08-31T07:55:41Z</time>
      </trkpt>
      <trkpt lat="42.70436" lon="1.40659">
        <ele>1611.377</ele>
        <time>2024-08-31T07:55:43Z</time>
      </trkpt>
      <trkpt lat="42.70436" lon="1.40659">
        <ele>1610.724</ele>
        <time>2024-08-31T07:55:45Z</time>
      </trkpt>
      <trkpt lat="42.70436" lon="1.40659">
        <ele>1610.852</ele>
        <time>2024-08-31T07:55:47Z</time>
      </trkpt>
      <trkpt lat="42.70436" lon="1.40659">
        <ele>1611.254</ele>
        <time>2024-08-31T07:55:49Z</time>
      </trkpt>
      <trkpt lat="42.70429" lon="1.4066">
        <ele>1610.015</ele>
        <time>2024-08-31T07:55:51Z</time>
      </trkpt>
      <trkpt lat="42.70428" lon="1.40659">
        <ele>1611.024</ele>
        <time>2024-08-31T07:55:53Z</time>
      </trkpt>
      <trkpt lat="42.70428" lon="1.40659">
        <ele>1611.522</ele>
        <time>2024-08-31T07:55:55Z</time>
      </trkpt>
      <trkpt lat="42.70427" lon="1.40657">
        <ele>1612.09</ele>
        <time>2024-08-31T07:55:57Z</time>
      </trkpt>
      <trkpt lat="42.70427" lon="1.40656">
        <ele>1612.157</ele>
        <time>2024-08-31T07:55:59Z</time>
      </trkpt>
      <trkpt lat="42.70426" lon="1.40655">
        <ele>1611.134</ele>
        <time>2024-08-31T07:56:01Z</time>
      </trkpt>
      <trkpt lat="42.70425" lon="1.40653">
        <ele>1611.229</ele>
        <time>2024-08-31T07:56:03Z</time>
      </trkpt>
      <trkpt lat="42.70424" lon="1.40652">
        <ele>1610.499</ele>
        <time>2024-08-31T07:56:05Z</time>
      </trkpt>
      <trkpt lat="42.70424" lon="1.40651">
        <ele>1611.833</ele>
        <time>2024-08-31T07:56:07Z</time>
      </trkpt>
      <trkpt lat="42.70423" lon="1.4065">
        <ele>1612.513</ele>
        <time>2024-08-31T07:56:09Z</time>
      </trkpt>
      <trkpt lat="42.70422" lon="1.40649">
        <ele>1612.487</ele>
        <time>2024-08-31T07:56:11Z</time>
      </trkpt>
      <trkpt lat="42.70423" lon="1.40647">
        <ele>1611.92</ele>
        <time>2024-08-31T07:56:13Z</time>
      </trkpt>
      <trkpt lat="42.70423" lon="1.40646">
        <ele>1611.17</ele>
        <time>2024-08-31T07:56:15Z</time>
      </trkpt>
      <trkpt lat="42.70423" lon="1.40644">
        <ele>1612.544</ele>
        <time>2024-08-31T07:56:17Z</time>
      </trkpt>
      <trkpt lat="42.70422" lon="1.40644">
        <ele>1613.151</ele>
        <time>2024-08-31T07:56:19Z</time>
      </trkpt>
      <trkpt lat="42.70422" lon="1.40644">
        <ele>1613.363</ele>
        <time>2024-08-31T07:56:21Z</time>
      </trkpt>
      <trkpt lat="42.70422" lon="1.40644">
        <ele>1614.786</ele>
        <time>2024-08-31T07:56:23Z</time>
      </trkpt>
      <trkpt lat="42.70422" lon="1.40642">
        <ele>1615.921</ele>
        <time>2024-08-31T07:56:25Z</time>
      </trkpt>
      <trkpt lat="42.70422" lon="1.4064">
        <ele>1616.607</ele>
        <time>2024-08-31T07:56:27Z</time>
      </trkpt>
      <trkpt lat="42.70421" lon="1.40639">
        <ele>1616.763</ele>
        <time>2024-08-31T07:56:29Z</time>
      </trkpt>
      <trkpt lat="42.70421" lon="1.40639">
        <ele>1616.859</ele>
        <time>2024-08-31T07:56:31Z</time>
      </trkpt>
      <trkpt lat="42.7042" lon="1.40639">
        <ele>1619.154</ele>
        <time>2024-08-31T07:56:33Z</time>
      </trkpt>
      <trkpt lat="42.70419" lon="1.40639">
        <ele>1619.777</ele>
        <time>2024-08-31T07:56:35Z</time>
      </trkpt>
      <trkpt lat="42.70418" lon="1.40639">
        <ele>1620.24</ele>
        <time>2024-08-31T07:56:37Z</time>
      </trkpt>
      <trkpt lat="42.70417" lon="1.4064">
        <ele>1620.969</ele>
        <time>2024-08-31T07:56:39Z</time>
      </trkpt>
      <trkpt lat="42.70417" lon="1.40642">
        <ele>1621.12</ele>
        <time>2024-08-31T07:56:41Z</time>
      </trkpt>
      <trkpt lat="42.70417" lon="1.40643">
        <ele>1621.244</ele>
        <time>2024-08-31T07:56:43Z</time>
      </trkpt>
      <trkpt lat="42.70417" lon="1.40644">
        <ele>1620.428</ele>
        <time>2024-08-31T07:56:45Z</time>
      </trkpt>
      <trkpt lat="42.70416" lon="1.40644">
        <ele>1620.393</ele>
        <time>2024-08-31T07:56:47Z</time>
      </trkpt>
      <trkpt lat="42.70415" lon="1.40644">
        <ele>1620.878</ele>
        <time>2024-08-31T07:56:49Z</time>
      </trkpt>
      <trkpt lat="42.70414" lon="1.40644">
        <ele>1620.336</ele>
        <time>2024-08-31T07:56:51Z</time>
      </trkpt>
      <trkpt lat="42.70414" lon="1.40644">
        <ele>1621.084</ele>
        <time>2024-08-31T07:56:53Z</time>
      </trkpt>
      <trkpt lat="42.70413" lon="1.40643">
        <ele>1622.459</ele>
        <time>2024-08-31T07:56:55Z</time>
      </trkpt>
      <trkpt lat="42.70412" lon="1.40642">
        <ele>1623.741</ele>
        <time>2024-08-31T07:56:57Z</time>
      </trkpt>
      <trkpt lat="42.70411" lon="1.4064">
        <ele>1623.533</ele>
        <time>2024-08-31T07:56:59Z</time>
      </trkpt>
      <trkpt lat="42.7041" lon="1.40638">
        <ele>1622.95</ele>
        <time>2024-08-31T07:57:01Z</time>
      </trkpt>
      <trkpt lat="42.7041" lon="1.40638">
        <ele>1623.041</ele>
        <time>2024-08-31T07:57:03Z</time>
      </trkpt>
      <trkpt lat="42.70409" lon="1.40637">
        <ele>1623.377</ele>
        <time>2024-08-31T07:57:05Z</time>
      </trkpt>
      <trkpt lat="42.70408" lon="1.40638">
        <ele>1623.448</ele>
        <time>2024-08-31T07:57:07Z</time>
      </trkpt>
      <trkpt lat="42.70408" lon="1.40638">
        <ele>1624.023</ele>
        <time>2024-08-31T07:57:09Z</time>
      </trkpt>
      <trkpt lat="42.70408" lon="1.40639">
        <ele>1624.056</ele>
        <time>2024-08-31T07:57:11Z</time>
      </trkpt>
      <trkpt lat="42.70407" lon="1.40639">
        <ele>1622.767</ele>
        <time>2024-08-31T07:57:13Z</time>
      </trkpt>
      <trkpt lat="42.70406" lon="1.40638">
        <ele>1622.804</ele>
        <time>2024-08-31T07:57:15Z</time>
      </trkpt>
      <trkpt lat="42.70405" lon="1.40637">
        <ele>1623.968</ele>
        <time>2024-08-31T07:57:17Z</time>
      </trkpt>
      <trkpt lat="42.70405" lon="1.40635">
        <ele>1625.021</ele>
        <time>2024-08-31T07:57:19Z</time>
      </trkpt>
      <trkpt lat="42.70404" lon="1.40634">
        <ele>1625.743</ele>
        <time>2024-08-31T07:57:21Z</time>
      </trkpt>
      <trkpt lat="42.70403" lon="1.40632">
        <ele>1624.872</ele>
        <time>2024-08-31T07:57:23Z</time>
      </trkpt>
      <trkpt lat="42.70403" lon="1.40631">
        <ele>1623.993</ele>
        <time>2024-08-31T07:57:25Z</time>
      </trkpt>
      <trkpt lat="42.70403" lon="1.4063">
        <ele>1622.683</ele>
        <time>2024-08-31T07:57:27Z</time>
      </trkpt>
      <trkpt lat="42.70402" lon="1.40629">
        <ele>1623.872</ele>
        <time>2024-08-31T07:57:29Z</time>
      </trkpt>
      <trkpt lat="42.70402" lon="1.40629">
        <ele>1624.894</ele>
        <time>2024-08-31T07:57:31Z</time>
      </trkpt>
      <trkpt lat="42.70402" lon="1.40629">
        <ele>1625.187</ele>
        <time>2024-08-31T07:57:33Z</time>
      </trkpt>
      <trkpt lat="42.70402" lon="1.40629">
        <ele>1625.397</ele>
        <time>2024-08-31T07:57:35Z</time>
      </trkpt>
      <trkpt lat="42.70402" lon="1.40629">
        <ele>1627.437</ele>
        <time>2024-08-31T07:57:37Z</time>
      </trkpt>
      <trkpt lat="42.70402" lon="1.40629">
        <ele>1627.689</ele>
        <time>2024-08-31T07:57:39Z</time>
      </trkpt>
      <trkpt lat="42.70402" lon="1.40629">
        <ele>1627.689</ele>
        <time>2024-08-31T07:57:41Z</time>
      </trkpt>
      <trkpt lat="42.70402" lon="1.40629">
        <ele>1627.685</ele>
        <time>2024-08-31T07:57:43Z</time>
      </trkpt>
      <trkpt lat="42.70402" lon="1.40629">
        <ele>1627.691</ele>
        <time>2024-08-31T07:57:45Z</time>
      </trkpt>
      <trkpt lat="42.70402" lon="1.40629">
        <ele>1627.698</ele>
        <time>2024-08-31T07:57:47Z</time>
      </trkpt>
      <trkpt lat="42.70402" lon="1.40629">
        <ele>1627.709</ele>
        <time>2024-08-31T07:57:49Z</time>
      </trkpt>
      <trkpt lat="42.70402" lon="1.40629">
        <ele>1627.711</ele>
        <time>2024-08-31T07:57:51Z</time>
      </trkpt>
      <trkpt lat="42.70402" lon="1.40629">
        <ele>1627.718</ele>
        <time>2024-08-31T07:57:53Z</time>
      </trkpt>
      <trkpt lat="42.70402" lon="1.40629">
        <ele>1627.827</ele>
        <time>2024-08-31T07:57:55Z</time>
      </trkpt>
      <trkpt lat="42.70402" lon="1.40629">
        <ele>1627.791</ele>
        <time>2024-08-31T07:57:57Z</time>
      </trkpt>
      <trkpt lat="42.70402" lon="1.40629">
        <ele>1627.793</ele>
        <time>2024-08-31T07:57:59Z</time>
      </trkpt>
      <trkpt lat="42.70402" lon="1.40629">
        <ele>1627.797</ele>
        <time>2024-08-31T07:58:01Z</time>
      </trkpt>
      <trkpt lat="42.70402" lon="1.40629">
        <ele>1627.813</ele>
        <time>2024-08-31T07:58:03Z</time>
      </trkpt>
      <trkpt lat="42.70402" lon="1.40629">
        <ele>1627.816</ele>
        <time>2024-08-31T07:58:05Z</time>
      </trkpt>
      <trkpt lat="42.70402" lon="1.40629">
        <ele>1629.085</ele>
        <time>2024-08-31T07:58:07Z</time>
      </trkpt>
      <trkpt lat="42.70403" lon="1.40629">
        <ele>1629.109</ele>
        <time>2024-08-31T07:58:09Z</time>
      </trkpt>
      <trkpt lat="42.70403" lon="1.40627">
        <ele>1629.417</ele>
        <time>2024-08-31T07:58:11Z</time>
      </trkpt>
      <trkpt lat="42.70401" lon="1.40624">
        <ele>1628.669</ele>
        <time>2024-08-31T07:58:13Z</time>
      </trkpt>
      <trkpt lat="42.70401" lon="1.40623">
        <ele>1628.489</ele>
        <time>2024-08-31T07:58:15Z</time>
      </trkpt>
      <trkpt lat="42.704" lon="1.40623">
        <ele>1629.185</ele>
        <time>2024-08-31T07:58:17Z</time>
      </trkpt>
      <trkpt lat="42.70399" lon="1.40622">
        <ele>1628.893</ele>
        <time>2024-08-31T07:58:19Z</time>
      </trkpt>
      <trkpt lat="42.70398" lon="1.40621">
        <ele>1629.274</ele>
        <time>2024-08-31T07:58:21Z</time>
      </trkpt>
      <trkpt lat="42.70397" lon="1.40621">
        <ele>1629.4</ele>
        <time>2024-08-31T07:58:23Z</time>
      </trkpt>
      <trkpt lat="42.70397" lon="1.40621">
        <ele>1629.698</ele>
        <time>2024-08-31T07:58:25Z</time>
      </trkpt>
      <trkpt lat="42.70396" lon="1.4062">
        <ele>1630.549</ele>
        <time>2024-08-31T07:58:27Z</time>
      </trkpt>
      <trkpt lat="42.70396" lon="1.40619">
        <ele>1630.72</ele>
        <time>2024-08-31T07:58:29Z</time>
      </trkpt>
      <trkpt lat="42.70395" lon="1.40618">
        <ele>1631.204</ele>
        <time>2024-08-31T07:58:31Z</time>
      </trkpt>
      <trkpt lat="42.70395" lon="1.40616">
        <ele>1631.634</ele>
        <time>2024-08-31T07:58:33Z</time>
      </trkpt>
      <trkpt lat="42.70394" lon="1.40615">
        <ele>1632.796</ele>
        <time>2024-08-31T07:58:35Z</time>
      </trkpt>
      <trkpt lat="42.70394" lon="1.40614">
        <ele>1632.975</ele>
        <time>2024-08-31T07:58:37Z</time>
      </trkpt>
      <trkpt lat="42.70393" lon="1.40612">
        <ele>1633.646</ele>
        <time>2024-08-31T07:58:39Z</time>
      </trkpt>
      <trkpt lat="42.70393" lon="1.40611">
        <ele>1634.609</ele>
        <time>2024-08-31T07:58:41Z</time>
      </trkpt>
      <trkpt lat="42.70393" lon="1.4061">
        <ele>1634.624</ele>
        <time>2024-08-31T07:58:43Z</time>
      </trkpt>
      <trkpt lat="42.70392" lon="1.40609">
        <ele>1634.849</ele>
        <time>2024-08-31T07:58:45Z</time>
      </trkpt>
      <trkpt lat="42.70391" lon="1.40609">
        <ele>1635.438</ele>
        <time>2024-08-31T07:58:47Z</time>
      </trkpt>
      <trkpt lat="42.7039" lon="1.40609">
        <ele>1636.014</ele>
        <time>2024-08-31T07:58:49Z</time>
      </trkpt>
      <trkpt lat="42.7039" lon="1.40609">
        <ele>1635.422</ele>
        <time>2024-08-31T07:58:51Z</time>
      </trkpt>
      <trkpt lat="42.70389" lon="1.40609">
        <ele>1635.421</ele>
        <time>2024-08-31T07:58:53Z</time>
      </trkpt>
      <trkpt lat="42.70389" lon="1.40608">
        <ele>1636.55</ele>
        <time>2024-08-31T07:58:55Z</time>
      </trkpt>
      <trkpt lat="42.70388" lon="1.40608">
        <ele>1636.437</ele>
        <time>2024-08-31T07:58:57Z</time>
      </trkpt>
      <trkpt lat="42.70387" lon="1.40608">
        <ele>1635.658</ele>
        <time>2024-08-31T07:58:59Z</time>
      </trkpt>
      <trkpt lat="42.70387" lon="1.40609">
        <ele>1636.269</ele>
        <time>2024-08-31T07:59:01Z</time>
      </trkpt>
      <trkpt lat="42.70387" lon="1.40609">
        <ele>1636.27</ele>
        <time>2024-08-31T07:59:03Z</time>
      </trkpt>
      <trkpt lat="42.70387" lon="1.40609">
        <ele>1635.623</ele>
        <time>2024-08-31T07:59:05Z</time>
      </trkpt>
      <trkpt lat="42.70386" lon="1.40609">
        <ele>1635.785</ele>
        <time>2024-08-31T07:59:07Z</time>
      </trkpt>
      <trkpt lat="42.70385" lon="1.40609">
        <ele>1636.347</ele>
        <time>2024-08-31T07:59:09Z</time>
      </trkpt>
      <trkpt lat="42.70385" lon="1.4061">
        <ele>1635.945</ele>
        <time>2024-08-31T07:59:11Z</time>
      </trkpt>
      <trkpt lat="42.70384" lon="1.4061">
        <ele>1636.265</ele>
        <time>2024-08-31T07:59:13Z</time>
      </trkpt>
      <trkpt lat="42.70383" lon="1.4061">
        <ele>1636.582</ele>
        <time>2024-08-31T07:59:15Z</time>
      </trkpt>
      <trkpt lat="42.70382" lon="1.4061">
        <ele>1636.456</ele>
        <time>2024-08-31T07:59:17Z</time>
      </trkpt>
      <trkpt lat="42.70381" lon="1.4061">
        <ele>1636.855</ele>
        <time>2024-08-31T07:59:19Z</time>
      </trkpt>
      <trkpt lat="42.7038" lon="1.4061">
        <ele>1637.642</ele>
        <time>2024-08-31T07:59:21Z</time>
      </trkpt>
      <trkpt lat="42.70379" lon="1.4061">
        <ele>1637.906</ele>
        <time>2024-08-31T07:59:23Z</time>
      </trkpt>
      <trkpt lat="42.70379" lon="1.4061">
        <ele>1639.136</ele>
        <time>2024-08-31T07:59:25Z</time>
      </trkpt>
      <trkpt lat="42.70378" lon="1.40609">
        <ele>1638.58</ele>
        <time>2024-08-31T07:59:27Z</time>
      </trkpt>
      <trkpt lat="42.70378" lon="1.40609">
        <ele>1638.451</ele>
        <time>2024-08-31T07:59:29Z</time>
      </trkpt>
      <trkpt lat="42.70378" lon="1.40609">
        <ele>1639.293</ele>
        <time>2024-08-31T07:59:31Z</time>
      </trkpt>
      <trkpt lat="42.70377" lon="1.40608">
        <ele>1639.769</ele>
        <time>2024-08-31T07:59:33Z</time>
      </trkpt>
      <trkpt lat="42.70376" lon="1.40608">
        <ele>1639.87</ele>
        <time>2024-08-31T07:59:35Z</time>
      </trkpt>
      <trkpt lat="42.70375" lon="1.40607">
        <ele>1640.571</ele>
        <time>2024-08-31T07:59:37Z</time>
      </trkpt>
      <trkpt lat="42.70375" lon="1.40606">
        <ele>1641.134</ele>
        <time>2024-08-31T07:59:39Z</time>
      </trkpt>
      <trkpt lat="42.70373" lon="1.40606">
        <ele>1641.743</ele>
        <time>2024-08-31T07:59:41Z</time>
      </trkpt>
      <trkpt lat="42.70373" lon="1.40607">
        <ele>1641.814</ele>
        <time>2024-08-31T07:59:43Z</time>
      </trkpt>
      <trkpt lat="42.70372" lon="1.40607">
        <ele>1641.612</ele>
        <time>2024-08-31T07:59:45Z</time>
      </trkpt>
      <trkpt lat="42.70371" lon="1.40606">
        <ele>1642.299</ele>
        <time>2024-08-31T07:59:47Z</time>
      </trkpt>
      <trkpt lat="42.70371" lon="1.40605">
        <ele>1642.57</ele>
        <time>2024-08-31T07:59:49Z</time>
      </trkpt>
      <trkpt lat="42.7037" lon="1.40604">
        <ele>1643.28</ele>
        <time>2024-08-31T07:59:51Z</time>
      </trkpt>
      <trkpt lat="42.70369" lon="1.40603">
        <ele>1644.3</ele>
        <time>2024-08-31T07:59:53Z</time>
      </trkpt>
      <trkpt lat="42.70369" lon="1.40603">
        <ele>1644.863</ele>
        <time>2024-08-31T07:59:55Z</time>
      </trkpt>
      <trkpt lat="42.70368" lon="1.40603">
        <ele>1644.661</ele>
        <time>2024-08-31T07:59:57Z</time>
      </trkpt>
      <trkpt lat="42.70367" lon="1.40601">
        <ele>1645.491</ele>
        <time>2024-08-31T07:59:59Z</time>
      </trkpt>
      <trkpt lat="42.70366" lon="1.406">
        <ele>1646.059</ele>
        <time>2024-08-31T08:00:01Z</time>
      </trkpt>
      <trkpt lat="42.70365" lon="1.40599">
        <ele>1646.889</ele>
        <time>2024-08-31T08:00:03Z</time>
      </trkpt>
      <trkpt lat="42.70364" lon="1.40598">
        <ele>1646.931</ele>
        <time>2024-08-31T08:00:05Z</time>
      </trkpt>
      <trkpt lat="42.70364" lon="1.40598">
        <ele>1646.27</ele>
        <time>2024-08-31T08:00:07Z</time>
      </trkpt>
      <trkpt lat="42.70363" lon="1.40597">
        <ele>1646.626</ele>
        <time>2024-08-31T08:00:09Z</time>
      </trkpt>
      <trkpt lat="42.70362" lon="1.40597">
        <ele>1646.139</ele>
        <time>2024-08-31T08:00:11Z</time>
      </trkpt>
      <trkpt lat="42.70361" lon="1.40597">
        <ele>1646.297</ele>
        <time>2024-08-31T08:00:13Z</time>
      </trkpt>
      <trkpt lat="42.7036" lon="1.40596">
        <ele>1647.45</ele>
        <time>2024-08-31T08:00:15Z</time>
      </trkpt>
      <trkpt lat="42.70359" lon="1.40595">
        <ele>1647.435</ele>
        <time>2024-08-31T08:00:17Z</time>
      </trkpt>
      <trkpt lat="42.70358" lon="1.40595">
        <ele>1647.983</ele>
        <time>2024-08-31T08:00:19Z</time>
      </trkpt>
      <trkpt lat="42.70357" lon="1.40595">
        <ele>1648.127</ele>
        <time>2024-08-31T08:00:21Z</time>
      </trkpt>
      <trkpt lat="42.70356" lon="1.40595">
        <ele>1648.994</ele>
        <time>2024-08-31T08:00:23Z</time>
      </trkpt>
      <trkpt lat="42.70356" lon="1.40594">
        <ele>1649.055</ele>
        <time>2024-08-31T08:00:25Z</time>
      </trkpt>
      <trkpt lat="42.70355" lon="1.40594">
        <ele>1648.504</ele>
        <time>2024-08-31T08:00:27Z</time>
      </trkpt>
      <trkpt lat="42.70354" lon="1.40593">
        <ele>1648.693</ele>
        <time>2024-08-31T08:00:29Z</time>
      </trkpt>
      <trkpt lat="42.70353" lon="1.40591">
        <ele>1649.466</ele>
        <time>2024-08-31T08:00:31Z</time>
      </trkpt>
      <trkpt lat="42.70352" lon="1.40591">
        <ele>1650.391</ele>
        <time>2024-08-31T08:00:33Z</time>
      </trkpt>
      <trkpt lat="42.70351" lon="1.4059">
        <ele>1651.124</ele>
        <time>2024-08-31T08:00:35Z</time>
      </trkpt>
      <trkpt lat="42.7035" lon="1.40588">
        <ele>1651.965</ele>
        <time>2024-08-31T08:00:37Z</time>
      </trkpt>
      <trkpt lat="42.70349" lon="1.40588">
        <ele>1651.894</ele>
        <time>2024-08-31T08:00:39Z</time>
      </trkpt>
      <trkpt lat="42.70349" lon="1.40589">
        <ele>1651.841</ele>
        <time>2024-08-31T08:00:41Z</time>
      </trkpt>
      <trkpt lat="42.70348" lon="1.40589">
        <ele>1651.566</ele>
        <time>2024-08-31T08:00:43Z</time>
      </trkpt>
      <trkpt lat="42.70348" lon="1.40588">
        <ele>1650.073</ele>
        <time>2024-08-31T08:00:45Z</time>
      </trkpt>
      <trkpt lat="42.70347" lon="1.40588">
        <ele>1650.602</ele>
        <time>2024-08-31T08:00:47Z</time>
      </trkpt>
      <trkpt lat="42.70346" lon="1.40588">
        <ele>1650.024</ele>
        <time>2024-08-31T08:00:49Z</time>
      </trkpt>
      <trkpt lat="42.70345" lon="1.40588">
        <ele>1650.876</ele>
        <time>2024-08-31T08:00:51Z</time>
      </trkpt>
      <trkpt lat="42.70344" lon="1.40588">
        <ele>1651.336</ele>
        <time>2024-08-31T08:00:53Z</time>
      </trkpt>
      <trkpt lat="42.70343" lon="1.40588">
        <ele>1651.425</ele>
        <time>2024-08-31T08:00:55Z</time>
      </trkpt>
      <trkpt lat="42.70342" lon="1.40588">
        <ele>1651.858</ele>
        <time>2024-08-31T08:00:57Z</time>
      </trkpt>
      <trkpt lat="42.70341" lon="1.40588">
        <ele>1652.595</ele>
        <time>2024-08-31T08:00:59Z</time>
      </trkpt>
      <trkpt lat="42.70341" lon="1.40588">
        <ele>1653.323</ele>
        <time>2024-08-31T08:01:01Z</time>
      </trkpt>
      <trkpt lat="42.7034" lon="1.40588">
        <ele>1653.72</ele>
        <time>2024-08-31T08:01:03Z</time>
      </trkpt>
      <trkpt lat="42.7034" lon="1.40588">
        <ele>1653.925</ele>
        <time>2024-08-31T08:01:05Z</time>
      </trkpt>
      <trkpt lat="42.70339" lon="1.40588">
        <ele>1653.309</ele>
        <time>2024-08-31T08:01:07Z</time>
      </trkpt>
      <trkpt lat="42.70338" lon="1.40588">
        <ele>1653.925</ele>
        <time>2024-08-31T08:01:09Z</time>
      </trkpt>
      <trkpt lat="42.70337" lon="1.40588">
        <ele>1654.022</ele>
        <time>2024-08-31T08:01:11Z</time>
      </trkpt>
      <trkpt lat="42.70337" lon="1.40587">
        <ele>1654.58</ele>
        <time>2024-08-31T08:01:13Z</time>
      </trkpt>
      <trkpt lat="42.70336" lon="1.40586">
        <ele>1655.128</ele>
        <time>2024-08-31T08:01:15Z</time>
      </trkpt>
      <trkpt lat="42.70335" lon="1.40586">
        <ele>1654.967</ele>
        <time>2024-08-31T08:01:17Z</time>
      </trkpt>
      <trkpt lat="42.70334" lon="1.40586">
        <ele>1655.576</ele>
        <time>2024-08-31T08:01:19Z</time>
      </trkpt>
      <trkpt lat="42.70333" lon="1.40586">
        <ele>1657.091</ele>
        <time>2024-08-31T08:01:21Z</time>
      </trkpt>
      <trkpt lat="42.70332" lon="1.40585">
        <ele>1657.122</ele>
        <time>2024-08-31T08:01:23Z</time>
      </trkpt>
      <trkpt lat="42.70331" lon="1.40585">
        <ele>1657.729</ele>
        <time>2024-08-31T08:01:25Z</time>
      </trkpt>
      <trkpt lat="42.7033" lon="1.40584">
        <ele>1658.366</ele>
        <time>2024-08-31T08:01:27Z</time>
      </trkpt>
      <trkpt lat="42.70329" lon="1.40583">
        <ele>1658.133</ele>
        <time>2024-08-31T08:01:29Z</time>
      </trkpt>
      <trkpt lat="42.70328" lon="1.40583">
        <ele>1658.116</ele>
        <time>2024-08-31T08:01:31Z</time>
      </trkpt>
      <trkpt lat="42.70327" lon="1.40583">
        <ele>1658.207</ele>
        <time>2024-08-31T08:01:33Z</time>
      </trkpt>
      <trkpt lat="42.70327" lon="1.40584">
        <ele>1658.319</ele>
        <time>2024-08-31T08:01:35Z</time>
      </trkpt>
      <trkpt lat="42.70326" lon="1.40584">
        <ele>1658.491</ele>
        <time>2024-08-31T08:01:37Z</time>
      </trkpt>
      <trkpt lat="42.70325" lon="1.40583">
        <ele>1658.832</ele>
        <time>2024-08-31T08:01:39Z</time>
      </trkpt>
      <trkpt lat="42.70325" lon="1.40583">
        <ele>1659.456</ele>
        <time>2024-08-31T08:01:41Z</time>
      </trkpt>
      <trkpt lat="42.70324" lon="1.40583">
        <ele>1659.583</ele>
        <time>2024-08-31T08:01:43Z</time>
      </trkpt>
      <trkpt lat="42.70323" lon="1.40583">
        <ele>1659.48</ele>
        <time>2024-08-31T08:01:45Z</time>
      </trkpt>
      <trkpt lat="42.70323" lon="1.40584">
        <ele>1659.644</ele>
        <time>2024-08-31T08:01:47Z</time>
      </trkpt>
      <trkpt lat="42.70322" lon="1.40584">
        <ele>1658.92</ele>
        <time>2024-08-31T08:01:49Z</time>
      </trkpt>
      <trkpt lat="42.70321" lon="1.40584">
        <ele>1659.007</ele>
        <time>2024-08-31T08:01:51Z</time>
      </trkpt>
      <trkpt lat="42.7032" lon="1.40584">
        <ele>1659.684</ele>
        <time>2024-08-31T08:01:53Z</time>
      </trkpt>
      <trkpt lat="42.7032" lon="1.40584">
        <ele>1659.413</ele>
        <time>2024-08-31T08:01:55Z</time>
      </trkpt>
      <trkpt lat="42.70319" lon="1.40584">
        <ele>1660.017</ele>
        <time>2024-08-31T08:01:57Z</time>
      </trkpt>
      <trkpt lat="42.70318" lon="1.40584">
        <ele>1660.152</ele>
        <time>2024-08-31T08:01:59Z</time>
      </trkpt>
      <trkpt lat="42.70317" lon="1.40585">
        <ele>1660.305</ele>
        <time>2024-08-31T08:02:01Z</time>
      </trkpt>
      <trkpt lat="42.70317" lon="1.40585">
        <ele>1660.628</ele>
        <time>2024-08-31T08:02:03Z</time>
      </trkpt>
      <trkpt lat="42.70316" lon="1.40584">
        <ele>1661.02</ele>
        <time>2024-08-31T08:02:05Z</time>
      </trkpt>
      <trkpt lat="42.70315" lon="1.40584">
        <ele>1660.944</ele>
        <time>2024-08-31T08:02:07Z</time>
      </trkpt>
      <trkpt lat="42.70314" lon="1.40584">
        <ele>1660.062</ele>
        <time>2024-08-31T08:02:09Z</time>
      </trkpt>
      <trkpt lat="42.70313" lon="1.40585">
        <ele>1660.601</ele>
        <time>2024-08-31T08:02:11Z</time>
      </trkpt>
      <trkpt lat="42.70312" lon="1.40585">
        <ele>1660.16</ele>
        <time>2024-08-31T08:02:13Z</time>
      </trkpt>
      <trkpt lat="42.70311" lon="1.40586">
        <ele>1660.203</ele>
        <time>2024-08-31T08:02:15Z</time>
      </trkpt>
      <trkpt lat="42.7031" lon="1.40586">
        <ele>1661.208</ele>
        <time>2024-08-31T08:02:17Z</time>
      </trkpt>
      <trkpt lat="42.70309" lon="1.40585">
        <ele>1661.648</ele>
        <time>2024-08-31T08:02:19Z</time>
      </trkpt>
      <trkpt lat="42.70308" lon="1.40586">
        <ele>1661.798</ele>
        <time>2024-08-31T08:02:21Z</time>
      </trkpt>
      <trkpt lat="42.70307" lon="1.40585">
        <ele>1661.985</ele>
        <time>2024-08-31T08:02:23Z</time>
      </trkpt>
      <trkpt lat="42.70306" lon="1.40585">
        <ele>1662.154</ele>
        <time>2024-08-31T08:02:25Z</time>
      </trkpt>
      <trkpt lat="42.70305" lon="1.40585">
        <ele>1661.836</ele>
        <time>2024-08-31T08:02:27Z</time>
      </trkpt>
      <trkpt lat="42.70304" lon="1.40585">
        <ele>1661.643</ele>
        <time>2024-08-31T08:02:29Z</time>
      </trkpt>
      <trkpt lat="42.70303" lon="1.40585">
        <ele>1661.588</ele>
        <time>2024-08-31T08:02:31Z</time>
      </trkpt>
      <trkpt lat="42.70303" lon="1.40586">
        <ele>1662.24</ele>
        <time>2024-08-31T08:02:33Z</time>
      </trkpt>
      <trkpt lat="42.70302" lon="1.40586">
        <ele>1662.504</ele>
        <time>2024-08-31T08:02:35Z</time>
      </trkpt>
      <trkpt lat="42.70301" lon="1.40584">
        <ele>1664.118</ele>
        <time>2024-08-31T08:02:37Z</time>
      </trkpt>
      <trkpt lat="42.703" lon="1.40584">
        <ele>1664.831</ele>
        <time>2024-08-31T08:02:39Z</time>
      </trkpt>
      <trkpt lat="42.70299" lon="1.40584">
        <ele>1664.764</ele>
        <time>2024-08-31T08:02:41Z</time>
      </trkpt>
      <trkpt lat="42.70298" lon="1.40585">
        <ele>1665.131</ele>
        <time>2024-08-31T08:02:43Z</time>
      </trkpt>
      <trkpt lat="42.70298" lon="1.40586">
        <ele>1665.352</ele>
        <time>2024-08-31T08:02:45Z</time>
      </trkpt>
      <trkpt lat="42.70297" lon="1.40587">
        <ele>1665.135</ele>
        <time>2024-08-31T08:02:47Z</time>
      </trkpt>
      <trkpt lat="42.70296" lon="1.40588">
        <ele>1664.138</ele>
        <time>2024-08-31T08:02:49Z</time>
      </trkpt>
      <trkpt lat="42.70295" lon="1.40588">
        <ele>1664.511</ele>
        <time>2024-08-31T08:02:51Z</time>
      </trkpt>
      <trkpt lat="42.70294" lon="1.40588">
        <ele>1665.324</ele>
        <time>2024-08-31T08:02:53Z</time>
      </trkpt>
      <trkpt lat="42.70293" lon="1.40587">
        <ele>1665.745</ele>
        <time>2024-08-31T08:02:55Z</time>
      </trkpt>
      <trkpt lat="42.70291" lon="1.40587">
        <ele>1666.062</ele>
        <time>2024-08-31T08:02:57Z</time>
      </trkpt>
      <trkpt lat="42.7029" lon="1.40587">
        <ele>1666.07</ele>
        <time>2024-08-31T08:02:59Z</time>
      </trkpt>
      <trkpt lat="42.70289" lon="1.40587">
        <ele>1666.104</ele>
        <time>2024-08-31T08:03:01Z</time>
      </trkpt>
      <trkpt lat="42.70287" lon="1.40587">
        <ele>1666.671</ele>
        <time>2024-08-31T08:03:03Z</time>
      </trkpt>
      <trkpt lat="42.70286" lon="1.40586">
        <ele>1667.545</ele>
        <time>2024-08-31T08:03:05Z</time>
      </trkpt>
      <trkpt lat="42.70285" lon="1.40586">
        <ele>1668.414</ele>
        <time>2024-08-31T08:03:07Z</time>
      </trkpt>
      <trkpt lat="42.70283" lon="1.40586">
        <ele>1667.675</ele>
        <time>2024-08-31T08:03:09Z</time>
      </trkpt>
      <trkpt lat="42.70282" lon="1.40586">
        <ele>1667.939</ele>
        <time>2024-08-31T08:03:11Z</time>
      </trkpt>
      <trkpt lat="42.70281" lon="1.40586">
        <ele>1668.227</ele>
        <time>2024-08-31T08:03:13Z</time>
      </trkpt>
      <trkpt lat="42.7028" lon="1.40586">
        <ele>1668.587</ele>
        <time>2024-08-31T08:03:15Z</time>
      </trkpt>
      <trkpt lat="42.70279" lon="1.40585">
        <ele>1668.709</ele>
        <time>2024-08-31T08:03:17Z</time>
      </trkpt>
      <trkpt lat="42.70278" lon="1.40586">
        <ele>1669.346</ele>
        <time>2024-08-31T08:03:19Z</time>
      </trkpt>
      <trkpt lat="42.70278" lon="1.40586">
        <ele>1669.744</ele>
        <time>2024-08-31T08:03:21Z</time>
      </trkpt>
      <trkpt lat="42.70276" lon="1.40587">
        <ele>1669.56</ele>
        <time>2024-08-31T08:03:23Z</time>
      </trkpt>
      <trkpt lat="42.70276" lon="1.40587">
        <ele>1670</ele>
        <time>2024-08-31T08:03:25Z</time>
      </trkpt>
      <trkpt lat="42.70276" lon="1.40587">
        <ele>1670.037</ele>
        <time>2024-08-31T08:03:27Z</time>
      </trkpt>
      <trkpt lat="42.70276" lon="1.40587">
        <ele>1670.03</ele>
        <time>2024-08-31T08:03:29Z</time>
      </trkpt>
      <trkpt lat="42.70276" lon="1.40587">
        <ele>1670.02</ele>
        <time>2024-08-31T08:03:31Z</time>
      </trkpt>
      <trkpt lat="42.70276" lon="1.40587">
        <ele>1670.026</ele>
        <time>2024-08-31T08:03:33Z</time>
      </trkpt>
      <trkpt lat="42.70276" lon="1.40587">
        <ele>1670.017</ele>
        <time>2024-08-31T08:03:35Z</time>
      </trkpt>
      <trkpt lat="42.70276" lon="1.40587">
        <ele>1670.015</ele>
        <time>2024-08-31T08:03:37Z</time>
      </trkpt>
      <trkpt lat="42.70276" lon="1.40587">
        <ele>1670.3</ele>
        <time>2024-08-31T08:03:39Z</time>
      </trkpt>
      <trkpt lat="42.70276" lon="1.40587">
        <ele>1670.299</ele>
        <time>2024-08-31T08:03:41Z</time>
      </trkpt>
      <trkpt lat="42.70276" lon="1.40587">
        <ele>1670.29</ele>
        <time>2024-08-31T08:03:43Z</time>
      </trkpt>
      <trkpt lat="42.70276" lon="1.40587">
        <ele>1670.287</ele>
        <time>2024-08-31T08:03:45Z</time>
      </trkpt>
      <trkpt lat="42.70276" lon="1.40587">
        <ele>1670.283</ele>
        <time>2024-08-31T08:03:47Z</time>
      </trkpt>
      <trkpt lat="42.70276" lon="1.40587">
        <ele>1670.281</ele>
        <time>2024-08-31T08:03:49Z</time>
      </trkpt>
      <trkpt lat="42.70276" lon="1.40587">
        <ele>1670.275</ele>
        <time>2024-08-31T08:03:51Z</time>
      </trkpt>
      <trkpt lat="42.70276" lon="1.40587">
        <ele>1670.278</ele>
        <time>2024-08-31T08:03:53Z</time>
      </trkpt>
      <trkpt lat="42.70276" lon="1.40587">
        <ele>1670.282</ele>
        <time>2024-08-31T08:03:55Z</time>
      </trkpt>
      <trkpt lat="42.70276" lon="1.40587">
        <ele>1670.284</ele>
        <time>2024-08-31T08:03:57Z</time>
      </trkpt>
      <trkpt lat="42.70276" lon="1.40587">
        <ele>1670.284</ele>
        <time>2024-08-31T08:03:59Z</time>
      </trkpt>
      <trkpt lat="42.70276" lon="1.40587">
        <ele>1670.285</ele>
        <time>2024-08-31T08:04:01Z</time>
      </trkpt>
      <trkpt lat="42.70276" lon="1.40587">
        <ele>1670.283</ele>
        <time>2024-08-31T08:04:03Z</time>
      </trkpt>
      <trkpt lat="42.70276" lon="1.40587">
        <ele>1670.286</ele>
        <time>2024-08-31T08:04:05Z</time>
      </trkpt>
      <trkpt lat="42.70276" lon="1.40587">
        <ele>1670.283</ele>
        <time>2024-08-31T08:04:07Z</time>
      </trkpt>
      <trkpt lat="42.70276" lon="1.40587">
        <ele>1670.445</ele>
        <time>2024-08-31T08:04:09Z</time>
      </trkpt>
      <trkpt lat="42.70276" lon="1.40588">
        <ele>1670.456</ele>
        <time>2024-08-31T08:04:11Z</time>
      </trkpt>
      <trkpt lat="42.70276" lon="1.40588">
        <ele>1670.454</ele>
        <time>2024-08-31T08:04:13Z</time>
      </trkpt>
      <trkpt lat="42.70276" lon="1.40588">
        <ele>1670.45</ele>
        <time>2024-08-31T08:04:15Z</time>
      </trkpt>
      <trkpt lat="42.70275" lon="1.40588">
        <ele>1670.589</ele>
        <time>2024-08-31T08:04:17Z</time>
      </trkpt>
      <trkpt lat="42.70274" lon="1.40588">
        <ele>1670.283</ele>
        <time>2024-08-31T08:04:19Z</time>
      </trkpt>
      <trkpt lat="42.70273" lon="1.40588">
        <ele>1670.963</ele>
        <time>2024-08-31T08:04:21Z</time>
      </trkpt>
      <trkpt lat="42.70272" lon="1.40588">
        <ele>1670.881</ele>
        <time>2024-08-31T08:04:23Z</time>
      </trkpt>
      <trkpt lat="42.70271" lon="1.40587">
        <ele>1670.896</ele>
        <time>2024-08-31T08:04:25Z</time>
      </trkpt>
      <trkpt lat="42.70269" lon="1.40586">
        <ele>1670.912</ele>
        <time>2024-08-31T08:04:27Z</time>
      </trkpt>
      <trkpt lat="42.70268" lon="1.40586">
        <ele>1670.743</ele>
        <time>2024-08-31T08:04:29Z</time>
      </trkpt>
      <trkpt lat="42.70267" lon="1.40585">
        <ele>1671.829</ele>
        <time>2024-08-31T08:04:31Z</time>
      </trkpt>
      <trkpt lat="42.70266" lon="1.40585">
        <ele>1671.61</ele>
        <time>2024-08-31T08:04:33Z</time>
      </trkpt>
      <trkpt lat="42.70265" lon="1.40584">
        <ele>1671.2</ele>
        <time>2024-08-31T08:04:35Z</time>
      </trkpt>
      <trkpt lat="42.70264" lon="1.40583">
        <ele>1672.233</ele>
        <time>2024-08-31T08:04:37Z</time>
      </trkpt>
      <trkpt lat="42.70264" lon="1.40582">
        <ele>1672.403</ele>
        <time>2024-08-31T08:04:39Z</time>
      </trkpt>
      <trkpt lat="42.70263" lon="1.4058">
        <ele>1673.329</ele>
        <time>2024-08-31T08:04:41Z</time>
      </trkpt>
      <trkpt lat="42.70262" lon="1.40578">
        <ele>1674.293</ele>
        <time>2024-08-31T08:04:43Z</time>
      </trkpt>
      <trkpt lat="42.70261" lon="1.40577">
        <ele>1674.14</ele>
        <time>2024-08-31T08:04:45Z</time>
      </trkpt>
      <trkpt lat="42.70259" lon="1.40577">
        <ele>1674.596</ele>
        <time>2024-08-31T08:04:47Z</time>
      </trkpt>
      <trkpt lat="42.70258" lon="1.40577">
        <ele>1674.555</ele>
        <time>2024-08-31T08:04:49Z</time>
      </trkpt>
      <trkpt lat="42.70257" lon="1.40576">
        <ele>1675.894</ele>
        <time>2024-08-31T08:04:51Z</time>
      </trkpt>
      <trkpt lat="42.70256" lon="1.40574">
        <ele>1676.714</ele>
        <time>2024-08-31T08:04:53Z</time>
      </trkpt>
      <trkpt lat="42.70255" lon="1.40573">
        <ele>1677.095</ele>
        <time>2024-08-31T08:04:55Z</time>
      </trkpt>
      <trkpt lat="42.70254" lon="1.40571">
        <ele>1677.194</ele>
        <time>2024-08-31T08:04:57Z</time>
      </trkpt>
      <trkpt lat="42.70253" lon="1.4057">
        <ele>1678.285</ele>
        <time>2024-08-31T08:04:59Z</time>
      </trkpt>
      <trkpt lat="42.70252" lon="1.40569">
        <ele>1678.449</ele>
        <time>2024-08-31T08:05:01Z</time>
      </trkpt>
      <trkpt lat="42.70251" lon="1.40569">
        <ele>1678.459</ele>
        <time>2024-08-31T08:05:03Z</time>
      </trkpt>
      <trkpt lat="42.7025" lon="1.40569">
        <ele>1678.362</ele>
        <time>2024-08-31T08:05:05Z</time>
      </trkpt>
      <trkpt lat="42.70249" lon="1.4057">
        <ele>1677.34</ele>
        <time>2024-08-31T08:05:07Z</time>
      </trkpt>
      <trkpt lat="42.70248" lon="1.40569">
        <ele>1677.392</ele>
        <time>2024-08-31T08:05:09Z</time>
      </trkpt>
      <trkpt lat="42.70247" lon="1.40569">
        <ele>1677.697</ele>
        <time>2024-08-31T08:05:11Z</time>
      </trkpt>
      <trkpt lat="42.70246" lon="1.40568">
        <ele>1677.858</ele>
        <time>2024-08-31T08:05:13Z</time>
      </trkpt>
      <trkpt lat="42.70245" lon="1.40566">
        <ele>1678.459</ele>
        <time>2024-08-31T08:05:15Z</time>
      </trkpt>
      <trkpt lat="42.70245" lon="1.40565">
        <ele>1679.369</ele>
        <time>2024-08-31T08:05:17Z</time>
      </trkpt>
      <trkpt lat="42.70244" lon="1.40564">
        <ele>1680.414</ele>
        <time>2024-08-31T08:05:19Z</time>
      </trkpt>
      <trkpt lat="42.70243" lon="1.40563">
        <ele>1680.725</ele>
        <time>2024-08-31T08:05:21Z</time>
      </trkpt>
      <trkpt lat="42.70242" lon="1.40562">
        <ele>1681.514</ele>
        <time>2024-08-31T08:05:23Z</time>
      </trkpt>
      <trkpt lat="42.70241" lon="1.40562">
        <ele>1681.674</ele>
        <time>2024-08-31T08:05:25Z</time>
      </trkpt>
      <trkpt lat="42.7024" lon="1.40561">
        <ele>1681.519</ele>
        <time>2024-08-31T08:05:27Z</time>
      </trkpt>
      <trkpt lat="42.70239" lon="1.4056">
        <ele>1681.496</ele>
        <time>2024-08-31T08:05:29Z</time>
      </trkpt>
      <trkpt lat="42.70237" lon="1.40559">
        <ele>1681.768</ele>
        <time>2024-08-31T08:05:31Z</time>
      </trkpt>
      <trkpt lat="42.70236" lon="1.40559">
        <ele>1682.633</ele>
        <time>2024-08-31T08:05:33Z</time>
      </trkpt>
      <trkpt lat="42.70235" lon="1.40558">
        <ele>1684.542</ele>
        <time>2024-08-31T08:05:35Z</time>
      </trkpt>
      <trkpt lat="42.70233" lon="1.40558">
        <ele>1685.131</ele>
        <time>2024-08-31T08:05:37Z</time>
      </trkpt>
      <trkpt lat="42.70232" lon="1.40557">
        <ele>1685.267</ele>
        <time>2024-08-31T08:05:39Z</time>
      </trkpt>
      <trkpt lat="42.7023" lon="1.40557">
        <ele>1685.194</ele>
        <time>2024-08-31T08:05:41Z</time>
      </trkpt>
      <trkpt lat="42.70228" lon="1.40556">
        <ele>1685.241</ele>
        <time>2024-08-31T08:05:43Z</time>
      </trkpt>
      <trkpt lat="42.70226" lon="1.40556">
        <ele>1684.987</ele>
        <time>2024-08-31T08:05:45Z</time>
      </trkpt>
      <trkpt lat="42.70224" lon="1.40557">
        <ele>1685.07</ele>
        <time>2024-08-31T08:05:47Z</time>
      </trkpt>
      <trkpt lat="42.70223" lon="1.40557">
        <ele>1684.748</ele>
        <time>2024-08-31T08:05:49Z</time>
      </trkpt>
      <trkpt lat="42.70221" lon="1.40558">
        <ele>1685.017</ele>
        <time>2024-08-31T08:05:51Z</time>
      </trkpt>
      <trkpt lat="42.70219" lon="1.40558">
        <ele>1684.683</ele>
        <time>2024-08-31T08:05:53Z</time>
      </trkpt>
      <trkpt lat="42.70218" lon="1.40558">
        <ele>1685.036</ele>
        <time>2024-08-31T08:05:55Z</time>
      </trkpt>
      <trkpt lat="42.70217" lon="1.40558">
        <ele>1685.555</ele>
        <time>2024-08-31T08:05:57Z</time>
      </trkpt>
      <trkpt lat="42.70215" lon="1.40558">
        <ele>1685.638</ele>
        <time>2024-08-31T08:05:59Z</time>
      </trkpt>
      <trkpt lat="42.70214" lon="1.40558">
        <ele>1685.449</ele>
        <time>2024-08-31T08:06:01Z</time>
      </trkpt>
      <trkpt lat="42.70212" lon="1.40558">
        <ele>1685.555</ele>
        <time>2024-08-31T08:06:03Z</time>
      </trkpt>
      <trkpt lat="42.7021" lon="1.40558">
        <ele>1685.827</ele>
        <time>2024-08-31T08:06:05Z</time>
      </trkpt>
      <trkpt lat="42.70208" lon="1.40558">
        <ele>1686.049</ele>
        <time>2024-08-31T08:06:07Z</time>
      </trkpt>
      <trkpt lat="42.70206" lon="1.40557">
        <ele>1686.193</ele>
        <time>2024-08-31T08:06:09Z</time>
      </trkpt>
      <trkpt lat="42.70204" lon="1.40556">
        <ele>1686.057</ele>
        <time>2024-08-31T08:06:11Z</time>
      </trkpt>
      <trkpt lat="42.70202" lon="1.40556">
        <ele>1686.06</ele>
        <time>2024-08-31T08:06:13Z</time>
      </trkpt>
      <trkpt lat="42.702" lon="1.40556">
        <ele>1686.156</ele>
        <time>2024-08-31T08:06:15Z</time>
      </trkpt>
      <trkpt lat="42.70199" lon="1.40556">
        <ele>1686.428</ele>
        <time>2024-08-31T08:06:17Z</time>
      </trkpt>
      <trkpt lat="42.70198" lon="1.40556">
        <ele>1686.57</ele>
        <time>2024-08-31T08:06:19Z</time>
      </trkpt>
      <trkpt lat="42.70196" lon="1.40556">
        <ele>1686.462</ele>
        <time>2024-08-31T08:06:21Z</time>
      </trkpt>
      <trkpt lat="42.70195" lon="1.40556">
        <ele>1686.108</ele>
        <time>2024-08-31T08:06:23Z</time>
      </trkpt>
      <trkpt lat="42.70193" lon="1.40555">
        <ele>1686.901</ele>
        <time>2024-08-31T08:06:25Z</time>
      </trkpt>
      <trkpt lat="42.70192" lon="1.40555">
        <ele>1686.835</ele>
        <time>2024-08-31T08:06:27Z</time>
      </trkpt>
      <trkpt lat="42.70191" lon="1.40555">
        <ele>1686.608</ele>
        <time>2024-08-31T08:06:29Z</time>
      </trkpt>
      <trkpt lat="42.70189" lon="1.40555">
        <ele>1686.927</ele>
        <time>2024-08-31T08:06:31Z</time>
      </trkpt>
      <trkpt lat="42.70188" lon="1.40554">
        <ele>1687.679</ele>
        <time>2024-08-31T08:06:33Z</time>
      </trkpt>
      <trkpt lat="42.70188" lon="1.40554">
        <ele>1687.501</ele>
        <time>2024-08-31T08:06:35Z</time>
      </trkpt>
      <trkpt lat="42.70186" lon="1.40553">
        <ele>1687.939</ele>
        <time>2024-08-31T08:06:37Z</time>
      </trkpt>
      <trkpt lat="42.70185" lon="1.40552">
        <ele>1687.387</ele>
        <time>2024-08-31T08:06:39Z</time>
      </trkpt>
      <trkpt lat="42.70184" lon="1.40553">
        <ele>1688.093</ele>
        <time>2024-08-31T08:06:41Z</time>
      </trkpt>
      <trkpt lat="42.70183" lon="1.40553">
        <ele>1688.274</ele>
        <time>2024-08-31T08:06:43Z</time>
      </trkpt>
      <trkpt lat="42.70183" lon="1.40551">
        <ele>1688.701</ele>
        <time>2024-08-31T08:06:45Z</time>
      </trkpt>
      <trkpt lat="42.70181" lon="1.4055">
        <ele>1689.674</ele>
        <time>2024-08-31T08:06:47Z</time>
      </trkpt>
      <trkpt lat="42.7018" lon="1.40549">
        <ele>1690.804</ele>
        <time>2024-08-31T08:06:49Z</time>
      </trkpt>
      <trkpt lat="42.70179" lon="1.40549">
        <ele>1690.779</ele>
        <time>2024-08-31T08:06:51Z</time>
      </trkpt>
      <trkpt lat="42.70178" lon="1.4055">
        <ele>1690.6</ele>
        <time>2024-08-31T08:06:53Z</time>
      </trkpt>
      <trkpt lat="42.70177" lon="1.40549">
        <ele>1690.548</ele>
        <time>2024-08-31T08:06:55Z</time>
      </trkpt>
      <trkpt lat="42.70176" lon="1.40549">
        <ele>1690.446</ele>
        <time>2024-08-31T08:06:57Z</time>
      </trkpt>
      <trkpt lat="42.70176" lon="1.40548">
        <ele>1690.435</ele>
        <time>2024-08-31T08:06:59Z</time>
      </trkpt>
      <trkpt lat="42.70175" lon="1.40548">
        <ele>1689.607</ele>
        <time>2024-08-31T08:07:01Z</time>
      </trkpt>
      <trkpt lat="42.70174" lon="1.40548">
        <ele>1690.561</ele>
        <time>2024-08-31T08:07:03Z</time>
      </trkpt>
      <trkpt lat="42.70173" lon="1.40549">
        <ele>1689.736</ele>
        <time>2024-08-31T08:07:05Z</time>
      </trkpt>
      <trkpt lat="42.70173" lon="1.40549">
        <ele>1689.12</ele>
        <time>2024-08-31T08:07:07Z</time>
      </trkpt>
      <trkpt lat="42.70172" lon="1.40548">
        <ele>1689.405</ele>
        <time>2024-08-31T08:07:09Z</time>
      </trkpt>
      <trkpt lat="42.70171" lon="1.40548">
        <ele>1688.963</ele>
        <time>2024-08-31T08:07:11Z</time>
      </trkpt>
      <trkpt lat="42.7017" lon="1.40547">
        <ele>1689.602</ele>
        <time>2024-08-31T08:07:13Z</time>
      </trkpt>
      <trkpt lat="42.70169" lon="1.40547">
        <ele>1689.458</ele>
        <time>2024-08-31T08:07:15Z</time>
      </trkpt>
      <trkpt lat="42.70169" lon="1.40546">
        <ele>1689.061</ele>
        <time>2024-08-31T08:07:17Z</time>
      </trkpt>
      <trkpt lat="42.70169" lon="1.40544">
        <ele>1689.302</ele>
        <time>2024-08-31T08:07:19Z</time>
      </trkpt>
      <trkpt lat="42.70168" lon="1.40544">
        <ele>1689.53</ele>
        <time>2024-08-31T08:07:21Z</time>
      </trkpt>
      <trkpt lat="42.70167" lon="1.40543">
        <ele>1689.575</ele>
        <time>2024-08-31T08:07:23Z</time>
      </trkpt>
      <trkpt lat="42.70167" lon="1.40541">
        <ele>1689.997</ele>
        <time>2024-08-31T08:07:25Z</time>
      </trkpt>
      <trkpt lat="42.70166" lon="1.4054">
        <ele>1690.501</ele>
        <time>2024-08-31T08:07:27Z</time>
      </trkpt>
      <trkpt lat="42.70166" lon="1.40539">
        <ele>1689.97</ele>
        <time>2024-08-31T08:07:29Z</time>
      </trkpt>
      <trkpt lat="42.70165" lon="1.40538">
        <ele>1691.05</ele>
        <time>2024-08-31T08:07:31Z</time>
      </trkpt>
      <trkpt lat="42.70164" lon="1.40537">
        <ele>1690.959</ele>
        <time>2024-08-31T08:07:33Z</time>
      </trkpt>
      <trkpt lat="42.70164" lon="1.40536">
        <ele>1690.537</ele>
        <time>2024-08-31T08:07:35Z</time>
      </trkpt>
      <trkpt lat="42.70163" lon="1.40535">
        <ele>1690.633</ele>
        <time>2024-08-31T08:07:37Z</time>
      </trkpt>
      <trkpt lat="42.70163" lon="1.40534">
        <ele>1690.977</ele>
        <time>2024-08-31T08:07:39Z</time>
      </trkpt>
      <trkpt lat="42.70163" lon="1.40532">
        <ele>1691.686</ele>
        <time>2024-08-31T08:07:41Z</time>
      </trkpt>
      <trkpt lat="42.70163" lon="1.40531">
        <ele>1692.277</ele>
        <time>2024-08-31T08:07:43Z</time>
      </trkpt>
      <trkpt lat="42.70163" lon="1.40531">
        <ele>1692.449</ele>
        <time>2024-08-31T08:07:45Z</time>
      </trkpt>
      <trkpt lat="42.70162" lon="1.4053">
        <ele>1693.356</ele>
        <time>2024-08-31T08:07:47Z</time>
      </trkpt>
      <trkpt lat="42.70161" lon="1.40529">
        <ele>1693.763</ele>
        <time>2024-08-31T08:07:49Z</time>
      </trkpt>
      <trkpt lat="42.7016" lon="1.40529">
        <ele>1694.974</ele>
        <time>2024-08-31T08:07:51Z</time>
      </trkpt>
      <trkpt lat="42.7016" lon="1.40529">
        <ele>1694.965</ele>
        <time>2024-08-31T08:07:53Z</time>
      </trkpt>
      <trkpt lat="42.70159" lon="1.40529">
        <ele>1695.574</ele>
        <time>2024-08-31T08:07:55Z</time>
      </trkpt>
      <trkpt lat="42.70158" lon="1.40529">
        <ele>1695.136</ele>
        <time>2024-08-31T08:07:57Z</time>
      </trkpt>
      <trkpt lat="42.70157" lon="1.40529">
        <ele>1695.78</ele>
        <time>2024-08-31T08:07:59Z</time>
      </trkpt>
      <trkpt lat="42.70157" lon="1.4053">
        <ele>1696.02</ele>
        <time>2024-08-31T08:08:01Z</time>
      </trkpt>
      <trkpt lat="42.70156" lon="1.40531">
        <ele>1696.105</ele>
        <time>2024-08-31T08:08:03Z</time>
      </trkpt>
      <trkpt lat="42.70155" lon="1.40532">
        <ele>1696.722</ele>
        <time>2024-08-31T08:08:05Z</time>
      </trkpt>
      <trkpt lat="42.70154" lon="1.40532">
        <ele>1697.049</ele>
        <time>2024-08-31T08:08:07Z</time>
      </trkpt>
      <trkpt lat="42.70153" lon="1.40533">
        <ele>1697.739</ele>
        <time>2024-08-31T08:08:09Z</time>
      </trkpt>
      <trkpt lat="42.70152" lon="1.40533">
        <ele>1697.455</ele>
        <time>2024-08-31T08:08:11Z</time>
      </trkpt>
      <trkpt lat="42.70152" lon="1.40533">
        <ele>1697.93</ele>
        <time>2024-08-31T08:08:12Z</time>
      </trkpt>
      <trkpt lat="42.70151" lon="1.40531">
        <ele>1698.346</ele>
        <time>2024-08-31T08:08:15Z</time>
      </trkpt>
      <trkpt lat="42.7015" lon="1.4053">
        <ele>1698.507</ele>
        <time>2024-08-31T08:08:17Z</time>
      </trkpt>
      <trkpt lat="42.7015" lon="1.40529">
        <ele>1698.426</ele>
        <time>2024-08-31T08:08:19Z</time>
      </trkpt>
      <trkpt lat="42.7015" lon="1.40529">
        <ele>1698.526</ele>
        <time>2024-08-31T08:08:21Z</time>
      </trkpt>
      <trkpt lat="42.70149" lon="1.40529">
        <ele>1698.211</ele>
        <time>2024-08-31T08:08:23Z</time>
      </trkpt>
      <trkpt lat="42.70149" lon="1.40528">
        <ele>1698.17</ele>
        <time>2024-08-31T08:08:25Z</time>
      </trkpt>
      <trkpt lat="42.70149" lon="1.40528">
        <ele>1698.096</ele>
        <time>2024-08-31T08:08:27Z</time>
      </trkpt>
      <trkpt lat="42.70149" lon="1.40528">
        <ele>1698.371</ele>
        <time>2024-08-31T08:08:29Z</time>
      </trkpt>
      <trkpt lat="42.70149" lon="1.40528">
        <ele>1697.9</ele>
        <time>2024-08-31T08:08:31Z</time>
      </trkpt>
      <trkpt lat="42.70149" lon="1.40528">
        <ele>1697.98</ele>
        <time>2024-08-31T08:08:33Z</time>
      </trkpt>
      <trkpt lat="42.70149" lon="1.40528">
        <ele>1697.705</ele>
        <time>2024-08-31T08:08:35Z</time>
      </trkpt>
      <trkpt lat="42.70149" lon="1.40528">
        <ele>1698.855</ele>
        <time>2024-08-31T08:08:37Z</time>
      </trkpt>
      <trkpt lat="42.70149" lon="1.40528">
        <ele>1699.41</ele>
        <time>2024-08-31T08:08:39Z</time>
      </trkpt>
      <trkpt lat="42.70149" lon="1.40528">
        <ele>1699.172</ele>
        <time>2024-08-31T08:08:41Z</time>
      </trkpt>
      <trkpt lat="42.70149" lon="1.40528">
        <ele>1699.325</ele>
        <time>2024-08-31T08:08:43Z</time>
      </trkpt>
      <trkpt lat="42.70149" lon="1.40528">
        <ele>1699.992</ele>
        <time>2024-08-31T08:08:45Z</time>
      </trkpt>
      <trkpt lat="42.70149" lon="1.40528">
        <ele>1701.033</ele>
        <time>2024-08-31T08:08:47Z</time>
      </trkpt>
      <trkpt lat="42.70149" lon="1.40528">
        <ele>1701.395</ele>
        <time>2024-08-31T08:08:49Z</time>
      </trkpt>
      <trkpt lat="42.70149" lon="1.40528">
        <ele>1702.038</ele>
        <time>2024-08-31T08:08:51Z</time>
      </trkpt>
      <trkpt lat="42.70149" lon="1.40528">
        <ele>1702.132</ele>
        <time>2024-08-31T08:08:53Z</time>
      </trkpt>
      <trkpt lat="42.70149" lon="1.40528">
        <ele>1701.883</ele>
        <time>2024-08-31T08:08:55Z</time>
      </trkpt>
      <trkpt lat="42.70149" lon="1.40528">
        <ele>1701.895</ele>
        <time>2024-08-31T08:08:57Z</time>
      </trkpt>
      <trkpt lat="42.70149" lon="1.40528">
        <ele>1702.002</ele>
        <time>2024-08-31T08:08:59Z</time>
      </trkpt>
      <trkpt lat="42.70149" lon="1.40528">
        <ele>1702.113</ele>
        <time>2024-08-31T08:09:01Z</time>
      </trkpt>
      <trkpt lat="42.70149" lon="1.40528">
        <ele>1702.121</ele>
        <time>2024-08-31T08:09:03Z</time>
      </trkpt>
      <trkpt lat="42.70149" lon="1.40528">
        <ele>1702.672</ele>
        <time>2024-08-31T08:09:05Z</time>
      </trkpt>
      <trkpt lat="42.70149" lon="1.40528">
        <ele>1703.906</ele>
        <time>2024-08-31T08:09:07Z</time>
      </trkpt>
      <trkpt lat="42.70149" lon="1.40528">
        <ele>1703.081</ele>
        <time>2024-08-31T08:09:09Z</time>
      </trkpt>
      <trkpt lat="42.70149" lon="1.40528">
        <ele>1701.675</ele>
        <time>2024-08-31T08:09:11Z</time>
      </trkpt>
      <trkpt lat="42.70149" lon="1.40528">
        <ele>1702.639</ele>
        <time>2024-08-31T08:09:13Z</time>
      </trkpt>
      <trkpt lat="42.70149" lon="1.40528">
        <ele>1702.66</ele>
        <time>2024-08-31T08:09:15Z</time>
      </trkpt>
      <trkpt lat="42.70149" lon="1.40528">
        <ele>1702.667</ele>
        <time>2024-08-31T08:09:17Z</time>
      </trkpt>
      <trkpt lat="42.70149" lon="1.40528">
        <ele>1702.675</ele>
        <time>2024-08-31T08:09:19Z</time>
      </trkpt>
      <trkpt lat="42.70149" lon="1.40528">
        <ele>1702.56</ele>
        <time>2024-08-31T08:09:21Z</time>
      </trkpt>
      <trkpt lat="42.70149" lon="1.40528">
        <ele>1702.795</ele>
        <time>2024-08-31T08:09:23Z</time>
      </trkpt>
      <trkpt lat="42.70149" lon="1.40528">
        <ele>1702.976</ele>
        <time>2024-08-31T08:09:25Z</time>
      </trkpt>
      <trkpt lat="42.70149" lon="1.40528">
        <ele>1703.834</ele>
        <time>2024-08-31T08:09:27Z</time>
      </trkpt>
      <trkpt lat="42.70149" lon="1.40528">
        <ele>1703.907</ele>
        <time>2024-08-31T08:09:29Z</time>
      </trkpt>
      <trkpt lat="42.70149" lon="1.40528">
        <ele>1704.442</ele>
        <time>2024-08-31T08:09:31Z</time>
      </trkpt>
      <trkpt lat="42.70149" lon="1.40528">
        <ele>1705.595</ele>
        <time>2024-08-31T08:09:33Z</time>
      </trkpt>
      <trkpt lat="42.70149" lon="1.40528">
        <ele>1706.578</ele>
        <time>2024-08-31T08:09:35Z</time>
      </trkpt>
      <trkpt lat="42.70149" lon="1.40528">
        <ele>1706.711</ele>
        <time>2024-08-31T08:09:37Z</time>
      </trkpt>
      <trkpt lat="42.70149" lon="1.40528">
        <ele>1706.773</ele>
        <time>2024-08-31T08:09:39Z</time>
      </trkpt>
      <trkpt lat="42.70149" lon="1.40528">
        <ele>1705.7</ele>
        <time>2024-08-31T08:09:41Z</time>
      </trkpt>
      <trkpt lat="42.70149" lon="1.40528">
        <ele>1705.624</ele>
        <time>2024-08-31T08:09:43Z</time>
      </trkpt>
      <trkpt lat="42.70139" lon="1.40517">
        <ele>1706.149</ele>
        <time>2024-08-31T08:09:45Z</time>
      </trkpt>
      <trkpt lat="42.70138" lon="1.40516">
        <ele>1707.216</ele>
        <time>2024-08-31T08:09:47Z</time>
      </trkpt>
      <trkpt lat="42.70138" lon="1.40515">
        <ele>1707.458</ele>
        <time>2024-08-31T08:09:49Z</time>
      </trkpt>
      <trkpt lat="42.70137" lon="1.40515">
        <ele>1708.289</ele>
        <time>2024-08-31T08:09:51Z</time>
      </trkpt>
      <trkpt lat="42.70136" lon="1.40514">
        <ele>1708.655</ele>
        <time>2024-08-31T08:09:53Z</time>
      </trkpt>
      <trkpt lat="42.70136" lon="1.40512">
        <ele>1709.75</ele>
        <time>2024-08-31T08:09:55Z</time>
      </trkpt>
      <trkpt lat="42.70135" lon="1.40511">
        <ele>1710.288</ele>
        <time>2024-08-31T08:09:57Z</time>
      </trkpt>
      <trkpt lat="42.70134" lon="1.4051">
        <ele>1710.475</ele>
        <time>2024-08-31T08:09:59Z</time>
      </trkpt>
      <trkpt lat="42.70134" lon="1.4051">
        <ele>1710.544</ele>
        <time>2024-08-31T08:10:01Z</time>
      </trkpt>
      <trkpt lat="42.70133" lon="1.40509">
        <ele>1710.875</ele>
        <time>2024-08-31T08:10:03Z</time>
      </trkpt>
      <trkpt lat="42.70132" lon="1.40509">
        <ele>1711.259</ele>
        <time>2024-08-31T08:10:05Z</time>
      </trkpt>
      <trkpt lat="42.70132" lon="1.4051">
        <ele>1711.596</ele>
        <time>2024-08-31T08:10:07Z</time>
      </trkpt>
      <trkpt lat="42.70132" lon="1.40509">
        <ele>1711.871</ele>
        <time>2024-08-31T08:10:09Z</time>
      </trkpt>
      <trkpt lat="42.70132" lon="1.40509">
        <ele>1711.649</ele>
        <time>2024-08-31T08:10:11Z</time>
      </trkpt>
      <trkpt lat="42.70132" lon="1.40508">
        <ele>1711.092</ele>
        <time>2024-08-31T08:10:13Z</time>
      </trkpt>
      <trkpt lat="42.70132" lon="1.40507">
        <ele>1712.448</ele>
        <time>2024-08-31T08:10:15Z</time>
      </trkpt>
      <trkpt lat="42.70131" lon="1.40507">
        <ele>1713.048</ele>
        <time>2024-08-31T08:10:17Z</time>
      </trkpt>
      <trkpt lat="42.7013" lon="1.40506">
        <ele>1713.723</ele>
        <time>2024-08-31T08:10:19Z</time>
      </trkpt>
      <trkpt lat="42.70129" lon="1.40504">
        <ele>1714.346</ele>
        <time>2024-08-31T08:10:21Z</time>
      </trkpt>
      <trkpt lat="42.70128" lon="1.40503">
        <ele>1714.822</ele>
        <time>2024-08-31T08:10:23Z</time>
      </trkpt>
      <trkpt lat="42.70128" lon="1.40502">
        <ele>1715.016</ele>
        <time>2024-08-31T08:10:25Z</time>
      </trkpt>
      <trkpt lat="42.70128" lon="1.40501">
        <ele>1715.632</ele>
        <time>2024-08-31T08:10:27Z</time>
      </trkpt>
      <trkpt lat="42.70127" lon="1.405">
        <ele>1715.666</ele>
        <time>2024-08-31T08:10:29Z</time>
      </trkpt>
      <trkpt lat="42.70126" lon="1.40501">
        <ele>1715.938</ele>
        <time>2024-08-31T08:10:31Z</time>
      </trkpt>
      <trkpt lat="42.70126" lon="1.40499">
        <ele>1716.246</ele>
        <time>2024-08-31T08:10:33Z</time>
      </trkpt>
      <trkpt lat="42.70125" lon="1.40498">
        <ele>1716.837</ele>
        <time>2024-08-31T08:10:35Z</time>
      </trkpt>
      <trkpt lat="42.70124" lon="1.40497">
        <ele>1717.163</ele>
        <time>2024-08-31T08:10:37Z</time>
      </trkpt>
      <trkpt lat="42.70123" lon="1.40497">
        <ele>1717.893</ele>
        <time>2024-08-31T08:10:39Z</time>
      </trkpt>
      <trkpt lat="42.70123" lon="1.40497">
        <ele>1718.171</ele>
        <time>2024-08-31T08:10:41Z</time>
      </trkpt>
      <trkpt lat="42.70122" lon="1.40496">
        <ele>1718.031</ele>
        <time>2024-08-31T08:10:43Z</time>
      </trkpt>
      <trkpt lat="42.70122" lon="1.40496">
        <ele>1717.989</ele>
        <time>2024-08-31T08:10:45Z</time>
      </trkpt>
      <trkpt lat="42.70122" lon="1.40496">
        <ele>1717.986</ele>
        <time>2024-08-31T08:10:47Z</time>
      </trkpt>
      <trkpt lat="42.70122" lon="1.40496">
        <ele>1717.966</ele>
        <time>2024-08-31T08:10:49Z</time>
      </trkpt>
      <trkpt lat="42.70121" lon="1.40495">
        <ele>1717.888</ele>
        <time>2024-08-31T08:10:51Z</time>
      </trkpt>
      <trkpt lat="42.70121" lon="1.40494">
        <ele>1717.889</ele>
        <time>2024-08-31T08:10:53Z</time>
      </trkpt>
      <trkpt lat="42.7012" lon="1.40493">
        <ele>1717.609</ele>
        <time>2024-08-31T08:10:55Z</time>
      </trkpt>
      <trkpt lat="42.70119" lon="1.40491">
        <ele>1717.433</ele>
        <time>2024-08-31T08:10:57Z</time>
      </trkpt>
      <trkpt lat="42.70118" lon="1.4049">
        <ele>1717.751</ele>
        <time>2024-08-31T08:10:59Z</time>
      </trkpt>
      <trkpt lat="42.70117" lon="1.40489">
        <ele>1717.411</ele>
        <time>2024-08-31T08:11:01Z</time>
      </trkpt>
      <trkpt lat="42.70117" lon="1.40487">
        <ele>1718.071</ele>
        <time>2024-08-31T08:11:03Z</time>
      </trkpt>
      <trkpt lat="42.70117" lon="1.40485">
        <ele>1718.876</ele>
        <time>2024-08-31T08:11:05Z</time>
      </trkpt>
      <trkpt lat="42.70116" lon="1.40483">
        <ele>1719.308</ele>
        <time>2024-08-31T08:11:07Z</time>
      </trkpt>
      <trkpt lat="42.70115" lon="1.40482">
        <ele>1719.918</ele>
        <time>2024-08-31T08:11:09Z</time>
      </trkpt>
      <trkpt lat="42.70114" lon="1.40481">
        <ele>1719.57</ele>
        <time>2024-08-31T08:11:11Z</time>
      </trkpt>
      <trkpt lat="42.70112" lon="1.4048">
        <ele>1720.715</ele>
        <time>2024-08-31T08:11:13Z</time>
      </trkpt>
      <trkpt lat="42.70111" lon="1.40479">
        <ele>1720.226</ele>
        <time>2024-08-31T08:11:15Z</time>
      </trkpt>
      <trkpt lat="42.7011" lon="1.40478">
        <ele>1719.702</ele>
        <time>2024-08-31T08:11:17Z</time>
      </trkpt>
      <trkpt lat="42.70109" lon="1.40476">
        <ele>1720.271</ele>
        <time>2024-08-31T08:11:19Z</time>
      </trkpt>
      <trkpt lat="42.70108" lon="1.40475">
        <ele>1720.466</ele>
        <time>2024-08-31T08:11:21Z</time>
      </trkpt>
      <trkpt lat="42.70107" lon="1.40474">
        <ele>1720.548</ele>
        <time>2024-08-31T08:11:23Z</time>
      </trkpt>
      <trkpt lat="42.70107" lon="1.40472">
        <ele>1720.629</ele>
        <time>2024-08-31T08:11:25Z</time>
      </trkpt>
      <trkpt lat="42.70106" lon="1.40471">
        <ele>1720.45</ele>
        <time>2024-08-31T08:11:27Z</time>
      </trkpt>
      <trkpt lat="42.70105" lon="1.40469">
        <ele>1720.642</ele>
        <time>2024-08-31T08:11:29Z</time>
      </trkpt>
      <trkpt lat="42.70104" lon="1.40468">
        <ele>1720.774</ele>
        <time>2024-08-31T08:11:31Z</time>
      </trkpt>
      <trkpt lat="42.70104" lon="1.40467">
        <ele>1721.493</ele>
        <time>2024-08-31T08:11:33Z</time>
      </trkpt>
      <trkpt lat="42.70103" lon="1.40466">
        <ele>1721.481</ele>
        <time>2024-08-31T08:11:35Z</time>
      </trkpt>
      <trkpt lat="42.70102" lon="1.40464">
        <ele>1721.902</ele>
        <time>2024-08-31T08:11:37Z</time>
      </trkpt>
      <trkpt lat="42.701" lon="1.40464">
        <ele>1723.106</ele>
        <time>2024-08-31T08:11:39Z</time>
      </trkpt>
      <trkpt lat="42.70099" lon="1.40463">
        <ele>1723.459</ele>
        <time>2024-08-31T08:11:41Z</time>
      </trkpt>
      <trkpt lat="42.70098" lon="1.40463">
        <ele>1723.462</ele>
        <time>2024-08-31T08:11:43Z</time>
      </trkpt>
      <trkpt lat="42.70097" lon="1.40464">
        <ele>1723.59</ele>
        <time>2024-08-31T08:11:45Z</time>
      </trkpt>
      <trkpt lat="42.70097" lon="1.40465">
        <ele>1723.491</ele>
        <time>2024-08-31T08:11:47Z</time>
      </trkpt>
      <trkpt lat="42.70096" lon="1.40466">
        <ele>1723.543</ele>
        <time>2024-08-31T08:11:49Z</time>
      </trkpt>
      <trkpt lat="42.70096" lon="1.40466">
        <ele>1723.355</ele>
        <time>2024-08-31T08:11:51Z</time>
      </trkpt>
      <trkpt lat="42.70096" lon="1.40466">
        <ele>1723.303</ele>
        <time>2024-08-31T08:11:53Z</time>
      </trkpt>
      <trkpt lat="42.70096" lon="1.40466">
        <ele>1723.303</ele>
        <time>2024-08-31T08:11:55Z</time>
      </trkpt>
      <trkpt lat="42.70096" lon="1.40466">
        <ele>1723.307</ele>
        <time>2024-08-31T08:11:57Z</time>
      </trkpt>
      <trkpt lat="42.70095" lon="1.40466">
        <ele>1723.112</ele>
        <time>2024-08-31T08:11:59Z</time>
      </trkpt>
      <trkpt lat="42.70093" lon="1.40466">
        <ele>1723.105</ele>
        <time>2024-08-31T08:12:01Z</time>
      </trkpt>
      <trkpt lat="42.70092" lon="1.40466">
        <ele>1723.782</ele>
        <time>2024-08-31T08:12:03Z</time>
      </trkpt>
      <trkpt lat="42.70092" lon="1.40466">
        <ele>1723.132</ele>
        <time>2024-08-31T08:12:05Z</time>
      </trkpt>
      <trkpt lat="42.70091" lon="1.40467">
        <ele>1723.608</ele>
        <time>2024-08-31T08:12:07Z</time>
      </trkpt>
      <trkpt lat="42.7009" lon="1.40466">
        <ele>1723.62</ele>
        <time>2024-08-31T08:12:09Z</time>
      </trkpt>
      <trkpt lat="42.70089" lon="1.40465">
        <ele>1724.66</ele>
        <time>2024-08-31T08:12:11Z</time>
      </trkpt>
      <trkpt lat="42.70088" lon="1.40463">
        <ele>1725.322</ele>
        <time>2024-08-31T08:12:13Z</time>
      </trkpt>
      <trkpt lat="42.70088" lon="1.40462">
        <ele>1725.578</ele>
        <time>2024-08-31T08:12:15Z</time>
      </trkpt>
      <trkpt lat="42.70086" lon="1.40462">
        <ele>1726.271</ele>
        <time>2024-08-31T08:12:17Z</time>
      </trkpt>
      <trkpt lat="42.70085" lon="1.40461">
        <ele>1725.903</ele>
        <time>2024-08-31T08:12:19Z</time>
      </trkpt>
      <trkpt lat="42.70085" lon="1.4046">
        <ele>1726.251</ele>
        <time>2024-08-31T08:12:21Z</time>
      </trkpt>
      <trkpt lat="42.70084" lon="1.40459">
        <ele>1726.303</ele>
        <time>2024-08-31T08:12:23Z</time>
      </trkpt>
      <trkpt lat="42.70084" lon="1.40457">
        <ele>1726.444</ele>
        <time>2024-08-31T08:12:25Z</time>
      </trkpt>
      <trkpt lat="42.70084" lon="1.40455">
        <ele>1727.276</ele>
        <time>2024-08-31T08:12:27Z</time>
      </trkpt>
      <trkpt lat="42.70083" lon="1.40454">
        <ele>1727.342</ele>
        <time>2024-08-31T08:12:29Z</time>
      </trkpt>
      <trkpt lat="42.70082" lon="1.40452">
        <ele>1727.546</ele>
        <time>2024-08-31T08:12:31Z</time>
      </trkpt>
      <trkpt lat="42.70081" lon="1.40451">
        <ele>1727.727</ele>
        <time>2024-08-31T08:12:33Z</time>
      </trkpt>
      <trkpt lat="42.7008" lon="1.40451">
        <ele>1727.759</ele>
        <time>2024-08-31T08:12:35Z</time>
      </trkpt>
      <trkpt lat="42.70079" lon="1.40449">
        <ele>1728.363</ele>
        <time>2024-08-31T08:12:37Z</time>
      </trkpt>
      <trkpt lat="42.7008" lon="1.40448">
        <ele>1729.052</ele>
        <time>2024-08-31T08:12:39Z</time>
      </trkpt>
      <trkpt lat="42.7008" lon="1.40446">
        <ele>1729.692</ele>
        <time>2024-08-31T08:12:41Z</time>
      </trkpt>
      <trkpt lat="42.70079" lon="1.40445">
        <ele>1729.47</ele>
        <time>2024-08-31T08:12:43Z</time>
      </trkpt>
      <trkpt lat="42.70078" lon="1.40443">
        <ele>1729.904</ele>
        <time>2024-08-31T08:12:45Z</time>
      </trkpt>
      <trkpt lat="42.70078" lon="1.40442">
        <ele>1730.52</ele>
        <time>2024-08-31T08:12:47Z</time>
      </trkpt>
      <trkpt lat="42.70077" lon="1.4044">
        <ele>1732.058</ele>
        <time>2024-08-31T08:12:49Z</time>
      </trkpt>
      <trkpt lat="42.70076" lon="1.40439">
        <ele>1731.79</ele>
        <time>2024-08-31T08:12:51Z</time>
      </trkpt>
      <trkpt lat="42.70076" lon="1.40436">
        <ele>1732.746</ele>
        <time>2024-08-31T08:12:53Z</time>
      </trkpt>
      <trkpt lat="42.70075" lon="1.40434">
        <ele>1733.058</ele>
        <time>2024-08-31T08:12:55Z</time>
      </trkpt>
      <trkpt lat="42.70075" lon="1.40433">
        <ele>1734.067</ele>
        <time>2024-08-31T08:12:57Z</time>
      </trkpt>
      <trkpt lat="42.70074" lon="1.40432">
        <ele>1733.837</ele>
        <time>2024-08-31T08:12:59Z</time>
      </trkpt>
      <trkpt lat="42.70074" lon="1.40431">
        <ele>1733.77</ele>
        <time>2024-08-31T08:13:01Z</time>
      </trkpt>
      <trkpt lat="42.70073" lon="1.40431">
        <ele>1733.659</ele>
        <time>2024-08-31T08:13:03Z</time>
      </trkpt>
      <trkpt lat="42.70072" lon="1.4043">
        <ele>1734.112</ele>
        <time>2024-08-31T08:13:05Z</time>
      </trkpt>
      <trkpt lat="42.70071" lon="1.40429">
        <ele>1734.659</ele>
        <time>2024-08-31T08:13:07Z</time>
      </trkpt>
      <trkpt lat="42.7007" lon="1.40429">
        <ele>1735.461</ele>
        <time>2024-08-31T08:13:09Z</time>
      </trkpt>
      <trkpt lat="42.70069" lon="1.4043">
        <ele>1735.362</ele>
        <time>2024-08-31T08:13:11Z</time>
      </trkpt>
      <trkpt lat="42.70068" lon="1.40431">
        <ele>1735.361</ele>
        <time>2024-08-31T08:13:13Z</time>
      </trkpt>
      <trkpt lat="42.70067" lon="1.40432">
        <ele>1735.241</ele>
        <time>2024-08-31T08:13:15Z</time>
      </trkpt>
      <trkpt lat="42.70067" lon="1.40432">
        <ele>1734.506</ele>
        <time>2024-08-31T08:13:17Z</time>
      </trkpt>
      <trkpt lat="42.70066" lon="1.40433">
        <ele>1734.648</ele>
        <time>2024-08-31T08:13:19Z</time>
      </trkpt>
      <trkpt lat="42.70066" lon="1.40434">
        <ele>1733.962</ele>
        <time>2024-08-31T08:13:21Z</time>
      </trkpt>
      <trkpt lat="42.70065" lon="1.40434">
        <ele>1733.772</ele>
        <time>2024-08-31T08:13:23Z</time>
      </trkpt>
      <trkpt lat="42.70064" lon="1.40433">
        <ele>1734.21</ele>
        <time>2024-08-31T08:13:25Z</time>
      </trkpt>
      <trkpt lat="42.70063" lon="1.40433">
        <ele>1733.902</ele>
        <time>2024-08-31T08:13:27Z</time>
      </trkpt>
      <trkpt lat="42.70062" lon="1.40433">
        <ele>1734.746</ele>
        <time>2024-08-31T08:13:29Z</time>
      </trkpt>
      <trkpt lat="42.70062" lon="1.40432">
        <ele>1735.773</ele>
        <time>2024-08-31T08:13:31Z</time>
      </trkpt>
      <trkpt lat="42.70062" lon="1.40431">
        <ele>1735.861</ele>
        <time>2024-08-31T08:13:33Z</time>
      </trkpt>
      <trkpt lat="42.70061" lon="1.40429">
        <ele>1736.563</ele>
        <time>2024-08-31T08:13:35Z</time>
      </trkpt>
      <trkpt lat="42.70061" lon="1.40429">
        <ele>1736.126</ele>
        <time>2024-08-31T08:13:37Z</time>
      </trkpt>
      <trkpt lat="42.7006" lon="1.40428">
        <ele>1736.489</ele>
        <time>2024-08-31T08:13:39Z</time>
      </trkpt>
      <trkpt lat="42.7006" lon="1.40427">
        <ele>1736.829</ele>
        <time>2024-08-31T08:13:41Z</time>
      </trkpt>
      <trkpt lat="42.70059" lon="1.40426">
        <ele>1737.592</ele>
        <time>2024-08-31T08:13:43Z</time>
      </trkpt>
      <trkpt lat="42.70059" lon="1.40425">
        <ele>1738.103</ele>
        <time>2024-08-31T08:13:45Z</time>
      </trkpt>
      <trkpt lat="42.70059" lon="1.40424">
        <ele>1738.536</ele>
        <time>2024-08-31T08:13:47Z</time>
      </trkpt>
      <trkpt lat="42.70058" lon="1.40423">
        <ele>1738.722</ele>
        <time>2024-08-31T08:13:49Z</time>
      </trkpt>
      <trkpt lat="42.70057" lon="1.40421">
        <ele>1739.579</ele>
        <time>2024-08-31T08:13:51Z</time>
      </trkpt>
      <trkpt lat="42.70056" lon="1.4042">
        <ele>1739.775</ele>
        <time>2024-08-31T08:13:53Z</time>
      </trkpt>
      <trkpt lat="42.70056" lon="1.40418">
        <ele>1739.987</ele>
        <time>2024-08-31T08:13:55Z</time>
      </trkpt>
      <trkpt lat="42.70055" lon="1.40417">
        <ele>1739.932</ele>
        <time>2024-08-31T08:13:57Z</time>
      </trkpt>
      <trkpt lat="42.70054" lon="1.40415">
        <ele>1739.601</ele>
        <time>2024-08-31T08:13:59Z</time>
      </trkpt>
      <trkpt lat="42.70054" lon="1.40414">
        <ele>1739.669</ele>
        <time>2024-08-31T08:14:01Z</time>
      </trkpt>
      <trkpt lat="42.70053" lon="1.40412">
        <ele>1739.543</ele>
        <time>2024-08-31T08:14:03Z</time>
      </trkpt>
      <trkpt lat="42.70053" lon="1.40409">
        <ele>1740.296</ele>
        <time>2024-08-31T08:14:05Z</time>
      </trkpt>
      <trkpt lat="42.70052" lon="1.40407">
        <ele>1740.377</ele>
        <time>2024-08-31T08:14:07Z</time>
      </trkpt>
      <trkpt lat="42.70051" lon="1.40407">
        <ele>1740.352</ele>
        <time>2024-08-31T08:14:09Z</time>
      </trkpt>
      <trkpt lat="42.70051" lon="1.40405">
        <ele>1740.345</ele>
        <time>2024-08-31T08:14:11Z</time>
      </trkpt>
      <trkpt lat="42.7005" lon="1.40404">
        <ele>1741.316</ele>
        <time>2024-08-31T08:14:13Z</time>
      </trkpt>
      <trkpt lat="42.70049" lon="1.40403">
        <ele>1742.571</ele>
        <time>2024-08-31T08:14:15Z</time>
      </trkpt>
      <trkpt lat="42.70048" lon="1.40402">
        <ele>1743.078</ele>
        <time>2024-08-31T08:14:17Z</time>
      </trkpt>
      <trkpt lat="42.70047" lon="1.40402">
        <ele>1744.314</ele>
        <time>2024-08-31T08:14:19Z</time>
      </trkpt>
      <trkpt lat="42.70046" lon="1.40401">
        <ele>1743.351</ele>
        <time>2024-08-31T08:14:21Z</time>
      </trkpt>
      <trkpt lat="42.70045" lon="1.40401">
        <ele>1743.213</ele>
        <time>2024-08-31T08:14:23Z</time>
      </trkpt>
      <trkpt lat="42.70045" lon="1.40401">
        <ele>1743.125</ele>
        <time>2024-08-31T08:14:25Z</time>
      </trkpt>
      <trkpt lat="42.70045" lon="1.40401">
        <ele>1743.124</ele>
        <time>2024-08-31T08:14:27Z</time>
      </trkpt>
      <trkpt lat="42.70045" lon="1.40401">
        <ele>1743.12</ele>
        <time>2024-08-31T08:14:29Z</time>
      </trkpt>
      <trkpt lat="42.70045" lon="1.40401">
        <ele>1743.125</ele>
        <time>2024-08-31T08:14:31Z</time>
      </trkpt>
      <trkpt lat="42.70045" lon="1.40401">
        <ele>1743.126</ele>
        <time>2024-08-31T08:14:33Z</time>
      </trkpt>
      <trkpt lat="42.70045" lon="1.40401">
        <ele>1743.131</ele>
        <time>2024-08-31T08:14:35Z</time>
      </trkpt>
      <trkpt lat="42.70045" lon="1.40401">
        <ele>1743.135</ele>
        <time>2024-08-31T08:14:37Z</time>
      </trkpt>
      <trkpt lat="42.70045" lon="1.40401">
        <ele>1743.133</ele>
        <time>2024-08-31T08:14:39Z</time>
      </trkpt>
      <trkpt lat="42.70045" lon="1.40401">
        <ele>1742.941</ele>
        <time>2024-08-31T08:14:41Z</time>
      </trkpt>
      <trkpt lat="42.70045" lon="1.40401">
        <ele>1743.313</ele>
        <time>2024-08-31T08:14:43Z</time>
      </trkpt>
      <trkpt lat="42.70044" lon="1.404">
        <ele>1743.851</ele>
        <time>2024-08-31T08:14:45Z</time>
      </trkpt>
      <trkpt lat="42.70043" lon="1.40398">
        <ele>1743.69</ele>
        <time>2024-08-31T08:14:47Z</time>
      </trkpt>
      <trkpt lat="42.70042" lon="1.40397">
        <ele>1744.689</ele>
        <time>2024-08-31T08:14:49Z</time>
      </trkpt>
      <trkpt lat="42.70041" lon="1.40397">
        <ele>1745.612</ele>
        <time>2024-08-31T08:14:51Z</time>
      </trkpt>
      <trkpt lat="42.7004" lon="1.40396">
        <ele>1746.453</ele>
        <time>2024-08-31T08:14:53Z</time>
      </trkpt>
      <trkpt lat="42.70039" lon="1.40395">
        <ele>1747.191</ele>
        <time>2024-08-31T08:14:55Z</time>
      </trkpt>
      <trkpt lat="42.70038" lon="1.40395">
        <ele>1745.674</ele>
        <time>2024-08-31T08:14:57Z</time>
      </trkpt>
      <trkpt lat="42.70037" lon="1.40395">
        <ele>1746.219</ele>
        <time>2024-08-31T08:14:59Z</time>
      </trkpt>
      <trkpt lat="42.70036" lon="1.40395">
        <ele>1747.32</ele>
        <time>2024-08-31T08:15:01Z</time>
      </trkpt>
      <trkpt lat="42.70035" lon="1.40394">
        <ele>1747.084</ele>
        <time>2024-08-31T08:15:03Z</time>
      </trkpt>
      <trkpt lat="42.70034" lon="1.40393">
        <ele>1747.241</ele>
        <time>2024-08-31T08:15:05Z</time>
      </trkpt>
      <trkpt lat="42.70034" lon="1.40394">
        <ele>1747.622</ele>
        <time>2024-08-31T08:15:07Z</time>
      </trkpt>
      <trkpt lat="42.70033" lon="1.40393">
        <ele>1747.36</ele>
        <time>2024-08-31T08:15:09Z</time>
      </trkpt>
      <trkpt lat="42.70033" lon="1.40392">
        <ele>1748.008</ele>
        <time>2024-08-31T08:15:11Z</time>
      </trkpt>
      <trkpt lat="42.70032" lon="1.40391">
        <ele>1748.297</ele>
        <time>2024-08-31T08:15:13Z</time>
      </trkpt>
      <trkpt lat="42.70031" lon="1.40389">
        <ele>1749.121</ele>
        <time>2024-08-31T08:15:15Z</time>
      </trkpt>
      <trkpt lat="42.70031" lon="1.40387">
        <ele>1749.892</ele>
        <time>2024-08-31T08:15:17Z</time>
      </trkpt>
      <trkpt lat="42.7003" lon="1.40386">
        <ele>1750.401</ele>
        <time>2024-08-31T08:15:19Z</time>
      </trkpt>
      <trkpt lat="42.70029" lon="1.40384">
        <ele>1751.202</ele>
        <time>2024-08-31T08:15:21Z</time>
      </trkpt>
      <trkpt lat="42.70028" lon="1.40383">
        <ele>1751.994</ele>
        <time>2024-08-31T08:15:23Z</time>
      </trkpt>
      <trkpt lat="42.70027" lon="1.40382">
        <ele>1751.897</ele>
        <time>2024-08-31T08:15:25Z</time>
      </trkpt>
      <trkpt lat="42.70026" lon="1.40381">
        <ele>1751.822</ele>
        <time>2024-08-31T08:15:27Z</time>
      </trkpt>
      <trkpt lat="42.70025" lon="1.40379">
        <ele>1752.201</ele>
        <time>2024-08-31T08:15:29Z</time>
      </trkpt>
      <trkpt lat="42.70025" lon="1.40377">
        <ele>1752.049</ele>
        <time>2024-08-31T08:15:31Z</time>
      </trkpt>
      <trkpt lat="42.70023" lon="1.40376">
        <ele>1752.616</ele>
        <time>2024-08-31T08:15:33Z</time>
      </trkpt>
      <trkpt lat="42.70022" lon="1.40375">
        <ele>1753.393</ele>
        <time>2024-08-31T08:15:35Z</time>
      </trkpt>
      <trkpt lat="42.70022" lon="1.40373">
        <ele>1754.171</ele>
        <time>2024-08-31T08:15:37Z</time>
      </trkpt>
      <trkpt lat="42.70021" lon="1.40372">
        <ele>1755.072</ele>
        <time>2024-08-31T08:15:39Z</time>
      </trkpt>
      <trkpt lat="42.7002" lon="1.40371">
        <ele>1755.561</ele>
        <time>2024-08-31T08:15:41Z</time>
      </trkpt>
      <trkpt lat="42.7002" lon="1.40369">
        <ele>1755.08</ele>
        <time>2024-08-31T08:15:43Z</time>
      </trkpt>
      <trkpt lat="42.7002" lon="1.40368">
        <ele>1755.707</ele>
        <time>2024-08-31T08:15:45Z</time>
      </trkpt>
      <trkpt lat="42.70019" lon="1.40367">
        <ele>1755.377</ele>
        <time>2024-08-31T08:15:47Z</time>
      </trkpt>
      <trkpt lat="42.70019" lon="1.40365">
        <ele>1754.137</ele>
        <time>2024-08-31T08:15:49Z</time>
      </trkpt>
      <trkpt lat="42.70018" lon="1.40364">
        <ele>1755.342</ele>
        <time>2024-08-31T08:15:51Z</time>
      </trkpt>
      <trkpt lat="42.70016" lon="1.40363">
        <ele>1755.344</ele>
        <time>2024-08-31T08:15:53Z</time>
      </trkpt>
      <trkpt lat="42.70015" lon="1.40363">
        <ele>1754.993</ele>
        <time>2024-08-31T08:15:55Z</time>
      </trkpt>
      <trkpt lat="42.70013" lon="1.40361">
        <ele>1755.686</ele>
        <time>2024-08-31T08:15:57Z</time>
      </trkpt>
      <trkpt lat="42.70012" lon="1.4036">
        <ele>1756.528</ele>
        <time>2024-08-31T08:15:59Z</time>
      </trkpt>
      <trkpt lat="42.70011" lon="1.40359">
        <ele>1756.732</ele>
        <time>2024-08-31T08:16:01Z</time>
      </trkpt>
      <trkpt lat="42.7001" lon="1.40357">
        <ele>1756.907</ele>
        <time>2024-08-31T08:16:03Z</time>
      </trkpt>
      <trkpt lat="42.70009" lon="1.40356">
        <ele>1756.472</ele>
        <time>2024-08-31T08:16:05Z</time>
      </trkpt>
      <trkpt lat="42.70009" lon="1.40353">
        <ele>1757.423</ele>
        <time>2024-08-31T08:16:07Z</time>
      </trkpt>
      <trkpt lat="42.70009" lon="1.40351">
        <ele>1757.193</ele>
        <time>2024-08-31T08:16:09Z</time>
      </trkpt>
      <trkpt lat="42.70008" lon="1.40349">
        <ele>1758.093</ele>
        <time>2024-08-31T08:16:11Z</time>
      </trkpt>
      <trkpt lat="42.70007" lon="1.40347">
        <ele>1759.268</ele>
        <time>2024-08-31T08:16:13Z</time>
      </trkpt>
      <trkpt lat="42.70006" lon="1.40346">
        <ele>1759.807</ele>
        <time>2024-08-31T08:16:15Z</time>
      </trkpt>
      <trkpt lat="42.70005" lon="1.40345">
        <ele>1760.72</ele>
        <time>2024-08-31T08:16:17Z</time>
      </trkpt>
      <trkpt lat="42.70004" lon="1.40343">
        <ele>1761.058</ele>
        <time>2024-08-31T08:16:19Z</time>
      </trkpt>
      <trkpt lat="42.70003" lon="1.40342">
        <ele>1761.44</ele>
        <time>2024-08-31T08:16:21Z</time>
      </trkpt>
      <trkpt lat="42.70002" lon="1.40341">
        <ele>1761.113</ele>
        <time>2024-08-31T08:16:23Z</time>
      </trkpt>
      <trkpt lat="42.70001" lon="1.4034">
        <ele>1761.675</ele>
        <time>2024-08-31T08:16:25Z</time>
      </trkpt>
      <trkpt lat="42.7" lon="1.40338">
        <ele>1761.417</ele>
        <time>2024-08-31T08:16:27Z</time>
      </trkpt>
      <trkpt lat="42.7" lon="1.40337">
        <ele>1761.183</ele>
        <time>2024-08-31T08:16:29Z</time>
      </trkpt>
      <trkpt lat="42.69999" lon="1.40336">
        <ele>1760.591</ele>
        <time>2024-08-31T08:16:31Z</time>
      </trkpt>
      <trkpt lat="42.69999" lon="1.40334">
        <ele>1760.32</ele>
        <time>2024-08-31T08:16:33Z</time>
      </trkpt>
      <trkpt lat="42.69998" lon="1.40333">
        <ele>1759.898</ele>
        <time>2024-08-31T08:16:35Z</time>
      </trkpt>
      <trkpt lat="42.69997" lon="1.40332">
        <ele>1759.819</ele>
        <time>2024-08-31T08:16:37Z</time>
      </trkpt>
      <trkpt lat="42.69996" lon="1.4033">
        <ele>1760.298</ele>
        <time>2024-08-31T08:16:39Z</time>
      </trkpt>
      <trkpt lat="42.69995" lon="1.40329">
        <ele>1760.037</ele>
        <time>2024-08-31T08:16:41Z</time>
      </trkpt>
      <trkpt lat="42.69995" lon="1.40328">
        <ele>1761.599</ele>
        <time>2024-08-31T08:16:43Z</time>
      </trkpt>
      <trkpt lat="42.69994" lon="1.40327">
        <ele>1762.32</ele>
        <time>2024-08-31T08:16:45Z</time>
      </trkpt>
      <trkpt lat="42.69993" lon="1.40325">
        <ele>1762.187</ele>
        <time>2024-08-31T08:16:47Z</time>
      </trkpt>
      <trkpt lat="42.69993" lon="1.40323">
        <ele>1762.649</ele>
        <time>2024-08-31T08:16:49Z</time>
      </trkpt>
      <trkpt lat="42.69992" lon="1.40322">
        <ele>1764.511</ele>
        <time>2024-08-31T08:16:51Z</time>
      </trkpt>
      <trkpt lat="42.69991" lon="1.40321">
        <ele>1763.663</ele>
        <time>2024-08-31T08:16:53Z</time>
      </trkpt>
      <trkpt lat="42.69991" lon="1.40319">
        <ele>1764.634</ele>
        <time>2024-08-31T08:16:55Z</time>
      </trkpt>
      <trkpt lat="42.6999" lon="1.40317">
        <ele>1764.472</ele>
        <time>2024-08-31T08:16:57Z</time>
      </trkpt>
      <trkpt lat="42.69989" lon="1.40316">
        <ele>1765.273</ele>
        <time>2024-08-31T08:16:59Z</time>
      </trkpt>
      <trkpt lat="42.69988" lon="1.40315">
        <ele>1764.886</ele>
        <time>2024-08-31T08:17:01Z</time>
      </trkpt>
      <trkpt lat="42.69987" lon="1.40314">
        <ele>1765.303</ele>
        <time>2024-08-31T08:17:03Z</time>
      </trkpt>
      <trkpt lat="42.69987" lon="1.40312">
        <ele>1765.852</ele>
        <time>2024-08-31T08:17:05Z</time>
      </trkpt>
      <trkpt lat="42.69986" lon="1.40311">
        <ele>1766.221</ele>
        <time>2024-08-31T08:17:07Z</time>
      </trkpt>
      <trkpt lat="42.69985" lon="1.4031">
        <ele>1765.952</ele>
        <time>2024-08-31T08:17:09Z</time>
      </trkpt>
      <trkpt lat="42.69985" lon="1.40309">
        <ele>1766.739</ele>
        <time>2024-08-31T08:17:11Z</time>
      </trkpt>
      <trkpt lat="42.69984" lon="1.40308">
        <ele>1767.316</ele>
        <time>2024-08-31T08:17:13Z</time>
      </trkpt>
      <trkpt lat="42.69983" lon="1.40307">
        <ele>1768.401</ele>
        <time>2024-08-31T08:17:15Z</time>
      </trkpt>
      <trkpt lat="42.69982" lon="1.40306">
        <ele>1767.715</ele>
        <time>2024-08-31T08:17:17Z</time>
      </trkpt>
      <trkpt lat="42.69981" lon="1.40306">
        <ele>1766.628</ele>
        <time>2024-08-31T08:17:19Z</time>
      </trkpt>
      <trkpt lat="42.69979" lon="1.40306">
        <ele>1766.065</ele>
        <time>2024-08-31T08:17:21Z</time>
      </trkpt>
      <trkpt lat="42.69979" lon="1.40305">
        <ele>1765.705</ele>
        <time>2024-08-31T08:17:23Z</time>
      </trkpt>
      <trkpt lat="42.69978" lon="1.40304">
        <ele>1765.765</ele>
        <time>2024-08-31T08:17:25Z</time>
      </trkpt>
      <trkpt lat="42.69977" lon="1.40303">
        <ele>1765.895</ele>
        <time>2024-08-31T08:17:27Z</time>
      </trkpt>
      <trkpt lat="42.69977" lon="1.40303">
        <ele>1766.88</ele>
        <time>2024-08-31T08:17:29Z</time>
      </trkpt>
      <trkpt lat="42.69977" lon="1.40302">
        <ele>1767.296</ele>
        <time>2024-08-31T08:17:31Z</time>
      </trkpt>
      <trkpt lat="42.69975" lon="1.40301">
        <ele>1767.59</ele>
        <time>2024-08-31T08:17:33Z</time>
      </trkpt>
      <trkpt lat="42.69974" lon="1.40301">
        <ele>1768.12</ele>
        <time>2024-08-31T08:17:35Z</time>
      </trkpt>
      <trkpt lat="42.69974" lon="1.40299">
        <ele>1767.561</ele>
        <time>2024-08-31T08:17:37Z</time>
      </trkpt>
      <trkpt lat="42.69974" lon="1.40298">
        <ele>1767.559</ele>
        <time>2024-08-31T08:17:39Z</time>
      </trkpt>
      <trkpt lat="42.69974" lon="1.40297">
        <ele>1767.924</ele>
        <time>2024-08-31T08:17:41Z</time>
      </trkpt>
      <trkpt lat="42.69974" lon="1.40295">
        <ele>1769.165</ele>
        <time>2024-08-31T08:17:43Z</time>
      </trkpt>
      <trkpt lat="42.69973" lon="1.40294">
        <ele>1769.564</ele>
        <time>2024-08-31T08:17:45Z</time>
      </trkpt>
      <trkpt lat="42.69973" lon="1.40293">
        <ele>1769.397</ele>
        <time>2024-08-31T08:17:47Z</time>
      </trkpt>
      <trkpt lat="42.69972" lon="1.40292">
        <ele>1770.479</ele>
        <time>2024-08-31T08:17:49Z</time>
      </trkpt>
      <trkpt lat="42.69971" lon="1.40291">
        <ele>1770.685</ele>
        <time>2024-08-31T08:17:51Z</time>
      </trkpt>
      <trkpt lat="42.69971" lon="1.4029">
        <ele>1770.989</ele>
        <time>2024-08-31T08:17:53Z</time>
      </trkpt>
      <trkpt lat="42.69971" lon="1.40289">
        <ele>1771.352</ele>
        <time>2024-08-31T08:17:55Z</time>
      </trkpt>
      <trkpt lat="42.6997" lon="1.40287">
        <ele>1771.44</ele>
        <time>2024-08-31T08:17:57Z</time>
      </trkpt>
      <trkpt lat="42.69969" lon="1.40288">
        <ele>1770.383</ele>
        <time>2024-08-31T08:17:59Z</time>
      </trkpt>
      <trkpt lat="42.69967" lon="1.40288">
        <ele>1770.243</ele>
        <time>2024-08-31T08:18:01Z</time>
      </trkpt>
      <trkpt lat="42.69967" lon="1.40287">
        <ele>1770.832</ele>
        <time>2024-08-31T08:18:03Z</time>
      </trkpt>
      <trkpt lat="42.69966" lon="1.40285">
        <ele>1771.19</ele>
        <time>2024-08-31T08:18:05Z</time>
      </trkpt>
      <trkpt lat="42.69966" lon="1.40283">
        <ele>1772.151</ele>
        <time>2024-08-31T08:18:07Z</time>
      </trkpt>
      <trkpt lat="42.69965" lon="1.40282">
        <ele>1772.766</ele>
        <time>2024-08-31T08:18:09Z</time>
      </trkpt>
      <trkpt lat="42.69965" lon="1.4028">
        <ele>1773.138</ele>
        <time>2024-08-31T08:18:11Z</time>
      </trkpt>
      <trkpt lat="42.69965" lon="1.40279">
        <ele>1774.287</ele>
        <time>2024-08-31T08:18:13Z</time>
      </trkpt>
      <trkpt lat="42.69965" lon="1.40277">
        <ele>1775.229</ele>
        <time>2024-08-31T08:18:15Z</time>
      </trkpt>
      <trkpt lat="42.69964" lon="1.40275">
        <ele>1776.464</ele>
        <time>2024-08-31T08:18:17Z</time>
      </trkpt>
      <trkpt lat="42.69964" lon="1.40274">
        <ele>1777.177</ele>
        <time>2024-08-31T08:18:19Z</time>
      </trkpt>
      <trkpt lat="42.69964" lon="1.40273">
        <ele>1777.715</ele>
        <time>2024-08-31T08:18:21Z</time>
      </trkpt>
      <trkpt lat="42.69963" lon="1.40271">
        <ele>1778.033</ele>
        <time>2024-08-31T08:18:23Z</time>
      </trkpt>
      <trkpt lat="42.69963" lon="1.40269">
        <ele>1778.98</ele>
        <time>2024-08-31T08:18:25Z</time>
      </trkpt>
      <trkpt lat="42.69962" lon="1.40268">
        <ele>1778.704</ele>
        <time>2024-08-31T08:18:27Z</time>
      </trkpt>
      <trkpt lat="42.69962" lon="1.40266">
        <ele>1779.325</ele>
        <time>2024-08-31T08:18:29Z</time>
      </trkpt>
      <trkpt lat="42.69961" lon="1.40265">
        <ele>1779.594</ele>
        <time>2024-08-31T08:18:31Z</time>
      </trkpt>
      <trkpt lat="42.6996" lon="1.40264">
        <ele>1779.725</ele>
        <time>2024-08-31T08:18:33Z</time>
      </trkpt>
      <trkpt lat="42.6996" lon="1.40263">
        <ele>1779.767</ele>
        <time>2024-08-31T08:18:35Z</time>
      </trkpt>
      <trkpt lat="42.69959" lon="1.40261">
        <ele>1779.824</ele>
        <time>2024-08-31T08:18:37Z</time>
      </trkpt>
      <trkpt lat="42.69959" lon="1.4026">
        <ele>1779.762</ele>
        <time>2024-08-31T08:18:39Z</time>
      </trkpt>
      <trkpt lat="42.69959" lon="1.40258">
        <ele>1779.839</ele>
        <time>2024-08-31T08:18:41Z</time>
      </trkpt>
      <trkpt lat="42.69958" lon="1.40258">
        <ele>1780.047</ele>
        <time>2024-08-31T08:18:43Z</time>
      </trkpt>
      <trkpt lat="42.69957" lon="1.40257">
        <ele>1780.265</ele>
        <time>2024-08-31T08:18:45Z</time>
      </trkpt>
      <trkpt lat="42.69956" lon="1.40256">
        <ele>1780.158</ele>
        <time>2024-08-31T08:18:47Z</time>
      </trkpt>
      <trkpt lat="42.69956" lon="1.40256">
        <ele>1780.67</ele>
        <time>2024-08-31T08:18:49Z</time>
      </trkpt>
      <trkpt lat="42.69955" lon="1.40255">
        <ele>1780.501</ele>
        <time>2024-08-31T08:18:51Z</time>
      </trkpt>
      <trkpt lat="42.69955" lon="1.40254">
        <ele>1780.473</ele>
        <time>2024-08-31T08:18:53Z</time>
      </trkpt>
      <trkpt lat="42.69954" lon="1.40252">
        <ele>1780.668</ele>
        <time>2024-08-31T08:18:55Z</time>
      </trkpt>
      <trkpt lat="42.69954" lon="1.40251">
        <ele>1780.104</ele>
        <time>2024-08-31T08:18:57Z</time>
      </trkpt>
      <trkpt lat="42.69954" lon="1.4025">
        <ele>1780.33</ele>
        <time>2024-08-31T08:18:59Z</time>
      </trkpt>
      <trkpt lat="42.69954" lon="1.40249">
        <ele>1781.144</ele>
        <time>2024-08-31T08:19:01Z</time>
      </trkpt>
      <trkpt lat="42.69953" lon="1.40248">
        <ele>1780.511</ele>
        <time>2024-08-31T08:19:03Z</time>
      </trkpt>
      <trkpt lat="42.69952" lon="1.40247">
        <ele>1780.608</ele>
        <time>2024-08-31T08:19:05Z</time>
      </trkpt>
      <trkpt lat="42.69952" lon="1.40247">
        <ele>1780.399</ele>
        <time>2024-08-31T08:19:07Z</time>
      </trkpt>
      <trkpt lat="42.69952" lon="1.40245">
        <ele>1780.747</ele>
        <time>2024-08-31T08:19:09Z</time>
      </trkpt>
      <trkpt lat="42.69952" lon="1.40243">
        <ele>1781.362</ele>
        <time>2024-08-31T08:19:11Z</time>
      </trkpt>
      <trkpt lat="42.69952" lon="1.40242">
        <ele>1782.003</ele>
        <time>2024-08-31T08:19:13Z</time>
      </trkpt>
      <trkpt lat="42.69952" lon="1.40241">
        <ele>1782.719</ele>
        <time>2024-08-31T08:19:15Z</time>
      </trkpt>
      <trkpt lat="42.69952" lon="1.40239">
        <ele>1783.302</ele>
        <time>2024-08-31T08:19:17Z</time>
      </trkpt>
      <trkpt lat="42.69952" lon="1.40238">
        <ele>1783.984</ele>
        <time>2024-08-31T08:19:19Z</time>
      </trkpt>
      <trkpt lat="42.69952" lon="1.40237">
        <ele>1783.841</ele>
        <time>2024-08-31T08:19:21Z</time>
      </trkpt>
      <trkpt lat="42.69952" lon="1.40236">
        <ele>1784.25</ele>
        <time>2024-08-31T08:19:23Z</time>
      </trkpt>
      <trkpt lat="42.69952" lon="1.40234">
        <ele>1785.374</ele>
        <time>2024-08-31T08:19:25Z</time>
      </trkpt>
      <trkpt lat="42.69952" lon="1.40232">
        <ele>1786.046</ele>
        <time>2024-08-31T08:19:27Z</time>
      </trkpt>
      <trkpt lat="42.69951" lon="1.4023">
        <ele>1785.95</ele>
        <time>2024-08-31T08:19:29Z</time>
      </trkpt>
      <trkpt lat="42.69951" lon="1.40229">
        <ele>1786.36</ele>
        <time>2024-08-31T08:19:31Z</time>
      </trkpt>
      <trkpt lat="42.6995" lon="1.40227">
        <ele>1786.312</ele>
        <time>2024-08-31T08:19:33Z</time>
      </trkpt>
      <trkpt lat="42.6995" lon="1.40226">
        <ele>1785.897</ele>
        <time>2024-08-31T08:19:35Z</time>
      </trkpt>
      <trkpt lat="42.69949" lon="1.40224">
        <ele>1786.006</ele>
        <time>2024-08-31T08:19:37Z</time>
      </trkpt>
      <trkpt lat="42.69948" lon="1.40223">
        <ele>1786.156</ele>
        <time>2024-08-31T08:19:39Z</time>
      </trkpt>
      <trkpt lat="42.69947" lon="1.40222">
        <ele>1786.312</ele>
        <time>2024-08-31T08:19:41Z</time>
      </trkpt>
      <trkpt lat="42.69946" lon="1.40221">
        <ele>1786.099</ele>
        <time>2024-08-31T08:19:43Z</time>
      </trkpt>
      <trkpt lat="42.69945" lon="1.40221">
        <ele>1784.355</ele>
        <time>2024-08-31T08:19:45Z</time>
      </trkpt>
      <trkpt lat="42.69945" lon="1.4022">
        <ele>1784.146</ele>
        <time>2024-08-31T08:19:47Z</time>
      </trkpt>
      <trkpt lat="42.69944" lon="1.40219">
        <ele>1784.207</ele>
        <time>2024-08-31T08:19:49Z</time>
      </trkpt>
      <trkpt lat="42.69942" lon="1.40219">
        <ele>1783.767</ele>
        <time>2024-08-31T08:19:51Z</time>
      </trkpt>
      <trkpt lat="42.69942" lon="1.40219">
        <ele>1784.042</ele>
        <time>2024-08-31T08:19:53Z</time>
      </trkpt>
      <trkpt lat="42.6994" lon="1.40219">
        <ele>1784.021</ele>
        <time>2024-08-31T08:19:55Z</time>
      </trkpt>
      <trkpt lat="42.6994" lon="1.40218">
        <ele>1784.786</ele>
        <time>2024-08-31T08:19:57Z</time>
      </trkpt>
      <trkpt lat="42.6994" lon="1.40217">
        <ele>1784.862</ele>
        <time>2024-08-31T08:19:59Z</time>
      </trkpt>
      <trkpt lat="42.69939" lon="1.40216">
        <ele>1785.04</ele>
        <time>2024-08-31T08:20:01Z</time>
      </trkpt>
      <trkpt lat="42.6994" lon="1.40214">
        <ele>1784.702</ele>
        <time>2024-08-31T08:20:03Z</time>
      </trkpt>
      <trkpt lat="42.6994" lon="1.40214">
        <ele>1784.528</ele>
        <time>2024-08-31T08:20:05Z</time>
      </trkpt>
      <trkpt lat="42.69941" lon="1.40214">
        <ele>1784.536</ele>
        <time>2024-08-31T08:20:07Z</time>
      </trkpt>
      <trkpt lat="42.69941" lon="1.40214">
        <ele>1784.545</ele>
        <time>2024-08-31T08:20:09Z</time>
      </trkpt>
      <trkpt lat="42.69941" lon="1.40214">
        <ele>1784.544</ele>
        <time>2024-08-31T08:20:11Z</time>
      </trkpt>
      <trkpt lat="42.69941" lon="1.40214">
        <ele>1784.553</ele>
        <time>2024-08-31T08:20:13Z</time>
      </trkpt>
      <trkpt lat="42.69941" lon="1.40214">
        <ele>1784.557</ele>
        <time>2024-08-31T08:20:15Z</time>
      </trkpt>
      <trkpt lat="42.69941" lon="1.40214">
        <ele>1784.563</ele>
        <time>2024-08-31T08:20:17Z</time>
      </trkpt>
      <trkpt lat="42.69941" lon="1.40214">
        <ele>1784.564</ele>
        <time>2024-08-31T08:20:19Z</time>
      </trkpt>
      <trkpt lat="42.69941" lon="1.40214">
        <ele>1784.218</ele>
        <time>2024-08-31T08:20:21Z</time>
      </trkpt>
      <trkpt lat="42.69941" lon="1.40214">
        <ele>1784.049</ele>
        <time>2024-08-31T08:20:23Z</time>
      </trkpt>
      <trkpt lat="42.69941" lon="1.40214">
        <ele>1784.052</ele>
        <time>2024-08-31T08:20:25Z</time>
      </trkpt>
      <trkpt lat="42.69941" lon="1.40214">
        <ele>1784.048</ele>
        <time>2024-08-31T08:20:27Z</time>
      </trkpt>
      <trkpt lat="42.69941" lon="1.40214">
        <ele>1784.061</ele>
        <time>2024-08-31T08:20:29Z</time>
      </trkpt>
      <trkpt lat="42.69941" lon="1.40214">
        <ele>1784.053</ele>
        <time>2024-08-31T08:20:31Z</time>
      </trkpt>
      <trkpt lat="42.69941" lon="1.40214">
        <ele>1784.057</ele>
        <time>2024-08-31T08:20:33Z</time>
      </trkpt>
      <trkpt lat="42.69941" lon="1.40214">
        <ele>1784.049</ele>
        <time>2024-08-31T08:20:35Z</time>
      </trkpt>
      <trkpt lat="42.69941" lon="1.40214">
        <ele>1784.049</ele>
        <time>2024-08-31T08:20:37Z</time>
      </trkpt>
      <trkpt lat="42.69941" lon="1.40214">
        <ele>1784.056</ele>
        <time>2024-08-31T08:20:39Z</time>
      </trkpt>
      <trkpt lat="42.69941" lon="1.40214">
        <ele>1784.063</ele>
        <time>2024-08-31T08:20:41Z</time>
      </trkpt>
      <trkpt lat="42.69941" lon="1.40214">
        <ele>1784.068</ele>
        <time>2024-08-31T08:20:43Z</time>
      </trkpt>
      <trkpt lat="42.69941" lon="1.40214">
        <ele>1784.065</ele>
        <time>2024-08-31T08:20:45Z</time>
      </trkpt>
      <trkpt lat="42.69941" lon="1.40214">
        <ele>1784.069</ele>
        <time>2024-08-31T08:20:47Z</time>
      </trkpt>
      <trkpt lat="42.69941" lon="1.40214">
        <ele>1784.07</ele>
        <time>2024-08-31T08:20:49Z</time>
      </trkpt>
      <trkpt lat="42.69941" lon="1.40214">
        <ele>1784.067</ele>
        <time>2024-08-31T08:20:51Z</time>
      </trkpt>
      <trkpt lat="42.69941" lon="1.40214">
        <ele>1784.193</ele>
        <time>2024-08-31T08:20:53Z</time>
      </trkpt>
      <trkpt lat="42.69941" lon="1.40214">
        <ele>1784.196</ele>
        <time>2024-08-31T08:20:55Z</time>
      </trkpt>
      <trkpt lat="42.69941" lon="1.40214">
        <ele>1784.193</ele>
        <time>2024-08-31T08:20:57Z</time>
      </trkpt>
      <trkpt lat="42.69941" lon="1.40214">
        <ele>1784.19</ele>
        <time>2024-08-31T08:20:59Z</time>
      </trkpt>
      <trkpt lat="42.69941" lon="1.40214">
        <ele>1784.189</ele>
        <time>2024-08-31T08:21:01Z</time>
      </trkpt>
      <trkpt lat="42.69941" lon="1.40214">
        <ele>1784.198</ele>
        <time>2024-08-31T08:21:03Z</time>
      </trkpt>
      <trkpt lat="42.69941" lon="1.40214">
        <ele>1784.21</ele>
        <time>2024-08-31T08:21:05Z</time>
      </trkpt>
      <trkpt lat="42.69941" lon="1.40214">
        <ele>1784.218</ele>
        <time>2024-08-31T08:21:07Z</time>
      </trkpt>
      <trkpt lat="42.69941" lon="1.40214">
        <ele>1784.228</ele>
        <time>2024-08-31T08:21:09Z</time>
      </trkpt>
      <trkpt lat="42.69941" lon="1.40214">
        <ele>1784.235</ele>
        <time>2024-08-31T08:21:11Z</time>
      </trkpt>
      <trkpt lat="42.69941" lon="1.40214">
        <ele>1784.23</ele>
        <time>2024-08-31T08:21:13Z</time>
      </trkpt>
      <trkpt lat="42.69941" lon="1.40214">
        <ele>1784.235</ele>
        <time>2024-08-31T08:21:15Z</time>
      </trkpt>
      <trkpt lat="42.69941" lon="1.40214">
        <ele>1784.238</ele>
        <time>2024-08-31T08:21:17Z</time>
      </trkpt>
      <trkpt lat="42.69941" lon="1.40214">
        <ele>1784.239</ele>
        <time>2024-08-31T08:21:19Z</time>
      </trkpt>
      <trkpt lat="42.69941" lon="1.40214">
        <ele>1784.232</ele>
        <time>2024-08-31T08:21:21Z</time>
      </trkpt>
      <trkpt lat="42.69941" lon="1.40214">
        <ele>1784.244</ele>
        <time>2024-08-31T08:21:23Z</time>
      </trkpt>
      <trkpt lat="42.69941" lon="1.40214">
        <ele>1784.244</ele>
        <time>2024-08-31T08:21:25Z</time>
      </trkpt>
      <trkpt lat="42.69941" lon="1.40214">
        <ele>1784.242</ele>
        <time>2024-08-31T08:21:27Z</time>
      </trkpt>
      <trkpt lat="42.69941" lon="1.40214">
        <ele>1784.246</ele>
        <time>2024-08-31T08:21:29Z</time>
      </trkpt>
      <trkpt lat="42.69941" lon="1.40214">
        <ele>1784.243</ele>
        <time>2024-08-31T08:21:31Z</time>
      </trkpt>
      <trkpt lat="42.69941" lon="1.40214">
        <ele>1784.236</ele>
        <time>2024-08-31T08:21:33Z</time>
      </trkpt>
      <trkpt lat="42.69941" lon="1.40214">
        <ele>1784.235</ele>
        <time>2024-08-31T08:21:35Z</time>
      </trkpt>
      <trkpt lat="42.69941" lon="1.40214">
        <ele>1784.234</ele>
        <time>2024-08-31T08:21:37Z</time>
      </trkpt>
      <trkpt lat="42.69941" lon="1.40214">
        <ele>1784.244</ele>
        <time>2024-08-31T08:21:39Z</time>
      </trkpt>
      <trkpt lat="42.69941" lon="1.40214">
        <ele>1784.253</ele>
        <time>2024-08-31T08:21:41Z</time>
      </trkpt>
      <trkpt lat="42.69941" lon="1.40214">
        <ele>1784.254</ele>
        <time>2024-08-31T08:21:43Z</time>
      </trkpt>
      <trkpt lat="42.69941" lon="1.40214">
        <ele>1784.258</ele>
        <time>2024-08-31T08:21:45Z</time>
      </trkpt>
      <trkpt lat="42.69941" lon="1.40214">
        <ele>1784.26</ele>
        <time>2024-08-31T08:21:47Z</time>
      </trkpt>
      <trkpt lat="42.69941" lon="1.40214">
        <ele>1784.255</ele>
        <time>2024-08-31T08:21:49Z</time>
      </trkpt>
      <trkpt lat="42.69941" lon="1.40214">
        <ele>1784.263</ele>
        <time>2024-08-31T08:21:51Z</time>
      </trkpt>
      <trkpt lat="42.69941" lon="1.40214">
        <ele>1784.261</ele>
        <time>2024-08-31T08:21:53Z</time>
      </trkpt>
      <trkpt lat="42.69941" lon="1.40214">
        <ele>1784.269</ele>
        <time>2024-08-31T08:21:55Z</time>
      </trkpt>
      <trkpt lat="42.69941" lon="1.40214">
        <ele>1784.275</ele>
        <time>2024-08-31T08:21:57Z</time>
      </trkpt>
      <trkpt lat="42.69941" lon="1.40214">
        <ele>1784.277</ele>
        <time>2024-08-31T08:21:59Z</time>
      </trkpt>
      <trkpt lat="42.69941" lon="1.40214">
        <ele>1784.276</ele>
        <time>2024-08-31T08:22:01Z</time>
      </trkpt>
      <trkpt lat="42.69941" lon="1.40214">
        <ele>1784.272</ele>
        <time>2024-08-31T08:22:03Z</time>
      </trkpt>
      <trkpt lat="42.69941" lon="1.40214">
        <ele>1784.27</ele>
        <time>2024-08-31T08:22:05Z</time>
      </trkpt>
      <trkpt lat="42.69941" lon="1.40214">
        <ele>1784.273</ele>
        <time>2024-08-31T08:22:07Z</time>
      </trkpt>
      <trkpt lat="42.69941" lon="1.40214">
        <ele>1784.27</ele>
        <time>2024-08-31T08:22:09Z</time>
      </trkpt>
      <trkpt lat="42.69941" lon="1.40214">
        <ele>1784.272</ele>
        <time>2024-08-31T08:22:11Z</time>
      </trkpt>
      <trkpt lat="42.69941" lon="1.40214">
        <ele>1784.276</ele>
        <time>2024-08-31T08:22:13Z</time>
      </trkpt>
      <trkpt lat="42.69941" lon="1.40214">
        <ele>1784.278</ele>
        <time>2024-08-31T08:22:15Z</time>
      </trkpt>
      <trkpt lat="42.69941" lon="1.40214">
        <ele>1784.277</ele>
        <time>2024-08-31T08:22:17Z</time>
      </trkpt>
      <trkpt lat="42.69941" lon="1.40214">
        <ele>1784.279</ele>
        <time>2024-08-31T08:22:19Z</time>
      </trkpt>
      <trkpt lat="42.69941" lon="1.40214">
        <ele>1783.964</ele>
        <time>2024-08-31T08:22:21Z</time>
      </trkpt>
      <trkpt lat="42.69941" lon="1.40214">
        <ele>1783.458</ele>
        <time>2024-08-31T08:22:23Z</time>
      </trkpt>
      <trkpt lat="42.69941" lon="1.40214">
        <ele>1783.591</ele>
        <time>2024-08-31T08:22:25Z</time>
      </trkpt>
      <trkpt lat="42.69941" lon="1.40214">
        <ele>1783.712</ele>
        <time>2024-08-31T08:22:27Z</time>
      </trkpt>
      <trkpt lat="42.69941" lon="1.40214">
        <ele>1783.707</ele>
        <time>2024-08-31T08:22:29Z</time>
      </trkpt>
      <trkpt lat="42.69941" lon="1.40214">
        <ele>1783.706</ele>
        <time>2024-08-31T08:22:31Z</time>
      </trkpt>
      <trkpt lat="42.69941" lon="1.40214">
        <ele>1783.711</ele>
        <time>2024-08-31T08:22:33Z</time>
      </trkpt>
      <trkpt lat="42.69941" lon="1.40214">
        <ele>1783.71</ele>
        <time>2024-08-31T08:22:35Z</time>
      </trkpt>
      <trkpt lat="42.69941" lon="1.40214">
        <ele>1783.704</ele>
        <time>2024-08-31T08:22:37Z</time>
      </trkpt>
      <trkpt lat="42.69941" lon="1.40214">
        <ele>1783.714</ele>
        <time>2024-08-31T08:22:39Z</time>
      </trkpt>
      <trkpt lat="42.69941" lon="1.40214">
        <ele>1783.713</ele>
        <time>2024-08-31T08:22:41Z</time>
      </trkpt>
      <trkpt lat="42.69941" lon="1.40214">
        <ele>1783.707</ele>
        <time>2024-08-31T08:22:43Z</time>
      </trkpt>
      <trkpt lat="42.69941" lon="1.40214">
        <ele>1783.866</ele>
        <time>2024-08-31T08:22:45Z</time>
      </trkpt>
      <trkpt lat="42.69941" lon="1.40214">
        <ele>1783.875</ele>
        <time>2024-08-31T08:22:47Z</time>
      </trkpt>
      <trkpt lat="42.69941" lon="1.40214">
        <ele>1783.874</ele>
        <time>2024-08-31T08:22:49Z</time>
      </trkpt>
      <trkpt lat="42.69941" lon="1.40214">
        <ele>1784.064</ele>
        <time>2024-08-31T08:22:51Z</time>
      </trkpt>
      <trkpt lat="42.69941" lon="1.40214">
        <ele>1784.075</ele>
        <time>2024-08-31T08:22:53Z</time>
      </trkpt>
      <trkpt lat="42.69941" lon="1.40214">
        <ele>1784.072</ele>
        <time>2024-08-31T08:22:55Z</time>
      </trkpt>
      <trkpt lat="42.69941" lon="1.40214">
        <ele>1784.068</ele>
        <time>2024-08-31T08:22:57Z</time>
      </trkpt>
      <trkpt lat="42.69941" lon="1.40214">
        <ele>1784.071</ele>
        <time>2024-08-31T08:22:59Z</time>
      </trkpt>
      <trkpt lat="42.69941" lon="1.40214">
        <ele>1784.082</ele>
        <time>2024-08-31T08:23:01Z</time>
      </trkpt>
      <trkpt lat="42.69941" lon="1.40214">
        <ele>1784.092</ele>
        <time>2024-08-31T08:23:03Z</time>
      </trkpt>
      <trkpt lat="42.69941" lon="1.40214">
        <ele>1784.099</ele>
        <time>2024-08-31T08:23:05Z</time>
      </trkpt>
      <trkpt lat="42.69941" lon="1.40214">
        <ele>1784.094</ele>
        <time>2024-08-31T08:23:07Z</time>
      </trkpt>
      <trkpt lat="42.69941" lon="1.40214">
        <ele>1784.099</ele>
        <time>2024-08-31T08:23:09Z</time>
      </trkpt>
      <trkpt lat="42.69941" lon="1.40214">
        <ele>1784.099</ele>
        <time>2024-08-31T08:23:11Z</time>
      </trkpt>
      <trkpt lat="42.69941" lon="1.40214">
        <ele>1784.104</ele>
        <time>2024-08-31T08:23:13Z</time>
      </trkpt>
      <trkpt lat="42.69941" lon="1.40214">
        <ele>1784.103</ele>
        <time>2024-08-31T08:23:15Z</time>
      </trkpt>
      <trkpt lat="42.69941" lon="1.40214">
        <ele>1784.109</ele>
        <time>2024-08-31T08:23:17Z</time>
      </trkpt>
      <trkpt lat="42.69941" lon="1.40214">
        <ele>1784.108</ele>
        <time>2024-08-31T08:23:19Z</time>
      </trkpt>
      <trkpt lat="42.69941" lon="1.40214">
        <ele>1784.111</ele>
        <time>2024-08-31T08:23:21Z</time>
      </trkpt>
      <trkpt lat="42.69941" lon="1.40214">
        <ele>1784.116</ele>
        <time>2024-08-31T08:23:23Z</time>
      </trkpt>
      <trkpt lat="42.69941" lon="1.40214">
        <ele>1784.125</ele>
        <time>2024-08-31T08:23:25Z</time>
      </trkpt>
      <trkpt lat="42.69941" lon="1.40214">
        <ele>1784.125</ele>
        <time>2024-08-31T08:23:27Z</time>
      </trkpt>
      <trkpt lat="42.69941" lon="1.40214">
        <ele>1784.116</ele>
        <time>2024-08-31T08:23:29Z</time>
      </trkpt>
      <trkpt lat="42.69941" lon="1.40214">
        <ele>1784.112</ele>
        <time>2024-08-31T08:23:31Z</time>
      </trkpt>
      <trkpt lat="42.69941" lon="1.40214">
        <ele>1784.115</ele>
        <time>2024-08-31T08:23:33Z</time>
      </trkpt>
      <trkpt lat="42.69941" lon="1.40214">
        <ele>1784.113</ele>
        <time>2024-08-31T08:23:35Z</time>
      </trkpt>
      <trkpt lat="42.69941" lon="1.40214">
        <ele>1784.117</ele>
        <time>2024-08-31T08:23:37Z</time>
      </trkpt>
      <trkpt lat="42.69941" lon="1.40214">
        <ele>1784.113</ele>
        <time>2024-08-31T08:23:39Z</time>
      </trkpt>
      <trkpt lat="42.69941" lon="1.40214">
        <ele>1784.113</ele>
        <time>2024-08-31T08:23:41Z</time>
      </trkpt>
      <trkpt lat="42.69941" lon="1.40214">
        <ele>1784.112</ele>
        <time>2024-08-31T08:23:43Z</time>
      </trkpt>
      <trkpt lat="42.69941" lon="1.40214">
        <ele>1784.112</ele>
        <time>2024-08-31T08:23:45Z</time>
      </trkpt>
      <trkpt lat="42.69939" lon="1.40212">
        <ele>1783.904</ele>
        <time>2024-08-31T08:23:47Z</time>
      </trkpt>
      <trkpt lat="42.6994" lon="1.40211">
        <ele>1784.057</ele>
        <time>2024-08-31T08:23:49Z</time>
      </trkpt>
      <trkpt lat="42.6994" lon="1.4021">
        <ele>1783.769</ele>
        <time>2024-08-31T08:23:51Z</time>
      </trkpt>
      <trkpt lat="42.69939" lon="1.40209">
        <ele>1784.062</ele>
        <time>2024-08-31T08:23:53Z</time>
      </trkpt>
      <trkpt lat="42.69939" lon="1.40208">
        <ele>1784.454</ele>
        <time>2024-08-31T08:23:55Z</time>
      </trkpt>
      <trkpt lat="42.69938" lon="1.40207">
        <ele>1783.657</ele>
        <time>2024-08-31T08:23:57Z</time>
      </trkpt>
      <trkpt lat="42.69938" lon="1.40204">
        <ele>1783.666</ele>
        <time>2024-08-31T08:23:59Z</time>
      </trkpt>
      <trkpt lat="42.69938" lon="1.40204">
        <ele>1785.306</ele>
        <time>2024-08-31T08:24:01Z</time>
      </trkpt>
      <trkpt lat="42.69937" lon="1.40203">
        <ele>1786.415</ele>
        <time>2024-08-31T08:24:03Z</time>
      </trkpt>
      <trkpt lat="42.69936" lon="1.40203">
        <ele>1787.674</ele>
        <time>2024-08-31T08:24:05Z</time>
      </trkpt>
      <trkpt lat="42.69935" lon="1.40201">
        <ele>1788.356</ele>
        <time>2024-08-31T08:24:07Z</time>
      </trkpt>
      <trkpt lat="42.69934" lon="1.40201">
        <ele>1792.298</ele>
        <time>2024-08-31T08:24:09Z</time>
      </trkpt>
      <trkpt lat="42.69934" lon="1.402">
        <ele>1793.537</ele>
        <time>2024-08-31T08:24:11Z</time>
      </trkpt>
      <trkpt lat="42.69932" lon="1.40199">
        <ele>1793.785</ele>
        <time>2024-08-31T08:24:13Z</time>
      </trkpt>
      <trkpt lat="42.69932" lon="1.40198">
        <ele>1793.802</ele>
        <time>2024-08-31T08:24:15Z</time>
      </trkpt>
      <trkpt lat="42.69931" lon="1.40197">
        <ele>1794.527</ele>
        <time>2024-08-31T08:24:17Z</time>
      </trkpt>
      <trkpt lat="42.69929" lon="1.40195">
        <ele>1794.554</ele>
        <time>2024-08-31T08:24:19Z</time>
      </trkpt>
      <trkpt lat="42.69928" lon="1.40194">
        <ele>1793.569</ele>
        <time>2024-08-31T08:24:21Z</time>
      </trkpt>
      <trkpt lat="42.69927" lon="1.40194">
        <ele>1794.788</ele>
        <time>2024-08-31T08:24:23Z</time>
      </trkpt>
      <trkpt lat="42.69926" lon="1.40193">
        <ele>1794.213</ele>
        <time>2024-08-31T08:24:25Z</time>
      </trkpt>
      <trkpt lat="42.69924" lon="1.40192">
        <ele>1795.295</ele>
        <time>2024-08-31T08:24:27Z</time>
      </trkpt>
      <trkpt lat="42.69923" lon="1.40193">
        <ele>1796.618</ele>
        <time>2024-08-31T08:24:29Z</time>
      </trkpt>
      <trkpt lat="42.69922" lon="1.40193">
        <ele>1797.368</ele>
        <time>2024-08-31T08:24:31Z</time>
      </trkpt>
      <trkpt lat="42.69921" lon="1.40194">
        <ele>1798.452</ele>
        <time>2024-08-31T08:24:33Z</time>
      </trkpt>
      <trkpt lat="42.6992" lon="1.40193">
        <ele>1797.3</ele>
        <time>2024-08-31T08:24:35Z</time>
      </trkpt>
      <trkpt lat="42.6992" lon="1.40193">
        <ele>1797.992</ele>
        <time>2024-08-31T08:24:37Z</time>
      </trkpt>
      <trkpt lat="42.6992" lon="1.40193">
        <ele>1797.985</ele>
        <time>2024-08-31T08:24:39Z</time>
      </trkpt>
      <trkpt lat="42.6992" lon="1.40193">
        <ele>1798.186</ele>
        <time>2024-08-31T08:24:41Z</time>
      </trkpt>
      <trkpt lat="42.6992" lon="1.40193">
        <ele>1798.109</ele>
        <time>2024-08-31T08:24:43Z</time>
      </trkpt>
      <trkpt lat="42.6992" lon="1.40193">
        <ele>1798.207</ele>
        <time>2024-08-31T08:24:45Z</time>
      </trkpt>
      <trkpt lat="42.6992" lon="1.40193">
        <ele>1798.857</ele>
        <time>2024-08-31T08:24:47Z</time>
      </trkpt>
      <trkpt lat="42.6992" lon="1.40193">
        <ele>1798.259</ele>
        <time>2024-08-31T08:24:49Z</time>
      </trkpt>
      <trkpt lat="42.6992" lon="1.40193">
        <ele>1798.651</ele>
        <time>2024-08-31T08:24:51Z</time>
      </trkpt>
      <trkpt lat="42.6992" lon="1.40193">
        <ele>1798.874</ele>
        <time>2024-08-31T08:24:53Z</time>
      </trkpt>
      <trkpt lat="42.6992" lon="1.40193">
        <ele>1799.141</ele>
        <time>2024-08-31T08:24:55Z</time>
      </trkpt>
      <trkpt lat="42.69913" lon="1.4019">
        <ele>1798.79</ele>
        <time>2024-08-31T08:24:57Z</time>
      </trkpt>
      <trkpt lat="42.69912" lon="1.40188">
        <ele>1798.69</ele>
        <time>2024-08-31T08:24:59Z</time>
      </trkpt>
      <trkpt lat="42.69911" lon="1.40187">
        <ele>1799.157</ele>
        <time>2024-08-31T08:25:01Z</time>
      </trkpt>
      <trkpt lat="42.6991" lon="1.40186">
        <ele>1799.218</ele>
        <time>2024-08-31T08:25:03Z</time>
      </trkpt>
      <trkpt lat="42.69909" lon="1.40185">
        <ele>1798.639</ele>
        <time>2024-08-31T08:25:05Z</time>
      </trkpt>
      <trkpt lat="42.69906" lon="1.40183">
        <ele>1797.992</ele>
        <time>2024-08-31T08:25:07Z</time>
      </trkpt>
      <trkpt lat="42.69904" lon="1.4018">
        <ele>1797.56</ele>
        <time>2024-08-31T08:25:09Z</time>
      </trkpt>
      <trkpt lat="42.69902" lon="1.4018">
        <ele>1797.565</ele>
        <time>2024-08-31T08:25:11Z</time>
      </trkpt>
      <trkpt lat="42.69901" lon="1.40182">
        <ele>1797.126</ele>
        <time>2024-08-31T08:25:13Z</time>
      </trkpt>
      <trkpt lat="42.699" lon="1.40184">
        <ele>1795.641</ele>
        <time>2024-08-31T08:25:15Z</time>
      </trkpt>
      <trkpt lat="42.69899" lon="1.40184">
        <ele>1794.87</ele>
        <time>2024-08-31T08:25:17Z</time>
      </trkpt>
      <trkpt lat="42.69898" lon="1.40184">
        <ele>1794.544</ele>
        <time>2024-08-31T08:25:19Z</time>
      </trkpt>
      <trkpt lat="42.69897" lon="1.40184">
        <ele>1796.131</ele>
        <time>2024-08-31T08:25:21Z</time>
      </trkpt>
      <trkpt lat="42.69896" lon="1.40183">
        <ele>1796.443</ele>
        <time>2024-08-31T08:25:23Z</time>
      </trkpt>
      <trkpt lat="42.69895" lon="1.40182">
        <ele>1796.017</ele>
        <time>2024-08-31T08:25:25Z</time>
      </trkpt>
      <trkpt lat="42.69894" lon="1.40181">
        <ele>1796.626</ele>
        <time>2024-08-31T08:25:27Z</time>
      </trkpt>
      <trkpt lat="42.69893" lon="1.40181">
        <ele>1796.942</ele>
        <time>2024-08-31T08:25:29Z</time>
      </trkpt>
      <trkpt lat="42.69891" lon="1.4018">
        <ele>1797.378</ele>
        <time>2024-08-31T08:25:31Z</time>
      </trkpt>
      <trkpt lat="42.6989" lon="1.40179">
        <ele>1797.707</ele>
        <time>2024-08-31T08:25:33Z</time>
      </trkpt>
      <trkpt lat="42.69888" lon="1.40178">
        <ele>1798.54</ele>
        <time>2024-08-31T08:25:35Z</time>
      </trkpt>
      <trkpt lat="42.69887" lon="1.40178">
        <ele>1798.594</ele>
        <time>2024-08-31T08:25:37Z</time>
      </trkpt>
      <trkpt lat="42.69885" lon="1.40177">
        <ele>1798.932</ele>
        <time>2024-08-31T08:25:39Z</time>
      </trkpt>
      <trkpt lat="42.69883" lon="1.40176">
        <ele>1798.563</ele>
        <time>2024-08-31T08:25:41Z</time>
      </trkpt>
      <trkpt lat="42.69882" lon="1.40175">
        <ele>1799.17</ele>
        <time>2024-08-31T08:25:43Z</time>
      </trkpt>
      <trkpt lat="42.6988" lon="1.40175">
        <ele>1799.441</ele>
        <time>2024-08-31T08:25:45Z</time>
      </trkpt>
      <trkpt lat="42.69879" lon="1.40174">
        <ele>1798.94</ele>
        <time>2024-08-31T08:25:47Z</time>
      </trkpt>
      <trkpt lat="42.69877" lon="1.40174">
        <ele>1799.948</ele>
        <time>2024-08-31T08:25:49Z</time>
      </trkpt>
      <trkpt lat="42.69876" lon="1.40175">
        <ele>1800.435</ele>
        <time>2024-08-31T08:25:51Z</time>
      </trkpt>
      <trkpt lat="42.69875" lon="1.40175">
        <ele>1800.143</ele>
        <time>2024-08-31T08:25:53Z</time>
      </trkpt>
      <trkpt lat="42.69873" lon="1.40174">
        <ele>1801.193</ele>
        <time>2024-08-31T08:25:55Z</time>
      </trkpt>
      <trkpt lat="42.69872" lon="1.40173">
        <ele>1801.336</ele>
        <time>2024-08-31T08:25:57Z</time>
      </trkpt>
      <trkpt lat="42.69871" lon="1.40173">
        <ele>1801.116</ele>
        <time>2024-08-31T08:25:59Z</time>
      </trkpt>
      <trkpt lat="42.69869" lon="1.40173">
        <ele>1801.466</ele>
        <time>2024-08-31T08:26:01Z</time>
      </trkpt>
      <trkpt lat="42.69868" lon="1.40174">
        <ele>1800.837</ele>
        <time>2024-08-31T08:26:03Z</time>
      </trkpt>
      <trkpt lat="42.69867" lon="1.40175">
        <ele>1800.045</ele>
        <time>2024-08-31T08:26:05Z</time>
      </trkpt>
      <trkpt lat="42.69866" lon="1.40176">
        <ele>1800.766</ele>
        <time>2024-08-31T08:26:07Z</time>
      </trkpt>
      <trkpt lat="42.69865" lon="1.40176">
        <ele>1800.086</ele>
        <time>2024-08-31T08:26:09Z</time>
      </trkpt>
      <trkpt lat="42.69862" lon="1.40176">
        <ele>1800.798</ele>
        <time>2024-08-31T08:26:12Z</time>
      </trkpt>
      <trkpt lat="42.69861" lon="1.40175">
        <ele>1800.674</ele>
        <time>2024-08-31T08:26:14Z</time>
      </trkpt>
      <trkpt lat="42.6986" lon="1.40174">
        <ele>1801.612</ele>
        <time>2024-08-31T08:26:16Z</time>
      </trkpt>
      <trkpt lat="42.6986" lon="1.40174">
        <ele>1802.489</ele>
        <time>2024-08-31T08:26:18Z</time>
      </trkpt>
      <trkpt lat="42.69859" lon="1.40173">
        <ele>1804.04</ele>
        <time>2024-08-31T08:26:20Z</time>
      </trkpt>
      <trkpt lat="42.69858" lon="1.40172">
        <ele>1804.278</ele>
        <time>2024-08-31T08:26:22Z</time>
      </trkpt>
      <trkpt lat="42.69856" lon="1.40171">
        <ele>1803.826</ele>
        <time>2024-08-31T08:26:24Z</time>
      </trkpt>
      <trkpt lat="42.69855" lon="1.40169">
        <ele>1804.806</ele>
        <time>2024-08-31T08:26:26Z</time>
      </trkpt>
      <trkpt lat="42.69855" lon="1.40167">
        <ele>1805.884</ele>
        <time>2024-08-31T08:26:28Z</time>
      </trkpt>
      <trkpt lat="42.69854" lon="1.40166">
        <ele>1806.168</ele>
        <time>2024-08-31T08:26:30Z</time>
      </trkpt>
      <trkpt lat="42.69853" lon="1.40165">
        <ele>1806.492</ele>
        <time>2024-08-31T08:26:32Z</time>
      </trkpt>
      <trkpt lat="42.69853" lon="1.40164">
        <ele>1807.555</ele>
        <time>2024-08-31T08:26:34Z</time>
      </trkpt>
      <trkpt lat="42.69852" lon="1.40162">
        <ele>1808.727</ele>
        <time>2024-08-31T08:26:36Z</time>
      </trkpt>
      <trkpt lat="42.69851" lon="1.40161">
        <ele>1809.015</ele>
        <time>2024-08-31T08:26:38Z</time>
      </trkpt>
      <trkpt lat="42.6985" lon="1.40161">
        <ele>1809.406</ele>
        <time>2024-08-31T08:26:40Z</time>
      </trkpt>
      <trkpt lat="42.69849" lon="1.40159">
        <ele>1809.416</ele>
        <time>2024-08-31T08:26:42Z</time>
      </trkpt>
      <trkpt lat="42.69848" lon="1.40158">
        <ele>1810.33</ele>
        <time>2024-08-31T08:26:44Z</time>
      </trkpt>
      <trkpt lat="42.69847" lon="1.40157">
        <ele>1809.968</ele>
        <time>2024-08-31T08:26:46Z</time>
      </trkpt>
      <trkpt lat="42.69846" lon="1.40156">
        <ele>1810.201</ele>
        <time>2024-08-31T08:26:48Z</time>
      </trkpt>
      <trkpt lat="42.69845" lon="1.40156">
        <ele>1811.317</ele>
        <time>2024-08-31T08:26:50Z</time>
      </trkpt>
      <trkpt lat="42.69845" lon="1.40154">
        <ele>1811.565</ele>
        <time>2024-08-31T08:26:52Z</time>
      </trkpt>
      <trkpt lat="42.69844" lon="1.40153">
        <ele>1811.867</ele>
        <time>2024-08-31T08:26:54Z</time>
      </trkpt>
      <trkpt lat="42.69843" lon="1.40153">
        <ele>1811.864</ele>
        <time>2024-08-31T08:26:56Z</time>
      </trkpt>
      <trkpt lat="42.69842" lon="1.40152">
        <ele>1811.703</ele>
        <time>2024-08-31T08:26:58Z</time>
      </trkpt>
      <trkpt lat="42.69841" lon="1.40152">
        <ele>1812.493</ele>
        <time>2024-08-31T08:27:00Z</time>
      </trkpt>
      <trkpt lat="42.6984" lon="1.40153">
        <ele>1813.224</ele>
        <time>2024-08-31T08:27:02Z</time>
      </trkpt>
      <trkpt lat="42.69839" lon="1.40153">
        <ele>1812.975</ele>
        <time>2024-08-31T08:27:04Z</time>
      </trkpt>
      <trkpt lat="42.69838" lon="1.4015">
        <ele>1813.462</ele>
        <time>2024-08-31T08:27:06Z</time>
      </trkpt>
      <trkpt lat="42.69838" lon="1.40149">
        <ele>1814.642</ele>
        <time>2024-08-31T08:27:08Z</time>
      </trkpt>
      <trkpt lat="42.69838" lon="1.40149">
        <ele>1815.032</ele>
        <time>2024-08-31T08:27:10Z</time>
      </trkpt>
      <trkpt lat="42.69838" lon="1.40149">
        <ele>1815.03</ele>
        <time>2024-08-31T08:27:12Z</time>
      </trkpt>
      <trkpt lat="42.69838" lon="1.40149">
        <ele>1815.017</ele>
        <time>2024-08-31T08:27:14Z</time>
      </trkpt>
      <trkpt lat="42.69838" lon="1.40149">
        <ele>1815.026</ele>
        <time>2024-08-31T08:27:16Z</time>
      </trkpt>
      <trkpt lat="42.69838" lon="1.40149">
        <ele>1815.024</ele>
        <time>2024-08-31T08:27:18Z</time>
      </trkpt>
      <trkpt lat="42.69838" lon="1.40149">
        <ele>1814.995</ele>
        <time>2024-08-31T08:27:20Z</time>
      </trkpt>
      <trkpt lat="42.69838" lon="1.40149">
        <ele>1814.96</ele>
        <time>2024-08-31T08:27:22Z</time>
      </trkpt>
      <trkpt lat="42.69838" lon="1.40149">
        <ele>1814.977</ele>
        <time>2024-08-31T08:27:24Z</time>
      </trkpt>
      <trkpt lat="42.69838" lon="1.40149">
        <ele>1814.981</ele>
        <time>2024-08-31T08:27:26Z</time>
      </trkpt>
      <trkpt lat="42.69838" lon="1.40149">
        <ele>1814.986</ele>
        <time>2024-08-31T08:27:28Z</time>
      </trkpt>
      <trkpt lat="42.69838" lon="1.40149">
        <ele>1814.991</ele>
        <time>2024-08-31T08:27:30Z</time>
      </trkpt>
      <trkpt lat="42.69838" lon="1.40149">
        <ele>1815.399</ele>
        <time>2024-08-31T08:27:32Z</time>
      </trkpt>
      <trkpt lat="42.69838" lon="1.40149">
        <ele>1815.465</ele>
        <time>2024-08-31T08:27:34Z</time>
      </trkpt>
      <trkpt lat="42.69838" lon="1.40149">
        <ele>1815.294</ele>
        <time>2024-08-31T08:27:36Z</time>
      </trkpt>
      <trkpt lat="42.69838" lon="1.40149">
        <ele>1815.141</ele>
        <time>2024-08-31T08:27:38Z</time>
      </trkpt>
      <trkpt lat="42.69838" lon="1.40149">
        <ele>1814.626</ele>
        <time>2024-08-31T08:27:40Z</time>
      </trkpt>
      <trkpt lat="42.69838" lon="1.40149">
        <ele>1815.134</ele>
        <time>2024-08-31T08:27:42Z</time>
      </trkpt>
      <trkpt lat="42.69838" lon="1.40149">
        <ele>1815.09</ele>
        <time>2024-08-31T08:27:44Z</time>
      </trkpt>
      <trkpt lat="42.69838" lon="1.40149">
        <ele>1814.779</ele>
        <time>2024-08-31T08:27:46Z</time>
      </trkpt>
      <trkpt lat="42.69838" lon="1.40149">
        <ele>1814.762</ele>
        <time>2024-08-31T08:27:48Z</time>
      </trkpt>
      <trkpt lat="42.69838" lon="1.40149">
        <ele>1814.72</ele>
        <time>2024-08-31T08:27:50Z</time>
      </trkpt>
      <trkpt lat="42.69838" lon="1.40149">
        <ele>1814.714</ele>
        <time>2024-08-31T08:27:52Z</time>
      </trkpt>
      <trkpt lat="42.69838" lon="1.40149">
        <ele>1814.719</ele>
        <time>2024-08-31T08:27:54Z</time>
      </trkpt>
      <trkpt lat="42.69838" lon="1.40149">
        <ele>1814.721</ele>
        <time>2024-08-31T08:27:56Z</time>
      </trkpt>
      <trkpt lat="42.69838" lon="1.40149">
        <ele>1814.724</ele>
        <time>2024-08-31T08:27:58Z</time>
      </trkpt>
      <trkpt lat="42.69838" lon="1.40149">
        <ele>1814.577</ele>
        <time>2024-08-31T08:28:00Z</time>
      </trkpt>
      <trkpt lat="42.69838" lon="1.40149">
        <ele>1814.514</ele>
        <time>2024-08-31T08:28:02Z</time>
      </trkpt>
      <trkpt lat="42.69838" lon="1.40149">
        <ele>1814.513</ele>
        <time>2024-08-31T08:28:04Z</time>
      </trkpt>
      <trkpt lat="42.69838" lon="1.40149">
        <ele>1814.513</ele>
        <time>2024-08-31T08:28:06Z</time>
      </trkpt>
      <trkpt lat="42.69838" lon="1.40149">
        <ele>1814.51</ele>
        <time>2024-08-31T08:28:08Z</time>
      </trkpt>
      <trkpt lat="42.69838" lon="1.40149">
        <ele>1814.511</ele>
        <time>2024-08-31T08:28:10Z</time>
      </trkpt>
      <trkpt lat="42.69838" lon="1.40149">
        <ele>1814.509</ele>
        <time>2024-08-31T08:28:12Z</time>
      </trkpt>
      <trkpt lat="42.69838" lon="1.40149">
        <ele>1814.511</ele>
        <time>2024-08-31T08:28:14Z</time>
      </trkpt>
      <trkpt lat="42.69838" lon="1.40149">
        <ele>1814.106</ele>
        <time>2024-08-31T08:28:16Z</time>
      </trkpt>
      <trkpt lat="42.69837" lon="1.40148">
        <ele>1814.103</ele>
        <time>2024-08-31T08:28:18Z</time>
      </trkpt>
      <trkpt lat="42.69837" lon="1.40148">
        <ele>1814.101</ele>
        <time>2024-08-31T08:28:20Z</time>
      </trkpt>
      <trkpt lat="42.69837" lon="1.40148">
        <ele>1814.101</ele>
        <time>2024-08-31T08:28:22Z</time>
      </trkpt>
      <trkpt lat="42.69837" lon="1.40148">
        <ele>1814.103</ele>
        <time>2024-08-31T08:28:24Z</time>
      </trkpt>
      <trkpt lat="42.69837" lon="1.40148">
        <ele>1814.103</ele>
        <time>2024-08-31T08:28:26Z</time>
      </trkpt>
      <trkpt lat="42.69837" lon="1.40148">
        <ele>1813.99</ele>
        <time>2024-08-31T08:28:28Z</time>
      </trkpt>
      <trkpt lat="42.69837" lon="1.40147">
        <ele>1814.35</ele>
        <time>2024-08-31T08:28:30Z</time>
      </trkpt>
      <trkpt lat="42.69836" lon="1.40145">
        <ele>1814.339</ele>
        <time>2024-08-31T08:28:32Z</time>
      </trkpt>
      <trkpt lat="42.69835" lon="1.40145">
        <ele>1814.387</ele>
        <time>2024-08-31T08:28:34Z</time>
      </trkpt>
      <trkpt lat="42.69834" lon="1.40144">
        <ele>1814.883</ele>
        <time>2024-08-31T08:28:36Z</time>
      </trkpt>
      <trkpt lat="42.69833" lon="1.40142">
        <ele>1814.201</ele>
        <time>2024-08-31T08:28:38Z</time>
      </trkpt>
      <trkpt lat="42.69832" lon="1.4014">
        <ele>1814</ele>
        <time>2024-08-31T08:28:40Z</time>
      </trkpt>
      <trkpt lat="42.69831" lon="1.40138">
        <ele>1813.742</ele>
        <time>2024-08-31T08:28:42Z</time>
      </trkpt>
      <trkpt lat="42.6983" lon="1.40137">
        <ele>1813.916</ele>
        <time>2024-08-31T08:28:44Z</time>
      </trkpt>
      <trkpt lat="42.6983" lon="1.40135">
        <ele>1813.78</ele>
        <time>2024-08-31T08:28:46Z</time>
      </trkpt>
      <trkpt lat="42.69829" lon="1.40133">
        <ele>1814.581</ele>
        <time>2024-08-31T08:28:48Z</time>
      </trkpt>
      <trkpt lat="42.69827" lon="1.40132">
        <ele>1814.397</ele>
        <time>2024-08-31T08:28:50Z</time>
      </trkpt>
      <trkpt lat="42.69826" lon="1.40132">
        <ele>1815.034</ele>
        <time>2024-08-31T08:28:52Z</time>
      </trkpt>
      <trkpt lat="42.69824" lon="1.40133">
        <ele>1815.1</ele>
        <time>2024-08-31T08:28:54Z</time>
      </trkpt>
      <trkpt lat="42.69823" lon="1.40133">
        <ele>1815.117</ele>
        <time>2024-08-31T08:28:56Z</time>
      </trkpt>
      <trkpt lat="42.69821" lon="1.40133">
        <ele>1816.027</ele>
        <time>2024-08-31T08:28:58Z</time>
      </trkpt>
      <trkpt lat="42.6982" lon="1.40132">
        <ele>1816.734</ele>
        <time>2024-08-31T08:29:00Z</time>
      </trkpt>
      <trkpt lat="42.69819" lon="1.40132">
        <ele>1817.116</ele>
        <time>2024-08-31T08:29:02Z</time>
      </trkpt>
      <trkpt lat="42.69817" lon="1.40133">
        <ele>1817.511</ele>
        <time>2024-08-31T08:29:04Z</time>
      </trkpt>
      <trkpt lat="42.69816" lon="1.40133">
        <ele>1817.899</ele>
        <time>2024-08-31T08:29:06Z</time>
      </trkpt>
      <trkpt lat="42.69815" lon="1.40133">
        <ele>1818.982</ele>
        <time>2024-08-31T08:29:08Z</time>
      </trkpt>
      <trkpt lat="42.69814" lon="1.40133">
        <ele>1819.529</ele>
        <time>2024-08-31T08:29:10Z</time>
      </trkpt>
      <trkpt lat="42.69813" lon="1.40131">
        <ele>1820.036</ele>
        <time>2024-08-31T08:29:12Z</time>
      </trkpt>
      <trkpt lat="42.69812" lon="1.4013">
        <ele>1819.64</ele>
        <time>2024-08-31T08:29:14Z</time>
      </trkpt>
      <trkpt lat="42.69811" lon="1.40129">
        <ele>1820.787</ele>
        <time>2024-08-31T08:29:16Z</time>
      </trkpt>
      <trkpt lat="42.69811" lon="1.40127">
        <ele>1821.033</ele>
        <time>2024-08-31T08:29:18Z</time>
      </trkpt>
      <trkpt lat="42.6981" lon="1.40125">
        <ele>1821.447</ele>
        <time>2024-08-31T08:29:20Z</time>
      </trkpt>
      <trkpt lat="42.69809" lon="1.40124">
        <ele>1822.06</ele>
        <time>2024-08-31T08:29:22Z</time>
      </trkpt>
      <trkpt lat="42.69808" lon="1.40123">
        <ele>1821.993</ele>
        <time>2024-08-31T08:29:24Z</time>
      </trkpt>
      <trkpt lat="42.69806" lon="1.40122">
        <ele>1821.239</ele>
        <time>2024-08-31T08:29:26Z</time>
      </trkpt>
      <trkpt lat="42.69806" lon="1.40122">
        <ele>1821.51</ele>
        <time>2024-08-31T08:29:28Z</time>
      </trkpt>
      <trkpt lat="42.69806" lon="1.40122">
        <ele>1821.515</ele>
        <time>2024-08-31T08:29:30Z</time>
      </trkpt>
      <trkpt lat="42.69806" lon="1.40122">
        <ele>1821.516</ele>
        <time>2024-08-31T08:29:32Z</time>
      </trkpt>
      <trkpt lat="42.69806" lon="1.40122">
        <ele>1821.406</ele>
        <time>2024-08-31T08:29:34Z</time>
      </trkpt>
      <trkpt lat="42.69806" lon="1.40122">
        <ele>1821.348</ele>
        <time>2024-08-31T08:29:36Z</time>
      </trkpt>
      <trkpt lat="42.69806" lon="1.40122">
        <ele>1821.425</ele>
        <time>2024-08-31T08:29:38Z</time>
      </trkpt>
      <trkpt lat="42.69806" lon="1.40122">
        <ele>1821.426</ele>
        <time>2024-08-31T08:29:40Z</time>
      </trkpt>
      <trkpt lat="42.69806" lon="1.40122">
        <ele>1821.781</ele>
        <time>2024-08-31T08:29:42Z</time>
      </trkpt>
      <trkpt lat="42.69806" lon="1.40122">
        <ele>1821.568</ele>
        <time>2024-08-31T08:29:44Z</time>
      </trkpt>
      <trkpt lat="42.69804" lon="1.40121">
        <ele>1822.252</ele>
        <time>2024-08-31T08:29:46Z</time>
      </trkpt>
      <trkpt lat="42.69804" lon="1.40122">
        <ele>1821.829</ele>
        <time>2024-08-31T08:29:48Z</time>
      </trkpt>
      <trkpt lat="42.69803" lon="1.40121">
        <ele>1822.033</ele>
        <time>2024-08-31T08:29:50Z</time>
      </trkpt>
      <trkpt lat="42.69802" lon="1.4012">
        <ele>1823.078</ele>
        <time>2024-08-31T08:29:52Z</time>
      </trkpt>
      <trkpt lat="42.69801" lon="1.40119">
        <ele>1823.431</ele>
        <time>2024-08-31T08:29:54Z</time>
      </trkpt>
      <trkpt lat="42.69801" lon="1.40118">
        <ele>1824.586</ele>
        <time>2024-08-31T08:29:56Z</time>
      </trkpt>
      <trkpt lat="42.69801" lon="1.40116">
        <ele>1824.717</ele>
        <time>2024-08-31T08:29:58Z</time>
      </trkpt>
      <trkpt lat="42.698" lon="1.40115">
        <ele>1824.739</ele>
        <time>2024-08-31T08:30:00Z</time>
      </trkpt>
      <trkpt lat="42.698" lon="1.40114">
        <ele>1824.431</ele>
        <time>2024-08-31T08:30:02Z</time>
      </trkpt>
      <trkpt lat="42.698" lon="1.40112">
        <ele>1824.862</ele>
        <time>2024-08-31T08:30:04Z</time>
      </trkpt>
      <trkpt lat="42.698" lon="1.40111">
        <ele>1825.167</ele>
        <time>2024-08-31T08:30:06Z</time>
      </trkpt>
      <trkpt lat="42.69799" lon="1.40111">
        <ele>1825.813</ele>
        <time>2024-08-31T08:30:08Z</time>
      </trkpt>
      <trkpt lat="42.69798" lon="1.40109">
        <ele>1825.573</ele>
        <time>2024-08-31T08:30:10Z</time>
      </trkpt>
      <trkpt lat="42.69797" lon="1.40108">
        <ele>1825.451</ele>
        <time>2024-08-31T08:30:12Z</time>
      </trkpt>
      <trkpt lat="42.69797" lon="1.40107">
        <ele>1825.991</ele>
        <time>2024-08-31T08:30:14Z</time>
      </trkpt>
      <trkpt lat="42.69797" lon="1.40107">
        <ele>1827.042</ele>
        <time>2024-08-31T08:30:16Z</time>
      </trkpt>
      <trkpt lat="42.69797" lon="1.40107">
        <ele>1827.88</ele>
        <time>2024-08-31T08:30:18Z</time>
      </trkpt>
      <trkpt lat="42.69797" lon="1.40107">
        <ele>1829.918</ele>
        <time>2024-08-31T08:30:20Z</time>
      </trkpt>
      <trkpt lat="42.69797" lon="1.40107">
        <ele>1830.455</ele>
        <time>2024-08-31T08:30:22Z</time>
      </trkpt>
      <trkpt lat="42.69797" lon="1.40107">
        <ele>1830.434</ele>
        <time>2024-08-31T08:30:24Z</time>
      </trkpt>
      <trkpt lat="42.69796" lon="1.40105">
        <ele>1830.26</ele>
        <time>2024-08-31T08:30:26Z</time>
      </trkpt>
      <trkpt lat="42.69795" lon="1.40105">
        <ele>1830.554</ele>
        <time>2024-08-31T08:30:28Z</time>
      </trkpt>
      <trkpt lat="42.69794" lon="1.40103">
        <ele>1830.713</ele>
        <time>2024-08-31T08:30:30Z</time>
      </trkpt>
      <trkpt lat="42.69793" lon="1.40103">
        <ele>1830.78</ele>
        <time>2024-08-31T08:30:32Z</time>
      </trkpt>
      <trkpt lat="42.69792" lon="1.40105">
        <ele>1831.422</ele>
        <time>2024-08-31T08:30:34Z</time>
      </trkpt>
      <trkpt lat="42.69791" lon="1.40106">
        <ele>1831.381</ele>
        <time>2024-08-31T08:30:36Z</time>
      </trkpt>
      <trkpt lat="42.6979" lon="1.40106">
        <ele>1831.205</ele>
        <time>2024-08-31T08:30:38Z</time>
      </trkpt>
      <trkpt lat="42.69789" lon="1.40105">
        <ele>1831.549</ele>
        <time>2024-08-31T08:30:40Z</time>
      </trkpt>
      <trkpt lat="42.69789" lon="1.40103">
        <ele>1832.07</ele>
        <time>2024-08-31T08:30:42Z</time>
      </trkpt>
      <trkpt lat="42.69788" lon="1.40102">
        <ele>1832.783</ele>
        <time>2024-08-31T08:30:44Z</time>
      </trkpt>
      <trkpt lat="42.69787" lon="1.40101">
        <ele>1833.327</ele>
        <time>2024-08-31T08:30:46Z</time>
      </trkpt>
      <trkpt lat="42.69787" lon="1.40101">
        <ele>1833.386</ele>
        <time>2024-08-31T08:30:48Z</time>
      </trkpt>
      <trkpt lat="42.69786" lon="1.40101">
        <ele>1833.473</ele>
        <time>2024-08-31T08:30:50Z</time>
      </trkpt>
      <trkpt lat="42.69786" lon="1.401">
        <ele>1833.369</ele>
        <time>2024-08-31T08:30:52Z</time>
      </trkpt>
      <trkpt lat="42.69786" lon="1.40099">
        <ele>1833.698</ele>
        <time>2024-08-31T08:30:54Z</time>
      </trkpt>
      <trkpt lat="42.69787" lon="1.40099">
        <ele>1834.106</ele>
        <time>2024-08-31T08:30:56Z</time>
      </trkpt>
      <trkpt lat="42.69787" lon="1.40099">
        <ele>1834.099</ele>
        <time>2024-08-31T08:30:58Z</time>
      </trkpt>
      <trkpt lat="42.69787" lon="1.40099">
        <ele>1834.093</ele>
        <time>2024-08-31T08:31:00Z</time>
      </trkpt>
      <trkpt lat="42.69787" lon="1.40099">
        <ele>1834.144</ele>
        <time>2024-08-31T08:31:02Z</time>
      </trkpt>
      <trkpt lat="42.69787" lon="1.40098">
        <ele>1834.795</ele>
        <time>2024-08-31T08:31:04Z</time>
      </trkpt>
      <trkpt lat="42.69787" lon="1.40096">
        <ele>1835.231</ele>
        <time>2024-08-31T08:31:06Z</time>
      </trkpt>
      <trkpt lat="42.69787" lon="1.40095">
        <ele>1835.401</ele>
        <time>2024-08-31T08:31:08Z</time>
      </trkpt>
      <trkpt lat="42.69786" lon="1.40094">
        <ele>1835.887</ele>
        <time>2024-08-31T08:31:10Z</time>
      </trkpt>
      <trkpt lat="42.69786" lon="1.40092">
        <ele>1836.265</ele>
        <time>2024-08-31T08:31:12Z</time>
      </trkpt>
      <trkpt lat="42.69786" lon="1.4009">
        <ele>1836.353</ele>
        <time>2024-08-31T08:31:14Z</time>
      </trkpt>
      <trkpt lat="42.69786" lon="1.40089">
        <ele>1836.363</ele>
        <time>2024-08-31T08:31:16Z</time>
      </trkpt>
      <trkpt lat="42.69786" lon="1.40087">
        <ele>1836.529</ele>
        <time>2024-08-31T08:31:18Z</time>
      </trkpt>
      <trkpt lat="42.69786" lon="1.40086">
        <ele>1837.231</ele>
        <time>2024-08-31T08:31:20Z</time>
      </trkpt>
      <trkpt lat="42.69785" lon="1.40085">
        <ele>1837.855</ele>
        <time>2024-08-31T08:31:22Z</time>
      </trkpt>
      <trkpt lat="42.69784" lon="1.40084">
        <ele>1838.01</ele>
        <time>2024-08-31T08:31:24Z</time>
      </trkpt>
      <trkpt lat="42.69783" lon="1.40082">
        <ele>1837.809</ele>
        <time>2024-08-31T08:31:26Z</time>
      </trkpt>
      <trkpt lat="42.69783" lon="1.4008">
        <ele>1838.554</ele>
        <time>2024-08-31T08:31:28Z</time>
      </trkpt>
      <trkpt lat="42.69783" lon="1.40079">
        <ele>1838.992</ele>
        <time>2024-08-31T08:31:30Z</time>
      </trkpt>
      <trkpt lat="42.69782" lon="1.40078">
        <ele>1839.382</ele>
        <time>2024-08-31T08:31:32Z</time>
      </trkpt>
      <trkpt lat="42.69782" lon="1.40077">
        <ele>1839.862</ele>
        <time>2024-08-31T08:31:34Z</time>
      </trkpt>
      <trkpt lat="42.69781" lon="1.40076">
        <ele>1839.78</ele>
        <time>2024-08-31T08:31:36Z</time>
      </trkpt>
      <trkpt lat="42.6978" lon="1.40074">
        <ele>1839.593</ele>
        <time>2024-08-31T08:31:38Z</time>
      </trkpt>
      <trkpt lat="42.69779" lon="1.40072">
        <ele>1840.368</ele>
        <time>2024-08-31T08:31:40Z</time>
      </trkpt>
      <trkpt lat="42.69779" lon="1.40071">
        <ele>1840.841</ele>
        <time>2024-08-31T08:31:42Z</time>
      </trkpt>
      <trkpt lat="42.69778" lon="1.4007">
        <ele>1841.139</ele>
        <time>2024-08-31T08:31:44Z</time>
      </trkpt>
      <trkpt lat="42.69777" lon="1.40069">
        <ele>1841.61</ele>
        <time>2024-08-31T08:31:46Z</time>
      </trkpt>
      <trkpt lat="42.69776" lon="1.40069">
        <ele>1842.415</ele>
        <time>2024-08-31T08:31:48Z</time>
      </trkpt>
      <trkpt lat="42.69775" lon="1.40069">
        <ele>1842.566</ele>
        <time>2024-08-31T08:31:50Z</time>
      </trkpt>
      <trkpt lat="42.69774" lon="1.40068">
        <ele>1843.496</ele>
        <time>2024-08-31T08:31:52Z</time>
      </trkpt>
      <trkpt lat="42.69773" lon="1.40067">
        <ele>1844.137</ele>
        <time>2024-08-31T08:31:54Z</time>
      </trkpt>
      <trkpt lat="42.69772" lon="1.40068">
        <ele>1843.877</ele>
        <time>2024-08-31T08:31:56Z</time>
      </trkpt>
      <trkpt lat="42.69771" lon="1.40068">
        <ele>1843.53</ele>
        <time>2024-08-31T08:31:58Z</time>
      </trkpt>
      <trkpt lat="42.69769" lon="1.40067">
        <ele>1843.946</ele>
        <time>2024-08-31T08:32:00Z</time>
      </trkpt>
      <trkpt lat="42.69768" lon="1.40066">
        <ele>1844.42</ele>
        <time>2024-08-31T08:32:02Z</time>
      </trkpt>
      <trkpt lat="42.69767" lon="1.40064">
        <ele>1844.636</ele>
        <time>2024-08-31T08:32:04Z</time>
      </trkpt>
      <trkpt lat="42.69767" lon="1.40063">
        <ele>1844.625</ele>
        <time>2024-08-31T08:32:06Z</time>
      </trkpt>
      <trkpt lat="42.69766" lon="1.40062">
        <ele>1845.105</ele>
        <time>2024-08-31T08:32:08Z</time>
      </trkpt>
      <trkpt lat="42.69765" lon="1.4006">
        <ele>1845.389</ele>
        <time>2024-08-31T08:32:10Z</time>
      </trkpt>
      <trkpt lat="42.69763" lon="1.40059">
        <ele>1844.999</ele>
        <time>2024-08-31T08:32:12Z</time>
      </trkpt>
      <trkpt lat="42.69762" lon="1.40058">
        <ele>1843.983</ele>
        <time>2024-08-31T08:32:14Z</time>
      </trkpt>
      <trkpt lat="42.6976" lon="1.40057">
        <ele>1844.203</ele>
        <time>2024-08-31T08:32:16Z</time>
      </trkpt>
      <trkpt lat="42.69758" lon="1.40056">
        <ele>1844.134</ele>
        <time>2024-08-31T08:32:18Z</time>
      </trkpt>
      <trkpt lat="42.69757" lon="1.40055">
        <ele>1843.968</ele>
        <time>2024-08-31T08:32:20Z</time>
      </trkpt>
      <trkpt lat="42.69755" lon="1.40054">
        <ele>1844.564</ele>
        <time>2024-08-31T08:32:22Z</time>
      </trkpt>
      <trkpt lat="42.69754" lon="1.40052">
        <ele>1844.713</ele>
        <time>2024-08-31T08:32:24Z</time>
      </trkpt>
      <trkpt lat="42.69753" lon="1.40052">
        <ele>1843.92</ele>
        <time>2024-08-31T08:32:26Z</time>
      </trkpt>
      <trkpt lat="42.69752" lon="1.40051">
        <ele>1844.491</ele>
        <time>2024-08-31T08:32:28Z</time>
      </trkpt>
      <trkpt lat="42.69752" lon="1.40049">
        <ele>1844.999</ele>
        <time>2024-08-31T08:32:30Z</time>
      </trkpt>
      <trkpt lat="42.69751" lon="1.40049">
        <ele>1844.553</ele>
        <time>2024-08-31T08:32:32Z</time>
      </trkpt>
      <trkpt lat="42.6975" lon="1.40049">
        <ele>1844.056</ele>
        <time>2024-08-31T08:32:34Z</time>
      </trkpt>
      <trkpt lat="42.69749" lon="1.40048">
        <ele>1844.645</ele>
        <time>2024-08-31T08:32:36Z</time>
      </trkpt>
      <trkpt lat="42.69748" lon="1.40047">
        <ele>1844.437</ele>
        <time>2024-08-31T08:32:38Z</time>
      </trkpt>
      <trkpt lat="42.69747" lon="1.40047">
        <ele>1844.667</ele>
        <time>2024-08-31T08:32:40Z</time>
      </trkpt>
      <trkpt lat="42.69746" lon="1.40046">
        <ele>1844.673</ele>
        <time>2024-08-31T08:32:42Z</time>
      </trkpt>
      <trkpt lat="42.69746" lon="1.40044">
        <ele>1844.789</ele>
        <time>2024-08-31T08:32:44Z</time>
      </trkpt>
      <trkpt lat="42.69745" lon="1.40043">
        <ele>1845.559</ele>
        <time>2024-08-31T08:32:46Z</time>
      </trkpt>
      <trkpt lat="42.69744" lon="1.40042">
        <ele>1846.445</ele>
        <time>2024-08-31T08:32:48Z</time>
      </trkpt>
      <trkpt lat="42.69743" lon="1.4004">
        <ele>1846.675</ele>
        <time>2024-08-31T08:32:50Z</time>
      </trkpt>
      <trkpt lat="42.69742" lon="1.40039">
        <ele>1846.147</ele>
        <time>2024-08-31T08:32:52Z</time>
      </trkpt>
      <trkpt lat="42.69741" lon="1.40038">
        <ele>1846.378</ele>
        <time>2024-08-31T08:32:54Z</time>
      </trkpt>
      <trkpt lat="42.69739" lon="1.40036">
        <ele>1846.342</ele>
        <time>2024-08-31T08:32:56Z</time>
      </trkpt>
      <trkpt lat="42.69736" lon="1.40033">
        <ele>1846.21</ele>
        <time>2024-08-31T08:32:58Z</time>
      </trkpt>
      <trkpt lat="42.69734" lon="1.40032">
        <ele>1845.525</ele>
        <time>2024-08-31T08:33:00Z</time>
      </trkpt>
      <trkpt lat="42.69734" lon="1.40031">
        <ele>1846.235</ele>
        <time>2024-08-31T08:33:02Z</time>
      </trkpt>
      <trkpt lat="42.69733" lon="1.40031">
        <ele>1847.253</ele>
        <time>2024-08-31T08:33:04Z</time>
      </trkpt>
      <trkpt lat="42.69732" lon="1.4003">
        <ele>1848.96</ele>
        <time>2024-08-31T08:33:06Z</time>
      </trkpt>
      <trkpt lat="42.69731" lon="1.4003">
        <ele>1848.799</ele>
        <time>2024-08-31T08:33:08Z</time>
      </trkpt>
      <trkpt lat="42.69731" lon="1.40029">
        <ele>1849.442</ele>
        <time>2024-08-31T08:33:10Z</time>
      </trkpt>
      <trkpt lat="42.69729" lon="1.40028">
        <ele>1850.297</ele>
        <time>2024-08-31T08:33:12Z</time>
      </trkpt>
      <trkpt lat="42.69729" lon="1.40027">
        <ele>1850.267</ele>
        <time>2024-08-31T08:33:14Z</time>
      </trkpt>
      <trkpt lat="42.69728" lon="1.40027">
        <ele>1851.303</ele>
        <time>2024-08-31T08:33:16Z</time>
      </trkpt>
      <trkpt lat="42.69727" lon="1.40026">
        <ele>1851.961</ele>
        <time>2024-08-31T08:33:18Z</time>
      </trkpt>
      <trkpt lat="42.69726" lon="1.40025">
        <ele>1851.073</ele>
        <time>2024-08-31T08:33:20Z</time>
      </trkpt>
      <trkpt lat="42.69725" lon="1.40024">
        <ele>1851.762</ele>
        <time>2024-08-31T08:33:22Z</time>
      </trkpt>
      <trkpt lat="42.69724" lon="1.40024">
        <ele>1851.861</ele>
        <time>2024-08-31T08:33:24Z</time>
      </trkpt>
      <trkpt lat="42.69723" lon="1.40023">
        <ele>1851.687</ele>
        <time>2024-08-31T08:33:26Z</time>
      </trkpt>
      <trkpt lat="42.69722" lon="1.40023">
        <ele>1851.502</ele>
        <time>2024-08-31T08:33:28Z</time>
      </trkpt>
      <trkpt lat="42.69721" lon="1.40023">
        <ele>1850.668</ele>
        <time>2024-08-31T08:33:30Z</time>
      </trkpt>
      <trkpt lat="42.69721" lon="1.40023">
        <ele>1851.062</ele>
        <time>2024-08-31T08:33:32Z</time>
      </trkpt>
      <trkpt lat="42.6972" lon="1.40022">
        <ele>1850.625</ele>
        <time>2024-08-31T08:33:34Z</time>
      </trkpt>
      <trkpt lat="42.69719" lon="1.40021">
        <ele>1851.491</ele>
        <time>2024-08-31T08:33:36Z</time>
      </trkpt>
      <trkpt lat="42.69718" lon="1.40021">
        <ele>1851.538</ele>
        <time>2024-08-31T08:33:38Z</time>
      </trkpt>
      <trkpt lat="42.69717" lon="1.40021">
        <ele>1851.811</ele>
        <time>2024-08-31T08:33:40Z</time>
      </trkpt>
      <trkpt lat="42.69716" lon="1.40022">
        <ele>1851.851</ele>
        <time>2024-08-31T08:33:42Z</time>
      </trkpt>
      <trkpt lat="42.69715" lon="1.40021">
        <ele>1851.838</ele>
        <time>2024-08-31T08:33:44Z</time>
      </trkpt>
      <trkpt lat="42.69714" lon="1.40021">
        <ele>1851.491</ele>
        <time>2024-08-31T08:33:46Z</time>
      </trkpt>
      <trkpt lat="42.69713" lon="1.4002">
        <ele>1852.668</ele>
        <time>2024-08-31T08:33:48Z</time>
      </trkpt>
      <trkpt lat="42.69713" lon="1.40018">
        <ele>1852.947</ele>
        <time>2024-08-31T08:33:50Z</time>
      </trkpt>
      <trkpt lat="42.69712" lon="1.40018">
        <ele>1853.494</ele>
        <time>2024-08-31T08:33:52Z</time>
      </trkpt>
      <trkpt lat="42.69711" lon="1.40017">
        <ele>1854.006</ele>
        <time>2024-08-31T08:33:54Z</time>
      </trkpt>
      <trkpt lat="42.6971" lon="1.40017">
        <ele>1854.349</ele>
        <time>2024-08-31T08:33:56Z</time>
      </trkpt>
      <trkpt lat="42.69709" lon="1.40016">
        <ele>1854.635</ele>
        <time>2024-08-31T08:33:58Z</time>
      </trkpt>
      <trkpt lat="42.69708" lon="1.40015">
        <ele>1856.175</ele>
        <time>2024-08-31T08:34:00Z</time>
      </trkpt>
      <trkpt lat="42.69707" lon="1.40015">
        <ele>1856.408</ele>
        <time>2024-08-31T08:34:02Z</time>
      </trkpt>
      <trkpt lat="42.69706" lon="1.40016">
        <ele>1857.142</ele>
        <time>2024-08-31T08:34:04Z</time>
      </trkpt>
      <trkpt lat="42.69705" lon="1.40017">
        <ele>1856.994</ele>
        <time>2024-08-31T08:34:06Z</time>
      </trkpt>
      <trkpt lat="42.69704" lon="1.40018">
        <ele>1857.524</ele>
        <time>2024-08-31T08:34:08Z</time>
      </trkpt>
      <trkpt lat="42.69703" lon="1.40018">
        <ele>1857.379</ele>
        <time>2024-08-31T08:34:10Z</time>
      </trkpt>
      <trkpt lat="42.69703" lon="1.40018">
        <ele>1857.386</ele>
        <time>2024-08-31T08:34:12Z</time>
      </trkpt>
      <trkpt lat="42.69703" lon="1.40018">
        <ele>1857.756</ele>
        <time>2024-08-31T08:34:14Z</time>
      </trkpt>
      <trkpt lat="42.69703" lon="1.40018">
        <ele>1857.758</ele>
        <time>2024-08-31T08:34:16Z</time>
      </trkpt>
      <trkpt lat="42.69703" lon="1.40018">
        <ele>1857.456</ele>
        <time>2024-08-31T08:34:18Z</time>
      </trkpt>
      <trkpt lat="42.69703" lon="1.40018">
        <ele>1857.487</ele>
        <time>2024-08-31T08:34:20Z</time>
      </trkpt>
      <trkpt lat="42.69703" lon="1.40018">
        <ele>1857.482</ele>
        <time>2024-08-31T08:34:22Z</time>
      </trkpt>
      <trkpt lat="42.69703" lon="1.40018">
        <ele>1857.475</ele>
        <time>2024-08-31T08:34:24Z</time>
      </trkpt>
      <trkpt lat="42.69703" lon="1.40018">
        <ele>1857.469</ele>
        <time>2024-08-31T08:34:26Z</time>
      </trkpt>
      <trkpt lat="42.69703" lon="1.40018">
        <ele>1857.461</ele>
        <time>2024-08-31T08:34:28Z</time>
      </trkpt>
      <trkpt lat="42.69703" lon="1.40018">
        <ele>1857.453</ele>
        <time>2024-08-31T08:34:30Z</time>
      </trkpt>
      <trkpt lat="42.69703" lon="1.40018">
        <ele>1857.451</ele>
        <time>2024-08-31T08:34:32Z</time>
      </trkpt>
      <trkpt lat="42.69703" lon="1.40018">
        <ele>1857.444</ele>
        <time>2024-08-31T08:34:34Z</time>
      </trkpt>
      <trkpt lat="42.69703" lon="1.40018">
        <ele>1857.431</ele>
        <time>2024-08-31T08:34:36Z</time>
      </trkpt>
      <trkpt lat="42.69703" lon="1.40018">
        <ele>1857.418</ele>
        <time>2024-08-31T08:34:38Z</time>
      </trkpt>
      <trkpt lat="42.69703" lon="1.40018">
        <ele>1857.606</ele>
        <time>2024-08-31T08:34:40Z</time>
      </trkpt>
      <trkpt lat="42.69703" lon="1.40018">
        <ele>1857.883</ele>
        <time>2024-08-31T08:34:42Z</time>
      </trkpt>
      <trkpt lat="42.69703" lon="1.40018">
        <ele>1857.894</ele>
        <time>2024-08-31T08:34:44Z</time>
      </trkpt>
      <trkpt lat="42.69703" lon="1.40018">
        <ele>1857.89</ele>
        <time>2024-08-31T08:34:46Z</time>
      </trkpt>
      <trkpt lat="42.69703" lon="1.40018">
        <ele>1857.891</ele>
        <time>2024-08-31T08:34:48Z</time>
      </trkpt>
      <trkpt lat="42.69703" lon="1.40018">
        <ele>1858.102</ele>
        <time>2024-08-31T08:34:50Z</time>
      </trkpt>
      <trkpt lat="42.69703" lon="1.40018">
        <ele>1858.193</ele>
        <time>2024-08-31T08:34:52Z</time>
      </trkpt>
      <trkpt lat="42.69703" lon="1.40018">
        <ele>1858.224</ele>
        <time>2024-08-31T08:34:54Z</time>
      </trkpt>
      <trkpt lat="42.69703" lon="1.40018">
        <ele>1858.225</ele>
        <time>2024-08-31T08:34:56Z</time>
      </trkpt>
      <trkpt lat="42.69703" lon="1.40018">
        <ele>1858.231</ele>
        <time>2024-08-31T08:34:58Z</time>
      </trkpt>
      <trkpt lat="42.69703" lon="1.40018">
        <ele>1858.227</ele>
        <time>2024-08-31T08:35:00Z</time>
      </trkpt>
      <trkpt lat="42.69703" lon="1.40018">
        <ele>1858.235</ele>
        <time>2024-08-31T08:35:02Z</time>
      </trkpt>
      <trkpt lat="42.69703" lon="1.40018">
        <ele>1858.238</ele>
        <time>2024-08-31T08:35:04Z</time>
      </trkpt>
      <trkpt lat="42.69703" lon="1.40018">
        <ele>1858.243</ele>
        <time>2024-08-31T08:35:06Z</time>
      </trkpt>
      <trkpt lat="42.69703" lon="1.40018">
        <ele>1858.238</ele>
        <time>2024-08-31T08:35:08Z</time>
      </trkpt>
      <trkpt lat="42.69703" lon="1.40018">
        <ele>1858.238</ele>
        <time>2024-08-31T08:35:10Z</time>
      </trkpt>
      <trkpt lat="42.69703" lon="1.40018">
        <ele>1858.245</ele>
        <time>2024-08-31T08:35:12Z</time>
      </trkpt>
      <trkpt lat="42.69703" lon="1.40018">
        <ele>1858.253</ele>
        <time>2024-08-31T08:35:14Z</time>
      </trkpt>
      <trkpt lat="42.69703" lon="1.40018">
        <ele>1858.253</ele>
        <time>2024-08-31T08:35:16Z</time>
      </trkpt>
      <trkpt lat="42.69703" lon="1.40018">
        <ele>1858.249</ele>
        <time>2024-08-31T08:35:18Z</time>
      </trkpt>
      <trkpt lat="42.69703" lon="1.40018">
        <ele>1858.362</ele>
        <time>2024-08-31T08:35:20Z</time>
      </trkpt>
      <trkpt lat="42.69703" lon="1.40018">
        <ele>1858.236</ele>
        <time>2024-08-31T08:35:22Z</time>
      </trkpt>
      <trkpt lat="42.69703" lon="1.40018">
        <ele>1858.561</ele>
        <time>2024-08-31T08:35:24Z</time>
      </trkpt>
      <trkpt lat="42.69703" lon="1.40018">
        <ele>1858.916</ele>
        <time>2024-08-31T08:35:26Z</time>
      </trkpt>
      <trkpt lat="42.69703" lon="1.40018">
        <ele>1858.7</ele>
        <time>2024-08-31T08:35:28Z</time>
      </trkpt>
      <trkpt lat="42.69703" lon="1.40018">
        <ele>1858.704</ele>
        <time>2024-08-31T08:35:30Z</time>
      </trkpt>
      <trkpt lat="42.69703" lon="1.40018">
        <ele>1859.444</ele>
        <time>2024-08-31T08:35:32Z</time>
      </trkpt>
      <trkpt lat="42.69703" lon="1.40018">
        <ele>1859.424</ele>
        <time>2024-08-31T08:35:34Z</time>
      </trkpt>
      <trkpt lat="42.69703" lon="1.40018">
        <ele>1859.426</ele>
        <time>2024-08-31T08:35:36Z</time>
      </trkpt>
      <trkpt lat="42.69703" lon="1.40018">
        <ele>1859.423</ele>
        <time>2024-08-31T08:35:38Z</time>
      </trkpt>
      <trkpt lat="42.69703" lon="1.40018">
        <ele>1859.429</ele>
        <time>2024-08-31T08:35:40Z</time>
      </trkpt>
      <trkpt lat="42.69703" lon="1.40018">
        <ele>1859.431</ele>
        <time>2024-08-31T08:35:42Z</time>
      </trkpt>
      <trkpt lat="42.69703" lon="1.40018">
        <ele>1859.44</ele>
        <time>2024-08-31T08:35:44Z</time>
      </trkpt>
      <trkpt lat="42.69703" lon="1.40018">
        <ele>1859.441</ele>
        <time>2024-08-31T08:35:46Z</time>
      </trkpt>
      <trkpt lat="42.69703" lon="1.40018">
        <ele>1859.445</ele>
        <time>2024-08-31T08:35:48Z</time>
      </trkpt>
      <trkpt lat="42.69703" lon="1.40018">
        <ele>1859.449</ele>
        <time>2024-08-31T08:35:50Z</time>
      </trkpt>
      <trkpt lat="42.69703" lon="1.40018">
        <ele>1859.446</ele>
        <time>2024-08-31T08:35:52Z</time>
      </trkpt>
      <trkpt lat="42.69703" lon="1.40018">
        <ele>1859.447</ele>
        <time>2024-08-31T08:35:54Z</time>
      </trkpt>
      <trkpt lat="42.69703" lon="1.40018">
        <ele>1859.441</ele>
        <time>2024-08-31T08:35:56Z</time>
      </trkpt>
      <trkpt lat="42.69703" lon="1.40018">
        <ele>1859.438</ele>
        <time>2024-08-31T08:35:58Z</time>
      </trkpt>
      <trkpt lat="42.69703" lon="1.40018">
        <ele>1859.435</ele>
        <time>2024-08-31T08:36:00Z</time>
      </trkpt>
      <trkpt lat="42.69703" lon="1.40018">
        <ele>1859.433</ele>
        <time>2024-08-31T08:36:02Z</time>
      </trkpt>
      <trkpt lat="42.69703" lon="1.40018">
        <ele>1859.429</ele>
        <time>2024-08-31T08:36:04Z</time>
      </trkpt>
      <trkpt lat="42.69703" lon="1.40018">
        <ele>1859.418</ele>
        <time>2024-08-31T08:36:06Z</time>
      </trkpt>
      <trkpt lat="42.69703" lon="1.40018">
        <ele>1859.4</ele>
        <time>2024-08-31T08:36:08Z</time>
      </trkpt>
      <trkpt lat="42.69703" lon="1.40018">
        <ele>1859.389</ele>
        <time>2024-08-31T08:36:10Z</time>
      </trkpt>
      <trkpt lat="42.69703" lon="1.40018">
        <ele>1859.384</ele>
        <time>2024-08-31T08:36:12Z</time>
      </trkpt>
      <trkpt lat="42.69703" lon="1.40018">
        <ele>1859.387</ele>
        <time>2024-08-31T08:36:14Z</time>
      </trkpt>
      <trkpt lat="42.69703" lon="1.40018">
        <ele>1859.398</ele>
        <time>2024-08-31T08:36:16Z</time>
      </trkpt>
      <trkpt lat="42.69703" lon="1.40018">
        <ele>1859.413</ele>
        <time>2024-08-31T08:36:18Z</time>
      </trkpt>
      <trkpt lat="42.69703" lon="1.40018">
        <ele>1859.426</ele>
        <time>2024-08-31T08:36:20Z</time>
      </trkpt>
      <trkpt lat="42.69703" lon="1.40018">
        <ele>1859.431</ele>
        <time>2024-08-31T08:36:22Z</time>
      </trkpt>
      <trkpt lat="42.69703" lon="1.40018">
        <ele>1859.437</ele>
        <time>2024-08-31T08:36:24Z</time>
      </trkpt>
      <trkpt lat="42.69703" lon="1.40018">
        <ele>1859.446</ele>
        <time>2024-08-31T08:36:26Z</time>
      </trkpt>
      <trkpt lat="42.69703" lon="1.40018">
        <ele>1859.437</ele>
        <time>2024-08-31T08:36:28Z</time>
      </trkpt>
      <trkpt lat="42.69703" lon="1.40018">
        <ele>1859.436</ele>
        <time>2024-08-31T08:36:30Z</time>
      </trkpt>
      <trkpt lat="42.69703" lon="1.40018">
        <ele>1859.441</ele>
        <time>2024-08-31T08:36:32Z</time>
      </trkpt>
      <trkpt lat="42.69703" lon="1.40018">
        <ele>1859.443</ele>
        <time>2024-08-31T08:36:34Z</time>
      </trkpt>
      <trkpt lat="42.69703" lon="1.40018">
        <ele>1859.445</ele>
        <time>2024-08-31T08:36:36Z</time>
      </trkpt>
      <trkpt lat="42.69703" lon="1.40018">
        <ele>1859.447</ele>
        <time>2024-08-31T08:36:38Z</time>
      </trkpt>
      <trkpt lat="42.69703" lon="1.40018">
        <ele>1859.444</ele>
        <time>2024-08-31T08:36:40Z</time>
      </trkpt>
      <trkpt lat="42.69703" lon="1.40018">
        <ele>1859.439</ele>
        <time>2024-08-31T08:36:42Z</time>
      </trkpt>
      <trkpt lat="42.69703" lon="1.40018">
        <ele>1859.434</ele>
        <time>2024-08-31T08:36:44Z</time>
      </trkpt>
      <trkpt lat="42.69703" lon="1.40018">
        <ele>1859.429</ele>
        <time>2024-08-31T08:36:46Z</time>
      </trkpt>
      <trkpt lat="42.69703" lon="1.40018">
        <ele>1859.417</ele>
        <time>2024-08-31T08:36:48Z</time>
      </trkpt>
      <trkpt lat="42.69703" lon="1.40018">
        <ele>1859.403</ele>
        <time>2024-08-31T08:36:50Z</time>
      </trkpt>
      <trkpt lat="42.69703" lon="1.40018">
        <ele>1859.401</ele>
        <time>2024-08-31T08:36:52Z</time>
      </trkpt>
      <trkpt lat="42.69703" lon="1.40018">
        <ele>1859.402</ele>
        <time>2024-08-31T08:36:54Z</time>
      </trkpt>
      <trkpt lat="42.69703" lon="1.40018">
        <ele>1859.396</ele>
        <time>2024-08-31T08:36:56Z</time>
      </trkpt>
      <trkpt lat="42.69703" lon="1.40018">
        <ele>1859.399</ele>
        <time>2024-08-31T08:36:58Z</time>
      </trkpt>
      <trkpt lat="42.69703" lon="1.40018">
        <ele>1859.402</ele>
        <time>2024-08-31T08:37:00Z</time>
      </trkpt>
      <trkpt lat="42.69703" lon="1.40018">
        <ele>1859.407</ele>
        <time>2024-08-31T08:37:02Z</time>
      </trkpt>
      <trkpt lat="42.69703" lon="1.40018">
        <ele>1859.41</ele>
        <time>2024-08-31T08:37:04Z</time>
      </trkpt>
      <trkpt lat="42.69703" lon="1.40018">
        <ele>1859.414</ele>
        <time>2024-08-31T08:37:06Z</time>
      </trkpt>
      <trkpt lat="42.69703" lon="1.40018">
        <ele>1859.412</ele>
        <time>2024-08-31T08:37:08Z</time>
      </trkpt>
      <trkpt lat="42.69703" lon="1.40018">
        <ele>1859.416</ele>
        <time>2024-08-31T08:37:10Z</time>
      </trkpt>
      <trkpt lat="42.69703" lon="1.40018">
        <ele>1859.422</ele>
        <time>2024-08-31T08:37:12Z</time>
      </trkpt>
      <trkpt lat="42.69703" lon="1.40018">
        <ele>1859.426</ele>
        <time>2024-08-31T08:37:14Z</time>
      </trkpt>
      <trkpt lat="42.69703" lon="1.40018">
        <ele>1859.428</ele>
        <time>2024-08-31T08:37:16Z</time>
      </trkpt>
      <trkpt lat="42.69703" lon="1.40018">
        <ele>1859.427</ele>
        <time>2024-08-31T08:37:18Z</time>
      </trkpt>
      <trkpt lat="42.69703" lon="1.40018">
        <ele>1859.418</ele>
        <time>2024-08-31T08:37:20Z</time>
      </trkpt>
      <trkpt lat="42.69703" lon="1.40018">
        <ele>1859.412</ele>
        <time>2024-08-31T08:37:22Z</time>
      </trkpt>
      <trkpt lat="42.69703" lon="1.40018">
        <ele>1859.396</ele>
        <time>2024-08-31T08:37:24Z</time>
      </trkpt>
      <trkpt lat="42.69703" lon="1.40018">
        <ele>1859.387</ele>
        <time>2024-08-31T08:37:26Z</time>
      </trkpt>
      <trkpt lat="42.69703" lon="1.40018">
        <ele>1859.38</ele>
        <time>2024-08-31T08:37:28Z</time>
      </trkpt>
      <trkpt lat="42.69703" lon="1.40018">
        <ele>1859.38</ele>
        <time>2024-08-31T08:37:30Z</time>
      </trkpt>
      <trkpt lat="42.69703" lon="1.40018">
        <ele>1859.382</ele>
        <time>2024-08-31T08:37:32Z</time>
      </trkpt>
      <trkpt lat="42.69703" lon="1.40018">
        <ele>1859.386</ele>
        <time>2024-08-31T08:37:34Z</time>
      </trkpt>
      <trkpt lat="42.69703" lon="1.40018">
        <ele>1859.384</ele>
        <time>2024-08-31T08:37:36Z</time>
      </trkpt>
      <trkpt lat="42.697" lon="1.40014">
        <ele>1859.392</ele>
        <time>2024-08-31T08:37:38Z</time>
      </trkpt>
      <trkpt lat="42.697" lon="1.40013">
        <ele>1859.099</ele>
        <time>2024-08-31T08:37:40Z</time>
      </trkpt>
      <trkpt lat="42.697" lon="1.40011">
        <ele>1860.506</ele>
        <time>2024-08-31T08:37:42Z</time>
      </trkpt>
      <trkpt lat="42.697" lon="1.4001">
        <ele>1861.38</ele>
        <time>2024-08-31T08:37:44Z</time>
      </trkpt>
      <trkpt lat="42.69699" lon="1.40009">
        <ele>1861.464</ele>
        <time>2024-08-31T08:37:46Z</time>
      </trkpt>
      <trkpt lat="42.69698" lon="1.40008">
        <ele>1861.215</ele>
        <time>2024-08-31T08:37:48Z</time>
      </trkpt>
      <trkpt lat="42.69698" lon="1.40006">
        <ele>1861.35</ele>
        <time>2024-08-31T08:37:50Z</time>
      </trkpt>
      <trkpt lat="42.69698" lon="1.40005">
        <ele>1862.164</ele>
        <time>2024-08-31T08:37:52Z</time>
      </trkpt>
      <trkpt lat="42.69697" lon="1.40003">
        <ele>1862.942</ele>
        <time>2024-08-31T08:37:54Z</time>
      </trkpt>
      <trkpt lat="42.69697" lon="1.40002">
        <ele>1863.49</ele>
        <time>2024-08-31T08:37:56Z</time>
      </trkpt>
      <trkpt lat="42.69697" lon="1.4">
        <ele>1864.618</ele>
        <time>2024-08-31T08:37:58Z</time>
      </trkpt>
      <trkpt lat="42.69696" lon="1.39999">
        <ele>1864.832</ele>
        <time>2024-08-31T08:38:00Z</time>
      </trkpt>
      <trkpt lat="42.69694" lon="1.39998">
        <ele>1865.265</ele>
        <time>2024-08-31T08:38:02Z</time>
      </trkpt>
      <trkpt lat="42.69694" lon="1.39997">
        <ele>1865.748</ele>
        <time>2024-08-31T08:38:04Z</time>
      </trkpt>
      <trkpt lat="42.69693" lon="1.39995">
        <ele>1865.969</ele>
        <time>2024-08-31T08:38:06Z</time>
      </trkpt>
      <trkpt lat="42.69692" lon="1.39994">
        <ele>1866.424</ele>
        <time>2024-08-31T08:38:08Z</time>
      </trkpt>
      <trkpt lat="42.69692" lon="1.39993">
        <ele>1866.799</ele>
        <time>2024-08-31T08:38:10Z</time>
      </trkpt>
      <trkpt lat="42.69691" lon="1.39992">
        <ele>1867.907</ele>
        <time>2024-08-31T08:38:12Z</time>
      </trkpt>
      <trkpt lat="42.6969" lon="1.3999">
        <ele>1867.427</ele>
        <time>2024-08-31T08:38:14Z</time>
      </trkpt>
      <trkpt lat="42.6969" lon="1.39989">
        <ele>1867.419</ele>
        <time>2024-08-31T08:38:16Z</time>
      </trkpt>
      <trkpt lat="42.6969" lon="1.39988">
        <ele>1867.837</ele>
        <time>2024-08-31T08:38:18Z</time>
      </trkpt>
      <trkpt lat="42.6969" lon="1.39986">
        <ele>1868.023</ele>
        <time>2024-08-31T08:38:20Z</time>
      </trkpt>
      <trkpt lat="42.6969" lon="1.39985">
        <ele>1868.916</ele>
        <time>2024-08-31T08:38:22Z</time>
      </trkpt>
      <trkpt lat="42.6969" lon="1.39983">
        <ele>1869.302</ele>
        <time>2024-08-31T08:38:24Z</time>
      </trkpt>
      <trkpt lat="42.6969" lon="1.39981">
        <ele>1869.621</ele>
        <time>2024-08-31T08:38:26Z</time>
      </trkpt>
      <trkpt lat="42.6969" lon="1.39981">
        <ele>1870.19</ele>
        <time>2024-08-31T08:38:28Z</time>
      </trkpt>
      <trkpt lat="42.69691" lon="1.3998">
        <ele>1870.709</ele>
        <time>2024-08-31T08:38:30Z</time>
      </trkpt>
      <trkpt lat="42.69692" lon="1.3998">
        <ele>1871.106</ele>
        <time>2024-08-31T08:38:32Z</time>
      </trkpt>
      <trkpt lat="42.69693" lon="1.39979">
        <ele>1870.854</ele>
        <time>2024-08-31T08:38:34Z</time>
      </trkpt>
      <trkpt lat="42.69694" lon="1.39978">
        <ele>1870.886</ele>
        <time>2024-08-31T08:38:36Z</time>
      </trkpt>
      <trkpt lat="42.69694" lon="1.39977">
        <ele>1871.778</ele>
        <time>2024-08-31T08:38:38Z</time>
      </trkpt>
      <trkpt lat="42.69694" lon="1.39976">
        <ele>1872.484</ele>
        <time>2024-08-31T08:38:40Z</time>
      </trkpt>
      <trkpt lat="42.69693" lon="1.39975">
        <ele>1872.746</ele>
        <time>2024-08-31T08:38:42Z</time>
      </trkpt>
      <trkpt lat="42.69692" lon="1.39975">
        <ele>1872.521</ele>
        <time>2024-08-31T08:38:44Z</time>
      </trkpt>
      <trkpt lat="42.69692" lon="1.39974">
        <ele>1872.086</ele>
        <time>2024-08-31T08:38:46Z</time>
      </trkpt>
      <trkpt lat="42.69692" lon="1.39972">
        <ele>1871.347</ele>
        <time>2024-08-31T08:38:48Z</time>
      </trkpt>
      <trkpt lat="42.69693" lon="1.39971">
        <ele>1871.808</ele>
        <time>2024-08-31T08:38:50Z</time>
      </trkpt>
      <trkpt lat="42.69693" lon="1.39969">
        <ele>1872.806</ele>
        <time>2024-08-31T08:38:52Z</time>
      </trkpt>
      <trkpt lat="42.69693" lon="1.39968">
        <ele>1872.75</ele>
        <time>2024-08-31T08:38:54Z</time>
      </trkpt>
      <trkpt lat="42.69693" lon="1.39966">
        <ele>1872.67</ele>
        <time>2024-08-31T08:38:56Z</time>
      </trkpt>
      <trkpt lat="42.69693" lon="1.39965">
        <ele>1873.386</ele>
        <time>2024-08-31T08:38:58Z</time>
      </trkpt>
      <trkpt lat="42.69693" lon="1.39964">
        <ele>1873.803</ele>
        <time>2024-08-31T08:39:00Z</time>
      </trkpt>
      <trkpt lat="42.69694" lon="1.39964">
        <ele>1874.587</ele>
        <time>2024-08-31T08:39:02Z</time>
      </trkpt>
      <trkpt lat="42.69695" lon="1.39964">
        <ele>1874.682</ele>
        <time>2024-08-31T08:39:04Z</time>
      </trkpt>
      <trkpt lat="42.69695" lon="1.39963">
        <ele>1874.721</ele>
        <time>2024-08-31T08:39:06Z</time>
      </trkpt>
      <trkpt lat="42.69696" lon="1.39963">
        <ele>1875.836</ele>
        <time>2024-08-31T08:39:08Z</time>
      </trkpt>
      <trkpt lat="42.69697" lon="1.39963">
        <ele>1875.749</ele>
        <time>2024-08-31T08:39:10Z</time>
      </trkpt>
      <trkpt lat="42.69698" lon="1.39963">
        <ele>1876.281</ele>
        <time>2024-08-31T08:39:12Z</time>
      </trkpt>
      <trkpt lat="42.69698" lon="1.39962">
        <ele>1876.495</ele>
        <time>2024-08-31T08:39:14Z</time>
      </trkpt>
      <trkpt lat="42.69699" lon="1.39962">
        <ele>1876.606</ele>
        <time>2024-08-31T08:39:16Z</time>
      </trkpt>
      <trkpt lat="42.697" lon="1.3996">
        <ele>1877.864</ele>
        <time>2024-08-31T08:39:18Z</time>
      </trkpt>
      <trkpt lat="42.697" lon="1.39959">
        <ele>1878.648</ele>
        <time>2024-08-31T08:39:20Z</time>
      </trkpt>
      <trkpt lat="42.697" lon="1.39958">
        <ele>1878.612</ele>
        <time>2024-08-31T08:39:22Z</time>
      </trkpt>
      <trkpt lat="42.697" lon="1.39957">
        <ele>1879.658</ele>
        <time>2024-08-31T08:39:24Z</time>
      </trkpt>
      <trkpt lat="42.69699" lon="1.39955">
        <ele>1879.88</ele>
        <time>2024-08-31T08:39:26Z</time>
      </trkpt>
      <trkpt lat="42.69699" lon="1.39954">
        <ele>1880.084</ele>
        <time>2024-08-31T08:39:28Z</time>
      </trkpt>
      <trkpt lat="42.69699" lon="1.39953">
        <ele>1881.116</ele>
        <time>2024-08-31T08:39:30Z</time>
      </trkpt>
      <trkpt lat="42.697" lon="1.39951">
        <ele>1880.911</ele>
        <time>2024-08-31T08:39:32Z</time>
      </trkpt>
      <trkpt lat="42.697" lon="1.3995">
        <ele>1880.873</ele>
        <time>2024-08-31T08:39:34Z</time>
      </trkpt>
      <trkpt lat="42.69699" lon="1.39949">
        <ele>1880.155</ele>
        <time>2024-08-31T08:39:36Z</time>
      </trkpt>
      <trkpt lat="42.69699" lon="1.39948">
        <ele>1880.728</ele>
        <time>2024-08-31T08:39:38Z</time>
      </trkpt>
      <trkpt lat="42.69699" lon="1.39946">
        <ele>1881.701</ele>
        <time>2024-08-31T08:39:40Z</time>
      </trkpt>
      <trkpt lat="42.69699" lon="1.39945">
        <ele>1882.442</ele>
        <time>2024-08-31T08:39:42Z</time>
      </trkpt>
      <trkpt lat="42.69699" lon="1.39943">
        <ele>1882.956</ele>
        <time>2024-08-31T08:39:44Z</time>
      </trkpt>
      <trkpt lat="42.69699" lon="1.39942">
        <ele>1883.882</ele>
        <time>2024-08-31T08:39:46Z</time>
      </trkpt>
      <trkpt lat="42.69699" lon="1.39941">
        <ele>1884.264</ele>
        <time>2024-08-31T08:39:48Z</time>
      </trkpt>
      <trkpt lat="42.69699" lon="1.3994">
        <ele>1884.423</ele>
        <time>2024-08-31T08:39:50Z</time>
      </trkpt>
      <trkpt lat="42.69699" lon="1.39939">
        <ele>1885.285</ele>
        <time>2024-08-31T08:39:52Z</time>
      </trkpt>
      <trkpt lat="42.69699" lon="1.39938">
        <ele>1885.101</ele>
        <time>2024-08-31T08:39:54Z</time>
      </trkpt>
      <trkpt lat="42.69699" lon="1.39937">
        <ele>1885.573</ele>
        <time>2024-08-31T08:39:56Z</time>
      </trkpt>
      <trkpt lat="42.69699" lon="1.39935">
        <ele>1884.941</ele>
        <time>2024-08-31T08:39:58Z</time>
      </trkpt>
      <trkpt lat="42.69699" lon="1.39934">
        <ele>1884.956</ele>
        <time>2024-08-31T08:40:00Z</time>
      </trkpt>
      <trkpt lat="42.69699" lon="1.39933">
        <ele>1885.145</ele>
        <time>2024-08-31T08:40:02Z</time>
      </trkpt>
      <trkpt lat="42.697" lon="1.39932">
        <ele>1885.058</ele>
        <time>2024-08-31T08:40:04Z</time>
      </trkpt>
      <trkpt lat="42.69699" lon="1.39931">
        <ele>1885.356</ele>
        <time>2024-08-31T08:40:06Z</time>
      </trkpt>
      <trkpt lat="42.69699" lon="1.39929">
        <ele>1885.695</ele>
        <time>2024-08-31T08:40:08Z</time>
      </trkpt>
      <trkpt lat="42.69699" lon="1.39928">
        <ele>1885.571</ele>
        <time>2024-08-31T08:40:10Z</time>
      </trkpt>
      <trkpt lat="42.69698" lon="1.39928">
        <ele>1885.317</ele>
        <time>2024-08-31T08:40:12Z</time>
      </trkpt>
      <trkpt lat="42.69697" lon="1.39927">
        <ele>1885.721</ele>
        <time>2024-08-31T08:40:14Z</time>
      </trkpt>
      <trkpt lat="42.69697" lon="1.39926">
        <ele>1886.281</ele>
        <time>2024-08-31T08:40:16Z</time>
      </trkpt>
      <trkpt lat="42.69697" lon="1.39924">
        <ele>1886.476</ele>
        <time>2024-08-31T08:40:18Z</time>
      </trkpt>
      <trkpt lat="42.69698" lon="1.39923">
        <ele>1887.177</ele>
        <time>2024-08-31T08:40:20Z</time>
      </trkpt>
      <trkpt lat="42.69697" lon="1.39922">
        <ele>1887.111</ele>
        <time>2024-08-31T08:40:22Z</time>
      </trkpt>
      <trkpt lat="42.69697" lon="1.39921">
        <ele>1887.556</ele>
        <time>2024-08-31T08:40:24Z</time>
      </trkpt>
      <trkpt lat="42.69697" lon="1.3992">
        <ele>1887.653</ele>
        <time>2024-08-31T08:40:26Z</time>
      </trkpt>
      <trkpt lat="42.69696" lon="1.39919">
        <ele>1887.153</ele>
        <time>2024-08-31T08:40:28Z</time>
      </trkpt>
      <trkpt lat="42.69697" lon="1.39918">
        <ele>1887.533</ele>
        <time>2024-08-31T08:40:30Z</time>
      </trkpt>
      <trkpt lat="42.69697" lon="1.39917">
        <ele>1887.375</ele>
        <time>2024-08-31T08:40:32Z</time>
      </trkpt>
      <trkpt lat="42.69698" lon="1.39916">
        <ele>1888.237</ele>
        <time>2024-08-31T08:40:34Z</time>
      </trkpt>
      <trkpt lat="42.69698" lon="1.39915">
        <ele>1889.165</ele>
        <time>2024-08-31T08:40:36Z</time>
      </trkpt>
      <trkpt lat="42.69698" lon="1.39915">
        <ele>1888.407</ele>
        <time>2024-08-31T08:40:38Z</time>
      </trkpt>
      <trkpt lat="42.69698" lon="1.39915">
        <ele>1887.562</ele>
        <time>2024-08-31T08:40:40Z</time>
      </trkpt>
      <trkpt lat="42.69698" lon="1.39915">
        <ele>1887.319</ele>
        <time>2024-08-31T08:40:42Z</time>
      </trkpt>
      <trkpt lat="42.69698" lon="1.39915">
        <ele>1888.652</ele>
        <time>2024-08-31T08:40:44Z</time>
      </trkpt>
      <trkpt lat="42.69698" lon="1.39915">
        <ele>1889.201</ele>
        <time>2024-08-31T08:40:46Z</time>
      </trkpt>
      <trkpt lat="42.69698" lon="1.39915">
        <ele>1889.361</ele>
        <time>2024-08-31T08:40:48Z</time>
      </trkpt>
      <trkpt lat="42.69698" lon="1.3991">
        <ele>1890.018</ele>
        <time>2024-08-31T08:40:50Z</time>
      </trkpt>
      <trkpt lat="42.69698" lon="1.39909">
        <ele>1890.814</ele>
        <time>2024-08-31T08:40:52Z</time>
      </trkpt>
      <trkpt lat="42.69698" lon="1.39908">
        <ele>1891.705</ele>
        <time>2024-08-31T08:40:54Z</time>
      </trkpt>
      <trkpt lat="42.69698" lon="1.39908">
        <ele>1892.681</ele>
        <time>2024-08-31T08:40:56Z</time>
      </trkpt>
      <trkpt lat="42.69698" lon="1.39907">
        <ele>1893.261</ele>
        <time>2024-08-31T08:40:58Z</time>
      </trkpt>
      <trkpt lat="42.69697" lon="1.39906">
        <ele>1893.906</ele>
        <time>2024-08-31T08:41:00Z</time>
      </trkpt>
      <trkpt lat="42.69697" lon="1.39905">
        <ele>1893.566</ele>
        <time>2024-08-31T08:41:02Z</time>
      </trkpt>
      <trkpt lat="42.69697" lon="1.39904">
        <ele>1894.218</ele>
        <time>2024-08-31T08:41:04Z</time>
      </trkpt>
      <trkpt lat="42.69697" lon="1.39903">
        <ele>1893.97</ele>
        <time>2024-08-31T08:41:06Z</time>
      </trkpt>
      <trkpt lat="42.69697" lon="1.39902">
        <ele>1894.151</ele>
        <time>2024-08-31T08:41:08Z</time>
      </trkpt>
      <trkpt lat="42.69697" lon="1.39901">
        <ele>1893.586</ele>
        <time>2024-08-31T08:41:10Z</time>
      </trkpt>
      <trkpt lat="42.69698" lon="1.39901">
        <ele>1894.416</ele>
        <time>2024-08-31T08:41:12Z</time>
      </trkpt>
      <trkpt lat="42.69698" lon="1.39901">
        <ele>1894.816</ele>
        <time>2024-08-31T08:41:14Z</time>
      </trkpt>
      <trkpt lat="42.69698" lon="1.399">
        <ele>1895.596</ele>
        <time>2024-08-31T08:41:16Z</time>
      </trkpt>
      <trkpt lat="42.69697" lon="1.39899">
        <ele>1895.847</ele>
        <time>2024-08-31T08:41:18Z</time>
      </trkpt>
      <trkpt lat="42.69697" lon="1.39899">
        <ele>1895.51</ele>
        <time>2024-08-31T08:41:20Z</time>
      </trkpt>
      <trkpt lat="42.69696" lon="1.39897">
        <ele>1895.887</ele>
        <time>2024-08-31T08:41:22Z</time>
      </trkpt>
      <trkpt lat="42.69695" lon="1.39896">
        <ele>1895.542</ele>
        <time>2024-08-31T08:41:24Z</time>
      </trkpt>
      <trkpt lat="42.69695" lon="1.39895">
        <ele>1894.744</ele>
        <time>2024-08-31T08:41:26Z</time>
      </trkpt>
      <trkpt lat="42.69696" lon="1.39894">
        <ele>1895.097</ele>
        <time>2024-08-31T08:41:28Z</time>
      </trkpt>
      <trkpt lat="42.69696" lon="1.39894">
        <ele>1895.622</ele>
        <time>2024-08-31T08:41:30Z</time>
      </trkpt>
      <trkpt lat="42.69696" lon="1.39893">
        <ele>1895.655</ele>
        <time>2024-08-31T08:41:32Z</time>
      </trkpt>
      <trkpt lat="42.69696" lon="1.39892">
        <ele>1895.307</ele>
        <time>2024-08-31T08:41:34Z</time>
      </trkpt>
      <trkpt lat="42.69696" lon="1.39891">
        <ele>1895.422</ele>
        <time>2024-08-31T08:41:36Z</time>
      </trkpt>
      <trkpt lat="42.69696" lon="1.3989">
        <ele>1895.822</ele>
        <time>2024-08-31T08:41:38Z</time>
      </trkpt>
      <trkpt lat="42.69695" lon="1.39889">
        <ele>1895.711</ele>
        <time>2024-08-31T08:41:40Z</time>
      </trkpt>
      <trkpt lat="42.69694" lon="1.39889">
        <ele>1895.019</ele>
        <time>2024-08-31T08:41:42Z</time>
      </trkpt>
      <trkpt lat="42.69694" lon="1.39889">
        <ele>1894.019</ele>
        <time>2024-08-31T08:41:44Z</time>
      </trkpt>
      <trkpt lat="42.69693" lon="1.39888">
        <ele>1894.759</ele>
        <time>2024-08-31T08:41:46Z</time>
      </trkpt>
      <trkpt lat="42.69692" lon="1.39888">
        <ele>1895.835</ele>
        <time>2024-08-31T08:41:48Z</time>
      </trkpt>
      <trkpt lat="42.69692" lon="1.39887">
        <ele>1895.891</ele>
        <time>2024-08-31T08:41:50Z</time>
      </trkpt>
      <trkpt lat="42.69691" lon="1.39887">
        <ele>1896.541</ele>
        <time>2024-08-31T08:41:52Z</time>
      </trkpt>
      <trkpt lat="42.6969" lon="1.39886">
        <ele>1897.66</ele>
        <time>2024-08-31T08:41:54Z</time>
      </trkpt>
      <trkpt lat="42.69689" lon="1.39885">
        <ele>1898.512</ele>
        <time>2024-08-31T08:41:56Z</time>
      </trkpt>
      <trkpt lat="42.69688" lon="1.39885">
        <ele>1898.502</ele>
        <time>2024-08-31T08:41:58Z</time>
      </trkpt>
      <trkpt lat="42.69688" lon="1.39884">
        <ele>1898.713</ele>
        <time>2024-08-31T08:42:00Z</time>
      </trkpt>
      <trkpt lat="42.69687" lon="1.39883">
        <ele>1898.616</ele>
        <time>2024-08-31T08:42:02Z</time>
      </trkpt>
      <trkpt lat="42.69687" lon="1.39881">
        <ele>1898.841</ele>
        <time>2024-08-31T08:42:04Z</time>
      </trkpt>
      <trkpt lat="42.69687" lon="1.3988">
        <ele>1898.536</ele>
        <time>2024-08-31T08:42:06Z</time>
      </trkpt>
      <trkpt lat="42.69688" lon="1.39878">
        <ele>1898.498</ele>
        <time>2024-08-31T08:42:08Z</time>
      </trkpt>
      <trkpt lat="42.69688" lon="1.39878">
        <ele>1898.985</ele>
        <time>2024-08-31T08:42:10Z</time>
      </trkpt>
      <trkpt lat="42.69689" lon="1.39877">
        <ele>1899.235</ele>
        <time>2024-08-31T08:42:12Z</time>
      </trkpt>
      <trkpt lat="42.69689" lon="1.39876">
        <ele>1900.484</ele>
        <time>2024-08-31T08:42:14Z</time>
      </trkpt>
      <trkpt lat="42.69689" lon="1.39875">
        <ele>1900.262</ele>
        <time>2024-08-31T08:42:16Z</time>
      </trkpt>
      <trkpt lat="42.69689" lon="1.39874">
        <ele>1900.896</ele>
        <time>2024-08-31T08:42:18Z</time>
      </trkpt>
      <trkpt lat="42.69689" lon="1.39874">
        <ele>1900.938</ele>
        <time>2024-08-31T08:42:20Z</time>
      </trkpt>
      <trkpt lat="42.69689" lon="1.39874">
        <ele>1902.187</ele>
        <time>2024-08-31T08:42:22Z</time>
      </trkpt>
      <trkpt lat="42.69689" lon="1.39874">
        <ele>1902.67</ele>
        <time>2024-08-31T08:42:24Z</time>
      </trkpt>
      <trkpt lat="42.69689" lon="1.39874">
        <ele>1902.582</ele>
        <time>2024-08-31T08:42:26Z</time>
      </trkpt>
      <trkpt lat="42.69689" lon="1.39874">
        <ele>1903.004</ele>
        <time>2024-08-31T08:42:28Z</time>
      </trkpt>
      <trkpt lat="42.69689" lon="1.39874">
        <ele>1902.564</ele>
        <time>2024-08-31T08:42:30Z</time>
      </trkpt>
      <trkpt lat="42.69689" lon="1.39874">
        <ele>1902.51</ele>
        <time>2024-08-31T08:42:32Z</time>
      </trkpt>
      <trkpt lat="42.69689" lon="1.39874">
        <ele>1903.066</ele>
        <time>2024-08-31T08:42:34Z</time>
      </trkpt>
      <trkpt lat="42.69689" lon="1.39874">
        <ele>1903.137</ele>
        <time>2024-08-31T08:42:36Z</time>
      </trkpt>
      <trkpt lat="42.69689" lon="1.39874">
        <ele>1903.214</ele>
        <time>2024-08-31T08:42:38Z</time>
      </trkpt>
      <trkpt lat="42.69689" lon="1.39874">
        <ele>1904.118</ele>
        <time>2024-08-31T08:42:40Z</time>
      </trkpt>
      <trkpt lat="42.69689" lon="1.39874">
        <ele>1905.058</ele>
        <time>2024-08-31T08:42:42Z</time>
      </trkpt>
      <trkpt lat="42.69689" lon="1.39874">
        <ele>1905.166</ele>
        <time>2024-08-31T08:42:44Z</time>
      </trkpt>
      <trkpt lat="42.69689" lon="1.39874">
        <ele>1904.626</ele>
        <time>2024-08-31T08:42:46Z</time>
      </trkpt>
      <trkpt lat="42.69689" lon="1.39874">
        <ele>1904.155</ele>
        <time>2024-08-31T08:42:48Z</time>
      </trkpt>
      <trkpt lat="42.69689" lon="1.39874">
        <ele>1904.16</ele>
        <time>2024-08-31T08:42:50Z</time>
      </trkpt>
      <trkpt lat="42.69689" lon="1.39874">
        <ele>1904.156</ele>
        <time>2024-08-31T08:42:52Z</time>
      </trkpt>
      <trkpt lat="42.69689" lon="1.39874">
        <ele>1903.337</ele>
        <time>2024-08-31T08:42:54Z</time>
      </trkpt>
      <trkpt lat="42.69689" lon="1.39874">
        <ele>1903.703</ele>
        <time>2024-08-31T08:42:56Z</time>
      </trkpt>
      <trkpt lat="42.69689" lon="1.39874">
        <ele>1904.166</ele>
        <time>2024-08-31T08:42:58Z</time>
      </trkpt>
      <trkpt lat="42.69689" lon="1.39874">
        <ele>1904.576</ele>
        <time>2024-08-31T08:43:00Z</time>
      </trkpt>
      <trkpt lat="42.69689" lon="1.39874">
        <ele>1905.109</ele>
        <time>2024-08-31T08:43:02Z</time>
      </trkpt>
      <trkpt lat="42.69683" lon="1.3986">
        <ele>1905.193</ele>
        <time>2024-08-31T08:43:04Z</time>
      </trkpt>
      <trkpt lat="42.69682" lon="1.3986">
        <ele>1905.67</ele>
        <time>2024-08-31T08:43:06Z</time>
      </trkpt>
      <trkpt lat="42.69682" lon="1.39858">
        <ele>1904.976</ele>
        <time>2024-08-31T08:43:08Z</time>
      </trkpt>
      <trkpt lat="42.69681" lon="1.39858">
        <ele>1905.042</ele>
        <time>2024-08-31T08:43:10Z</time>
      </trkpt>
      <trkpt lat="42.69681" lon="1.39857">
        <ele>1905.652</ele>
        <time>2024-08-31T08:43:12Z</time>
      </trkpt>
      <trkpt lat="42.6968" lon="1.39858">
        <ele>1905.626</ele>
        <time>2024-08-31T08:43:14Z</time>
      </trkpt>
      <trkpt lat="42.69679" lon="1.39858">
        <ele>1905.355</ele>
        <time>2024-08-31T08:43:16Z</time>
      </trkpt>
      <trkpt lat="42.69679" lon="1.39858">
        <ele>1905.669</ele>
        <time>2024-08-31T08:43:18Z</time>
      </trkpt>
      <trkpt lat="42.69679" lon="1.39858">
        <ele>1905.531</ele>
        <time>2024-08-31T08:43:20Z</time>
      </trkpt>
      <trkpt lat="42.69679" lon="1.39858">
        <ele>1905.497</ele>
        <time>2024-08-31T08:43:22Z</time>
      </trkpt>
      <trkpt lat="42.69679" lon="1.39858">
        <ele>1905.507</ele>
        <time>2024-08-31T08:43:24Z</time>
      </trkpt>
      <trkpt lat="42.69679" lon="1.39858">
        <ele>1906.519</ele>
        <time>2024-08-31T08:43:26Z</time>
      </trkpt>
      <trkpt lat="42.69679" lon="1.39858">
        <ele>1906.613</ele>
        <time>2024-08-31T08:43:28Z</time>
      </trkpt>
      <trkpt lat="42.69679" lon="1.39858">
        <ele>1907.723</ele>
        <time>2024-08-31T08:43:30Z</time>
      </trkpt>
      <trkpt lat="42.69679" lon="1.39858">
        <ele>1907.88</ele>
        <time>2024-08-31T08:43:32Z</time>
      </trkpt>
      <trkpt lat="42.69679" lon="1.39858">
        <ele>1908.237</ele>
        <time>2024-08-31T08:43:34Z</time>
      </trkpt>
      <trkpt lat="42.69679" lon="1.39858">
        <ele>1908.841</ele>
        <time>2024-08-31T08:43:36Z</time>
      </trkpt>
      <trkpt lat="42.69679" lon="1.39858">
        <ele>1909.501</ele>
        <time>2024-08-31T08:43:38Z</time>
      </trkpt>
      <trkpt lat="42.69679" lon="1.39858">
        <ele>1910.145</ele>
        <time>2024-08-31T08:43:40Z</time>
      </trkpt>
      <trkpt lat="42.69679" lon="1.39858">
        <ele>1910.722</ele>
        <time>2024-08-31T08:43:42Z</time>
      </trkpt>
      <trkpt lat="42.69679" lon="1.39858">
        <ele>1911.438</ele>
        <time>2024-08-31T08:43:44Z</time>
      </trkpt>
      <trkpt lat="42.69679" lon="1.39858">
        <ele>1912.093</ele>
        <time>2024-08-31T08:43:46Z</time>
      </trkpt>
      <trkpt lat="42.69679" lon="1.39858">
        <ele>1912.106</ele>
        <time>2024-08-31T08:43:48Z</time>
      </trkpt>
      <trkpt lat="42.69679" lon="1.39858">
        <ele>1912.115</ele>
        <time>2024-08-31T08:43:50Z</time>
      </trkpt>
      <trkpt lat="42.69679" lon="1.39858">
        <ele>1912.118</ele>
        <time>2024-08-31T08:43:52Z</time>
      </trkpt>
      <trkpt lat="42.69679" lon="1.39858">
        <ele>1912.796</ele>
        <time>2024-08-31T08:43:54Z</time>
      </trkpt>
      <trkpt lat="42.69679" lon="1.39858">
        <ele>1912.979</ele>
        <time>2024-08-31T08:43:56Z</time>
      </trkpt>
      <trkpt lat="42.69679" lon="1.39858">
        <ele>1913.816</ele>
        <time>2024-08-31T08:43:58Z</time>
      </trkpt>
      <trkpt lat="42.69679" lon="1.39858">
        <ele>1914.392</ele>
        <time>2024-08-31T08:44:00Z</time>
      </trkpt>
      <trkpt lat="42.69679" lon="1.39858">
        <ele>1915.795</ele>
        <time>2024-08-31T08:44:02Z</time>
      </trkpt>
      <trkpt lat="42.69679" lon="1.39858">
        <ele>1916.096</ele>
        <time>2024-08-31T08:44:04Z</time>
      </trkpt>
      <trkpt lat="42.69679" lon="1.39858">
        <ele>1916.8</ele>
        <time>2024-08-31T08:44:06Z</time>
      </trkpt>
      <trkpt lat="42.69679" lon="1.39858">
        <ele>1916.83</ele>
        <time>2024-08-31T08:44:08Z</time>
      </trkpt>
      <trkpt lat="42.69679" lon="1.39858">
        <ele>1915.831</ele>
        <time>2024-08-31T08:44:10Z</time>
      </trkpt>
      <trkpt lat="42.69679" lon="1.39858">
        <ele>1916.201</ele>
        <time>2024-08-31T08:44:12Z</time>
      </trkpt>
      <trkpt lat="42.69679" lon="1.39858">
        <ele>1917.136</ele>
        <time>2024-08-31T08:44:14Z</time>
      </trkpt>
      <trkpt lat="42.69679" lon="1.39858">
        <ele>1918.392</ele>
        <time>2024-08-31T08:44:16Z</time>
      </trkpt>
      <trkpt lat="42.69679" lon="1.39858">
        <ele>1918.875</ele>
        <time>2024-08-31T08:44:18Z</time>
      </trkpt>
      <trkpt lat="42.69679" lon="1.39858">
        <ele>1919.412</ele>
        <time>2024-08-31T08:44:20Z</time>
      </trkpt>
      <trkpt lat="42.69679" lon="1.39858">
        <ele>1919.797</ele>
        <time>2024-08-31T08:44:22Z</time>
      </trkpt>
      <trkpt lat="42.69679" lon="1.39858">
        <ele>1920.626</ele>
        <time>2024-08-31T08:44:24Z</time>
      </trkpt>
      <trkpt lat="42.69679" lon="1.39858">
        <ele>1922.267</ele>
        <time>2024-08-31T08:44:26Z</time>
      </trkpt>
      <trkpt lat="42.69679" lon="1.39858">
        <ele>1922.234</ele>
        <time>2024-08-31T08:44:28Z</time>
      </trkpt>
      <trkpt lat="42.69679" lon="1.39858">
        <ele>1922.895</ele>
        <time>2024-08-31T08:44:30Z</time>
      </trkpt>
      <trkpt lat="42.69679" lon="1.39858">
        <ele>1923.455</ele>
        <time>2024-08-31T08:44:32Z</time>
      </trkpt>
      <trkpt lat="42.69679" lon="1.39858">
        <ele>1923.405</ele>
        <time>2024-08-31T08:44:34Z</time>
      </trkpt>
      <trkpt lat="42.69679" lon="1.39858">
        <ele>1923.467</ele>
        <time>2024-08-31T08:44:36Z</time>
      </trkpt>
      <trkpt lat="42.69679" lon="1.39858">
        <ele>1923.69</ele>
        <time>2024-08-31T08:44:38Z</time>
      </trkpt>
      <trkpt lat="42.69679" lon="1.39858">
        <ele>1923.705</ele>
        <time>2024-08-31T08:44:40Z</time>
      </trkpt>
      <trkpt lat="42.69679" lon="1.39858">
        <ele>1923.688</ele>
        <time>2024-08-31T08:44:42Z</time>
      </trkpt>
      <trkpt lat="42.69679" lon="1.39858">
        <ele>1923.696</ele>
        <time>2024-08-31T08:44:44Z</time>
      </trkpt>
      <trkpt lat="42.69679" lon="1.39858">
        <ele>1923.695</ele>
        <time>2024-08-31T08:44:46Z</time>
      </trkpt>
      <trkpt lat="42.69679" lon="1.39858">
        <ele>1923.692</ele>
        <time>2024-08-31T08:44:48Z</time>
      </trkpt>
      <trkpt lat="42.69679" lon="1.39858">
        <ele>1923.69</ele>
        <time>2024-08-31T08:44:50Z</time>
      </trkpt>
      <trkpt lat="42.69679" lon="1.39858">
        <ele>1923.702</ele>
        <time>2024-08-31T08:44:52Z</time>
      </trkpt>
      <trkpt lat="42.69679" lon="1.39858">
        <ele>1923.717</ele>
        <time>2024-08-31T08:44:54Z</time>
      </trkpt>
      <trkpt lat="42.69679" lon="1.39858">
        <ele>1923.702</ele>
        <time>2024-08-31T08:44:56Z</time>
      </trkpt>
      <trkpt lat="42.69679" lon="1.39858">
        <ele>1923.683</ele>
        <time>2024-08-31T08:44:58Z</time>
      </trkpt>
      <trkpt lat="42.69679" lon="1.39858">
        <ele>1923.684</ele>
        <time>2024-08-31T08:45:00Z</time>
      </trkpt>
      <trkpt lat="42.69679" lon="1.39858">
        <ele>1923.691</ele>
        <time>2024-08-31T08:45:02Z</time>
      </trkpt>
      <trkpt lat="42.69679" lon="1.39858">
        <ele>1923.664</ele>
        <time>2024-08-31T08:45:04Z</time>
      </trkpt>
      <trkpt lat="42.69679" lon="1.39858">
        <ele>1923.653</ele>
        <time>2024-08-31T08:45:06Z</time>
      </trkpt>
      <trkpt lat="42.69679" lon="1.39858">
        <ele>1923.649</ele>
        <time>2024-08-31T08:45:08Z</time>
      </trkpt>
      <trkpt lat="42.69679" lon="1.39858">
        <ele>1923.667</ele>
        <time>2024-08-31T08:45:10Z</time>
      </trkpt>
      <trkpt lat="42.69679" lon="1.39858">
        <ele>1923.662</ele>
        <time>2024-08-31T08:45:12Z</time>
      </trkpt>
      <trkpt lat="42.69679" lon="1.39858">
        <ele>1923.658</ele>
        <time>2024-08-31T08:45:14Z</time>
      </trkpt>
      <trkpt lat="42.69679" lon="1.39858">
        <ele>1923.646</ele>
        <time>2024-08-31T08:45:16Z</time>
      </trkpt>
      <trkpt lat="42.69679" lon="1.39858">
        <ele>1923.646</ele>
        <time>2024-08-31T08:45:18Z</time>
      </trkpt>
      <trkpt lat="42.69679" lon="1.39858">
        <ele>1923.641</ele>
        <time>2024-08-31T08:45:20Z</time>
      </trkpt>
      <trkpt lat="42.69679" lon="1.39858">
        <ele>1923.661</ele>
        <time>2024-08-31T08:45:22Z</time>
      </trkpt>
      <trkpt lat="42.69679" lon="1.39858">
        <ele>1923.648</ele>
        <time>2024-08-31T08:45:24Z</time>
      </trkpt>
      <trkpt lat="42.69679" lon="1.39858">
        <ele>1923.645</ele>
        <time>2024-08-31T08:45:26Z</time>
      </trkpt>
      <trkpt lat="42.69679" lon="1.39858">
        <ele>1923.366</ele>
        <time>2024-08-31T08:45:28Z</time>
      </trkpt>
      <trkpt lat="42.69679" lon="1.39858">
        <ele>1923.766</ele>
        <time>2024-08-31T08:45:30Z</time>
      </trkpt>
      <trkpt lat="42.69679" lon="1.39858">
        <ele>1924.169</ele>
        <time>2024-08-31T08:45:32Z</time>
      </trkpt>
      <trkpt lat="42.69679" lon="1.39858">
        <ele>1923.662</ele>
        <time>2024-08-31T08:45:34Z</time>
      </trkpt>
      <trkpt lat="42.69679" lon="1.39858">
        <ele>1923.659</ele>
        <time>2024-08-31T08:45:36Z</time>
      </trkpt>
      <trkpt lat="42.69679" lon="1.39858">
        <ele>1923.658</ele>
        <time>2024-08-31T08:45:38Z</time>
      </trkpt>
      <trkpt lat="42.69679" lon="1.39858">
        <ele>1923.661</ele>
        <time>2024-08-31T08:45:40Z</time>
      </trkpt>
      <trkpt lat="42.69679" lon="1.39858">
        <ele>1923.663</ele>
        <time>2024-08-31T08:45:42Z</time>
      </trkpt>
      <trkpt lat="42.69679" lon="1.39858">
        <ele>1923.67</ele>
        <time>2024-08-31T08:45:44Z</time>
      </trkpt>
      <trkpt lat="42.69679" lon="1.39858">
        <ele>1923.621</ele>
        <time>2024-08-31T08:45:46Z</time>
      </trkpt>
      <trkpt lat="42.69679" lon="1.39858">
        <ele>1923.616</ele>
        <time>2024-08-31T08:45:48Z</time>
      </trkpt>
      <trkpt lat="42.69679" lon="1.39858">
        <ele>1923.618</ele>
        <time>2024-08-31T08:45:50Z</time>
      </trkpt>
      <trkpt lat="42.69679" lon="1.39858">
        <ele>1923.618</ele>
        <time>2024-08-31T08:45:52Z</time>
      </trkpt>
      <trkpt lat="42.69679" lon="1.39858">
        <ele>1923.94</ele>
        <time>2024-08-31T08:45:54Z</time>
      </trkpt>
      <trkpt lat="42.69679" lon="1.39858">
        <ele>1924.195</ele>
        <time>2024-08-31T08:45:56Z</time>
      </trkpt>
      <trkpt lat="42.69679" lon="1.39858">
        <ele>1924.186</ele>
        <time>2024-08-31T08:45:58Z</time>
      </trkpt>
      <trkpt lat="42.69679" lon="1.39858">
        <ele>1924.185</ele>
        <time>2024-08-31T08:46:00Z</time>
      </trkpt>
      <trkpt lat="42.69679" lon="1.39858">
        <ele>1924.177</ele>
        <time>2024-08-31T08:46:02Z</time>
      </trkpt>
      <trkpt lat="42.69679" lon="1.39858">
        <ele>1924.167</ele>
        <time>2024-08-31T08:46:04Z</time>
      </trkpt>
      <trkpt lat="42.69679" lon="1.39858">
        <ele>1924.166</ele>
        <time>2024-08-31T08:46:06Z</time>
      </trkpt>
      <trkpt lat="42.69679" lon="1.39858">
        <ele>1924.17</ele>
        <time>2024-08-31T08:46:08Z</time>
      </trkpt>
      <trkpt lat="42.69679" lon="1.39858">
        <ele>1924.17</ele>
        <time>2024-08-31T08:46:10Z</time>
      </trkpt>
      <trkpt lat="42.69679" lon="1.39858">
        <ele>1924.162</ele>
        <time>2024-08-31T08:46:12Z</time>
      </trkpt>
      <trkpt lat="42.69679" lon="1.39858">
        <ele>1924.158</ele>
        <time>2024-08-31T08:46:14Z</time>
      </trkpt>
      <trkpt lat="42.69679" lon="1.39858">
        <ele>1924.15</ele>
        <time>2024-08-31T08:46:16Z</time>
      </trkpt>
      <trkpt lat="42.69679" lon="1.39858">
        <ele>1924.149</ele>
        <time>2024-08-31T08:46:18Z</time>
      </trkpt>
      <trkpt lat="42.69679" lon="1.39858">
        <ele>1924.145</ele>
        <time>2024-08-31T08:46:20Z</time>
      </trkpt>
      <trkpt lat="42.69679" lon="1.39858">
        <ele>1924.141</ele>
        <time>2024-08-31T08:46:22Z</time>
      </trkpt>
      <trkpt lat="42.69679" lon="1.39858">
        <ele>1924.141</ele>
        <time>2024-08-31T08:46:24Z</time>
      </trkpt>
      <trkpt lat="42.69679" lon="1.39858">
        <ele>1924.137</ele>
        <time>2024-08-31T08:46:26Z</time>
      </trkpt>
      <trkpt lat="42.69679" lon="1.39858">
        <ele>1924.138</ele>
        <time>2024-08-31T08:46:28Z</time>
      </trkpt>
      <trkpt lat="42.69679" lon="1.39858">
        <ele>1924.144</ele>
        <time>2024-08-31T08:46:30Z</time>
      </trkpt>
      <trkpt lat="42.69679" lon="1.39858">
        <ele>1924.36</ele>
        <time>2024-08-31T08:46:32Z</time>
      </trkpt>
      <trkpt lat="42.69679" lon="1.39858">
        <ele>1924.358</ele>
        <time>2024-08-31T08:46:34Z</time>
      </trkpt>
      <trkpt lat="42.69679" lon="1.39858">
        <ele>1924.355</ele>
        <time>2024-08-31T08:46:36Z</time>
      </trkpt>
      <trkpt lat="42.69679" lon="1.39858">
        <ele>1924.353</ele>
        <time>2024-08-31T08:46:38Z</time>
      </trkpt>
      <trkpt lat="42.69679" lon="1.39858">
        <ele>1924.355</ele>
        <time>2024-08-31T08:46:40Z</time>
      </trkpt>
      <trkpt lat="42.69679" lon="1.39858">
        <ele>1924.356</ele>
        <time>2024-08-31T08:46:42Z</time>
      </trkpt>
      <trkpt lat="42.69679" lon="1.39858">
        <ele>1924.348</ele>
        <time>2024-08-31T08:46:44Z</time>
      </trkpt>
      <trkpt lat="42.69679" lon="1.39858">
        <ele>1924.344</ele>
        <time>2024-08-31T08:46:46Z</time>
      </trkpt>
      <trkpt lat="42.69679" lon="1.39858">
        <ele>1924.34</ele>
        <time>2024-08-31T08:46:48Z</time>
      </trkpt>
      <trkpt lat="42.69679" lon="1.39858">
        <ele>1924.344</ele>
        <time>2024-08-31T08:46:50Z</time>
      </trkpt>
      <trkpt lat="42.69679" lon="1.39858">
        <ele>1924.347</ele>
        <time>2024-08-31T08:46:52Z</time>
      </trkpt>
      <trkpt lat="42.69679" lon="1.39858">
        <ele>1924.343</ele>
        <time>2024-08-31T08:46:54Z</time>
      </trkpt>
      <trkpt lat="42.69679" lon="1.39858">
        <ele>1924.339</ele>
        <time>2024-08-31T08:46:56Z</time>
      </trkpt>
      <trkpt lat="42.69679" lon="1.39858">
        <ele>1924.4</ele>
        <time>2024-08-31T08:46:58Z</time>
      </trkpt>
      <trkpt lat="42.69679" lon="1.39858">
        <ele>1924.861</ele>
        <time>2024-08-31T08:47:00Z</time>
      </trkpt>
      <trkpt lat="42.69679" lon="1.39858">
        <ele>1924.815</ele>
        <time>2024-08-31T08:47:02Z</time>
      </trkpt>
      <trkpt lat="42.69679" lon="1.39858">
        <ele>1924.81</ele>
        <time>2024-08-31T08:47:04Z</time>
      </trkpt>
      <trkpt lat="42.69679" lon="1.39858">
        <ele>1924.814</ele>
        <time>2024-08-31T08:47:06Z</time>
      </trkpt>
      <trkpt lat="42.69679" lon="1.39858">
        <ele>1925.026</ele>
        <time>2024-08-31T08:47:08Z</time>
      </trkpt>
      <trkpt lat="42.69679" lon="1.39858">
        <ele>1925.098</ele>
        <time>2024-08-31T08:47:10Z</time>
      </trkpt>
      <trkpt lat="42.69679" lon="1.39858">
        <ele>1925.114</ele>
        <time>2024-08-31T08:47:12Z</time>
      </trkpt>
      <trkpt lat="42.69679" lon="1.39858">
        <ele>1925.121</ele>
        <time>2024-08-31T08:47:14Z</time>
      </trkpt>
      <trkpt lat="42.69679" lon="1.39858">
        <ele>1925.117</ele>
        <time>2024-08-31T08:47:16Z</time>
      </trkpt>
      <trkpt lat="42.69679" lon="1.39858">
        <ele>1925.118</ele>
        <time>2024-08-31T08:47:18Z</time>
      </trkpt>
      <trkpt lat="42.69679" lon="1.39858">
        <ele>1925.121</ele>
        <time>2024-08-31T08:47:20Z</time>
      </trkpt>
      <trkpt lat="42.69679" lon="1.39858">
        <ele>1925.122</ele>
        <time>2024-08-31T08:47:22Z</time>
      </trkpt>
      <trkpt lat="42.69679" lon="1.39858">
        <ele>1925.121</ele>
        <time>2024-08-31T08:47:24Z</time>
      </trkpt>
      <trkpt lat="42.69679" lon="1.39858">
        <ele>1925.122</ele>
        <time>2024-08-31T08:47:26Z</time>
      </trkpt>
      <trkpt lat="42.69679" lon="1.39858">
        <ele>1925.112</ele>
        <time>2024-08-31T08:47:28Z</time>
      </trkpt>
      <trkpt lat="42.69679" lon="1.39858">
        <ele>1925.114</ele>
        <time>2024-08-31T08:47:30Z</time>
      </trkpt>
      <trkpt lat="42.69679" lon="1.39858">
        <ele>1925.121</ele>
        <time>2024-08-31T08:47:32Z</time>
      </trkpt>
      <trkpt lat="42.69679" lon="1.39858">
        <ele>1925.117</ele>
        <time>2024-08-31T08:47:34Z</time>
      </trkpt>
      <trkpt lat="42.69679" lon="1.39858">
        <ele>1925.109</ele>
        <time>2024-08-31T08:47:36Z</time>
      </trkpt>
      <trkpt lat="42.69679" lon="1.39858">
        <ele>1925.119</ele>
        <time>2024-08-31T08:47:38Z</time>
      </trkpt>
      <trkpt lat="42.69679" lon="1.39858">
        <ele>1925.111</ele>
        <time>2024-08-31T08:47:40Z</time>
      </trkpt>
      <trkpt lat="42.69679" lon="1.39858">
        <ele>1925.108</ele>
        <time>2024-08-31T08:47:42Z</time>
      </trkpt>
      <trkpt lat="42.69679" lon="1.39858">
        <ele>1925.112</ele>
        <time>2024-08-31T08:47:44Z</time>
      </trkpt>
      <trkpt lat="42.69679" lon="1.39858">
        <ele>1925.12</ele>
        <time>2024-08-31T08:47:46Z</time>
      </trkpt>
      <trkpt lat="42.69679" lon="1.39858">
        <ele>1925.128</ele>
        <time>2024-08-31T08:47:48Z</time>
      </trkpt>
      <trkpt lat="42.69679" lon="1.39858">
        <ele>1925.123</ele>
        <time>2024-08-31T08:47:50Z</time>
      </trkpt>
      <trkpt lat="42.69679" lon="1.39858">
        <ele>1925.115</ele>
        <time>2024-08-31T08:47:52Z</time>
      </trkpt>
      <trkpt lat="42.69679" lon="1.39858">
        <ele>1925.111</ele>
        <time>2024-08-31T08:47:54Z</time>
      </trkpt>
      <trkpt lat="42.69679" lon="1.39858">
        <ele>1925.122</ele>
        <time>2024-08-31T08:47:56Z</time>
      </trkpt>
      <trkpt lat="42.69679" lon="1.39858">
        <ele>1925.118</ele>
        <time>2024-08-31T08:47:58Z</time>
      </trkpt>
      <trkpt lat="42.69679" lon="1.39858">
        <ele>1925.108</ele>
        <time>2024-08-31T08:48:00Z</time>
      </trkpt>
      <trkpt lat="42.69679" lon="1.39858">
        <ele>1925.105</ele>
        <time>2024-08-31T08:48:02Z</time>
      </trkpt>
      <trkpt lat="42.69679" lon="1.39858">
        <ele>1924.781</ele>
        <time>2024-08-31T08:48:04Z</time>
      </trkpt>
      <trkpt lat="42.69679" lon="1.39858">
        <ele>1924.773</ele>
        <time>2024-08-31T08:48:06Z</time>
      </trkpt>
      <trkpt lat="42.69679" lon="1.39858">
        <ele>1924.761</ele>
        <time>2024-08-31T08:48:08Z</time>
      </trkpt>
      <trkpt lat="42.69679" lon="1.39858">
        <ele>1924.765</ele>
        <time>2024-08-31T08:48:10Z</time>
      </trkpt>
      <trkpt lat="42.69679" lon="1.39858">
        <ele>1924.763</ele>
        <time>2024-08-31T08:48:12Z</time>
      </trkpt>
      <trkpt lat="42.69679" lon="1.39858">
        <ele>1924.76</ele>
        <time>2024-08-31T08:48:14Z</time>
      </trkpt>
      <trkpt lat="42.69679" lon="1.39858">
        <ele>1924.761</ele>
        <time>2024-08-31T08:48:16Z</time>
      </trkpt>
      <trkpt lat="42.69679" lon="1.39858">
        <ele>1924.762</ele>
        <time>2024-08-31T08:48:18Z</time>
      </trkpt>
      <trkpt lat="42.69679" lon="1.39858">
        <ele>1924.76</ele>
        <time>2024-08-31T08:48:20Z</time>
      </trkpt>
      <trkpt lat="42.69679" lon="1.39858">
        <ele>1924.763</ele>
        <time>2024-08-31T08:48:22Z</time>
      </trkpt>
      <trkpt lat="42.69679" lon="1.39858">
        <ele>1924.763</ele>
        <time>2024-08-31T08:48:24Z</time>
      </trkpt>
      <trkpt lat="42.69679" lon="1.39858">
        <ele>1924.765</ele>
        <time>2024-08-31T08:48:26Z</time>
      </trkpt>
      <trkpt lat="42.69679" lon="1.39858">
        <ele>1924.768</ele>
        <time>2024-08-31T08:48:28Z</time>
      </trkpt>
      <trkpt lat="42.69679" lon="1.39858">
        <ele>1924.775</ele>
        <time>2024-08-31T08:48:30Z</time>
      </trkpt>
      <trkpt lat="42.69679" lon="1.39858">
        <ele>1924.777</ele>
        <time>2024-08-31T08:48:32Z</time>
      </trkpt>
      <trkpt lat="42.69679" lon="1.39858">
        <ele>1924.781</ele>
        <time>2024-08-31T08:48:34Z</time>
      </trkpt>
      <trkpt lat="42.69679" lon="1.39858">
        <ele>1924.781</ele>
        <time>2024-08-31T08:48:36Z</time>
      </trkpt>
      <trkpt lat="42.69679" lon="1.39858">
        <ele>1924.784</ele>
        <time>2024-08-31T08:48:38Z</time>
      </trkpt>
      <trkpt lat="42.69679" lon="1.39858">
        <ele>1924.785</ele>
        <time>2024-08-31T08:48:40Z</time>
      </trkpt>
      <trkpt lat="42.69679" lon="1.39858">
        <ele>1924.794</ele>
        <time>2024-08-31T08:48:42Z</time>
      </trkpt>
      <trkpt lat="42.69679" lon="1.39858">
        <ele>1924.42</ele>
        <time>2024-08-31T08:48:44Z</time>
      </trkpt>
      <trkpt lat="42.69679" lon="1.39858">
        <ele>1924.423</ele>
        <time>2024-08-31T08:48:46Z</time>
      </trkpt>
      <trkpt lat="42.69679" lon="1.39858">
        <ele>1924.424</ele>
        <time>2024-08-31T08:48:48Z</time>
      </trkpt>
      <trkpt lat="42.69679" lon="1.39858">
        <ele>1924.42</ele>
        <time>2024-08-31T08:48:50Z</time>
      </trkpt>
      <trkpt lat="42.69679" lon="1.39858">
        <ele>1924.418</ele>
        <time>2024-08-31T08:48:52Z</time>
      </trkpt>
      <trkpt lat="42.69679" lon="1.39858">
        <ele>1924.424</ele>
        <time>2024-08-31T08:48:54Z</time>
      </trkpt>
      <trkpt lat="42.69679" lon="1.39858">
        <ele>1924.426</ele>
        <time>2024-08-31T08:48:56Z</time>
      </trkpt>
      <trkpt lat="42.69679" lon="1.39858">
        <ele>1924.414</ele>
        <time>2024-08-31T08:48:58Z</time>
      </trkpt>
      <trkpt lat="42.69679" lon="1.39858">
        <ele>1924.408</ele>
        <time>2024-08-31T08:49:00Z</time>
      </trkpt>
      <trkpt lat="42.69679" lon="1.39858">
        <ele>1924.405</ele>
        <time>2024-08-31T08:49:02Z</time>
      </trkpt>
      <trkpt lat="42.69679" lon="1.39858">
        <ele>1924.405</ele>
        <time>2024-08-31T08:49:04Z</time>
      </trkpt>
      <trkpt lat="42.69679" lon="1.39858">
        <ele>1924.245</ele>
        <time>2024-08-31T08:49:06Z</time>
      </trkpt>
      <trkpt lat="42.69679" lon="1.39858">
        <ele>1924.232</ele>
        <time>2024-08-31T08:49:08Z</time>
      </trkpt>
      <trkpt lat="42.69679" lon="1.39858">
        <ele>1924.228</ele>
        <time>2024-08-31T08:49:10Z</time>
      </trkpt>
      <trkpt lat="42.69679" lon="1.39858">
        <ele>1924.229</ele>
        <time>2024-08-31T08:49:12Z</time>
      </trkpt>
      <trkpt lat="42.69679" lon="1.39858">
        <ele>1924.233</ele>
        <time>2024-08-31T08:49:14Z</time>
      </trkpt>
      <trkpt lat="42.69679" lon="1.39858">
        <ele>1924.229</ele>
        <time>2024-08-31T08:49:16Z</time>
      </trkpt>
      <trkpt lat="42.69679" lon="1.39858">
        <ele>1924.232</ele>
        <time>2024-08-31T08:49:18Z</time>
      </trkpt>
      <trkpt lat="42.69679" lon="1.39858">
        <ele>1924.235</ele>
        <time>2024-08-31T08:49:20Z</time>
      </trkpt>
      <trkpt lat="42.69679" lon="1.39858">
        <ele>1924.234</ele>
        <time>2024-08-31T08:49:22Z</time>
      </trkpt>
      <trkpt lat="42.69679" lon="1.39858">
        <ele>1924.23</ele>
        <time>2024-08-31T08:49:24Z</time>
      </trkpt>
      <trkpt lat="42.69679" lon="1.39858">
        <ele>1924.228</ele>
        <time>2024-08-31T08:49:26Z</time>
      </trkpt>
      <trkpt lat="42.69679" lon="1.39858">
        <ele>1924.226</ele>
        <time>2024-08-31T08:49:28Z</time>
      </trkpt>
      <trkpt lat="42.69679" lon="1.39858">
        <ele>1924.228</ele>
        <time>2024-08-31T08:49:30Z</time>
      </trkpt>
      <trkpt lat="42.69679" lon="1.39858">
        <ele>1924.232</ele>
        <time>2024-08-31T08:49:32Z</time>
      </trkpt>
      <trkpt lat="42.69679" lon="1.39858">
        <ele>1924.235</ele>
        <time>2024-08-31T08:49:34Z</time>
      </trkpt>
      <trkpt lat="42.69679" lon="1.39858">
        <ele>1924.24</ele>
        <time>2024-08-31T08:49:36Z</time>
      </trkpt>
      <trkpt lat="42.69679" lon="1.39858">
        <ele>1924.242</ele>
        <time>2024-08-31T08:49:38Z</time>
      </trkpt>
      <trkpt lat="42.69679" lon="1.39858">
        <ele>1924.25</ele>
        <time>2024-08-31T08:49:40Z</time>
      </trkpt>
      <trkpt lat="42.69679" lon="1.39858">
        <ele>1924.254</ele>
        <time>2024-08-31T08:49:42Z</time>
      </trkpt>
      <trkpt lat="42.69679" lon="1.39858">
        <ele>1924.257</ele>
        <time>2024-08-31T08:49:44Z</time>
      </trkpt>
      <trkpt lat="42.69679" lon="1.39858">
        <ele>1924.259</ele>
        <time>2024-08-31T08:49:46Z</time>
      </trkpt>
      <trkpt lat="42.69686" lon="1.39843">
        <ele>1924.26</ele>
        <time>2024-08-31T08:49:48Z</time>
      </trkpt>
      <trkpt lat="42.69686" lon="1.39843">
        <ele>1924.124</ele>
        <time>2024-08-31T08:49:50Z</time>
      </trkpt>
      <trkpt lat="42.69686" lon="1.39843">
        <ele>1924.127</ele>
        <time>2024-08-31T08:49:52Z</time>
      </trkpt>
      <trkpt lat="42.69686" lon="1.39843">
        <ele>1924.116</ele>
        <time>2024-08-31T08:49:54Z</time>
      </trkpt>
      <trkpt lat="42.69686" lon="1.39843">
        <ele>1924.118</ele>
        <time>2024-08-31T08:49:56Z</time>
      </trkpt>
      <trkpt lat="42.69686" lon="1.39843">
        <ele>1924.119</ele>
        <time>2024-08-31T08:49:58Z</time>
      </trkpt>
      <trkpt lat="42.69686" lon="1.39843">
        <ele>1924.125</ele>
        <time>2024-08-31T08:50:00Z</time>
      </trkpt>
      <trkpt lat="42.69686" lon="1.39843">
        <ele>1924.128</ele>
        <time>2024-08-31T08:50:02Z</time>
      </trkpt>
      <trkpt lat="42.69687" lon="1.39843">
        <ele>1924.107</ele>
        <time>2024-08-31T08:50:04Z</time>
      </trkpt>
      <trkpt lat="42.69688" lon="1.39842">
        <ele>1924.305</ele>
        <time>2024-08-31T08:50:06Z</time>
      </trkpt>
      <trkpt lat="42.69689" lon="1.39841">
        <ele>1924.363</ele>
        <time>2024-08-31T08:50:08Z</time>
      </trkpt>
      <trkpt lat="42.69689" lon="1.3984">
        <ele>1925.167</ele>
        <time>2024-08-31T08:50:10Z</time>
      </trkpt>
      <trkpt lat="42.69689" lon="1.39839">
        <ele>1925.902</ele>
        <time>2024-08-31T08:50:12Z</time>
      </trkpt>
      <trkpt lat="42.6969" lon="1.39838">
        <ele>1925.485</ele>
        <time>2024-08-31T08:50:14Z</time>
      </trkpt>
      <trkpt lat="42.69691" lon="1.39836">
        <ele>1925.809</ele>
        <time>2024-08-31T08:50:16Z</time>
      </trkpt>
      <trkpt lat="42.69691" lon="1.39834">
        <ele>1925.491</ele>
        <time>2024-08-31T08:50:18Z</time>
      </trkpt>
      <trkpt lat="42.69692" lon="1.39833">
        <ele>1925.813</ele>
        <time>2024-08-31T08:50:20Z</time>
      </trkpt>
      <trkpt lat="42.69693" lon="1.3983">
        <ele>1925.536</ele>
        <time>2024-08-31T08:50:22Z</time>
      </trkpt>
      <trkpt lat="42.69693" lon="1.39828">
        <ele>1925.698</ele>
        <time>2024-08-31T08:50:24Z</time>
      </trkpt>
      <trkpt lat="42.69695" lon="1.39825">
        <ele>1925.949</ele>
        <time>2024-08-31T08:50:26Z</time>
      </trkpt>
      <trkpt lat="42.69695" lon="1.39823">
        <ele>1926.41</ele>
        <time>2024-08-31T08:50:28Z</time>
      </trkpt>
      <trkpt lat="42.69695" lon="1.39822">
        <ele>1926.556</ele>
        <time>2024-08-31T08:50:30Z</time>
      </trkpt>
      <trkpt lat="42.69693" lon="1.3982">
        <ele>1925.466</ele>
        <time>2024-08-31T08:50:32Z</time>
      </trkpt>
      <trkpt lat="42.69693" lon="1.39819">
        <ele>1924.959</ele>
        <time>2024-08-31T08:50:34Z</time>
      </trkpt>
      <trkpt lat="42.69693" lon="1.39818">
        <ele>1923.566</ele>
        <time>2024-08-31T08:50:36Z</time>
      </trkpt>
      <trkpt lat="42.69693" lon="1.39816">
        <ele>1923</ele>
        <time>2024-08-31T08:50:38Z</time>
      </trkpt>
      <trkpt lat="42.69693" lon="1.39816">
        <ele>1923.933</ele>
        <time>2024-08-31T08:50:40Z</time>
      </trkpt>
      <trkpt lat="42.69693" lon="1.39816">
        <ele>1923.939</ele>
        <time>2024-08-31T08:50:42Z</time>
      </trkpt>
      <trkpt lat="42.69693" lon="1.39816">
        <ele>1923.947</ele>
        <time>2024-08-31T08:50:44Z</time>
      </trkpt>
      <trkpt lat="42.69693" lon="1.39816">
        <ele>1924.222</ele>
        <time>2024-08-31T08:50:46Z</time>
      </trkpt>
      <trkpt lat="42.69693" lon="1.39816">
        <ele>1925.348</ele>
        <time>2024-08-31T08:50:48Z</time>
      </trkpt>
      <trkpt lat="42.69693" lon="1.39816">
        <ele>1925.083</ele>
        <time>2024-08-31T08:50:50Z</time>
      </trkpt>
      <trkpt lat="42.69693" lon="1.39816">
        <ele>1924.893</ele>
        <time>2024-08-31T08:50:52Z</time>
      </trkpt>
      <trkpt lat="42.69693" lon="1.39816">
        <ele>1926.396</ele>
        <time>2024-08-31T08:50:54Z</time>
      </trkpt>
      <trkpt lat="42.69693" lon="1.39816">
        <ele>1926.58</ele>
        <time>2024-08-31T08:50:56Z</time>
      </trkpt>
      <trkpt lat="42.69693" lon="1.39816">
        <ele>1926.738</ele>
        <time>2024-08-31T08:50:58Z</time>
      </trkpt>
      <trkpt lat="42.69695" lon="1.39808">
        <ele>1927.593</ele>
        <time>2024-08-31T08:51:00Z</time>
      </trkpt>
      <trkpt lat="42.69695" lon="1.39806">
        <ele>1927.985</ele>
        <time>2024-08-31T08:51:02Z</time>
      </trkpt>
      <trkpt lat="42.69696" lon="1.39804">
        <ele>1927.655</ele>
        <time>2024-08-31T08:51:04Z</time>
      </trkpt>
      <trkpt lat="42.69696" lon="1.39802">
        <ele>1928.541</ele>
        <time>2024-08-31T08:51:06Z</time>
      </trkpt>
      <trkpt lat="42.69696" lon="1.39801">
        <ele>1929.457</ele>
        <time>2024-08-31T08:51:08Z</time>
      </trkpt>
      <trkpt lat="42.69695" lon="1.39799">
        <ele>1930.066</ele>
        <time>2024-08-31T08:51:10Z</time>
      </trkpt>
      <trkpt lat="42.69695" lon="1.39798">
        <ele>1930.191</ele>
        <time>2024-08-31T08:51:12Z</time>
      </trkpt>
      <trkpt lat="42.69695" lon="1.39796">
        <ele>1930.34</ele>
        <time>2024-08-31T08:51:14Z</time>
      </trkpt>
      <trkpt lat="42.69695" lon="1.39794">
        <ele>1931.002</ele>
        <time>2024-08-31T08:51:16Z</time>
      </trkpt>
      <trkpt lat="42.69695" lon="1.39793">
        <ele>1931.602</ele>
        <time>2024-08-31T08:51:18Z</time>
      </trkpt>
      <trkpt lat="42.69695" lon="1.39791">
        <ele>1931.9</ele>
        <time>2024-08-31T08:51:20Z</time>
      </trkpt>
      <trkpt lat="42.69696" lon="1.3979">
        <ele>1932.313</ele>
        <time>2024-08-31T08:51:22Z</time>
      </trkpt>
      <trkpt lat="42.69696" lon="1.39788">
        <ele>1932.656</ele>
        <time>2024-08-31T08:51:24Z</time>
      </trkpt>
      <trkpt lat="42.69696" lon="1.39785">
        <ele>1932.403</ele>
        <time>2024-08-31T08:51:26Z</time>
      </trkpt>
      <trkpt lat="42.69698" lon="1.39784">
        <ele>1933.746</ele>
        <time>2024-08-31T08:51:28Z</time>
      </trkpt>
      <trkpt lat="42.69699" lon="1.39782">
        <ele>1935</ele>
        <time>2024-08-31T08:51:30Z</time>
      </trkpt>
      <trkpt lat="42.69699" lon="1.3978">
        <ele>1933.5</ele>
        <time>2024-08-31T08:51:32Z</time>
      </trkpt>
      <trkpt lat="42.69699" lon="1.39778">
        <ele>1932.98</ele>
        <time>2024-08-31T08:51:34Z</time>
      </trkpt>
      <trkpt lat="42.69698" lon="1.39775">
        <ele>1932.653</ele>
        <time>2024-08-31T08:51:36Z</time>
      </trkpt>
      <trkpt lat="42.69697" lon="1.39774">
        <ele>1931.813</ele>
        <time>2024-08-31T08:51:38Z</time>
      </trkpt>
      <trkpt lat="42.69698" lon="1.39771">
        <ele>1931.566</ele>
        <time>2024-08-31T08:51:40Z</time>
      </trkpt>
      <trkpt lat="42.69698" lon="1.3977">
        <ele>1932.688</ele>
        <time>2024-08-31T08:51:42Z</time>
      </trkpt>
      <trkpt lat="42.69699" lon="1.39769">
        <ele>1933.491</ele>
        <time>2024-08-31T08:51:44Z</time>
      </trkpt>
      <trkpt lat="42.697" lon="1.39768">
        <ele>1933.219</ele>
        <time>2024-08-31T08:51:46Z</time>
      </trkpt>
      <trkpt lat="42.697" lon="1.39767">
        <ele>1933.827</ele>
        <time>2024-08-31T08:51:48Z</time>
      </trkpt>
      <trkpt lat="42.69701" lon="1.39766">
        <ele>1934.123</ele>
        <time>2024-08-31T08:51:50Z</time>
      </trkpt>
      <trkpt lat="42.69702" lon="1.39764">
        <ele>1933.986</ele>
        <time>2024-08-31T08:51:52Z</time>
      </trkpt>
      <trkpt lat="42.69703" lon="1.39763">
        <ele>1935.112</ele>
        <time>2024-08-31T08:51:54Z</time>
      </trkpt>
      <trkpt lat="42.69703" lon="1.39762">
        <ele>1936.412</ele>
        <time>2024-08-31T08:51:56Z</time>
      </trkpt>
      <trkpt lat="42.69704" lon="1.39761">
        <ele>1936.695</ele>
        <time>2024-08-31T08:51:58Z</time>
      </trkpt>
      <trkpt lat="42.69705" lon="1.3976">
        <ele>1936.596</ele>
        <time>2024-08-31T08:52:00Z</time>
      </trkpt>
      <trkpt lat="42.69705" lon="1.39759">
        <ele>1936.987</ele>
        <time>2024-08-31T08:52:02Z</time>
      </trkpt>
      <trkpt lat="42.69705" lon="1.39758">
        <ele>1937.14</ele>
        <time>2024-08-31T08:52:04Z</time>
      </trkpt>
      <trkpt lat="42.69706" lon="1.39756">
        <ele>1937.039</ele>
        <time>2024-08-31T08:52:06Z</time>
      </trkpt>
      <trkpt lat="42.69706" lon="1.39755">
        <ele>1936.74</ele>
        <time>2024-08-31T08:52:08Z</time>
      </trkpt>
      <trkpt lat="42.69707" lon="1.39754">
        <ele>1937.825</ele>
        <time>2024-08-31T08:52:10Z</time>
      </trkpt>
      <trkpt lat="42.69708" lon="1.39753">
        <ele>1938.368</ele>
        <time>2024-08-31T08:52:12Z</time>
      </trkpt>
      <trkpt lat="42.69708" lon="1.39752">
        <ele>1938.909</ele>
        <time>2024-08-31T08:52:14Z</time>
      </trkpt>
      <trkpt lat="42.69709" lon="1.3975">
        <ele>1939.296</ele>
        <time>2024-08-31T08:52:16Z</time>
      </trkpt>
      <trkpt lat="42.69708" lon="1.39749">
        <ele>1939.953</ele>
        <time>2024-08-31T08:52:18Z</time>
      </trkpt>
      <trkpt lat="42.69708" lon="1.39748">
        <ele>1940.178</ele>
        <time>2024-08-31T08:52:20Z</time>
      </trkpt>
      <trkpt lat="42.69707" lon="1.39746">
        <ele>1939.785</ele>
        <time>2024-08-31T08:52:22Z</time>
      </trkpt>
      <trkpt lat="42.69706" lon="1.39745">
        <ele>1939.887</ele>
        <time>2024-08-31T08:52:24Z</time>
      </trkpt>
      <trkpt lat="42.69706" lon="1.39743">
        <ele>1939.524</ele>
        <time>2024-08-31T08:52:26Z</time>
      </trkpt>
      <trkpt lat="42.69705" lon="1.39742">
        <ele>1939.573</ele>
        <time>2024-08-31T08:52:28Z</time>
      </trkpt>
      <trkpt lat="42.69705" lon="1.3974">
        <ele>1940.025</ele>
        <time>2024-08-31T08:52:30Z</time>
      </trkpt>
      <trkpt lat="42.69704" lon="1.39739">
        <ele>1940.612</ele>
        <time>2024-08-31T08:52:32Z</time>
      </trkpt>
      <trkpt lat="42.69704" lon="1.39738">
        <ele>1940.688</ele>
        <time>2024-08-31T08:52:34Z</time>
      </trkpt>
      <trkpt lat="42.69703" lon="1.39737">
        <ele>1940.393</ele>
        <time>2024-08-31T08:52:36Z</time>
      </trkpt>
      <trkpt lat="42.69702" lon="1.39736">
        <ele>1941.193</ele>
        <time>2024-08-31T08:52:38Z</time>
      </trkpt>
      <trkpt lat="42.69702" lon="1.39734">
        <ele>1940.527</ele>
        <time>2024-08-31T08:52:40Z</time>
      </trkpt>
      <trkpt lat="42.69701" lon="1.39733">
        <ele>1940.421</ele>
        <time>2024-08-31T08:52:42Z</time>
      </trkpt>
      <trkpt lat="42.697" lon="1.39732">
        <ele>1940.37</ele>
        <time>2024-08-31T08:52:44Z</time>
      </trkpt>
      <trkpt lat="42.697" lon="1.39731">
        <ele>1940.356</ele>
        <time>2024-08-31T08:52:46Z</time>
      </trkpt>
      <trkpt lat="42.697" lon="1.39729">
        <ele>1940.686</ele>
        <time>2024-08-31T08:52:48Z</time>
      </trkpt>
      <trkpt lat="42.69699" lon="1.39728">
        <ele>1940.39</ele>
        <time>2024-08-31T08:52:50Z</time>
      </trkpt>
      <trkpt lat="42.69698" lon="1.39727">
        <ele>1939.409</ele>
        <time>2024-08-31T08:52:52Z</time>
      </trkpt>
      <trkpt lat="42.69697" lon="1.39727">
        <ele>1940.401</ele>
        <time>2024-08-31T08:52:54Z</time>
      </trkpt>
      <trkpt lat="42.69697" lon="1.39726">
        <ele>1940.912</ele>
        <time>2024-08-31T08:52:56Z</time>
      </trkpt>
      <trkpt lat="42.69696" lon="1.39726">
        <ele>1941.393</ele>
        <time>2024-08-31T08:52:58Z</time>
      </trkpt>
      <trkpt lat="42.69695" lon="1.39725">
        <ele>1942.266</ele>
        <time>2024-08-31T08:53:00Z</time>
      </trkpt>
      <trkpt lat="42.69694" lon="1.39723">
        <ele>1943.366</ele>
        <time>2024-08-31T08:53:02Z</time>
      </trkpt>
      <trkpt lat="42.69694" lon="1.39722">
        <ele>1942.895</ele>
        <time>2024-08-31T08:53:04Z</time>
      </trkpt>
      <trkpt lat="42.69694" lon="1.39721">
        <ele>1943.355</ele>
        <time>2024-08-31T08:53:06Z</time>
      </trkpt>
      <trkpt lat="42.69694" lon="1.3972">
        <ele>1944.1</ele>
        <time>2024-08-31T08:53:08Z</time>
      </trkpt>
      <trkpt lat="42.69694" lon="1.39718">
        <ele>1944.369</ele>
        <time>2024-08-31T08:53:10Z</time>
      </trkpt>
      <trkpt lat="42.69694" lon="1.39717">
        <ele>1944.032</ele>
        <time>2024-08-31T08:53:12Z</time>
      </trkpt>
      <trkpt lat="42.69694" lon="1.39715">
        <ele>1944.401</ele>
        <time>2024-08-31T08:53:14Z</time>
      </trkpt>
      <trkpt lat="42.69694" lon="1.39714">
        <ele>1944.106</ele>
        <time>2024-08-31T08:53:16Z</time>
      </trkpt>
      <trkpt lat="42.69694" lon="1.39713">
        <ele>1944.329</ele>
        <time>2024-08-31T08:53:18Z</time>
      </trkpt>
      <trkpt lat="42.69693" lon="1.39713">
        <ele>1944.731</ele>
        <time>2024-08-31T08:53:20Z</time>
      </trkpt>
      <trkpt lat="42.69692" lon="1.39712">
        <ele>1944.702</ele>
        <time>2024-08-31T08:53:22Z</time>
      </trkpt>
      <trkpt lat="42.69692" lon="1.39711">
        <ele>1945.293</ele>
        <time>2024-08-31T08:53:24Z</time>
      </trkpt>
      <trkpt lat="42.69692" lon="1.3971">
        <ele>1945.565</ele>
        <time>2024-08-31T08:53:26Z</time>
      </trkpt>
      <trkpt lat="42.69691" lon="1.39709">
        <ele>1945.722</ele>
        <time>2024-08-31T08:53:28Z</time>
      </trkpt>
      <trkpt lat="42.6969" lon="1.39709">
        <ele>1945.821</ele>
        <time>2024-08-31T08:53:30Z</time>
      </trkpt>
      <trkpt lat="42.69689" lon="1.39708">
        <ele>1945.908</ele>
        <time>2024-08-31T08:53:32Z</time>
      </trkpt>
      <trkpt lat="42.69689" lon="1.39707">
        <ele>1946.003</ele>
        <time>2024-08-31T08:53:34Z</time>
      </trkpt>
      <trkpt lat="42.69688" lon="1.39707">
        <ele>1946.63</ele>
        <time>2024-08-31T08:53:36Z</time>
      </trkpt>
      <trkpt lat="42.69687" lon="1.39707">
        <ele>1947.142</ele>
        <time>2024-08-31T08:53:38Z</time>
      </trkpt>
      <trkpt lat="42.69686" lon="1.39707">
        <ele>1947.393</ele>
        <time>2024-08-31T08:53:40Z</time>
      </trkpt>
      <trkpt lat="42.69685" lon="1.39706">
        <ele>1948.198</ele>
        <time>2024-08-31T08:53:42Z</time>
      </trkpt>
      <trkpt lat="42.69685" lon="1.39706">
        <ele>1948.224</ele>
        <time>2024-08-31T08:53:44Z</time>
      </trkpt>
      <trkpt lat="42.69684" lon="1.39706">
        <ele>1948.849</ele>
        <time>2024-08-31T08:53:46Z</time>
      </trkpt>
      <trkpt lat="42.69683" lon="1.39706">
        <ele>1949.252</ele>
        <time>2024-08-31T08:53:48Z</time>
      </trkpt>
      <trkpt lat="42.69683" lon="1.39705">
        <ele>1949.958</ele>
        <time>2024-08-31T08:53:50Z</time>
      </trkpt>
      <trkpt lat="42.69682" lon="1.39705">
        <ele>1949.939</ele>
        <time>2024-08-31T08:53:52Z</time>
      </trkpt>
      <trkpt lat="42.69682" lon="1.39706">
        <ele>1949.493</ele>
        <time>2024-08-31T08:53:54Z</time>
      </trkpt>
      <trkpt lat="42.69682" lon="1.39706">
        <ele>1949.892</ele>
        <time>2024-08-31T08:53:56Z</time>
      </trkpt>
      <trkpt lat="42.69682" lon="1.39706">
        <ele>1949.888</ele>
        <time>2024-08-31T08:53:58Z</time>
      </trkpt>
      <trkpt lat="42.69682" lon="1.39706">
        <ele>1949.762</ele>
        <time>2024-08-31T08:54:00Z</time>
      </trkpt>
      <trkpt lat="42.69682" lon="1.39706">
        <ele>1949.958</ele>
        <time>2024-08-31T08:54:02Z</time>
      </trkpt>
      <trkpt lat="42.69682" lon="1.39706">
        <ele>1950.081</ele>
        <time>2024-08-31T08:54:04Z</time>
      </trkpt>
      <trkpt lat="42.69682" lon="1.39706">
        <ele>1949.67</ele>
        <time>2024-08-31T08:54:06Z</time>
      </trkpt>
      <trkpt lat="42.69682" lon="1.39706">
        <ele>1949.284</ele>
        <time>2024-08-31T08:54:08Z</time>
      </trkpt>
      <trkpt lat="42.69682" lon="1.39706">
        <ele>1950.141</ele>
        <time>2024-08-31T08:54:10Z</time>
      </trkpt>
      <trkpt lat="42.69682" lon="1.39706">
        <ele>1950.439</ele>
        <time>2024-08-31T08:54:12Z</time>
      </trkpt>
      <trkpt lat="42.69682" lon="1.39706">
        <ele>1950.841</ele>
        <time>2024-08-31T08:54:14Z</time>
      </trkpt>
      <trkpt lat="42.69682" lon="1.39706">
        <ele>1951.584</ele>
        <time>2024-08-31T08:54:16Z</time>
      </trkpt>
      <trkpt lat="42.69682" lon="1.39706">
        <ele>1951.876</ele>
        <time>2024-08-31T08:54:18Z</time>
      </trkpt>
      <trkpt lat="42.69682" lon="1.39706">
        <ele>1952.925</ele>
        <time>2024-08-31T08:54:20Z</time>
      </trkpt>
      <trkpt lat="42.69682" lon="1.39706">
        <ele>1952.844</ele>
        <time>2024-08-31T08:54:22Z</time>
      </trkpt>
      <trkpt lat="42.69674" lon="1.39708">
        <ele>1952.903</ele>
        <time>2024-08-31T08:54:24Z</time>
      </trkpt>
      <trkpt lat="42.69674" lon="1.39708">
        <ele>1953.123</ele>
        <time>2024-08-31T08:54:26Z</time>
      </trkpt>
      <trkpt lat="42.69673" lon="1.39707">
        <ele>1953.406</ele>
        <time>2024-08-31T08:54:28Z</time>
      </trkpt>
      <trkpt lat="42.69673" lon="1.39705">
        <ele>1954.373</ele>
        <time>2024-08-31T08:54:30Z</time>
      </trkpt>
      <trkpt lat="42.69673" lon="1.39703">
        <ele>1954.596</ele>
        <time>2024-08-31T08:54:32Z</time>
      </trkpt>
      <trkpt lat="42.69673" lon="1.39702">
        <ele>1954.882</ele>
        <time>2024-08-31T08:54:34Z</time>
      </trkpt>
      <trkpt lat="42.69672" lon="1.39702">
        <ele>1954.706</ele>
        <time>2024-08-31T08:54:36Z</time>
      </trkpt>
      <trkpt lat="42.69671" lon="1.39703">
        <ele>1954.139</ele>
        <time>2024-08-31T08:54:38Z</time>
      </trkpt>
      <trkpt lat="42.69671" lon="1.39702">
        <ele>1954.513</ele>
        <time>2024-08-31T08:54:40Z</time>
      </trkpt>
      <trkpt lat="42.69671" lon="1.39702">
        <ele>1954.522</ele>
        <time>2024-08-31T08:54:42Z</time>
      </trkpt>
      <trkpt lat="42.6967" lon="1.39702">
        <ele>1955.512</ele>
        <time>2024-08-31T08:54:44Z</time>
      </trkpt>
      <trkpt lat="42.6967" lon="1.39701">
        <ele>1954.991</ele>
        <time>2024-08-31T08:54:46Z</time>
      </trkpt>
      <trkpt lat="42.6967" lon="1.397">
        <ele>1956.033</ele>
        <time>2024-08-31T08:54:48Z</time>
      </trkpt>
      <trkpt lat="42.69669" lon="1.39699">
        <ele>1955.315</ele>
        <time>2024-08-31T08:54:50Z</time>
      </trkpt>
      <trkpt lat="42.69668" lon="1.39699">
        <ele>1956.03</ele>
        <time>2024-08-31T08:54:52Z</time>
      </trkpt>
      <trkpt lat="42.69668" lon="1.39699">
        <ele>1956.831</ele>
        <time>2024-08-31T08:54:54Z</time>
      </trkpt>
      <trkpt lat="42.69668" lon="1.39699">
        <ele>1957.407</ele>
        <time>2024-08-31T08:54:56Z</time>
      </trkpt>
      <trkpt lat="42.69668" lon="1.39699">
        <ele>1957.745</ele>
        <time>2024-08-31T08:54:58Z</time>
      </trkpt>
      <trkpt lat="42.69668" lon="1.39699">
        <ele>1957.05</ele>
        <time>2024-08-31T08:55:00Z</time>
      </trkpt>
      <trkpt lat="42.69668" lon="1.39699">
        <ele>1957.912</ele>
        <time>2024-08-31T08:55:02Z</time>
      </trkpt>
      <trkpt lat="42.69668" lon="1.39699">
        <ele>1958.43</ele>
        <time>2024-08-31T08:55:04Z</time>
      </trkpt>
      <trkpt lat="42.69668" lon="1.39699">
        <ele>1958.878</ele>
        <time>2024-08-31T08:55:06Z</time>
      </trkpt>
      <trkpt lat="42.69668" lon="1.39699">
        <ele>1959.421</ele>
        <time>2024-08-31T08:55:08Z</time>
      </trkpt>
      <trkpt lat="42.69668" lon="1.39699">
        <ele>1958.695</ele>
        <time>2024-08-31T08:55:10Z</time>
      </trkpt>
      <trkpt lat="42.69668" lon="1.39699">
        <ele>1958.469</ele>
        <time>2024-08-31T08:55:12Z</time>
      </trkpt>
      <trkpt lat="42.69668" lon="1.39699">
        <ele>1958.116</ele>
        <time>2024-08-31T08:55:14Z</time>
      </trkpt>
      <trkpt lat="42.69668" lon="1.39699">
        <ele>1958.314</ele>
        <time>2024-08-31T08:55:16Z</time>
      </trkpt>
      <trkpt lat="42.69668" lon="1.39699">
        <ele>1959.381</ele>
        <time>2024-08-31T08:55:18Z</time>
      </trkpt>
      <trkpt lat="42.69668" lon="1.39699">
        <ele>1959.382</ele>
        <time>2024-08-31T08:55:20Z</time>
      </trkpt>
      <trkpt lat="42.69668" lon="1.39699">
        <ele>1959.423</ele>
        <time>2024-08-31T08:55:22Z</time>
      </trkpt>
      <trkpt lat="42.69668" lon="1.39699">
        <ele>1959.91</ele>
        <time>2024-08-31T08:55:24Z</time>
      </trkpt>
      <trkpt lat="42.69668" lon="1.39699">
        <ele>1959.802</ele>
        <time>2024-08-31T08:55:26Z</time>
      </trkpt>
      <trkpt lat="42.69668" lon="1.39699">
        <ele>1958.981</ele>
        <time>2024-08-31T08:55:28Z</time>
      </trkpt>
      <trkpt lat="42.69668" lon="1.39699">
        <ele>1959.604</ele>
        <time>2024-08-31T08:55:30Z</time>
      </trkpt>
      <trkpt lat="42.69668" lon="1.39699">
        <ele>1959.132</ele>
        <time>2024-08-31T08:55:32Z</time>
      </trkpt>
      <trkpt lat="42.69668" lon="1.39699">
        <ele>1959.794</ele>
        <time>2024-08-31T08:55:34Z</time>
      </trkpt>
      <trkpt lat="42.69668" lon="1.39699">
        <ele>1959.844</ele>
        <time>2024-08-31T08:55:36Z</time>
      </trkpt>
      <trkpt lat="42.69668" lon="1.39699">
        <ele>1960.175</ele>
        <time>2024-08-31T08:55:38Z</time>
      </trkpt>
      <trkpt lat="42.69668" lon="1.39699">
        <ele>1960.174</ele>
        <time>2024-08-31T08:55:40Z</time>
      </trkpt>
      <trkpt lat="42.69668" lon="1.39699">
        <ele>1960.29</ele>
        <time>2024-08-31T08:55:42Z</time>
      </trkpt>
      <trkpt lat="42.69668" lon="1.39699">
        <ele>1960.043</ele>
        <time>2024-08-31T08:55:44Z</time>
      </trkpt>
      <trkpt lat="42.69668" lon="1.39699">
        <ele>1960.07</ele>
        <time>2024-08-31T08:55:46Z</time>
      </trkpt>
      <trkpt lat="42.69668" lon="1.39699">
        <ele>1960.159</ele>
        <time>2024-08-31T08:55:48Z</time>
      </trkpt>
      <trkpt lat="42.69668" lon="1.39699">
        <ele>1961.306</ele>
        <time>2024-08-31T08:55:50Z</time>
      </trkpt>
      <trkpt lat="42.69668" lon="1.39699">
        <ele>1961.236</ele>
        <time>2024-08-31T08:55:52Z</time>
      </trkpt>
      <trkpt lat="42.69668" lon="1.39699">
        <ele>1961.908</ele>
        <time>2024-08-31T08:55:54Z</time>
      </trkpt>
      <trkpt lat="42.69668" lon="1.39699">
        <ele>1961.98</ele>
        <time>2024-08-31T08:55:56Z</time>
      </trkpt>
      <trkpt lat="42.69668" lon="1.39699">
        <ele>1962.187</ele>
        <time>2024-08-31T08:55:58Z</time>
      </trkpt>
      <trkpt lat="42.69668" lon="1.39699">
        <ele>1962.428</ele>
        <time>2024-08-31T08:56:00Z</time>
      </trkpt>
      <trkpt lat="42.69668" lon="1.39699">
        <ele>1963.088</ele>
        <time>2024-08-31T08:56:02Z</time>
      </trkpt>
      <trkpt lat="42.69668" lon="1.39699">
        <ele>1963.523</ele>
        <time>2024-08-31T08:56:04Z</time>
      </trkpt>
      <trkpt lat="42.69668" lon="1.39699">
        <ele>1963.72</ele>
        <time>2024-08-31T08:56:06Z</time>
      </trkpt>
      <trkpt lat="42.69668" lon="1.39699">
        <ele>1963.532</ele>
        <time>2024-08-31T08:56:08Z</time>
      </trkpt>
      <trkpt lat="42.69668" lon="1.39699">
        <ele>1963.535</ele>
        <time>2024-08-31T08:56:10Z</time>
      </trkpt>
      <trkpt lat="42.69668" lon="1.39699">
        <ele>1962.938</ele>
        <time>2024-08-31T08:56:12Z</time>
      </trkpt>
      <trkpt lat="42.69668" lon="1.39699">
        <ele>1963.195</ele>
        <time>2024-08-31T08:56:14Z</time>
      </trkpt>
      <trkpt lat="42.69655" lon="1.39697">
        <ele>1963.143</ele>
        <time>2024-08-31T08:56:16Z</time>
      </trkpt>
      <trkpt lat="42.69655" lon="1.39697">
        <ele>1963.273</ele>
        <time>2024-08-31T08:56:18Z</time>
      </trkpt>
      <trkpt lat="42.69654" lon="1.39697">
        <ele>1963.874</ele>
        <time>2024-08-31T08:56:20Z</time>
      </trkpt>
      <trkpt lat="42.69653" lon="1.39696">
        <ele>1965.328</ele>
        <time>2024-08-31T08:56:22Z</time>
      </trkpt>
      <trkpt lat="42.69652" lon="1.39695">
        <ele>1965.533</ele>
        <time>2024-08-31T08:56:24Z</time>
      </trkpt>
      <trkpt lat="42.69652" lon="1.39694">
        <ele>1966.272</ele>
        <time>2024-08-31T08:56:26Z</time>
      </trkpt>
      <trkpt lat="42.69652" lon="1.39693">
        <ele>1966.865</ele>
        <time>2024-08-31T08:56:28Z</time>
      </trkpt>
      <trkpt lat="42.69652" lon="1.39693">
        <ele>1966.927</ele>
        <time>2024-08-31T08:56:30Z</time>
      </trkpt>
      <trkpt lat="42.69652" lon="1.39693">
        <ele>1966.931</ele>
        <time>2024-08-31T08:56:32Z</time>
      </trkpt>
      <trkpt lat="42.69652" lon="1.39693">
        <ele>1967.367</ele>
        <time>2024-08-31T08:56:34Z</time>
      </trkpt>
      <trkpt lat="42.69652" lon="1.39693">
        <ele>1967.419</ele>
        <time>2024-08-31T08:56:36Z</time>
      </trkpt>
      <trkpt lat="42.69652" lon="1.39693">
        <ele>1967.42</ele>
        <time>2024-08-31T08:56:38Z</time>
      </trkpt>
      <trkpt lat="42.69652" lon="1.39693">
        <ele>1966.925</ele>
        <time>2024-08-31T08:56:40Z</time>
      </trkpt>
      <trkpt lat="42.69652" lon="1.39693">
        <ele>1967.43</ele>
        <time>2024-08-31T08:56:42Z</time>
      </trkpt>
      <trkpt lat="42.69652" lon="1.39693">
        <ele>1968.066</ele>
        <time>2024-08-31T08:56:44Z</time>
      </trkpt>
      <trkpt lat="42.69652" lon="1.39693">
        <ele>1968.313</ele>
        <time>2024-08-31T08:56:46Z</time>
      </trkpt>
      <trkpt lat="42.69652" lon="1.39693">
        <ele>1968.173</ele>
        <time>2024-08-31T08:56:48Z</time>
      </trkpt>
      <trkpt lat="42.69652" lon="1.39693">
        <ele>1968.174</ele>
        <time>2024-08-31T08:56:50Z</time>
      </trkpt>
      <trkpt lat="42.69652" lon="1.39693">
        <ele>1968.472</ele>
        <time>2024-08-31T08:56:52Z</time>
      </trkpt>
      <trkpt lat="42.69652" lon="1.39693">
        <ele>1968.579</ele>
        <time>2024-08-31T08:56:54Z</time>
      </trkpt>
      <trkpt lat="42.69652" lon="1.39693">
        <ele>1968.582</ele>
        <time>2024-08-31T08:56:56Z</time>
      </trkpt>
      <trkpt lat="42.69652" lon="1.39693">
        <ele>1969.232</ele>
        <time>2024-08-31T08:56:58Z</time>
      </trkpt>
      <trkpt lat="42.69652" lon="1.39693">
        <ele>1969.743</ele>
        <time>2024-08-31T08:57:00Z</time>
      </trkpt>
      <trkpt lat="42.69652" lon="1.39693">
        <ele>1969.594</ele>
        <time>2024-08-31T08:57:02Z</time>
      </trkpt>
      <trkpt lat="42.69652" lon="1.39693">
        <ele>1969.669</ele>
        <time>2024-08-31T08:57:04Z</time>
      </trkpt>
      <trkpt lat="42.69652" lon="1.39693">
        <ele>1969.682</ele>
        <time>2024-08-31T08:57:06Z</time>
      </trkpt>
      <trkpt lat="42.69652" lon="1.39693">
        <ele>1970.045</ele>
        <time>2024-08-31T08:57:08Z</time>
      </trkpt>
      <trkpt lat="42.69652" lon="1.39693">
        <ele>1969.975</ele>
        <time>2024-08-31T08:57:10Z</time>
      </trkpt>
      <trkpt lat="42.69652" lon="1.39693">
        <ele>1970.277</ele>
        <time>2024-08-31T08:57:12Z</time>
      </trkpt>
      <trkpt lat="42.69652" lon="1.39693">
        <ele>1971.025</ele>
        <time>2024-08-31T08:57:14Z</time>
      </trkpt>
      <trkpt lat="42.69652" lon="1.39693">
        <ele>1971.573</ele>
        <time>2024-08-31T08:57:16Z</time>
      </trkpt>
      <trkpt lat="42.69652" lon="1.39693">
        <ele>1971.857</ele>
        <time>2024-08-31T08:57:18Z</time>
      </trkpt>
      <trkpt lat="42.69652" lon="1.39693">
        <ele>1972.782</ele>
        <time>2024-08-31T08:57:20Z</time>
      </trkpt>
      <trkpt lat="42.69652" lon="1.39693">
        <ele>1972.745</ele>
        <time>2024-08-31T08:57:22Z</time>
      </trkpt>
      <trkpt lat="42.69652" lon="1.39693">
        <ele>1973.644</ele>
        <time>2024-08-31T08:57:24Z</time>
      </trkpt>
      <trkpt lat="42.69652" lon="1.39693">
        <ele>1973.51</ele>
        <time>2024-08-31T08:57:26Z</time>
      </trkpt>
      <trkpt lat="42.69652" lon="1.39693">
        <ele>1973.513</ele>
        <time>2024-08-31T08:57:28Z</time>
      </trkpt>
      <trkpt lat="42.69652" lon="1.39693">
        <ele>1974.233</ele>
        <time>2024-08-31T08:57:30Z</time>
      </trkpt>
      <trkpt lat="42.69652" lon="1.39693">
        <ele>1974.266</ele>
        <time>2024-08-31T08:57:32Z</time>
      </trkpt>
      <trkpt lat="42.69644" lon="1.39684">
        <ele>1974.666</ele>
        <time>2024-08-31T08:57:34Z</time>
      </trkpt>
      <trkpt lat="42.69644" lon="1.39682">
        <ele>1975.024</ele>
        <time>2024-08-31T08:57:36Z</time>
      </trkpt>
      <trkpt lat="42.69644" lon="1.39681">
        <ele>1975.843</ele>
        <time>2024-08-31T08:57:38Z</time>
      </trkpt>
      <trkpt lat="42.69643" lon="1.3968">
        <ele>1975.947</ele>
        <time>2024-08-31T08:57:40Z</time>
      </trkpt>
      <trkpt lat="42.69643" lon="1.39679">
        <ele>1976.334</ele>
        <time>2024-08-31T08:57:42Z</time>
      </trkpt>
      <trkpt lat="42.69643" lon="1.39678">
        <ele>1976.454</ele>
        <time>2024-08-31T08:57:44Z</time>
      </trkpt>
      <trkpt lat="42.69644" lon="1.39678">
        <ele>1976.524</ele>
        <time>2024-08-31T08:57:46Z</time>
      </trkpt>
      <trkpt lat="42.69644" lon="1.39677">
        <ele>1976.483</ele>
        <time>2024-08-31T08:57:48Z</time>
      </trkpt>
      <trkpt lat="42.69644" lon="1.39676">
        <ele>1977.23</ele>
        <time>2024-08-31T08:57:50Z</time>
      </trkpt>
      <trkpt lat="42.69644" lon="1.39676">
        <ele>1976.794</ele>
        <time>2024-08-31T08:57:52Z</time>
      </trkpt>
      <trkpt lat="42.69644" lon="1.39676">
        <ele>1977.336</ele>
        <time>2024-08-31T08:57:54Z</time>
      </trkpt>
      <trkpt lat="42.69644" lon="1.39676">
        <ele>1977.34</ele>
        <time>2024-08-31T08:57:56Z</time>
      </trkpt>
      <trkpt lat="42.69644" lon="1.39676">
        <ele>1978.074</ele>
        <time>2024-08-31T08:57:58Z</time>
      </trkpt>
      <trkpt lat="42.69644" lon="1.39676">
        <ele>1978.144</ele>
        <time>2024-08-31T08:58:00Z</time>
      </trkpt>
      <trkpt lat="42.69644" lon="1.39676">
        <ele>1977.868</ele>
        <time>2024-08-31T08:58:02Z</time>
      </trkpt>
      <trkpt lat="42.69644" lon="1.39676">
        <ele>1977.883</ele>
        <time>2024-08-31T08:58:04Z</time>
      </trkpt>
      <trkpt lat="42.69644" lon="1.39676">
        <ele>1978.149</ele>
        <time>2024-08-31T08:58:06Z</time>
      </trkpt>
      <trkpt lat="42.69644" lon="1.39676">
        <ele>1978.443</ele>
        <time>2024-08-31T08:58:08Z</time>
      </trkpt>
      <trkpt lat="42.69644" lon="1.39676">
        <ele>1978.163</ele>
        <time>2024-08-31T08:58:10Z</time>
      </trkpt>
      <trkpt lat="42.69644" lon="1.39676">
        <ele>1977.742</ele>
        <time>2024-08-31T08:58:12Z</time>
      </trkpt>
      <trkpt lat="42.69644" lon="1.39676">
        <ele>1977.744</ele>
        <time>2024-08-31T08:58:14Z</time>
      </trkpt>
      <trkpt lat="42.69644" lon="1.39676">
        <ele>1978.056</ele>
        <time>2024-08-31T08:58:16Z</time>
      </trkpt>
      <trkpt lat="42.69644" lon="1.39676">
        <ele>1978.697</ele>
        <time>2024-08-31T08:58:18Z</time>
      </trkpt>
      <trkpt lat="42.69644" lon="1.39676">
        <ele>1978.656</ele>
        <time>2024-08-31T08:58:20Z</time>
      </trkpt>
      <trkpt lat="42.69644" lon="1.39676">
        <ele>1978.655</ele>
        <time>2024-08-31T08:58:22Z</time>
      </trkpt>
      <trkpt lat="42.69644" lon="1.39676">
        <ele>1978.767</ele>
        <time>2024-08-31T08:58:24Z</time>
      </trkpt>
      <trkpt lat="42.69644" lon="1.39676">
        <ele>1978.762</ele>
        <time>2024-08-31T08:58:26Z</time>
      </trkpt>
      <trkpt lat="42.69644" lon="1.39676">
        <ele>1978.339</ele>
        <time>2024-08-31T08:58:28Z</time>
      </trkpt>
      <trkpt lat="42.69644" lon="1.39676">
        <ele>1978.207</ele>
        <time>2024-08-31T08:58:30Z</time>
      </trkpt>
      <trkpt lat="42.69644" lon="1.39676">
        <ele>1978.774</ele>
        <time>2024-08-31T08:58:32Z</time>
      </trkpt>
      <trkpt lat="42.69644" lon="1.39676">
        <ele>1978.659</ele>
        <time>2024-08-31T08:58:34Z</time>
      </trkpt>
      <trkpt lat="42.69644" lon="1.39676">
        <ele>1978.673</ele>
        <time>2024-08-31T08:58:36Z</time>
      </trkpt>
      <trkpt lat="42.69644" lon="1.39676">
        <ele>1978.807</ele>
        <time>2024-08-31T08:58:38Z</time>
      </trkpt>
      <trkpt lat="42.69644" lon="1.39676">
        <ele>1978.954</ele>
        <time>2024-08-31T08:58:40Z</time>
      </trkpt>
      <trkpt lat="42.69644" lon="1.39676">
        <ele>1979.439</ele>
        <time>2024-08-31T08:58:42Z</time>
      </trkpt>
      <trkpt lat="42.69644" lon="1.39676">
        <ele>1979.565</ele>
        <time>2024-08-31T08:58:44Z</time>
      </trkpt>
      <trkpt lat="42.69636" lon="1.3967">
        <ele>1979.704</ele>
        <time>2024-08-31T08:58:46Z</time>
      </trkpt>
      <trkpt lat="42.69635" lon="1.39669">
        <ele>1979.776</ele>
        <time>2024-08-31T08:58:48Z</time>
      </trkpt>
      <trkpt lat="42.69636" lon="1.39669">
        <ele>1980.521</ele>
        <time>2024-08-31T08:58:50Z</time>
      </trkpt>
      <trkpt lat="42.69635" lon="1.39668">
        <ele>1981.287</ele>
        <time>2024-08-31T08:58:52Z</time>
      </trkpt>
      <trkpt lat="42.69634" lon="1.39667">
        <ele>1980.988</ele>
        <time>2024-08-31T08:58:54Z</time>
      </trkpt>
      <trkpt lat="42.69634" lon="1.39666">
        <ele>1981.094</ele>
        <time>2024-08-31T08:58:56Z</time>
      </trkpt>
      <trkpt lat="42.69634" lon="1.39665">
        <ele>1981.372</ele>
        <time>2024-08-31T08:58:58Z</time>
      </trkpt>
      <trkpt lat="42.69633" lon="1.39664">
        <ele>1981.197</ele>
        <time>2024-08-31T08:59:00Z</time>
      </trkpt>
      <trkpt lat="42.69633" lon="1.39664">
        <ele>1981.841</ele>
        <time>2024-08-31T08:59:02Z</time>
      </trkpt>
      <trkpt lat="42.69633" lon="1.39664">
        <ele>1981.852</ele>
        <time>2024-08-31T08:59:04Z</time>
      </trkpt>
      <trkpt lat="42.69633" lon="1.39664">
        <ele>1982.325</ele>
        <time>2024-08-31T08:59:06Z</time>
      </trkpt>
      <trkpt lat="42.69633" lon="1.39664">
        <ele>1983.079</ele>
        <time>2024-08-31T08:59:08Z</time>
      </trkpt>
      <trkpt lat="42.69633" lon="1.39664">
        <ele>1983.289</ele>
        <time>2024-08-31T08:59:10Z</time>
      </trkpt>
      <trkpt lat="42.69633" lon="1.39664">
        <ele>1983.289</ele>
        <time>2024-08-31T08:59:12Z</time>
      </trkpt>
      <trkpt lat="42.69633" lon="1.39664">
        <ele>1983.415</ele>
        <time>2024-08-31T08:59:14Z</time>
      </trkpt>
      <trkpt lat="42.69633" lon="1.39664">
        <ele>1983.997</ele>
        <time>2024-08-31T08:59:16Z</time>
      </trkpt>
      <trkpt lat="42.69633" lon="1.39664">
        <ele>1984.476</ele>
        <time>2024-08-31T08:59:18Z</time>
      </trkpt>
      <trkpt lat="42.69633" lon="1.39664">
        <ele>1985.514</ele>
        <time>2024-08-31T08:59:20Z</time>
      </trkpt>
      <trkpt lat="42.69633" lon="1.39664">
        <ele>1985.895</ele>
        <time>2024-08-31T08:59:22Z</time>
      </trkpt>
      <trkpt lat="42.69633" lon="1.39664">
        <ele>1985.604</ele>
        <time>2024-08-31T08:59:24Z</time>
      </trkpt>
      <trkpt lat="42.69633" lon="1.39664">
        <ele>1985.35</ele>
        <time>2024-08-31T08:59:26Z</time>
      </trkpt>
      <trkpt lat="42.69633" lon="1.39664">
        <ele>1985.586</ele>
        <time>2024-08-31T08:59:28Z</time>
      </trkpt>
      <trkpt lat="42.69633" lon="1.39664">
        <ele>1986.196</ele>
        <time>2024-08-31T08:59:30Z</time>
      </trkpt>
      <trkpt lat="42.69633" lon="1.39664">
        <ele>1986.416</ele>
        <time>2024-08-31T08:59:32Z</time>
      </trkpt>
      <trkpt lat="42.69633" lon="1.39664">
        <ele>1986.26</ele>
        <time>2024-08-31T08:59:34Z</time>
      </trkpt>
      <trkpt lat="42.69633" lon="1.39664">
        <ele>1985.891</ele>
        <time>2024-08-31T08:59:36Z</time>
      </trkpt>
      <trkpt lat="42.69633" lon="1.39664">
        <ele>1987.14</ele>
        <time>2024-08-31T08:59:38Z</time>
      </trkpt>
      <trkpt lat="42.69633" lon="1.39664">
        <ele>1987.039</ele>
        <time>2024-08-31T08:59:40Z</time>
      </trkpt>
      <trkpt lat="42.69633" lon="1.39664">
        <ele>1987.524</ele>
        <time>2024-08-31T08:59:42Z</time>
      </trkpt>
      <trkpt lat="42.69633" lon="1.39664">
        <ele>1988.092</ele>
        <time>2024-08-31T08:59:44Z</time>
      </trkpt>
      <trkpt lat="42.69633" lon="1.39664">
        <ele>1988.4</ele>
        <time>2024-08-31T08:59:46Z</time>
      </trkpt>
      <trkpt lat="42.69633" lon="1.39664">
        <ele>1988.388</ele>
        <time>2024-08-31T08:59:48Z</time>
      </trkpt>
      <trkpt lat="42.69633" lon="1.39664">
        <ele>1989.847</ele>
        <time>2024-08-31T08:59:50Z</time>
      </trkpt>
      <trkpt lat="42.69623" lon="1.39665">
        <ele>1990.059</ele>
        <time>2024-08-31T08:59:52Z</time>
      </trkpt>
      <trkpt lat="42.69623" lon="1.39663">
        <ele>1990.824</ele>
        <time>2024-08-31T08:59:54Z</time>
      </trkpt>
      <trkpt lat="42.69623" lon="1.39663">
        <ele>1991.125</ele>
        <time>2024-08-31T08:59:56Z</time>
      </trkpt>
      <trkpt lat="42.69622" lon="1.39663">
        <ele>1990.835</ele>
        <time>2024-08-31T08:59:58Z</time>
      </trkpt>
      <trkpt lat="42.69622" lon="1.39661">
        <ele>1990.368</ele>
        <time>2024-08-31T09:00:00Z</time>
      </trkpt>
      <trkpt lat="42.69621" lon="1.39661">
        <ele>1990.353</ele>
        <time>2024-08-31T09:00:02Z</time>
      </trkpt>
      <trkpt lat="42.69621" lon="1.39661">
        <ele>1989.867</ele>
        <time>2024-08-31T09:00:04Z</time>
      </trkpt>
      <trkpt lat="42.6962" lon="1.39661">
        <ele>1989.937</ele>
        <time>2024-08-31T09:00:06Z</time>
      </trkpt>
      <trkpt lat="42.69619" lon="1.3966">
        <ele>1990.307</ele>
        <time>2024-08-31T09:00:08Z</time>
      </trkpt>
      <trkpt lat="42.69619" lon="1.3966">
        <ele>1990.732</ele>
        <time>2024-08-31T09:00:10Z</time>
      </trkpt>
      <trkpt lat="42.69618" lon="1.3966">
        <ele>1991.268</ele>
        <time>2024-08-31T09:00:12Z</time>
      </trkpt>
      <trkpt lat="42.69618" lon="1.3966">
        <ele>1991.49</ele>
        <time>2024-08-31T09:00:14Z</time>
      </trkpt>
      <trkpt lat="42.69616" lon="1.3966">
        <ele>1991.601</ele>
        <time>2024-08-31T09:00:16Z</time>
      </trkpt>
      <trkpt lat="42.69616" lon="1.39659">
        <ele>1992.914</ele>
        <time>2024-08-31T09:00:18Z</time>
      </trkpt>
      <trkpt lat="42.69615" lon="1.39659">
        <ele>1993.098</ele>
        <time>2024-08-31T09:00:20Z</time>
      </trkpt>
      <trkpt lat="42.69615" lon="1.39658">
        <ele>1992.949</ele>
        <time>2024-08-31T09:00:22Z</time>
      </trkpt>
      <trkpt lat="42.69614" lon="1.39657">
        <ele>1992.687</ele>
        <time>2024-08-31T09:00:24Z</time>
      </trkpt>
      <trkpt lat="42.69613" lon="1.39657">
        <ele>1992.651</ele>
        <time>2024-08-31T09:00:26Z</time>
      </trkpt>
      <trkpt lat="42.69613" lon="1.39658">
        <ele>1992.592</ele>
        <time>2024-08-31T09:00:28Z</time>
      </trkpt>
      <trkpt lat="42.69612" lon="1.39656">
        <ele>1993.462</ele>
        <time>2024-08-31T09:00:30Z</time>
      </trkpt>
      <trkpt lat="42.69611" lon="1.39654">
        <ele>1993.656</ele>
        <time>2024-08-31T09:00:32Z</time>
      </trkpt>
      <trkpt lat="42.69611" lon="1.39653">
        <ele>1994.347</ele>
        <time>2024-08-31T09:00:34Z</time>
      </trkpt>
      <trkpt lat="42.6961" lon="1.39653">
        <ele>1994.534</ele>
        <time>2024-08-31T09:00:36Z</time>
      </trkpt>
      <trkpt lat="42.6961" lon="1.39652">
        <ele>1994.874</ele>
        <time>2024-08-31T09:00:38Z</time>
      </trkpt>
      <trkpt lat="42.69609" lon="1.39651">
        <ele>1994.893</ele>
        <time>2024-08-31T09:00:40Z</time>
      </trkpt>
      <trkpt lat="42.69608" lon="1.39651">
        <ele>1994.34</ele>
        <time>2024-08-31T09:00:42Z</time>
      </trkpt>
      <trkpt lat="42.69607" lon="1.3965">
        <ele>1994.635</ele>
        <time>2024-08-31T09:00:44Z</time>
      </trkpt>
      <trkpt lat="42.69607" lon="1.3965">
        <ele>1994.761</ele>
        <time>2024-08-31T09:00:46Z</time>
      </trkpt>
      <trkpt lat="42.69606" lon="1.39649">
        <ele>1994.674</ele>
        <time>2024-08-31T09:00:48Z</time>
      </trkpt>
      <trkpt lat="42.69605" lon="1.39649">
        <ele>1995.016</ele>
        <time>2024-08-31T09:00:50Z</time>
      </trkpt>
      <trkpt lat="42.69604" lon="1.39649">
        <ele>1996.092</ele>
        <time>2024-08-31T09:00:52Z</time>
      </trkpt>
      <trkpt lat="42.69604" lon="1.39649">
        <ele>1996.355</ele>
        <time>2024-08-31T09:00:54Z</time>
      </trkpt>
      <trkpt lat="42.69604" lon="1.39649">
        <ele>1996.233</ele>
        <time>2024-08-31T09:00:56Z</time>
      </trkpt>
      <trkpt lat="42.69604" lon="1.39649">
        <ele>1996.233</ele>
        <time>2024-08-31T09:00:58Z</time>
      </trkpt>
      <trkpt lat="42.69604" lon="1.39648">
        <ele>1996.54</ele>
        <time>2024-08-31T09:01:00Z</time>
      </trkpt>
      <trkpt lat="42.69604" lon="1.39645">
        <ele>1995.986</ele>
        <time>2024-08-31T09:01:02Z</time>
      </trkpt>
      <trkpt lat="42.69603" lon="1.39642">
        <ele>1995.899</ele>
        <time>2024-08-31T09:01:04Z</time>
      </trkpt>
      <trkpt lat="42.69604" lon="1.39639">
        <ele>1995.95</ele>
        <time>2024-08-31T09:01:06Z</time>
      </trkpt>
      <trkpt lat="42.69605" lon="1.39637">
        <ele>1996.652</ele>
        <time>2024-08-31T09:01:08Z</time>
      </trkpt>
      <trkpt lat="42.69606" lon="1.39635">
        <ele>1997.104</ele>
        <time>2024-08-31T09:01:10Z</time>
      </trkpt>
      <trkpt lat="42.69608" lon="1.39632">
        <ele>1997.726</ele>
        <time>2024-08-31T09:01:12Z</time>
      </trkpt>
      <trkpt lat="42.6961" lon="1.3963">
        <ele>1998.087</ele>
        <time>2024-08-31T09:01:14Z</time>
      </trkpt>
      <trkpt lat="42.6961" lon="1.39628">
        <ele>1997.117</ele>
        <time>2024-08-31T09:01:16Z</time>
      </trkpt>
      <trkpt lat="42.69611" lon="1.39626">
        <ele>1996.735</ele>
        <time>2024-08-31T09:01:18Z</time>
      </trkpt>
      <trkpt lat="42.69612" lon="1.39623">
        <ele>1996.607</ele>
        <time>2024-08-31T09:01:20Z</time>
      </trkpt>
      <trkpt lat="42.69613" lon="1.3962">
        <ele>1996.409</ele>
        <time>2024-08-31T09:01:22Z</time>
      </trkpt>
      <trkpt lat="42.69613" lon="1.39617">
        <ele>1996.622</ele>
        <time>2024-08-31T09:01:24Z</time>
      </trkpt>
      <trkpt lat="42.69614" lon="1.39614">
        <ele>1997.036</ele>
        <time>2024-08-31T09:01:26Z</time>
      </trkpt>
      <trkpt lat="42.69614" lon="1.39611">
        <ele>1996.397</ele>
        <time>2024-08-31T09:01:28Z</time>
      </trkpt>
      <trkpt lat="42.69612" lon="1.39608">
        <ele>1994.692</ele>
        <time>2024-08-31T09:01:30Z</time>
      </trkpt>
      <trkpt lat="42.69612" lon="1.39607">
        <ele>1994.092</ele>
        <time>2024-08-31T09:01:32Z</time>
      </trkpt>
      <trkpt lat="42.6961" lon="1.39605">
        <ele>1993.936</ele>
        <time>2024-08-31T09:01:34Z</time>
      </trkpt>
      <trkpt lat="42.69609" lon="1.39606">
        <ele>1992.583</ele>
        <time>2024-08-31T09:01:36Z</time>
      </trkpt>
      <trkpt lat="42.69609" lon="1.39606">
        <ele>1993.487</ele>
        <time>2024-08-31T09:01:38Z</time>
      </trkpt>
      <trkpt lat="42.69609" lon="1.39606">
        <ele>1994.054</ele>
        <time>2024-08-31T09:01:40Z</time>
      </trkpt>
      <trkpt lat="42.69609" lon="1.39606">
        <ele>1994.014</ele>
        <time>2024-08-31T09:01:42Z</time>
      </trkpt>
      <trkpt lat="42.69609" lon="1.39606">
        <ele>1993.776</ele>
        <time>2024-08-31T09:01:44Z</time>
      </trkpt>
      <trkpt lat="42.69609" lon="1.39606">
        <ele>1993.804</ele>
        <time>2024-08-31T09:01:46Z</time>
      </trkpt>
      <trkpt lat="42.69609" lon="1.39606">
        <ele>1993.817</ele>
        <time>2024-08-31T09:01:48Z</time>
      </trkpt>
      <trkpt lat="42.69609" lon="1.39606">
        <ele>1993.818</ele>
        <time>2024-08-31T09:01:50Z</time>
      </trkpt>
      <trkpt lat="42.69609" lon="1.39606">
        <ele>1993.812</ele>
        <time>2024-08-31T09:01:52Z</time>
      </trkpt>
      <trkpt lat="42.69609" lon="1.39606">
        <ele>1993.815</ele>
        <time>2024-08-31T09:01:54Z</time>
      </trkpt>
      <trkpt lat="42.69609" lon="1.39606">
        <ele>1993.823</ele>
        <time>2024-08-31T09:01:56Z</time>
      </trkpt>
      <trkpt lat="42.69609" lon="1.39606">
        <ele>1994.187</ele>
        <time>2024-08-31T09:01:58Z</time>
      </trkpt>
      <trkpt lat="42.69609" lon="1.39606">
        <ele>1994.466</ele>
        <time>2024-08-31T09:02:00Z</time>
      </trkpt>
      <trkpt lat="42.69609" lon="1.39606">
        <ele>1994.175</ele>
        <time>2024-08-31T09:02:02Z</time>
      </trkpt>
      <trkpt lat="42.69609" lon="1.39606">
        <ele>1994.294</ele>
        <time>2024-08-31T09:02:04Z</time>
      </trkpt>
      <trkpt lat="42.69609" lon="1.39606">
        <ele>1994.17</ele>
        <time>2024-08-31T09:02:06Z</time>
      </trkpt>
      <trkpt lat="42.69609" lon="1.39606">
        <ele>1994.317</ele>
        <time>2024-08-31T09:02:08Z</time>
      </trkpt>
      <trkpt lat="42.69609" lon="1.39606">
        <ele>1994.334</ele>
        <time>2024-08-31T09:02:10Z</time>
      </trkpt>
      <trkpt lat="42.69609" lon="1.39606">
        <ele>1994.318</ele>
        <time>2024-08-31T09:02:12Z</time>
      </trkpt>
      <trkpt lat="42.69609" lon="1.39606">
        <ele>1994.333</ele>
        <time>2024-08-31T09:02:14Z</time>
      </trkpt>
      <trkpt lat="42.69609" lon="1.39606">
        <ele>1994.337</ele>
        <time>2024-08-31T09:02:15Z</time>
      </trkpt>
      <trkpt lat="42.69609" lon="1.39606">
        <ele>1994.349</ele>
        <time>2024-08-31T09:02:18Z</time>
      </trkpt>
      <trkpt lat="42.69609" lon="1.39606">
        <ele>1994.356</ele>
        <time>2024-08-31T09:02:20Z</time>
      </trkpt>
      <trkpt lat="42.69609" lon="1.39606">
        <ele>1994.361</ele>
        <time>2024-08-31T09:02:22Z</time>
      </trkpt>
      <trkpt lat="42.69609" lon="1.39606">
        <ele>1994.364</ele>
        <time>2024-08-31T09:02:24Z</time>
      </trkpt>
      <trkpt lat="42.69609" lon="1.39606">
        <ele>1994.365</ele>
        <time>2024-08-31T09:02:26Z</time>
      </trkpt>
      <trkpt lat="42.69609" lon="1.39606">
        <ele>1994.365</ele>
        <time>2024-08-31T09:02:28Z</time>
      </trkpt>
      <trkpt lat="42.69609" lon="1.39606">
        <ele>1993.651</ele>
        <time>2024-08-31T09:02:30Z</time>
      </trkpt>
      <trkpt lat="42.69609" lon="1.39606">
        <ele>1993.601</ele>
        <time>2024-08-31T09:02:32Z</time>
      </trkpt>
      <trkpt lat="42.69609" lon="1.39606">
        <ele>1993.59</ele>
        <time>2024-08-31T09:02:34Z</time>
      </trkpt>
      <trkpt lat="42.69609" lon="1.39606">
        <ele>1993.588</ele>
        <time>2024-08-31T09:02:35Z</time>
      </trkpt>
      <trkpt lat="42.69609" lon="1.39606">
        <ele>1993.58</ele>
        <time>2024-08-31T09:02:38Z</time>
      </trkpt>
      <trkpt lat="42.69609" lon="1.39606">
        <ele>1993.579</ele>
        <time>2024-08-31T09:02:40Z</time>
      </trkpt>
      <trkpt lat="42.69609" lon="1.39606">
        <ele>1993.577</ele>
        <time>2024-08-31T09:02:42Z</time>
      </trkpt>
      <trkpt lat="42.69609" lon="1.39606">
        <ele>1993.576</ele>
        <time>2024-08-31T09:02:44Z</time>
      </trkpt>
      <trkpt lat="42.69609" lon="1.39606">
        <ele>1993.572</ele>
        <time>2024-08-31T09:02:46Z</time>
      </trkpt>
      <trkpt lat="42.69609" lon="1.39606">
        <ele>1993.567</ele>
        <time>2024-08-31T09:02:48Z</time>
      </trkpt>
      <trkpt lat="42.69609" lon="1.39606">
        <ele>1993.564</ele>
        <time>2024-08-31T09:02:50Z</time>
      </trkpt>
      <trkpt lat="42.69609" lon="1.39606">
        <ele>1993.563</ele>
        <time>2024-08-31T09:02:52Z</time>
      </trkpt>
      <trkpt lat="42.69609" lon="1.39606">
        <ele>1993.559</ele>
        <time>2024-08-31T09:02:54Z</time>
      </trkpt>
      <trkpt lat="42.69609" lon="1.39606">
        <ele>1993.553</ele>
        <time>2024-08-31T09:02:56Z</time>
      </trkpt>
      <trkpt lat="42.69609" lon="1.39606">
        <ele>1993.55</ele>
        <time>2024-08-31T09:02:58Z</time>
      </trkpt>
      <trkpt lat="42.69609" lon="1.39606">
        <ele>1993.549</ele>
        <time>2024-08-31T09:03:00Z</time>
      </trkpt>
      <trkpt lat="42.69609" lon="1.39606">
        <ele>1993.544</ele>
        <time>2024-08-31T09:03:02Z</time>
      </trkpt>
      <trkpt lat="42.69609" lon="1.39606">
        <ele>1993.537</ele>
        <time>2024-08-31T09:03:04Z</time>
      </trkpt>
      <trkpt lat="42.69609" lon="1.39606">
        <ele>1993.531</ele>
        <time>2024-08-31T09:03:06Z</time>
      </trkpt>
      <trkpt lat="42.69609" lon="1.39606">
        <ele>1993.529</ele>
        <time>2024-08-31T09:03:08Z</time>
      </trkpt>
      <trkpt lat="42.69609" lon="1.39606">
        <ele>1993.525</ele>
        <time>2024-08-31T09:03:10Z</time>
      </trkpt>
      <trkpt lat="42.69609" lon="1.39606">
        <ele>1993.522</ele>
        <time>2024-08-31T09:03:12Z</time>
      </trkpt>
      <trkpt lat="42.69609" lon="1.39606">
        <ele>1993.523</ele>
        <time>2024-08-31T09:03:14Z</time>
      </trkpt>
      <trkpt lat="42.69609" lon="1.39606">
        <ele>1993.524</ele>
        <time>2024-08-31T09:03:16Z</time>
      </trkpt>
      <trkpt lat="42.69609" lon="1.39606">
        <ele>1993.522</ele>
        <time>2024-08-31T09:03:18Z</time>
      </trkpt>
      <trkpt lat="42.69609" lon="1.39606">
        <ele>1993.523</ele>
        <time>2024-08-31T09:03:20Z</time>
      </trkpt>
      <trkpt lat="42.69609" lon="1.39606">
        <ele>1993.518</ele>
        <time>2024-08-31T09:03:22Z</time>
      </trkpt>
      <trkpt lat="42.69609" lon="1.39606">
        <ele>1993.517</ele>
        <time>2024-08-31T09:03:24Z</time>
      </trkpt>
      <trkpt lat="42.69609" lon="1.39606">
        <ele>1993.517</ele>
        <time>2024-08-31T09:03:26Z</time>
      </trkpt>
      <trkpt lat="42.69609" lon="1.39606">
        <ele>1993.518</ele>
        <time>2024-08-31T09:03:28Z</time>
      </trkpt>
      <trkpt lat="42.69609" lon="1.39606">
        <ele>1993.513</ele>
        <time>2024-08-31T09:03:30Z</time>
      </trkpt>
      <trkpt lat="42.69609" lon="1.39606">
        <ele>1993.511</ele>
        <time>2024-08-31T09:03:32Z</time>
      </trkpt>
      <trkpt lat="42.69609" lon="1.39606">
        <ele>1993.506</ele>
        <time>2024-08-31T09:03:34Z</time>
      </trkpt>
      <trkpt lat="42.69609" lon="1.39606">
        <ele>1993.497</ele>
        <time>2024-08-31T09:03:36Z</time>
      </trkpt>
      <trkpt lat="42.69609" lon="1.39606">
        <ele>1993.492</ele>
        <time>2024-08-31T09:03:38Z</time>
      </trkpt>
      <trkpt lat="42.69609" lon="1.39606">
        <ele>1993.487</ele>
        <time>2024-08-31T09:03:40Z</time>
      </trkpt>
      <trkpt lat="42.69609" lon="1.39606">
        <ele>1993.486</ele>
        <time>2024-08-31T09:03:42Z</time>
      </trkpt>
      <trkpt lat="42.69609" lon="1.39606">
        <ele>1993.482</ele>
        <time>2024-08-31T09:03:44Z</time>
      </trkpt>
      <trkpt lat="42.69609" lon="1.39606">
        <ele>1993.713</ele>
        <time>2024-08-31T09:03:46Z</time>
      </trkpt>
      <trkpt lat="42.69609" lon="1.39606">
        <ele>1993.629</ele>
        <time>2024-08-31T09:03:48Z</time>
      </trkpt>
      <trkpt lat="42.69609" lon="1.39606">
        <ele>1993.668</ele>
        <time>2024-08-31T09:03:50Z</time>
      </trkpt>
      <trkpt lat="42.69609" lon="1.39606">
        <ele>1993.675</ele>
        <time>2024-08-31T09:03:52Z</time>
      </trkpt>
      <trkpt lat="42.69609" lon="1.39606">
        <ele>1993.678</ele>
        <time>2024-08-31T09:03:54Z</time>
      </trkpt>
      <trkpt lat="42.69609" lon="1.39606">
        <ele>1993.687</ele>
        <time>2024-08-31T09:03:56Z</time>
      </trkpt>
      <trkpt lat="42.69609" lon="1.39606">
        <ele>1993.687</ele>
        <time>2024-08-31T09:03:58Z</time>
      </trkpt>
      <trkpt lat="42.69609" lon="1.39606">
        <ele>1993.689</ele>
        <time>2024-08-31T09:04:00Z</time>
      </trkpt>
      <trkpt lat="42.69609" lon="1.39606">
        <ele>1993.702</ele>
        <time>2024-08-31T09:04:02Z</time>
      </trkpt>
      <trkpt lat="42.69609" lon="1.39606">
        <ele>1993.702</ele>
        <time>2024-08-31T09:04:04Z</time>
      </trkpt>
      <trkpt lat="42.69609" lon="1.39606">
        <ele>1993.708</ele>
        <time>2024-08-31T09:04:06Z</time>
      </trkpt>
      <trkpt lat="42.69609" lon="1.39606">
        <ele>1993.711</ele>
        <time>2024-08-31T09:04:08Z</time>
      </trkpt>
      <trkpt lat="42.69609" lon="1.39606">
        <ele>1993.714</ele>
        <time>2024-08-31T09:04:10Z</time>
      </trkpt>
      <trkpt lat="42.69609" lon="1.39606">
        <ele>1993.72</ele>
        <time>2024-08-31T09:04:12Z</time>
      </trkpt>
      <trkpt lat="42.69609" lon="1.39606">
        <ele>1993.72</ele>
        <time>2024-08-31T09:04:14Z</time>
      </trkpt>
      <trkpt lat="42.69609" lon="1.39606">
        <ele>1993.724</ele>
        <time>2024-08-31T09:04:16Z</time>
      </trkpt>
      <trkpt lat="42.69609" lon="1.39606">
        <ele>1993.724</ele>
        <time>2024-08-31T09:04:18Z</time>
      </trkpt>
      <trkpt lat="42.69609" lon="1.39606">
        <ele>1993.723</ele>
        <time>2024-08-31T09:04:20Z</time>
      </trkpt>
      <trkpt lat="42.69609" lon="1.39606">
        <ele>1993.724</ele>
        <time>2024-08-31T09:04:22Z</time>
      </trkpt>
      <trkpt lat="42.69609" lon="1.39606">
        <ele>1993.734</ele>
        <time>2024-08-31T09:04:24Z</time>
      </trkpt>
      <trkpt lat="42.69609" lon="1.39606">
        <ele>1993.735</ele>
        <time>2024-08-31T09:04:26Z</time>
      </trkpt>
      <trkpt lat="42.69609" lon="1.39606">
        <ele>1993.738</ele>
        <time>2024-08-31T09:04:28Z</time>
      </trkpt>
      <trkpt lat="42.69609" lon="1.39606">
        <ele>1993.739</ele>
        <time>2024-08-31T09:04:30Z</time>
      </trkpt>
      <trkpt lat="42.69609" lon="1.39606">
        <ele>1993.745</ele>
        <time>2024-08-31T09:04:32Z</time>
      </trkpt>
      <trkpt lat="42.69609" lon="1.39606">
        <ele>1993.755</ele>
        <time>2024-08-31T09:04:34Z</time>
      </trkpt>
      <trkpt lat="42.69609" lon="1.39606">
        <ele>1993.76</ele>
        <time>2024-08-31T09:04:36Z</time>
      </trkpt>
      <trkpt lat="42.69609" lon="1.39606">
        <ele>1993.761</ele>
        <time>2024-08-31T09:04:38Z</time>
      </trkpt>
      <trkpt lat="42.69609" lon="1.39606">
        <ele>1993.761</ele>
        <time>2024-08-31T09:04:40Z</time>
      </trkpt>
      <trkpt lat="42.69609" lon="1.39606">
        <ele>1993.762</ele>
        <time>2024-08-31T09:04:42Z</time>
      </trkpt>
      <trkpt lat="42.69609" lon="1.39606">
        <ele>1993.759</ele>
        <time>2024-08-31T09:04:44Z</time>
      </trkpt>
      <trkpt lat="42.69609" lon="1.39606">
        <ele>1993.768</ele>
        <time>2024-08-31T09:04:46Z</time>
      </trkpt>
      <trkpt lat="42.69609" lon="1.39606">
        <ele>1993.771</ele>
        <time>2024-08-31T09:04:48Z</time>
      </trkpt>
      <trkpt lat="42.69609" lon="1.39606">
        <ele>1993.777</ele>
        <time>2024-08-31T09:04:50Z</time>
      </trkpt>
      <trkpt lat="42.69609" lon="1.39606">
        <ele>1993.779</ele>
        <time>2024-08-31T09:04:52Z</time>
      </trkpt>
      <trkpt lat="42.69609" lon="1.39606">
        <ele>1993.897</ele>
        <time>2024-08-31T09:04:54Z</time>
      </trkpt>
      <trkpt lat="42.69609" lon="1.39606">
        <ele>1994.431</ele>
        <time>2024-08-31T09:04:56Z</time>
      </trkpt>
      <trkpt lat="42.69609" lon="1.39606">
        <ele>1994.434</ele>
        <time>2024-08-31T09:04:58Z</time>
      </trkpt>
      <trkpt lat="42.69609" lon="1.39606">
        <ele>1994.789</ele>
        <time>2024-08-31T09:05:00Z</time>
      </trkpt>
      <trkpt lat="42.69609" lon="1.39606">
        <ele>1995.13</ele>
        <time>2024-08-31T09:05:02Z</time>
      </trkpt>
      <trkpt lat="42.69609" lon="1.39606">
        <ele>1995.122</ele>
        <time>2024-08-31T09:05:04Z</time>
      </trkpt>
      <trkpt lat="42.69609" lon="1.39606">
        <ele>1995.117</ele>
        <time>2024-08-31T09:05:06Z</time>
      </trkpt>
      <trkpt lat="42.69609" lon="1.39606">
        <ele>1995.113</ele>
        <time>2024-08-31T09:05:08Z</time>
      </trkpt>
      <trkpt lat="42.69609" lon="1.39606">
        <ele>1995.112</ele>
        <time>2024-08-31T09:05:10Z</time>
      </trkpt>
      <trkpt lat="42.69609" lon="1.39606">
        <ele>1995.113</ele>
        <time>2024-08-31T09:05:12Z</time>
      </trkpt>
      <trkpt lat="42.69609" lon="1.39606">
        <ele>1995.117</ele>
        <time>2024-08-31T09:05:14Z</time>
      </trkpt>
      <trkpt lat="42.69609" lon="1.39606">
        <ele>1996.088</ele>
        <time>2024-08-31T09:05:16Z</time>
      </trkpt>
      <trkpt lat="42.69609" lon="1.39606">
        <ele>1995.832</ele>
        <time>2024-08-31T09:05:18Z</time>
      </trkpt>
      <trkpt lat="42.69609" lon="1.39606">
        <ele>1995.831</ele>
        <time>2024-08-31T09:05:20Z</time>
      </trkpt>
      <trkpt lat="42.69609" lon="1.39606">
        <ele>1995.934</ele>
        <time>2024-08-31T09:05:22Z</time>
      </trkpt>
      <trkpt lat="42.69609" lon="1.39606">
        <ele>1995.927</ele>
        <time>2024-08-31T09:05:24Z</time>
      </trkpt>
      <trkpt lat="42.69609" lon="1.39606">
        <ele>1995.928</ele>
        <time>2024-08-31T09:05:26Z</time>
      </trkpt>
      <trkpt lat="42.69609" lon="1.39606">
        <ele>1995.927</ele>
        <time>2024-08-31T09:05:28Z</time>
      </trkpt>
      <trkpt lat="42.69609" lon="1.39606">
        <ele>1995.948</ele>
        <time>2024-08-31T09:05:30Z</time>
      </trkpt>
      <trkpt lat="42.69609" lon="1.39606">
        <ele>1996.209</ele>
        <time>2024-08-31T09:05:32Z</time>
      </trkpt>
      <trkpt lat="42.69609" lon="1.39606">
        <ele>1998.703</ele>
        <time>2024-08-31T09:05:34Z</time>
      </trkpt>
      <trkpt lat="42.69609" lon="1.39606">
        <ele>1998.493</ele>
        <time>2024-08-31T09:05:36Z</time>
      </trkpt>
      <trkpt lat="42.69609" lon="1.39606">
        <ele>1997.766</ele>
        <time>2024-08-31T09:05:38Z</time>
      </trkpt>
      <trkpt lat="42.69616" lon="1.39614">
        <ele>1997.758</ele>
        <time>2024-08-31T09:05:40Z</time>
      </trkpt>
      <trkpt lat="42.69616" lon="1.39614">
        <ele>1997.76</ele>
        <time>2024-08-31T09:05:42Z</time>
      </trkpt>
      <trkpt lat="42.69616" lon="1.39614">
        <ele>1997.754</ele>
        <time>2024-08-31T09:05:44Z</time>
      </trkpt>
      <trkpt lat="42.69616" lon="1.39615">
        <ele>1997.547</ele>
        <time>2024-08-31T09:05:46Z</time>
      </trkpt>
      <trkpt lat="42.69615" lon="1.39616">
        <ele>1998.21</ele>
        <time>2024-08-31T09:05:48Z</time>
      </trkpt>
      <trkpt lat="42.69614" lon="1.39617">
        <ele>1997.841</ele>
        <time>2024-08-31T09:05:50Z</time>
      </trkpt>
      <trkpt lat="42.69613" lon="1.39618">
        <ele>1998.025</ele>
        <time>2024-08-31T09:05:52Z</time>
      </trkpt>
      <trkpt lat="42.69613" lon="1.3962">
        <ele>1998.026</ele>
        <time>2024-08-31T09:05:54Z</time>
      </trkpt>
      <trkpt lat="42.69612" lon="1.39621">
        <ele>1998.351</ele>
        <time>2024-08-31T09:05:56Z</time>
      </trkpt>
      <trkpt lat="42.69611" lon="1.39623">
        <ele>1998.188</ele>
        <time>2024-08-31T09:05:58Z</time>
      </trkpt>
      <trkpt lat="42.69611" lon="1.39625">
        <ele>1998.136</ele>
        <time>2024-08-31T09:06:00Z</time>
      </trkpt>
      <trkpt lat="42.69609" lon="1.39626">
        <ele>1997.725</ele>
        <time>2024-08-31T09:06:02Z</time>
      </trkpt>
      <trkpt lat="42.69608" lon="1.39626">
        <ele>1996.991</ele>
        <time>2024-08-31T09:06:04Z</time>
      </trkpt>
      <trkpt lat="42.69608" lon="1.39628">
        <ele>1996.524</ele>
        <time>2024-08-31T09:06:06Z</time>
      </trkpt>
      <trkpt lat="42.69606" lon="1.39629">
        <ele>1995.68</ele>
        <time>2024-08-31T09:06:08Z</time>
      </trkpt>
      <trkpt lat="42.69606" lon="1.3963">
        <ele>1994.867</ele>
        <time>2024-08-31T09:06:10Z</time>
      </trkpt>
      <trkpt lat="42.69604" lon="1.39631">
        <ele>1996.343</ele>
        <time>2024-08-31T09:06:12Z</time>
      </trkpt>
      <trkpt lat="42.69604" lon="1.39632">
        <ele>1995.879</ele>
        <time>2024-08-31T09:06:14Z</time>
      </trkpt>
      <trkpt lat="42.69602" lon="1.39633">
        <ele>1996.924</ele>
        <time>2024-08-31T09:06:16Z</time>
      </trkpt>
      <trkpt lat="42.69601" lon="1.39634">
        <ele>1997.727</ele>
        <time>2024-08-31T09:06:18Z</time>
      </trkpt>
      <trkpt lat="42.69599" lon="1.39635">
        <ele>1997.413</ele>
        <time>2024-08-31T09:06:20Z</time>
      </trkpt>
      <trkpt lat="42.69598" lon="1.39635">
        <ele>1997.304</ele>
        <time>2024-08-31T09:06:22Z</time>
      </trkpt>
      <trkpt lat="42.69597" lon="1.39636">
        <ele>1997.423</ele>
        <time>2024-08-31T09:06:24Z</time>
      </trkpt>
      <trkpt lat="42.69596" lon="1.39638">
        <ele>1997.206</ele>
        <time>2024-08-31T09:06:26Z</time>
      </trkpt>
      <trkpt lat="42.69595" lon="1.39639">
        <ele>1998.036</ele>
        <time>2024-08-31T09:06:28Z</time>
      </trkpt>
      <trkpt lat="42.69594" lon="1.39641">
        <ele>1998.168</ele>
        <time>2024-08-31T09:06:30Z</time>
      </trkpt>
      <trkpt lat="42.69594" lon="1.39643">
        <ele>1997.721</ele>
        <time>2024-08-31T09:06:32Z</time>
      </trkpt>
      <trkpt lat="42.69592" lon="1.39644">
        <ele>1998.629</ele>
        <time>2024-08-31T09:06:34Z</time>
      </trkpt>
      <trkpt lat="42.6959" lon="1.39643">
        <ele>1998.936</ele>
        <time>2024-08-31T09:06:36Z</time>
      </trkpt>
      <trkpt lat="42.69589" lon="1.39643">
        <ele>1999.762</ele>
        <time>2024-08-31T09:06:38Z</time>
      </trkpt>
      <trkpt lat="42.69588" lon="1.39641">
        <ele>1998.935</ele>
        <time>2024-08-31T09:06:40Z</time>
      </trkpt>
      <trkpt lat="42.69588" lon="1.39639">
        <ele>1999.449</ele>
        <time>2024-08-31T09:06:42Z</time>
      </trkpt>
      <trkpt lat="42.69587" lon="1.39638">
        <ele>2000.248</ele>
        <time>2024-08-31T09:06:44Z</time>
      </trkpt>
      <trkpt lat="42.69586" lon="1.39637">
        <ele>2000.848</ele>
        <time>2024-08-31T09:06:46Z</time>
      </trkpt>
      <trkpt lat="42.69585" lon="1.39636">
        <ele>2001.031</ele>
        <time>2024-08-31T09:06:48Z</time>
      </trkpt>
      <trkpt lat="42.69584" lon="1.39636">
        <ele>2001.059</ele>
        <time>2024-08-31T09:06:50Z</time>
      </trkpt>
      <trkpt lat="42.69583" lon="1.39637">
        <ele>2001.39</ele>
        <time>2024-08-31T09:06:52Z</time>
      </trkpt>
      <trkpt lat="42.69582" lon="1.39638">
        <ele>2002.01</ele>
        <time>2024-08-31T09:06:54Z</time>
      </trkpt>
      <trkpt lat="42.69581" lon="1.39639">
        <ele>2002.297</ele>
        <time>2024-08-31T09:06:56Z</time>
      </trkpt>
      <trkpt lat="42.6958" lon="1.39638">
        <ele>2002.086</ele>
        <time>2024-08-31T09:06:58Z</time>
      </trkpt>
      <trkpt lat="42.69579" lon="1.39637">
        <ele>2002.413</ele>
        <time>2024-08-31T09:07:00Z</time>
      </trkpt>
      <trkpt lat="42.69579" lon="1.39636">
        <ele>2002.711</ele>
        <time>2024-08-31T09:07:02Z</time>
      </trkpt>
      <trkpt lat="42.69579" lon="1.39635">
        <ele>2003.659</ele>
        <time>2024-08-31T09:07:04Z</time>
      </trkpt>
      <trkpt lat="42.69579" lon="1.39633">
        <ele>2005.084</ele>
        <time>2024-08-31T09:07:06Z</time>
      </trkpt>
      <trkpt lat="42.69578" lon="1.39632">
        <ele>2005.986</ele>
        <time>2024-08-31T09:07:08Z</time>
      </trkpt>
      <trkpt lat="42.69577" lon="1.39631">
        <ele>2006.445</ele>
        <time>2024-08-31T09:07:10Z</time>
      </trkpt>
      <trkpt lat="42.69576" lon="1.39632">
        <ele>2006.645</ele>
        <time>2024-08-31T09:07:12Z</time>
      </trkpt>
      <trkpt lat="42.69575" lon="1.39633">
        <ele>2006.419</ele>
        <time>2024-08-31T09:07:14Z</time>
      </trkpt>
      <trkpt lat="42.69574" lon="1.39634">
        <ele>2007.128</ele>
        <time>2024-08-31T09:07:16Z</time>
      </trkpt>
      <trkpt lat="42.69573" lon="1.39634">
        <ele>2007.871</ele>
        <time>2024-08-31T09:07:18Z</time>
      </trkpt>
      <trkpt lat="42.69573" lon="1.39633">
        <ele>2008.069</ele>
        <time>2024-08-31T09:07:20Z</time>
      </trkpt>
      <trkpt lat="42.69572" lon="1.39632">
        <ele>2008.16</ele>
        <time>2024-08-31T09:07:22Z</time>
      </trkpt>
      <trkpt lat="42.69572" lon="1.39631">
        <ele>2007.549</ele>
        <time>2024-08-31T09:07:24Z</time>
      </trkpt>
      <trkpt lat="42.69571" lon="1.3963">
        <ele>2007.237</ele>
        <time>2024-08-31T09:07:26Z</time>
      </trkpt>
      <trkpt lat="42.69571" lon="1.39629">
        <ele>2007.34</ele>
        <time>2024-08-31T09:07:28Z</time>
      </trkpt>
      <trkpt lat="42.69571" lon="1.39628">
        <ele>2007.847</ele>
        <time>2024-08-31T09:07:30Z</time>
      </trkpt>
      <trkpt lat="42.69571" lon="1.39627">
        <ele>2008.471</ele>
        <time>2024-08-31T09:07:32Z</time>
      </trkpt>
      <trkpt lat="42.6957" lon="1.39626">
        <ele>2009.09</ele>
        <time>2024-08-31T09:07:34Z</time>
      </trkpt>
      <trkpt lat="42.6957" lon="1.39625">
        <ele>2009.212</ele>
        <time>2024-08-31T09:07:36Z</time>
      </trkpt>
      <trkpt lat="42.69569" lon="1.39624">
        <ele>2008.738</ele>
        <time>2024-08-31T09:07:38Z</time>
      </trkpt>
      <trkpt lat="42.69568" lon="1.39625">
        <ele>2008.48</ele>
        <time>2024-08-31T09:07:40Z</time>
      </trkpt>
      <trkpt lat="42.69567" lon="1.39625">
        <ele>2008.594</ele>
        <time>2024-08-31T09:07:42Z</time>
      </trkpt>
      <trkpt lat="42.69567" lon="1.39625">
        <ele>2008.585</ele>
        <time>2024-08-31T09:07:44Z</time>
      </trkpt>
      <trkpt lat="42.69566" lon="1.39624">
        <ele>2008.63</ele>
        <time>2024-08-31T09:07:46Z</time>
      </trkpt>
      <trkpt lat="42.69566" lon="1.39624">
        <ele>2009.373</ele>
        <time>2024-08-31T09:07:48Z</time>
      </trkpt>
      <trkpt lat="42.69565" lon="1.39623">
        <ele>2009.6</ele>
        <time>2024-08-31T09:07:50Z</time>
      </trkpt>
      <trkpt lat="42.69565" lon="1.39623">
        <ele>2010.572</ele>
        <time>2024-08-31T09:07:52Z</time>
      </trkpt>
      <trkpt lat="42.69564" lon="1.39622">
        <ele>2010.92</ele>
        <time>2024-08-31T09:07:54Z</time>
      </trkpt>
      <trkpt lat="42.69564" lon="1.39622">
        <ele>2011.472</ele>
        <time>2024-08-31T09:07:56Z</time>
      </trkpt>
      <trkpt lat="42.69564" lon="1.39622">
        <ele>2011.053</ele>
        <time>2024-08-31T09:07:58Z</time>
      </trkpt>
      <trkpt lat="42.69564" lon="1.39622">
        <ele>2012.12</ele>
        <time>2024-08-31T09:08:00Z</time>
      </trkpt>
      <trkpt lat="42.69563" lon="1.39623">
        <ele>2012.494</ele>
        <time>2024-08-31T09:08:02Z</time>
      </trkpt>
      <trkpt lat="42.69562" lon="1.39622">
        <ele>2013.598</ele>
        <time>2024-08-31T09:08:04Z</time>
      </trkpt>
      <trkpt lat="42.69561" lon="1.39621">
        <ele>2014.148</ele>
        <time>2024-08-31T09:08:06Z</time>
      </trkpt>
      <trkpt lat="42.6956" lon="1.3962">
        <ele>2014.669</ele>
        <time>2024-08-31T09:08:08Z</time>
      </trkpt>
      <trkpt lat="42.69559" lon="1.39619">
        <ele>2014.754</ele>
        <time>2024-08-31T09:08:10Z</time>
      </trkpt>
      <trkpt lat="42.69559" lon="1.39617">
        <ele>2015.924</ele>
        <time>2024-08-31T09:08:12Z</time>
      </trkpt>
      <trkpt lat="42.69558" lon="1.39616">
        <ele>2016.158</ele>
        <time>2024-08-31T09:08:14Z</time>
      </trkpt>
      <trkpt lat="42.69557" lon="1.39615">
        <ele>2016.554</ele>
        <time>2024-08-31T09:08:16Z</time>
      </trkpt>
      <trkpt lat="42.69557" lon="1.39614">
        <ele>2016.618</ele>
        <time>2024-08-31T09:08:18Z</time>
      </trkpt>
      <trkpt lat="42.69556" lon="1.39613">
        <ele>2017.927</ele>
        <time>2024-08-31T09:08:20Z</time>
      </trkpt>
      <trkpt lat="42.69555" lon="1.39611">
        <ele>2018.086</ele>
        <time>2024-08-31T09:08:22Z</time>
      </trkpt>
      <trkpt lat="42.69554" lon="1.3961">
        <ele>2018.467</ele>
        <time>2024-08-31T09:08:24Z</time>
      </trkpt>
      <trkpt lat="42.69553" lon="1.39611">
        <ele>2018.377</ele>
        <time>2024-08-31T09:08:26Z</time>
      </trkpt>
      <trkpt lat="42.69552" lon="1.39612">
        <ele>2017.883</ele>
        <time>2024-08-31T09:08:28Z</time>
      </trkpt>
      <trkpt lat="42.69552" lon="1.39613">
        <ele>2017.287</ele>
        <time>2024-08-31T09:08:30Z</time>
      </trkpt>
      <trkpt lat="42.69551" lon="1.39614">
        <ele>2018.278</ele>
        <time>2024-08-31T09:08:32Z</time>
      </trkpt>
      <trkpt lat="42.6955" lon="1.39615">
        <ele>2018.304</ele>
        <time>2024-08-31T09:08:34Z</time>
      </trkpt>
      <trkpt lat="42.69549" lon="1.39615">
        <ele>2019.362</ele>
        <time>2024-08-31T09:08:36Z</time>
      </trkpt>
      <trkpt lat="42.69549" lon="1.39616">
        <ele>2019.612</ele>
        <time>2024-08-31T09:08:38Z</time>
      </trkpt>
      <trkpt lat="42.69548" lon="1.39616">
        <ele>2019.33</ele>
        <time>2024-08-31T09:08:40Z</time>
      </trkpt>
      <trkpt lat="42.69548" lon="1.39615">
        <ele>2020.452</ele>
        <time>2024-08-31T09:08:42Z</time>
      </trkpt>
      <trkpt lat="42.69547" lon="1.39613">
        <ele>2020.697</ele>
        <time>2024-08-31T09:08:44Z</time>
      </trkpt>
      <trkpt lat="42.69547" lon="1.39612">
        <ele>2021.45</ele>
        <time>2024-08-31T09:08:46Z</time>
      </trkpt>
      <trkpt lat="42.69546" lon="1.39611">
        <ele>2021.309</ele>
        <time>2024-08-31T09:08:48Z</time>
      </trkpt>
      <trkpt lat="42.69545" lon="1.39612">
        <ele>2021.773</ele>
        <time>2024-08-31T09:08:50Z</time>
      </trkpt>
      <trkpt lat="42.69544" lon="1.39612">
        <ele>2022.491</ele>
        <time>2024-08-31T09:08:52Z</time>
      </trkpt>
      <trkpt lat="42.69543" lon="1.39613">
        <ele>2022.437</ele>
        <time>2024-08-31T09:08:54Z</time>
      </trkpt>
      <trkpt lat="42.69543" lon="1.39614">
        <ele>2022.302</ele>
        <time>2024-08-31T09:08:56Z</time>
      </trkpt>
      <trkpt lat="42.69542" lon="1.39613">
        <ele>2022.432</ele>
        <time>2024-08-31T09:08:58Z</time>
      </trkpt>
      <trkpt lat="42.69541" lon="1.39612">
        <ele>2023.034</ele>
        <time>2024-08-31T09:09:00Z</time>
      </trkpt>
      <trkpt lat="42.6954" lon="1.39612">
        <ele>2023.673</ele>
        <time>2024-08-31T09:09:02Z</time>
      </trkpt>
      <trkpt lat="42.6954" lon="1.39613">
        <ele>2024.478</ele>
        <time>2024-08-31T09:09:04Z</time>
      </trkpt>
      <trkpt lat="42.69539" lon="1.39613">
        <ele>2025.07</ele>
        <time>2024-08-31T09:09:06Z</time>
      </trkpt>
      <trkpt lat="42.69539" lon="1.39611">
        <ele>2024.283</ele>
        <time>2024-08-31T09:09:08Z</time>
      </trkpt>
      <trkpt lat="42.69539" lon="1.3961">
        <ele>2024.84</ele>
        <time>2024-08-31T09:09:10Z</time>
      </trkpt>
      <trkpt lat="42.69539" lon="1.39609">
        <ele>2025.889</ele>
        <time>2024-08-31T09:09:12Z</time>
      </trkpt>
      <trkpt lat="42.6954" lon="1.39608">
        <ele>2026.341</ele>
        <time>2024-08-31T09:09:14Z</time>
      </trkpt>
      <trkpt lat="42.6954" lon="1.39606">
        <ele>2027.153</ele>
        <time>2024-08-31T09:09:16Z</time>
      </trkpt>
      <trkpt lat="42.6954" lon="1.39604">
        <ele>2026.956</ele>
        <time>2024-08-31T09:09:18Z</time>
      </trkpt>
      <trkpt lat="42.69538" lon="1.39604">
        <ele>2027.347</ele>
        <time>2024-08-31T09:09:20Z</time>
      </trkpt>
      <trkpt lat="42.69537" lon="1.39604">
        <ele>2027.75</ele>
        <time>2024-08-31T09:09:22Z</time>
      </trkpt>
      <trkpt lat="42.69537" lon="1.39605">
        <ele>2028.34</ele>
        <time>2024-08-31T09:09:24Z</time>
      </trkpt>
      <trkpt lat="42.69536" lon="1.39605">
        <ele>2028.391</ele>
        <time>2024-08-31T09:09:26Z</time>
      </trkpt>
      <trkpt lat="42.69535" lon="1.39604">
        <ele>2028.168</ele>
        <time>2024-08-31T09:09:28Z</time>
      </trkpt>
      <trkpt lat="42.69534" lon="1.39603">
        <ele>2028.895</ele>
        <time>2024-08-31T09:09:30Z</time>
      </trkpt>
      <trkpt lat="42.69534" lon="1.39602">
        <ele>2029.47</ele>
        <time>2024-08-31T09:09:32Z</time>
      </trkpt>
      <trkpt lat="42.69534" lon="1.39601">
        <ele>2029.63</ele>
        <time>2024-08-31T09:09:34Z</time>
      </trkpt>
      <trkpt lat="42.69533" lon="1.396">
        <ele>2029.745</ele>
        <time>2024-08-31T09:09:36Z</time>
      </trkpt>
      <trkpt lat="42.69533" lon="1.396">
        <ele>2029.839</ele>
        <time>2024-08-31T09:09:38Z</time>
      </trkpt>
      <trkpt lat="42.69533" lon="1.396">
        <ele>2029.605</ele>
        <time>2024-08-31T09:09:40Z</time>
      </trkpt>
      <trkpt lat="42.69533" lon="1.396">
        <ele>2030.358</ele>
        <time>2024-08-31T09:09:42Z</time>
      </trkpt>
      <trkpt lat="42.69533" lon="1.396">
        <ele>2030.391</ele>
        <time>2024-08-31T09:09:44Z</time>
      </trkpt>
      <trkpt lat="42.69533" lon="1.396">
        <ele>2030.82</ele>
        <time>2024-08-31T09:09:46Z</time>
      </trkpt>
      <trkpt lat="42.69533" lon="1.396">
        <ele>2030.95</ele>
        <time>2024-08-31T09:09:48Z</time>
      </trkpt>
      <trkpt lat="42.69533" lon="1.396">
        <ele>2030.452</ele>
        <time>2024-08-31T09:09:50Z</time>
      </trkpt>
      <trkpt lat="42.69533" lon="1.396">
        <ele>2030.512</ele>
        <time>2024-08-31T09:09:52Z</time>
      </trkpt>
      <trkpt lat="42.69533" lon="1.396">
        <ele>2030.64</ele>
        <time>2024-08-31T09:09:54Z</time>
      </trkpt>
      <trkpt lat="42.69533" lon="1.396">
        <ele>2031.232</ele>
        <time>2024-08-31T09:09:56Z</time>
      </trkpt>
      <trkpt lat="42.69533" lon="1.396">
        <ele>2030.985</ele>
        <time>2024-08-31T09:09:58Z</time>
      </trkpt>
      <trkpt lat="42.69533" lon="1.396">
        <ele>2030.981</ele>
        <time>2024-08-31T09:10:00Z</time>
      </trkpt>
      <trkpt lat="42.69527" lon="1.396">
        <ele>2031.137</ele>
        <time>2024-08-31T09:10:02Z</time>
      </trkpt>
      <trkpt lat="42.69526" lon="1.396">
        <ele>2031.474</ele>
        <time>2024-08-31T09:10:04Z</time>
      </trkpt>
      <trkpt lat="42.69526" lon="1.39599">
        <ele>2032.131</ele>
        <time>2024-08-31T09:10:06Z</time>
      </trkpt>
      <trkpt lat="42.69525" lon="1.39599">
        <ele>2032.392</ele>
        <time>2024-08-31T09:10:08Z</time>
      </trkpt>
      <trkpt lat="42.69524" lon="1.39599">
        <ele>2033.034</ele>
        <time>2024-08-31T09:10:10Z</time>
      </trkpt>
      <trkpt lat="42.69523" lon="1.39598">
        <ele>2034.232</ele>
        <time>2024-08-31T09:10:12Z</time>
      </trkpt>
      <trkpt lat="42.69522" lon="1.39598">
        <ele>2035.063</ele>
        <time>2024-08-31T09:10:14Z</time>
      </trkpt>
      <trkpt lat="42.69522" lon="1.39598">
        <ele>2035.85</ele>
        <time>2024-08-31T09:10:16Z</time>
      </trkpt>
      <trkpt lat="42.69522" lon="1.39599">
        <ele>2036.382</ele>
        <time>2024-08-31T09:10:18Z</time>
      </trkpt>
      <trkpt lat="42.69521" lon="1.396">
        <ele>2036.774</ele>
        <time>2024-08-31T09:10:20Z</time>
      </trkpt>
      <trkpt lat="42.69521" lon="1.396">
        <ele>2037.196</ele>
        <time>2024-08-31T09:10:22Z</time>
      </trkpt>
      <trkpt lat="42.6952" lon="1.39601">
        <ele>2036.39</ele>
        <time>2024-08-31T09:10:24Z</time>
      </trkpt>
      <trkpt lat="42.6952" lon="1.39601">
        <ele>2036.95</ele>
        <time>2024-08-31T09:10:26Z</time>
      </trkpt>
      <trkpt lat="42.6952" lon="1.39601">
        <ele>2036.975</ele>
        <time>2024-08-31T09:10:28Z</time>
      </trkpt>
      <trkpt lat="42.69519" lon="1.39601">
        <ele>2037.419</ele>
        <time>2024-08-31T09:10:30Z</time>
      </trkpt>
      <trkpt lat="42.69519" lon="1.39601">
        <ele>2037.151</ele>
        <time>2024-08-31T09:10:32Z</time>
      </trkpt>
      <trkpt lat="42.69518" lon="1.39601">
        <ele>2038.346</ele>
        <time>2024-08-31T09:10:34Z</time>
      </trkpt>
      <trkpt lat="42.69518" lon="1.39601">
        <ele>2037.981</ele>
        <time>2024-08-31T09:10:36Z</time>
      </trkpt>
      <trkpt lat="42.69517" lon="1.39602">
        <ele>2038.817</ele>
        <time>2024-08-31T09:10:39Z</time>
      </trkpt>
      <trkpt lat="42.69517" lon="1.39602">
        <ele>2038.804</ele>
        <time>2024-08-31T09:10:41Z</time>
      </trkpt>
      <trkpt lat="42.69516" lon="1.39602">
        <ele>2039.471</ele>
        <time>2024-08-31T09:10:43Z</time>
      </trkpt>
      <trkpt lat="42.69516" lon="1.39603">
        <ele>2039.573</ele>
        <time>2024-08-31T09:10:45Z</time>
      </trkpt>
      <trkpt lat="42.69516" lon="1.39603">
        <ele>2039.628</ele>
        <time>2024-08-31T09:10:47Z</time>
      </trkpt>
      <trkpt lat="42.69515" lon="1.39603">
        <ele>2039.931</ele>
        <time>2024-08-31T09:10:49Z</time>
      </trkpt>
      <trkpt lat="42.69514" lon="1.39602">
        <ele>2039.691</ele>
        <time>2024-08-31T09:10:51Z</time>
      </trkpt>
      <trkpt lat="42.69514" lon="1.39602">
        <ele>2040.474</ele>
        <time>2024-08-31T09:10:53Z</time>
      </trkpt>
      <trkpt lat="42.69513" lon="1.39601">
        <ele>2041.038</ele>
        <time>2024-08-31T09:10:55Z</time>
      </trkpt>
      <trkpt lat="42.69512" lon="1.39601">
        <ele>2041.844</ele>
        <time>2024-08-31T09:10:57Z</time>
      </trkpt>
      <trkpt lat="42.69512" lon="1.39602">
        <ele>2042.227</ele>
        <time>2024-08-31T09:10:59Z</time>
      </trkpt>
      <trkpt lat="42.69512" lon="1.39604">
        <ele>2042.528</ele>
        <time>2024-08-31T09:11:01Z</time>
      </trkpt>
      <trkpt lat="42.69512" lon="1.39605">
        <ele>2041.858</ele>
        <time>2024-08-31T09:11:03Z</time>
      </trkpt>
      <trkpt lat="42.69512" lon="1.39606">
        <ele>2041.785</ele>
        <time>2024-08-31T09:11:05Z</time>
      </trkpt>
      <trkpt lat="42.69512" lon="1.39608">
        <ele>2042.804</ele>
        <time>2024-08-31T09:11:07Z</time>
      </trkpt>
      <trkpt lat="42.69512" lon="1.39609">
        <ele>2042.287</ele>
        <time>2024-08-31T09:11:09Z</time>
      </trkpt>
      <trkpt lat="42.69511" lon="1.39609">
        <ele>2042.602</ele>
        <time>2024-08-31T09:11:11Z</time>
      </trkpt>
      <trkpt lat="42.6951" lon="1.39609">
        <ele>2043.18</ele>
        <time>2024-08-31T09:11:13Z</time>
      </trkpt>
      <trkpt lat="42.69509" lon="1.39609">
        <ele>2044.286</ele>
        <time>2024-08-31T09:11:15Z</time>
      </trkpt>
      <trkpt lat="42.69508" lon="1.3961">
        <ele>2044.264</ele>
        <time>2024-08-31T09:11:17Z</time>
      </trkpt>
      <trkpt lat="42.69508" lon="1.39611">
        <ele>2044.335</ele>
        <time>2024-08-31T09:11:19Z</time>
      </trkpt>
      <trkpt lat="42.69508" lon="1.39612">
        <ele>2044.708</ele>
        <time>2024-08-31T09:11:21Z</time>
      </trkpt>
      <trkpt lat="42.69507" lon="1.39613">
        <ele>2045.467</ele>
        <time>2024-08-31T09:11:23Z</time>
      </trkpt>
      <trkpt lat="42.69508" lon="1.39614">
        <ele>2045.147</ele>
        <time>2024-08-31T09:11:25Z</time>
      </trkpt>
      <trkpt lat="42.69508" lon="1.39616">
        <ele>2045.527</ele>
        <time>2024-08-31T09:11:27Z</time>
      </trkpt>
      <trkpt lat="42.69508" lon="1.39617">
        <ele>2045.024</ele>
        <time>2024-08-31T09:11:29Z</time>
      </trkpt>
      <trkpt lat="42.69507" lon="1.39617">
        <ele>2045.457</ele>
        <time>2024-08-31T09:11:31Z</time>
      </trkpt>
      <trkpt lat="42.69506" lon="1.39618">
        <ele>2046.547</ele>
        <time>2024-08-31T09:11:33Z</time>
      </trkpt>
      <trkpt lat="42.69505" lon="1.39618">
        <ele>2047.87</ele>
        <time>2024-08-31T09:11:35Z</time>
      </trkpt>
      <trkpt lat="42.69504" lon="1.39617">
        <ele>2048.054</ele>
        <time>2024-08-31T09:11:37Z</time>
      </trkpt>
      <trkpt lat="42.69503" lon="1.39617">
        <ele>2047.968</ele>
        <time>2024-08-31T09:11:39Z</time>
      </trkpt>
      <trkpt lat="42.69502" lon="1.39616">
        <ele>2048.887</ele>
        <time>2024-08-31T09:11:41Z</time>
      </trkpt>
      <trkpt lat="42.69502" lon="1.39616">
        <ele>2049.004</ele>
        <time>2024-08-31T09:11:43Z</time>
      </trkpt>
      <trkpt lat="42.69501" lon="1.39617">
        <ele>2050.084</ele>
        <time>2024-08-31T09:11:45Z</time>
      </trkpt>
      <trkpt lat="42.695" lon="1.39618">
        <ele>2049.985</ele>
        <time>2024-08-31T09:11:47Z</time>
      </trkpt>
      <trkpt lat="42.695" lon="1.39618">
        <ele>2050.694</ele>
        <time>2024-08-31T09:11:49Z</time>
      </trkpt>
      <trkpt lat="42.69499" lon="1.39618">
        <ele>2051.121</ele>
        <time>2024-08-31T09:11:51Z</time>
      </trkpt>
      <trkpt lat="42.69499" lon="1.39619">
        <ele>2051.776</ele>
        <time>2024-08-31T09:11:53Z</time>
      </trkpt>
      <trkpt lat="42.69498" lon="1.3962">
        <ele>2052.222</ele>
        <time>2024-08-31T09:11:55Z</time>
      </trkpt>
      <trkpt lat="42.69498" lon="1.3962">
        <ele>2052.287</ele>
        <time>2024-08-31T09:11:57Z</time>
      </trkpt>
      <trkpt lat="42.69498" lon="1.3962">
        <ele>2052.289</ele>
        <time>2024-08-31T09:11:59Z</time>
      </trkpt>
      <trkpt lat="42.69498" lon="1.3962">
        <ele>2052.286</ele>
        <time>2024-08-31T09:12:01Z</time>
      </trkpt>
      <trkpt lat="42.69498" lon="1.3962">
        <ele>2052.285</ele>
        <time>2024-08-31T09:12:03Z</time>
      </trkpt>
      <trkpt lat="42.69498" lon="1.3962">
        <ele>2052.278</ele>
        <time>2024-08-31T09:12:05Z</time>
      </trkpt>
      <trkpt lat="42.69498" lon="1.3962">
        <ele>2052.274</ele>
        <time>2024-08-31T09:12:07Z</time>
      </trkpt>
      <trkpt lat="42.69498" lon="1.39621">
        <ele>2052.406</ele>
        <time>2024-08-31T09:12:09Z</time>
      </trkpt>
      <trkpt lat="42.69497" lon="1.39622">
        <ele>2052.642</ele>
        <time>2024-08-31T09:12:11Z</time>
      </trkpt>
      <trkpt lat="42.69497" lon="1.39623">
        <ele>2052.465</ele>
        <time>2024-08-31T09:12:13Z</time>
      </trkpt>
      <trkpt lat="42.69497" lon="1.39623">
        <ele>2052.445</ele>
        <time>2024-08-31T09:12:15Z</time>
      </trkpt>
      <trkpt lat="42.69497" lon="1.39623">
        <ele>2052.444</ele>
        <time>2024-08-31T09:12:17Z</time>
      </trkpt>
      <trkpt lat="42.69497" lon="1.39623">
        <ele>2052.444</ele>
        <time>2024-08-31T09:12:19Z</time>
      </trkpt>
      <trkpt lat="42.69497" lon="1.39623">
        <ele>2052.445</ele>
        <time>2024-08-31T09:12:21Z</time>
      </trkpt>
      <trkpt lat="42.69497" lon="1.39623">
        <ele>2052.443</ele>
        <time>2024-08-31T09:12:23Z</time>
      </trkpt>
      <trkpt lat="42.69497" lon="1.39623">
        <ele>2052.438</ele>
        <time>2024-08-31T09:12:25Z</time>
      </trkpt>
      <trkpt lat="42.69497" lon="1.39623">
        <ele>2052.437</ele>
        <time>2024-08-31T09:12:27Z</time>
      </trkpt>
      <trkpt lat="42.69497" lon="1.39623">
        <ele>2052.431</ele>
        <time>2024-08-31T09:12:29Z</time>
      </trkpt>
      <trkpt lat="42.69497" lon="1.39623">
        <ele>2052.428</ele>
        <time>2024-08-31T09:12:31Z</time>
      </trkpt>
      <trkpt lat="42.69497" lon="1.39623">
        <ele>2052.43</ele>
        <time>2024-08-31T09:12:33Z</time>
      </trkpt>
      <trkpt lat="42.69497" lon="1.39623">
        <ele>2052.431</ele>
        <time>2024-08-31T09:12:35Z</time>
      </trkpt>
      <trkpt lat="42.69497" lon="1.39623">
        <ele>2052.431</ele>
        <time>2024-08-31T09:12:37Z</time>
      </trkpt>
      <trkpt lat="42.69497" lon="1.39623">
        <ele>2052.429</ele>
        <time>2024-08-31T09:12:39Z</time>
      </trkpt>
      <trkpt lat="42.69497" lon="1.39623">
        <ele>2052.423</ele>
        <time>2024-08-31T09:12:41Z</time>
      </trkpt>
      <trkpt lat="42.69497" lon="1.39623">
        <ele>2052.409</ele>
        <time>2024-08-31T09:12:43Z</time>
      </trkpt>
      <trkpt lat="42.69497" lon="1.39623">
        <ele>2052.404</ele>
        <time>2024-08-31T09:12:45Z</time>
      </trkpt>
      <trkpt lat="42.69497" lon="1.39623">
        <ele>2052.4</ele>
        <time>2024-08-31T09:12:47Z</time>
      </trkpt>
      <trkpt lat="42.69497" lon="1.39623">
        <ele>2053.068</ele>
        <time>2024-08-31T09:12:49Z</time>
      </trkpt>
      <trkpt lat="42.69497" lon="1.39623">
        <ele>2053.067</ele>
        <time>2024-08-31T09:12:51Z</time>
      </trkpt>
      <trkpt lat="42.69497" lon="1.39623">
        <ele>2053.069</ele>
        <time>2024-08-31T09:12:53Z</time>
      </trkpt>
      <trkpt lat="42.69497" lon="1.39623">
        <ele>2053.062</ele>
        <time>2024-08-31T09:12:55Z</time>
      </trkpt>
      <trkpt lat="42.69497" lon="1.39623">
        <ele>2053.054</ele>
        <time>2024-08-31T09:12:57Z</time>
      </trkpt>
      <trkpt lat="42.69497" lon="1.39623">
        <ele>2053.053</ele>
        <time>2024-08-31T09:12:59Z</time>
      </trkpt>
      <trkpt lat="42.69497" lon="1.39623">
        <ele>2053.051</ele>
        <time>2024-08-31T09:13:01Z</time>
      </trkpt>
      <trkpt lat="42.69497" lon="1.39623">
        <ele>2053.063</ele>
        <time>2024-08-31T09:13:03Z</time>
      </trkpt>
      <trkpt lat="42.69497" lon="1.39623">
        <ele>2053.057</ele>
        <time>2024-08-31T09:13:05Z</time>
      </trkpt>
      <trkpt lat="42.69497" lon="1.39623">
        <ele>2053.604</ele>
        <time>2024-08-31T09:13:07Z</time>
      </trkpt>
      <trkpt lat="42.69497" lon="1.39623">
        <ele>2053.601</ele>
        <time>2024-08-31T09:13:09Z</time>
      </trkpt>
      <trkpt lat="42.69497" lon="1.39623">
        <ele>2053.603</ele>
        <time>2024-08-31T09:13:11Z</time>
      </trkpt>
      <trkpt lat="42.69497" lon="1.39623">
        <ele>2053.6</ele>
        <time>2024-08-31T09:13:13Z</time>
      </trkpt>
      <trkpt lat="42.69497" lon="1.39623">
        <ele>2053.603</ele>
        <time>2024-08-31T09:13:15Z</time>
      </trkpt>
      <trkpt lat="42.69497" lon="1.39623">
        <ele>2053.605</ele>
        <time>2024-08-31T09:13:17Z</time>
      </trkpt>
      <trkpt lat="42.69497" lon="1.39623">
        <ele>2053.602</ele>
        <time>2024-08-31T09:13:19Z</time>
      </trkpt>
      <trkpt lat="42.69497" lon="1.39623">
        <ele>2053.598</ele>
        <time>2024-08-31T09:13:21Z</time>
      </trkpt>
      <trkpt lat="42.69497" lon="1.39623">
        <ele>2053.595</ele>
        <time>2024-08-31T09:13:23Z</time>
      </trkpt>
      <trkpt lat="42.69497" lon="1.39623">
        <ele>2053.595</ele>
        <time>2024-08-31T09:13:25Z</time>
      </trkpt>
      <trkpt lat="42.69497" lon="1.39623">
        <ele>2053.595</ele>
        <time>2024-08-31T09:13:27Z</time>
      </trkpt>
      <trkpt lat="42.69497" lon="1.39623">
        <ele>2053.589</ele>
        <time>2024-08-31T09:13:29Z</time>
      </trkpt>
      <trkpt lat="42.69497" lon="1.39623">
        <ele>2053.59</ele>
        <time>2024-08-31T09:13:31Z</time>
      </trkpt>
      <trkpt lat="42.69497" lon="1.39623">
        <ele>2053.595</ele>
        <time>2024-08-31T09:13:33Z</time>
      </trkpt>
      <trkpt lat="42.69497" lon="1.39623">
        <ele>2053.6</ele>
        <time>2024-08-31T09:13:35Z</time>
      </trkpt>
      <trkpt lat="42.69497" lon="1.39623">
        <ele>2053.598</ele>
        <time>2024-08-31T09:13:37Z</time>
      </trkpt>
      <trkpt lat="42.69497" lon="1.39623">
        <ele>2053.596</ele>
        <time>2024-08-31T09:13:39Z</time>
      </trkpt>
      <trkpt lat="42.69497" lon="1.39623">
        <ele>2053.591</ele>
        <time>2024-08-31T09:13:41Z</time>
      </trkpt>
      <trkpt lat="42.69497" lon="1.39623">
        <ele>2053.588</ele>
        <time>2024-08-31T09:13:43Z</time>
      </trkpt>
      <trkpt lat="42.69497" lon="1.39623">
        <ele>2053.588</ele>
        <time>2024-08-31T09:13:45Z</time>
      </trkpt>
      <trkpt lat="42.69497" lon="1.39623">
        <ele>2053.587</ele>
        <time>2024-08-31T09:13:47Z</time>
      </trkpt>
      <trkpt lat="42.69497" lon="1.39623">
        <ele>2053.584</ele>
        <time>2024-08-31T09:13:49Z</time>
      </trkpt>
      <trkpt lat="42.69497" lon="1.39623">
        <ele>2053.578</ele>
        <time>2024-08-31T09:13:51Z</time>
      </trkpt>
      <trkpt lat="42.69497" lon="1.39623">
        <ele>2053.57</ele>
        <time>2024-08-31T09:13:53Z</time>
      </trkpt>
      <trkpt lat="42.69497" lon="1.39623">
        <ele>2053.573</ele>
        <time>2024-08-31T09:13:55Z</time>
      </trkpt>
      <trkpt lat="42.69497" lon="1.39623">
        <ele>2053.567</ele>
        <time>2024-08-31T09:13:57Z</time>
      </trkpt>
      <trkpt lat="42.69497" lon="1.39623">
        <ele>2053.67</ele>
        <time>2024-08-31T09:13:59Z</time>
      </trkpt>
      <trkpt lat="42.69497" lon="1.39623">
        <ele>2053.606</ele>
        <time>2024-08-31T09:14:01Z</time>
      </trkpt>
      <trkpt lat="42.69497" lon="1.39623">
        <ele>2053.606</ele>
        <time>2024-08-31T09:14:03Z</time>
      </trkpt>
      <trkpt lat="42.69497" lon="1.39623">
        <ele>2053.6</ele>
        <time>2024-08-31T09:14:05Z</time>
      </trkpt>
      <trkpt lat="42.69497" lon="1.39623">
        <ele>2054.087</ele>
        <time>2024-08-31T09:14:07Z</time>
      </trkpt>
      <trkpt lat="42.69497" lon="1.39623">
        <ele>2054.24</ele>
        <time>2024-08-31T09:14:09Z</time>
      </trkpt>
      <trkpt lat="42.69497" lon="1.39623">
        <ele>2053.966</ele>
        <time>2024-08-31T09:14:11Z</time>
      </trkpt>
      <trkpt lat="42.69497" lon="1.39623">
        <ele>2053.956</ele>
        <time>2024-08-31T09:14:13Z</time>
      </trkpt>
      <trkpt lat="42.69497" lon="1.39623">
        <ele>2053.954</ele>
        <time>2024-08-31T09:14:15Z</time>
      </trkpt>
      <trkpt lat="42.69497" lon="1.39623">
        <ele>2053.95</ele>
        <time>2024-08-31T09:14:17Z</time>
      </trkpt>
      <trkpt lat="42.69497" lon="1.39623">
        <ele>2054.319</ele>
        <time>2024-08-31T09:14:19Z</time>
      </trkpt>
      <trkpt lat="42.69497" lon="1.39623">
        <ele>2054.318</ele>
        <time>2024-08-31T09:14:21Z</time>
      </trkpt>
      <trkpt lat="42.69497" lon="1.39623">
        <ele>2054.18</ele>
        <time>2024-08-31T09:14:23Z</time>
      </trkpt>
      <trkpt lat="42.69497" lon="1.39623">
        <ele>2053.782</ele>
        <time>2024-08-31T09:14:25Z</time>
      </trkpt>
      <trkpt lat="42.69497" lon="1.39623">
        <ele>2053.905</ele>
        <time>2024-08-31T09:14:27Z</time>
      </trkpt>
      <trkpt lat="42.69497" lon="1.39623">
        <ele>2053.914</ele>
        <time>2024-08-31T09:14:29Z</time>
      </trkpt>
      <trkpt lat="42.69497" lon="1.39623">
        <ele>2054.004</ele>
        <time>2024-08-31T09:14:31Z</time>
      </trkpt>
      <trkpt lat="42.69497" lon="1.39623">
        <ele>2054.081</ele>
        <time>2024-08-31T09:14:33Z</time>
      </trkpt>
      <trkpt lat="42.69497" lon="1.39623">
        <ele>2054.389</ele>
        <time>2024-08-31T09:14:35Z</time>
      </trkpt>
      <trkpt lat="42.69497" lon="1.39623">
        <ele>2054.385</ele>
        <time>2024-08-31T09:14:37Z</time>
      </trkpt>
      <trkpt lat="42.69497" lon="1.39623">
        <ele>2054.382</ele>
        <time>2024-08-31T09:14:39Z</time>
      </trkpt>
      <trkpt lat="42.69497" lon="1.39623">
        <ele>2054.382</ele>
        <time>2024-08-31T09:14:41Z</time>
      </trkpt>
      <trkpt lat="42.69497" lon="1.39623">
        <ele>2054.386</ele>
        <time>2024-08-31T09:14:43Z</time>
      </trkpt>
      <trkpt lat="42.69497" lon="1.39623">
        <ele>2054.385</ele>
        <time>2024-08-31T09:14:45Z</time>
      </trkpt>
      <trkpt lat="42.69497" lon="1.39623">
        <ele>2054.383</ele>
        <time>2024-08-31T09:14:47Z</time>
      </trkpt>
      <trkpt lat="42.69497" lon="1.39623">
        <ele>2054.383</ele>
        <time>2024-08-31T09:14:49Z</time>
      </trkpt>
      <trkpt lat="42.69497" lon="1.39623">
        <ele>2054.385</ele>
        <time>2024-08-31T09:14:51Z</time>
      </trkpt>
      <trkpt lat="42.69497" lon="1.39623">
        <ele>2054.382</ele>
        <time>2024-08-31T09:14:53Z</time>
      </trkpt>
      <trkpt lat="42.69497" lon="1.39623">
        <ele>2054.38</ele>
        <time>2024-08-31T09:14:55Z</time>
      </trkpt>
      <trkpt lat="42.69497" lon="1.39623">
        <ele>2054.515</ele>
        <time>2024-08-31T09:14:57Z</time>
      </trkpt>
      <trkpt lat="42.69497" lon="1.39623">
        <ele>2054.517</ele>
        <time>2024-08-31T09:14:59Z</time>
      </trkpt>
      <trkpt lat="42.69497" lon="1.39623">
        <ele>2054.517</ele>
        <time>2024-08-31T09:15:01Z</time>
      </trkpt>
      <trkpt lat="42.69497" lon="1.39623">
        <ele>2054.435</ele>
        <time>2024-08-31T09:15:03Z</time>
      </trkpt>
      <trkpt lat="42.69497" lon="1.39622">
        <ele>2054.053</ele>
        <time>2024-08-31T09:15:05Z</time>
      </trkpt>
      <trkpt lat="42.69496" lon="1.39623">
        <ele>2053.001</ele>
        <time>2024-08-31T09:15:07Z</time>
      </trkpt>
      <trkpt lat="42.69494" lon="1.39623">
        <ele>2052.353</ele>
        <time>2024-08-31T09:15:09Z</time>
      </trkpt>
      <trkpt lat="42.69493" lon="1.39623">
        <ele>2052.229</ele>
        <time>2024-08-31T09:15:11Z</time>
      </trkpt>
      <trkpt lat="42.69492" lon="1.39623">
        <ele>2050.253</ele>
        <time>2024-08-31T09:15:13Z</time>
      </trkpt>
      <trkpt lat="42.69491" lon="1.39624">
        <ele>2049.131</ele>
        <time>2024-08-31T09:15:15Z</time>
      </trkpt>
      <trkpt lat="42.69489" lon="1.39624">
        <ele>2049.287</ele>
        <time>2024-08-31T09:15:17Z</time>
      </trkpt>
      <trkpt lat="42.69488" lon="1.39623">
        <ele>2049.164</ele>
        <time>2024-08-31T09:15:19Z</time>
      </trkpt>
      <trkpt lat="42.69486" lon="1.39623">
        <ele>2049.727</ele>
        <time>2024-08-31T09:15:21Z</time>
      </trkpt>
      <trkpt lat="42.69485" lon="1.39622">
        <ele>2049.796</ele>
        <time>2024-08-31T09:15:23Z</time>
      </trkpt>
      <trkpt lat="42.69485" lon="1.3962">
        <ele>2051.185</ele>
        <time>2024-08-31T09:15:25Z</time>
      </trkpt>
      <trkpt lat="42.69484" lon="1.39618">
        <ele>2051.594</ele>
        <time>2024-08-31T09:15:27Z</time>
      </trkpt>
      <trkpt lat="42.69484" lon="1.39616">
        <ele>2053.118</ele>
        <time>2024-08-31T09:15:29Z</time>
      </trkpt>
      <trkpt lat="42.69483" lon="1.39615">
        <ele>2054.291</ele>
        <time>2024-08-31T09:15:31Z</time>
      </trkpt>
      <trkpt lat="42.69483" lon="1.39614">
        <ele>2054.898</ele>
        <time>2024-08-31T09:15:33Z</time>
      </trkpt>
      <trkpt lat="42.69482" lon="1.39614">
        <ele>2055.257</ele>
        <time>2024-08-31T09:15:35Z</time>
      </trkpt>
      <trkpt lat="42.69481" lon="1.39613">
        <ele>2056.303</ele>
        <time>2024-08-31T09:15:37Z</time>
      </trkpt>
      <trkpt lat="42.6948" lon="1.39613">
        <ele>2056.861</ele>
        <time>2024-08-31T09:15:39Z</time>
      </trkpt>
      <trkpt lat="42.6948" lon="1.39613">
        <ele>2056.333</ele>
        <time>2024-08-31T09:15:41Z</time>
      </trkpt>
      <trkpt lat="42.69479" lon="1.39613">
        <ele>2057.357</ele>
        <time>2024-08-31T09:15:43Z</time>
      </trkpt>
      <trkpt lat="42.69479" lon="1.39613">
        <ele>2057.881</ele>
        <time>2024-08-31T09:15:45Z</time>
      </trkpt>
      <trkpt lat="42.69478" lon="1.39614">
        <ele>2058.489</ele>
        <time>2024-08-31T09:15:47Z</time>
      </trkpt>
      <trkpt lat="42.69477" lon="1.39614">
        <ele>2058.402</ele>
        <time>2024-08-31T09:15:49Z</time>
      </trkpt>
      <trkpt lat="42.69477" lon="1.39614">
        <ele>2059.037</ele>
        <time>2024-08-31T09:15:51Z</time>
      </trkpt>
      <trkpt lat="42.69476" lon="1.39614">
        <ele>2059.928</ele>
        <time>2024-08-31T09:15:53Z</time>
      </trkpt>
      <trkpt lat="42.69475" lon="1.39614">
        <ele>2059.762</ele>
        <time>2024-08-31T09:15:55Z</time>
      </trkpt>
      <trkpt lat="42.69474" lon="1.39614">
        <ele>2060.293</ele>
        <time>2024-08-31T09:15:57Z</time>
      </trkpt>
      <trkpt lat="42.69473" lon="1.39614">
        <ele>2060.359</ele>
        <time>2024-08-31T09:15:59Z</time>
      </trkpt>
      <trkpt lat="42.69472" lon="1.39613">
        <ele>2060.604</ele>
        <time>2024-08-31T09:16:01Z</time>
      </trkpt>
      <trkpt lat="42.69472" lon="1.39613">
        <ele>2060.5</ele>
        <time>2024-08-31T09:16:03Z</time>
      </trkpt>
      <trkpt lat="42.69471" lon="1.39612">
        <ele>2061.567</ele>
        <time>2024-08-31T09:16:05Z</time>
      </trkpt>
      <trkpt lat="42.69471" lon="1.39611">
        <ele>2061.99</ele>
        <time>2024-08-31T09:16:07Z</time>
      </trkpt>
      <trkpt lat="42.6947" lon="1.3961">
        <ele>2061.987</ele>
        <time>2024-08-31T09:16:09Z</time>
      </trkpt>
      <trkpt lat="42.6947" lon="1.3961">
        <ele>2061.881</ele>
        <time>2024-08-31T09:16:11Z</time>
      </trkpt>
      <trkpt lat="42.69469" lon="1.39609">
        <ele>2061.566</ele>
        <time>2024-08-31T09:16:13Z</time>
      </trkpt>
      <trkpt lat="42.69469" lon="1.39609">
        <ele>2061.415</ele>
        <time>2024-08-31T09:16:15Z</time>
      </trkpt>
      <trkpt lat="42.69468" lon="1.39608">
        <ele>2061.608</ele>
        <time>2024-08-31T09:16:17Z</time>
      </trkpt>
      <trkpt lat="42.69468" lon="1.39606">
        <ele>2062.298</ele>
        <time>2024-08-31T09:16:19Z</time>
      </trkpt>
      <trkpt lat="42.69468" lon="1.39605">
        <ele>2061.929</ele>
        <time>2024-08-31T09:16:21Z</time>
      </trkpt>
      <trkpt lat="42.69468" lon="1.39603">
        <ele>2062.253</ele>
        <time>2024-08-31T09:16:23Z</time>
      </trkpt>
      <trkpt lat="42.69468" lon="1.39602">
        <ele>2062.762</ele>
        <time>2024-08-31T09:16:25Z</time>
      </trkpt>
      <trkpt lat="42.69468" lon="1.39601">
        <ele>2064.021</ele>
        <time>2024-08-31T09:16:27Z</time>
      </trkpt>
      <trkpt lat="42.69468" lon="1.39599">
        <ele>2065.065</ele>
        <time>2024-08-31T09:16:29Z</time>
      </trkpt>
      <trkpt lat="42.69467" lon="1.396">
        <ele>2065.975</ele>
        <time>2024-08-31T09:16:31Z</time>
      </trkpt>
      <trkpt lat="42.69467" lon="1.396">
        <ele>2066.488</ele>
        <time>2024-08-31T09:16:33Z</time>
      </trkpt>
      <trkpt lat="42.69466" lon="1.396">
        <ele>2066.214</ele>
        <time>2024-08-31T09:16:35Z</time>
      </trkpt>
      <trkpt lat="42.69466" lon="1.39599">
        <ele>2066.116</ele>
        <time>2024-08-31T09:16:37Z</time>
      </trkpt>
      <trkpt lat="42.69466" lon="1.39597">
        <ele>2067.14</ele>
        <time>2024-08-31T09:16:39Z</time>
      </trkpt>
      <trkpt lat="42.69466" lon="1.39596">
        <ele>2067.369</ele>
        <time>2024-08-31T09:16:41Z</time>
      </trkpt>
      <trkpt lat="42.69465" lon="1.39594">
        <ele>2068.265</ele>
        <time>2024-08-31T09:16:43Z</time>
      </trkpt>
      <trkpt lat="42.69464" lon="1.39594">
        <ele>2068.623</ele>
        <time>2024-08-31T09:16:45Z</time>
      </trkpt>
      <trkpt lat="42.69464" lon="1.39594">
        <ele>2069.921</ele>
        <time>2024-08-31T09:16:47Z</time>
      </trkpt>
      <trkpt lat="42.69464" lon="1.39594">
        <ele>2069.482</ele>
        <time>2024-08-31T09:16:49Z</time>
      </trkpt>
      <trkpt lat="42.69464" lon="1.39594">
        <ele>2070.564</ele>
        <time>2024-08-31T09:16:51Z</time>
      </trkpt>
      <trkpt lat="42.69464" lon="1.39594">
        <ele>2070.31</ele>
        <time>2024-08-31T09:16:53Z</time>
      </trkpt>
      <trkpt lat="42.69464" lon="1.39594">
        <ele>2070.813</ele>
        <time>2024-08-31T09:16:55Z</time>
      </trkpt>
      <trkpt lat="42.69464" lon="1.39594">
        <ele>2071.927</ele>
        <time>2024-08-31T09:16:57Z</time>
      </trkpt>
      <trkpt lat="42.69464" lon="1.39594">
        <ele>2072.581</ele>
        <time>2024-08-31T09:16:59Z</time>
      </trkpt>
      <trkpt lat="42.69464" lon="1.39594">
        <ele>2071.911</ele>
        <time>2024-08-31T09:17:01Z</time>
      </trkpt>
      <trkpt lat="42.69464" lon="1.39594">
        <ele>2072.409</ele>
        <time>2024-08-31T09:17:03Z</time>
      </trkpt>
      <trkpt lat="42.69464" lon="1.39594">
        <ele>2072.279</ele>
        <time>2024-08-31T09:17:05Z</time>
      </trkpt>
      <trkpt lat="42.69464" lon="1.39594">
        <ele>2072.475</ele>
        <time>2024-08-31T09:17:07Z</time>
      </trkpt>
      <trkpt lat="42.69464" lon="1.39594">
        <ele>2073.013</ele>
        <time>2024-08-31T09:17:09Z</time>
      </trkpt>
      <trkpt lat="42.69464" lon="1.39594">
        <ele>2073.539</ele>
        <time>2024-08-31T09:17:11Z</time>
      </trkpt>
      <trkpt lat="42.69464" lon="1.39594">
        <ele>2073.743</ele>
        <time>2024-08-31T09:17:13Z</time>
      </trkpt>
      <trkpt lat="42.69464" lon="1.39594">
        <ele>2073.596</ele>
        <time>2024-08-31T09:17:15Z</time>
      </trkpt>
      <trkpt lat="42.69464" lon="1.39594">
        <ele>2073.977</ele>
        <time>2024-08-31T09:17:17Z</time>
      </trkpt>
      <trkpt lat="42.69464" lon="1.39594">
        <ele>2074.294</ele>
        <time>2024-08-31T09:17:19Z</time>
      </trkpt>
      <trkpt lat="42.69464" lon="1.39594">
        <ele>2074.511</ele>
        <time>2024-08-31T09:17:21Z</time>
      </trkpt>
      <trkpt lat="42.69464" lon="1.39594">
        <ele>2075.04</ele>
        <time>2024-08-31T09:17:23Z</time>
      </trkpt>
      <trkpt lat="42.69464" lon="1.39594">
        <ele>2075.519</ele>
        <time>2024-08-31T09:17:25Z</time>
      </trkpt>
      <trkpt lat="42.69464" lon="1.39594">
        <ele>2075.348</ele>
        <time>2024-08-31T09:17:27Z</time>
      </trkpt>
      <trkpt lat="42.69464" lon="1.39594">
        <ele>2076.083</ele>
        <time>2024-08-31T09:17:29Z</time>
      </trkpt>
      <trkpt lat="42.69452" lon="1.39587">
        <ele>2076.373</ele>
        <time>2024-08-31T09:17:31Z</time>
      </trkpt>
      <trkpt lat="42.69452" lon="1.39587">
        <ele>2076.902</ele>
        <time>2024-08-31T09:17:33Z</time>
      </trkpt>
      <trkpt lat="42.69452" lon="1.39586">
        <ele>2077.563</ele>
        <time>2024-08-31T09:17:35Z</time>
      </trkpt>
      <trkpt lat="42.69452" lon="1.39585">
        <ele>2079.512</ele>
        <time>2024-08-31T09:17:37Z</time>
      </trkpt>
      <trkpt lat="42.69451" lon="1.39584">
        <ele>2079.311</ele>
        <time>2024-08-31T09:17:39Z</time>
      </trkpt>
      <trkpt lat="42.6945" lon="1.39584">
        <ele>2079.419</ele>
        <time>2024-08-31T09:17:41Z</time>
      </trkpt>
      <trkpt lat="42.69449" lon="1.39584">
        <ele>2079.959</ele>
        <time>2024-08-31T09:17:43Z</time>
      </trkpt>
      <trkpt lat="42.69449" lon="1.39584">
        <ele>2080.776</ele>
        <time>2024-08-31T09:17:45Z</time>
      </trkpt>
      <trkpt lat="42.69448" lon="1.39585">
        <ele>2080.653</ele>
        <time>2024-08-31T09:17:47Z</time>
      </trkpt>
      <trkpt lat="42.69447" lon="1.39586">
        <ele>2080.733</ele>
        <time>2024-08-31T09:17:49Z</time>
      </trkpt>
      <trkpt lat="42.69446" lon="1.39585">
        <ele>2081.303</ele>
        <time>2024-08-31T09:17:51Z</time>
      </trkpt>
      <trkpt lat="42.69445" lon="1.39584">
        <ele>2081.077</ele>
        <time>2024-08-31T09:17:53Z</time>
      </trkpt>
      <trkpt lat="42.69444" lon="1.39585">
        <ele>2080.766</ele>
        <time>2024-08-31T09:17:55Z</time>
      </trkpt>
      <trkpt lat="42.69443" lon="1.39585">
        <ele>2081.179</ele>
        <time>2024-08-31T09:17:57Z</time>
      </trkpt>
      <trkpt lat="42.69442" lon="1.39586">
        <ele>2080.841</ele>
        <time>2024-08-31T09:17:59Z</time>
      </trkpt>
      <trkpt lat="42.69441" lon="1.39586">
        <ele>2081.126</ele>
        <time>2024-08-31T09:18:01Z</time>
      </trkpt>
      <trkpt lat="42.6944" lon="1.39586">
        <ele>2081.041</ele>
        <time>2024-08-31T09:18:03Z</time>
      </trkpt>
      <trkpt lat="42.6944" lon="1.39587">
        <ele>2081.441</ele>
        <time>2024-08-31T09:18:05Z</time>
      </trkpt>
      <trkpt lat="42.69439" lon="1.39588">
        <ele>2081.602</ele>
        <time>2024-08-31T09:18:07Z</time>
      </trkpt>
      <trkpt lat="42.69438" lon="1.39589">
        <ele>2081.777</ele>
        <time>2024-08-31T09:18:09Z</time>
      </trkpt>
      <trkpt lat="42.69437" lon="1.3959">
        <ele>2081.48</ele>
        <time>2024-08-31T09:18:11Z</time>
      </trkpt>
      <trkpt lat="42.69437" lon="1.3959">
        <ele>2081.497</ele>
        <time>2024-08-31T09:18:13Z</time>
      </trkpt>
      <trkpt lat="42.69436" lon="1.39592">
        <ele>2082.294</ele>
        <time>2024-08-31T09:18:15Z</time>
      </trkpt>
      <trkpt lat="42.69435" lon="1.39594">
        <ele>2082.024</ele>
        <time>2024-08-31T09:18:17Z</time>
      </trkpt>
      <trkpt lat="42.69435" lon="1.39595">
        <ele>2082.69</ele>
        <time>2024-08-31T09:18:19Z</time>
      </trkpt>
      <trkpt lat="42.69435" lon="1.39596">
        <ele>2082.315</ele>
        <time>2024-08-31T09:18:21Z</time>
      </trkpt>
      <trkpt lat="42.69434" lon="1.39596">
        <ele>2082.756</ele>
        <time>2024-08-31T09:18:23Z</time>
      </trkpt>
      <trkpt lat="42.69432" lon="1.39597">
        <ele>2083.172</ele>
        <time>2024-08-31T09:18:25Z</time>
      </trkpt>
      <trkpt lat="42.69432" lon="1.39598">
        <ele>2083.024</ele>
        <time>2024-08-31T09:18:27Z</time>
      </trkpt>
      <trkpt lat="42.6943" lon="1.39598">
        <ele>2082.99</ele>
        <time>2024-08-31T09:18:29Z</time>
      </trkpt>
      <trkpt lat="42.69429" lon="1.39598">
        <ele>2082.264</ele>
        <time>2024-08-31T09:18:31Z</time>
      </trkpt>
      <trkpt lat="42.69428" lon="1.39597">
        <ele>2082.659</ele>
        <time>2024-08-31T09:18:33Z</time>
      </trkpt>
      <trkpt lat="42.69427" lon="1.39597">
        <ele>2083.203</ele>
        <time>2024-08-31T09:18:35Z</time>
      </trkpt>
      <trkpt lat="42.69426" lon="1.39597">
        <ele>2083.875</ele>
        <time>2024-08-31T09:18:37Z</time>
      </trkpt>
      <trkpt lat="42.69425" lon="1.39598">
        <ele>2084.544</ele>
        <time>2024-08-31T09:18:39Z</time>
      </trkpt>
      <trkpt lat="42.69424" lon="1.396">
        <ele>2084.313</ele>
        <time>2024-08-31T09:18:41Z</time>
      </trkpt>
      <trkpt lat="42.69424" lon="1.39601">
        <ele>2084.816</ele>
        <time>2024-08-31T09:18:43Z</time>
      </trkpt>
      <trkpt lat="42.69423" lon="1.39602">
        <ele>2086.594</ele>
        <time>2024-08-31T09:18:45Z</time>
      </trkpt>
      <trkpt lat="42.69423" lon="1.39604">
        <ele>2086.763</ele>
        <time>2024-08-31T09:18:47Z</time>
      </trkpt>
      <trkpt lat="42.69422" lon="1.39606">
        <ele>2086.15</ele>
        <time>2024-08-31T09:18:49Z</time>
      </trkpt>
      <trkpt lat="42.69422" lon="1.39607">
        <ele>2085.888</ele>
        <time>2024-08-31T09:18:51Z</time>
      </trkpt>
      <trkpt lat="42.69422" lon="1.39608">
        <ele>2085.874</ele>
        <time>2024-08-31T09:18:53Z</time>
      </trkpt>
      <trkpt lat="42.69421" lon="1.39609">
        <ele>2085.257</ele>
        <time>2024-08-31T09:18:55Z</time>
      </trkpt>
      <trkpt lat="42.6942" lon="1.39609">
        <ele>2085.983</ele>
        <time>2024-08-31T09:18:57Z</time>
      </trkpt>
      <trkpt lat="42.69419" lon="1.39609">
        <ele>2086.754</ele>
        <time>2024-08-31T09:18:59Z</time>
      </trkpt>
      <trkpt lat="42.69418" lon="1.3961">
        <ele>2087.25</ele>
        <time>2024-08-31T09:19:01Z</time>
      </trkpt>
      <trkpt lat="42.69416" lon="1.3961">
        <ele>2086.944</ele>
        <time>2024-08-31T09:19:03Z</time>
      </trkpt>
      <trkpt lat="42.69416" lon="1.3961">
        <ele>2087.346</ele>
        <time>2024-08-31T09:19:05Z</time>
      </trkpt>
      <trkpt lat="42.69415" lon="1.3961">
        <ele>2087.491</ele>
        <time>2024-08-31T09:19:07Z</time>
      </trkpt>
      <trkpt lat="42.69413" lon="1.3961">
        <ele>2088.827</ele>
        <time>2024-08-31T09:19:09Z</time>
      </trkpt>
      <trkpt lat="42.69412" lon="1.3961">
        <ele>2088.9</ele>
        <time>2024-08-31T09:19:11Z</time>
      </trkpt>
      <trkpt lat="42.69412" lon="1.39609">
        <ele>2088.437</ele>
        <time>2024-08-31T09:19:13Z</time>
      </trkpt>
      <trkpt lat="42.6941" lon="1.39609">
        <ele>2088.119</ele>
        <time>2024-08-31T09:19:15Z</time>
      </trkpt>
      <trkpt lat="42.69409" lon="1.3961">
        <ele>2088.76</ele>
        <time>2024-08-31T09:19:17Z</time>
      </trkpt>
      <trkpt lat="42.69409" lon="1.39611">
        <ele>2088.958</ele>
        <time>2024-08-31T09:19:19Z</time>
      </trkpt>
      <trkpt lat="42.69408" lon="1.39612">
        <ele>2089.552</ele>
        <time>2024-08-31T09:19:21Z</time>
      </trkpt>
      <trkpt lat="42.69408" lon="1.39613">
        <ele>2090.174</ele>
        <time>2024-08-31T09:19:23Z</time>
      </trkpt>
      <trkpt lat="42.69407" lon="1.39614">
        <ele>2090.722</ele>
        <time>2024-08-31T09:19:25Z</time>
      </trkpt>
      <trkpt lat="42.69406" lon="1.39615">
        <ele>2091.561</ele>
        <time>2024-08-31T09:19:27Z</time>
      </trkpt>
      <trkpt lat="42.69405" lon="1.39614">
        <ele>2091.897</ele>
        <time>2024-08-31T09:19:29Z</time>
      </trkpt>
      <trkpt lat="42.69404" lon="1.39614">
        <ele>2091.923</ele>
        <time>2024-08-31T09:19:31Z</time>
      </trkpt>
      <trkpt lat="42.69403" lon="1.39613">
        <ele>2092.611</ele>
        <time>2024-08-31T09:19:33Z</time>
      </trkpt>
      <trkpt lat="42.69402" lon="1.39613">
        <ele>2093.207</ele>
        <time>2024-08-31T09:19:35Z</time>
      </trkpt>
      <trkpt lat="42.694" lon="1.39614">
        <ele>2093.174</ele>
        <time>2024-08-31T09:19:37Z</time>
      </trkpt>
      <trkpt lat="42.694" lon="1.39613">
        <ele>2093.556</ele>
        <time>2024-08-31T09:19:39Z</time>
      </trkpt>
      <trkpt lat="42.69399" lon="1.39613">
        <ele>2093.191</ele>
        <time>2024-08-31T09:19:41Z</time>
      </trkpt>
      <trkpt lat="42.69399" lon="1.39613">
        <ele>2093.23</ele>
        <time>2024-08-31T09:19:43Z</time>
      </trkpt>
      <trkpt lat="42.69398" lon="1.39612">
        <ele>2093.807</ele>
        <time>2024-08-31T09:19:45Z</time>
      </trkpt>
      <trkpt lat="42.69397" lon="1.39612">
        <ele>2093.877</ele>
        <time>2024-08-31T09:19:47Z</time>
      </trkpt>
      <trkpt lat="42.69396" lon="1.39612">
        <ele>2094.192</ele>
        <time>2024-08-31T09:19:49Z</time>
      </trkpt>
      <trkpt lat="42.69396" lon="1.39613">
        <ele>2093.867</ele>
        <time>2024-08-31T09:19:51Z</time>
      </trkpt>
      <trkpt lat="42.69395" lon="1.39613">
        <ele>2094.098</ele>
        <time>2024-08-31T09:19:53Z</time>
      </trkpt>
      <trkpt lat="42.69395" lon="1.39613">
        <ele>2095.253</ele>
        <time>2024-08-31T09:19:55Z</time>
      </trkpt>
      <trkpt lat="42.69394" lon="1.39612">
        <ele>2095.137</ele>
        <time>2024-08-31T09:19:57Z</time>
      </trkpt>
      <trkpt lat="42.69393" lon="1.39612">
        <ele>2095.379</ele>
        <time>2024-08-31T09:19:59Z</time>
      </trkpt>
      <trkpt lat="42.69393" lon="1.39612">
        <ele>2095.676</ele>
        <time>2024-08-31T09:20:01Z</time>
      </trkpt>
      <trkpt lat="42.69392" lon="1.39613">
        <ele>2095.285</ele>
        <time>2024-08-31T09:20:03Z</time>
      </trkpt>
      <trkpt lat="42.69392" lon="1.39614">
        <ele>2095.671</ele>
        <time>2024-08-31T09:20:05Z</time>
      </trkpt>
      <trkpt lat="42.69391" lon="1.39615">
        <ele>2095.85</ele>
        <time>2024-08-31T09:20:07Z</time>
      </trkpt>
      <trkpt lat="42.69391" lon="1.39616">
        <ele>2096.654</ele>
        <time>2024-08-31T09:20:09Z</time>
      </trkpt>
      <trkpt lat="42.69391" lon="1.39617">
        <ele>2097.731</ele>
        <time>2024-08-31T09:20:11Z</time>
      </trkpt>
      <trkpt lat="42.6939" lon="1.39618">
        <ele>2098.079</ele>
        <time>2024-08-31T09:20:13Z</time>
      </trkpt>
      <trkpt lat="42.69389" lon="1.39618">
        <ele>2097.576</ele>
        <time>2024-08-31T09:20:15Z</time>
      </trkpt>
      <trkpt lat="42.69389" lon="1.39619">
        <ele>2097.939</ele>
        <time>2024-08-31T09:20:17Z</time>
      </trkpt>
      <trkpt lat="42.69389" lon="1.39619">
        <ele>2097.584</ele>
        <time>2024-08-31T09:20:19Z</time>
      </trkpt>
      <trkpt lat="42.69388" lon="1.39619">
        <ele>2097.493</ele>
        <time>2024-08-31T09:20:21Z</time>
      </trkpt>
      <trkpt lat="42.69388" lon="1.39619">
        <ele>2097.624</ele>
        <time>2024-08-31T09:20:23Z</time>
      </trkpt>
      <trkpt lat="42.69387" lon="1.3962">
        <ele>2097.978</ele>
        <time>2024-08-31T09:20:25Z</time>
      </trkpt>
      <trkpt lat="42.69386" lon="1.39621">
        <ele>2098.614</ele>
        <time>2024-08-31T09:20:27Z</time>
      </trkpt>
      <trkpt lat="42.69385" lon="1.39622">
        <ele>2098.795</ele>
        <time>2024-08-31T09:20:29Z</time>
      </trkpt>
      <trkpt lat="42.69384" lon="1.39623">
        <ele>2099.764</ele>
        <time>2024-08-31T09:20:31Z</time>
      </trkpt>
      <trkpt lat="42.69383" lon="1.39624">
        <ele>2100.522</ele>
        <time>2024-08-31T09:20:33Z</time>
      </trkpt>
      <trkpt lat="42.69383" lon="1.39625">
        <ele>2100.941</ele>
        <time>2024-08-31T09:20:35Z</time>
      </trkpt>
      <trkpt lat="42.69382" lon="1.39625">
        <ele>2100.485</ele>
        <time>2024-08-31T09:20:37Z</time>
      </trkpt>
      <trkpt lat="42.69382" lon="1.39625">
        <ele>2100.551</ele>
        <time>2024-08-31T09:20:39Z</time>
      </trkpt>
      <trkpt lat="42.69382" lon="1.39625">
        <ele>2100.478</ele>
        <time>2024-08-31T09:20:41Z</time>
      </trkpt>
      <trkpt lat="42.69382" lon="1.39625">
        <ele>2100.471</ele>
        <time>2024-08-31T09:20:43Z</time>
      </trkpt>
      <trkpt lat="42.69382" lon="1.39625">
        <ele>2100.473</ele>
        <time>2024-08-31T09:20:45Z</time>
      </trkpt>
      <trkpt lat="42.69382" lon="1.39625">
        <ele>2100.469</ele>
        <time>2024-08-31T09:20:47Z</time>
      </trkpt>
      <trkpt lat="42.69382" lon="1.39625">
        <ele>2100.471</ele>
        <time>2024-08-31T09:20:49Z</time>
      </trkpt>
      <trkpt lat="42.69382" lon="1.39625">
        <ele>2100.472</ele>
        <time>2024-08-31T09:20:51Z</time>
      </trkpt>
      <trkpt lat="42.69382" lon="1.39625">
        <ele>2100.472</ele>
        <time>2024-08-31T09:20:53Z</time>
      </trkpt>
      <trkpt lat="42.69382" lon="1.39625">
        <ele>2100.478</ele>
        <time>2024-08-31T09:20:55Z</time>
      </trkpt>
      <trkpt lat="42.69382" lon="1.39625">
        <ele>2100.489</ele>
        <time>2024-08-31T09:20:57Z</time>
      </trkpt>
      <trkpt lat="42.69382" lon="1.39625">
        <ele>2100.485</ele>
        <time>2024-08-31T09:20:59Z</time>
      </trkpt>
      <trkpt lat="42.69382" lon="1.39625">
        <ele>2100.484</ele>
        <time>2024-08-31T09:21:01Z</time>
      </trkpt>
      <trkpt lat="42.69382" lon="1.39625">
        <ele>2100.479</ele>
        <time>2024-08-31T09:21:03Z</time>
      </trkpt>
      <trkpt lat="42.69382" lon="1.39625">
        <ele>2100.481</ele>
        <time>2024-08-31T09:21:05Z</time>
      </trkpt>
      <trkpt lat="42.69382" lon="1.39625">
        <ele>2100.482</ele>
        <time>2024-08-31T09:21:07Z</time>
      </trkpt>
      <trkpt lat="42.69382" lon="1.39625">
        <ele>2100.48</ele>
        <time>2024-08-31T09:21:09Z</time>
      </trkpt>
      <trkpt lat="42.69381" lon="1.39625">
        <ele>2100.587</ele>
        <time>2024-08-31T09:21:11Z</time>
      </trkpt>
      <trkpt lat="42.69381" lon="1.39625">
        <ele>2100.592</ele>
        <time>2024-08-31T09:21:13Z</time>
      </trkpt>
      <trkpt lat="42.69381" lon="1.39625">
        <ele>2100.598</ele>
        <time>2024-08-31T09:21:15Z</time>
      </trkpt>
      <trkpt lat="42.69381" lon="1.39625">
        <ele>2100.599</ele>
        <time>2024-08-31T09:21:17Z</time>
      </trkpt>
      <trkpt lat="42.69381" lon="1.39625">
        <ele>2100.594</ele>
        <time>2024-08-31T09:21:19Z</time>
      </trkpt>
      <trkpt lat="42.69381" lon="1.39625">
        <ele>2100.59</ele>
        <time>2024-08-31T09:21:21Z</time>
      </trkpt>
      <trkpt lat="42.69381" lon="1.39625">
        <ele>2100.577</ele>
        <time>2024-08-31T09:21:23Z</time>
      </trkpt>
      <trkpt lat="42.69381" lon="1.39625">
        <ele>2100.582</ele>
        <time>2024-08-31T09:21:25Z</time>
      </trkpt>
      <trkpt lat="42.69381" lon="1.39625">
        <ele>2100.585</ele>
        <time>2024-08-31T09:21:27Z</time>
      </trkpt>
      <trkpt lat="42.69381" lon="1.39625">
        <ele>2100.587</ele>
        <time>2024-08-31T09:21:29Z</time>
      </trkpt>
      <trkpt lat="42.69381" lon="1.39625">
        <ele>2100.595</ele>
        <time>2024-08-31T09:21:31Z</time>
      </trkpt>
      <trkpt lat="42.69381" lon="1.39625">
        <ele>2100.589</ele>
        <time>2024-08-31T09:21:33Z</time>
      </trkpt>
      <trkpt lat="42.69381" lon="1.39625">
        <ele>2100.595</ele>
        <time>2024-08-31T09:21:35Z</time>
      </trkpt>
      <trkpt lat="42.69381" lon="1.39625">
        <ele>2100.597</ele>
        <time>2024-08-31T09:21:37Z</time>
      </trkpt>
      <trkpt lat="42.69381" lon="1.39625">
        <ele>2100.599</ele>
        <time>2024-08-31T09:21:39Z</time>
      </trkpt>
      <trkpt lat="42.69381" lon="1.39625">
        <ele>2100.6</ele>
        <time>2024-08-31T09:21:41Z</time>
      </trkpt>
      <trkpt lat="42.69381" lon="1.39625">
        <ele>2100.599</ele>
        <time>2024-08-31T09:21:43Z</time>
      </trkpt>
      <trkpt lat="42.69381" lon="1.39625">
        <ele>2100.599</ele>
        <time>2024-08-31T09:21:45Z</time>
      </trkpt>
      <trkpt lat="42.69381" lon="1.39625">
        <ele>2100.592</ele>
        <time>2024-08-31T09:21:47Z</time>
      </trkpt>
      <trkpt lat="42.69381" lon="1.39625">
        <ele>2100.594</ele>
        <time>2024-08-31T09:21:49Z</time>
      </trkpt>
      <trkpt lat="42.69381" lon="1.39625">
        <ele>2100.59</ele>
        <time>2024-08-31T09:21:51Z</time>
      </trkpt>
      <trkpt lat="42.69381" lon="1.39625">
        <ele>2100.589</ele>
        <time>2024-08-31T09:21:53Z</time>
      </trkpt>
      <trkpt lat="42.69381" lon="1.39625">
        <ele>2100.59</ele>
        <time>2024-08-31T09:21:55Z</time>
      </trkpt>
      <trkpt lat="42.69381" lon="1.39625">
        <ele>2100.596</ele>
        <time>2024-08-31T09:21:57Z</time>
      </trkpt>
      <trkpt lat="42.69381" lon="1.39625">
        <ele>2100.604</ele>
        <time>2024-08-31T09:21:59Z</time>
      </trkpt>
      <trkpt lat="42.69381" lon="1.39625">
        <ele>2100.615</ele>
        <time>2024-08-31T09:22:01Z</time>
      </trkpt>
      <trkpt lat="42.69381" lon="1.39625">
        <ele>2100.608</ele>
        <time>2024-08-31T09:22:03Z</time>
      </trkpt>
      <trkpt lat="42.69381" lon="1.39625">
        <ele>2100.616</ele>
        <time>2024-08-31T09:22:05Z</time>
      </trkpt>
      <trkpt lat="42.69381" lon="1.39625">
        <ele>2100.618</ele>
        <time>2024-08-31T09:22:07Z</time>
      </trkpt>
      <trkpt lat="42.69381" lon="1.39625">
        <ele>2100.634</ele>
        <time>2024-08-31T09:22:09Z</time>
      </trkpt>
      <trkpt lat="42.69381" lon="1.39625">
        <ele>2100.63</ele>
        <time>2024-08-31T09:22:11Z</time>
      </trkpt>
      <trkpt lat="42.69381" lon="1.39625">
        <ele>2100.623</ele>
        <time>2024-08-31T09:22:13Z</time>
      </trkpt>
      <trkpt lat="42.69381" lon="1.39625">
        <ele>2100.635</ele>
        <time>2024-08-31T09:22:15Z</time>
      </trkpt>
      <trkpt lat="42.69381" lon="1.39625">
        <ele>2100.628</ele>
        <time>2024-08-31T09:22:17Z</time>
      </trkpt>
      <trkpt lat="42.69381" lon="1.39625">
        <ele>2100.62</ele>
        <time>2024-08-31T09:22:19Z</time>
      </trkpt>
      <trkpt lat="42.69381" lon="1.39625">
        <ele>2100.616</ele>
        <time>2024-08-31T09:22:21Z</time>
      </trkpt>
      <trkpt lat="42.69381" lon="1.39625">
        <ele>2100.61</ele>
        <time>2024-08-31T09:22:23Z</time>
      </trkpt>
      <trkpt lat="42.69381" lon="1.39625">
        <ele>2100.61</ele>
        <time>2024-08-31T09:22:25Z</time>
      </trkpt>
      <trkpt lat="42.69381" lon="1.39625">
        <ele>2100.608</ele>
        <time>2024-08-31T09:22:27Z</time>
      </trkpt>
      <trkpt lat="42.69381" lon="1.39625">
        <ele>2100.606</ele>
        <time>2024-08-31T09:22:29Z</time>
      </trkpt>
      <trkpt lat="42.69381" lon="1.39625">
        <ele>2100.607</ele>
        <time>2024-08-31T09:22:31Z</time>
      </trkpt>
      <trkpt lat="42.69381" lon="1.39625">
        <ele>2100.603</ele>
        <time>2024-08-31T09:22:33Z</time>
      </trkpt>
      <trkpt lat="42.69381" lon="1.39625">
        <ele>2100.504</ele>
        <time>2024-08-31T09:22:35Z</time>
      </trkpt>
      <trkpt lat="42.69381" lon="1.39625">
        <ele>2100.447</ele>
        <time>2024-08-31T09:22:37Z</time>
      </trkpt>
      <trkpt lat="42.69381" lon="1.39625">
        <ele>2100.448</ele>
        <time>2024-08-31T09:22:39Z</time>
      </trkpt>
      <trkpt lat="42.69381" lon="1.39625">
        <ele>2100.444</ele>
        <time>2024-08-31T09:22:41Z</time>
      </trkpt>
      <trkpt lat="42.69381" lon="1.39625">
        <ele>2100.445</ele>
        <time>2024-08-31T09:22:43Z</time>
      </trkpt>
      <trkpt lat="42.69381" lon="1.39625">
        <ele>2100.445</ele>
        <time>2024-08-31T09:22:45Z</time>
      </trkpt>
      <trkpt lat="42.69381" lon="1.39625">
        <ele>2100.861</ele>
        <time>2024-08-31T09:22:47Z</time>
      </trkpt>
      <trkpt lat="42.69381" lon="1.39625">
        <ele>2100.847</ele>
        <time>2024-08-31T09:22:49Z</time>
      </trkpt>
      <trkpt lat="42.69381" lon="1.39625">
        <ele>2100.845</ele>
        <time>2024-08-31T09:22:51Z</time>
      </trkpt>
      <trkpt lat="42.69381" lon="1.39625">
        <ele>2100.982</ele>
        <time>2024-08-31T09:22:53Z</time>
      </trkpt>
      <trkpt lat="42.69381" lon="1.39625">
        <ele>2100.985</ele>
        <time>2024-08-31T09:22:55Z</time>
      </trkpt>
      <trkpt lat="42.69381" lon="1.39625">
        <ele>2100.988</ele>
        <time>2024-08-31T09:22:57Z</time>
      </trkpt>
      <trkpt lat="42.69381" lon="1.39625">
        <ele>2101.019</ele>
        <time>2024-08-31T09:22:59Z</time>
      </trkpt>
      <trkpt lat="42.69381" lon="1.39625">
        <ele>2100.726</ele>
        <time>2024-08-31T09:23:01Z</time>
      </trkpt>
      <trkpt lat="42.69381" lon="1.39625">
        <ele>2100.729</ele>
        <time>2024-08-31T09:23:03Z</time>
      </trkpt>
      <trkpt lat="42.69381" lon="1.39625">
        <ele>2100.731</ele>
        <time>2024-08-31T09:23:05Z</time>
      </trkpt>
      <trkpt lat="42.69381" lon="1.39625">
        <ele>2100.849</ele>
        <time>2024-08-31T09:23:07Z</time>
      </trkpt>
      <trkpt lat="42.69381" lon="1.39625">
        <ele>2101.141</ele>
        <time>2024-08-31T09:23:09Z</time>
      </trkpt>
      <trkpt lat="42.69381" lon="1.39625">
        <ele>2101.354</ele>
        <time>2024-08-31T09:23:11Z</time>
      </trkpt>
      <trkpt lat="42.69381" lon="1.39625">
        <ele>2101.35</ele>
        <time>2024-08-31T09:23:13Z</time>
      </trkpt>
      <trkpt lat="42.69381" lon="1.39625">
        <ele>2101.351</ele>
        <time>2024-08-31T09:23:15Z</time>
      </trkpt>
      <trkpt lat="42.69381" lon="1.39625">
        <ele>2101.349</ele>
        <time>2024-08-31T09:23:17Z</time>
      </trkpt>
      <trkpt lat="42.69381" lon="1.39625">
        <ele>2101.349</ele>
        <time>2024-08-31T09:23:19Z</time>
      </trkpt>
      <trkpt lat="42.69381" lon="1.39625">
        <ele>2101.348</ele>
        <time>2024-08-31T09:23:21Z</time>
      </trkpt>
      <trkpt lat="42.69381" lon="1.39625">
        <ele>2101.349</ele>
        <time>2024-08-31T09:23:23Z</time>
      </trkpt>
      <trkpt lat="42.69381" lon="1.39625">
        <ele>2101.347</ele>
        <time>2024-08-31T09:23:25Z</time>
      </trkpt>
      <trkpt lat="42.69381" lon="1.39625">
        <ele>2101.348</ele>
        <time>2024-08-31T09:23:27Z</time>
      </trkpt>
      <trkpt lat="42.69381" lon="1.39625">
        <ele>2101.348</ele>
        <time>2024-08-31T09:23:29Z</time>
      </trkpt>
      <trkpt lat="42.69381" lon="1.39625">
        <ele>2101.343</ele>
        <time>2024-08-31T09:23:31Z</time>
      </trkpt>
      <trkpt lat="42.69381" lon="1.39625">
        <ele>2101.345</ele>
        <time>2024-08-31T09:23:33Z</time>
      </trkpt>
      <trkpt lat="42.69381" lon="1.39625">
        <ele>2101.349</ele>
        <time>2024-08-31T09:23:35Z</time>
      </trkpt>
      <trkpt lat="42.69381" lon="1.39625">
        <ele>2101.343</ele>
        <time>2024-08-31T09:23:37Z</time>
      </trkpt>
      <trkpt lat="42.69381" lon="1.39625">
        <ele>2101.339</ele>
        <time>2024-08-31T09:23:39Z</time>
      </trkpt>
      <trkpt lat="42.69381" lon="1.39625">
        <ele>2101.338</ele>
        <time>2024-08-31T09:23:41Z</time>
      </trkpt>
      <trkpt lat="42.69381" lon="1.39625">
        <ele>2101.34</ele>
        <time>2024-08-31T09:23:43Z</time>
      </trkpt>
      <trkpt lat="42.69381" lon="1.39625">
        <ele>2101.346</ele>
        <time>2024-08-31T09:23:45Z</time>
      </trkpt>
      <trkpt lat="42.69381" lon="1.39625">
        <ele>2101.345</ele>
        <time>2024-08-31T09:23:47Z</time>
      </trkpt>
      <trkpt lat="42.69381" lon="1.39625">
        <ele>2101.345</ele>
        <time>2024-08-31T09:23:49Z</time>
      </trkpt>
      <trkpt lat="42.69381" lon="1.39625">
        <ele>2101.351</ele>
        <time>2024-08-31T09:23:51Z</time>
      </trkpt>
      <trkpt lat="42.69381" lon="1.39625">
        <ele>2101.342</ele>
        <time>2024-08-31T09:23:53Z</time>
      </trkpt>
      <trkpt lat="42.69381" lon="1.39625">
        <ele>2101.327</ele>
        <time>2024-08-31T09:23:55Z</time>
      </trkpt>
      <trkpt lat="42.69381" lon="1.39625">
        <ele>2101.322</ele>
        <time>2024-08-31T09:23:57Z</time>
      </trkpt>
      <trkpt lat="42.69381" lon="1.39625">
        <ele>2101.322</ele>
        <time>2024-08-31T09:23:59Z</time>
      </trkpt>
      <trkpt lat="42.69381" lon="1.39625">
        <ele>2101.328</ele>
        <time>2024-08-31T09:24:01Z</time>
      </trkpt>
      <trkpt lat="42.69381" lon="1.39625">
        <ele>2101.332</ele>
        <time>2024-08-31T09:24:03Z</time>
      </trkpt>
      <trkpt lat="42.69381" lon="1.39625">
        <ele>2101.331</ele>
        <time>2024-08-31T09:24:05Z</time>
      </trkpt>
      <trkpt lat="42.69381" lon="1.39625">
        <ele>2101.333</ele>
        <time>2024-08-31T09:24:07Z</time>
      </trkpt>
      <trkpt lat="42.69381" lon="1.39625">
        <ele>2101.331</ele>
        <time>2024-08-31T09:24:09Z</time>
      </trkpt>
      <trkpt lat="42.69381" lon="1.39625">
        <ele>2101.326</ele>
        <time>2024-08-31T09:24:11Z</time>
      </trkpt>
      <trkpt lat="42.69381" lon="1.39625">
        <ele>2101.326</ele>
        <time>2024-08-31T09:24:13Z</time>
      </trkpt>
      <trkpt lat="42.69381" lon="1.39625">
        <ele>2101.325</ele>
        <time>2024-08-31T09:24:15Z</time>
      </trkpt>
      <trkpt lat="42.69381" lon="1.39625">
        <ele>2101.331</ele>
        <time>2024-08-31T09:24:17Z</time>
      </trkpt>
      <trkpt lat="42.69381" lon="1.39625">
        <ele>2101.335</ele>
        <time>2024-08-31T09:24:19Z</time>
      </trkpt>
      <trkpt lat="42.69381" lon="1.39625">
        <ele>2101.327</ele>
        <time>2024-08-31T09:24:21Z</time>
      </trkpt>
      <trkpt lat="42.69381" lon="1.39625">
        <ele>2101.333</ele>
        <time>2024-08-31T09:24:23Z</time>
      </trkpt>
      <trkpt lat="42.69381" lon="1.39625">
        <ele>2101.321</ele>
        <time>2024-08-31T09:24:25Z</time>
      </trkpt>
      <trkpt lat="42.69381" lon="1.39625">
        <ele>2101.317</ele>
        <time>2024-08-31T09:24:27Z</time>
      </trkpt>
      <trkpt lat="42.69381" lon="1.39625">
        <ele>2101.326</ele>
        <time>2024-08-31T09:24:29Z</time>
      </trkpt>
      <trkpt lat="42.69381" lon="1.39625">
        <ele>2101.324</ele>
        <time>2024-08-31T09:24:31Z</time>
      </trkpt>
      <trkpt lat="42.69381" lon="1.39625">
        <ele>2101.322</ele>
        <time>2024-08-31T09:24:33Z</time>
      </trkpt>
      <trkpt lat="42.69381" lon="1.39625">
        <ele>2101.323</ele>
        <time>2024-08-31T09:24:35Z</time>
      </trkpt>
      <trkpt lat="42.69381" lon="1.39625">
        <ele>2101.327</ele>
        <time>2024-08-31T09:24:37Z</time>
      </trkpt>
      <trkpt lat="42.69381" lon="1.39625">
        <ele>2101.325</ele>
        <time>2024-08-31T09:24:39Z</time>
      </trkpt>
      <trkpt lat="42.69381" lon="1.39625">
        <ele>2101.32</ele>
        <time>2024-08-31T09:24:41Z</time>
      </trkpt>
      <trkpt lat="42.69381" lon="1.39625">
        <ele>2101.322</ele>
        <time>2024-08-31T09:24:43Z</time>
      </trkpt>
      <trkpt lat="42.69381" lon="1.39625">
        <ele>2101.316</ele>
        <time>2024-08-31T09:24:45Z</time>
      </trkpt>
      <trkpt lat="42.69381" lon="1.39625">
        <ele>2101.32</ele>
        <time>2024-08-31T09:24:47Z</time>
      </trkpt>
      <trkpt lat="42.69381" lon="1.39625">
        <ele>2101.318</ele>
        <time>2024-08-31T09:24:49Z</time>
      </trkpt>
      <trkpt lat="42.69381" lon="1.39625">
        <ele>2101.314</ele>
        <time>2024-08-31T09:24:51Z</time>
      </trkpt>
      <trkpt lat="42.69381" lon="1.39625">
        <ele>2101.128</ele>
        <time>2024-08-31T09:24:53Z</time>
      </trkpt>
      <trkpt lat="42.69381" lon="1.39625">
        <ele>2101.511</ele>
        <time>2024-08-31T09:24:55Z</time>
      </trkpt>
      <trkpt lat="42.69381" lon="1.39625">
        <ele>2101.513</ele>
        <time>2024-08-31T09:24:57Z</time>
      </trkpt>
      <trkpt lat="42.69381" lon="1.39625">
        <ele>2101.516</ele>
        <time>2024-08-31T09:24:59Z</time>
      </trkpt>
      <trkpt lat="42.69381" lon="1.39625">
        <ele>2101.517</ele>
        <time>2024-08-31T09:25:01Z</time>
      </trkpt>
      <trkpt lat="42.69381" lon="1.39625">
        <ele>2101.521</ele>
        <time>2024-08-31T09:25:03Z</time>
      </trkpt>
      <trkpt lat="42.69381" lon="1.39625">
        <ele>2101.519</ele>
        <time>2024-08-31T09:25:05Z</time>
      </trkpt>
      <trkpt lat="42.69381" lon="1.39625">
        <ele>2101.52</ele>
        <time>2024-08-31T09:25:07Z</time>
      </trkpt>
      <trkpt lat="42.69381" lon="1.39625">
        <ele>2101.525</ele>
        <time>2024-08-31T09:25:09Z</time>
      </trkpt>
      <trkpt lat="42.69381" lon="1.39625">
        <ele>2101.525</ele>
        <time>2024-08-31T09:25:11Z</time>
      </trkpt>
      <trkpt lat="42.69381" lon="1.39625">
        <ele>2101.523</ele>
        <time>2024-08-31T09:25:13Z</time>
      </trkpt>
      <trkpt lat="42.69381" lon="1.39625">
        <ele>2101.517</ele>
        <time>2024-08-31T09:25:15Z</time>
      </trkpt>
      <trkpt lat="42.69381" lon="1.39625">
        <ele>2101.516</ele>
        <time>2024-08-31T09:25:17Z</time>
      </trkpt>
      <trkpt lat="42.69381" lon="1.39625">
        <ele>2101.507</ele>
        <time>2024-08-31T09:25:19Z</time>
      </trkpt>
      <trkpt lat="42.69381" lon="1.39625">
        <ele>2101.505</ele>
        <time>2024-08-31T09:25:21Z</time>
      </trkpt>
      <trkpt lat="42.69381" lon="1.39625">
        <ele>2101.504</ele>
        <time>2024-08-31T09:25:23Z</time>
      </trkpt>
      <trkpt lat="42.69381" lon="1.39625">
        <ele>2101.503</ele>
        <time>2024-08-31T09:25:25Z</time>
      </trkpt>
      <trkpt lat="42.69381" lon="1.39625">
        <ele>2101.504</ele>
        <time>2024-08-31T09:25:27Z</time>
      </trkpt>
      <trkpt lat="42.69381" lon="1.39625">
        <ele>2101.507</ele>
        <time>2024-08-31T09:25:29Z</time>
      </trkpt>
      <trkpt lat="42.69381" lon="1.39625">
        <ele>2101.507</ele>
        <time>2024-08-31T09:25:31Z</time>
      </trkpt>
      <trkpt lat="42.69381" lon="1.39625">
        <ele>2101.507</ele>
        <time>2024-08-31T09:25:33Z</time>
      </trkpt>
      <trkpt lat="42.69381" lon="1.39625">
        <ele>2101.525</ele>
        <time>2024-08-31T09:25:35Z</time>
      </trkpt>
      <trkpt lat="42.69381" lon="1.39625">
        <ele>2101.827</ele>
        <time>2024-08-31T09:25:37Z</time>
      </trkpt>
      <trkpt lat="42.69381" lon="1.39625">
        <ele>2101.828</ele>
        <time>2024-08-31T09:25:39Z</time>
      </trkpt>
      <trkpt lat="42.69381" lon="1.39625">
        <ele>2101.83</ele>
        <time>2024-08-31T09:25:41Z</time>
      </trkpt>
      <trkpt lat="42.69381" lon="1.39625">
        <ele>2101.83</ele>
        <time>2024-08-31T09:25:43Z</time>
      </trkpt>
      <trkpt lat="42.69381" lon="1.39625">
        <ele>2101.829</ele>
        <time>2024-08-31T09:25:45Z</time>
      </trkpt>
      <trkpt lat="42.69381" lon="1.39625">
        <ele>2101.828</ele>
        <time>2024-08-31T09:25:47Z</time>
      </trkpt>
      <trkpt lat="42.69381" lon="1.39625">
        <ele>2101.827</ele>
        <time>2024-08-31T09:25:49Z</time>
      </trkpt>
      <trkpt lat="42.69381" lon="1.39625">
        <ele>2101.828</ele>
        <time>2024-08-31T09:25:51Z</time>
      </trkpt>
      <trkpt lat="42.69381" lon="1.39625">
        <ele>2101.952</ele>
        <time>2024-08-31T09:25:53Z</time>
      </trkpt>
      <trkpt lat="42.69381" lon="1.39625">
        <ele>2101.941</ele>
        <time>2024-08-31T09:25:55Z</time>
      </trkpt>
      <trkpt lat="42.69381" lon="1.39625">
        <ele>2101.943</ele>
        <time>2024-08-31T09:25:57Z</time>
      </trkpt>
      <trkpt lat="42.69381" lon="1.39625">
        <ele>2101.941</ele>
        <time>2024-08-31T09:25:59Z</time>
      </trkpt>
      <trkpt lat="42.69381" lon="1.39625">
        <ele>2101.944</ele>
        <time>2024-08-31T09:26:01Z</time>
      </trkpt>
      <trkpt lat="42.69381" lon="1.39625">
        <ele>2101.94</ele>
        <time>2024-08-31T09:26:03Z</time>
      </trkpt>
      <trkpt lat="42.69381" lon="1.39625">
        <ele>2101.942</ele>
        <time>2024-08-31T09:26:05Z</time>
      </trkpt>
      <trkpt lat="42.69381" lon="1.39625">
        <ele>2101.938</ele>
        <time>2024-08-31T09:26:07Z</time>
      </trkpt>
      <trkpt lat="42.69381" lon="1.39625">
        <ele>2101.938</ele>
        <time>2024-08-31T09:26:09Z</time>
      </trkpt>
      <trkpt lat="42.69381" lon="1.39625">
        <ele>2101.891</ele>
        <time>2024-08-31T09:26:11Z</time>
      </trkpt>
      <trkpt lat="42.69381" lon="1.39625">
        <ele>2102.119</ele>
        <time>2024-08-31T09:26:13Z</time>
      </trkpt>
      <trkpt lat="42.69381" lon="1.39625">
        <ele>2102.332</ele>
        <time>2024-08-31T09:26:15Z</time>
      </trkpt>
      <trkpt lat="42.69381" lon="1.39625">
        <ele>2102.436</ele>
        <time>2024-08-31T09:26:17Z</time>
      </trkpt>
      <trkpt lat="42.69378" lon="1.39624">
        <ele>2102.095</ele>
        <time>2024-08-31T09:26:19Z</time>
      </trkpt>
      <trkpt lat="42.69377" lon="1.39624">
        <ele>2102.732</ele>
        <time>2024-08-31T09:26:21Z</time>
      </trkpt>
      <trkpt lat="42.69376" lon="1.39624">
        <ele>2103.111</ele>
        <time>2024-08-31T09:26:23Z</time>
      </trkpt>
      <trkpt lat="42.69376" lon="1.39624">
        <ele>2103.203</ele>
        <time>2024-08-31T09:26:25Z</time>
      </trkpt>
      <trkpt lat="42.69375" lon="1.39624">
        <ele>2103.362</ele>
        <time>2024-08-31T09:26:27Z</time>
      </trkpt>
      <trkpt lat="42.69374" lon="1.39624">
        <ele>2102.899</ele>
        <time>2024-08-31T09:26:29Z</time>
      </trkpt>
      <trkpt lat="42.69373" lon="1.39624">
        <ele>2103.739</ele>
        <time>2024-08-31T09:26:31Z</time>
      </trkpt>
      <trkpt lat="42.69373" lon="1.39624">
        <ele>2104.537</ele>
        <time>2024-08-31T09:26:33Z</time>
      </trkpt>
      <trkpt lat="42.69373" lon="1.39626">
        <ele>2105.815</ele>
        <time>2024-08-31T09:26:35Z</time>
      </trkpt>
      <trkpt lat="42.69372" lon="1.39627">
        <ele>2106.353</ele>
        <time>2024-08-31T09:26:37Z</time>
      </trkpt>
      <trkpt lat="42.69372" lon="1.39628">
        <ele>2106.654</ele>
        <time>2024-08-31T09:26:39Z</time>
      </trkpt>
      <trkpt lat="42.69372" lon="1.39629">
        <ele>2107.261</ele>
        <time>2024-08-31T09:26:41Z</time>
      </trkpt>
      <trkpt lat="42.69371" lon="1.39629">
        <ele>2106.856</ele>
        <time>2024-08-31T09:26:43Z</time>
      </trkpt>
      <trkpt lat="42.6937" lon="1.39629">
        <ele>2107.211</ele>
        <time>2024-08-31T09:26:45Z</time>
      </trkpt>
      <trkpt lat="42.6937" lon="1.3963">
        <ele>2108.019</ele>
        <time>2024-08-31T09:26:47Z</time>
      </trkpt>
      <trkpt lat="42.69369" lon="1.39631">
        <ele>2108.323</ele>
        <time>2024-08-31T09:26:49Z</time>
      </trkpt>
      <trkpt lat="42.69369" lon="1.39631">
        <ele>2108.452</ele>
        <time>2024-08-31T09:26:51Z</time>
      </trkpt>
      <trkpt lat="42.69369" lon="1.39631">
        <ele>2108.458</ele>
        <time>2024-08-31T09:26:53Z</time>
      </trkpt>
      <trkpt lat="42.69368" lon="1.39631">
        <ele>2108.371</ele>
        <time>2024-08-31T09:26:55Z</time>
      </trkpt>
      <trkpt lat="42.69367" lon="1.39632">
        <ele>2108.533</ele>
        <time>2024-08-31T09:26:57Z</time>
      </trkpt>
      <trkpt lat="42.69366" lon="1.39631">
        <ele>2109.061</ele>
        <time>2024-08-31T09:26:59Z</time>
      </trkpt>
      <trkpt lat="42.69366" lon="1.39631">
        <ele>2108.535</ele>
        <time>2024-08-31T09:27:01Z</time>
      </trkpt>
      <trkpt lat="42.69365" lon="1.39631">
        <ele>2109.769</ele>
        <time>2024-08-31T09:27:03Z</time>
      </trkpt>
      <trkpt lat="42.69365" lon="1.39632">
        <ele>2110.223</ele>
        <time>2024-08-31T09:27:05Z</time>
      </trkpt>
      <trkpt lat="42.69365" lon="1.39633">
        <ele>2110.605</ele>
        <time>2024-08-31T09:27:07Z</time>
      </trkpt>
      <trkpt lat="42.69364" lon="1.39633">
        <ele>2110.698</ele>
        <time>2024-08-31T09:27:09Z</time>
      </trkpt>
      <trkpt lat="42.69364" lon="1.39634">
        <ele>2111.842</ele>
        <time>2024-08-31T09:27:11Z</time>
      </trkpt>
      <trkpt lat="42.69363" lon="1.39635">
        <ele>2111.578</ele>
        <time>2024-08-31T09:27:13Z</time>
      </trkpt>
      <trkpt lat="42.69363" lon="1.39636">
        <ele>2111.89</ele>
        <time>2024-08-31T09:27:15Z</time>
      </trkpt>
      <trkpt lat="42.69363" lon="1.39637">
        <ele>2113.074</ele>
        <time>2024-08-31T09:27:17Z</time>
      </trkpt>
      <trkpt lat="42.69363" lon="1.39638">
        <ele>2112.866</ele>
        <time>2024-08-31T09:27:19Z</time>
      </trkpt>
      <trkpt lat="42.69362" lon="1.3964">
        <ele>2113.774</ele>
        <time>2024-08-31T09:27:21Z</time>
      </trkpt>
      <trkpt lat="42.69362" lon="1.39641">
        <ele>2115.412</ele>
        <time>2024-08-31T09:27:23Z</time>
      </trkpt>
      <trkpt lat="42.69362" lon="1.39642">
        <ele>2115.982</ele>
        <time>2024-08-31T09:27:25Z</time>
      </trkpt>
      <trkpt lat="42.69361" lon="1.39643">
        <ele>2116.373</ele>
        <time>2024-08-31T09:27:27Z</time>
      </trkpt>
      <trkpt lat="42.69361" lon="1.39644">
        <ele>2115.938</ele>
        <time>2024-08-31T09:27:29Z</time>
      </trkpt>
      <trkpt lat="42.69361" lon="1.39645">
        <ele>2115.8</ele>
        <time>2024-08-31T09:27:31Z</time>
      </trkpt>
      <trkpt lat="42.6936" lon="1.39646">
        <ele>2116.68</ele>
        <time>2024-08-31T09:27:33Z</time>
      </trkpt>
      <trkpt lat="42.69359" lon="1.39647">
        <ele>2117.431</ele>
        <time>2024-08-31T09:27:35Z</time>
      </trkpt>
      <trkpt lat="42.69359" lon="1.39648">
        <ele>2117.82</ele>
        <time>2024-08-31T09:27:37Z</time>
      </trkpt>
      <trkpt lat="42.69358" lon="1.39649">
        <ele>2118.867</ele>
        <time>2024-08-31T09:27:39Z</time>
      </trkpt>
      <trkpt lat="42.69357" lon="1.3965">
        <ele>2119.516</ele>
        <time>2024-08-31T09:27:41Z</time>
      </trkpt>
      <trkpt lat="42.69357" lon="1.39651">
        <ele>2120.378</ele>
        <time>2024-08-31T09:27:43Z</time>
      </trkpt>
      <trkpt lat="42.69356" lon="1.39651">
        <ele>2120.2</ele>
        <time>2024-08-31T09:27:45Z</time>
      </trkpt>
      <trkpt lat="42.69355" lon="1.39652">
        <ele>2120.165</ele>
        <time>2024-08-31T09:27:47Z</time>
      </trkpt>
      <trkpt lat="42.69355" lon="1.39653">
        <ele>2120.125</ele>
        <time>2024-08-31T09:27:49Z</time>
      </trkpt>
      <trkpt lat="42.69354" lon="1.39654">
        <ele>2120.087</ele>
        <time>2024-08-31T09:27:51Z</time>
      </trkpt>
      <trkpt lat="42.69354" lon="1.39654">
        <ele>2120.3</ele>
        <time>2024-08-31T09:27:53Z</time>
      </trkpt>
      <trkpt lat="42.69353" lon="1.39655">
        <ele>2120.28</ele>
        <time>2024-08-31T09:27:55Z</time>
      </trkpt>
      <trkpt lat="42.69352" lon="1.39654">
        <ele>2120.599</ele>
        <time>2024-08-31T09:27:57Z</time>
      </trkpt>
      <trkpt lat="42.69351" lon="1.39655">
        <ele>2120.464</ele>
        <time>2024-08-31T09:27:59Z</time>
      </trkpt>
      <trkpt lat="42.69351" lon="1.39653">
        <ele>2121.402</ele>
        <time>2024-08-31T09:28:01Z</time>
      </trkpt>
      <trkpt lat="42.6935" lon="1.3965">
        <ele>2121.237</ele>
        <time>2024-08-31T09:28:03Z</time>
      </trkpt>
      <trkpt lat="42.6935" lon="1.39649">
        <ele>2121.421</ele>
        <time>2024-08-31T09:28:05Z</time>
      </trkpt>
      <trkpt lat="42.6935" lon="1.39647">
        <ele>2121.169</ele>
        <time>2024-08-31T09:28:07Z</time>
      </trkpt>
      <trkpt lat="42.6935" lon="1.39646">
        <ele>2121.872</ele>
        <time>2024-08-31T09:28:09Z</time>
      </trkpt>
      <trkpt lat="42.6935" lon="1.39644">
        <ele>2121.651</ele>
        <time>2024-08-31T09:28:11Z</time>
      </trkpt>
      <trkpt lat="42.69349" lon="1.39643">
        <ele>2121.502</ele>
        <time>2024-08-31T09:28:13Z</time>
      </trkpt>
      <trkpt lat="42.69348" lon="1.39642">
        <ele>2121.513</ele>
        <time>2024-08-31T09:28:15Z</time>
      </trkpt>
      <trkpt lat="42.69347" lon="1.39641">
        <ele>2122.128</ele>
        <time>2024-08-31T09:28:17Z</time>
      </trkpt>
      <trkpt lat="42.69346" lon="1.39641">
        <ele>2122.674</ele>
        <time>2024-08-31T09:28:19Z</time>
      </trkpt>
      <trkpt lat="42.69345" lon="1.39642">
        <ele>2122.203</ele>
        <time>2024-08-31T09:28:21Z</time>
      </trkpt>
      <trkpt lat="42.69345" lon="1.39642">
        <ele>2123.228</ele>
        <time>2024-08-31T09:28:23Z</time>
      </trkpt>
      <trkpt lat="42.69345" lon="1.39641">
        <ele>2122.589</ele>
        <time>2024-08-31T09:28:25Z</time>
      </trkpt>
      <trkpt lat="42.69345" lon="1.39641">
        <ele>2123.583</ele>
        <time>2024-08-31T09:28:27Z</time>
      </trkpt>
      <trkpt lat="42.69345" lon="1.39641">
        <ele>2123.825</ele>
        <time>2024-08-31T09:28:29Z</time>
      </trkpt>
      <trkpt lat="42.69345" lon="1.39641">
        <ele>2123.081</ele>
        <time>2024-08-31T09:28:31Z</time>
      </trkpt>
      <trkpt lat="42.69345" lon="1.39641">
        <ele>2122.662</ele>
        <time>2024-08-31T09:28:33Z</time>
      </trkpt>
      <trkpt lat="42.69345" lon="1.39641">
        <ele>2123.17</ele>
        <time>2024-08-31T09:28:35Z</time>
      </trkpt>
      <trkpt lat="42.69345" lon="1.39641">
        <ele>2124.104</ele>
        <time>2024-08-31T09:28:37Z</time>
      </trkpt>
      <trkpt lat="42.69345" lon="1.39641">
        <ele>2124.194</ele>
        <time>2024-08-31T09:28:39Z</time>
      </trkpt>
      <trkpt lat="42.69345" lon="1.39641">
        <ele>2126.54</ele>
        <time>2024-08-31T09:28:41Z</time>
      </trkpt>
      <trkpt lat="42.69345" lon="1.39641">
        <ele>2127.403</ele>
        <time>2024-08-31T09:28:43Z</time>
      </trkpt>
      <trkpt lat="42.69345" lon="1.39641">
        <ele>2127.888</ele>
        <time>2024-08-31T09:28:45Z</time>
      </trkpt>
      <trkpt lat="42.69345" lon="1.39641">
        <ele>2128.279</ele>
        <time>2024-08-31T09:28:47Z</time>
      </trkpt>
      <trkpt lat="42.69345" lon="1.39641">
        <ele>2127.878</ele>
        <time>2024-08-31T09:28:49Z</time>
      </trkpt>
      <trkpt lat="42.69345" lon="1.39641">
        <ele>2127.897</ele>
        <time>2024-08-31T09:28:51Z</time>
      </trkpt>
      <trkpt lat="42.69345" lon="1.39641">
        <ele>2128.038</ele>
        <time>2024-08-31T09:28:53Z</time>
      </trkpt>
      <trkpt lat="42.69345" lon="1.39641">
        <ele>2128.04</ele>
        <time>2024-08-31T09:28:55Z</time>
      </trkpt>
      <trkpt lat="42.69345" lon="1.39641">
        <ele>2128.041</ele>
        <time>2024-08-31T09:28:57Z</time>
      </trkpt>
      <trkpt lat="42.69345" lon="1.39641">
        <ele>2128.034</ele>
        <time>2024-08-31T09:28:59Z</time>
      </trkpt>
      <trkpt lat="42.69345" lon="1.39641">
        <ele>2128.031</ele>
        <time>2024-08-31T09:29:01Z</time>
      </trkpt>
      <trkpt lat="42.69345" lon="1.39641">
        <ele>2128.265</ele>
        <time>2024-08-31T09:29:03Z</time>
      </trkpt>
      <trkpt lat="42.69345" lon="1.39641">
        <ele>2128.268</ele>
        <time>2024-08-31T09:29:05Z</time>
      </trkpt>
      <trkpt lat="42.69345" lon="1.39641">
        <ele>2128.27</ele>
        <time>2024-08-31T09:29:07Z</time>
      </trkpt>
      <trkpt lat="42.69345" lon="1.39641">
        <ele>2128.272</ele>
        <time>2024-08-31T09:29:09Z</time>
      </trkpt>
      <trkpt lat="42.69345" lon="1.39641">
        <ele>2128.278</ele>
        <time>2024-08-31T09:29:11Z</time>
      </trkpt>
      <trkpt lat="42.69345" lon="1.39641">
        <ele>2128.278</ele>
        <time>2024-08-31T09:29:13Z</time>
      </trkpt>
      <trkpt lat="42.69345" lon="1.39641">
        <ele>2127.978</ele>
        <time>2024-08-31T09:29:15Z</time>
      </trkpt>
      <trkpt lat="42.69345" lon="1.39641">
        <ele>2127.752</ele>
        <time>2024-08-31T09:29:17Z</time>
      </trkpt>
      <trkpt lat="42.69345" lon="1.39641">
        <ele>2127.728</ele>
        <time>2024-08-31T09:29:19Z</time>
      </trkpt>
      <trkpt lat="42.69345" lon="1.39641">
        <ele>2127.716</ele>
        <time>2024-08-31T09:29:21Z</time>
      </trkpt>
      <trkpt lat="42.69345" lon="1.39641">
        <ele>2127.704</ele>
        <time>2024-08-31T09:29:23Z</time>
      </trkpt>
      <trkpt lat="42.69345" lon="1.39641">
        <ele>2127.692</ele>
        <time>2024-08-31T09:29:25Z</time>
      </trkpt>
      <trkpt lat="42.69345" lon="1.39641">
        <ele>2127.685</ele>
        <time>2024-08-31T09:29:27Z</time>
      </trkpt>
      <trkpt lat="42.69345" lon="1.39641">
        <ele>2127.685</ele>
        <time>2024-08-31T09:29:29Z</time>
      </trkpt>
      <trkpt lat="42.69345" lon="1.39641">
        <ele>2127.17</ele>
        <time>2024-08-31T09:29:31Z</time>
      </trkpt>
      <trkpt lat="42.69345" lon="1.39641">
        <ele>2127.169</ele>
        <time>2024-08-31T09:29:33Z</time>
      </trkpt>
      <trkpt lat="42.69345" lon="1.39641">
        <ele>2127.167</ele>
        <time>2024-08-31T09:29:35Z</time>
      </trkpt>
      <trkpt lat="42.69345" lon="1.39641">
        <ele>2127.164</ele>
        <time>2024-08-31T09:29:37Z</time>
      </trkpt>
      <trkpt lat="42.69345" lon="1.39641">
        <ele>2127.157</ele>
        <time>2024-08-31T09:29:39Z</time>
      </trkpt>
      <trkpt lat="42.69345" lon="1.39641">
        <ele>2127.149</ele>
        <time>2024-08-31T09:29:41Z</time>
      </trkpt>
      <trkpt lat="42.69345" lon="1.39641">
        <ele>2127.139</ele>
        <time>2024-08-31T09:29:43Z</time>
      </trkpt>
      <trkpt lat="42.69345" lon="1.39641">
        <ele>2127.136</ele>
        <time>2024-08-31T09:29:45Z</time>
      </trkpt>
      <trkpt lat="42.69345" lon="1.39641">
        <ele>2127.133</ele>
        <time>2024-08-31T09:29:47Z</time>
      </trkpt>
      <trkpt lat="42.69345" lon="1.39641">
        <ele>2127.136</ele>
        <time>2024-08-31T09:29:49Z</time>
      </trkpt>
      <trkpt lat="42.69345" lon="1.39641">
        <ele>2127.134</ele>
        <time>2024-08-31T09:29:51Z</time>
      </trkpt>
      <trkpt lat="42.69345" lon="1.39641">
        <ele>2127.18</ele>
        <time>2024-08-31T09:29:53Z</time>
      </trkpt>
      <trkpt lat="42.69345" lon="1.39641">
        <ele>2127.337</ele>
        <time>2024-08-31T09:29:55Z</time>
      </trkpt>
      <trkpt lat="42.69345" lon="1.39641">
        <ele>2127.326</ele>
        <time>2024-08-31T09:29:57Z</time>
      </trkpt>
      <trkpt lat="42.69345" lon="1.39641">
        <ele>2127.315</ele>
        <time>2024-08-31T09:29:59Z</time>
      </trkpt>
      <trkpt lat="42.69345" lon="1.39641">
        <ele>2127.32</ele>
        <time>2024-08-31T09:30:01Z</time>
      </trkpt>
      <trkpt lat="42.69345" lon="1.39641">
        <ele>2127.32</ele>
        <time>2024-08-31T09:30:03Z</time>
      </trkpt>
      <trkpt lat="42.69345" lon="1.39641">
        <ele>2127.32</ele>
        <time>2024-08-31T09:30:05Z</time>
      </trkpt>
      <trkpt lat="42.69345" lon="1.39641">
        <ele>2127.321</ele>
        <time>2024-08-31T09:30:07Z</time>
      </trkpt>
      <trkpt lat="42.69345" lon="1.39641">
        <ele>2127.315</ele>
        <time>2024-08-31T09:30:09Z</time>
      </trkpt>
      <trkpt lat="42.69345" lon="1.39641">
        <ele>2127.314</ele>
        <time>2024-08-31T09:30:11Z</time>
      </trkpt>
      <trkpt lat="42.69345" lon="1.39641">
        <ele>2127.313</ele>
        <time>2024-08-31T09:30:13Z</time>
      </trkpt>
      <trkpt lat="42.69345" lon="1.39641">
        <ele>2127.68</ele>
        <time>2024-08-31T09:30:15Z</time>
      </trkpt>
      <trkpt lat="42.69345" lon="1.39641">
        <ele>2127.638</ele>
        <time>2024-08-31T09:30:17Z</time>
      </trkpt>
      <trkpt lat="42.69345" lon="1.39641">
        <ele>2127.645</ele>
        <time>2024-08-31T09:30:19Z</time>
      </trkpt>
      <trkpt lat="42.69345" lon="1.39641">
        <ele>2127.402</ele>
        <time>2024-08-31T09:30:21Z</time>
      </trkpt>
      <trkpt lat="42.69345" lon="1.39641">
        <ele>2127.405</ele>
        <time>2024-08-31T09:30:23Z</time>
      </trkpt>
      <trkpt lat="42.69345" lon="1.39641">
        <ele>2127.409</ele>
        <time>2024-08-31T09:30:25Z</time>
      </trkpt>
      <trkpt lat="42.69345" lon="1.39641">
        <ele>2127.408</ele>
        <time>2024-08-31T09:30:27Z</time>
      </trkpt>
      <trkpt lat="42.69345" lon="1.39641">
        <ele>2127.414</ele>
        <time>2024-08-31T09:30:29Z</time>
      </trkpt>
      <trkpt lat="42.69345" lon="1.39641">
        <ele>2127.414</ele>
        <time>2024-08-31T09:30:31Z</time>
      </trkpt>
      <trkpt lat="42.69345" lon="1.39641">
        <ele>2126.413</ele>
        <time>2024-08-31T09:30:33Z</time>
      </trkpt>
      <trkpt lat="42.69345" lon="1.39641">
        <ele>2126.427</ele>
        <time>2024-08-31T09:30:35Z</time>
      </trkpt>
      <trkpt lat="42.69345" lon="1.39641">
        <ele>2126.414</ele>
        <time>2024-08-31T09:30:37Z</time>
      </trkpt>
      <trkpt lat="42.69338" lon="1.39634">
        <ele>2126.227</ele>
        <time>2024-08-31T09:30:39Z</time>
      </trkpt>
      <trkpt lat="42.69337" lon="1.39633">
        <ele>2126.032</ele>
        <time>2024-08-31T09:30:41Z</time>
      </trkpt>
      <trkpt lat="42.69337" lon="1.39633">
        <ele>2125.892</ele>
        <time>2024-08-31T09:30:43Z</time>
      </trkpt>
      <trkpt lat="42.69337" lon="1.39633">
        <ele>2125.754</ele>
        <time>2024-08-31T09:30:45Z</time>
      </trkpt>
      <trkpt lat="42.69337" lon="1.39632">
        <ele>2125.612</ele>
        <time>2024-08-31T09:30:47Z</time>
      </trkpt>
      <trkpt lat="42.69337" lon="1.39632">
        <ele>2125.764</ele>
        <time>2024-08-31T09:30:49Z</time>
      </trkpt>
      <trkpt lat="42.69336" lon="1.39631">
        <ele>2126.17</ele>
        <time>2024-08-31T09:30:51Z</time>
      </trkpt>
      <trkpt lat="42.69336" lon="1.3963">
        <ele>2126.669</ele>
        <time>2024-08-31T09:30:53Z</time>
      </trkpt>
      <trkpt lat="42.69335" lon="1.39629">
        <ele>2126.592</ele>
        <time>2024-08-31T09:30:55Z</time>
      </trkpt>
      <trkpt lat="42.69335" lon="1.39628">
        <ele>2126.81</ele>
        <time>2024-08-31T09:30:57Z</time>
      </trkpt>
      <trkpt lat="42.69335" lon="1.39626">
        <ele>2126.624</ele>
        <time>2024-08-31T09:30:59Z</time>
      </trkpt>
      <trkpt lat="42.69334" lon="1.39624">
        <ele>2127.568</ele>
        <time>2024-08-31T09:31:01Z</time>
      </trkpt>
      <trkpt lat="42.69333" lon="1.39623">
        <ele>2127.46</ele>
        <time>2024-08-31T09:31:03Z</time>
      </trkpt>
      <trkpt lat="42.69332" lon="1.39623">
        <ele>2126.803</ele>
        <time>2024-08-31T09:31:05Z</time>
      </trkpt>
      <trkpt lat="42.69331" lon="1.39622">
        <ele>2128.803</ele>
        <time>2024-08-31T09:31:07Z</time>
      </trkpt>
      <trkpt lat="42.6933" lon="1.39623">
        <ele>2129.204</ele>
        <time>2024-08-31T09:31:09Z</time>
      </trkpt>
      <trkpt lat="42.69329" lon="1.39624">
        <ele>2129.659</ele>
        <time>2024-08-31T09:31:11Z</time>
      </trkpt>
      <trkpt lat="42.69329" lon="1.39625">
        <ele>2131.661</ele>
        <time>2024-08-31T09:31:13Z</time>
      </trkpt>
      <trkpt lat="42.69328" lon="1.39626">
        <ele>2132.085</ele>
        <time>2024-08-31T09:31:15Z</time>
      </trkpt>
      <trkpt lat="42.69328" lon="1.39626">
        <ele>2131.569</ele>
        <time>2024-08-31T09:31:17Z</time>
      </trkpt>
      <trkpt lat="42.69327" lon="1.39627">
        <ele>2132.874</ele>
        <time>2024-08-31T09:31:19Z</time>
      </trkpt>
      <trkpt lat="42.69326" lon="1.39627">
        <ele>2132.288</ele>
        <time>2024-08-31T09:31:21Z</time>
      </trkpt>
      <trkpt lat="42.69325" lon="1.39628">
        <ele>2132.381</ele>
        <time>2024-08-31T09:31:23Z</time>
      </trkpt>
      <trkpt lat="42.69324" lon="1.39628">
        <ele>2133.34</ele>
        <time>2024-08-31T09:31:25Z</time>
      </trkpt>
      <trkpt lat="42.69324" lon="1.39629">
        <ele>2133.598</ele>
        <time>2024-08-31T09:31:27Z</time>
      </trkpt>
      <trkpt lat="42.69324" lon="1.3963">
        <ele>2134.016</ele>
        <time>2024-08-31T09:31:29Z</time>
      </trkpt>
      <trkpt lat="42.69323" lon="1.3963">
        <ele>2134.048</ele>
        <time>2024-08-31T09:31:31Z</time>
      </trkpt>
      <trkpt lat="42.69323" lon="1.39631">
        <ele>2134.42</ele>
        <time>2024-08-31T09:31:33Z</time>
      </trkpt>
      <trkpt lat="42.69321" lon="1.39631">
        <ele>2133.878</ele>
        <time>2024-08-31T09:31:35Z</time>
      </trkpt>
      <trkpt lat="42.6932" lon="1.39631">
        <ele>2134.873</ele>
        <time>2024-08-31T09:31:37Z</time>
      </trkpt>
      <trkpt lat="42.69319" lon="1.39631">
        <ele>2134.019</ele>
        <time>2024-08-31T09:31:39Z</time>
      </trkpt>
      <trkpt lat="42.69318" lon="1.39631">
        <ele>2133.351</ele>
        <time>2024-08-31T09:31:41Z</time>
      </trkpt>
      <trkpt lat="42.69318" lon="1.39632">
        <ele>2133.57</ele>
        <time>2024-08-31T09:31:43Z</time>
      </trkpt>
      <trkpt lat="42.69318" lon="1.39633">
        <ele>2134.611</ele>
        <time>2024-08-31T09:31:45Z</time>
      </trkpt>
      <trkpt lat="42.69317" lon="1.39635">
        <ele>2134.204</ele>
        <time>2024-08-31T09:31:47Z</time>
      </trkpt>
      <trkpt lat="42.69316" lon="1.39635">
        <ele>2134.393</ele>
        <time>2024-08-31T09:31:49Z</time>
      </trkpt>
      <trkpt lat="42.69316" lon="1.39634">
        <ele>2135.084</ele>
        <time>2024-08-31T09:31:51Z</time>
      </trkpt>
      <trkpt lat="42.69316" lon="1.39633">
        <ele>2135.453</ele>
        <time>2024-08-31T09:31:53Z</time>
      </trkpt>
      <trkpt lat="42.69315" lon="1.39632">
        <ele>2134.065</ele>
        <time>2024-08-31T09:31:55Z</time>
      </trkpt>
      <trkpt lat="42.69315" lon="1.39631">
        <ele>2134.591</ele>
        <time>2024-08-31T09:31:57Z</time>
      </trkpt>
      <trkpt lat="42.69316" lon="1.39631">
        <ele>2135.309</ele>
        <time>2024-08-31T09:31:59Z</time>
      </trkpt>
      <trkpt lat="42.69317" lon="1.39629">
        <ele>2136.383</ele>
        <time>2024-08-31T09:32:01Z</time>
      </trkpt>
      <trkpt lat="42.69317" lon="1.39627">
        <ele>2136.504</ele>
        <time>2024-08-31T09:32:03Z</time>
      </trkpt>
      <trkpt lat="42.69317" lon="1.39626">
        <ele>2136.286</ele>
        <time>2024-08-31T09:32:05Z</time>
      </trkpt>
      <trkpt lat="42.69316" lon="1.39625">
        <ele>2135.77</ele>
        <time>2024-08-31T09:32:07Z</time>
      </trkpt>
      <trkpt lat="42.69317" lon="1.39625">
        <ele>2135.808</ele>
        <time>2024-08-31T09:32:09Z</time>
      </trkpt>
      <trkpt lat="42.69317" lon="1.39624">
        <ele>2135.855</ele>
        <time>2024-08-31T09:32:11Z</time>
      </trkpt>
      <trkpt lat="42.69317" lon="1.39624">
        <ele>2135.851</ele>
        <time>2024-08-31T09:32:13Z</time>
      </trkpt>
      <trkpt lat="42.69317" lon="1.39624">
        <ele>2135.949</ele>
        <time>2024-08-31T09:32:15Z</time>
      </trkpt>
      <trkpt lat="42.69317" lon="1.39624">
        <ele>2137.516</ele>
        <time>2024-08-31T09:32:17Z</time>
      </trkpt>
      <trkpt lat="42.69317" lon="1.39624">
        <ele>2137.527</ele>
        <time>2024-08-31T09:32:19Z</time>
      </trkpt>
      <trkpt lat="42.69317" lon="1.39624">
        <ele>2138.424</ele>
        <time>2024-08-31T09:32:21Z</time>
      </trkpt>
      <trkpt lat="42.69317" lon="1.39624">
        <ele>2138.161</ele>
        <time>2024-08-31T09:32:23Z</time>
      </trkpt>
      <trkpt lat="42.69317" lon="1.39624">
        <ele>2138.167</ele>
        <time>2024-08-31T09:32:25Z</time>
      </trkpt>
      <trkpt lat="42.69317" lon="1.39624">
        <ele>2138.181</ele>
        <time>2024-08-31T09:32:27Z</time>
      </trkpt>
      <trkpt lat="42.69317" lon="1.39624">
        <ele>2138.181</ele>
        <time>2024-08-31T09:32:29Z</time>
      </trkpt>
      <trkpt lat="42.69317" lon="1.39624">
        <ele>2138.181</ele>
        <time>2024-08-31T09:32:31Z</time>
      </trkpt>
      <trkpt lat="42.69317" lon="1.39624">
        <ele>2138.344</ele>
        <time>2024-08-31T09:32:33Z</time>
      </trkpt>
      <trkpt lat="42.69317" lon="1.39624">
        <ele>2139.964</ele>
        <time>2024-08-31T09:32:35Z</time>
      </trkpt>
      <trkpt lat="42.69317" lon="1.39624">
        <ele>2140.142</ele>
        <time>2024-08-31T09:32:37Z</time>
      </trkpt>
      <trkpt lat="42.69317" lon="1.39624">
        <ele>2140.148</ele>
        <time>2024-08-31T09:32:39Z</time>
      </trkpt>
      <trkpt lat="42.69317" lon="1.39624">
        <ele>2140.158</ele>
        <time>2024-08-31T09:32:41Z</time>
      </trkpt>
      <trkpt lat="42.69317" lon="1.39624">
        <ele>2140.475</ele>
        <time>2024-08-31T09:32:43Z</time>
      </trkpt>
      <trkpt lat="42.69317" lon="1.39624">
        <ele>2141.279</ele>
        <time>2024-08-31T09:32:45Z</time>
      </trkpt>
      <trkpt lat="42.69317" lon="1.39624">
        <ele>2142.133</ele>
        <time>2024-08-31T09:32:47Z</time>
      </trkpt>
      <trkpt lat="42.69317" lon="1.39624">
        <ele>2142.539</ele>
        <time>2024-08-31T09:32:49Z</time>
      </trkpt>
      <trkpt lat="42.69317" lon="1.39624">
        <ele>2142.806</ele>
        <time>2024-08-31T09:32:51Z</time>
      </trkpt>
      <trkpt lat="42.69317" lon="1.39624">
        <ele>2143.589</ele>
        <time>2024-08-31T09:32:53Z</time>
      </trkpt>
      <trkpt lat="42.69317" lon="1.39624">
        <ele>2144.06</ele>
        <time>2024-08-31T09:32:55Z</time>
      </trkpt>
      <trkpt lat="42.69317" lon="1.39624">
        <ele>2144.321</ele>
        <time>2024-08-31T09:32:57Z</time>
      </trkpt>
      <trkpt lat="42.69317" lon="1.39624">
        <ele>2144.294</ele>
        <time>2024-08-31T09:32:59Z</time>
      </trkpt>
      <trkpt lat="42.69317" lon="1.39624">
        <ele>2144.294</ele>
        <time>2024-08-31T09:33:01Z</time>
      </trkpt>
      <trkpt lat="42.69317" lon="1.39624">
        <ele>2144.293</ele>
        <time>2024-08-31T09:33:03Z</time>
      </trkpt>
      <trkpt lat="42.69317" lon="1.39624">
        <ele>2144.211</ele>
        <time>2024-08-31T09:33:05Z</time>
      </trkpt>
      <trkpt lat="42.69317" lon="1.39624">
        <ele>2144.196</ele>
        <time>2024-08-31T09:33:07Z</time>
      </trkpt>
      <trkpt lat="42.69317" lon="1.39624">
        <ele>2144.195</ele>
        <time>2024-08-31T09:33:09Z</time>
      </trkpt>
      <trkpt lat="42.69317" lon="1.39624">
        <ele>2144.061</ele>
        <time>2024-08-31T09:33:11Z</time>
      </trkpt>
      <trkpt lat="42.69317" lon="1.39624">
        <ele>2143.982</ele>
        <time>2024-08-31T09:33:13Z</time>
      </trkpt>
      <trkpt lat="42.69317" lon="1.39624">
        <ele>2143.925</ele>
        <time>2024-08-31T09:33:15Z</time>
      </trkpt>
      <trkpt lat="42.69317" lon="1.39624">
        <ele>2144.138</ele>
        <time>2024-08-31T09:33:17Z</time>
      </trkpt>
      <trkpt lat="42.69317" lon="1.39624">
        <ele>2144.685</ele>
        <time>2024-08-31T09:33:19Z</time>
      </trkpt>
      <trkpt lat="42.69317" lon="1.39624">
        <ele>2144.691</ele>
        <time>2024-08-31T09:33:21Z</time>
      </trkpt>
      <trkpt lat="42.69317" lon="1.39624">
        <ele>2144.697</ele>
        <time>2024-08-31T09:33:23Z</time>
      </trkpt>
      <trkpt lat="42.69317" lon="1.39624">
        <ele>2144.701</ele>
        <time>2024-08-31T09:33:25Z</time>
      </trkpt>
      <trkpt lat="42.69317" lon="1.39624">
        <ele>2144.699</ele>
        <time>2024-08-31T09:33:27Z</time>
      </trkpt>
      <trkpt lat="42.69317" lon="1.39624">
        <ele>2144.977</ele>
        <time>2024-08-31T09:33:29Z</time>
      </trkpt>
      <trkpt lat="42.69317" lon="1.39624">
        <ele>2144.878</ele>
        <time>2024-08-31T09:33:31Z</time>
      </trkpt>
      <trkpt lat="42.69317" lon="1.39624">
        <ele>2144.549</ele>
        <time>2024-08-31T09:33:33Z</time>
      </trkpt>
      <trkpt lat="42.69317" lon="1.39624">
        <ele>2145.094</ele>
        <time>2024-08-31T09:33:35Z</time>
      </trkpt>
      <trkpt lat="42.69317" lon="1.39624">
        <ele>2146.351</ele>
        <time>2024-08-31T09:33:37Z</time>
      </trkpt>
      <trkpt lat="42.69317" lon="1.39624">
        <ele>2147.084</ele>
        <time>2024-08-31T09:33:39Z</time>
      </trkpt>
      <trkpt lat="42.69317" lon="1.39624">
        <ele>2147.274</ele>
        <time>2024-08-31T09:33:41Z</time>
      </trkpt>
      <trkpt lat="42.69317" lon="1.39624">
        <ele>2147.658</ele>
        <time>2024-08-31T09:33:43Z</time>
      </trkpt>
      <trkpt lat="42.69317" lon="1.39624">
        <ele>2148.101</ele>
        <time>2024-08-31T09:33:45Z</time>
      </trkpt>
      <trkpt lat="42.69317" lon="1.39624">
        <ele>2148.799</ele>
        <time>2024-08-31T09:33:47Z</time>
      </trkpt>
      <trkpt lat="42.69317" lon="1.39624">
        <ele>2149.406</ele>
        <time>2024-08-31T09:33:49Z</time>
      </trkpt>
      <trkpt lat="42.69317" lon="1.39624">
        <ele>2149.751</ele>
        <time>2024-08-31T09:33:51Z</time>
      </trkpt>
      <trkpt lat="42.69317" lon="1.39624">
        <ele>2149.761</ele>
        <time>2024-08-31T09:33:53Z</time>
      </trkpt>
      <trkpt lat="42.69305" lon="1.39632">
        <ele>2149.767</ele>
        <time>2024-08-31T09:33:55Z</time>
      </trkpt>
      <trkpt lat="42.69305" lon="1.39632">
        <ele>2150.002</ele>
        <time>2024-08-31T09:33:57Z</time>
      </trkpt>
      <trkpt lat="42.69305" lon="1.39633">
        <ele>2150.415</ele>
        <time>2024-08-31T09:33:59Z</time>
      </trkpt>
      <trkpt lat="42.69305" lon="1.39633">
        <ele>2150.705</ele>
        <time>2024-08-31T09:34:01Z</time>
      </trkpt>
      <trkpt lat="42.69305" lon="1.39633">
        <ele>2150.707</ele>
        <time>2024-08-31T09:34:03Z</time>
      </trkpt>
      <trkpt lat="42.69305" lon="1.39633">
        <ele>2151.047</ele>
        <time>2024-08-31T09:34:05Z</time>
      </trkpt>
      <trkpt lat="42.69305" lon="1.39633">
        <ele>2151.357</ele>
        <time>2024-08-31T09:34:07Z</time>
      </trkpt>
      <trkpt lat="42.69305" lon="1.39633">
        <ele>2151.39</ele>
        <time>2024-08-31T09:34:09Z</time>
      </trkpt>
      <trkpt lat="42.69305" lon="1.39633">
        <ele>2151.388</ele>
        <time>2024-08-31T09:34:11Z</time>
      </trkpt>
      <trkpt lat="42.69305" lon="1.39633">
        <ele>2151.389</ele>
        <time>2024-08-31T09:34:13Z</time>
      </trkpt>
      <trkpt lat="42.69305" lon="1.39633">
        <ele>2151.52</ele>
        <time>2024-08-31T09:34:15Z</time>
      </trkpt>
      <trkpt lat="42.69305" lon="1.39633">
        <ele>2152.431</ele>
        <time>2024-08-31T09:34:17Z</time>
      </trkpt>
      <trkpt lat="42.69305" lon="1.39633">
        <ele>2153.172</ele>
        <time>2024-08-31T09:34:19Z</time>
      </trkpt>
      <trkpt lat="42.69305" lon="1.39633">
        <ele>2154.067</ele>
        <time>2024-08-31T09:34:21Z</time>
      </trkpt>
      <trkpt lat="42.69305" lon="1.39633">
        <ele>2154.479</ele>
        <time>2024-08-31T09:34:23Z</time>
      </trkpt>
      <trkpt lat="42.69305" lon="1.39633">
        <ele>2154.673</ele>
        <time>2024-08-31T09:34:25Z</time>
      </trkpt>
      <trkpt lat="42.69305" lon="1.39633">
        <ele>2154.674</ele>
        <time>2024-08-31T09:34:27Z</time>
      </trkpt>
      <trkpt lat="42.69305" lon="1.39633">
        <ele>2154.675</ele>
        <time>2024-08-31T09:34:29Z</time>
      </trkpt>
      <trkpt lat="42.69305" lon="1.39633">
        <ele>2154.672</ele>
        <time>2024-08-31T09:34:31Z</time>
      </trkpt>
      <trkpt lat="42.69305" lon="1.39633">
        <ele>2154.674</ele>
        <time>2024-08-31T09:34:33Z</time>
      </trkpt>
      <trkpt lat="42.69305" lon="1.39633">
        <ele>2154.673</ele>
        <time>2024-08-31T09:34:35Z</time>
      </trkpt>
      <trkpt lat="42.69305" lon="1.39633">
        <ele>2154.676</ele>
        <time>2024-08-31T09:34:37Z</time>
      </trkpt>
      <trkpt lat="42.69305" lon="1.39633">
        <ele>2154.678</ele>
        <time>2024-08-31T09:34:39Z</time>
      </trkpt>
      <trkpt lat="42.69305" lon="1.39633">
        <ele>2154.814</ele>
        <time>2024-08-31T09:34:41Z</time>
      </trkpt>
      <trkpt lat="42.69305" lon="1.39633">
        <ele>2155.558</ele>
        <time>2024-08-31T09:34:43Z</time>
      </trkpt>
      <trkpt lat="42.69305" lon="1.39633">
        <ele>2155.636</ele>
        <time>2024-08-31T09:34:45Z</time>
      </trkpt>
      <trkpt lat="42.69305" lon="1.39633">
        <ele>2155.882</ele>
        <time>2024-08-31T09:34:47Z</time>
      </trkpt>
      <trkpt lat="42.69305" lon="1.39633">
        <ele>2155.571</ele>
        <time>2024-08-31T09:34:49Z</time>
      </trkpt>
      <trkpt lat="42.69305" lon="1.39633">
        <ele>2155.903</ele>
        <time>2024-08-31T09:34:51Z</time>
      </trkpt>
      <trkpt lat="42.69305" lon="1.39633">
        <ele>2156.219</ele>
        <time>2024-08-31T09:34:53Z</time>
      </trkpt>
      <trkpt lat="42.69305" lon="1.39633">
        <ele>2156.878</ele>
        <time>2024-08-31T09:34:55Z</time>
      </trkpt>
      <trkpt lat="42.69305" lon="1.39633">
        <ele>2156.89</ele>
        <time>2024-08-31T09:34:57Z</time>
      </trkpt>
      <trkpt lat="42.69305" lon="1.39633">
        <ele>2156.706</ele>
        <time>2024-08-31T09:34:59Z</time>
      </trkpt>
      <trkpt lat="42.69305" lon="1.39633">
        <ele>2157.489</ele>
        <time>2024-08-31T09:35:01Z</time>
      </trkpt>
      <trkpt lat="42.69305" lon="1.39633">
        <ele>2158.267</ele>
        <time>2024-08-31T09:35:03Z</time>
      </trkpt>
      <trkpt lat="42.69305" lon="1.39633">
        <ele>2158.361</ele>
        <time>2024-08-31T09:35:05Z</time>
      </trkpt>
      <trkpt lat="42.69305" lon="1.39633">
        <ele>2158.358</ele>
        <time>2024-08-31T09:35:07Z</time>
      </trkpt>
      <trkpt lat="42.69305" lon="1.39633">
        <ele>2158.561</ele>
        <time>2024-08-31T09:35:09Z</time>
      </trkpt>
      <trkpt lat="42.69305" lon="1.39633">
        <ele>2158.561</ele>
        <time>2024-08-31T09:35:11Z</time>
      </trkpt>
      <trkpt lat="42.69302" lon="1.39618">
        <ele>2158.562</ele>
        <time>2024-08-31T09:35:13Z</time>
      </trkpt>
      <trkpt lat="42.69301" lon="1.39617">
        <ele>2158.312</ele>
        <time>2024-08-31T09:35:15Z</time>
      </trkpt>
      <trkpt lat="42.69301" lon="1.39617">
        <ele>2159.137</ele>
        <time>2024-08-31T09:35:17Z</time>
      </trkpt>
      <trkpt lat="42.69301" lon="1.39616">
        <ele>2159.09</ele>
        <time>2024-08-31T09:35:19Z</time>
      </trkpt>
      <trkpt lat="42.693" lon="1.39615">
        <ele>2159.455</ele>
        <time>2024-08-31T09:35:21Z</time>
      </trkpt>
      <trkpt lat="42.693" lon="1.39614">
        <ele>2160.548</ele>
        <time>2024-08-31T09:35:23Z</time>
      </trkpt>
      <trkpt lat="42.693" lon="1.39614">
        <ele>2160.439</ele>
        <time>2024-08-31T09:35:25Z</time>
      </trkpt>
      <trkpt lat="42.693" lon="1.39614">
        <ele>2160.65</ele>
        <time>2024-08-31T09:35:27Z</time>
      </trkpt>
      <trkpt lat="42.693" lon="1.39614">
        <ele>2160.947</ele>
        <time>2024-08-31T09:35:29Z</time>
      </trkpt>
      <trkpt lat="42.693" lon="1.39614">
        <ele>2161.279</ele>
        <time>2024-08-31T09:35:31Z</time>
      </trkpt>
      <trkpt lat="42.693" lon="1.39614">
        <ele>2161.279</ele>
        <time>2024-08-31T09:35:33Z</time>
      </trkpt>
      <trkpt lat="42.693" lon="1.39614">
        <ele>2161.098</ele>
        <time>2024-08-31T09:35:35Z</time>
      </trkpt>
      <trkpt lat="42.693" lon="1.39614">
        <ele>2161.256</ele>
        <time>2024-08-31T09:35:37Z</time>
      </trkpt>
      <trkpt lat="42.693" lon="1.39614">
        <ele>2161.298</ele>
        <time>2024-08-31T09:35:39Z</time>
      </trkpt>
      <trkpt lat="42.693" lon="1.39614">
        <ele>2161.297</ele>
        <time>2024-08-31T09:35:41Z</time>
      </trkpt>
      <trkpt lat="42.693" lon="1.39614">
        <ele>2161.295</ele>
        <time>2024-08-31T09:35:43Z</time>
      </trkpt>
      <trkpt lat="42.693" lon="1.39614">
        <ele>2161.553</ele>
        <time>2024-08-31T09:35:45Z</time>
      </trkpt>
      <trkpt lat="42.693" lon="1.39614">
        <ele>2161.554</ele>
        <time>2024-08-31T09:35:47Z</time>
      </trkpt>
      <trkpt lat="42.693" lon="1.39614">
        <ele>2161.554</ele>
        <time>2024-08-31T09:35:49Z</time>
      </trkpt>
      <trkpt lat="42.693" lon="1.39614">
        <ele>2161.554</ele>
        <time>2024-08-31T09:35:51Z</time>
      </trkpt>
      <trkpt lat="42.693" lon="1.39614">
        <ele>2161.96</ele>
        <time>2024-08-31T09:35:53Z</time>
      </trkpt>
      <trkpt lat="42.693" lon="1.39614">
        <ele>2162.127</ele>
        <time>2024-08-31T09:35:55Z</time>
      </trkpt>
      <trkpt lat="42.693" lon="1.39614">
        <ele>2162.514</ele>
        <time>2024-08-31T09:35:57Z</time>
      </trkpt>
      <trkpt lat="42.693" lon="1.39614">
        <ele>2162.85</ele>
        <time>2024-08-31T09:35:59Z</time>
      </trkpt>
      <trkpt lat="42.693" lon="1.39614">
        <ele>2163.573</ele>
        <time>2024-08-31T09:36:01Z</time>
      </trkpt>
      <trkpt lat="42.693" lon="1.39614">
        <ele>2165.646</ele>
        <time>2024-08-31T09:36:03Z</time>
      </trkpt>
      <trkpt lat="42.693" lon="1.39614">
        <ele>2166.25</ele>
        <time>2024-08-31T09:36:05Z</time>
      </trkpt>
      <trkpt lat="42.693" lon="1.39614">
        <ele>2166.479</ele>
        <time>2024-08-31T09:36:07Z</time>
      </trkpt>
      <trkpt lat="42.693" lon="1.39614">
        <ele>2166.818</ele>
        <time>2024-08-31T09:36:09Z</time>
      </trkpt>
      <trkpt lat="42.693" lon="1.39614">
        <ele>2166.719</ele>
        <time>2024-08-31T09:36:11Z</time>
      </trkpt>
      <trkpt lat="42.693" lon="1.39614">
        <ele>2166.633</ele>
        <time>2024-08-31T09:36:13Z</time>
      </trkpt>
      <trkpt lat="42.693" lon="1.39614">
        <ele>2167.01</ele>
        <time>2024-08-31T09:36:15Z</time>
      </trkpt>
      <trkpt lat="42.693" lon="1.39614">
        <ele>2167.146</ele>
        <time>2024-08-31T09:36:17Z</time>
      </trkpt>
      <trkpt lat="42.693" lon="1.39614">
        <ele>2167.148</ele>
        <time>2024-08-31T09:36:19Z</time>
      </trkpt>
      <trkpt lat="42.693" lon="1.39614">
        <ele>2167.033</ele>
        <time>2024-08-31T09:36:21Z</time>
      </trkpt>
      <trkpt lat="42.693" lon="1.39614">
        <ele>2166.82</ele>
        <time>2024-08-31T09:36:23Z</time>
      </trkpt>
      <trkpt lat="42.693" lon="1.39614">
        <ele>2166.458</ele>
        <time>2024-08-31T09:36:25Z</time>
      </trkpt>
      <trkpt lat="42.693" lon="1.39614">
        <ele>2166.458</ele>
        <time>2024-08-31T09:36:27Z</time>
      </trkpt>
      <trkpt lat="42.693" lon="1.39614">
        <ele>2166.455</ele>
        <time>2024-08-31T09:36:29Z</time>
      </trkpt>
      <trkpt lat="42.693" lon="1.39614">
        <ele>2166.454</ele>
        <time>2024-08-31T09:36:31Z</time>
      </trkpt>
      <trkpt lat="42.693" lon="1.39614">
        <ele>2166.449</ele>
        <time>2024-08-31T09:36:33Z</time>
      </trkpt>
      <trkpt lat="42.693" lon="1.39614">
        <ele>2166.44</ele>
        <time>2024-08-31T09:36:35Z</time>
      </trkpt>
      <trkpt lat="42.693" lon="1.39614">
        <ele>2166.441</ele>
        <time>2024-08-31T09:36:37Z</time>
      </trkpt>
      <trkpt lat="42.693" lon="1.39614">
        <ele>2166.439</ele>
        <time>2024-08-31T09:36:39Z</time>
      </trkpt>
      <trkpt lat="42.693" lon="1.39614">
        <ele>2166.431</ele>
        <time>2024-08-31T09:36:41Z</time>
      </trkpt>
      <trkpt lat="42.693" lon="1.39614">
        <ele>2166.431</ele>
        <time>2024-08-31T09:36:43Z</time>
      </trkpt>
      <trkpt lat="42.693" lon="1.39614">
        <ele>2166.432</ele>
        <time>2024-08-31T09:36:45Z</time>
      </trkpt>
      <trkpt lat="42.693" lon="1.39614">
        <ele>2166.434</ele>
        <time>2024-08-31T09:36:47Z</time>
      </trkpt>
      <trkpt lat="42.693" lon="1.39614">
        <ele>2166.43</ele>
        <time>2024-08-31T09:36:49Z</time>
      </trkpt>
      <trkpt lat="42.693" lon="1.39614">
        <ele>2166.432</ele>
        <time>2024-08-31T09:36:51Z</time>
      </trkpt>
      <trkpt lat="42.693" lon="1.39614">
        <ele>2166.437</ele>
        <time>2024-08-31T09:36:53Z</time>
      </trkpt>
      <trkpt lat="42.69297" lon="1.39599">
        <ele>2166.437</ele>
        <time>2024-08-31T09:36:55Z</time>
      </trkpt>
      <trkpt lat="42.69297" lon="1.39599">
        <ele>2166.434</ele>
        <time>2024-08-31T09:36:57Z</time>
      </trkpt>
      <trkpt lat="42.69297" lon="1.39599">
        <ele>2166.43</ele>
        <time>2024-08-31T09:36:59Z</time>
      </trkpt>
      <trkpt lat="42.69297" lon="1.39599">
        <ele>2166.42</ele>
        <time>2024-08-31T09:37:01Z</time>
      </trkpt>
      <trkpt lat="42.69297" lon="1.39599">
        <ele>2166.416</ele>
        <time>2024-08-31T09:37:03Z</time>
      </trkpt>
      <trkpt lat="42.69297" lon="1.39599">
        <ele>2166.409</ele>
        <time>2024-08-31T09:37:05Z</time>
      </trkpt>
      <trkpt lat="42.69297" lon="1.39599">
        <ele>2166.411</ele>
        <time>2024-08-31T09:37:07Z</time>
      </trkpt>
      <trkpt lat="42.69297" lon="1.39599">
        <ele>2166.412</ele>
        <time>2024-08-31T09:37:09Z</time>
      </trkpt>
      <trkpt lat="42.69297" lon="1.39599">
        <ele>2166.408</ele>
        <time>2024-08-31T09:37:11Z</time>
      </trkpt>
      <trkpt lat="42.69297" lon="1.39599">
        <ele>2166.405</ele>
        <time>2024-08-31T09:37:13Z</time>
      </trkpt>
      <trkpt lat="42.69297" lon="1.39599">
        <ele>2166.414</ele>
        <time>2024-08-31T09:37:15Z</time>
      </trkpt>
      <trkpt lat="42.69297" lon="1.39599">
        <ele>2166.479</ele>
        <time>2024-08-31T09:37:17Z</time>
      </trkpt>
      <trkpt lat="42.69296" lon="1.39599">
        <ele>2166.708</ele>
        <time>2024-08-31T09:37:19Z</time>
      </trkpt>
      <trkpt lat="42.69295" lon="1.396">
        <ele>2167.03</ele>
        <time>2024-08-31T09:37:21Z</time>
      </trkpt>
      <trkpt lat="42.69294" lon="1.396">
        <ele>2167.356</ele>
        <time>2024-08-31T09:37:23Z</time>
      </trkpt>
      <trkpt lat="42.69293" lon="1.396">
        <ele>2167.481</ele>
        <time>2024-08-31T09:37:25Z</time>
      </trkpt>
      <trkpt lat="42.69292" lon="1.39599">
        <ele>2167.474</ele>
        <time>2024-08-31T09:37:27Z</time>
      </trkpt>
      <trkpt lat="42.69291" lon="1.396">
        <ele>2167.535</ele>
        <time>2024-08-31T09:37:29Z</time>
      </trkpt>
      <trkpt lat="42.6929" lon="1.396">
        <ele>2168.122</ele>
        <time>2024-08-31T09:37:31Z</time>
      </trkpt>
      <trkpt lat="42.6929" lon="1.396">
        <ele>2167.915</ele>
        <time>2024-08-31T09:37:33Z</time>
      </trkpt>
      <trkpt lat="42.69289" lon="1.39601">
        <ele>2167.631</ele>
        <time>2024-08-31T09:37:35Z</time>
      </trkpt>
      <trkpt lat="42.69289" lon="1.39601">
        <ele>2167.497</ele>
        <time>2024-08-31T09:37:37Z</time>
      </trkpt>
      <trkpt lat="42.69288" lon="1.39601">
        <ele>2167.65</ele>
        <time>2024-08-31T09:37:39Z</time>
      </trkpt>
      <trkpt lat="42.69287" lon="1.396">
        <ele>2168.304</ele>
        <time>2024-08-31T09:37:41Z</time>
      </trkpt>
      <trkpt lat="42.69286" lon="1.396">
        <ele>2168.418</ele>
        <time>2024-08-31T09:37:43Z</time>
      </trkpt>
      <trkpt lat="42.69286" lon="1.39598">
        <ele>2168.965</ele>
        <time>2024-08-31T09:37:45Z</time>
      </trkpt>
      <trkpt lat="42.69286" lon="1.39597">
        <ele>2169.445</ele>
        <time>2024-08-31T09:37:47Z</time>
      </trkpt>
      <trkpt lat="42.69286" lon="1.39596">
        <ele>2169.787</ele>
        <time>2024-08-31T09:37:49Z</time>
      </trkpt>
      <trkpt lat="42.69286" lon="1.39595">
        <ele>2169.861</ele>
        <time>2024-08-31T09:37:51Z</time>
      </trkpt>
      <trkpt lat="42.69286" lon="1.39595">
        <ele>2169.264</ele>
        <time>2024-08-31T09:37:53Z</time>
      </trkpt>
      <trkpt lat="42.69286" lon="1.39595">
        <ele>2169.256</ele>
        <time>2024-08-31T09:37:55Z</time>
      </trkpt>
      <trkpt lat="42.69286" lon="1.39595">
        <ele>2170.382</ele>
        <time>2024-08-31T09:37:57Z</time>
      </trkpt>
      <trkpt lat="42.69286" lon="1.39595">
        <ele>2170.676</ele>
        <time>2024-08-31T09:37:59Z</time>
      </trkpt>
      <trkpt lat="42.69286" lon="1.39595">
        <ele>2171.588</ele>
        <time>2024-08-31T09:38:01Z</time>
      </trkpt>
      <trkpt lat="42.69286" lon="1.39595">
        <ele>2171.805</ele>
        <time>2024-08-31T09:38:03Z</time>
      </trkpt>
      <trkpt lat="42.69286" lon="1.39595">
        <ele>2172.188</ele>
        <time>2024-08-31T09:38:05Z</time>
      </trkpt>
      <trkpt lat="42.69286" lon="1.39595">
        <ele>2171.381</ele>
        <time>2024-08-31T09:38:07Z</time>
      </trkpt>
      <trkpt lat="42.69286" lon="1.39595">
        <ele>2171.242</ele>
        <time>2024-08-31T09:38:09Z</time>
      </trkpt>
      <trkpt lat="42.69286" lon="1.39595">
        <ele>2171.13</ele>
        <time>2024-08-31T09:38:11Z</time>
      </trkpt>
      <trkpt lat="42.69286" lon="1.39595">
        <ele>2172.276</ele>
        <time>2024-08-31T09:38:13Z</time>
      </trkpt>
      <trkpt lat="42.69286" lon="1.39595">
        <ele>2173.388</ele>
        <time>2024-08-31T09:38:15Z</time>
      </trkpt>
      <trkpt lat="42.69286" lon="1.39595">
        <ele>2173.076</ele>
        <time>2024-08-31T09:38:17Z</time>
      </trkpt>
      <trkpt lat="42.69286" lon="1.39595">
        <ele>2173.555</ele>
        <time>2024-08-31T09:38:19Z</time>
      </trkpt>
      <trkpt lat="42.69286" lon="1.39595">
        <ele>2174.96</ele>
        <time>2024-08-31T09:38:21Z</time>
      </trkpt>
      <trkpt lat="42.69286" lon="1.39595">
        <ele>2174.958</ele>
        <time>2024-08-31T09:38:23Z</time>
      </trkpt>
      <trkpt lat="42.69286" lon="1.39595">
        <ele>2176.166</ele>
        <time>2024-08-31T09:38:25Z</time>
      </trkpt>
      <trkpt lat="42.69286" lon="1.39595">
        <ele>2176.217</ele>
        <time>2024-08-31T09:38:27Z</time>
      </trkpt>
      <trkpt lat="42.69286" lon="1.39595">
        <ele>2175.524</ele>
        <time>2024-08-31T09:38:29Z</time>
      </trkpt>
      <trkpt lat="42.69286" lon="1.39595">
        <ele>2175.543</ele>
        <time>2024-08-31T09:38:31Z</time>
      </trkpt>
      <trkpt lat="42.69286" lon="1.39595">
        <ele>2175.547</ele>
        <time>2024-08-31T09:38:33Z</time>
      </trkpt>
      <trkpt lat="42.69286" lon="1.39595">
        <ele>2175.543</ele>
        <time>2024-08-31T09:38:35Z</time>
      </trkpt>
      <trkpt lat="42.69286" lon="1.39595">
        <ele>2175.538</ele>
        <time>2024-08-31T09:38:37Z</time>
      </trkpt>
      <trkpt lat="42.69286" lon="1.39595">
        <ele>2175.535</ele>
        <time>2024-08-31T09:38:39Z</time>
      </trkpt>
      <trkpt lat="42.69286" lon="1.39595">
        <ele>2175.53</ele>
        <time>2024-08-31T09:38:41Z</time>
      </trkpt>
      <trkpt lat="42.69286" lon="1.39595">
        <ele>2175.291</ele>
        <time>2024-08-31T09:38:43Z</time>
      </trkpt>
      <trkpt lat="42.69286" lon="1.39595">
        <ele>2175.274</ele>
        <time>2024-08-31T09:38:45Z</time>
      </trkpt>
      <trkpt lat="42.69278" lon="1.39599">
        <ele>2174.606</ele>
        <time>2024-08-31T09:38:47Z</time>
      </trkpt>
      <trkpt lat="42.69277" lon="1.39598">
        <ele>2175.033</ele>
        <time>2024-08-31T09:38:49Z</time>
      </trkpt>
      <trkpt lat="42.69277" lon="1.39598">
        <ele>2174.661</ele>
        <time>2024-08-31T09:38:51Z</time>
      </trkpt>
      <trkpt lat="42.69276" lon="1.39596">
        <ele>2175.291</ele>
        <time>2024-08-31T09:38:53Z</time>
      </trkpt>
      <trkpt lat="42.69274" lon="1.39596">
        <ele>2175.83</ele>
        <time>2024-08-31T09:38:55Z</time>
      </trkpt>
      <trkpt lat="42.69274" lon="1.39597">
        <ele>2175.891</ele>
        <time>2024-08-31T09:38:57Z</time>
      </trkpt>
      <trkpt lat="42.69274" lon="1.39598">
        <ele>2176.785</ele>
        <time>2024-08-31T09:38:59Z</time>
      </trkpt>
      <trkpt lat="42.69273" lon="1.39598">
        <ele>2177.414</ele>
        <time>2024-08-31T09:39:01Z</time>
      </trkpt>
      <trkpt lat="42.69273" lon="1.39598">
        <ele>2176.901</ele>
        <time>2024-08-31T09:39:03Z</time>
      </trkpt>
      <trkpt lat="42.69272" lon="1.39597">
        <ele>2177.163</ele>
        <time>2024-08-31T09:39:05Z</time>
      </trkpt>
      <trkpt lat="42.69271" lon="1.39597">
        <ele>2178.783</ele>
        <time>2024-08-31T09:39:07Z</time>
      </trkpt>
      <trkpt lat="42.69271" lon="1.39597">
        <ele>2179.593</ele>
        <time>2024-08-31T09:39:09Z</time>
      </trkpt>
      <trkpt lat="42.69271" lon="1.39598">
        <ele>2180.093</ele>
        <time>2024-08-31T09:39:11Z</time>
      </trkpt>
      <trkpt lat="42.69271" lon="1.39598">
        <ele>2180.086</ele>
        <time>2024-08-31T09:39:13Z</time>
      </trkpt>
      <trkpt lat="42.69271" lon="1.39599">
        <ele>2180.57</ele>
        <time>2024-08-31T09:39:15Z</time>
      </trkpt>
      <trkpt lat="42.6927" lon="1.39598">
        <ele>2181.03</ele>
        <time>2024-08-31T09:39:17Z</time>
      </trkpt>
      <trkpt lat="42.6927" lon="1.39596">
        <ele>2181.811</ele>
        <time>2024-08-31T09:39:19Z</time>
      </trkpt>
      <trkpt lat="42.69269" lon="1.39595">
        <ele>2181.932</ele>
        <time>2024-08-31T09:39:21Z</time>
      </trkpt>
      <trkpt lat="42.69269" lon="1.39594">
        <ele>2182.307</ele>
        <time>2024-08-31T09:39:23Z</time>
      </trkpt>
      <trkpt lat="42.6927" lon="1.39592">
        <ele>2181.527</ele>
        <time>2024-08-31T09:39:25Z</time>
      </trkpt>
      <trkpt lat="42.69269" lon="1.39592">
        <ele>2181.899</ele>
        <time>2024-08-31T09:39:27Z</time>
      </trkpt>
      <trkpt lat="42.69269" lon="1.39591">
        <ele>2182.592</ele>
        <time>2024-08-31T09:39:29Z</time>
      </trkpt>
      <trkpt lat="42.69269" lon="1.39591">
        <ele>2182.61</ele>
        <time>2024-08-31T09:39:31Z</time>
      </trkpt>
      <trkpt lat="42.69269" lon="1.3959">
        <ele>2182.385</ele>
        <time>2024-08-31T09:39:33Z</time>
      </trkpt>
      <trkpt lat="42.69268" lon="1.3959">
        <ele>2183.357</ele>
        <time>2024-08-31T09:39:35Z</time>
      </trkpt>
      <trkpt lat="42.69267" lon="1.3959">
        <ele>2183.668</ele>
        <time>2024-08-31T09:39:37Z</time>
      </trkpt>
      <trkpt lat="42.69266" lon="1.3959">
        <ele>2184.81</ele>
        <time>2024-08-31T09:39:39Z</time>
      </trkpt>
      <trkpt lat="42.69266" lon="1.3959">
        <ele>2185.463</ele>
        <time>2024-08-31T09:39:41Z</time>
      </trkpt>
      <trkpt lat="42.69265" lon="1.39591">
        <ele>2185.548</ele>
        <time>2024-08-31T09:39:43Z</time>
      </trkpt>
      <trkpt lat="42.69265" lon="1.39592">
        <ele>2184.735</ele>
        <time>2024-08-31T09:39:45Z</time>
      </trkpt>
      <trkpt lat="42.69264" lon="1.39592">
        <ele>2184.422</ele>
        <time>2024-08-31T09:39:47Z</time>
      </trkpt>
      <trkpt lat="42.69263" lon="1.39591">
        <ele>2185.072</ele>
        <time>2024-08-31T09:39:49Z</time>
      </trkpt>
      <trkpt lat="42.69263" lon="1.3959">
        <ele>2185.412</ele>
        <time>2024-08-31T09:39:51Z</time>
      </trkpt>
      <trkpt lat="42.69262" lon="1.39588">
        <ele>2185.238</ele>
        <time>2024-08-31T09:39:53Z</time>
      </trkpt>
      <trkpt lat="42.69261" lon="1.39587">
        <ele>2185.942</ele>
        <time>2024-08-31T09:39:55Z</time>
      </trkpt>
      <trkpt lat="42.6926" lon="1.39587">
        <ele>2186.072</ele>
        <time>2024-08-31T09:39:57Z</time>
      </trkpt>
      <trkpt lat="42.69259" lon="1.39589">
        <ele>2185.651</ele>
        <time>2024-08-31T09:39:59Z</time>
      </trkpt>
      <trkpt lat="42.69259" lon="1.39589">
        <ele>2185.996</ele>
        <time>2024-08-31T09:40:01Z</time>
      </trkpt>
      <trkpt lat="42.69258" lon="1.39589">
        <ele>2185.709</ele>
        <time>2024-08-31T09:40:03Z</time>
      </trkpt>
      <trkpt lat="42.69256" lon="1.39587">
        <ele>2184.546</ele>
        <time>2024-08-31T09:40:05Z</time>
      </trkpt>
      <trkpt lat="42.69255" lon="1.39586">
        <ele>2183.982</ele>
        <time>2024-08-31T09:40:07Z</time>
      </trkpt>
      <trkpt lat="42.69255" lon="1.39586">
        <ele>2184.142</ele>
        <time>2024-08-31T09:40:09Z</time>
      </trkpt>
      <trkpt lat="42.69255" lon="1.39586">
        <ele>2184.221</ele>
        <time>2024-08-31T09:40:11Z</time>
      </trkpt>
      <trkpt lat="42.69255" lon="1.39585">
        <ele>2184.788</ele>
        <time>2024-08-31T09:40:13Z</time>
      </trkpt>
      <trkpt lat="42.69255" lon="1.39585">
        <ele>2184.997</ele>
        <time>2024-08-31T09:40:15Z</time>
      </trkpt>
      <trkpt lat="42.69255" lon="1.39585">
        <ele>2186.149</ele>
        <time>2024-08-31T09:40:17Z</time>
      </trkpt>
      <trkpt lat="42.69255" lon="1.39585">
        <ele>2185.601</ele>
        <time>2024-08-31T09:40:19Z</time>
      </trkpt>
      <trkpt lat="42.69255" lon="1.39585">
        <ele>2185.842</ele>
        <time>2024-08-31T09:40:21Z</time>
      </trkpt>
      <trkpt lat="42.69255" lon="1.39585">
        <ele>2185.896</ele>
        <time>2024-08-31T09:40:23Z</time>
      </trkpt>
      <trkpt lat="42.69255" lon="1.39585">
        <ele>2185.887</ele>
        <time>2024-08-31T09:40:25Z</time>
      </trkpt>
      <trkpt lat="42.69255" lon="1.39585">
        <ele>2185.89</ele>
        <time>2024-08-31T09:40:27Z</time>
      </trkpt>
      <trkpt lat="42.69255" lon="1.39585">
        <ele>2186.266</ele>
        <time>2024-08-31T09:40:29Z</time>
      </trkpt>
      <trkpt lat="42.69255" lon="1.39585">
        <ele>2186.075</ele>
        <time>2024-08-31T09:40:31Z</time>
      </trkpt>
      <trkpt lat="42.69255" lon="1.39585">
        <ele>2185.649</ele>
        <time>2024-08-31T09:40:33Z</time>
      </trkpt>
      <trkpt lat="42.69255" lon="1.39585">
        <ele>2184.658</ele>
        <time>2024-08-31T09:40:35Z</time>
      </trkpt>
      <trkpt lat="42.69255" lon="1.39585">
        <ele>2184.096</ele>
        <time>2024-08-31T09:40:37Z</time>
      </trkpt>
      <trkpt lat="42.69255" lon="1.39585">
        <ele>2183.64</ele>
        <time>2024-08-31T09:40:39Z</time>
      </trkpt>
      <trkpt lat="42.69255" lon="1.39585">
        <ele>2183.774</ele>
        <time>2024-08-31T09:40:41Z</time>
      </trkpt>
      <trkpt lat="42.69255" lon="1.39585">
        <ele>2184.465</ele>
        <time>2024-08-31T09:40:43Z</time>
      </trkpt>
      <trkpt lat="42.69255" lon="1.39585">
        <ele>2184.869</ele>
        <time>2024-08-31T09:40:45Z</time>
      </trkpt>
      <trkpt lat="42.69255" lon="1.39585">
        <ele>2184.994</ele>
        <time>2024-08-31T09:40:47Z</time>
      </trkpt>
      <trkpt lat="42.69255" lon="1.39585">
        <ele>2185.51</ele>
        <time>2024-08-31T09:40:49Z</time>
      </trkpt>
      <trkpt lat="42.69255" lon="1.39585">
        <ele>2186.377</ele>
        <time>2024-08-31T09:40:51Z</time>
      </trkpt>
      <trkpt lat="42.69247" lon="1.39577">
        <ele>2186.388</ele>
        <time>2024-08-31T09:40:53Z</time>
      </trkpt>
      <trkpt lat="42.69247" lon="1.39576">
        <ele>2186.649</ele>
        <time>2024-08-31T09:40:55Z</time>
      </trkpt>
      <trkpt lat="42.69246" lon="1.39576">
        <ele>2187.381</ele>
        <time>2024-08-31T09:40:57Z</time>
      </trkpt>
      <trkpt lat="42.69245" lon="1.39575">
        <ele>2188.173</ele>
        <time>2024-08-31T09:40:59Z</time>
      </trkpt>
      <trkpt lat="42.69245" lon="1.39575">
        <ele>2189.667</ele>
        <time>2024-08-31T09:41:01Z</time>
      </trkpt>
      <trkpt lat="42.69244" lon="1.39574">
        <ele>2189.698</ele>
        <time>2024-08-31T09:41:03Z</time>
      </trkpt>
      <trkpt lat="42.69244" lon="1.39573">
        <ele>2189.673</ele>
        <time>2024-08-31T09:41:05Z</time>
      </trkpt>
      <trkpt lat="42.69244" lon="1.39573">
        <ele>2190.316</ele>
        <time>2024-08-31T09:41:07Z</time>
      </trkpt>
      <trkpt lat="42.69243" lon="1.39572">
        <ele>2190.404</ele>
        <time>2024-08-31T09:41:09Z</time>
      </trkpt>
      <trkpt lat="42.69243" lon="1.39572">
        <ele>2189.907</ele>
        <time>2024-08-31T09:41:11Z</time>
      </trkpt>
      <trkpt lat="42.69243" lon="1.39571">
        <ele>2190.212</ele>
        <time>2024-08-31T09:41:13Z</time>
      </trkpt>
      <trkpt lat="42.69243" lon="1.3957">
        <ele>2190.276</ele>
        <time>2024-08-31T09:41:15Z</time>
      </trkpt>
      <trkpt lat="42.69243" lon="1.39569">
        <ele>2190.755</ele>
        <time>2024-08-31T09:41:17Z</time>
      </trkpt>
      <trkpt lat="42.69242" lon="1.39568">
        <ele>2190.947</ele>
        <time>2024-08-31T09:41:19Z</time>
      </trkpt>
      <trkpt lat="42.69242" lon="1.39568">
        <ele>2191.73</ele>
        <time>2024-08-31T09:41:21Z</time>
      </trkpt>
      <trkpt lat="42.69242" lon="1.39568">
        <ele>2191.74</ele>
        <time>2024-08-31T09:41:23Z</time>
      </trkpt>
      <trkpt lat="42.69242" lon="1.39568">
        <ele>2191.86</ele>
        <time>2024-08-31T09:41:25Z</time>
      </trkpt>
      <trkpt lat="42.69242" lon="1.39568">
        <ele>2191.856</ele>
        <time>2024-08-31T09:41:27Z</time>
      </trkpt>
      <trkpt lat="42.69242" lon="1.39568">
        <ele>2192.092</ele>
        <time>2024-08-31T09:41:29Z</time>
      </trkpt>
      <trkpt lat="42.69242" lon="1.39568">
        <ele>2192.514</ele>
        <time>2024-08-31T09:41:31Z</time>
      </trkpt>
      <trkpt lat="42.69241" lon="1.39569">
        <ele>2192.485</ele>
        <time>2024-08-31T09:41:33Z</time>
      </trkpt>
      <trkpt lat="42.6924" lon="1.39569">
        <ele>2192.692</ele>
        <time>2024-08-31T09:41:35Z</time>
      </trkpt>
      <trkpt lat="42.6924" lon="1.39569">
        <ele>2192.632</ele>
        <time>2024-08-31T09:41:37Z</time>
      </trkpt>
      <trkpt lat="42.69239" lon="1.39569">
        <ele>2193.048</ele>
        <time>2024-08-31T09:41:39Z</time>
      </trkpt>
      <trkpt lat="42.69238" lon="1.39569">
        <ele>2193.743</ele>
        <time>2024-08-31T09:41:41Z</time>
      </trkpt>
      <trkpt lat="42.69238" lon="1.39569">
        <ele>2194.042</ele>
        <time>2024-08-31T09:41:43Z</time>
      </trkpt>
      <trkpt lat="42.69237" lon="1.39569">
        <ele>2194.415</ele>
        <time>2024-08-31T09:41:45Z</time>
      </trkpt>
      <trkpt lat="42.69237" lon="1.39569">
        <ele>2194.699</ele>
        <time>2024-08-31T09:41:47Z</time>
      </trkpt>
      <trkpt lat="42.69237" lon="1.39569">
        <ele>2195.041</ele>
        <time>2024-08-31T09:41:49Z</time>
      </trkpt>
      <trkpt lat="42.69236" lon="1.39568">
        <ele>2195.51</ele>
        <time>2024-08-31T09:41:51Z</time>
      </trkpt>
      <trkpt lat="42.69236" lon="1.39568">
        <ele>2195.645</ele>
        <time>2024-08-31T09:41:53Z</time>
      </trkpt>
      <trkpt lat="42.69235" lon="1.39567">
        <ele>2195.175</ele>
        <time>2024-08-31T09:41:55Z</time>
      </trkpt>
      <trkpt lat="42.69234" lon="1.39567">
        <ele>2195.435</ele>
        <time>2024-08-31T09:41:57Z</time>
      </trkpt>
      <trkpt lat="42.69233" lon="1.39566">
        <ele>2195.125</ele>
        <time>2024-08-31T09:41:59Z</time>
      </trkpt>
      <trkpt lat="42.69233" lon="1.39565">
        <ele>2195.111</ele>
        <time>2024-08-31T09:42:01Z</time>
      </trkpt>
      <trkpt lat="42.69232" lon="1.39564">
        <ele>2195.62</ele>
        <time>2024-08-31T09:42:03Z</time>
      </trkpt>
      <trkpt lat="42.69231" lon="1.39563">
        <ele>2196.519</ele>
        <time>2024-08-31T09:42:05Z</time>
      </trkpt>
      <trkpt lat="42.69231" lon="1.39564">
        <ele>2196.094</ele>
        <time>2024-08-31T09:42:07Z</time>
      </trkpt>
      <trkpt lat="42.6923" lon="1.39564">
        <ele>2197.178</ele>
        <time>2024-08-31T09:42:09Z</time>
      </trkpt>
      <trkpt lat="42.6923" lon="1.39563">
        <ele>2197.344</ele>
        <time>2024-08-31T09:42:11Z</time>
      </trkpt>
      <trkpt lat="42.69229" lon="1.39563">
        <ele>2197.923</ele>
        <time>2024-08-31T09:42:13Z</time>
      </trkpt>
      <trkpt lat="42.69228" lon="1.39564">
        <ele>2199.163</ele>
        <time>2024-08-31T09:42:15Z</time>
      </trkpt>
      <trkpt lat="42.69228" lon="1.39564">
        <ele>2199.401</ele>
        <time>2024-08-31T09:42:17Z</time>
      </trkpt>
      <trkpt lat="42.69227" lon="1.39564">
        <ele>2199.463</ele>
        <time>2024-08-31T09:42:19Z</time>
      </trkpt>
      <trkpt lat="42.69227" lon="1.39564">
        <ele>2199.901</ele>
        <time>2024-08-31T09:42:21Z</time>
      </trkpt>
      <trkpt lat="42.69226" lon="1.39563">
        <ele>2200.776</ele>
        <time>2024-08-31T09:42:23Z</time>
      </trkpt>
      <trkpt lat="42.69226" lon="1.39562">
        <ele>2200.155</ele>
        <time>2024-08-31T09:42:25Z</time>
      </trkpt>
      <trkpt lat="42.69226" lon="1.3956">
        <ele>2200.367</ele>
        <time>2024-08-31T09:42:27Z</time>
      </trkpt>
      <trkpt lat="42.69226" lon="1.39559">
        <ele>2200.72</ele>
        <time>2024-08-31T09:42:29Z</time>
      </trkpt>
      <trkpt lat="42.69225" lon="1.39559">
        <ele>2201.569</ele>
        <time>2024-08-31T09:42:31Z</time>
      </trkpt>
      <trkpt lat="42.69225" lon="1.39558">
        <ele>2201.888</ele>
        <time>2024-08-31T09:42:33Z</time>
      </trkpt>
      <trkpt lat="42.69224" lon="1.39559">
        <ele>2202.176</ele>
        <time>2024-08-31T09:42:35Z</time>
      </trkpt>
      <trkpt lat="42.69224" lon="1.39559">
        <ele>2202.65</ele>
        <time>2024-08-31T09:42:37Z</time>
      </trkpt>
      <trkpt lat="42.69224" lon="1.3956">
        <ele>2202.764</ele>
        <time>2024-08-31T09:42:39Z</time>
      </trkpt>
      <trkpt lat="42.69224" lon="1.39559">
        <ele>2202.922</ele>
        <time>2024-08-31T09:42:41Z</time>
      </trkpt>
      <trkpt lat="42.69223" lon="1.39559">
        <ele>2203.156</ele>
        <time>2024-08-31T09:42:43Z</time>
      </trkpt>
      <trkpt lat="42.69223" lon="1.39558">
        <ele>2203.342</ele>
        <time>2024-08-31T09:42:45Z</time>
      </trkpt>
      <trkpt lat="42.69223" lon="1.39558">
        <ele>2203.35</ele>
        <time>2024-08-31T09:42:47Z</time>
      </trkpt>
      <trkpt lat="42.69223" lon="1.39557">
        <ele>2203.482</ele>
        <time>2024-08-31T09:42:49Z</time>
      </trkpt>
      <trkpt lat="42.69222" lon="1.39556">
        <ele>2203.494</ele>
        <time>2024-08-31T09:42:51Z</time>
      </trkpt>
      <trkpt lat="42.69221" lon="1.39556">
        <ele>2203.547</ele>
        <time>2024-08-31T09:42:53Z</time>
      </trkpt>
      <trkpt lat="42.69221" lon="1.39557">
        <ele>2203.893</ele>
        <time>2024-08-31T09:42:55Z</time>
      </trkpt>
      <trkpt lat="42.6922" lon="1.39557">
        <ele>2204.171</ele>
        <time>2024-08-31T09:42:57Z</time>
      </trkpt>
      <trkpt lat="42.6922" lon="1.39557">
        <ele>2204.187</ele>
        <time>2024-08-31T09:42:59Z</time>
      </trkpt>
      <trkpt lat="42.6922" lon="1.39557">
        <ele>2204.069</ele>
        <time>2024-08-31T09:43:01Z</time>
      </trkpt>
      <trkpt lat="42.69219" lon="1.39557">
        <ele>2203.964</ele>
        <time>2024-08-31T09:43:03Z</time>
      </trkpt>
      <trkpt lat="42.69218" lon="1.39555">
        <ele>2204.206</ele>
        <time>2024-08-31T09:43:05Z</time>
      </trkpt>
      <trkpt lat="42.69217" lon="1.39555">
        <ele>2205.198</ele>
        <time>2024-08-31T09:43:07Z</time>
      </trkpt>
      <trkpt lat="42.69216" lon="1.39556">
        <ele>2205.551</ele>
        <time>2024-08-31T09:43:09Z</time>
      </trkpt>
      <trkpt lat="42.69215" lon="1.39556">
        <ele>2205.648</ele>
        <time>2024-08-31T09:43:11Z</time>
      </trkpt>
      <trkpt lat="42.69215" lon="1.39557">
        <ele>2205.761</ele>
        <time>2024-08-31T09:43:13Z</time>
      </trkpt>
      <trkpt lat="42.69214" lon="1.39558">
        <ele>2205.678</ele>
        <time>2024-08-31T09:43:15Z</time>
      </trkpt>
      <trkpt lat="42.69214" lon="1.39558">
        <ele>2205.641</ele>
        <time>2024-08-31T09:43:17Z</time>
      </trkpt>
      <trkpt lat="42.69214" lon="1.39559">
        <ele>2205.943</ele>
        <time>2024-08-31T09:43:19Z</time>
      </trkpt>
      <trkpt lat="42.69214" lon="1.39559">
        <ele>2206.062</ele>
        <time>2024-08-31T09:43:21Z</time>
      </trkpt>
      <trkpt lat="42.69213" lon="1.39559">
        <ele>2206.368</ele>
        <time>2024-08-31T09:43:23Z</time>
      </trkpt>
      <trkpt lat="42.69212" lon="1.39559">
        <ele>2205.766</ele>
        <time>2024-08-31T09:43:25Z</time>
      </trkpt>
      <trkpt lat="42.69211" lon="1.3956">
        <ele>2205.756</ele>
        <time>2024-08-31T09:43:27Z</time>
      </trkpt>
      <trkpt lat="42.6921" lon="1.3956">
        <ele>2205.722</ele>
        <time>2024-08-31T09:43:29Z</time>
      </trkpt>
      <trkpt lat="42.6921" lon="1.39561">
        <ele>2205.395</ele>
        <time>2024-08-31T09:43:31Z</time>
      </trkpt>
      <trkpt lat="42.69209" lon="1.39562">
        <ele>2205.502</ele>
        <time>2024-08-31T09:43:33Z</time>
      </trkpt>
      <trkpt lat="42.69209" lon="1.39563">
        <ele>2205.482</ele>
        <time>2024-08-31T09:43:35Z</time>
      </trkpt>
      <trkpt lat="42.69209" lon="1.39564">
        <ele>2205.142</ele>
        <time>2024-08-31T09:43:37Z</time>
      </trkpt>
      <trkpt lat="42.69208" lon="1.39565">
        <ele>2206.394</ele>
        <time>2024-08-31T09:43:39Z</time>
      </trkpt>
      <trkpt lat="42.69207" lon="1.39566">
        <ele>2207.952</ele>
        <time>2024-08-31T09:43:41Z</time>
      </trkpt>
      <trkpt lat="42.69207" lon="1.39566">
        <ele>2208.4</ele>
        <time>2024-08-31T09:43:43Z</time>
      </trkpt>
      <trkpt lat="42.69206" lon="1.39566">
        <ele>2209.114</ele>
        <time>2024-08-31T09:43:45Z</time>
      </trkpt>
      <trkpt lat="42.69205" lon="1.39566">
        <ele>2209.633</ele>
        <time>2024-08-31T09:43:47Z</time>
      </trkpt>
      <trkpt lat="42.69204" lon="1.39565">
        <ele>2209.746</ele>
        <time>2024-08-31T09:43:49Z</time>
      </trkpt>
      <trkpt lat="42.69204" lon="1.39565">
        <ele>2210.406</ele>
        <time>2024-08-31T09:43:51Z</time>
      </trkpt>
      <trkpt lat="42.69203" lon="1.39565">
        <ele>2210.776</ele>
        <time>2024-08-31T09:43:53Z</time>
      </trkpt>
      <trkpt lat="42.69202" lon="1.39565">
        <ele>2210.794</ele>
        <time>2024-08-31T09:43:55Z</time>
      </trkpt>
      <trkpt lat="42.69201" lon="1.39565">
        <ele>2211.3</ele>
        <time>2024-08-31T09:43:57Z</time>
      </trkpt>
      <trkpt lat="42.69201" lon="1.39565">
        <ele>2211.886</ele>
        <time>2024-08-31T09:43:59Z</time>
      </trkpt>
      <trkpt lat="42.69199" lon="1.39565">
        <ele>2211.516</ele>
        <time>2024-08-31T09:44:01Z</time>
      </trkpt>
      <trkpt lat="42.69199" lon="1.39566">
        <ele>2211.353</ele>
        <time>2024-08-31T09:44:03Z</time>
      </trkpt>
      <trkpt lat="42.69198" lon="1.39567">
        <ele>2211.367</ele>
        <time>2024-08-31T09:44:05Z</time>
      </trkpt>
      <trkpt lat="42.69197" lon="1.39567">
        <ele>2210.982</ele>
        <time>2024-08-31T09:44:07Z</time>
      </trkpt>
      <trkpt lat="42.69196" lon="1.39568">
        <ele>2211.721</ele>
        <time>2024-08-31T09:44:09Z</time>
      </trkpt>
      <trkpt lat="42.69196" lon="1.39568">
        <ele>2211.517</ele>
        <time>2024-08-31T09:44:11Z</time>
      </trkpt>
      <trkpt lat="42.69195" lon="1.39568">
        <ele>2211.554</ele>
        <time>2024-08-31T09:44:13Z</time>
      </trkpt>
      <trkpt lat="42.69195" lon="1.39567">
        <ele>2212.056</ele>
        <time>2024-08-31T09:44:15Z</time>
      </trkpt>
      <trkpt lat="42.69194" lon="1.39567">
        <ele>2213.006</ele>
        <time>2024-08-31T09:44:17Z</time>
      </trkpt>
      <trkpt lat="42.69193" lon="1.39566">
        <ele>2213.242</ele>
        <time>2024-08-31T09:44:19Z</time>
      </trkpt>
      <trkpt lat="42.69193" lon="1.39565">
        <ele>2213.401</ele>
        <time>2024-08-31T09:44:21Z</time>
      </trkpt>
      <trkpt lat="42.69192" lon="1.39565">
        <ele>2213.26</ele>
        <time>2024-08-31T09:44:23Z</time>
      </trkpt>
      <trkpt lat="42.69191" lon="1.39563">
        <ele>2213.566</ele>
        <time>2024-08-31T09:44:25Z</time>
      </trkpt>
      <trkpt lat="42.69192" lon="1.39563">
        <ele>2213.478</ele>
        <time>2024-08-31T09:44:27Z</time>
      </trkpt>
      <trkpt lat="42.69192" lon="1.39563">
        <ele>2213.938</ele>
        <time>2024-08-31T09:44:29Z</time>
      </trkpt>
      <trkpt lat="42.69192" lon="1.39563">
        <ele>2213.724</ele>
        <time>2024-08-31T09:44:31Z</time>
      </trkpt>
      <trkpt lat="42.69192" lon="1.39563">
        <ele>2213.485</ele>
        <time>2024-08-31T09:44:33Z</time>
      </trkpt>
      <trkpt lat="42.69192" lon="1.39563">
        <ele>2213.489</ele>
        <time>2024-08-31T09:44:35Z</time>
      </trkpt>
      <trkpt lat="42.6919" lon="1.39563">
        <ele>2213.496</ele>
        <time>2024-08-31T09:44:37Z</time>
      </trkpt>
      <trkpt lat="42.6919" lon="1.39563">
        <ele>2213.65</ele>
        <time>2024-08-31T09:44:39Z</time>
      </trkpt>
      <trkpt lat="42.69189" lon="1.39562">
        <ele>2214.184</ele>
        <time>2024-08-31T09:44:41Z</time>
      </trkpt>
      <trkpt lat="42.69189" lon="1.39562">
        <ele>2214.25</ele>
        <time>2024-08-31T09:44:43Z</time>
      </trkpt>
      <trkpt lat="42.69188" lon="1.39562">
        <ele>2214.589</ele>
        <time>2024-08-31T09:44:45Z</time>
      </trkpt>
      <trkpt lat="42.69187" lon="1.39561">
        <ele>2215.809</ele>
        <time>2024-08-31T09:44:47Z</time>
      </trkpt>
      <trkpt lat="42.69186" lon="1.39561">
        <ele>2215.921</ele>
        <time>2024-08-31T09:44:49Z</time>
      </trkpt>
      <trkpt lat="42.69185" lon="1.39562">
        <ele>2216.392</ele>
        <time>2024-08-31T09:44:51Z</time>
      </trkpt>
      <trkpt lat="42.69185" lon="1.39563">
        <ele>2216.631</ele>
        <time>2024-08-31T09:44:53Z</time>
      </trkpt>
      <trkpt lat="42.69184" lon="1.39564">
        <ele>2215.94</ele>
        <time>2024-08-31T09:44:55Z</time>
      </trkpt>
      <trkpt lat="42.69184" lon="1.39564">
        <ele>2216.335</ele>
        <time>2024-08-31T09:44:57Z</time>
      </trkpt>
      <trkpt lat="42.69183" lon="1.39564">
        <ele>2217.155</ele>
        <time>2024-08-31T09:44:59Z</time>
      </trkpt>
      <trkpt lat="42.69182" lon="1.39565">
        <ele>2217.578</ele>
        <time>2024-08-31T09:45:01Z</time>
      </trkpt>
      <trkpt lat="42.69181" lon="1.39565">
        <ele>2218.192</ele>
        <time>2024-08-31T09:45:03Z</time>
      </trkpt>
      <trkpt lat="42.6918" lon="1.39566">
        <ele>2217.943</ele>
        <time>2024-08-31T09:45:05Z</time>
      </trkpt>
      <trkpt lat="42.69179" lon="1.39566">
        <ele>2217.731</ele>
        <time>2024-08-31T09:45:07Z</time>
      </trkpt>
      <trkpt lat="42.69179" lon="1.39565">
        <ele>2218.247</ele>
        <time>2024-08-31T09:45:09Z</time>
      </trkpt>
      <trkpt lat="42.69179" lon="1.39565">
        <ele>2218.809</ele>
        <time>2024-08-31T09:45:11Z</time>
      </trkpt>
      <trkpt lat="42.69177" lon="1.39565">
        <ele>2218.601</ele>
        <time>2024-08-31T09:45:13Z</time>
      </trkpt>
      <trkpt lat="42.69176" lon="1.39564">
        <ele>2218.542</ele>
        <time>2024-08-31T09:45:15Z</time>
      </trkpt>
      <trkpt lat="42.69176" lon="1.39564">
        <ele>2218.686</ele>
        <time>2024-08-31T09:45:17Z</time>
      </trkpt>
      <trkpt lat="42.69175" lon="1.39565">
        <ele>2218.585</ele>
        <time>2024-08-31T09:45:19Z</time>
      </trkpt>
      <trkpt lat="42.69174" lon="1.39565">
        <ele>2218.932</ele>
        <time>2024-08-31T09:45:21Z</time>
      </trkpt>
      <trkpt lat="42.69174" lon="1.39565">
        <ele>2218.749</ele>
        <time>2024-08-31T09:45:23Z</time>
      </trkpt>
      <trkpt lat="42.69174" lon="1.39565">
        <ele>2218.798</ele>
        <time>2024-08-31T09:45:25Z</time>
      </trkpt>
      <trkpt lat="42.69173" lon="1.39565">
        <ele>2219.829</ele>
        <time>2024-08-31T09:45:27Z</time>
      </trkpt>
      <trkpt lat="42.69172" lon="1.39565">
        <ele>2219.13</ele>
        <time>2024-08-31T09:45:29Z</time>
      </trkpt>
      <trkpt lat="42.69172" lon="1.39565">
        <ele>2220.062</ele>
        <time>2024-08-31T09:45:31Z</time>
      </trkpt>
      <trkpt lat="42.69172" lon="1.39564">
        <ele>2220.065</ele>
        <time>2024-08-31T09:45:33Z</time>
      </trkpt>
      <trkpt lat="42.69172" lon="1.39564">
        <ele>2220.065</ele>
        <time>2024-08-31T09:45:35Z</time>
      </trkpt>
      <trkpt lat="42.69172" lon="1.39564">
        <ele>2220.066</ele>
        <time>2024-08-31T09:45:37Z</time>
      </trkpt>
      <trkpt lat="42.69172" lon="1.39564">
        <ele>2220.37</ele>
        <time>2024-08-31T09:45:39Z</time>
      </trkpt>
      <trkpt lat="42.6917" lon="1.39564">
        <ele>2220.11</ele>
        <time>2024-08-31T09:45:41Z</time>
      </trkpt>
      <trkpt lat="42.69169" lon="1.39564">
        <ele>2219.583</ele>
        <time>2024-08-31T09:45:43Z</time>
      </trkpt>
      <trkpt lat="42.69168" lon="1.39564">
        <ele>2220.054</ele>
        <time>2024-08-31T09:45:45Z</time>
      </trkpt>
      <trkpt lat="42.69168" lon="1.39565">
        <ele>2220.061</ele>
        <time>2024-08-31T09:45:47Z</time>
      </trkpt>
      <trkpt lat="42.69168" lon="1.39565">
        <ele>2220.064</ele>
        <time>2024-08-31T09:45:49Z</time>
      </trkpt>
      <trkpt lat="42.69168" lon="1.39565">
        <ele>2220.144</ele>
        <time>2024-08-31T09:45:51Z</time>
      </trkpt>
      <trkpt lat="42.69168" lon="1.39565">
        <ele>2220.17</ele>
        <time>2024-08-31T09:45:53Z</time>
      </trkpt>
      <trkpt lat="42.69168" lon="1.39565">
        <ele>2220.168</ele>
        <time>2024-08-31T09:45:55Z</time>
      </trkpt>
      <trkpt lat="42.69168" lon="1.39565">
        <ele>2220.168</ele>
        <time>2024-08-31T09:45:57Z</time>
      </trkpt>
      <trkpt lat="42.69168" lon="1.39565">
        <ele>2220.167</ele>
        <time>2024-08-31T09:45:59Z</time>
      </trkpt>
      <trkpt lat="42.69168" lon="1.39565">
        <ele>2220.496</ele>
        <time>2024-08-31T09:46:01Z</time>
      </trkpt>
      <trkpt lat="42.69168" lon="1.39565">
        <ele>2220.491</ele>
        <time>2024-08-31T09:46:03Z</time>
      </trkpt>
      <trkpt lat="42.69168" lon="1.39565">
        <ele>2220.491</ele>
        <time>2024-08-31T09:46:05Z</time>
      </trkpt>
      <trkpt lat="42.69168" lon="1.39565">
        <ele>2220.492</ele>
        <time>2024-08-31T09:46:07Z</time>
      </trkpt>
      <trkpt lat="42.69168" lon="1.39565">
        <ele>2220.492</ele>
        <time>2024-08-31T09:46:09Z</time>
      </trkpt>
      <trkpt lat="42.69168" lon="1.39565">
        <ele>2220.489</ele>
        <time>2024-08-31T09:46:11Z</time>
      </trkpt>
      <trkpt lat="42.69168" lon="1.39565">
        <ele>2220.351</ele>
        <time>2024-08-31T09:46:13Z</time>
      </trkpt>
      <trkpt lat="42.69168" lon="1.39565">
        <ele>2220.888</ele>
        <time>2024-08-31T09:46:15Z</time>
      </trkpt>
      <trkpt lat="42.69167" lon="1.39566">
        <ele>2220.999</ele>
        <time>2024-08-31T09:46:17Z</time>
      </trkpt>
      <trkpt lat="42.69165" lon="1.39566">
        <ele>2221.756</ele>
        <time>2024-08-31T09:46:19Z</time>
      </trkpt>
      <trkpt lat="42.69165" lon="1.39567">
        <ele>2221.852</ele>
        <time>2024-08-31T09:46:21Z</time>
      </trkpt>
      <trkpt lat="42.69164" lon="1.39567">
        <ele>2222.151</ele>
        <time>2024-08-31T09:46:23Z</time>
      </trkpt>
      <trkpt lat="42.69163" lon="1.39566">
        <ele>2222.854</ele>
        <time>2024-08-31T09:46:25Z</time>
      </trkpt>
      <trkpt lat="42.69162" lon="1.39565">
        <ele>2222.559</ele>
        <time>2024-08-31T09:46:27Z</time>
      </trkpt>
      <trkpt lat="42.69161" lon="1.39564">
        <ele>2222.538</ele>
        <time>2024-08-31T09:46:29Z</time>
      </trkpt>
      <trkpt lat="42.6916" lon="1.39564">
        <ele>2223.002</ele>
        <time>2024-08-31T09:46:31Z</time>
      </trkpt>
      <trkpt lat="42.69159" lon="1.39564">
        <ele>2223.555</ele>
        <time>2024-08-31T09:46:33Z</time>
      </trkpt>
      <trkpt lat="42.69158" lon="1.39565">
        <ele>2224.207</ele>
        <time>2024-08-31T09:46:35Z</time>
      </trkpt>
      <trkpt lat="42.69157" lon="1.39565">
        <ele>2224.477</ele>
        <time>2024-08-31T09:46:37Z</time>
      </trkpt>
      <trkpt lat="42.69156" lon="1.39566">
        <ele>2223.619</ele>
        <time>2024-08-31T09:46:39Z</time>
      </trkpt>
      <trkpt lat="42.69156" lon="1.39566">
        <ele>2223.593</ele>
        <time>2024-08-31T09:46:41Z</time>
      </trkpt>
      <trkpt lat="42.69156" lon="1.39566">
        <ele>2223.585</ele>
        <time>2024-08-31T09:46:43Z</time>
      </trkpt>
      <trkpt lat="42.69155" lon="1.39566">
        <ele>2223.575</ele>
        <time>2024-08-31T09:46:45Z</time>
      </trkpt>
      <trkpt lat="42.69154" lon="1.39566">
        <ele>2224.169</ele>
        <time>2024-08-31T09:46:47Z</time>
      </trkpt>
      <trkpt lat="42.69153" lon="1.39567">
        <ele>2224.621</ele>
        <time>2024-08-31T09:46:49Z</time>
      </trkpt>
      <trkpt lat="42.69153" lon="1.39567">
        <ele>2224.595</ele>
        <time>2024-08-31T09:46:51Z</time>
      </trkpt>
      <trkpt lat="42.69152" lon="1.39567">
        <ele>2225.58</ele>
        <time>2024-08-31T09:46:53Z</time>
      </trkpt>
      <trkpt lat="42.69151" lon="1.39567">
        <ele>2225.796</ele>
        <time>2024-08-31T09:46:55Z</time>
      </trkpt>
      <trkpt lat="42.6915" lon="1.39568">
        <ele>2225.61</ele>
        <time>2024-08-31T09:46:57Z</time>
      </trkpt>
      <trkpt lat="42.69149" lon="1.39569">
        <ele>2226.028</ele>
        <time>2024-08-31T09:46:59Z</time>
      </trkpt>
      <trkpt lat="42.69148" lon="1.3957">
        <ele>2226.05</ele>
        <time>2024-08-31T09:47:01Z</time>
      </trkpt>
      <trkpt lat="42.69147" lon="1.39571">
        <ele>2226.922</ele>
        <time>2024-08-31T09:47:03Z</time>
      </trkpt>
      <trkpt lat="42.69146" lon="1.39572">
        <ele>2226.611</ele>
        <time>2024-08-31T09:47:05Z</time>
      </trkpt>
      <trkpt lat="42.69146" lon="1.39572">
        <ele>2226.795</ele>
        <time>2024-08-31T09:47:07Z</time>
      </trkpt>
      <trkpt lat="42.69145" lon="1.39573">
        <ele>2226.253</ele>
        <time>2024-08-31T09:47:09Z</time>
      </trkpt>
      <trkpt lat="42.69145" lon="1.39574">
        <ele>2226.505</ele>
        <time>2024-08-31T09:47:11Z</time>
      </trkpt>
      <trkpt lat="42.69145" lon="1.39574">
        <ele>2226.502</ele>
        <time>2024-08-31T09:47:13Z</time>
      </trkpt>
      <trkpt lat="42.69145" lon="1.39574">
        <ele>2226.502</ele>
        <time>2024-08-31T09:47:15Z</time>
      </trkpt>
      <trkpt lat="42.69145" lon="1.39574">
        <ele>2226.496</ele>
        <time>2024-08-31T09:47:17Z</time>
      </trkpt>
      <trkpt lat="42.69145" lon="1.39574">
        <ele>2226.494</ele>
        <time>2024-08-31T09:47:19Z</time>
      </trkpt>
      <trkpt lat="42.69145" lon="1.39574">
        <ele>2226.487</ele>
        <time>2024-08-31T09:47:21Z</time>
      </trkpt>
      <trkpt lat="42.69145" lon="1.39574">
        <ele>2226.477</ele>
        <time>2024-08-31T09:47:23Z</time>
      </trkpt>
      <trkpt lat="42.69145" lon="1.39574">
        <ele>2226.465</ele>
        <time>2024-08-31T09:47:25Z</time>
      </trkpt>
      <trkpt lat="42.69145" lon="1.39574">
        <ele>2226.508</ele>
        <time>2024-08-31T09:47:27Z</time>
      </trkpt>
      <trkpt lat="42.69145" lon="1.39574">
        <ele>2226.791</ele>
        <time>2024-08-31T09:47:29Z</time>
      </trkpt>
      <trkpt lat="42.69145" lon="1.39574">
        <ele>2226.837</ele>
        <time>2024-08-31T09:47:31Z</time>
      </trkpt>
      <trkpt lat="42.69145" lon="1.39574">
        <ele>2227.08</ele>
        <time>2024-08-31T09:47:33Z</time>
      </trkpt>
      <trkpt lat="42.69145" lon="1.39574">
        <ele>2226.381</ele>
        <time>2024-08-31T09:47:35Z</time>
      </trkpt>
      <trkpt lat="42.69145" lon="1.39574">
        <ele>2226.682</ele>
        <time>2024-08-31T09:47:37Z</time>
      </trkpt>
      <trkpt lat="42.69145" lon="1.39574">
        <ele>2226.145</ele>
        <time>2024-08-31T09:47:39Z</time>
      </trkpt>
      <trkpt lat="42.69145" lon="1.39574">
        <ele>2226.138</ele>
        <time>2024-08-31T09:47:41Z</time>
      </trkpt>
      <trkpt lat="42.69145" lon="1.39574">
        <ele>2226.132</ele>
        <time>2024-08-31T09:47:43Z</time>
      </trkpt>
      <trkpt lat="42.69145" lon="1.39574">
        <ele>2226.116</ele>
        <time>2024-08-31T09:47:45Z</time>
      </trkpt>
      <trkpt lat="42.69145" lon="1.39574">
        <ele>2226.108</ele>
        <time>2024-08-31T09:47:47Z</time>
      </trkpt>
      <trkpt lat="42.69145" lon="1.39574">
        <ele>2226.098</ele>
        <time>2024-08-31T09:47:49Z</time>
      </trkpt>
      <trkpt lat="42.69145" lon="1.39574">
        <ele>2226.083</ele>
        <time>2024-08-31T09:47:51Z</time>
      </trkpt>
      <trkpt lat="42.69145" lon="1.39574">
        <ele>2226.068</ele>
        <time>2024-08-31T09:47:53Z</time>
      </trkpt>
      <trkpt lat="42.69145" lon="1.39574">
        <ele>2226.056</ele>
        <time>2024-08-31T09:47:55Z</time>
      </trkpt>
      <trkpt lat="42.69145" lon="1.39574">
        <ele>2226.038</ele>
        <time>2024-08-31T09:47:57Z</time>
      </trkpt>
      <trkpt lat="42.69145" lon="1.39574">
        <ele>2226.031</ele>
        <time>2024-08-31T09:47:59Z</time>
      </trkpt>
      <trkpt lat="42.69145" lon="1.39574">
        <ele>2226.031</ele>
        <time>2024-08-31T09:48:01Z</time>
      </trkpt>
      <trkpt lat="42.69145" lon="1.39574">
        <ele>2226.024</ele>
        <time>2024-08-31T09:48:03Z</time>
      </trkpt>
      <trkpt lat="42.69145" lon="1.39574">
        <ele>2226.017</ele>
        <time>2024-08-31T09:48:05Z</time>
      </trkpt>
      <trkpt lat="42.69145" lon="1.39574">
        <ele>2226.007</ele>
        <time>2024-08-31T09:48:07Z</time>
      </trkpt>
      <trkpt lat="42.69145" lon="1.39574">
        <ele>2226.006</ele>
        <time>2024-08-31T09:48:09Z</time>
      </trkpt>
      <trkpt lat="42.69145" lon="1.39574">
        <ele>2226.015</ele>
        <time>2024-08-31T09:48:11Z</time>
      </trkpt>
      <trkpt lat="42.69145" lon="1.39574">
        <ele>2226.004</ele>
        <time>2024-08-31T09:48:13Z</time>
      </trkpt>
      <trkpt lat="42.69145" lon="1.39574">
        <ele>2225.989</ele>
        <time>2024-08-31T09:48:15Z</time>
      </trkpt>
      <trkpt lat="42.69145" lon="1.39574">
        <ele>2226.175</ele>
        <time>2024-08-31T09:48:17Z</time>
      </trkpt>
      <trkpt lat="42.69145" lon="1.39574">
        <ele>2225.64</ele>
        <time>2024-08-31T09:48:19Z</time>
      </trkpt>
      <trkpt lat="42.69139" lon="1.39582">
        <ele>2225.577</ele>
        <time>2024-08-31T09:48:21Z</time>
      </trkpt>
      <trkpt lat="42.69139" lon="1.39582">
        <ele>2225.583</ele>
        <time>2024-08-31T09:48:23Z</time>
      </trkpt>
      <trkpt lat="42.69139" lon="1.39582">
        <ele>2225.568</ele>
        <time>2024-08-31T09:48:25Z</time>
      </trkpt>
      <trkpt lat="42.69139" lon="1.39583">
        <ele>2225.63</ele>
        <time>2024-08-31T09:48:27Z</time>
      </trkpt>
      <trkpt lat="42.69138" lon="1.39584">
        <ele>2225.839</ele>
        <time>2024-08-31T09:48:29Z</time>
      </trkpt>
      <trkpt lat="42.69137" lon="1.39585">
        <ele>2226.009</ele>
        <time>2024-08-31T09:48:31Z</time>
      </trkpt>
      <trkpt lat="42.69136" lon="1.39586">
        <ele>2226.028</ele>
        <time>2024-08-31T09:48:33Z</time>
      </trkpt>
      <trkpt lat="42.69135" lon="1.39586">
        <ele>2225.765</ele>
        <time>2024-08-31T09:48:35Z</time>
      </trkpt>
      <trkpt lat="42.69134" lon="1.39588">
        <ele>2225.633</ele>
        <time>2024-08-31T09:48:37Z</time>
      </trkpt>
      <trkpt lat="42.69133" lon="1.39589">
        <ele>2225.48</ele>
        <time>2024-08-31T09:48:39Z</time>
      </trkpt>
      <trkpt lat="42.69133" lon="1.3959">
        <ele>2226.104</ele>
        <time>2024-08-31T09:48:41Z</time>
      </trkpt>
      <trkpt lat="42.69132" lon="1.3959">
        <ele>2225.319</ele>
        <time>2024-08-31T09:48:43Z</time>
      </trkpt>
      <trkpt lat="42.69132" lon="1.3959">
        <ele>2225.373</ele>
        <time>2024-08-31T09:48:45Z</time>
      </trkpt>
      <trkpt lat="42.69132" lon="1.3959">
        <ele>2225.385</ele>
        <time>2024-08-31T09:48:47Z</time>
      </trkpt>
      <trkpt lat="42.69132" lon="1.3959">
        <ele>2226.297</ele>
        <time>2024-08-31T09:48:49Z</time>
      </trkpt>
      <trkpt lat="42.69132" lon="1.3959">
        <ele>2226.102</ele>
        <time>2024-08-31T09:48:51Z</time>
      </trkpt>
      <trkpt lat="42.69132" lon="1.3959">
        <ele>2226.024</ele>
        <time>2024-08-31T09:48:53Z</time>
      </trkpt>
      <trkpt lat="42.69132" lon="1.3959">
        <ele>2226.021</ele>
        <time>2024-08-31T09:48:55Z</time>
      </trkpt>
      <trkpt lat="42.69132" lon="1.3959">
        <ele>2226.023</ele>
        <time>2024-08-31T09:48:57Z</time>
      </trkpt>
      <trkpt lat="42.69132" lon="1.3959">
        <ele>2226.022</ele>
        <time>2024-08-31T09:48:59Z</time>
      </trkpt>
      <trkpt lat="42.69132" lon="1.3959">
        <ele>2226.028</ele>
        <time>2024-08-31T09:49:01Z</time>
      </trkpt>
      <trkpt lat="42.69132" lon="1.3959">
        <ele>2226.031</ele>
        <time>2024-08-31T09:49:03Z</time>
      </trkpt>
      <trkpt lat="42.69132" lon="1.3959">
        <ele>2226.034</ele>
        <time>2024-08-31T09:49:05Z</time>
      </trkpt>
      <trkpt lat="42.69132" lon="1.3959">
        <ele>2226.038</ele>
        <time>2024-08-31T09:49:07Z</time>
      </trkpt>
      <trkpt lat="42.69132" lon="1.3959">
        <ele>2226.727</ele>
        <time>2024-08-31T09:49:09Z</time>
      </trkpt>
      <trkpt lat="42.69132" lon="1.3959">
        <ele>2226.904</ele>
        <time>2024-08-31T09:49:11Z</time>
      </trkpt>
      <trkpt lat="42.69132" lon="1.3959">
        <ele>2226.904</ele>
        <time>2024-08-31T09:49:13Z</time>
      </trkpt>
      <trkpt lat="42.69132" lon="1.3959">
        <ele>2226.906</ele>
        <time>2024-08-31T09:49:15Z</time>
      </trkpt>
      <trkpt lat="42.69132" lon="1.3959">
        <ele>2226.904</ele>
        <time>2024-08-31T09:49:17Z</time>
      </trkpt>
      <trkpt lat="42.69132" lon="1.3959">
        <ele>2226.904</ele>
        <time>2024-08-31T09:49:19Z</time>
      </trkpt>
      <trkpt lat="42.69132" lon="1.3959">
        <ele>2226.903</ele>
        <time>2024-08-31T09:49:21Z</time>
      </trkpt>
      <trkpt lat="42.69132" lon="1.3959">
        <ele>2226.753</ele>
        <time>2024-08-31T09:49:23Z</time>
      </trkpt>
      <trkpt lat="42.69132" lon="1.3959">
        <ele>2226.663</ele>
        <time>2024-08-31T09:49:25Z</time>
      </trkpt>
      <trkpt lat="42.69132" lon="1.3959">
        <ele>2227.21</ele>
        <time>2024-08-31T09:49:27Z</time>
      </trkpt>
      <trkpt lat="42.69132" lon="1.3959">
        <ele>2227.264</ele>
        <time>2024-08-31T09:49:29Z</time>
      </trkpt>
      <trkpt lat="42.69132" lon="1.3959">
        <ele>2226.789</ele>
        <time>2024-08-31T09:49:31Z</time>
      </trkpt>
      <trkpt lat="42.69132" lon="1.3959">
        <ele>2226.773</ele>
        <time>2024-08-31T09:49:33Z</time>
      </trkpt>
      <trkpt lat="42.69132" lon="1.3959">
        <ele>2226.761</ele>
        <time>2024-08-31T09:49:35Z</time>
      </trkpt>
      <trkpt lat="42.69132" lon="1.3959">
        <ele>2226.767</ele>
        <time>2024-08-31T09:49:37Z</time>
      </trkpt>
      <trkpt lat="42.69132" lon="1.3959">
        <ele>2226.773</ele>
        <time>2024-08-31T09:49:39Z</time>
      </trkpt>
      <trkpt lat="42.69132" lon="1.3959">
        <ele>2226.777</ele>
        <time>2024-08-31T09:49:41Z</time>
      </trkpt>
      <trkpt lat="42.69132" lon="1.3959">
        <ele>2226.785</ele>
        <time>2024-08-31T09:49:43Z</time>
      </trkpt>
      <trkpt lat="42.69132" lon="1.3959">
        <ele>2226.798</ele>
        <time>2024-08-31T09:49:45Z</time>
      </trkpt>
      <trkpt lat="42.69132" lon="1.3959">
        <ele>2226.825</ele>
        <time>2024-08-31T09:49:47Z</time>
      </trkpt>
      <trkpt lat="42.69132" lon="1.3959">
        <ele>2226.838</ele>
        <time>2024-08-31T09:49:49Z</time>
      </trkpt>
      <trkpt lat="42.69132" lon="1.3959">
        <ele>2226.839</ele>
        <time>2024-08-31T09:49:51Z</time>
      </trkpt>
      <trkpt lat="42.69132" lon="1.3959">
        <ele>2226.833</ele>
        <time>2024-08-31T09:49:53Z</time>
      </trkpt>
      <trkpt lat="42.69132" lon="1.3959">
        <ele>2226.824</ele>
        <time>2024-08-31T09:49:55Z</time>
      </trkpt>
      <trkpt lat="42.69132" lon="1.3959">
        <ele>2226.796</ele>
        <time>2024-08-31T09:49:57Z</time>
      </trkpt>
      <trkpt lat="42.69132" lon="1.3959">
        <ele>2226.787</ele>
        <time>2024-08-31T09:49:59Z</time>
      </trkpt>
      <trkpt lat="42.69132" lon="1.3959">
        <ele>2226.774</ele>
        <time>2024-08-31T09:50:01Z</time>
      </trkpt>
      <trkpt lat="42.69132" lon="1.3959">
        <ele>2226.792</ele>
        <time>2024-08-31T09:50:03Z</time>
      </trkpt>
      <trkpt lat="42.69132" lon="1.3959">
        <ele>2226.786</ele>
        <time>2024-08-31T09:50:05Z</time>
      </trkpt>
      <trkpt lat="42.69132" lon="1.3959">
        <ele>2226.772</ele>
        <time>2024-08-31T09:50:07Z</time>
      </trkpt>
      <trkpt lat="42.69132" lon="1.3959">
        <ele>2226.763</ele>
        <time>2024-08-31T09:50:09Z</time>
      </trkpt>
      <trkpt lat="42.69132" lon="1.3959">
        <ele>2226.753</ele>
        <time>2024-08-31T09:50:11Z</time>
      </trkpt>
      <trkpt lat="42.69132" lon="1.3959">
        <ele>2226.756</ele>
        <time>2024-08-31T09:50:13Z</time>
      </trkpt>
      <trkpt lat="42.69132" lon="1.3959">
        <ele>2226.765</ele>
        <time>2024-08-31T09:50:15Z</time>
      </trkpt>
      <trkpt lat="42.69132" lon="1.3959">
        <ele>2226.78</ele>
        <time>2024-08-31T09:50:17Z</time>
      </trkpt>
      <trkpt lat="42.69132" lon="1.3959">
        <ele>2226.785</ele>
        <time>2024-08-31T09:50:19Z</time>
      </trkpt>
      <trkpt lat="42.69132" lon="1.3959">
        <ele>2226.791</ele>
        <time>2024-08-31T09:50:21Z</time>
      </trkpt>
      <trkpt lat="42.69132" lon="1.3959">
        <ele>2226.803</ele>
        <time>2024-08-31T09:50:23Z</time>
      </trkpt>
      <trkpt lat="42.69132" lon="1.3959">
        <ele>2226.808</ele>
        <time>2024-08-31T09:50:25Z</time>
      </trkpt>
      <trkpt lat="42.69132" lon="1.3959">
        <ele>2226.81</ele>
        <time>2024-08-31T09:50:27Z</time>
      </trkpt>
      <trkpt lat="42.69132" lon="1.3959">
        <ele>2226.811</ele>
        <time>2024-08-31T09:50:29Z</time>
      </trkpt>
      <trkpt lat="42.69132" lon="1.3959">
        <ele>2226.811</ele>
        <time>2024-08-31T09:50:31Z</time>
      </trkpt>
      <trkpt lat="42.69132" lon="1.3959">
        <ele>2226.811</ele>
        <time>2024-08-31T09:50:33Z</time>
      </trkpt>
      <trkpt lat="42.69132" lon="1.3959">
        <ele>2226.813</ele>
        <time>2024-08-31T09:50:35Z</time>
      </trkpt>
      <trkpt lat="42.69132" lon="1.3959">
        <ele>2226.817</ele>
        <time>2024-08-31T09:50:37Z</time>
      </trkpt>
      <trkpt lat="42.69132" lon="1.3959">
        <ele>2226.82</ele>
        <time>2024-08-31T09:50:39Z</time>
      </trkpt>
      <trkpt lat="42.69132" lon="1.3959">
        <ele>2226.829</ele>
        <time>2024-08-31T09:50:41Z</time>
      </trkpt>
      <trkpt lat="42.69132" lon="1.3959">
        <ele>2226.839</ele>
        <time>2024-08-31T09:50:43Z</time>
      </trkpt>
      <trkpt lat="42.69132" lon="1.3959">
        <ele>2226.86</ele>
        <time>2024-08-31T09:50:45Z</time>
      </trkpt>
      <trkpt lat="42.69132" lon="1.3959">
        <ele>2226.857</ele>
        <time>2024-08-31T09:50:47Z</time>
      </trkpt>
      <trkpt lat="42.69132" lon="1.3959">
        <ele>2226.854</ele>
        <time>2024-08-31T09:50:49Z</time>
      </trkpt>
      <trkpt lat="42.69132" lon="1.3959">
        <ele>2226.866</ele>
        <time>2024-08-31T09:50:51Z</time>
      </trkpt>
      <trkpt lat="42.69132" lon="1.3959">
        <ele>2226.882</ele>
        <time>2024-08-31T09:50:53Z</time>
      </trkpt>
      <trkpt lat="42.69132" lon="1.3959">
        <ele>2226.893</ele>
        <time>2024-08-31T09:50:55Z</time>
      </trkpt>
      <trkpt lat="42.69132" lon="1.3959">
        <ele>2226.897</ele>
        <time>2024-08-31T09:50:57Z</time>
      </trkpt>
      <trkpt lat="42.69132" lon="1.3959">
        <ele>2226.906</ele>
        <time>2024-08-31T09:50:59Z</time>
      </trkpt>
      <trkpt lat="42.69132" lon="1.3959">
        <ele>2226.911</ele>
        <time>2024-08-31T09:51:01Z</time>
      </trkpt>
      <trkpt lat="42.69132" lon="1.3959">
        <ele>2226.916</ele>
        <time>2024-08-31T09:51:03Z</time>
      </trkpt>
      <trkpt lat="42.69132" lon="1.3959">
        <ele>2226.922</ele>
        <time>2024-08-31T09:51:05Z</time>
      </trkpt>
      <trkpt lat="42.69132" lon="1.3959">
        <ele>2226.92</ele>
        <time>2024-08-31T09:51:07Z</time>
      </trkpt>
      <trkpt lat="42.69132" lon="1.3959">
        <ele>2226.918</ele>
        <time>2024-08-31T09:51:09Z</time>
      </trkpt>
      <trkpt lat="42.69132" lon="1.3959">
        <ele>2226.931</ele>
        <time>2024-08-31T09:51:11Z</time>
      </trkpt>
      <trkpt lat="42.69132" lon="1.3959">
        <ele>2226.941</ele>
        <time>2024-08-31T09:51:13Z</time>
      </trkpt>
      <trkpt lat="42.69132" lon="1.39591">
        <ele>2226.939</ele>
        <time>2024-08-31T09:51:15Z</time>
      </trkpt>
      <trkpt lat="42.69132" lon="1.39592">
        <ele>2228.193</ele>
        <time>2024-08-31T09:51:17Z</time>
      </trkpt>
      <trkpt lat="42.69132" lon="1.39595">
        <ele>2228.365</ele>
        <time>2024-08-31T09:51:19Z</time>
      </trkpt>
      <trkpt lat="42.69133" lon="1.39597">
        <ele>2229.305</ele>
        <time>2024-08-31T09:51:21Z</time>
      </trkpt>
      <trkpt lat="42.69133" lon="1.39599">
        <ele>2229.884</ele>
        <time>2024-08-31T09:51:23Z</time>
      </trkpt>
      <trkpt lat="42.69132" lon="1.39601">
        <ele>2230.525</ele>
        <time>2024-08-31T09:51:25Z</time>
      </trkpt>
      <trkpt lat="42.6913" lon="1.39602">
        <ele>2231.033</ele>
        <time>2024-08-31T09:51:27Z</time>
      </trkpt>
      <trkpt lat="42.69128" lon="1.39603">
        <ele>2230.611</ele>
        <time>2024-08-31T09:51:29Z</time>
      </trkpt>
      <trkpt lat="42.69128" lon="1.39605">
        <ele>2230.429</ele>
        <time>2024-08-31T09:51:31Z</time>
      </trkpt>
      <trkpt lat="42.69128" lon="1.39607">
        <ele>2230.726</ele>
        <time>2024-08-31T09:51:33Z</time>
      </trkpt>
      <trkpt lat="42.69128" lon="1.39609">
        <ele>2232.279</ele>
        <time>2024-08-31T09:51:35Z</time>
      </trkpt>
      <trkpt lat="42.69127" lon="1.3961">
        <ele>2232.714</ele>
        <time>2024-08-31T09:51:37Z</time>
      </trkpt>
      <trkpt lat="42.69127" lon="1.39612">
        <ele>2233.017</ele>
        <time>2024-08-31T09:51:39Z</time>
      </trkpt>
      <trkpt lat="42.69127" lon="1.39613">
        <ele>2233.485</ele>
        <time>2024-08-31T09:51:41Z</time>
      </trkpt>
      <trkpt lat="42.69126" lon="1.39615">
        <ele>2233.143</ele>
        <time>2024-08-31T09:51:43Z</time>
      </trkpt>
      <trkpt lat="42.69126" lon="1.39616">
        <ele>2231.315</ele>
        <time>2024-08-31T09:51:45Z</time>
      </trkpt>
      <trkpt lat="42.69126" lon="1.39619">
        <ele>2231.688</ele>
        <time>2024-08-31T09:51:47Z</time>
      </trkpt>
      <trkpt lat="42.69127" lon="1.39619">
        <ele>2231.043</ele>
        <time>2024-08-31T09:51:49Z</time>
      </trkpt>
      <trkpt lat="42.69128" lon="1.3962">
        <ele>2232.061</ele>
        <time>2024-08-31T09:51:51Z</time>
      </trkpt>
      <trkpt lat="42.69128" lon="1.39622">
        <ele>2232.227</ele>
        <time>2024-08-31T09:51:53Z</time>
      </trkpt>
      <trkpt lat="42.69129" lon="1.39623">
        <ele>2232.284</ele>
        <time>2024-08-31T09:51:55Z</time>
      </trkpt>
      <trkpt lat="42.6913" lon="1.39624">
        <ele>2233.344</ele>
        <time>2024-08-31T09:51:57Z</time>
      </trkpt>
      <trkpt lat="42.69132" lon="1.39624">
        <ele>2234.016</ele>
        <time>2024-08-31T09:51:59Z</time>
      </trkpt>
      <trkpt lat="42.69133" lon="1.39625">
        <ele>2234.141</ele>
        <time>2024-08-31T09:52:01Z</time>
      </trkpt>
      <trkpt lat="42.69133" lon="1.39626">
        <ele>2235.069</ele>
        <time>2024-08-31T09:52:03Z</time>
      </trkpt>
      <trkpt lat="42.69134" lon="1.39627">
        <ele>2235.91</ele>
        <time>2024-08-31T09:52:05Z</time>
      </trkpt>
      <trkpt lat="42.69135" lon="1.39628">
        <ele>2235.196</ele>
        <time>2024-08-31T09:52:07Z</time>
      </trkpt>
      <trkpt lat="42.69134" lon="1.39629">
        <ele>2234.857</ele>
        <time>2024-08-31T09:52:09Z</time>
      </trkpt>
      <trkpt lat="42.69134" lon="1.3963">
        <ele>2234.894</ele>
        <time>2024-08-31T09:52:11Z</time>
      </trkpt>
      <trkpt lat="42.69134" lon="1.39631">
        <ele>2235.485</ele>
        <time>2024-08-31T09:52:13Z</time>
      </trkpt>
      <trkpt lat="42.69134" lon="1.39631">
        <ele>2236.97</ele>
        <time>2024-08-31T09:52:15Z</time>
      </trkpt>
      <trkpt lat="42.69133" lon="1.39633">
        <ele>2237.539</ele>
        <time>2024-08-31T09:52:17Z</time>
      </trkpt>
      <trkpt lat="42.69132" lon="1.39634">
        <ele>2237.827</ele>
        <time>2024-08-31T09:52:19Z</time>
      </trkpt>
      <trkpt lat="42.69132" lon="1.39635">
        <ele>2238.302</ele>
        <time>2024-08-31T09:52:21Z</time>
      </trkpt>
      <trkpt lat="42.69133" lon="1.39636">
        <ele>2239.563</ele>
        <time>2024-08-31T09:52:23Z</time>
      </trkpt>
      <trkpt lat="42.69134" lon="1.39636">
        <ele>2238.743</ele>
        <time>2024-08-31T09:52:25Z</time>
      </trkpt>
      <trkpt lat="42.69135" lon="1.39636">
        <ele>2239.781</ele>
        <time>2024-08-31T09:52:27Z</time>
      </trkpt>
      <trkpt lat="42.69136" lon="1.39638">
        <ele>2239.793</ele>
        <time>2024-08-31T09:52:29Z</time>
      </trkpt>
      <trkpt lat="42.69136" lon="1.39639">
        <ele>2238.437</ele>
        <time>2024-08-31T09:52:31Z</time>
      </trkpt>
      <trkpt lat="42.69136" lon="1.39641">
        <ele>2238.496</ele>
        <time>2024-08-31T09:52:33Z</time>
      </trkpt>
      <trkpt lat="42.69135" lon="1.39642">
        <ele>2238.802</ele>
        <time>2024-08-31T09:52:35Z</time>
      </trkpt>
      <trkpt lat="42.69135" lon="1.39643">
        <ele>2238.51</ele>
        <time>2024-08-31T09:52:37Z</time>
      </trkpt>
      <trkpt lat="42.69134" lon="1.39644">
        <ele>2237.765</ele>
        <time>2024-08-31T09:52:39Z</time>
      </trkpt>
      <trkpt lat="42.69133" lon="1.39645">
        <ele>2238.481</ele>
        <time>2024-08-31T09:52:41Z</time>
      </trkpt>
      <trkpt lat="42.69133" lon="1.39645">
        <ele>2238.049</ele>
        <time>2024-08-31T09:52:43Z</time>
      </trkpt>
      <trkpt lat="42.69133" lon="1.39645">
        <ele>2237.54</ele>
        <time>2024-08-31T09:52:45Z</time>
      </trkpt>
      <trkpt lat="42.69133" lon="1.39645">
        <ele>2236.441</ele>
        <time>2024-08-31T09:52:47Z</time>
      </trkpt>
      <trkpt lat="42.69133" lon="1.39645">
        <ele>2236.434</ele>
        <time>2024-08-31T09:52:49Z</time>
      </trkpt>
      <trkpt lat="42.69133" lon="1.39645">
        <ele>2236.384</ele>
        <time>2024-08-31T09:52:51Z</time>
      </trkpt>
      <trkpt lat="42.69133" lon="1.39645">
        <ele>2237.605</ele>
        <time>2024-08-31T09:52:53Z</time>
      </trkpt>
      <trkpt lat="42.69133" lon="1.39645">
        <ele>2237.887</ele>
        <time>2024-08-31T09:52:55Z</time>
      </trkpt>
      <trkpt lat="42.69133" lon="1.39645">
        <ele>2237.841</ele>
        <time>2024-08-31T09:52:57Z</time>
      </trkpt>
      <trkpt lat="42.69133" lon="1.39645">
        <ele>2238.255</ele>
        <time>2024-08-31T09:52:59Z</time>
      </trkpt>
      <trkpt lat="42.69133" lon="1.39645">
        <ele>2238.357</ele>
        <time>2024-08-31T09:53:01Z</time>
      </trkpt>
      <trkpt lat="42.69133" lon="1.39645">
        <ele>2238.673</ele>
        <time>2024-08-31T09:53:03Z</time>
      </trkpt>
      <trkpt lat="42.69133" lon="1.39645">
        <ele>2238.645</ele>
        <time>2024-08-31T09:53:05Z</time>
      </trkpt>
      <trkpt lat="42.69133" lon="1.39645">
        <ele>2238.63</ele>
        <time>2024-08-31T09:53:07Z</time>
      </trkpt>
      <trkpt lat="42.69133" lon="1.39645">
        <ele>2238.624</ele>
        <time>2024-08-31T09:53:09Z</time>
      </trkpt>
      <trkpt lat="42.69133" lon="1.39645">
        <ele>2239.076</ele>
        <time>2024-08-31T09:53:11Z</time>
      </trkpt>
      <trkpt lat="42.69133" lon="1.39645">
        <ele>2239.067</ele>
        <time>2024-08-31T09:53:13Z</time>
      </trkpt>
      <trkpt lat="42.69133" lon="1.39645">
        <ele>2239.063</ele>
        <time>2024-08-31T09:53:15Z</time>
      </trkpt>
      <trkpt lat="42.69133" lon="1.39645">
        <ele>2239.018</ele>
        <time>2024-08-31T09:53:17Z</time>
      </trkpt>
      <trkpt lat="42.69133" lon="1.39645">
        <ele>2238.996</ele>
        <time>2024-08-31T09:53:19Z</time>
      </trkpt>
      <trkpt lat="42.69133" lon="1.39645">
        <ele>2238.997</ele>
        <time>2024-08-31T09:53:21Z</time>
      </trkpt>
      <trkpt lat="42.69133" lon="1.39645">
        <ele>2239.022</ele>
        <time>2024-08-31T09:53:23Z</time>
      </trkpt>
      <trkpt lat="42.69133" lon="1.39645">
        <ele>2239.208</ele>
        <time>2024-08-31T09:53:25Z</time>
      </trkpt>
      <trkpt lat="42.69133" lon="1.39645">
        <ele>2237.943</ele>
        <time>2024-08-31T09:53:27Z</time>
      </trkpt>
      <trkpt lat="42.69133" lon="1.39645">
        <ele>2237.638</ele>
        <time>2024-08-31T09:53:29Z</time>
      </trkpt>
      <trkpt lat="42.69133" lon="1.39645">
        <ele>2237.474</ele>
        <time>2024-08-31T09:53:31Z</time>
      </trkpt>
      <trkpt lat="42.69133" lon="1.39645">
        <ele>2236.675</ele>
        <time>2024-08-31T09:53:33Z</time>
      </trkpt>
      <trkpt lat="42.69133" lon="1.39645">
        <ele>2238.057</ele>
        <time>2024-08-31T09:53:35Z</time>
      </trkpt>
      <trkpt lat="42.69133" lon="1.39645">
        <ele>2237.589</ele>
        <time>2024-08-31T09:53:37Z</time>
      </trkpt>
      <trkpt lat="42.69133" lon="1.39645">
        <ele>2237.003</ele>
        <time>2024-08-31T09:53:39Z</time>
      </trkpt>
      <trkpt lat="42.69133" lon="1.39645">
        <ele>2237.332</ele>
        <time>2024-08-31T09:53:41Z</time>
      </trkpt>
      <trkpt lat="42.69133" lon="1.39645">
        <ele>2238.861</ele>
        <time>2024-08-31T09:53:43Z</time>
      </trkpt>
      <trkpt lat="42.69133" lon="1.39645">
        <ele>2238.53</ele>
        <time>2024-08-31T09:53:45Z</time>
      </trkpt>
      <trkpt lat="42.69133" lon="1.39645">
        <ele>2239.598</ele>
        <time>2024-08-31T09:53:47Z</time>
      </trkpt>
      <trkpt lat="42.6913" lon="1.39656">
        <ele>2238.295</ele>
        <time>2024-08-31T09:53:49Z</time>
      </trkpt>
      <trkpt lat="42.69129" lon="1.39658">
        <ele>2238.106</ele>
        <time>2024-08-31T09:53:51Z</time>
      </trkpt>
      <trkpt lat="42.69128" lon="1.3966">
        <ele>2238.38</ele>
        <time>2024-08-31T09:53:53Z</time>
      </trkpt>
      <trkpt lat="42.69126" lon="1.3966">
        <ele>2238.302</ele>
        <time>2024-08-31T09:53:55Z</time>
      </trkpt>
      <trkpt lat="42.69125" lon="1.39658">
        <ele>2238.987</ele>
        <time>2024-08-31T09:53:57Z</time>
      </trkpt>
      <trkpt lat="42.69125" lon="1.39658">
        <ele>2237.595</ele>
        <time>2024-08-31T09:53:59Z</time>
      </trkpt>
      <trkpt lat="42.69125" lon="1.39658">
        <ele>2237.594</ele>
        <time>2024-08-31T09:54:01Z</time>
      </trkpt>
      <trkpt lat="42.69125" lon="1.39658">
        <ele>2237.707</ele>
        <time>2024-08-31T09:54:03Z</time>
      </trkpt>
      <trkpt lat="42.69125" lon="1.39658">
        <ele>2237.698</ele>
        <time>2024-08-31T09:54:05Z</time>
      </trkpt>
      <trkpt lat="42.69125" lon="1.39658">
        <ele>2235.352</ele>
        <time>2024-08-31T09:54:07Z</time>
      </trkpt>
      <trkpt lat="42.69125" lon="1.39658">
        <ele>2234.824</ele>
        <time>2024-08-31T09:54:09Z</time>
      </trkpt>
      <trkpt lat="42.69125" lon="1.39658">
        <ele>2234.829</ele>
        <time>2024-08-31T09:54:11Z</time>
      </trkpt>
      <trkpt lat="42.69125" lon="1.39658">
        <ele>2235.696</ele>
        <time>2024-08-31T09:54:13Z</time>
      </trkpt>
      <trkpt lat="42.69125" lon="1.39658">
        <ele>2235.344</ele>
        <time>2024-08-31T09:54:15Z</time>
      </trkpt>
      <trkpt lat="42.69125" lon="1.39658">
        <ele>2235.301</ele>
        <time>2024-08-31T09:54:17Z</time>
      </trkpt>
      <trkpt lat="42.69125" lon="1.39658">
        <ele>2235.463</ele>
        <time>2024-08-31T09:54:19Z</time>
      </trkpt>
      <trkpt lat="42.69125" lon="1.39658">
        <ele>2235.034</ele>
        <time>2024-08-31T09:54:21Z</time>
      </trkpt>
      <trkpt lat="42.69125" lon="1.39658">
        <ele>2235.129</ele>
        <time>2024-08-31T09:54:23Z</time>
      </trkpt>
      <trkpt lat="42.69125" lon="1.39658">
        <ele>2235.138</ele>
        <time>2024-08-31T09:54:25Z</time>
      </trkpt>
      <trkpt lat="42.69125" lon="1.39658">
        <ele>2235.353</ele>
        <time>2024-08-31T09:54:27Z</time>
      </trkpt>
      <trkpt lat="42.69125" lon="1.39658">
        <ele>2235.334</ele>
        <time>2024-08-31T09:54:29Z</time>
      </trkpt>
      <trkpt lat="42.69125" lon="1.39658">
        <ele>2235.336</ele>
        <time>2024-08-31T09:54:31Z</time>
      </trkpt>
      <trkpt lat="42.69125" lon="1.39658">
        <ele>2236.138</ele>
        <time>2024-08-31T09:54:33Z</time>
      </trkpt>
      <trkpt lat="42.69125" lon="1.39658">
        <ele>2237.024</ele>
        <time>2024-08-31T09:54:35Z</time>
      </trkpt>
      <trkpt lat="42.69125" lon="1.39658">
        <ele>2237.021</ele>
        <time>2024-08-31T09:54:37Z</time>
      </trkpt>
      <trkpt lat="42.69125" lon="1.39658">
        <ele>2237.026</ele>
        <time>2024-08-31T09:54:39Z</time>
      </trkpt>
      <trkpt lat="42.69125" lon="1.39658">
        <ele>2237.017</ele>
        <time>2024-08-31T09:54:41Z</time>
      </trkpt>
      <trkpt lat="42.69125" lon="1.39658">
        <ele>2237.038</ele>
        <time>2024-08-31T09:54:43Z</time>
      </trkpt>
      <trkpt lat="42.69125" lon="1.39658">
        <ele>2236.971</ele>
        <time>2024-08-31T09:54:45Z</time>
      </trkpt>
      <trkpt lat="42.69125" lon="1.39658">
        <ele>2237.588</ele>
        <time>2024-08-31T09:54:47Z</time>
      </trkpt>
      <trkpt lat="42.69125" lon="1.39658">
        <ele>2237.583</ele>
        <time>2024-08-31T09:54:49Z</time>
      </trkpt>
      <trkpt lat="42.69125" lon="1.39658">
        <ele>2237.445</ele>
        <time>2024-08-31T09:54:51Z</time>
      </trkpt>
      <trkpt lat="42.69125" lon="1.39658">
        <ele>2239.4</ele>
        <time>2024-08-31T09:54:53Z</time>
      </trkpt>
      <trkpt lat="42.69125" lon="1.39658">
        <ele>2239.128</ele>
        <time>2024-08-31T09:54:55Z</time>
      </trkpt>
      <trkpt lat="42.69125" lon="1.39658">
        <ele>2239.121</ele>
        <time>2024-08-31T09:54:57Z</time>
      </trkpt>
      <trkpt lat="42.69125" lon="1.39658">
        <ele>2239.109</ele>
        <time>2024-08-31T09:54:59Z</time>
      </trkpt>
      <trkpt lat="42.69125" lon="1.39658">
        <ele>2240.259</ele>
        <time>2024-08-31T09:55:01Z</time>
      </trkpt>
      <trkpt lat="42.69125" lon="1.39658">
        <ele>2240.052</ele>
        <time>2024-08-31T09:55:03Z</time>
      </trkpt>
      <trkpt lat="42.69125" lon="1.39658">
        <ele>2239.443</ele>
        <time>2024-08-31T09:55:05Z</time>
      </trkpt>
      <trkpt lat="42.69125" lon="1.39658">
        <ele>2238.938</ele>
        <time>2024-08-31T09:55:07Z</time>
      </trkpt>
      <trkpt lat="42.69125" lon="1.39658">
        <ele>2239.124</ele>
        <time>2024-08-31T09:55:09Z</time>
      </trkpt>
      <trkpt lat="42.69125" lon="1.39658">
        <ele>2239.034</ele>
        <time>2024-08-31T09:55:11Z</time>
      </trkpt>
      <trkpt lat="42.69125" lon="1.39658">
        <ele>2238.731</ele>
        <time>2024-08-31T09:55:13Z</time>
      </trkpt>
      <trkpt lat="42.69125" lon="1.39658">
        <ele>2238.502</ele>
        <time>2024-08-31T09:55:15Z</time>
      </trkpt>
      <trkpt lat="42.69125" lon="1.39658">
        <ele>2238.188</ele>
        <time>2024-08-31T09:55:17Z</time>
      </trkpt>
      <trkpt lat="42.69125" lon="1.39658">
        <ele>2237.705</ele>
        <time>2024-08-31T09:55:19Z</time>
      </trkpt>
      <trkpt lat="42.69125" lon="1.39658">
        <ele>2237.375</ele>
        <time>2024-08-31T09:55:21Z</time>
      </trkpt>
      <trkpt lat="42.69125" lon="1.39658">
        <ele>2236.357</ele>
        <time>2024-08-31T09:55:23Z</time>
      </trkpt>
      <trkpt lat="42.69125" lon="1.39658">
        <ele>2235.892</ele>
        <time>2024-08-31T09:55:25Z</time>
      </trkpt>
      <trkpt lat="42.69125" lon="1.39658">
        <ele>2236.105</ele>
        <time>2024-08-31T09:55:27Z</time>
      </trkpt>
      <trkpt lat="42.69125" lon="1.39658">
        <ele>2235.326</ele>
        <time>2024-08-31T09:55:29Z</time>
      </trkpt>
      <trkpt lat="42.69125" lon="1.39658">
        <ele>2235.322</ele>
        <time>2024-08-31T09:55:31Z</time>
      </trkpt>
      <trkpt lat="42.69125" lon="1.39658">
        <ele>2235.311</ele>
        <time>2024-08-31T09:55:33Z</time>
      </trkpt>
      <trkpt lat="42.69125" lon="1.39658">
        <ele>2235.295</ele>
        <time>2024-08-31T09:55:35Z</time>
      </trkpt>
      <trkpt lat="42.69125" lon="1.39658">
        <ele>2235.296</ele>
        <time>2024-08-31T09:55:37Z</time>
      </trkpt>
      <trkpt lat="42.69125" lon="1.39658">
        <ele>2234.825</ele>
        <time>2024-08-31T09:55:39Z</time>
      </trkpt>
      <trkpt lat="42.69125" lon="1.39658">
        <ele>2234.136</ele>
        <time>2024-08-31T09:55:41Z</time>
      </trkpt>
      <trkpt lat="42.69125" lon="1.39658">
        <ele>2234.124</ele>
        <time>2024-08-31T09:55:43Z</time>
      </trkpt>
      <trkpt lat="42.69125" lon="1.39658">
        <ele>2234.115</ele>
        <time>2024-08-31T09:55:45Z</time>
      </trkpt>
      <trkpt lat="42.69125" lon="1.39658">
        <ele>2234.116</ele>
        <time>2024-08-31T09:55:47Z</time>
      </trkpt>
      <trkpt lat="42.69125" lon="1.39658">
        <ele>2233.627</ele>
        <time>2024-08-31T09:55:49Z</time>
      </trkpt>
      <trkpt lat="42.69125" lon="1.39658">
        <ele>2233.519</ele>
        <time>2024-08-31T09:55:51Z</time>
      </trkpt>
      <trkpt lat="42.69125" lon="1.39658">
        <ele>2233.582</ele>
        <time>2024-08-31T09:55:53Z</time>
      </trkpt>
      <trkpt lat="42.69125" lon="1.39658">
        <ele>2233.573</ele>
        <time>2024-08-31T09:55:55Z</time>
      </trkpt>
      <trkpt lat="42.69125" lon="1.39658">
        <ele>2230.389</ele>
        <time>2024-08-31T09:56:01Z</time>
      </trkpt>
      <trkpt lat="42.69125" lon="1.39658">
        <ele>2235.255</ele>
        <time>2024-08-31T09:56:03Z</time>
      </trkpt>
      <trkpt lat="42.69125" lon="1.39658">
        <ele>2237.826</ele>
        <time>2024-08-31T09:56:05Z</time>
      </trkpt>
      <trkpt lat="42.69125" lon="1.39658">
        <ele>2240.142</ele>
        <time>2024-08-31T09:56:07Z</time>
      </trkpt>
      <trkpt lat="42.69125" lon="1.39658">
        <ele>2240.13</ele>
        <time>2024-08-31T09:56:09Z</time>
      </trkpt>
      <trkpt lat="42.69125" lon="1.39658">
        <ele>2240.078</ele>
        <time>2024-08-31T09:56:11Z</time>
      </trkpt>
      <trkpt lat="42.69125" lon="1.39658">
        <ele>2240.083</ele>
        <time>2024-08-31T09:56:13Z</time>
      </trkpt>
      <trkpt lat="42.69125" lon="1.39658">
        <ele>2240.103</ele>
        <time>2024-08-31T09:56:15Z</time>
      </trkpt>
      <trkpt lat="42.69125" lon="1.39658">
        <ele>2240.094</ele>
        <time>2024-08-31T09:56:17Z</time>
      </trkpt>
      <trkpt lat="42.69125" lon="1.39658">
        <ele>2240.04</ele>
        <time>2024-08-31T09:56:19Z</time>
      </trkpt>
      <trkpt lat="42.69125" lon="1.39658">
        <ele>2240.04</ele>
        <time>2024-08-31T09:56:21Z</time>
      </trkpt>
      <trkpt lat="42.69125" lon="1.39658">
        <ele>2240.028</ele>
        <time>2024-08-31T09:56:23Z</time>
      </trkpt>
      <trkpt lat="42.69125" lon="1.39658">
        <ele>2240.021</ele>
        <time>2024-08-31T09:56:25Z</time>
      </trkpt>
      <trkpt lat="42.69125" lon="1.39658">
        <ele>2239.996</ele>
        <time>2024-08-31T09:56:27Z</time>
      </trkpt>
      <trkpt lat="42.69125" lon="1.39658">
        <ele>2239.978</ele>
        <time>2024-08-31T09:56:29Z</time>
      </trkpt>
      <trkpt lat="42.69125" lon="1.39658">
        <ele>2239.97</ele>
        <time>2024-08-31T09:56:31Z</time>
      </trkpt>
      <trkpt lat="42.69125" lon="1.39658">
        <ele>2239.978</ele>
        <time>2024-08-31T09:56:33Z</time>
      </trkpt>
      <trkpt lat="42.69125" lon="1.39658">
        <ele>2239.992</ele>
        <time>2024-08-31T09:56:35Z</time>
      </trkpt>
      <trkpt lat="42.69125" lon="1.39658">
        <ele>2239.977</ele>
        <time>2024-08-31T09:56:37Z</time>
      </trkpt>
      <trkpt lat="42.69125" lon="1.39658">
        <ele>2240.015</ele>
        <time>2024-08-31T09:56:39Z</time>
      </trkpt>
      <trkpt lat="42.69125" lon="1.39658">
        <ele>2240.047</ele>
        <time>2024-08-31T09:56:41Z</time>
      </trkpt>
      <trkpt lat="42.69125" lon="1.39658">
        <ele>2240.061</ele>
        <time>2024-08-31T09:56:43Z</time>
      </trkpt>
      <trkpt lat="42.69125" lon="1.39658">
        <ele>2240.075</ele>
        <time>2024-08-31T09:56:45Z</time>
      </trkpt>
      <trkpt lat="42.69125" lon="1.39658">
        <ele>2240.054</ele>
        <time>2024-08-31T09:56:47Z</time>
      </trkpt>
      <trkpt lat="42.69125" lon="1.39658">
        <ele>2240.059</ele>
        <time>2024-08-31T09:56:49Z</time>
      </trkpt>
      <trkpt lat="42.69125" lon="1.39658">
        <ele>2239.136</ele>
        <time>2024-08-31T09:56:51Z</time>
      </trkpt>
      <trkpt lat="42.69125" lon="1.39658">
        <ele>2239.457</ele>
        <time>2024-08-31T09:56:53Z</time>
      </trkpt>
      <trkpt lat="42.69125" lon="1.39658">
        <ele>2239.375</ele>
        <time>2024-08-31T09:56:55Z</time>
      </trkpt>
      <trkpt lat="42.69125" lon="1.39658">
        <ele>2239.801</ele>
        <time>2024-08-31T09:56:57Z</time>
      </trkpt>
      <trkpt lat="42.69125" lon="1.39658">
        <ele>2239.386</ele>
        <time>2024-08-31T09:56:59Z</time>
      </trkpt>
      <trkpt lat="42.69125" lon="1.39658">
        <ele>2239.52</ele>
        <time>2024-08-31T09:57:01Z</time>
      </trkpt>
      <trkpt lat="42.69125" lon="1.39658">
        <ele>2239.427</ele>
        <time>2024-08-31T09:57:03Z</time>
      </trkpt>
      <trkpt lat="42.69125" lon="1.39658">
        <ele>2239.536</ele>
        <time>2024-08-31T09:57:05Z</time>
      </trkpt>
      <trkpt lat="42.69125" lon="1.39658">
        <ele>2239.601</ele>
        <time>2024-08-31T09:57:07Z</time>
      </trkpt>
      <trkpt lat="42.69125" lon="1.39658">
        <ele>2239.601</ele>
        <time>2024-08-31T09:57:09Z</time>
      </trkpt>
      <trkpt lat="42.69125" lon="1.39658">
        <ele>2239.611</ele>
        <time>2024-08-31T09:57:17Z</time>
      </trkpt>
      <trkpt lat="42.69125" lon="1.39658">
        <ele>2239.583</ele>
        <time>2024-08-31T09:57:20Z</time>
      </trkpt>
      <trkpt lat="42.69125" lon="1.39658">
        <ele>2239.682</ele>
        <time>2024-08-31T09:57:22Z</time>
      </trkpt>
      <trkpt lat="42.69125" lon="1.39658">
        <ele>2239.58</ele>
        <time>2024-08-31T09:57:24Z</time>
      </trkpt>
      <trkpt lat="42.69125" lon="1.39658">
        <ele>2239.52</ele>
        <time>2024-08-31T09:57:28Z</time>
      </trkpt>
      <trkpt lat="42.69125" lon="1.39658">
        <ele>2239.497</ele>
        <time>2024-08-31T09:57:30Z</time>
      </trkpt>
      <trkpt lat="42.69125" lon="1.39658">
        <ele>2239.493</ele>
        <time>2024-08-31T09:57:32Z</time>
      </trkpt>
      <trkpt lat="42.69125" lon="1.39658">
        <ele>2239.488</ele>
        <time>2024-08-31T09:57:35Z</time>
      </trkpt>
      <trkpt lat="42.69125" lon="1.39658">
        <ele>2239.145</ele>
        <time>2024-08-31T09:57:39Z</time>
      </trkpt>
      <trkpt lat="42.69125" lon="1.39658">
        <ele>2239.136</ele>
        <time>2024-08-31T09:57:41Z</time>
      </trkpt>
      <trkpt lat="42.69125" lon="1.39658">
        <ele>2239.138</ele>
        <time>2024-08-31T09:57:43Z</time>
      </trkpt>
      <trkpt lat="42.69125" lon="1.39658">
        <ele>2239.133</ele>
        <time>2024-08-31T09:57:45Z</time>
      </trkpt>
      <trkpt lat="42.69125" lon="1.39658">
        <ele>2239.129</ele>
        <time>2024-08-31T09:57:49Z</time>
      </trkpt>
      <trkpt lat="42.69125" lon="1.39658">
        <ele>2239.127</ele>
        <time>2024-08-31T09:57:51Z</time>
      </trkpt>
      <trkpt lat="42.69125" lon="1.39658">
        <ele>2239.279</ele>
        <time>2024-08-31T09:57:53Z</time>
      </trkpt>
      <trkpt lat="42.69125" lon="1.39658">
        <ele>2239.277</ele>
        <time>2024-08-31T09:57:57Z</time>
      </trkpt>
      <trkpt lat="42.69125" lon="1.39658">
        <ele>2239.277</ele>
        <time>2024-08-31T09:57:59Z</time>
      </trkpt>
      <trkpt lat="42.69125" lon="1.39658">
        <ele>2239.296</ele>
        <time>2024-08-31T09:58:03Z</time>
      </trkpt>
      <trkpt lat="42.69125" lon="1.39658">
        <ele>2239.296</ele>
        <time>2024-08-31T09:58:08Z</time>
      </trkpt>
      <trkpt lat="42.69125" lon="1.39658">
        <ele>2239.294</ele>
        <time>2024-08-31T09:58:10Z</time>
      </trkpt>
      <trkpt lat="42.69125" lon="1.39658">
        <ele>2239.294</ele>
        <time>2024-08-31T09:58:12Z</time>
      </trkpt>
      <trkpt lat="42.69125" lon="1.39658">
        <ele>2239.293</ele>
        <time>2024-08-31T09:58:14Z</time>
      </trkpt>
      <trkpt lat="42.69125" lon="1.39658">
        <ele>2239.292</ele>
        <time>2024-08-31T09:58:16Z</time>
      </trkpt>
      <trkpt lat="42.69125" lon="1.39658">
        <ele>2239.359</ele>
        <time>2024-08-31T09:58:20Z</time>
      </trkpt>
      <trkpt lat="42.69125" lon="1.39658">
        <ele>2239.337</ele>
        <time>2024-08-31T09:58:22Z</time>
      </trkpt>
      <trkpt lat="42.69125" lon="1.39658">
        <ele>2245.272</ele>
        <time>2024-08-31T09:58:24Z</time>
      </trkpt>
      <trkpt lat="42.69125" lon="1.39658">
        <ele>2242.636</ele>
        <time>2024-08-31T09:58:26Z</time>
      </trkpt>
      <trkpt lat="42.69125" lon="1.39658">
        <ele>2243.168</ele>
        <time>2024-08-31T09:58:28Z</time>
      </trkpt>
      <trkpt lat="42.69125" lon="1.39658">
        <ele>2244.265</ele>
        <time>2024-08-31T09:58:30Z</time>
      </trkpt>
      <trkpt lat="42.69125" lon="1.39658">
        <ele>2243.625</ele>
        <time>2024-08-31T09:58:32Z</time>
      </trkpt>
      <trkpt lat="42.69125" lon="1.39658">
        <ele>2244.906</ele>
        <time>2024-08-31T09:58:34Z</time>
      </trkpt>
      <trkpt lat="42.69125" lon="1.39658">
        <ele>2243.29</ele>
        <time>2024-08-31T09:58:36Z</time>
      </trkpt>
      <trkpt lat="42.69125" lon="1.39658">
        <ele>2242.764</ele>
        <time>2024-08-31T09:58:38Z</time>
      </trkpt>
      <trkpt lat="42.69125" lon="1.39658">
        <ele>2239.675</ele>
        <time>2024-08-31T09:58:40Z</time>
      </trkpt>
      <trkpt lat="42.69125" lon="1.39658">
        <ele>2239.95</ele>
        <time>2024-08-31T09:58:42Z</time>
      </trkpt>
      <trkpt lat="42.69125" lon="1.39658">
        <ele>2239.822</ele>
        <time>2024-08-31T09:58:44Z</time>
      </trkpt>
      <trkpt lat="42.69125" lon="1.39658">
        <ele>2239.716</ele>
        <time>2024-08-31T09:58:46Z</time>
      </trkpt>
      <trkpt lat="42.69125" lon="1.39658">
        <ele>2239.744</ele>
        <time>2024-08-31T09:58:48Z</time>
      </trkpt>
      <trkpt lat="42.69125" lon="1.39658">
        <ele>2240.312</ele>
        <time>2024-08-31T09:58:50Z</time>
      </trkpt>
      <trkpt lat="42.69125" lon="1.39658">
        <ele>2240.283</ele>
        <time>2024-08-31T09:58:52Z</time>
      </trkpt>
      <trkpt lat="42.69125" lon="1.39658">
        <ele>2240.268</ele>
        <time>2024-08-31T09:58:54Z</time>
      </trkpt>
      <trkpt lat="42.69125" lon="1.39658">
        <ele>2240.277</ele>
        <time>2024-08-31T09:58:56Z</time>
      </trkpt>
      <trkpt lat="42.69125" lon="1.39658">
        <ele>2240.28</ele>
        <time>2024-08-31T09:58:58Z</time>
      </trkpt>
      <trkpt lat="42.69125" lon="1.39658">
        <ele>2240.021</ele>
        <time>2024-08-31T09:59:00Z</time>
      </trkpt>
      <trkpt lat="42.69125" lon="1.39658">
        <ele>2240.087</ele>
        <time>2024-08-31T09:59:02Z</time>
      </trkpt>
      <trkpt lat="42.69125" lon="1.39658">
        <ele>2240.534</ele>
        <time>2024-08-31T09:59:04Z</time>
      </trkpt>
      <trkpt lat="42.69125" lon="1.39658">
        <ele>2240.539</ele>
        <time>2024-08-31T09:59:06Z</time>
      </trkpt>
      <trkpt lat="42.69125" lon="1.39658">
        <ele>2240.545</ele>
        <time>2024-08-31T09:59:08Z</time>
      </trkpt>
      <trkpt lat="42.69125" lon="1.39658">
        <ele>2240.492</ele>
        <time>2024-08-31T09:59:10Z</time>
      </trkpt>
      <trkpt lat="42.69125" lon="1.39658">
        <ele>2240.267</ele>
        <time>2024-08-31T09:59:12Z</time>
      </trkpt>
      <trkpt lat="42.69125" lon="1.39658">
        <ele>2239.901</ele>
        <time>2024-08-31T09:59:14Z</time>
      </trkpt>
      <trkpt lat="42.69125" lon="1.39658">
        <ele>2239.963</ele>
        <time>2024-08-31T09:59:16Z</time>
      </trkpt>
      <trkpt lat="42.69125" lon="1.39658">
        <ele>2239.938</ele>
        <time>2024-08-31T09:59:18Z</time>
      </trkpt>
      <trkpt lat="42.69125" lon="1.39658">
        <ele>2239.923</ele>
        <time>2024-08-31T09:59:20Z</time>
      </trkpt>
      <trkpt lat="42.69125" lon="1.39658">
        <ele>2239.917</ele>
        <time>2024-08-31T09:59:22Z</time>
      </trkpt>
      <trkpt lat="42.69125" lon="1.39658">
        <ele>2240.074</ele>
        <time>2024-08-31T09:59:24Z</time>
      </trkpt>
      <trkpt lat="42.69125" lon="1.39658">
        <ele>2239.968</ele>
        <time>2024-08-31T09:59:26Z</time>
      </trkpt>
      <trkpt lat="42.69125" lon="1.39658">
        <ele>2239.964</ele>
        <time>2024-08-31T09:59:28Z</time>
      </trkpt>
      <trkpt lat="42.69125" lon="1.39658">
        <ele>2239.954</ele>
        <time>2024-08-31T09:59:30Z</time>
      </trkpt>
      <trkpt lat="42.69125" lon="1.39658">
        <ele>2239.96</ele>
        <time>2024-08-31T09:59:32Z</time>
      </trkpt>
      <trkpt lat="42.69125" lon="1.39658">
        <ele>2239.952</ele>
        <time>2024-08-31T09:59:34Z</time>
      </trkpt>
      <trkpt lat="42.69125" lon="1.39658">
        <ele>2241.001</ele>
        <time>2024-08-31T09:59:36Z</time>
      </trkpt>
      <trkpt lat="42.69125" lon="1.39658">
        <ele>2240.99</ele>
        <time>2024-08-31T09:59:38Z</time>
      </trkpt>
      <trkpt lat="42.69125" lon="1.39658">
        <ele>2241.198</ele>
        <time>2024-08-31T09:59:40Z</time>
      </trkpt>
      <trkpt lat="42.69125" lon="1.39658">
        <ele>2241.193</ele>
        <time>2024-08-31T09:59:42Z</time>
      </trkpt>
      <trkpt lat="42.69125" lon="1.39658">
        <ele>2241.199</ele>
        <time>2024-08-31T09:59:44Z</time>
      </trkpt>
      <trkpt lat="42.69125" lon="1.39658">
        <ele>2241.527</ele>
        <time>2024-08-31T09:59:46Z</time>
      </trkpt>
      <trkpt lat="42.69125" lon="1.39658">
        <ele>2241.537</ele>
        <time>2024-08-31T09:59:48Z</time>
      </trkpt>
      <trkpt lat="42.69125" lon="1.39658">
        <ele>2241.531</ele>
        <time>2024-08-31T09:59:50Z</time>
      </trkpt>
      <trkpt lat="42.69125" lon="1.39658">
        <ele>2241.519</ele>
        <time>2024-08-31T09:59:52Z</time>
      </trkpt>
      <trkpt lat="42.69125" lon="1.39658">
        <ele>2241.512</ele>
        <time>2024-08-31T09:59:54Z</time>
      </trkpt>
      <trkpt lat="42.69125" lon="1.39658">
        <ele>2241.561</ele>
        <time>2024-08-31T09:59:56Z</time>
      </trkpt>
      <trkpt lat="42.69125" lon="1.39658">
        <ele>2241.549</ele>
        <time>2024-08-31T09:59:58Z</time>
      </trkpt>
      <trkpt lat="42.69125" lon="1.39658">
        <ele>2241.695</ele>
        <time>2024-08-31T10:00:00Z</time>
      </trkpt>
      <trkpt lat="42.69125" lon="1.39658">
        <ele>2241.71</ele>
        <time>2024-08-31T10:00:02Z</time>
      </trkpt>
      <trkpt lat="42.69125" lon="1.39658">
        <ele>2241.527</ele>
        <time>2024-08-31T10:00:04Z</time>
      </trkpt>
      <trkpt lat="42.69125" lon="1.39658">
        <ele>2241.292</ele>
        <time>2024-08-31T10:00:06Z</time>
      </trkpt>
      <trkpt lat="42.69125" lon="1.39658">
        <ele>2241.298</ele>
        <time>2024-08-31T10:00:08Z</time>
      </trkpt>
      <trkpt lat="42.69125" lon="1.39658">
        <ele>2241.149</ele>
        <time>2024-08-31T10:00:10Z</time>
      </trkpt>
      <trkpt lat="42.69125" lon="1.39658">
        <ele>2240.988</ele>
        <time>2024-08-31T10:00:12Z</time>
      </trkpt>
      <trkpt lat="42.69125" lon="1.39658">
        <ele>2241.921</ele>
        <time>2024-08-31T10:00:14Z</time>
      </trkpt>
      <trkpt lat="42.69125" lon="1.39658">
        <ele>2241.926</ele>
        <time>2024-08-31T10:00:16Z</time>
      </trkpt>
      <trkpt lat="42.69125" lon="1.39658">
        <ele>2241.925</ele>
        <time>2024-08-31T10:00:18Z</time>
      </trkpt>
      <trkpt lat="42.69125" lon="1.39658">
        <ele>2242.475</ele>
        <time>2024-08-31T10:00:20Z</time>
      </trkpt>
      <trkpt lat="42.69125" lon="1.39658">
        <ele>2241.994</ele>
        <time>2024-08-31T10:00:22Z</time>
      </trkpt>
      <trkpt lat="42.69125" lon="1.39658">
        <ele>2241.119</ele>
        <time>2024-08-31T10:00:24Z</time>
      </trkpt>
      <trkpt lat="42.69125" lon="1.39658">
        <ele>2241.341</ele>
        <time>2024-08-31T10:00:26Z</time>
      </trkpt>
      <trkpt lat="42.69125" lon="1.39658">
        <ele>2241.331</ele>
        <time>2024-08-31T10:00:28Z</time>
      </trkpt>
      <trkpt lat="42.69125" lon="1.39658">
        <ele>2241.138</ele>
        <time>2024-08-31T10:00:30Z</time>
      </trkpt>
      <trkpt lat="42.69125" lon="1.39658">
        <ele>2241.48</ele>
        <time>2024-08-31T10:00:32Z</time>
      </trkpt>
      <trkpt lat="42.69125" lon="1.39658">
        <ele>2241.413</ele>
        <time>2024-08-31T10:00:34Z</time>
      </trkpt>
      <trkpt lat="42.69125" lon="1.39658">
        <ele>2241.878</ele>
        <time>2024-08-31T10:00:36Z</time>
      </trkpt>
      <trkpt lat="42.69125" lon="1.39658">
        <ele>2241.866</ele>
        <time>2024-08-31T10:00:38Z</time>
      </trkpt>
      <trkpt lat="42.69125" lon="1.39658">
        <ele>2241.856</ele>
        <time>2024-08-31T10:00:40Z</time>
      </trkpt>
      <trkpt lat="42.69125" lon="1.39658">
        <ele>2241.846</ele>
        <time>2024-08-31T10:00:42Z</time>
      </trkpt>
      <trkpt lat="42.69125" lon="1.39658">
        <ele>2241.835</ele>
        <time>2024-08-31T10:00:44Z</time>
      </trkpt>
      <trkpt lat="42.69125" lon="1.39658">
        <ele>2241.831</ele>
        <time>2024-08-31T10:00:46Z</time>
      </trkpt>
      <trkpt lat="42.69125" lon="1.39658">
        <ele>2241.84</ele>
        <time>2024-08-31T10:00:48Z</time>
      </trkpt>
      <trkpt lat="42.69125" lon="1.39658">
        <ele>2241.838</ele>
        <time>2024-08-31T10:00:50Z</time>
      </trkpt>
      <trkpt lat="42.69125" lon="1.39658">
        <ele>2241.824</ele>
        <time>2024-08-31T10:00:52Z</time>
      </trkpt>
      <trkpt lat="42.69125" lon="1.39658">
        <ele>2241.809</ele>
        <time>2024-08-31T10:00:54Z</time>
      </trkpt>
      <trkpt lat="42.69125" lon="1.39658">
        <ele>2241.793</ele>
        <time>2024-08-31T10:00:56Z</time>
      </trkpt>
      <trkpt lat="42.69125" lon="1.39658">
        <ele>2241.745</ele>
        <time>2024-08-31T10:00:58Z</time>
      </trkpt>
      <trkpt lat="42.69125" lon="1.39658">
        <ele>2241.588</ele>
        <time>2024-08-31T10:01:00Z</time>
      </trkpt>
      <trkpt lat="42.69125" lon="1.39658">
        <ele>2242.626</ele>
        <time>2024-08-31T10:01:02Z</time>
      </trkpt>
      <trkpt lat="42.69125" lon="1.39658">
        <ele>2242.747</ele>
        <time>2024-08-31T10:01:04Z</time>
      </trkpt>
      <trkpt lat="42.69125" lon="1.39658">
        <ele>2242.997</ele>
        <time>2024-08-31T10:01:06Z</time>
      </trkpt>
      <trkpt lat="42.69125" lon="1.39658">
        <ele>2243.013</ele>
        <time>2024-08-31T10:01:08Z</time>
      </trkpt>
      <trkpt lat="42.69125" lon="1.39658">
        <ele>2243.008</ele>
        <time>2024-08-31T10:01:10Z</time>
      </trkpt>
      <trkpt lat="42.69125" lon="1.39658">
        <ele>2242.977</ele>
        <time>2024-08-31T10:01:12Z</time>
      </trkpt>
      <trkpt lat="42.69125" lon="1.39658">
        <ele>2242.923</ele>
        <time>2024-08-31T10:01:14Z</time>
      </trkpt>
      <trkpt lat="42.69125" lon="1.39658">
        <ele>2242.81</ele>
        <time>2024-08-31T10:01:16Z</time>
      </trkpt>
      <trkpt lat="42.69125" lon="1.39658">
        <ele>2242.574</ele>
        <time>2024-08-31T10:01:18Z</time>
      </trkpt>
      <trkpt lat="42.69125" lon="1.39658">
        <ele>2242.677</ele>
        <time>2024-08-31T10:01:20Z</time>
      </trkpt>
      <trkpt lat="42.69125" lon="1.39658">
        <ele>2242.676</ele>
        <time>2024-08-31T10:01:22Z</time>
      </trkpt>
      <trkpt lat="42.69125" lon="1.39658">
        <ele>2242.68</ele>
        <time>2024-08-31T10:01:24Z</time>
      </trkpt>
      <trkpt lat="42.69125" lon="1.39658">
        <ele>2242.67</ele>
        <time>2024-08-31T10:01:26Z</time>
      </trkpt>
      <trkpt lat="42.69125" lon="1.39658">
        <ele>2242.313</ele>
        <time>2024-08-31T10:01:28Z</time>
      </trkpt>
      <trkpt lat="42.69125" lon="1.39658">
        <ele>2241.974</ele>
        <time>2024-08-31T10:01:30Z</time>
      </trkpt>
      <trkpt lat="42.69125" lon="1.39658">
        <ele>2241.972</ele>
        <time>2024-08-31T10:01:32Z</time>
      </trkpt>
      <trkpt lat="42.69125" lon="1.39658">
        <ele>2241.961</ele>
        <time>2024-08-31T10:01:34Z</time>
      </trkpt>
      <trkpt lat="42.69125" lon="1.39658">
        <ele>2241.959</ele>
        <time>2024-08-31T10:01:36Z</time>
      </trkpt>
      <trkpt lat="42.69125" lon="1.39658">
        <ele>2241.953</ele>
        <time>2024-08-31T10:01:38Z</time>
      </trkpt>
      <trkpt lat="42.69125" lon="1.39658">
        <ele>2241.945</ele>
        <time>2024-08-31T10:01:40Z</time>
      </trkpt>
      <trkpt lat="42.69125" lon="1.39658">
        <ele>2241.941</ele>
        <time>2024-08-31T10:01:42Z</time>
      </trkpt>
      <trkpt lat="42.69125" lon="1.39658">
        <ele>2241.934</ele>
        <time>2024-08-31T10:01:44Z</time>
      </trkpt>
      <trkpt lat="42.69125" lon="1.39658">
        <ele>2241.883</ele>
        <time>2024-08-31T10:01:46Z</time>
      </trkpt>
      <trkpt lat="42.69125" lon="1.39658">
        <ele>2243.912</ele>
        <time>2024-08-31T10:01:48Z</time>
      </trkpt>
      <trkpt lat="42.69125" lon="1.39658">
        <ele>2243.287</ele>
        <time>2024-08-31T10:01:50Z</time>
      </trkpt>
      <trkpt lat="42.69125" lon="1.39658">
        <ele>2241.546</ele>
        <time>2024-08-31T10:01:52Z</time>
      </trkpt>
      <trkpt lat="42.69125" lon="1.39658">
        <ele>2241.576</ele>
        <time>2024-08-31T10:01:54Z</time>
      </trkpt>
      <trkpt lat="42.69125" lon="1.39658">
        <ele>2241.946</ele>
        <time>2024-08-31T10:01:56Z</time>
      </trkpt>
      <trkpt lat="42.69125" lon="1.39658">
        <ele>2242.238</ele>
        <time>2024-08-31T10:01:58Z</time>
      </trkpt>
      <trkpt lat="42.69125" lon="1.39658">
        <ele>2242.128</ele>
        <time>2024-08-31T10:02:00Z</time>
      </trkpt>
      <trkpt lat="42.69125" lon="1.39658">
        <ele>2242.095</ele>
        <time>2024-08-31T10:02:02Z</time>
      </trkpt>
      <trkpt lat="42.69125" lon="1.39658">
        <ele>2241.904</ele>
        <time>2024-08-31T10:02:04Z</time>
      </trkpt>
      <trkpt lat="42.69125" lon="1.39658">
        <ele>2242.022</ele>
        <time>2024-08-31T10:02:06Z</time>
      </trkpt>
      <trkpt lat="42.69125" lon="1.39658">
        <ele>2242.013</ele>
        <time>2024-08-31T10:02:08Z</time>
      </trkpt>
      <trkpt lat="42.69125" lon="1.39658">
        <ele>2242.001</ele>
        <time>2024-08-31T10:02:10Z</time>
      </trkpt>
      <trkpt lat="42.69125" lon="1.39658">
        <ele>2241.993</ele>
        <time>2024-08-31T10:02:12Z</time>
      </trkpt>
      <trkpt lat="42.69125" lon="1.39658">
        <ele>2242.635</ele>
        <time>2024-08-31T10:02:14Z</time>
      </trkpt>
      <trkpt lat="42.69125" lon="1.39658">
        <ele>2242.648</ele>
        <time>2024-08-31T10:02:16Z</time>
      </trkpt>
      <trkpt lat="42.69125" lon="1.39658">
        <ele>2242.638</ele>
        <time>2024-08-31T10:02:18Z</time>
      </trkpt>
      <trkpt lat="42.69125" lon="1.39658">
        <ele>2242.609</ele>
        <time>2024-08-31T10:02:20Z</time>
      </trkpt>
      <trkpt lat="42.69125" lon="1.39658">
        <ele>2242.575</ele>
        <time>2024-08-31T10:02:22Z</time>
      </trkpt>
      <trkpt lat="42.69125" lon="1.39658">
        <ele>2242.554</ele>
        <time>2024-08-31T10:02:24Z</time>
      </trkpt>
      <trkpt lat="42.69125" lon="1.39658">
        <ele>2242.548</ele>
        <time>2024-08-31T10:02:26Z</time>
      </trkpt>
      <trkpt lat="42.69125" lon="1.39658">
        <ele>2242.55</ele>
        <time>2024-08-31T10:02:28Z</time>
      </trkpt>
      <trkpt lat="42.69125" lon="1.39658">
        <ele>2242.547</ele>
        <time>2024-08-31T10:02:30Z</time>
      </trkpt>
      <trkpt lat="42.69125" lon="1.39658">
        <ele>2242.555</ele>
        <time>2024-08-31T10:02:32Z</time>
      </trkpt>
      <trkpt lat="42.69125" lon="1.39658">
        <ele>2242.549</ele>
        <time>2024-08-31T10:02:34Z</time>
      </trkpt>
      <trkpt lat="42.69125" lon="1.39658">
        <ele>2242.531</ele>
        <time>2024-08-31T10:02:36Z</time>
      </trkpt>
      <trkpt lat="42.69125" lon="1.39658">
        <ele>2242.526</ele>
        <time>2024-08-31T10:02:38Z</time>
      </trkpt>
      <trkpt lat="42.69125" lon="1.39658">
        <ele>2242.525</ele>
        <time>2024-08-31T10:02:40Z</time>
      </trkpt>
      <trkpt lat="42.69125" lon="1.39658">
        <ele>2242.518</ele>
        <time>2024-08-31T10:02:42Z</time>
      </trkpt>
      <trkpt lat="42.69125" lon="1.39658">
        <ele>2242.492</ele>
        <time>2024-08-31T10:02:44Z</time>
      </trkpt>
      <trkpt lat="42.69125" lon="1.39658">
        <ele>2242.492</ele>
        <time>2024-08-31T10:02:46Z</time>
      </trkpt>
      <trkpt lat="42.69125" lon="1.39658">
        <ele>2242.505</ele>
        <time>2024-08-31T10:02:48Z</time>
      </trkpt>
      <trkpt lat="42.69125" lon="1.39658">
        <ele>2242.505</ele>
        <time>2024-08-31T10:02:50Z</time>
      </trkpt>
      <trkpt lat="42.69125" lon="1.39658">
        <ele>2242.508</ele>
        <time>2024-08-31T10:02:52Z</time>
      </trkpt>
      <trkpt lat="42.69125" lon="1.39658">
        <ele>2242.511</ele>
        <time>2024-08-31T10:02:54Z</time>
      </trkpt>
      <trkpt lat="42.69125" lon="1.39658">
        <ele>2242.497</ele>
        <time>2024-08-31T10:02:56Z</time>
      </trkpt>
      <trkpt lat="42.69125" lon="1.39658">
        <ele>2242.472</ele>
        <time>2024-08-31T10:02:58Z</time>
      </trkpt>
      <trkpt lat="42.69125" lon="1.39658">
        <ele>2242.443</ele>
        <time>2024-08-31T10:03:00Z</time>
      </trkpt>
      <trkpt lat="42.69125" lon="1.39658">
        <ele>2242.403</ele>
        <time>2024-08-31T10:03:02Z</time>
      </trkpt>
      <trkpt lat="42.69125" lon="1.39658">
        <ele>2242.392</ele>
        <time>2024-08-31T10:03:04Z</time>
      </trkpt>
      <trkpt lat="42.69125" lon="1.39658">
        <ele>2242.411</ele>
        <time>2024-08-31T10:03:06Z</time>
      </trkpt>
      <trkpt lat="42.69125" lon="1.39658">
        <ele>2242.397</ele>
        <time>2024-08-31T10:03:08Z</time>
      </trkpt>
      <trkpt lat="42.69125" lon="1.39658">
        <ele>2242.409</ele>
        <time>2024-08-31T10:03:10Z</time>
      </trkpt>
      <trkpt lat="42.69125" lon="1.39658">
        <ele>2242.419</ele>
        <time>2024-08-31T10:03:12Z</time>
      </trkpt>
      <trkpt lat="42.69125" lon="1.39658">
        <ele>2242.411</ele>
        <time>2024-08-31T10:03:14Z</time>
      </trkpt>
      <trkpt lat="42.69125" lon="1.39658">
        <ele>2242.398</ele>
        <time>2024-08-31T10:03:16Z</time>
      </trkpt>
      <trkpt lat="42.69125" lon="1.39658">
        <ele>2242.004</ele>
        <time>2024-08-31T10:03:18Z</time>
      </trkpt>
      <trkpt lat="42.69125" lon="1.39658">
        <ele>2241.991</ele>
        <time>2024-08-31T10:03:20Z</time>
      </trkpt>
      <trkpt lat="42.69125" lon="1.39658">
        <ele>2241.969</ele>
        <time>2024-08-31T10:03:22Z</time>
      </trkpt>
      <trkpt lat="42.69125" lon="1.39658">
        <ele>2241.95</ele>
        <time>2024-08-31T10:03:24Z</time>
      </trkpt>
      <trkpt lat="42.69125" lon="1.39658">
        <ele>2241.931</ele>
        <time>2024-08-31T10:03:26Z</time>
      </trkpt>
      <trkpt lat="42.69125" lon="1.39658">
        <ele>2241.915</ele>
        <time>2024-08-31T10:03:28Z</time>
      </trkpt>
      <trkpt lat="42.69125" lon="1.39658">
        <ele>2241.907</ele>
        <time>2024-08-31T10:03:30Z</time>
      </trkpt>
      <trkpt lat="42.69125" lon="1.39658">
        <ele>2241.901</ele>
        <time>2024-08-31T10:03:32Z</time>
      </trkpt>
      <trkpt lat="42.69125" lon="1.39658">
        <ele>2241.9</ele>
        <time>2024-08-31T10:03:34Z</time>
      </trkpt>
      <trkpt lat="42.69125" lon="1.39658">
        <ele>2241.89</ele>
        <time>2024-08-31T10:03:36Z</time>
      </trkpt>
      <trkpt lat="42.69125" lon="1.39658">
        <ele>2241.872</ele>
        <time>2024-08-31T10:03:38Z</time>
      </trkpt>
      <trkpt lat="42.69125" lon="1.39658">
        <ele>2241.862</ele>
        <time>2024-08-31T10:03:40Z</time>
      </trkpt>
      <trkpt lat="42.69125" lon="1.39658">
        <ele>2241.862</ele>
        <time>2024-08-31T10:03:42Z</time>
      </trkpt>
      <trkpt lat="42.69125" lon="1.39658">
        <ele>2241.876</ele>
        <time>2024-08-31T10:03:44Z</time>
      </trkpt>
      <trkpt lat="42.69125" lon="1.39658">
        <ele>2241.872</ele>
        <time>2024-08-31T10:03:46Z</time>
      </trkpt>
      <trkpt lat="42.69125" lon="1.39658">
        <ele>2241.867</ele>
        <time>2024-08-31T10:03:48Z</time>
      </trkpt>
      <trkpt lat="42.69125" lon="1.39658">
        <ele>2241.861</ele>
        <time>2024-08-31T10:03:50Z</time>
      </trkpt>
      <trkpt lat="42.69125" lon="1.39658">
        <ele>2241.861</ele>
        <time>2024-08-31T10:03:52Z</time>
      </trkpt>
      <trkpt lat="42.69125" lon="1.39658">
        <ele>2241.845</ele>
        <time>2024-08-31T10:03:54Z</time>
      </trkpt>
      <trkpt lat="42.69125" lon="1.39658">
        <ele>2241.845</ele>
        <time>2024-08-31T10:03:56Z</time>
      </trkpt>
      <trkpt lat="42.69125" lon="1.39658">
        <ele>2241.833</ele>
        <time>2024-08-31T10:03:58Z</time>
      </trkpt>
      <trkpt lat="42.69125" lon="1.39658">
        <ele>2241.814</ele>
        <time>2024-08-31T10:04:00Z</time>
      </trkpt>
      <trkpt lat="42.69125" lon="1.39658">
        <ele>2241.794</ele>
        <time>2024-08-31T10:04:02Z</time>
      </trkpt>
      <trkpt lat="42.69125" lon="1.39658">
        <ele>2241.795</ele>
        <time>2024-08-31T10:04:04Z</time>
      </trkpt>
      <trkpt lat="42.69125" lon="1.39658">
        <ele>2241.761</ele>
        <time>2024-08-31T10:04:06Z</time>
      </trkpt>
      <trkpt lat="42.69125" lon="1.39658">
        <ele>2241.742</ele>
        <time>2024-08-31T10:04:08Z</time>
      </trkpt>
      <trkpt lat="42.69125" lon="1.39658">
        <ele>2241.741</ele>
        <time>2024-08-31T10:04:10Z</time>
      </trkpt>
      <trkpt lat="42.69125" lon="1.39658">
        <ele>2241.755</ele>
        <time>2024-08-31T10:04:12Z</time>
      </trkpt>
      <trkpt lat="42.69125" lon="1.39658">
        <ele>2241.761</ele>
        <time>2024-08-31T10:04:14Z</time>
      </trkpt>
      <trkpt lat="42.69125" lon="1.39658">
        <ele>2241.743</ele>
        <time>2024-08-31T10:04:16Z</time>
      </trkpt>
      <trkpt lat="42.69125" lon="1.39658">
        <ele>2241.719</ele>
        <time>2024-08-31T10:04:18Z</time>
      </trkpt>
      <trkpt lat="42.69125" lon="1.39658">
        <ele>2241.686</ele>
        <time>2024-08-31T10:04:20Z</time>
      </trkpt>
      <trkpt lat="42.69125" lon="1.39658">
        <ele>2241.673</ele>
        <time>2024-08-31T10:04:22Z</time>
      </trkpt>
      <trkpt lat="42.69125" lon="1.39658">
        <ele>2241.657</ele>
        <time>2024-08-31T10:04:24Z</time>
      </trkpt>
      <trkpt lat="42.69125" lon="1.39658">
        <ele>2241.656</ele>
        <time>2024-08-31T10:04:26Z</time>
      </trkpt>
      <trkpt lat="42.69125" lon="1.39658">
        <ele>2241.624</ele>
        <time>2024-08-31T10:04:28Z</time>
      </trkpt>
      <trkpt lat="42.69125" lon="1.39658">
        <ele>2241.6</ele>
        <time>2024-08-31T10:04:30Z</time>
      </trkpt>
      <trkpt lat="42.69125" lon="1.39658">
        <ele>2241.586</ele>
        <time>2024-08-31T10:04:32Z</time>
      </trkpt>
      <trkpt lat="42.69125" lon="1.39658">
        <ele>2241.568</ele>
        <time>2024-08-31T10:04:34Z</time>
      </trkpt>
      <trkpt lat="42.69125" lon="1.39658">
        <ele>2241.533</ele>
        <time>2024-08-31T10:04:36Z</time>
      </trkpt>
      <trkpt lat="42.69125" lon="1.39658">
        <ele>2241.499</ele>
        <time>2024-08-31T10:04:38Z</time>
      </trkpt>
      <trkpt lat="42.69125" lon="1.39658">
        <ele>2241.489</ele>
        <time>2024-08-31T10:04:40Z</time>
      </trkpt>
      <trkpt lat="42.69125" lon="1.39658">
        <ele>2241.476</ele>
        <time>2024-08-31T10:04:42Z</time>
      </trkpt>
      <trkpt lat="42.69125" lon="1.39658">
        <ele>2241.454</ele>
        <time>2024-08-31T10:04:44Z</time>
      </trkpt>
      <trkpt lat="42.69125" lon="1.39658">
        <ele>2241.445</ele>
        <time>2024-08-31T10:04:46Z</time>
      </trkpt>
      <trkpt lat="42.69125" lon="1.39658">
        <ele>2241.448</ele>
        <time>2024-08-31T10:04:48Z</time>
      </trkpt>
      <trkpt lat="42.69125" lon="1.39658">
        <ele>2241.436</ele>
        <time>2024-08-31T10:04:50Z</time>
      </trkpt>
      <trkpt lat="42.69125" lon="1.39658">
        <ele>2241.409</ele>
        <time>2024-08-31T10:04:52Z</time>
      </trkpt>
      <trkpt lat="42.69125" lon="1.39658">
        <ele>2241.406</ele>
        <time>2024-08-31T10:04:54Z</time>
      </trkpt>
      <trkpt lat="42.69125" lon="1.39658">
        <ele>2241.394</ele>
        <time>2024-08-31T10:04:56Z</time>
      </trkpt>
      <trkpt lat="42.69125" lon="1.39658">
        <ele>2241.398</ele>
        <time>2024-08-31T10:04:58Z</time>
      </trkpt>
      <trkpt lat="42.69125" lon="1.39658">
        <ele>2241.395</ele>
        <time>2024-08-31T10:05:00Z</time>
      </trkpt>
      <trkpt lat="42.69125" lon="1.39658">
        <ele>2241.386</ele>
        <time>2024-08-31T10:05:02Z</time>
      </trkpt>
      <trkpt lat="42.69125" lon="1.39658">
        <ele>2241.38</ele>
        <time>2024-08-31T10:05:04Z</time>
      </trkpt>
      <trkpt lat="42.69125" lon="1.39658">
        <ele>2241.358</ele>
        <time>2024-08-31T10:05:06Z</time>
      </trkpt>
      <trkpt lat="42.69125" lon="1.39658">
        <ele>2241.359</ele>
        <time>2024-08-31T10:05:08Z</time>
      </trkpt>
      <trkpt lat="42.69125" lon="1.39658">
        <ele>2241.376</ele>
        <time>2024-08-31T10:05:10Z</time>
      </trkpt>
      <trkpt lat="42.69125" lon="1.39658">
        <ele>2241.39</ele>
        <time>2024-08-31T10:05:12Z</time>
      </trkpt>
      <trkpt lat="42.69125" lon="1.39658">
        <ele>2241.398</ele>
        <time>2024-08-31T10:05:14Z</time>
      </trkpt>
      <trkpt lat="42.69125" lon="1.39658">
        <ele>2241.411</ele>
        <time>2024-08-31T10:05:16Z</time>
      </trkpt>
      <trkpt lat="42.69125" lon="1.39658">
        <ele>2241.407</ele>
        <time>2024-08-31T10:05:18Z</time>
      </trkpt>
      <trkpt lat="42.69125" lon="1.39658">
        <ele>2241.399</ele>
        <time>2024-08-31T10:05:20Z</time>
      </trkpt>
      <trkpt lat="42.69125" lon="1.39658">
        <ele>2241.387</ele>
        <time>2024-08-31T10:05:22Z</time>
      </trkpt>
      <trkpt lat="42.69125" lon="1.39658">
        <ele>2241.386</ele>
        <time>2024-08-31T10:05:24Z</time>
      </trkpt>
      <trkpt lat="42.69125" lon="1.39658">
        <ele>2241.399</ele>
        <time>2024-08-31T10:05:26Z</time>
      </trkpt>
      <trkpt lat="42.69125" lon="1.39658">
        <ele>2241.413</ele>
        <time>2024-08-31T10:05:28Z</time>
      </trkpt>
      <trkpt lat="42.69125" lon="1.39658">
        <ele>2241.404</ele>
        <time>2024-08-31T10:05:30Z</time>
      </trkpt>
      <trkpt lat="42.69125" lon="1.39658">
        <ele>2241.39</ele>
        <time>2024-08-31T10:05:32Z</time>
      </trkpt>
      <trkpt lat="42.69125" lon="1.39658">
        <ele>2241.394</ele>
        <time>2024-08-31T10:05:34Z</time>
      </trkpt>
      <trkpt lat="42.69125" lon="1.39658">
        <ele>2241.385</ele>
        <time>2024-08-31T10:05:36Z</time>
      </trkpt>
      <trkpt lat="42.69125" lon="1.39658">
        <ele>2241.382</ele>
        <time>2024-08-31T10:05:38Z</time>
      </trkpt>
      <trkpt lat="42.69125" lon="1.39658">
        <ele>2241.376</ele>
        <time>2024-08-31T10:05:40Z</time>
      </trkpt>
      <trkpt lat="42.69125" lon="1.39658">
        <ele>2241.375</ele>
        <time>2024-08-31T10:05:42Z</time>
      </trkpt>
      <trkpt lat="42.69125" lon="1.39658">
        <ele>2241.347</ele>
        <time>2024-08-31T10:05:44Z</time>
      </trkpt>
      <trkpt lat="42.69125" lon="1.39658">
        <ele>2241.353</ele>
        <time>2024-08-31T10:05:46Z</time>
      </trkpt>
      <trkpt lat="42.69125" lon="1.39658">
        <ele>2241.348</ele>
        <time>2024-08-31T10:05:48Z</time>
      </trkpt>
      <trkpt lat="42.69125" lon="1.39658">
        <ele>2241.347</ele>
        <time>2024-08-31T10:05:50Z</time>
      </trkpt>
      <trkpt lat="42.69125" lon="1.39658">
        <ele>2241.341</ele>
        <time>2024-08-31T10:05:52Z</time>
      </trkpt>
      <trkpt lat="42.69125" lon="1.39658">
        <ele>2241.23</ele>
        <time>2024-08-31T10:05:54Z</time>
      </trkpt>
      <trkpt lat="42.69125" lon="1.39658">
        <ele>2241.226</ele>
        <time>2024-08-31T10:05:56Z</time>
      </trkpt>
      <trkpt lat="42.69125" lon="1.39658">
        <ele>2241.185</ele>
        <time>2024-08-31T10:05:58Z</time>
      </trkpt>
      <trkpt lat="42.69125" lon="1.39658">
        <ele>2241.19</ele>
        <time>2024-08-31T10:06:00Z</time>
      </trkpt>
      <trkpt lat="42.69125" lon="1.39658">
        <ele>2241.163</ele>
        <time>2024-08-31T10:06:02Z</time>
      </trkpt>
      <trkpt lat="42.69125" lon="1.39658">
        <ele>2241.119</ele>
        <time>2024-08-31T10:06:04Z</time>
      </trkpt>
      <trkpt lat="42.69125" lon="1.39658">
        <ele>2241.062</ele>
        <time>2024-08-31T10:06:06Z</time>
      </trkpt>
      <trkpt lat="42.69125" lon="1.39658">
        <ele>2241.043</ele>
        <time>2024-08-31T10:06:08Z</time>
      </trkpt>
      <trkpt lat="42.69125" lon="1.39658">
        <ele>2241.035</ele>
        <time>2024-08-31T10:06:10Z</time>
      </trkpt>
      <trkpt lat="42.69125" lon="1.39658">
        <ele>2241.047</ele>
        <time>2024-08-31T10:06:12Z</time>
      </trkpt>
      <trkpt lat="42.69125" lon="1.39658">
        <ele>2241.079</ele>
        <time>2024-08-31T10:06:14Z</time>
      </trkpt>
      <trkpt lat="42.69125" lon="1.39658">
        <ele>2241.102</ele>
        <time>2024-08-31T10:06:16Z</time>
      </trkpt>
      <trkpt lat="42.69125" lon="1.39658">
        <ele>2241.086</ele>
        <time>2024-08-31T10:06:18Z</time>
      </trkpt>
      <trkpt lat="42.69125" lon="1.39658">
        <ele>2241.044</ele>
        <time>2024-08-31T10:06:20Z</time>
      </trkpt>
      <trkpt lat="42.69125" lon="1.39658">
        <ele>2240.993</ele>
        <time>2024-08-31T10:06:22Z</time>
      </trkpt>
      <trkpt lat="42.69125" lon="1.39658">
        <ele>2240.949</ele>
        <time>2024-08-31T10:06:24Z</time>
      </trkpt>
      <trkpt lat="42.69125" lon="1.39658">
        <ele>2240.917</ele>
        <time>2024-08-31T10:06:26Z</time>
      </trkpt>
      <trkpt lat="42.69125" lon="1.39658">
        <ele>2240.9</ele>
        <time>2024-08-31T10:06:28Z</time>
      </trkpt>
      <trkpt lat="42.69125" lon="1.39658">
        <ele>2240.9</ele>
        <time>2024-08-31T10:06:30Z</time>
      </trkpt>
      <trkpt lat="42.69125" lon="1.39658">
        <ele>2240.907</ele>
        <time>2024-08-31T10:06:32Z</time>
      </trkpt>
      <trkpt lat="42.69125" lon="1.39658">
        <ele>2240.905</ele>
        <time>2024-08-31T10:06:34Z</time>
      </trkpt>
      <trkpt lat="42.69125" lon="1.39658">
        <ele>2240.878</ele>
        <time>2024-08-31T10:06:36Z</time>
      </trkpt>
      <trkpt lat="42.69125" lon="1.39658">
        <ele>2240.84</ele>
        <time>2024-08-31T10:06:38Z</time>
      </trkpt>
      <trkpt lat="42.69125" lon="1.39658">
        <ele>2240.797</ele>
        <time>2024-08-31T10:06:40Z</time>
      </trkpt>
      <trkpt lat="42.69125" lon="1.39658">
        <ele>2240.762</ele>
        <time>2024-08-31T10:06:42Z</time>
      </trkpt>
      <trkpt lat="42.69125" lon="1.39658">
        <ele>2240.757</ele>
        <time>2024-08-31T10:06:44Z</time>
      </trkpt>
      <trkpt lat="42.69125" lon="1.39658">
        <ele>2240.758</ele>
        <time>2024-08-31T10:06:46Z</time>
      </trkpt>
      <trkpt lat="42.69125" lon="1.39658">
        <ele>2240.765</ele>
        <time>2024-08-31T10:06:48Z</time>
      </trkpt>
      <trkpt lat="42.69125" lon="1.39658">
        <ele>2240.755</ele>
        <time>2024-08-31T10:06:50Z</time>
      </trkpt>
      <trkpt lat="42.69125" lon="1.39658">
        <ele>2240.754</ele>
        <time>2024-08-31T10:06:52Z</time>
      </trkpt>
      <trkpt lat="42.69125" lon="1.39658">
        <ele>2240.74</ele>
        <time>2024-08-31T10:06:54Z</time>
      </trkpt>
      <trkpt lat="42.69125" lon="1.39658">
        <ele>2240.727</ele>
        <time>2024-08-31T10:06:56Z</time>
      </trkpt>
      <trkpt lat="42.69125" lon="1.39658">
        <ele>2240.688</ele>
        <time>2024-08-31T10:06:58Z</time>
      </trkpt>
      <trkpt lat="42.69125" lon="1.39658">
        <ele>2240.657</ele>
        <time>2024-08-31T10:07:00Z</time>
      </trkpt>
      <trkpt lat="42.69125" lon="1.39658">
        <ele>2240.628</ele>
        <time>2024-08-31T10:07:02Z</time>
      </trkpt>
      <trkpt lat="42.69125" lon="1.39658">
        <ele>2240.601</ele>
        <time>2024-08-31T10:07:04Z</time>
      </trkpt>
      <trkpt lat="42.69125" lon="1.39658">
        <ele>2240.61</ele>
        <time>2024-08-31T10:07:06Z</time>
      </trkpt>
      <trkpt lat="42.69125" lon="1.39658">
        <ele>2240.619</ele>
        <time>2024-08-31T10:07:08Z</time>
      </trkpt>
      <trkpt lat="42.69125" lon="1.39658">
        <ele>2240.628</ele>
        <time>2024-08-31T10:07:10Z</time>
      </trkpt>
      <trkpt lat="42.69125" lon="1.39658">
        <ele>2240.635</ele>
        <time>2024-08-31T10:07:12Z</time>
      </trkpt>
      <trkpt lat="42.69125" lon="1.39658">
        <ele>2240.623</ele>
        <time>2024-08-31T10:07:14Z</time>
      </trkpt>
      <trkpt lat="42.69125" lon="1.39658">
        <ele>2240.63</ele>
        <time>2024-08-31T10:07:16Z</time>
      </trkpt>
      <trkpt lat="42.69125" lon="1.39658">
        <ele>2240.631</ele>
        <time>2024-08-31T10:07:18Z</time>
      </trkpt>
      <trkpt lat="42.69125" lon="1.39658">
        <ele>2240.637</ele>
        <time>2024-08-31T10:07:20Z</time>
      </trkpt>
      <trkpt lat="42.69125" lon="1.39658">
        <ele>2240.646</ele>
        <time>2024-08-31T10:07:22Z</time>
      </trkpt>
      <trkpt lat="42.69125" lon="1.39658">
        <ele>2240.654</ele>
        <time>2024-08-31T10:07:24Z</time>
      </trkpt>
      <trkpt lat="42.69125" lon="1.39658">
        <ele>2240.647</ele>
        <time>2024-08-31T10:07:26Z</time>
      </trkpt>
      <trkpt lat="42.69125" lon="1.39658">
        <ele>2240.652</ele>
        <time>2024-08-31T10:07:28Z</time>
      </trkpt>
      <trkpt lat="42.69125" lon="1.39658">
        <ele>2240.654</ele>
        <time>2024-08-31T10:07:30Z</time>
      </trkpt>
      <trkpt lat="42.69125" lon="1.39658">
        <ele>2240.648</ele>
        <time>2024-08-31T10:07:32Z</time>
      </trkpt>
      <trkpt lat="42.69125" lon="1.39658">
        <ele>2240.623</ele>
        <time>2024-08-31T10:07:34Z</time>
      </trkpt>
      <trkpt lat="42.69125" lon="1.39658">
        <ele>2240.604</ele>
        <time>2024-08-31T10:07:36Z</time>
      </trkpt>
      <trkpt lat="42.69125" lon="1.39658">
        <ele>2240.587</ele>
        <time>2024-08-31T10:07:38Z</time>
      </trkpt>
      <trkpt lat="42.69125" lon="1.39658">
        <ele>2240.593</ele>
        <time>2024-08-31T10:07:40Z</time>
      </trkpt>
      <trkpt lat="42.69125" lon="1.39658">
        <ele>2240.592</ele>
        <time>2024-08-31T10:07:42Z</time>
      </trkpt>
      <trkpt lat="42.69125" lon="1.39658">
        <ele>2240.584</ele>
        <time>2024-08-31T10:07:44Z</time>
      </trkpt>
      <trkpt lat="42.69125" lon="1.39658">
        <ele>2240.573</ele>
        <time>2024-08-31T10:07:46Z</time>
      </trkpt>
      <trkpt lat="42.69125" lon="1.39658">
        <ele>2240.565</ele>
        <time>2024-08-31T10:07:48Z</time>
      </trkpt>
      <trkpt lat="42.69125" lon="1.39658">
        <ele>2240.569</ele>
        <time>2024-08-31T10:07:50Z</time>
      </trkpt>
      <trkpt lat="42.69125" lon="1.39658">
        <ele>2240.585</ele>
        <time>2024-08-31T10:07:52Z</time>
      </trkpt>
      <trkpt lat="42.69125" lon="1.39658">
        <ele>2240.598</ele>
        <time>2024-08-31T10:07:54Z</time>
      </trkpt>
      <trkpt lat="42.69125" lon="1.39658">
        <ele>2240.602</ele>
        <time>2024-08-31T10:07:56Z</time>
      </trkpt>
      <trkpt lat="42.69125" lon="1.39658">
        <ele>2240.586</ele>
        <time>2024-08-31T10:07:58Z</time>
      </trkpt>
      <trkpt lat="42.69125" lon="1.39658">
        <ele>2240.552</ele>
        <time>2024-08-31T10:08:00Z</time>
      </trkpt>
      <trkpt lat="42.69125" lon="1.39658">
        <ele>2240.541</ele>
        <time>2024-08-31T10:08:02Z</time>
      </trkpt>
      <trkpt lat="42.69125" lon="1.39658">
        <ele>2240.546</ele>
        <time>2024-08-31T10:08:04Z</time>
      </trkpt>
      <trkpt lat="42.69125" lon="1.39658">
        <ele>2240.55</ele>
        <time>2024-08-31T10:08:06Z</time>
      </trkpt>
      <trkpt lat="42.69125" lon="1.39658">
        <ele>2240.55</ele>
        <time>2024-08-31T10:08:08Z</time>
      </trkpt>
      <trkpt lat="42.69125" lon="1.39658">
        <ele>2240.526</ele>
        <time>2024-08-31T10:08:10Z</time>
      </trkpt>
      <trkpt lat="42.69125" lon="1.39658">
        <ele>2240.491</ele>
        <time>2024-08-31T10:08:12Z</time>
      </trkpt>
      <trkpt lat="42.69125" lon="1.39658">
        <ele>2240.479</ele>
        <time>2024-08-31T10:08:14Z</time>
      </trkpt>
      <trkpt lat="42.69125" lon="1.39658">
        <ele>2240.484</ele>
        <time>2024-08-31T10:08:16Z</time>
      </trkpt>
      <trkpt lat="42.69125" lon="1.39658">
        <ele>2240.491</ele>
        <time>2024-08-31T10:08:18Z</time>
      </trkpt>
      <trkpt lat="42.69125" lon="1.39658">
        <ele>2240.478</ele>
        <time>2024-08-31T10:08:20Z</time>
      </trkpt>
      <trkpt lat="42.69125" lon="1.39658">
        <ele>2240.487</ele>
        <time>2024-08-31T10:08:22Z</time>
      </trkpt>
      <trkpt lat="42.69125" lon="1.39658">
        <ele>2240.457</ele>
        <time>2024-08-31T10:08:24Z</time>
      </trkpt>
      <trkpt lat="42.69125" lon="1.39658">
        <ele>2240.44</ele>
        <time>2024-08-31T10:08:26Z</time>
      </trkpt>
      <trkpt lat="42.69125" lon="1.39658">
        <ele>2240.446</ele>
        <time>2024-08-31T10:08:28Z</time>
      </trkpt>
      <trkpt lat="42.69125" lon="1.39658">
        <ele>2240.46</ele>
        <time>2024-08-31T10:08:30Z</time>
      </trkpt>
      <trkpt lat="42.69125" lon="1.39658">
        <ele>2240.469</ele>
        <time>2024-08-31T10:08:32Z</time>
      </trkpt>
      <trkpt lat="42.69125" lon="1.39658">
        <ele>2240.465</ele>
        <time>2024-08-31T10:08:34Z</time>
      </trkpt>
      <trkpt lat="42.69125" lon="1.39658">
        <ele>2240.44</ele>
        <time>2024-08-31T10:08:36Z</time>
      </trkpt>
      <trkpt lat="42.69125" lon="1.39658">
        <ele>2240.378</ele>
        <time>2024-08-31T10:08:38Z</time>
      </trkpt>
      <trkpt lat="42.69125" lon="1.39658">
        <ele>2240.314</ele>
        <time>2024-08-31T10:08:40Z</time>
      </trkpt>
      <trkpt lat="42.69125" lon="1.39658">
        <ele>2240.291</ele>
        <time>2024-08-31T10:08:42Z</time>
      </trkpt>
      <trkpt lat="42.69125" lon="1.39658">
        <ele>2240.265</ele>
        <time>2024-08-31T10:08:44Z</time>
      </trkpt>
      <trkpt lat="42.69125" lon="1.39658">
        <ele>2240.258</ele>
        <time>2024-08-31T10:08:46Z</time>
      </trkpt>
      <trkpt lat="42.69125" lon="1.39658">
        <ele>2240.242</ele>
        <time>2024-08-31T10:08:48Z</time>
      </trkpt>
      <trkpt lat="42.69125" lon="1.39658">
        <ele>2240.221</ele>
        <time>2024-08-31T10:08:50Z</time>
      </trkpt>
      <trkpt lat="42.69125" lon="1.39658">
        <ele>2240.193</ele>
        <time>2024-08-31T10:08:52Z</time>
      </trkpt>
      <trkpt lat="42.69125" lon="1.39658">
        <ele>2240.182</ele>
        <time>2024-08-31T10:08:54Z</time>
      </trkpt>
      <trkpt lat="42.69125" lon="1.39658">
        <ele>2240.186</ele>
        <time>2024-08-31T10:08:56Z</time>
      </trkpt>
      <trkpt lat="42.69125" lon="1.39658">
        <ele>2240.175</ele>
        <time>2024-08-31T10:08:58Z</time>
      </trkpt>
      <trkpt lat="42.69125" lon="1.39658">
        <ele>2240.163</ele>
        <time>2024-08-31T10:09:00Z</time>
      </trkpt>
      <trkpt lat="42.69125" lon="1.39658">
        <ele>2240.167</ele>
        <time>2024-08-31T10:09:02Z</time>
      </trkpt>
      <trkpt lat="42.69125" lon="1.39658">
        <ele>2240.168</ele>
        <time>2024-08-31T10:09:04Z</time>
      </trkpt>
      <trkpt lat="42.69125" lon="1.39658">
        <ele>2240.148</ele>
        <time>2024-08-31T10:09:06Z</time>
      </trkpt>
      <trkpt lat="42.69125" lon="1.39658">
        <ele>2240.137</ele>
        <time>2024-08-31T10:09:08Z</time>
      </trkpt>
      <trkpt lat="42.69125" lon="1.39658">
        <ele>2240.138</ele>
        <time>2024-08-31T10:09:10Z</time>
      </trkpt>
      <trkpt lat="42.69125" lon="1.39658">
        <ele>2240.093</ele>
        <time>2024-08-31T10:09:12Z</time>
      </trkpt>
      <trkpt lat="42.69125" lon="1.39658">
        <ele>2240.055</ele>
        <time>2024-08-31T10:09:14Z</time>
      </trkpt>
      <trkpt lat="42.69125" lon="1.39658">
        <ele>2240.029</ele>
        <time>2024-08-31T10:09:16Z</time>
      </trkpt>
      <trkpt lat="42.69125" lon="1.39658">
        <ele>2240.039</ele>
        <time>2024-08-31T10:09:18Z</time>
      </trkpt>
      <trkpt lat="42.69125" lon="1.39658">
        <ele>2240.057</ele>
        <time>2024-08-31T10:09:20Z</time>
      </trkpt>
      <trkpt lat="42.69125" lon="1.39658">
        <ele>2240.045</ele>
        <time>2024-08-31T10:09:22Z</time>
      </trkpt>
      <trkpt lat="42.69125" lon="1.39658">
        <ele>2239.995</ele>
        <time>2024-08-31T10:09:24Z</time>
      </trkpt>
      <trkpt lat="42.69125" lon="1.39658">
        <ele>2239.981</ele>
        <time>2024-08-31T10:09:26Z</time>
      </trkpt>
      <trkpt lat="42.69125" lon="1.39658">
        <ele>2239.991</ele>
        <time>2024-08-31T10:09:28Z</time>
      </trkpt>
      <trkpt lat="42.69125" lon="1.39658">
        <ele>2240.006</ele>
        <time>2024-08-31T10:09:30Z</time>
      </trkpt>
      <trkpt lat="42.69125" lon="1.39658">
        <ele>2239.97</ele>
        <time>2024-08-31T10:09:32Z</time>
      </trkpt>
      <trkpt lat="42.69125" lon="1.39658">
        <ele>2239.951</ele>
        <time>2024-08-31T10:09:34Z</time>
      </trkpt>
      <trkpt lat="42.69125" lon="1.39658">
        <ele>2239.929</ele>
        <time>2024-08-31T10:09:36Z</time>
      </trkpt>
      <trkpt lat="42.69125" lon="1.39658">
        <ele>2239.911</ele>
        <time>2024-08-31T10:09:38Z</time>
      </trkpt>
      <trkpt lat="42.69125" lon="1.39658">
        <ele>2239.896</ele>
        <time>2024-08-31T10:09:40Z</time>
      </trkpt>
      <trkpt lat="42.69125" lon="1.39658">
        <ele>2239.882</ele>
        <time>2024-08-31T10:09:42Z</time>
      </trkpt>
      <trkpt lat="42.69125" lon="1.39658">
        <ele>2239.877</ele>
        <time>2024-08-31T10:09:44Z</time>
      </trkpt>
      <trkpt lat="42.69125" lon="1.39658">
        <ele>2239.873</ele>
        <time>2024-08-31T10:09:46Z</time>
      </trkpt>
      <trkpt lat="42.69125" lon="1.39658">
        <ele>2239.858</ele>
        <time>2024-08-31T10:09:48Z</time>
      </trkpt>
      <trkpt lat="42.69125" lon="1.39658">
        <ele>2239.864</ele>
        <time>2024-08-31T10:09:50Z</time>
      </trkpt>
      <trkpt lat="42.69125" lon="1.39658">
        <ele>2239.898</ele>
        <time>2024-08-31T10:09:52Z</time>
      </trkpt>
      <trkpt lat="42.69125" lon="1.39658">
        <ele>2239.942</ele>
        <time>2024-08-31T10:09:54Z</time>
      </trkpt>
      <trkpt lat="42.69125" lon="1.39658">
        <ele>2239.929</ele>
        <time>2024-08-31T10:09:56Z</time>
      </trkpt>
      <trkpt lat="42.69125" lon="1.39658">
        <ele>2239.91</ele>
        <time>2024-08-31T10:09:58Z</time>
      </trkpt>
      <trkpt lat="42.69125" lon="1.39658">
        <ele>2239.885</ele>
        <time>2024-08-31T10:10:00Z</time>
      </trkpt>
      <trkpt lat="42.69125" lon="1.39658">
        <ele>2239.876</ele>
        <time>2024-08-31T10:10:02Z</time>
      </trkpt>
      <trkpt lat="42.69125" lon="1.39658">
        <ele>2239.886</ele>
        <time>2024-08-31T10:10:04Z</time>
      </trkpt>
      <trkpt lat="42.69125" lon="1.39658">
        <ele>2239.889</ele>
        <time>2024-08-31T10:10:06Z</time>
      </trkpt>
      <trkpt lat="42.69125" lon="1.39658">
        <ele>2239.856</ele>
        <time>2024-08-31T10:10:08Z</time>
      </trkpt>
      <trkpt lat="42.69125" lon="1.39658">
        <ele>2239.817</ele>
        <time>2024-08-31T10:10:10Z</time>
      </trkpt>
      <trkpt lat="42.69125" lon="1.39658">
        <ele>2239.816</ele>
        <time>2024-08-31T10:10:12Z</time>
      </trkpt>
      <trkpt lat="42.69125" lon="1.39658">
        <ele>2239.83</ele>
        <time>2024-08-31T10:10:14Z</time>
      </trkpt>
      <trkpt lat="42.69125" lon="1.39658">
        <ele>2239.853</ele>
        <time>2024-08-31T10:10:16Z</time>
      </trkpt>
      <trkpt lat="42.69125" lon="1.39658">
        <ele>2239.857</ele>
        <time>2024-08-31T10:10:18Z</time>
      </trkpt>
      <trkpt lat="42.69125" lon="1.39658">
        <ele>2239.799</ele>
        <time>2024-08-31T10:10:20Z</time>
      </trkpt>
      <trkpt lat="42.69125" lon="1.39658">
        <ele>2239.746</ele>
        <time>2024-08-31T10:10:22Z</time>
      </trkpt>
      <trkpt lat="42.69125" lon="1.39658">
        <ele>2239.739</ele>
        <time>2024-08-31T10:10:24Z</time>
      </trkpt>
      <trkpt lat="42.69125" lon="1.39658">
        <ele>2239.765</ele>
        <time>2024-08-31T10:10:26Z</time>
      </trkpt>
      <trkpt lat="42.69125" lon="1.39658">
        <ele>2239.778</ele>
        <time>2024-08-31T10:10:28Z</time>
      </trkpt>
      <trkpt lat="42.69125" lon="1.39658">
        <ele>2239.767</ele>
        <time>2024-08-31T10:10:30Z</time>
      </trkpt>
      <trkpt lat="42.69125" lon="1.39658">
        <ele>2239.772</ele>
        <time>2024-08-31T10:10:32Z</time>
      </trkpt>
      <trkpt lat="42.69125" lon="1.39658">
        <ele>2239.753</ele>
        <time>2024-08-31T10:10:34Z</time>
      </trkpt>
      <trkpt lat="42.69125" lon="1.39658">
        <ele>2239.775</ele>
        <time>2024-08-31T10:10:36Z</time>
      </trkpt>
      <trkpt lat="42.69125" lon="1.39658">
        <ele>2239.752</ele>
        <time>2024-08-31T10:10:38Z</time>
      </trkpt>
      <trkpt lat="42.69125" lon="1.39658">
        <ele>2239.741</ele>
        <time>2024-08-31T10:10:40Z</time>
      </trkpt>
      <trkpt lat="42.69125" lon="1.39658">
        <ele>2239.723</ele>
        <time>2024-08-31T10:10:42Z</time>
      </trkpt>
      <trkpt lat="42.69125" lon="1.39658">
        <ele>2239.71</ele>
        <time>2024-08-31T10:10:44Z</time>
      </trkpt>
      <trkpt lat="42.69125" lon="1.39658">
        <ele>2239.732</ele>
        <time>2024-08-31T10:10:46Z</time>
      </trkpt>
      <trkpt lat="42.69125" lon="1.39658">
        <ele>2239.727</ele>
        <time>2024-08-31T10:10:48Z</time>
      </trkpt>
      <trkpt lat="42.69125" lon="1.39658">
        <ele>2239.71</ele>
        <time>2024-08-31T10:10:50Z</time>
      </trkpt>
      <trkpt lat="42.69125" lon="1.39658">
        <ele>2239.707</ele>
        <time>2024-08-31T10:10:52Z</time>
      </trkpt>
      <trkpt lat="42.69125" lon="1.39658">
        <ele>2239.744</ele>
        <time>2024-08-31T10:10:54Z</time>
      </trkpt>
      <trkpt lat="42.69125" lon="1.39658">
        <ele>2239.775</ele>
        <time>2024-08-31T10:10:56Z</time>
      </trkpt>
      <trkpt lat="42.69125" lon="1.39658">
        <ele>2239.808</ele>
        <time>2024-08-31T10:10:58Z</time>
      </trkpt>
      <trkpt lat="42.69125" lon="1.39658">
        <ele>2239.808</ele>
        <time>2024-08-31T10:11:00Z</time>
      </trkpt>
      <trkpt lat="42.69125" lon="1.39658">
        <ele>2239.782</ele>
        <time>2024-08-31T10:11:02Z</time>
      </trkpt>
      <trkpt lat="42.69125" lon="1.39658">
        <ele>2239.754</ele>
        <time>2024-08-31T10:11:04Z</time>
      </trkpt>
      <trkpt lat="42.69125" lon="1.39658">
        <ele>2239.753</ele>
        <time>2024-08-31T10:11:06Z</time>
      </trkpt>
      <trkpt lat="42.69125" lon="1.39658">
        <ele>2239.725</ele>
        <time>2024-08-31T10:11:08Z</time>
      </trkpt>
      <trkpt lat="42.69125" lon="1.39658">
        <ele>2239.701</ele>
        <time>2024-08-31T10:11:10Z</time>
      </trkpt>
      <trkpt lat="42.69125" lon="1.39658">
        <ele>2239.705</ele>
        <time>2024-08-31T10:11:12Z</time>
      </trkpt>
      <trkpt lat="42.69125" lon="1.39658">
        <ele>2239.734</ele>
        <time>2024-08-31T10:11:14Z</time>
      </trkpt>
      <trkpt lat="42.69125" lon="1.39658">
        <ele>2239.712</ele>
        <time>2024-08-31T10:11:16Z</time>
      </trkpt>
      <trkpt lat="42.69125" lon="1.39658">
        <ele>2239.686</ele>
        <time>2024-08-31T10:11:18Z</time>
      </trkpt>
      <trkpt lat="42.69125" lon="1.39658">
        <ele>2239.659</ele>
        <time>2024-08-31T10:11:20Z</time>
      </trkpt>
      <trkpt lat="42.69125" lon="1.39658">
        <ele>2239.666</ele>
        <time>2024-08-31T10:11:22Z</time>
      </trkpt>
      <trkpt lat="42.69125" lon="1.39658">
        <ele>2239.687</ele>
        <time>2024-08-31T10:11:24Z</time>
      </trkpt>
      <trkpt lat="42.69125" lon="1.39658">
        <ele>2239.698</ele>
        <time>2024-08-31T10:11:26Z</time>
      </trkpt>
      <trkpt lat="42.69125" lon="1.39658">
        <ele>2239.693</ele>
        <time>2024-08-31T10:11:28Z</time>
      </trkpt>
      <trkpt lat="42.69125" lon="1.39658">
        <ele>2239.66</ele>
        <time>2024-08-31T10:11:30Z</time>
      </trkpt>
      <trkpt lat="42.69125" lon="1.39658">
        <ele>2239.659</ele>
        <time>2024-08-31T10:11:32Z</time>
      </trkpt>
      <trkpt lat="42.69125" lon="1.39658">
        <ele>2239.642</ele>
        <time>2024-08-31T10:11:34Z</time>
      </trkpt>
      <trkpt lat="42.69125" lon="1.39658">
        <ele>2239.626</ele>
        <time>2024-08-31T10:11:36Z</time>
      </trkpt>
      <trkpt lat="42.69125" lon="1.39658">
        <ele>2239.613</ele>
        <time>2024-08-31T10:11:38Z</time>
      </trkpt>
      <trkpt lat="42.69125" lon="1.39658">
        <ele>2239.619</ele>
        <time>2024-08-31T10:11:40Z</time>
      </trkpt>
      <trkpt lat="42.69125" lon="1.39658">
        <ele>2239.625</ele>
        <time>2024-08-31T10:11:42Z</time>
      </trkpt>
      <trkpt lat="42.69125" lon="1.39658">
        <ele>2239.646</ele>
        <time>2024-08-31T10:11:44Z</time>
      </trkpt>
      <trkpt lat="42.69125" lon="1.39658">
        <ele>2239.659</ele>
        <time>2024-08-31T10:11:46Z</time>
      </trkpt>
      <trkpt lat="42.69125" lon="1.39658">
        <ele>2239.662</ele>
        <time>2024-08-31T10:11:48Z</time>
      </trkpt>
      <trkpt lat="42.69125" lon="1.39658">
        <ele>2239.649</ele>
        <time>2024-08-31T10:11:50Z</time>
      </trkpt>
      <trkpt lat="42.69125" lon="1.39658">
        <ele>2239.64</ele>
        <time>2024-08-31T10:11:52Z</time>
      </trkpt>
      <trkpt lat="42.69125" lon="1.39658">
        <ele>2239.645</ele>
        <time>2024-08-31T10:11:54Z</time>
      </trkpt>
      <trkpt lat="42.69125" lon="1.39658">
        <ele>2239.663</ele>
        <time>2024-08-31T10:11:56Z</time>
      </trkpt>
      <trkpt lat="42.69125" lon="1.39658">
        <ele>2239.659</ele>
        <time>2024-08-31T10:11:58Z</time>
      </trkpt>
      <trkpt lat="42.69125" lon="1.39658">
        <ele>2239.651</ele>
        <time>2024-08-31T10:12:00Z</time>
      </trkpt>
      <trkpt lat="42.69125" lon="1.39658">
        <ele>2239.647</ele>
        <time>2024-08-31T10:12:02Z</time>
      </trkpt>
      <trkpt lat="42.69125" lon="1.39658">
        <ele>2239.636</ele>
        <time>2024-08-31T10:12:04Z</time>
      </trkpt>
      <trkpt lat="42.69125" lon="1.39658">
        <ele>2239.611</ele>
        <time>2024-08-31T10:12:06Z</time>
      </trkpt>
      <trkpt lat="42.69125" lon="1.39658">
        <ele>2239.611</ele>
        <time>2024-08-31T10:12:08Z</time>
      </trkpt>
      <trkpt lat="42.69125" lon="1.39658">
        <ele>2239.613</ele>
        <time>2024-08-31T10:12:10Z</time>
      </trkpt>
      <trkpt lat="42.69125" lon="1.39658">
        <ele>2239.611</ele>
        <time>2024-08-31T10:12:12Z</time>
      </trkpt>
      <trkpt lat="42.69125" lon="1.39658">
        <ele>2239.58</ele>
        <time>2024-08-31T10:12:14Z</time>
      </trkpt>
      <trkpt lat="42.69125" lon="1.39658">
        <ele>2239.548</ele>
        <time>2024-08-31T10:12:16Z</time>
      </trkpt>
      <trkpt lat="42.69125" lon="1.39658">
        <ele>2239.521</ele>
        <time>2024-08-31T10:12:18Z</time>
      </trkpt>
      <trkpt lat="42.69125" lon="1.39658">
        <ele>2239.522</ele>
        <time>2024-08-31T10:12:20Z</time>
      </trkpt>
      <trkpt lat="42.69125" lon="1.39658">
        <ele>2239.523</ele>
        <time>2024-08-31T10:12:22Z</time>
      </trkpt>
      <trkpt lat="42.69125" lon="1.39658">
        <ele>2239.539</ele>
        <time>2024-08-31T10:12:24Z</time>
      </trkpt>
      <trkpt lat="42.69125" lon="1.39658">
        <ele>2239.552</ele>
        <time>2024-08-31T10:12:26Z</time>
      </trkpt>
      <trkpt lat="42.69125" lon="1.39658">
        <ele>2239.547</ele>
        <time>2024-08-31T10:12:28Z</time>
      </trkpt>
      <trkpt lat="42.69125" lon="1.39658">
        <ele>2239.522</ele>
        <time>2024-08-31T10:12:30Z</time>
      </trkpt>
      <trkpt lat="42.69125" lon="1.39658">
        <ele>2239.521</ele>
        <time>2024-08-31T10:12:32Z</time>
      </trkpt>
      <trkpt lat="42.69125" lon="1.39658">
        <ele>2239.496</ele>
        <time>2024-08-31T10:12:34Z</time>
      </trkpt>
      <trkpt lat="42.69125" lon="1.39658">
        <ele>2239.473</ele>
        <time>2024-08-31T10:12:36Z</time>
      </trkpt>
      <trkpt lat="42.69125" lon="1.39658">
        <ele>2239.442</ele>
        <time>2024-08-31T10:12:38Z</time>
      </trkpt>
      <trkpt lat="42.69125" lon="1.39658">
        <ele>2239.452</ele>
        <time>2024-08-31T10:12:40Z</time>
      </trkpt>
      <trkpt lat="42.69125" lon="1.39658">
        <ele>2239.427</ele>
        <time>2024-08-31T10:12:42Z</time>
      </trkpt>
      <trkpt lat="42.69125" lon="1.39658">
        <ele>2239.418</ele>
        <time>2024-08-31T10:12:44Z</time>
      </trkpt>
      <trkpt lat="42.69125" lon="1.39658">
        <ele>2239.422</ele>
        <time>2024-08-31T10:12:46Z</time>
      </trkpt>
      <trkpt lat="42.69125" lon="1.39658">
        <ele>2239.415</ele>
        <time>2024-08-31T10:12:48Z</time>
      </trkpt>
      <trkpt lat="42.69125" lon="1.39658">
        <ele>2239.416</ele>
        <time>2024-08-31T10:12:50Z</time>
      </trkpt>
      <trkpt lat="42.69125" lon="1.39658">
        <ele>2239.406</ele>
        <time>2024-08-31T10:12:52Z</time>
      </trkpt>
      <trkpt lat="42.69125" lon="1.39658">
        <ele>2239.411</ele>
        <time>2024-08-31T10:12:54Z</time>
      </trkpt>
      <trkpt lat="42.69125" lon="1.39658">
        <ele>2239.434</ele>
        <time>2024-08-31T10:12:56Z</time>
      </trkpt>
      <trkpt lat="42.69125" lon="1.39658">
        <ele>2239.455</ele>
        <time>2024-08-31T10:12:58Z</time>
      </trkpt>
      <trkpt lat="42.69125" lon="1.39658">
        <ele>2239.437</ele>
        <time>2024-08-31T10:13:00Z</time>
      </trkpt>
      <trkpt lat="42.69125" lon="1.39658">
        <ele>2239.41</ele>
        <time>2024-08-31T10:13:02Z</time>
      </trkpt>
      <trkpt lat="42.69125" lon="1.39658">
        <ele>2239.393</ele>
        <time>2024-08-31T10:13:04Z</time>
      </trkpt>
      <trkpt lat="42.69125" lon="1.39658">
        <ele>2239.377</ele>
        <time>2024-08-31T10:13:06Z</time>
      </trkpt>
      <trkpt lat="42.69125" lon="1.39658">
        <ele>2239.378</ele>
        <time>2024-08-31T10:13:08Z</time>
      </trkpt>
      <trkpt lat="42.69125" lon="1.39658">
        <ele>2239.374</ele>
        <time>2024-08-31T10:13:10Z</time>
      </trkpt>
      <trkpt lat="42.69125" lon="1.39658">
        <ele>2239.367</ele>
        <time>2024-08-31T10:13:12Z</time>
      </trkpt>
      <trkpt lat="42.69125" lon="1.39658">
        <ele>2239.372</ele>
        <time>2024-08-31T10:13:14Z</time>
      </trkpt>
      <trkpt lat="42.69125" lon="1.39658">
        <ele>2239.377</ele>
        <time>2024-08-31T10:13:16Z</time>
      </trkpt>
      <trkpt lat="42.69125" lon="1.39658">
        <ele>2239.381</ele>
        <time>2024-08-31T10:13:18Z</time>
      </trkpt>
      <trkpt lat="42.69125" lon="1.39658">
        <ele>2239.399</ele>
        <time>2024-08-31T10:13:20Z</time>
      </trkpt>
      <trkpt lat="42.69125" lon="1.39658">
        <ele>2239.412</ele>
        <time>2024-08-31T10:13:22Z</time>
      </trkpt>
      <trkpt lat="42.69125" lon="1.39658">
        <ele>2239.388</ele>
        <time>2024-08-31T10:13:24Z</time>
      </trkpt>
      <trkpt lat="42.69125" lon="1.39658">
        <ele>2239.378</ele>
        <time>2024-08-31T10:13:26Z</time>
      </trkpt>
      <trkpt lat="42.69125" lon="1.39658">
        <ele>2239.386</ele>
        <time>2024-08-31T10:13:28Z</time>
      </trkpt>
      <trkpt lat="42.69125" lon="1.39658">
        <ele>2239.378</ele>
        <time>2024-08-31T10:13:30Z</time>
      </trkpt>
      <trkpt lat="42.69125" lon="1.39658">
        <ele>2239.358</ele>
        <time>2024-08-31T10:13:32Z</time>
      </trkpt>
      <trkpt lat="42.69125" lon="1.39658">
        <ele>2239.369</ele>
        <time>2024-08-31T10:13:34Z</time>
      </trkpt>
      <trkpt lat="42.69125" lon="1.39658">
        <ele>2239.369</ele>
        <time>2024-08-31T10:13:36Z</time>
      </trkpt>
      <trkpt lat="42.69125" lon="1.39658">
        <ele>2239.372</ele>
        <time>2024-08-31T10:13:38Z</time>
      </trkpt>
      <trkpt lat="42.69125" lon="1.39658">
        <ele>2239.369</ele>
        <time>2024-08-31T10:13:40Z</time>
      </trkpt>
      <trkpt lat="42.69125" lon="1.39658">
        <ele>2239.354</ele>
        <time>2024-08-31T10:13:42Z</time>
      </trkpt>
      <trkpt lat="42.69125" lon="1.39658">
        <ele>2239.346</ele>
        <time>2024-08-31T10:13:44Z</time>
      </trkpt>
      <trkpt lat="42.69125" lon="1.39658">
        <ele>2239.359</ele>
        <time>2024-08-31T10:13:46Z</time>
      </trkpt>
      <trkpt lat="42.69125" lon="1.39658">
        <ele>2239.359</ele>
        <time>2024-08-31T10:13:48Z</time>
      </trkpt>
      <trkpt lat="42.69125" lon="1.39658">
        <ele>2239.342</ele>
        <time>2024-08-31T10:13:50Z</time>
      </trkpt>
      <trkpt lat="42.69125" lon="1.39658">
        <ele>2239.326</ele>
        <time>2024-08-31T10:13:52Z</time>
      </trkpt>
      <trkpt lat="42.69125" lon="1.39658">
        <ele>2239.317</ele>
        <time>2024-08-31T10:13:54Z</time>
      </trkpt>
      <trkpt lat="42.69125" lon="1.39658">
        <ele>2239.326</ele>
        <time>2024-08-31T10:13:56Z</time>
      </trkpt>
      <trkpt lat="42.69125" lon="1.39658">
        <ele>2239.331</ele>
        <time>2024-08-31T10:13:58Z</time>
      </trkpt>
      <trkpt lat="42.69125" lon="1.39658">
        <ele>2239.317</ele>
        <time>2024-08-31T10:14:00Z</time>
      </trkpt>
      <trkpt lat="42.69125" lon="1.39658">
        <ele>2239.324</ele>
        <time>2024-08-31T10:14:02Z</time>
      </trkpt>
      <trkpt lat="42.69125" lon="1.39658">
        <ele>2239.316</ele>
        <time>2024-08-31T10:14:04Z</time>
      </trkpt>
      <trkpt lat="42.69125" lon="1.39658">
        <ele>2239.285</ele>
        <time>2024-08-31T10:14:06Z</time>
      </trkpt>
      <trkpt lat="42.69125" lon="1.39658">
        <ele>2239.258</ele>
        <time>2024-08-31T10:14:08Z</time>
      </trkpt>
      <trkpt lat="42.69125" lon="1.39658">
        <ele>2239.254</ele>
        <time>2024-08-31T10:14:10Z</time>
      </trkpt>
      <trkpt lat="42.69125" lon="1.39658">
        <ele>2239.251</ele>
        <time>2024-08-31T10:14:12Z</time>
      </trkpt>
      <trkpt lat="42.69125" lon="1.39658">
        <ele>2239.246</ele>
        <time>2024-08-31T10:14:14Z</time>
      </trkpt>
      <trkpt lat="42.69125" lon="1.39658">
        <ele>2239.251</ele>
        <time>2024-08-31T10:14:16Z</time>
      </trkpt>
      <trkpt lat="42.69125" lon="1.39658">
        <ele>2239.242</ele>
        <time>2024-08-31T10:14:18Z</time>
      </trkpt>
      <trkpt lat="42.69125" lon="1.39658">
        <ele>2239.216</ele>
        <time>2024-08-31T10:14:20Z</time>
      </trkpt>
      <trkpt lat="42.69125" lon="1.39658">
        <ele>2239.195</ele>
        <time>2024-08-31T10:14:22Z</time>
      </trkpt>
      <trkpt lat="42.69125" lon="1.39658">
        <ele>2239.157</ele>
        <time>2024-08-31T10:14:24Z</time>
      </trkpt>
      <trkpt lat="42.69125" lon="1.39658">
        <ele>2239.137</ele>
        <time>2024-08-31T10:14:26Z</time>
      </trkpt>
      <trkpt lat="42.69125" lon="1.39658">
        <ele>2239.139</ele>
        <time>2024-08-31T10:14:28Z</time>
      </trkpt>
      <trkpt lat="42.69125" lon="1.39658">
        <ele>2239.144</ele>
        <time>2024-08-31T10:14:30Z</time>
      </trkpt>
      <trkpt lat="42.69125" lon="1.39658">
        <ele>2239.143</ele>
        <time>2024-08-31T10:14:32Z</time>
      </trkpt>
      <trkpt lat="42.69125" lon="1.39658">
        <ele>2239.136</ele>
        <time>2024-08-31T10:14:34Z</time>
      </trkpt>
      <trkpt lat="42.69125" lon="1.39658">
        <ele>2239.121</ele>
        <time>2024-08-31T10:14:36Z</time>
      </trkpt>
      <trkpt lat="42.69125" lon="1.39658">
        <ele>2239.104</ele>
        <time>2024-08-31T10:14:38Z</time>
      </trkpt>
      <trkpt lat="42.69125" lon="1.39658">
        <ele>2239.096</ele>
        <time>2024-08-31T10:14:40Z</time>
      </trkpt>
      <trkpt lat="42.69125" lon="1.39658">
        <ele>2239.095</ele>
        <time>2024-08-31T10:14:42Z</time>
      </trkpt>
      <trkpt lat="42.69125" lon="1.39658">
        <ele>2239.084</ele>
        <time>2024-08-31T10:14:44Z</time>
      </trkpt>
      <trkpt lat="42.69125" lon="1.39658">
        <ele>2239.064</ele>
        <time>2024-08-31T10:14:46Z</time>
      </trkpt>
      <trkpt lat="42.69125" lon="1.39658">
        <ele>2239.053</ele>
        <time>2024-08-31T10:14:48Z</time>
      </trkpt>
      <trkpt lat="42.69125" lon="1.39658">
        <ele>2239.046</ele>
        <time>2024-08-31T10:14:50Z</time>
      </trkpt>
      <trkpt lat="42.69125" lon="1.39658">
        <ele>2239.034</ele>
        <time>2024-08-31T10:14:52Z</time>
      </trkpt>
      <trkpt lat="42.69125" lon="1.39658">
        <ele>2239.024</ele>
        <time>2024-08-31T10:14:54Z</time>
      </trkpt>
      <trkpt lat="42.69125" lon="1.39658">
        <ele>2239.042</ele>
        <time>2024-08-31T10:14:56Z</time>
      </trkpt>
      <trkpt lat="42.69125" lon="1.39658">
        <ele>2239.08</ele>
        <time>2024-08-31T10:14:58Z</time>
      </trkpt>
      <trkpt lat="42.69125" lon="1.39658">
        <ele>2239.084</ele>
        <time>2024-08-31T10:15:00Z</time>
      </trkpt>
      <trkpt lat="42.69125" lon="1.39658">
        <ele>2239.069</ele>
        <time>2024-08-31T10:15:02Z</time>
      </trkpt>
      <trkpt lat="42.69125" lon="1.39658">
        <ele>2239.032</ele>
        <time>2024-08-31T10:15:04Z</time>
      </trkpt>
      <trkpt lat="42.69125" lon="1.39658">
        <ele>2238.994</ele>
        <time>2024-08-31T10:15:06Z</time>
      </trkpt>
      <trkpt lat="42.69125" lon="1.39658">
        <ele>2238.994</ele>
        <time>2024-08-31T10:15:08Z</time>
      </trkpt>
      <trkpt lat="42.69125" lon="1.39658">
        <ele>2239.004</ele>
        <time>2024-08-31T10:15:10Z</time>
      </trkpt>
      <trkpt lat="42.69125" lon="1.39658">
        <ele>2239.009</ele>
        <time>2024-08-31T10:15:12Z</time>
      </trkpt>
      <trkpt lat="42.69125" lon="1.39658">
        <ele>2239.002</ele>
        <time>2024-08-31T10:15:14Z</time>
      </trkpt>
      <trkpt lat="42.69125" lon="1.39658">
        <ele>2238.997</ele>
        <time>2024-08-31T10:15:16Z</time>
      </trkpt>
      <trkpt lat="42.69125" lon="1.39658">
        <ele>2238.999</ele>
        <time>2024-08-31T10:15:18Z</time>
      </trkpt>
      <trkpt lat="42.69125" lon="1.39658">
        <ele>2239.004</ele>
        <time>2024-08-31T10:15:20Z</time>
      </trkpt>
      <trkpt lat="42.69125" lon="1.39658">
        <ele>2239.009</ele>
        <time>2024-08-31T10:15:22Z</time>
      </trkpt>
      <trkpt lat="42.69125" lon="1.39658">
        <ele>2239.016</ele>
        <time>2024-08-31T10:15:24Z</time>
      </trkpt>
      <trkpt lat="42.69125" lon="1.39658">
        <ele>2239.029</ele>
        <time>2024-08-31T10:15:26Z</time>
      </trkpt>
      <trkpt lat="42.69125" lon="1.39658">
        <ele>2239.028</ele>
        <time>2024-08-31T10:15:28Z</time>
      </trkpt>
      <trkpt lat="42.69125" lon="1.39658">
        <ele>2239.038</ele>
        <time>2024-08-31T10:15:30Z</time>
      </trkpt>
      <trkpt lat="42.69125" lon="1.39658">
        <ele>2239.056</ele>
        <time>2024-08-31T10:15:32Z</time>
      </trkpt>
      <trkpt lat="42.69125" lon="1.39658">
        <ele>2239.062</ele>
        <time>2024-08-31T10:15:34Z</time>
      </trkpt>
      <trkpt lat="42.69125" lon="1.39658">
        <ele>2239.081</ele>
        <time>2024-08-31T10:15:36Z</time>
      </trkpt>
      <trkpt lat="42.69125" lon="1.39658">
        <ele>2239.077</ele>
        <time>2024-08-31T10:15:38Z</time>
      </trkpt>
      <trkpt lat="42.69125" lon="1.39658">
        <ele>2239.079</ele>
        <time>2024-08-31T10:15:40Z</time>
      </trkpt>
      <trkpt lat="42.69125" lon="1.39658">
        <ele>2239.085</ele>
        <time>2024-08-31T10:15:42Z</time>
      </trkpt>
      <trkpt lat="42.69125" lon="1.39658">
        <ele>2239.084</ele>
        <time>2024-08-31T10:15:44Z</time>
      </trkpt>
      <trkpt lat="42.69125" lon="1.39658">
        <ele>2239.09</ele>
        <time>2024-08-31T10:15:46Z</time>
      </trkpt>
      <trkpt lat="42.69125" lon="1.39658">
        <ele>2239.102</ele>
        <time>2024-08-31T10:15:48Z</time>
      </trkpt>
      <trkpt lat="42.69125" lon="1.39658">
        <ele>2239.097</ele>
        <time>2024-08-31T10:15:50Z</time>
      </trkpt>
      <trkpt lat="42.69125" lon="1.39658">
        <ele>2239.089</ele>
        <time>2024-08-31T10:15:52Z</time>
      </trkpt>
      <trkpt lat="42.69125" lon="1.39658">
        <ele>2239.086</ele>
        <time>2024-08-31T10:15:54Z</time>
      </trkpt>
      <trkpt lat="42.69125" lon="1.39658">
        <ele>2239.085</ele>
        <time>2024-08-31T10:15:56Z</time>
      </trkpt>
      <trkpt lat="42.69125" lon="1.39658">
        <ele>2239.098</ele>
        <time>2024-08-31T10:15:58Z</time>
      </trkpt>
      <trkpt lat="42.69125" lon="1.39658">
        <ele>2239.105</ele>
        <time>2024-08-31T10:16:00Z</time>
      </trkpt>
      <trkpt lat="42.69125" lon="1.39658">
        <ele>2239.115</ele>
        <time>2024-08-31T10:16:02Z</time>
      </trkpt>
      <trkpt lat="42.69125" lon="1.39658">
        <ele>2239.113</ele>
        <time>2024-08-31T10:16:04Z</time>
      </trkpt>
      <trkpt lat="42.69125" lon="1.39658">
        <ele>2239.119</ele>
        <time>2024-08-31T10:16:06Z</time>
      </trkpt>
      <trkpt lat="42.69125" lon="1.39658">
        <ele>2239.119</ele>
        <time>2024-08-31T10:16:08Z</time>
      </trkpt>
      <trkpt lat="42.69125" lon="1.39658">
        <ele>2239.128</ele>
        <time>2024-08-31T10:16:10Z</time>
      </trkpt>
      <trkpt lat="42.69125" lon="1.39658">
        <ele>2239.143</ele>
        <time>2024-08-31T10:16:12Z</time>
      </trkpt>
      <trkpt lat="42.69125" lon="1.39658">
        <ele>2239.163</ele>
        <time>2024-08-31T10:16:14Z</time>
      </trkpt>
      <trkpt lat="42.69125" lon="1.39658">
        <ele>2239.157</ele>
        <time>2024-08-31T10:16:16Z</time>
      </trkpt>
      <trkpt lat="42.69125" lon="1.39658">
        <ele>2239.169</ele>
        <time>2024-08-31T10:16:18Z</time>
      </trkpt>
      <trkpt lat="42.69125" lon="1.39658">
        <ele>2239.177</ele>
        <time>2024-08-31T10:16:20Z</time>
      </trkpt>
      <trkpt lat="42.69125" lon="1.39658">
        <ele>2239.186</ele>
        <time>2024-08-31T10:16:22Z</time>
      </trkpt>
      <trkpt lat="42.69125" lon="1.39658">
        <ele>2239.201</ele>
        <time>2024-08-31T10:16:24Z</time>
      </trkpt>
      <trkpt lat="42.69125" lon="1.39658">
        <ele>2239.205</ele>
        <time>2024-08-31T10:16:26Z</time>
      </trkpt>
      <trkpt lat="42.69125" lon="1.39658">
        <ele>2239.194</ele>
        <time>2024-08-31T10:16:28Z</time>
      </trkpt>
      <trkpt lat="42.69125" lon="1.39658">
        <ele>2239.186</ele>
        <time>2024-08-31T10:16:30Z</time>
      </trkpt>
      <trkpt lat="42.69125" lon="1.39658">
        <ele>2239.181</ele>
        <time>2024-08-31T10:16:32Z</time>
      </trkpt>
      <trkpt lat="42.69125" lon="1.39658">
        <ele>2239.172</ele>
        <time>2024-08-31T10:16:34Z</time>
      </trkpt>
      <trkpt lat="42.69125" lon="1.39658">
        <ele>2239.175</ele>
        <time>2024-08-31T10:16:36Z</time>
      </trkpt>
      <trkpt lat="42.69125" lon="1.39658">
        <ele>2239.175</ele>
        <time>2024-08-31T10:16:38Z</time>
      </trkpt>
      <trkpt lat="42.69125" lon="1.39658">
        <ele>2239.17</ele>
        <time>2024-08-31T10:16:40Z</time>
      </trkpt>
      <trkpt lat="42.69125" lon="1.39658">
        <ele>2239.176</ele>
        <time>2024-08-31T10:16:42Z</time>
      </trkpt>
      <trkpt lat="42.69125" lon="1.39658">
        <ele>2239.179</ele>
        <time>2024-08-31T10:16:44Z</time>
      </trkpt>
      <trkpt lat="42.69125" lon="1.39658">
        <ele>2239.159</ele>
        <time>2024-08-31T10:16:46Z</time>
      </trkpt>
      <trkpt lat="42.69125" lon="1.39658">
        <ele>2239.147</ele>
        <time>2024-08-31T10:16:48Z</time>
      </trkpt>
      <trkpt lat="42.69125" lon="1.39658">
        <ele>2239.149</ele>
        <time>2024-08-31T10:16:50Z</time>
      </trkpt>
      <trkpt lat="42.69125" lon="1.39658">
        <ele>2239.154</ele>
        <time>2024-08-31T10:16:52Z</time>
      </trkpt>
      <trkpt lat="42.69125" lon="1.39658">
        <ele>2239.155</ele>
        <time>2024-08-31T10:16:54Z</time>
      </trkpt>
      <trkpt lat="42.69125" lon="1.39658">
        <ele>2239.123</ele>
        <time>2024-08-31T10:16:56Z</time>
      </trkpt>
      <trkpt lat="42.69125" lon="1.39658">
        <ele>2239.129</ele>
        <time>2024-08-31T10:16:58Z</time>
      </trkpt>
      <trkpt lat="42.69125" lon="1.39658">
        <ele>2239.157</ele>
        <time>2024-08-31T10:17:00Z</time>
      </trkpt>
      <trkpt lat="42.69125" lon="1.39658">
        <ele>2239.169</ele>
        <time>2024-08-31T10:17:02Z</time>
      </trkpt>
      <trkpt lat="42.69125" lon="1.39658">
        <ele>2239.169</ele>
        <time>2024-08-31T10:17:04Z</time>
      </trkpt>
      <trkpt lat="42.69125" lon="1.39658">
        <ele>2239.174</ele>
        <time>2024-08-31T10:17:06Z</time>
      </trkpt>
      <trkpt lat="42.69125" lon="1.39658">
        <ele>2239.168</ele>
        <time>2024-08-31T10:17:08Z</time>
      </trkpt>
      <trkpt lat="42.69125" lon="1.39658">
        <ele>2239.139</ele>
        <time>2024-08-31T10:17:10Z</time>
      </trkpt>
      <trkpt lat="42.69125" lon="1.39658">
        <ele>2239.115</ele>
        <time>2024-08-31T10:17:12Z</time>
      </trkpt>
      <trkpt lat="42.69125" lon="1.39658">
        <ele>2239.11</ele>
        <time>2024-08-31T10:17:14Z</time>
      </trkpt>
      <trkpt lat="42.69125" lon="1.39658">
        <ele>2239.136</ele>
        <time>2024-08-31T10:17:16Z</time>
      </trkpt>
      <trkpt lat="42.69125" lon="1.39658">
        <ele>2239.148</ele>
        <time>2024-08-31T10:17:18Z</time>
      </trkpt>
      <trkpt lat="42.69125" lon="1.39658">
        <ele>2239.153</ele>
        <time>2024-08-31T10:17:20Z</time>
      </trkpt>
      <trkpt lat="42.69125" lon="1.39658">
        <ele>2239.137</ele>
        <time>2024-08-31T10:17:22Z</time>
      </trkpt>
      <trkpt lat="42.69125" lon="1.39658">
        <ele>2239.107</ele>
        <time>2024-08-31T10:17:24Z</time>
      </trkpt>
      <trkpt lat="42.69125" lon="1.39658">
        <ele>2239.109</ele>
        <time>2024-08-31T10:17:26Z</time>
      </trkpt>
      <trkpt lat="42.69125" lon="1.39658">
        <ele>2239.073</ele>
        <time>2024-08-31T10:17:28Z</time>
      </trkpt>
      <trkpt lat="42.69125" lon="1.39658">
        <ele>2239.041</ele>
        <time>2024-08-31T10:17:30Z</time>
      </trkpt>
      <trkpt lat="42.69125" lon="1.39658">
        <ele>2239.028</ele>
        <time>2024-08-31T10:17:32Z</time>
      </trkpt>
      <trkpt lat="42.69125" lon="1.39658">
        <ele>2239.038</ele>
        <time>2024-08-31T10:17:34Z</time>
      </trkpt>
      <trkpt lat="42.69125" lon="1.39658">
        <ele>2239.056</ele>
        <time>2024-08-31T10:17:36Z</time>
      </trkpt>
      <trkpt lat="42.69125" lon="1.39658">
        <ele>2239.045</ele>
        <time>2024-08-31T10:17:38Z</time>
      </trkpt>
      <trkpt lat="42.69125" lon="1.39658">
        <ele>2239.032</ele>
        <time>2024-08-31T10:17:40Z</time>
      </trkpt>
      <trkpt lat="42.69125" lon="1.39658">
        <ele>2239.007</ele>
        <time>2024-08-31T10:17:42Z</time>
      </trkpt>
      <trkpt lat="42.69125" lon="1.39658">
        <ele>2238.985</ele>
        <time>2024-08-31T10:17:44Z</time>
      </trkpt>
      <trkpt lat="42.69125" lon="1.39658">
        <ele>2238.963</ele>
        <time>2024-08-31T10:17:46Z</time>
      </trkpt>
      <trkpt lat="42.69125" lon="1.39658">
        <ele>2238.941</ele>
        <time>2024-08-31T10:17:48Z</time>
      </trkpt>
      <trkpt lat="42.69125" lon="1.39658">
        <ele>2238.948</ele>
        <time>2024-08-31T10:17:50Z</time>
      </trkpt>
      <trkpt lat="42.69125" lon="1.39658">
        <ele>2238.965</ele>
        <time>2024-08-31T10:17:52Z</time>
      </trkpt>
      <trkpt lat="42.69125" lon="1.39658">
        <ele>2238.962</ele>
        <time>2024-08-31T10:17:54Z</time>
      </trkpt>
      <trkpt lat="42.69125" lon="1.39658">
        <ele>2238.967</ele>
        <time>2024-08-31T10:17:56Z</time>
      </trkpt>
      <trkpt lat="42.69125" lon="1.39658">
        <ele>2238.97</ele>
        <time>2024-08-31T10:17:58Z</time>
      </trkpt>
      <trkpt lat="42.69125" lon="1.39658">
        <ele>2238.954</ele>
        <time>2024-08-31T10:18:00Z</time>
      </trkpt>
      <trkpt lat="42.69125" lon="1.39658">
        <ele>2238.928</ele>
        <time>2024-08-31T10:18:02Z</time>
      </trkpt>
      <trkpt lat="42.69125" lon="1.39658">
        <ele>2238.888</ele>
        <time>2024-08-31T10:18:04Z</time>
      </trkpt>
      <trkpt lat="42.69125" lon="1.39658">
        <ele>2238.871</ele>
        <time>2024-08-31T10:18:06Z</time>
      </trkpt>
      <trkpt lat="42.69125" lon="1.39658">
        <ele>2238.864</ele>
        <time>2024-08-31T10:18:08Z</time>
      </trkpt>
      <trkpt lat="42.69125" lon="1.39658">
        <ele>2238.861</ele>
        <time>2024-08-31T10:18:10Z</time>
      </trkpt>
      <trkpt lat="42.69125" lon="1.39658">
        <ele>2238.867</ele>
        <time>2024-08-31T10:18:12Z</time>
      </trkpt>
      <trkpt lat="42.69125" lon="1.39658">
        <ele>2238.878</ele>
        <time>2024-08-31T10:18:14Z</time>
      </trkpt>
      <trkpt lat="42.69125" lon="1.39658">
        <ele>2238.895</ele>
        <time>2024-08-31T10:18:16Z</time>
      </trkpt>
      <trkpt lat="42.69125" lon="1.39658">
        <ele>2238.913</ele>
        <time>2024-08-31T10:18:18Z</time>
      </trkpt>
      <trkpt lat="42.69125" lon="1.39658">
        <ele>2238.927</ele>
        <time>2024-08-31T10:18:20Z</time>
      </trkpt>
      <trkpt lat="42.69125" lon="1.39658">
        <ele>2238.924</ele>
        <time>2024-08-31T10:18:22Z</time>
      </trkpt>
      <trkpt lat="42.69125" lon="1.39658">
        <ele>2238.918</ele>
        <time>2024-08-31T10:18:24Z</time>
      </trkpt>
      <trkpt lat="42.69125" lon="1.39658">
        <ele>2238.914</ele>
        <time>2024-08-31T10:18:26Z</time>
      </trkpt>
      <trkpt lat="42.69125" lon="1.39658">
        <ele>2238.906</ele>
        <time>2024-08-31T10:18:28Z</time>
      </trkpt>
      <trkpt lat="42.69125" lon="1.39658">
        <ele>2238.898</ele>
        <time>2024-08-31T10:18:30Z</time>
      </trkpt>
      <trkpt lat="42.69125" lon="1.39658">
        <ele>2238.889</ele>
        <time>2024-08-31T10:18:32Z</time>
      </trkpt>
      <trkpt lat="42.69125" lon="1.39658">
        <ele>2238.876</ele>
        <time>2024-08-31T10:18:34Z</time>
      </trkpt>
      <trkpt lat="42.69125" lon="1.39658">
        <ele>2238.854</ele>
        <time>2024-08-31T10:18:36Z</time>
      </trkpt>
      <trkpt lat="42.69125" lon="1.39658">
        <ele>2238.847</ele>
        <time>2024-08-31T10:18:38Z</time>
      </trkpt>
      <trkpt lat="42.69125" lon="1.39658">
        <ele>2238.846</ele>
        <time>2024-08-31T10:18:40Z</time>
      </trkpt>
      <trkpt lat="42.69125" lon="1.39658">
        <ele>2238.857</ele>
        <time>2024-08-31T10:18:42Z</time>
      </trkpt>
      <trkpt lat="42.69125" lon="1.39658">
        <ele>2238.864</ele>
        <time>2024-08-31T10:18:44Z</time>
      </trkpt>
      <trkpt lat="42.69125" lon="1.39658">
        <ele>2238.868</ele>
        <time>2024-08-31T10:18:46Z</time>
      </trkpt>
      <trkpt lat="42.69125" lon="1.39658">
        <ele>2238.867</ele>
        <time>2024-08-31T10:18:48Z</time>
      </trkpt>
      <trkpt lat="42.69125" lon="1.39658">
        <ele>2238.862</ele>
        <time>2024-08-31T10:18:50Z</time>
      </trkpt>
      <trkpt lat="42.69125" lon="1.39658">
        <ele>2238.861</ele>
        <time>2024-08-31T10:18:52Z</time>
      </trkpt>
      <trkpt lat="42.69125" lon="1.39658">
        <ele>2238.859</ele>
        <time>2024-08-31T10:18:54Z</time>
      </trkpt>
      <trkpt lat="42.69125" lon="1.39658">
        <ele>2238.866</ele>
        <time>2024-08-31T10:18:56Z</time>
      </trkpt>
      <trkpt lat="42.69125" lon="1.39658">
        <ele>2238.874</ele>
        <time>2024-08-31T10:18:58Z</time>
      </trkpt>
      <trkpt lat="42.69125" lon="1.39658">
        <ele>2238.884</ele>
        <time>2024-08-31T10:19:00Z</time>
      </trkpt>
      <trkpt lat="42.69125" lon="1.39658">
        <ele>2238.89</ele>
        <time>2024-08-31T10:19:02Z</time>
      </trkpt>
      <trkpt lat="42.69125" lon="1.39658">
        <ele>2238.9</ele>
        <time>2024-08-31T10:19:04Z</time>
      </trkpt>
      <trkpt lat="42.69125" lon="1.39658">
        <ele>2238.904</ele>
        <time>2024-08-31T10:19:06Z</time>
      </trkpt>
      <trkpt lat="42.69125" lon="1.39658">
        <ele>2238.916</ele>
        <time>2024-08-31T10:19:08Z</time>
      </trkpt>
      <trkpt lat="42.69125" lon="1.39658">
        <ele>2238.898</ele>
        <time>2024-08-31T10:19:10Z</time>
      </trkpt>
      <trkpt lat="42.69125" lon="1.39658">
        <ele>2238.898</ele>
        <time>2024-08-31T10:19:12Z</time>
      </trkpt>
      <trkpt lat="42.69125" lon="1.39658">
        <ele>2238.89</ele>
        <time>2024-08-31T10:19:14Z</time>
      </trkpt>
      <trkpt lat="42.69125" lon="1.39658">
        <ele>2238.896</ele>
        <time>2024-08-31T10:19:16Z</time>
      </trkpt>
      <trkpt lat="42.69125" lon="1.39658">
        <ele>2238.905</ele>
        <time>2024-08-31T10:19:18Z</time>
      </trkpt>
      <trkpt lat="42.69125" lon="1.39658">
        <ele>2238.919</ele>
        <time>2024-08-31T10:19:20Z</time>
      </trkpt>
      <trkpt lat="42.69125" lon="1.39658">
        <ele>2238.928</ele>
        <time>2024-08-31T10:19:22Z</time>
      </trkpt>
      <trkpt lat="42.69125" lon="1.39658">
        <ele>2238.934</ele>
        <time>2024-08-31T10:19:24Z</time>
      </trkpt>
      <trkpt lat="42.69125" lon="1.39658">
        <ele>2238.941</ele>
        <time>2024-08-31T10:19:26Z</time>
      </trkpt>
      <trkpt lat="42.69125" lon="1.39658">
        <ele>2238.944</ele>
        <time>2024-08-31T10:19:28Z</time>
      </trkpt>
      <trkpt lat="42.69125" lon="1.39658">
        <ele>2238.926</ele>
        <time>2024-08-31T10:19:30Z</time>
      </trkpt>
      <trkpt lat="42.69125" lon="1.39658">
        <ele>2238.933</ele>
        <time>2024-08-31T10:19:32Z</time>
      </trkpt>
      <trkpt lat="42.69125" lon="1.39658">
        <ele>2238.926</ele>
        <time>2024-08-31T10:19:34Z</time>
      </trkpt>
      <trkpt lat="42.69125" lon="1.39658">
        <ele>2238.92</ele>
        <time>2024-08-31T10:19:36Z</time>
      </trkpt>
      <trkpt lat="42.69125" lon="1.39658">
        <ele>2238.925</ele>
        <time>2024-08-31T10:19:38Z</time>
      </trkpt>
      <trkpt lat="42.69125" lon="1.39658">
        <ele>2238.929</ele>
        <time>2024-08-31T10:19:40Z</time>
      </trkpt>
      <trkpt lat="42.69125" lon="1.39658">
        <ele>2238.944</ele>
        <time>2024-08-31T10:19:42Z</time>
      </trkpt>
      <trkpt lat="42.69125" lon="1.39658">
        <ele>2238.94</ele>
        <time>2024-08-31T10:19:44Z</time>
      </trkpt>
      <trkpt lat="42.69125" lon="1.39658">
        <ele>2238.935</ele>
        <time>2024-08-31T10:19:46Z</time>
      </trkpt>
      <trkpt lat="42.69125" lon="1.39658">
        <ele>2238.947</ele>
        <time>2024-08-31T10:19:48Z</time>
      </trkpt>
      <trkpt lat="42.69125" lon="1.39658">
        <ele>2238.96</ele>
        <time>2024-08-31T10:19:50Z</time>
      </trkpt>
      <trkpt lat="42.69125" lon="1.39658">
        <ele>2238.965</ele>
        <time>2024-08-31T10:19:52Z</time>
      </trkpt>
      <trkpt lat="42.69125" lon="1.39658">
        <ele>2238.956</ele>
        <time>2024-08-31T10:19:54Z</time>
      </trkpt>
      <trkpt lat="42.69125" lon="1.39658">
        <ele>2238.94</ele>
        <time>2024-08-31T10:19:56Z</time>
      </trkpt>
      <trkpt lat="42.69125" lon="1.39658">
        <ele>2238.932</ele>
        <time>2024-08-31T10:19:58Z</time>
      </trkpt>
      <trkpt lat="42.69125" lon="1.39658">
        <ele>2238.939</ele>
        <time>2024-08-31T10:20:00Z</time>
      </trkpt>
      <trkpt lat="42.69125" lon="1.39658">
        <ele>2238.93</ele>
        <time>2024-08-31T10:20:02Z</time>
      </trkpt>
      <trkpt lat="42.69125" lon="1.39658">
        <ele>2238.917</ele>
        <time>2024-08-31T10:20:04Z</time>
      </trkpt>
      <trkpt lat="42.69125" lon="1.39658">
        <ele>2238.906</ele>
        <time>2024-08-31T10:20:06Z</time>
      </trkpt>
      <trkpt lat="42.69125" lon="1.39658">
        <ele>2238.883</ele>
        <time>2024-08-31T10:20:08Z</time>
      </trkpt>
      <trkpt lat="42.69125" lon="1.39658">
        <ele>2238.881</ele>
        <time>2024-08-31T10:20:10Z</time>
      </trkpt>
      <trkpt lat="42.69125" lon="1.39658">
        <ele>2238.89</ele>
        <time>2024-08-31T10:20:12Z</time>
      </trkpt>
      <trkpt lat="42.69125" lon="1.39658">
        <ele>2238.889</ele>
        <time>2024-08-31T10:20:14Z</time>
      </trkpt>
      <trkpt lat="42.69125" lon="1.39658">
        <ele>2238.871</ele>
        <time>2024-08-31T10:20:16Z</time>
      </trkpt>
      <trkpt lat="42.69125" lon="1.39658">
        <ele>2238.867</ele>
        <time>2024-08-31T10:20:18Z</time>
      </trkpt>
      <trkpt lat="42.69125" lon="1.39658">
        <ele>2238.875</ele>
        <time>2024-08-31T10:20:20Z</time>
      </trkpt>
      <trkpt lat="42.69125" lon="1.39658">
        <ele>2238.879</ele>
        <time>2024-08-31T10:20:22Z</time>
      </trkpt>
      <trkpt lat="42.69125" lon="1.39658">
        <ele>2238.887</ele>
        <time>2024-08-31T10:20:24Z</time>
      </trkpt>
      <trkpt lat="42.69125" lon="1.39658">
        <ele>2238.903</ele>
        <time>2024-08-31T10:20:26Z</time>
      </trkpt>
      <trkpt lat="42.69125" lon="1.39658">
        <ele>2238.905</ele>
        <time>2024-08-31T10:20:28Z</time>
      </trkpt>
      <trkpt lat="42.69125" lon="1.39658">
        <ele>2238.903</ele>
        <time>2024-08-31T10:20:30Z</time>
      </trkpt>
      <trkpt lat="42.69125" lon="1.39658">
        <ele>2238.884</ele>
        <time>2024-08-31T10:20:32Z</time>
      </trkpt>
      <trkpt lat="42.69125" lon="1.39658">
        <ele>2238.876</ele>
        <time>2024-08-31T10:20:34Z</time>
      </trkpt>
      <trkpt lat="42.69125" lon="1.39658">
        <ele>2238.867</ele>
        <time>2024-08-31T10:20:36Z</time>
      </trkpt>
      <trkpt lat="42.69125" lon="1.39658">
        <ele>2238.846</ele>
        <time>2024-08-31T10:20:38Z</time>
      </trkpt>
      <trkpt lat="42.69125" lon="1.39658">
        <ele>2238.835</ele>
        <time>2024-08-31T10:20:40Z</time>
      </trkpt>
      <trkpt lat="42.69125" lon="1.39658">
        <ele>2238.835</ele>
        <time>2024-08-31T10:20:42Z</time>
      </trkpt>
      <trkpt lat="42.69125" lon="1.39658">
        <ele>2238.83</ele>
        <time>2024-08-31T10:20:44Z</time>
      </trkpt>
      <trkpt lat="42.69125" lon="1.39658">
        <ele>2238.826</ele>
        <time>2024-08-31T10:20:46Z</time>
      </trkpt>
      <trkpt lat="42.69125" lon="1.39658">
        <ele>2238.82</ele>
        <time>2024-08-31T10:20:48Z</time>
      </trkpt>
      <trkpt lat="42.69125" lon="1.39658">
        <ele>2238.809</ele>
        <time>2024-08-31T10:20:50Z</time>
      </trkpt>
      <trkpt lat="42.69125" lon="1.39658">
        <ele>2238.813</ele>
        <time>2024-08-31T10:20:52Z</time>
      </trkpt>
      <trkpt lat="42.69125" lon="1.39658">
        <ele>2238.831</ele>
        <time>2024-08-31T10:20:54Z</time>
      </trkpt>
      <trkpt lat="42.69125" lon="1.39658">
        <ele>2238.844</ele>
        <time>2024-08-31T10:20:56Z</time>
      </trkpt>
      <trkpt lat="42.69125" lon="1.39658">
        <ele>2238.853</ele>
        <time>2024-08-31T10:20:58Z</time>
      </trkpt>
      <trkpt lat="42.69125" lon="1.39658">
        <ele>2238.856</ele>
        <time>2024-08-31T10:21:00Z</time>
      </trkpt>
      <trkpt lat="42.69125" lon="1.39658">
        <ele>2238.852</ele>
        <time>2024-08-31T10:21:02Z</time>
      </trkpt>
      <trkpt lat="42.69125" lon="1.39658">
        <ele>2238.847</ele>
        <time>2024-08-31T10:21:04Z</time>
      </trkpt>
      <trkpt lat="42.69125" lon="1.39658">
        <ele>2238.83</ele>
        <time>2024-08-31T10:21:06Z</time>
      </trkpt>
      <trkpt lat="42.69125" lon="1.39658">
        <ele>2238.817</ele>
        <time>2024-08-31T10:21:08Z</time>
      </trkpt>
      <trkpt lat="42.69125" lon="1.39658">
        <ele>2238.822</ele>
        <time>2024-08-31T10:21:10Z</time>
      </trkpt>
      <trkpt lat="42.69125" lon="1.39658">
        <ele>2238.83</ele>
        <time>2024-08-31T10:21:12Z</time>
      </trkpt>
      <trkpt lat="42.69125" lon="1.39658">
        <ele>2238.834</ele>
        <time>2024-08-31T10:21:14Z</time>
      </trkpt>
      <trkpt lat="42.69125" lon="1.39658">
        <ele>2238.844</ele>
        <time>2024-08-31T10:21:16Z</time>
      </trkpt>
      <trkpt lat="42.69125" lon="1.39658">
        <ele>2238.845</ele>
        <time>2024-08-31T10:21:18Z</time>
      </trkpt>
      <trkpt lat="42.69125" lon="1.39658">
        <ele>2238.84</ele>
        <time>2024-08-31T10:21:20Z</time>
      </trkpt>
      <trkpt lat="42.69125" lon="1.39658">
        <ele>2238.841</ele>
        <time>2024-08-31T10:21:22Z</time>
      </trkpt>
      <trkpt lat="42.69125" lon="1.39658">
        <ele>2238.831</ele>
        <time>2024-08-31T10:21:24Z</time>
      </trkpt>
      <trkpt lat="42.69125" lon="1.39658">
        <ele>2238.839</ele>
        <time>2024-08-31T10:21:26Z</time>
      </trkpt>
      <trkpt lat="42.69125" lon="1.39658">
        <ele>2238.857</ele>
        <time>2024-08-31T10:21:28Z</time>
      </trkpt>
      <trkpt lat="42.69125" lon="1.39658">
        <ele>2238.875</ele>
        <time>2024-08-31T10:21:30Z</time>
      </trkpt>
      <trkpt lat="42.69125" lon="1.39658">
        <ele>2238.878</ele>
        <time>2024-08-31T10:21:32Z</time>
      </trkpt>
      <trkpt lat="42.69125" lon="1.39658">
        <ele>2238.867</ele>
        <time>2024-08-31T10:21:34Z</time>
      </trkpt>
      <trkpt lat="42.69125" lon="1.39658">
        <ele>2238.863</ele>
        <time>2024-08-31T10:21:36Z</time>
      </trkpt>
      <trkpt lat="42.69125" lon="1.39658">
        <ele>2238.855</ele>
        <time>2024-08-31T10:21:38Z</time>
      </trkpt>
      <trkpt lat="42.69125" lon="1.39658">
        <ele>2238.859</ele>
        <time>2024-08-31T10:21:40Z</time>
      </trkpt>
      <trkpt lat="42.69125" lon="1.39658">
        <ele>2238.872</ele>
        <time>2024-08-31T10:21:42Z</time>
      </trkpt>
      <trkpt lat="42.69125" lon="1.39658">
        <ele>2238.881</ele>
        <time>2024-08-31T10:21:44Z</time>
      </trkpt>
      <trkpt lat="42.69125" lon="1.39658">
        <ele>2238.875</ele>
        <time>2024-08-31T10:21:46Z</time>
      </trkpt>
      <trkpt lat="42.69125" lon="1.39658">
        <ele>2238.879</ele>
        <time>2024-08-31T10:21:48Z</time>
      </trkpt>
      <trkpt lat="42.69125" lon="1.39658">
        <ele>2238.873</ele>
        <time>2024-08-31T10:21:50Z</time>
      </trkpt>
      <trkpt lat="42.69125" lon="1.39658">
        <ele>2238.868</ele>
        <time>2024-08-31T10:21:52Z</time>
      </trkpt>
      <trkpt lat="42.69125" lon="1.39658">
        <ele>2238.867</ele>
        <time>2024-08-31T10:21:54Z</time>
      </trkpt>
      <trkpt lat="42.69125" lon="1.39658">
        <ele>2238.857</ele>
        <time>2024-08-31T10:21:56Z</time>
      </trkpt>
      <trkpt lat="42.69125" lon="1.39658">
        <ele>2238.848</ele>
        <time>2024-08-31T10:21:58Z</time>
      </trkpt>
      <trkpt lat="42.69125" lon="1.39658">
        <ele>2238.842</ele>
        <time>2024-08-31T10:22:00Z</time>
      </trkpt>
      <trkpt lat="42.69125" lon="1.39658">
        <ele>2238.846</ele>
        <time>2024-08-31T10:22:02Z</time>
      </trkpt>
      <trkpt lat="42.69125" lon="1.39658">
        <ele>2238.843</ele>
        <time>2024-08-31T10:22:04Z</time>
      </trkpt>
      <trkpt lat="42.69125" lon="1.39658">
        <ele>2238.851</ele>
        <time>2024-08-31T10:22:06Z</time>
      </trkpt>
      <trkpt lat="42.69125" lon="1.39658">
        <ele>2238.839</ele>
        <time>2024-08-31T10:22:08Z</time>
      </trkpt>
      <trkpt lat="42.69125" lon="1.39658">
        <ele>2238.818</ele>
        <time>2024-08-31T10:22:10Z</time>
      </trkpt>
      <trkpt lat="42.69125" lon="1.39658">
        <ele>2238.775</ele>
        <time>2024-08-31T10:22:12Z</time>
      </trkpt>
      <trkpt lat="42.69125" lon="1.39658">
        <ele>2238.731</ele>
        <time>2024-08-31T10:22:14Z</time>
      </trkpt>
      <trkpt lat="42.69125" lon="1.39658">
        <ele>2238.709</ele>
        <time>2024-08-31T10:22:16Z</time>
      </trkpt>
      <trkpt lat="42.69125" lon="1.39658">
        <ele>2238.706</ele>
        <time>2024-08-31T10:22:18Z</time>
      </trkpt>
      <trkpt lat="42.69125" lon="1.39658">
        <ele>2238.712</ele>
        <time>2024-08-31T10:22:20Z</time>
      </trkpt>
      <trkpt lat="42.69125" lon="1.39658">
        <ele>2238.709</ele>
        <time>2024-08-31T10:22:22Z</time>
      </trkpt>
      <trkpt lat="42.69125" lon="1.39658">
        <ele>2238.712</ele>
        <time>2024-08-31T10:22:24Z</time>
      </trkpt>
      <trkpt lat="42.69125" lon="1.39658">
        <ele>2238.714</ele>
        <time>2024-08-31T10:22:26Z</time>
      </trkpt>
      <trkpt lat="42.69125" lon="1.39658">
        <ele>2238.713</ele>
        <time>2024-08-31T10:22:28Z</time>
      </trkpt>
      <trkpt lat="42.69125" lon="1.39658">
        <ele>2238.71</ele>
        <time>2024-08-31T10:22:30Z</time>
      </trkpt>
      <trkpt lat="42.69125" lon="1.39658">
        <ele>2238.696</ele>
        <time>2024-08-31T10:22:32Z</time>
      </trkpt>
      <trkpt lat="42.69125" lon="1.39658">
        <ele>2238.683</ele>
        <time>2024-08-31T10:22:34Z</time>
      </trkpt>
      <trkpt lat="42.69125" lon="1.39658">
        <ele>2238.681</ele>
        <time>2024-08-31T10:22:36Z</time>
      </trkpt>
      <trkpt lat="42.69125" lon="1.39658">
        <ele>2238.691</ele>
        <time>2024-08-31T10:22:38Z</time>
      </trkpt>
      <trkpt lat="42.69125" lon="1.39658">
        <ele>2238.697</ele>
        <time>2024-08-31T10:22:40Z</time>
      </trkpt>
      <trkpt lat="42.69125" lon="1.39658">
        <ele>2238.706</ele>
        <time>2024-08-31T10:22:42Z</time>
      </trkpt>
      <trkpt lat="42.69125" lon="1.39658">
        <ele>2238.721</ele>
        <time>2024-08-31T10:22:44Z</time>
      </trkpt>
      <trkpt lat="42.69125" lon="1.39658">
        <ele>2238.747</ele>
        <time>2024-08-31T10:22:46Z</time>
      </trkpt>
      <trkpt lat="42.69125" lon="1.39658">
        <ele>2238.758</ele>
        <time>2024-08-31T10:22:48Z</time>
      </trkpt>
      <trkpt lat="42.69125" lon="1.39658">
        <ele>2238.756</ele>
        <time>2024-08-31T10:22:50Z</time>
      </trkpt>
      <trkpt lat="42.69125" lon="1.39658">
        <ele>2238.753</ele>
        <time>2024-08-31T10:22:52Z</time>
      </trkpt>
      <trkpt lat="42.69125" lon="1.39658">
        <ele>2238.737</ele>
        <time>2024-08-31T10:22:54Z</time>
      </trkpt>
      <trkpt lat="42.69125" lon="1.39658">
        <ele>2238.736</ele>
        <time>2024-08-31T10:22:56Z</time>
      </trkpt>
      <trkpt lat="42.69125" lon="1.39658">
        <ele>2238.736</ele>
        <time>2024-08-31T10:22:58Z</time>
      </trkpt>
      <trkpt lat="42.69125" lon="1.39658">
        <ele>2238.733</ele>
        <time>2024-08-31T10:23:00Z</time>
      </trkpt>
      <trkpt lat="42.69125" lon="1.39658">
        <ele>2238.726</ele>
        <time>2024-08-31T10:23:02Z</time>
      </trkpt>
      <trkpt lat="42.69125" lon="1.39658">
        <ele>2238.721</ele>
        <time>2024-08-31T10:23:04Z</time>
      </trkpt>
      <trkpt lat="42.69125" lon="1.39658">
        <ele>2238.722</ele>
        <time>2024-08-31T10:23:06Z</time>
      </trkpt>
      <trkpt lat="42.69125" lon="1.39658">
        <ele>2238.716</ele>
        <time>2024-08-31T10:23:08Z</time>
      </trkpt>
      <trkpt lat="42.69125" lon="1.39658">
        <ele>2238.721</ele>
        <time>2024-08-31T10:23:10Z</time>
      </trkpt>
      <trkpt lat="42.69125" lon="1.39658">
        <ele>2238.724</ele>
        <time>2024-08-31T10:23:12Z</time>
      </trkpt>
      <trkpt lat="42.69125" lon="1.39658">
        <ele>2238.723</ele>
        <time>2024-08-31T10:23:14Z</time>
      </trkpt>
      <trkpt lat="42.69125" lon="1.39658">
        <ele>2238.718</ele>
        <time>2024-08-31T10:23:16Z</time>
      </trkpt>
      <trkpt lat="42.69125" lon="1.39658">
        <ele>2238.714</ele>
        <time>2024-08-31T10:23:18Z</time>
      </trkpt>
      <trkpt lat="42.69125" lon="1.39658">
        <ele>2238.697</ele>
        <time>2024-08-31T10:23:20Z</time>
      </trkpt>
      <trkpt lat="42.69125" lon="1.39658">
        <ele>2238.686</ele>
        <time>2024-08-31T10:23:22Z</time>
      </trkpt>
      <trkpt lat="42.69125" lon="1.39658">
        <ele>2238.686</ele>
        <time>2024-08-31T10:23:24Z</time>
      </trkpt>
      <trkpt lat="42.69125" lon="1.39658">
        <ele>2238.681</ele>
        <time>2024-08-31T10:23:26Z</time>
      </trkpt>
      <trkpt lat="42.69125" lon="1.39658">
        <ele>2238.689</ele>
        <time>2024-08-31T10:23:28Z</time>
      </trkpt>
      <trkpt lat="42.69125" lon="1.39658">
        <ele>2238.696</ele>
        <time>2024-08-31T10:23:30Z</time>
      </trkpt>
      <trkpt lat="42.69125" lon="1.39658">
        <ele>2238.706</ele>
        <time>2024-08-31T10:23:32Z</time>
      </trkpt>
      <trkpt lat="42.69125" lon="1.39658">
        <ele>2238.708</ele>
        <time>2024-08-31T10:23:34Z</time>
      </trkpt>
      <trkpt lat="42.69125" lon="1.39658">
        <ele>2238.704</ele>
        <time>2024-08-31T10:23:36Z</time>
      </trkpt>
      <trkpt lat="42.69125" lon="1.39658">
        <ele>2238.69</ele>
        <time>2024-08-31T10:23:38Z</time>
      </trkpt>
      <trkpt lat="42.69125" lon="1.39658">
        <ele>2238.684</ele>
        <time>2024-08-31T10:23:40Z</time>
      </trkpt>
      <trkpt lat="42.69125" lon="1.39658">
        <ele>2238.684</ele>
        <time>2024-08-31T10:23:42Z</time>
      </trkpt>
      <trkpt lat="42.69125" lon="1.39658">
        <ele>2238.697</ele>
        <time>2024-08-31T10:23:44Z</time>
      </trkpt>
      <trkpt lat="42.69125" lon="1.39658">
        <ele>2238.706</ele>
        <time>2024-08-31T10:23:46Z</time>
      </trkpt>
      <trkpt lat="42.69125" lon="1.39658">
        <ele>2238.712</ele>
        <time>2024-08-31T10:23:48Z</time>
      </trkpt>
      <trkpt lat="42.69125" lon="1.39658">
        <ele>2238.723</ele>
        <time>2024-08-31T10:23:50Z</time>
      </trkpt>
      <trkpt lat="42.69125" lon="1.39658">
        <ele>2238.734</ele>
        <time>2024-08-31T10:23:52Z</time>
      </trkpt>
      <trkpt lat="42.69125" lon="1.39658">
        <ele>2238.735</ele>
        <time>2024-08-31T10:23:54Z</time>
      </trkpt>
      <trkpt lat="42.69125" lon="1.39658">
        <ele>2238.732</ele>
        <time>2024-08-31T10:23:56Z</time>
      </trkpt>
      <trkpt lat="42.69125" lon="1.39658">
        <ele>2238.732</ele>
        <time>2024-08-31T10:23:58Z</time>
      </trkpt>
      <trkpt lat="42.69125" lon="1.39658">
        <ele>2238.745</ele>
        <time>2024-08-31T10:24:00Z</time>
      </trkpt>
      <trkpt lat="42.69125" lon="1.39658">
        <ele>2238.728</ele>
        <time>2024-08-31T10:24:02Z</time>
      </trkpt>
      <trkpt lat="42.69125" lon="1.39658">
        <ele>2238.711</ele>
        <time>2024-08-31T10:24:04Z</time>
      </trkpt>
      <trkpt lat="42.69125" lon="1.39658">
        <ele>2238.722</ele>
        <time>2024-08-31T10:24:06Z</time>
      </trkpt>
      <trkpt lat="42.69125" lon="1.39658">
        <ele>2238.737</ele>
        <time>2024-08-31T10:24:08Z</time>
      </trkpt>
      <trkpt lat="42.69125" lon="1.39658">
        <ele>2238.739</ele>
        <time>2024-08-31T10:24:10Z</time>
      </trkpt>
      <trkpt lat="42.69125" lon="1.39658">
        <ele>2238.715</ele>
        <time>2024-08-31T10:24:12Z</time>
      </trkpt>
      <trkpt lat="42.69125" lon="1.39658">
        <ele>2238.702</ele>
        <time>2024-08-31T10:24:14Z</time>
      </trkpt>
      <trkpt lat="42.69125" lon="1.39658">
        <ele>2238.694</ele>
        <time>2024-08-31T10:24:16Z</time>
      </trkpt>
      <trkpt lat="42.69125" lon="1.39658">
        <ele>2238.693</ele>
        <time>2024-08-31T10:24:18Z</time>
      </trkpt>
      <trkpt lat="42.69125" lon="1.39658">
        <ele>2238.694</ele>
        <time>2024-08-31T10:24:20Z</time>
      </trkpt>
      <trkpt lat="42.69125" lon="1.39658">
        <ele>2238.699</ele>
        <time>2024-08-31T10:24:22Z</time>
      </trkpt>
      <trkpt lat="42.69125" lon="1.39658">
        <ele>2238.689</ele>
        <time>2024-08-31T10:24:24Z</time>
      </trkpt>
      <trkpt lat="42.69125" lon="1.39658">
        <ele>2238.69</ele>
        <time>2024-08-31T10:24:26Z</time>
      </trkpt>
      <trkpt lat="42.69125" lon="1.39658">
        <ele>2238.704</ele>
        <time>2024-08-31T10:24:28Z</time>
      </trkpt>
      <trkpt lat="42.69125" lon="1.39658">
        <ele>2238.703</ele>
        <time>2024-08-31T10:24:30Z</time>
      </trkpt>
      <trkpt lat="42.69125" lon="1.39658">
        <ele>2238.7</ele>
        <time>2024-08-31T10:24:32Z</time>
      </trkpt>
      <trkpt lat="42.69125" lon="1.39658">
        <ele>2238.682</ele>
        <time>2024-08-31T10:24:34Z</time>
      </trkpt>
      <trkpt lat="42.69125" lon="1.39658">
        <ele>2238.679</ele>
        <time>2024-08-31T10:24:36Z</time>
      </trkpt>
      <trkpt lat="42.69125" lon="1.39658">
        <ele>2238.693</ele>
        <time>2024-08-31T10:24:38Z</time>
      </trkpt>
      <trkpt lat="42.69125" lon="1.39658">
        <ele>2238.696</ele>
        <time>2024-08-31T10:24:40Z</time>
      </trkpt>
      <trkpt lat="42.69125" lon="1.39658">
        <ele>2238.672</ele>
        <time>2024-08-31T10:24:42Z</time>
      </trkpt>
      <trkpt lat="42.69125" lon="1.39658">
        <ele>2238.667</ele>
        <time>2024-08-31T10:24:44Z</time>
      </trkpt>
      <trkpt lat="42.69125" lon="1.39658">
        <ele>2238.646</ele>
        <time>2024-08-31T10:24:46Z</time>
      </trkpt>
      <trkpt lat="42.69125" lon="1.39658">
        <ele>2238.635</ele>
        <time>2024-08-31T10:24:48Z</time>
      </trkpt>
      <trkpt lat="42.69125" lon="1.39658">
        <ele>2238.625</ele>
        <time>2024-08-31T10:24:50Z</time>
      </trkpt>
      <trkpt lat="42.69125" lon="1.39658">
        <ele>2238.631</ele>
        <time>2024-08-31T10:24:52Z</time>
      </trkpt>
      <trkpt lat="42.69125" lon="1.39658">
        <ele>2238.637</ele>
        <time>2024-08-31T10:24:54Z</time>
      </trkpt>
      <trkpt lat="42.69125" lon="1.39658">
        <ele>2238.611</ele>
        <time>2024-08-31T10:24:56Z</time>
      </trkpt>
      <trkpt lat="42.69125" lon="1.39658">
        <ele>2238.592</ele>
        <time>2024-08-31T10:24:58Z</time>
      </trkpt>
      <trkpt lat="42.69125" lon="1.39658">
        <ele>2238.586</ele>
        <time>2024-08-31T10:25:00Z</time>
      </trkpt>
      <trkpt lat="42.69125" lon="1.39658">
        <ele>2238.586</ele>
        <time>2024-08-31T10:25:02Z</time>
      </trkpt>
      <trkpt lat="42.69125" lon="1.39658">
        <ele>2238.604</ele>
        <time>2024-08-31T10:25:04Z</time>
      </trkpt>
      <trkpt lat="42.69125" lon="1.39658">
        <ele>2238.603</ele>
        <time>2024-08-31T10:25:06Z</time>
      </trkpt>
      <trkpt lat="42.69125" lon="1.39658">
        <ele>2238.575</ele>
        <time>2024-08-31T10:25:08Z</time>
      </trkpt>
      <trkpt lat="42.69125" lon="1.39658">
        <ele>2238.557</ele>
        <time>2024-08-31T10:25:10Z</time>
      </trkpt>
      <trkpt lat="42.69125" lon="1.39658">
        <ele>2238.553</ele>
        <time>2024-08-31T10:25:12Z</time>
      </trkpt>
      <trkpt lat="42.69125" lon="1.39658">
        <ele>2238.558</ele>
        <time>2024-08-31T10:25:14Z</time>
      </trkpt>
      <trkpt lat="42.69125" lon="1.39658">
        <ele>2238.55</ele>
        <time>2024-08-31T10:25:16Z</time>
      </trkpt>
      <trkpt lat="42.69125" lon="1.39658">
        <ele>2238.536</ele>
        <time>2024-08-31T10:25:18Z</time>
      </trkpt>
      <trkpt lat="42.69125" lon="1.39658">
        <ele>2238.535</ele>
        <time>2024-08-31T10:25:20Z</time>
      </trkpt>
      <trkpt lat="42.69125" lon="1.39658">
        <ele>2238.539</ele>
        <time>2024-08-31T10:25:22Z</time>
      </trkpt>
      <trkpt lat="42.69125" lon="1.39658">
        <ele>2238.535</ele>
        <time>2024-08-31T10:25:24Z</time>
      </trkpt>
      <trkpt lat="42.69125" lon="1.39658">
        <ele>2238.528</ele>
        <time>2024-08-31T10:25:26Z</time>
      </trkpt>
      <trkpt lat="42.69125" lon="1.39658">
        <ele>2238.538</ele>
        <time>2024-08-31T10:25:28Z</time>
      </trkpt>
      <trkpt lat="42.69125" lon="1.39658">
        <ele>2238.55</ele>
        <time>2024-08-31T10:25:30Z</time>
      </trkpt>
      <trkpt lat="42.69125" lon="1.39658">
        <ele>2238.542</ele>
        <time>2024-08-31T10:25:32Z</time>
      </trkpt>
      <trkpt lat="42.69125" lon="1.39658">
        <ele>2238.529</ele>
        <time>2024-08-31T10:25:34Z</time>
      </trkpt>
      <trkpt lat="42.69125" lon="1.39658">
        <ele>2238.52</ele>
        <time>2024-08-31T10:25:36Z</time>
      </trkpt>
      <trkpt lat="42.69125" lon="1.39658">
        <ele>2238.515</ele>
        <time>2024-08-31T10:25:38Z</time>
      </trkpt>
      <trkpt lat="42.69125" lon="1.39658">
        <ele>2238.502</ele>
        <time>2024-08-31T10:25:40Z</time>
      </trkpt>
      <trkpt lat="42.69125" lon="1.39658">
        <ele>2238.493</ele>
        <time>2024-08-31T10:25:42Z</time>
      </trkpt>
      <trkpt lat="42.69125" lon="1.39658">
        <ele>2238.485</ele>
        <time>2024-08-31T10:25:44Z</time>
      </trkpt>
      <trkpt lat="42.69125" lon="1.39658">
        <ele>2238.5</ele>
        <time>2024-08-31T10:25:46Z</time>
      </trkpt>
      <trkpt lat="42.69125" lon="1.39658">
        <ele>2238.502</ele>
        <time>2024-08-31T10:25:48Z</time>
      </trkpt>
      <trkpt lat="42.69125" lon="1.39658">
        <ele>2238.503</ele>
        <time>2024-08-31T10:25:50Z</time>
      </trkpt>
      <trkpt lat="42.69125" lon="1.39658">
        <ele>2238.497</ele>
        <time>2024-08-31T10:25:52Z</time>
      </trkpt>
      <trkpt lat="42.69125" lon="1.39658">
        <ele>2238.498</ele>
        <time>2024-08-31T10:25:54Z</time>
      </trkpt>
      <trkpt lat="42.69125" lon="1.39658">
        <ele>2238.493</ele>
        <time>2024-08-31T10:25:56Z</time>
      </trkpt>
      <trkpt lat="42.69125" lon="1.39658">
        <ele>2238.489</ele>
        <time>2024-08-31T10:25:58Z</time>
      </trkpt>
      <trkpt lat="42.69125" lon="1.39658">
        <ele>2238.477</ele>
        <time>2024-08-31T10:26:00Z</time>
      </trkpt>
      <trkpt lat="42.69125" lon="1.39658">
        <ele>2238.471</ele>
        <time>2024-08-31T10:26:02Z</time>
      </trkpt>
      <trkpt lat="42.69125" lon="1.39658">
        <ele>2238.478</ele>
        <time>2024-08-31T10:26:04Z</time>
      </trkpt>
      <trkpt lat="42.69125" lon="1.39658">
        <ele>2238.474</ele>
        <time>2024-08-31T10:26:06Z</time>
      </trkpt>
      <trkpt lat="42.69125" lon="1.39658">
        <ele>2238.456</ele>
        <time>2024-08-31T10:26:08Z</time>
      </trkpt>
      <trkpt lat="42.69125" lon="1.39658">
        <ele>2238.454</ele>
        <time>2024-08-31T10:26:10Z</time>
      </trkpt>
      <trkpt lat="42.69125" lon="1.39658">
        <ele>2238.461</ele>
        <time>2024-08-31T10:26:12Z</time>
      </trkpt>
      <trkpt lat="42.69125" lon="1.39658">
        <ele>2238.47</ele>
        <time>2024-08-31T10:26:14Z</time>
      </trkpt>
      <trkpt lat="42.69125" lon="1.39658">
        <ele>2238.471</ele>
        <time>2024-08-31T10:26:16Z</time>
      </trkpt>
      <trkpt lat="42.69125" lon="1.39658">
        <ele>2238.485</ele>
        <time>2024-08-31T10:26:18Z</time>
      </trkpt>
      <trkpt lat="42.69125" lon="1.39658">
        <ele>2238.497</ele>
        <time>2024-08-31T10:26:20Z</time>
      </trkpt>
      <trkpt lat="42.69125" lon="1.39658">
        <ele>2238.506</ele>
        <time>2024-08-31T10:26:22Z</time>
      </trkpt>
      <trkpt lat="42.69125" lon="1.39658">
        <ele>2238.512</ele>
        <time>2024-08-31T10:26:24Z</time>
      </trkpt>
      <trkpt lat="42.69125" lon="1.39658">
        <ele>2238.515</ele>
        <time>2024-08-31T10:26:26Z</time>
      </trkpt>
      <trkpt lat="42.69125" lon="1.39658">
        <ele>2238.512</ele>
        <time>2024-08-31T10:26:28Z</time>
      </trkpt>
      <trkpt lat="42.69125" lon="1.39658">
        <ele>2238.495</ele>
        <time>2024-08-31T10:26:30Z</time>
      </trkpt>
      <trkpt lat="42.69125" lon="1.39658">
        <ele>2238.493</ele>
        <time>2024-08-31T10:26:32Z</time>
      </trkpt>
      <trkpt lat="42.69125" lon="1.39658">
        <ele>2238.498</ele>
        <time>2024-08-31T10:26:34Z</time>
      </trkpt>
      <trkpt lat="42.69125" lon="1.39658">
        <ele>2238.514</ele>
        <time>2024-08-31T10:26:36Z</time>
      </trkpt>
      <trkpt lat="42.69125" lon="1.39658">
        <ele>2238.532</ele>
        <time>2024-08-31T10:26:38Z</time>
      </trkpt>
      <trkpt lat="42.69125" lon="1.39658">
        <ele>2238.542</ele>
        <time>2024-08-31T10:26:40Z</time>
      </trkpt>
      <trkpt lat="42.69125" lon="1.39658">
        <ele>2238.529</ele>
        <time>2024-08-31T10:26:42Z</time>
      </trkpt>
      <trkpt lat="42.69125" lon="1.39658">
        <ele>2238.52</ele>
        <time>2024-08-31T10:26:44Z</time>
      </trkpt>
      <trkpt lat="42.69125" lon="1.39658">
        <ele>2238.523</ele>
        <time>2024-08-31T10:26:46Z</time>
      </trkpt>
      <trkpt lat="42.69125" lon="1.39658">
        <ele>2238.517</ele>
        <time>2024-08-31T10:26:48Z</time>
      </trkpt>
      <trkpt lat="42.69125" lon="1.39658">
        <ele>2238.534</ele>
        <time>2024-08-31T10:26:50Z</time>
      </trkpt>
      <trkpt lat="42.69125" lon="1.39658">
        <ele>2238.546</ele>
        <time>2024-08-31T10:26:52Z</time>
      </trkpt>
      <trkpt lat="42.69125" lon="1.39658">
        <ele>2238.545</ele>
        <time>2024-08-31T10:26:54Z</time>
      </trkpt>
      <trkpt lat="42.69125" lon="1.39658">
        <ele>2238.542</ele>
        <time>2024-08-31T10:26:56Z</time>
      </trkpt>
      <trkpt lat="42.69125" lon="1.39658">
        <ele>2238.543</ele>
        <time>2024-08-31T10:26:58Z</time>
      </trkpt>
      <trkpt lat="42.69125" lon="1.39658">
        <ele>2238.54</ele>
        <time>2024-08-31T10:27:00Z</time>
      </trkpt>
      <trkpt lat="42.69125" lon="1.39658">
        <ele>2238.538</ele>
        <time>2024-08-31T10:27:02Z</time>
      </trkpt>
      <trkpt lat="42.69125" lon="1.39658">
        <ele>2238.535</ele>
        <time>2024-08-31T10:27:04Z</time>
      </trkpt>
      <trkpt lat="42.69125" lon="1.39658">
        <ele>2238.538</ele>
        <time>2024-08-31T10:27:06Z</time>
      </trkpt>
      <trkpt lat="42.69125" lon="1.39658">
        <ele>2238.534</ele>
        <time>2024-08-31T10:27:08Z</time>
      </trkpt>
      <trkpt lat="42.69125" lon="1.39658">
        <ele>2238.534</ele>
        <time>2024-08-31T10:27:10Z</time>
      </trkpt>
      <trkpt lat="42.69125" lon="1.39658">
        <ele>2238.523</ele>
        <time>2024-08-31T10:27:12Z</time>
      </trkpt>
      <trkpt lat="42.69125" lon="1.39658">
        <ele>2238.536</ele>
        <time>2024-08-31T10:27:14Z</time>
      </trkpt>
      <trkpt lat="42.69125" lon="1.39658">
        <ele>2238.545</ele>
        <time>2024-08-31T10:27:16Z</time>
      </trkpt>
      <trkpt lat="42.69125" lon="1.39658">
        <ele>2238.549</ele>
        <time>2024-08-31T10:27:18Z</time>
      </trkpt>
      <trkpt lat="42.69125" lon="1.39658">
        <ele>2238.555</ele>
        <time>2024-08-31T10:27:20Z</time>
      </trkpt>
      <trkpt lat="42.69125" lon="1.39658">
        <ele>2238.558</ele>
        <time>2024-08-31T10:27:22Z</time>
      </trkpt>
      <trkpt lat="42.69125" lon="1.39658">
        <ele>2238.559</ele>
        <time>2024-08-31T10:27:24Z</time>
      </trkpt>
      <trkpt lat="42.69125" lon="1.39658">
        <ele>2238.569</ele>
        <time>2024-08-31T10:27:26Z</time>
      </trkpt>
      <trkpt lat="42.69125" lon="1.39658">
        <ele>2238.599</ele>
        <time>2024-08-31T10:27:28Z</time>
      </trkpt>
      <trkpt lat="42.69125" lon="1.39658">
        <ele>2238.603</ele>
        <time>2024-08-31T10:27:30Z</time>
      </trkpt>
      <trkpt lat="42.69125" lon="1.39658">
        <ele>2238.616</ele>
        <time>2024-08-31T10:27:32Z</time>
      </trkpt>
      <trkpt lat="42.69125" lon="1.39658">
        <ele>2238.619</ele>
        <time>2024-08-31T10:27:34Z</time>
      </trkpt>
      <trkpt lat="42.69125" lon="1.39658">
        <ele>2238.608</ele>
        <time>2024-08-31T10:27:36Z</time>
      </trkpt>
      <trkpt lat="42.69125" lon="1.39658">
        <ele>2238.612</ele>
        <time>2024-08-31T10:27:38Z</time>
      </trkpt>
      <trkpt lat="42.69125" lon="1.39658">
        <ele>2238.625</ele>
        <time>2024-08-31T10:27:40Z</time>
      </trkpt>
      <trkpt lat="42.69125" lon="1.39658">
        <ele>2238.628</ele>
        <time>2024-08-31T10:27:42Z</time>
      </trkpt>
      <trkpt lat="42.69125" lon="1.39658">
        <ele>2238.637</ele>
        <time>2024-08-31T10:27:44Z</time>
      </trkpt>
      <trkpt lat="42.69125" lon="1.39658">
        <ele>2238.646</ele>
        <time>2024-08-31T10:27:46Z</time>
      </trkpt>
      <trkpt lat="42.69125" lon="1.39658">
        <ele>2238.643</ele>
        <time>2024-08-31T10:27:48Z</time>
      </trkpt>
      <trkpt lat="42.69125" lon="1.39658">
        <ele>2238.638</ele>
        <time>2024-08-31T10:27:50Z</time>
      </trkpt>
      <trkpt lat="42.69125" lon="1.39658">
        <ele>2238.631</ele>
        <time>2024-08-31T10:27:52Z</time>
      </trkpt>
      <trkpt lat="42.69125" lon="1.39658">
        <ele>2238.636</ele>
        <time>2024-08-31T10:27:54Z</time>
      </trkpt>
      <trkpt lat="42.69125" lon="1.39658">
        <ele>2238.629</ele>
        <time>2024-08-31T10:27:56Z</time>
      </trkpt>
      <trkpt lat="42.69125" lon="1.39658">
        <ele>2238.631</ele>
        <time>2024-08-31T10:27:58Z</time>
      </trkpt>
      <trkpt lat="42.69125" lon="1.39658">
        <ele>2238.636</ele>
        <time>2024-08-31T10:28:00Z</time>
      </trkpt>
      <trkpt lat="42.69125" lon="1.39658">
        <ele>2238.656</ele>
        <time>2024-08-31T10:28:02Z</time>
      </trkpt>
      <trkpt lat="42.69125" lon="1.39658">
        <ele>2238.672</ele>
        <time>2024-08-31T10:28:04Z</time>
      </trkpt>
      <trkpt lat="42.69125" lon="1.39658">
        <ele>2238.669</ele>
        <time>2024-08-31T10:28:06Z</time>
      </trkpt>
      <trkpt lat="42.69125" lon="1.39658">
        <ele>2238.671</ele>
        <time>2024-08-31T10:28:08Z</time>
      </trkpt>
      <trkpt lat="42.69125" lon="1.39658">
        <ele>2238.667</ele>
        <time>2024-08-31T10:28:10Z</time>
      </trkpt>
      <trkpt lat="42.69125" lon="1.39658">
        <ele>2238.664</ele>
        <time>2024-08-31T10:28:12Z</time>
      </trkpt>
      <trkpt lat="42.69125" lon="1.39658">
        <ele>2238.66</ele>
        <time>2024-08-31T10:28:14Z</time>
      </trkpt>
      <trkpt lat="42.69125" lon="1.39658">
        <ele>2238.665</ele>
        <time>2024-08-31T10:28:16Z</time>
      </trkpt>
      <trkpt lat="42.69125" lon="1.39658">
        <ele>2238.667</ele>
        <time>2024-08-31T10:28:18Z</time>
      </trkpt>
      <trkpt lat="42.69125" lon="1.39658">
        <ele>2238.686</ele>
        <time>2024-08-31T10:28:20Z</time>
      </trkpt>
      <trkpt lat="42.69125" lon="1.39658">
        <ele>2238.708</ele>
        <time>2024-08-31T10:28:22Z</time>
      </trkpt>
      <trkpt lat="42.69125" lon="1.39658">
        <ele>2238.715</ele>
        <time>2024-08-31T10:28:24Z</time>
      </trkpt>
      <trkpt lat="42.69125" lon="1.39658">
        <ele>2238.731</ele>
        <time>2024-08-31T10:28:26Z</time>
      </trkpt>
      <trkpt lat="42.69125" lon="1.39658">
        <ele>2238.731</ele>
        <time>2024-08-31T10:28:28Z</time>
      </trkpt>
      <trkpt lat="42.69125" lon="1.39658">
        <ele>2238.723</ele>
        <time>2024-08-31T10:28:30Z</time>
      </trkpt>
      <trkpt lat="42.69125" lon="1.39658">
        <ele>2238.724</ele>
        <time>2024-08-31T10:28:32Z</time>
      </trkpt>
      <trkpt lat="42.69125" lon="1.39658">
        <ele>2238.728</ele>
        <time>2024-08-31T10:28:34Z</time>
      </trkpt>
      <trkpt lat="42.69125" lon="1.39658">
        <ele>2238.721</ele>
        <time>2024-08-31T10:28:36Z</time>
      </trkpt>
      <trkpt lat="42.69125" lon="1.39658">
        <ele>2238.714</ele>
        <time>2024-08-31T10:28:38Z</time>
      </trkpt>
      <trkpt lat="42.69125" lon="1.39658">
        <ele>2238.701</ele>
        <time>2024-08-31T10:28:40Z</time>
      </trkpt>
      <trkpt lat="42.69125" lon="1.39658">
        <ele>2238.698</ele>
        <time>2024-08-31T10:28:42Z</time>
      </trkpt>
      <trkpt lat="42.69125" lon="1.39658">
        <ele>2238.695</ele>
        <time>2024-08-31T10:28:44Z</time>
      </trkpt>
      <trkpt lat="42.69125" lon="1.39658">
        <ele>2238.695</ele>
        <time>2024-08-31T10:28:46Z</time>
      </trkpt>
      <trkpt lat="42.69125" lon="1.39658">
        <ele>2238.697</ele>
        <time>2024-08-31T10:28:48Z</time>
      </trkpt>
      <trkpt lat="42.69125" lon="1.39658">
        <ele>2238.696</ele>
        <time>2024-08-31T10:28:50Z</time>
      </trkpt>
      <trkpt lat="42.69125" lon="1.39658">
        <ele>2238.688</ele>
        <time>2024-08-31T10:28:52Z</time>
      </trkpt>
      <trkpt lat="42.69125" lon="1.39658">
        <ele>2238.694</ele>
        <time>2024-08-31T10:28:54Z</time>
      </trkpt>
      <trkpt lat="42.69125" lon="1.39658">
        <ele>2238.693</ele>
        <time>2024-08-31T10:28:56Z</time>
      </trkpt>
      <trkpt lat="42.69125" lon="1.39658">
        <ele>2238.682</ele>
        <time>2024-08-31T10:28:58Z</time>
      </trkpt>
      <trkpt lat="42.69125" lon="1.39658">
        <ele>2238.67</ele>
        <time>2024-08-31T10:29:00Z</time>
      </trkpt>
      <trkpt lat="42.69125" lon="1.39658">
        <ele>2238.671</ele>
        <time>2024-08-31T10:29:02Z</time>
      </trkpt>
      <trkpt lat="42.69125" lon="1.39658">
        <ele>2238.683</ele>
        <time>2024-08-31T10:29:04Z</time>
      </trkpt>
      <trkpt lat="42.69125" lon="1.39658">
        <ele>2238.689</ele>
        <time>2024-08-31T10:29:06Z</time>
      </trkpt>
      <trkpt lat="42.69125" lon="1.39658">
        <ele>2238.679</ele>
        <time>2024-08-31T10:29:08Z</time>
      </trkpt>
      <trkpt lat="42.69125" lon="1.39658">
        <ele>2238.661</ele>
        <time>2024-08-31T10:29:10Z</time>
      </trkpt>
      <trkpt lat="42.69125" lon="1.39658">
        <ele>2238.648</ele>
        <time>2024-08-31T10:29:12Z</time>
      </trkpt>
      <trkpt lat="42.69125" lon="1.39658">
        <ele>2238.646</ele>
        <time>2024-08-31T10:29:14Z</time>
      </trkpt>
      <trkpt lat="42.69125" lon="1.39658">
        <ele>2238.64</ele>
        <time>2024-08-31T10:29:16Z</time>
      </trkpt>
      <trkpt lat="42.69125" lon="1.39658">
        <ele>2238.638</ele>
        <time>2024-08-31T10:29:18Z</time>
      </trkpt>
      <trkpt lat="42.69125" lon="1.39658">
        <ele>2238.632</ele>
        <time>2024-08-31T10:29:20Z</time>
      </trkpt>
      <trkpt lat="42.69125" lon="1.39658">
        <ele>2238.622</ele>
        <time>2024-08-31T10:29:22Z</time>
      </trkpt>
      <trkpt lat="42.69125" lon="1.39658">
        <ele>2238.617</ele>
        <time>2024-08-31T10:29:24Z</time>
      </trkpt>
      <trkpt lat="42.69125" lon="1.39658">
        <ele>2238.618</ele>
        <time>2024-08-31T10:29:26Z</time>
      </trkpt>
      <trkpt lat="42.69125" lon="1.39658">
        <ele>2238.618</ele>
        <time>2024-08-31T10:29:28Z</time>
      </trkpt>
      <trkpt lat="42.69125" lon="1.39658">
        <ele>2238.623</ele>
        <time>2024-08-31T10:29:30Z</time>
      </trkpt>
      <trkpt lat="42.69125" lon="1.39658">
        <ele>2238.611</ele>
        <time>2024-08-31T10:29:32Z</time>
      </trkpt>
      <trkpt lat="42.69125" lon="1.39658">
        <ele>2238.613</ele>
        <time>2024-08-31T10:29:35Z</time>
      </trkpt>
      <trkpt lat="42.69125" lon="1.39658">
        <ele>2238.62</ele>
        <time>2024-08-31T10:29:37Z</time>
      </trkpt>
      <trkpt lat="42.69125" lon="1.39658">
        <ele>2238.619</ele>
        <time>2024-08-31T10:29:39Z</time>
      </trkpt>
      <trkpt lat="42.69125" lon="1.39658">
        <ele>2238.598</ele>
        <time>2024-08-31T10:29:41Z</time>
      </trkpt>
      <trkpt lat="42.69125" lon="1.39658">
        <ele>2238.589</ele>
        <time>2024-08-31T10:29:43Z</time>
      </trkpt>
      <trkpt lat="42.69125" lon="1.39658">
        <ele>2238.577</ele>
        <time>2024-08-31T10:29:45Z</time>
      </trkpt>
      <trkpt lat="42.69125" lon="1.39658">
        <ele>2238.554</ele>
        <time>2024-08-31T10:29:47Z</time>
      </trkpt>
      <trkpt lat="42.69125" lon="1.39658">
        <ele>2238.546</ele>
        <time>2024-08-31T10:29:49Z</time>
      </trkpt>
      <trkpt lat="42.69125" lon="1.39658">
        <ele>2238.531</ele>
        <time>2024-08-31T10:29:51Z</time>
      </trkpt>
      <trkpt lat="42.69125" lon="1.39658">
        <ele>2238.533</ele>
        <time>2024-08-31T10:29:53Z</time>
      </trkpt>
      <trkpt lat="42.69125" lon="1.39658">
        <ele>2238.539</ele>
        <time>2024-08-31T10:29:55Z</time>
      </trkpt>
      <trkpt lat="42.69125" lon="1.39658">
        <ele>2238.515</ele>
        <time>2024-08-31T10:29:57Z</time>
      </trkpt>
      <trkpt lat="42.69125" lon="1.39658">
        <ele>2238.505</ele>
        <time>2024-08-31T10:29:59Z</time>
      </trkpt>
      <trkpt lat="42.69125" lon="1.39658">
        <ele>2238.492</ele>
        <time>2024-08-31T10:30:01Z</time>
      </trkpt>
      <trkpt lat="42.69125" lon="1.39658">
        <ele>2238.488</ele>
        <time>2024-08-31T10:30:03Z</time>
      </trkpt>
      <trkpt lat="42.69125" lon="1.39658">
        <ele>2238.485</ele>
        <time>2024-08-31T10:30:05Z</time>
      </trkpt>
      <trkpt lat="42.69125" lon="1.39658">
        <ele>2238.482</ele>
        <time>2024-08-31T10:30:07Z</time>
      </trkpt>
      <trkpt lat="42.69125" lon="1.39658">
        <ele>2238.479</ele>
        <time>2024-08-31T10:30:09Z</time>
      </trkpt>
      <trkpt lat="42.69125" lon="1.39658">
        <ele>2238.467</ele>
        <time>2024-08-31T10:30:11Z</time>
      </trkpt>
      <trkpt lat="42.69125" lon="1.39658">
        <ele>2238.472</ele>
        <time>2024-08-31T10:30:13Z</time>
      </trkpt>
      <trkpt lat="42.69125" lon="1.39658">
        <ele>2238.482</ele>
        <time>2024-08-31T10:30:15Z</time>
      </trkpt>
      <trkpt lat="42.69125" lon="1.39658">
        <ele>2238.488</ele>
        <time>2024-08-31T10:30:17Z</time>
      </trkpt>
      <trkpt lat="42.69125" lon="1.39658">
        <ele>2238.493</ele>
        <time>2024-08-31T10:30:19Z</time>
      </trkpt>
      <trkpt lat="42.69125" lon="1.39658">
        <ele>2238.489</ele>
        <time>2024-08-31T10:30:21Z</time>
      </trkpt>
      <trkpt lat="42.69125" lon="1.39658">
        <ele>2238.486</ele>
        <time>2024-08-31T10:30:23Z</time>
      </trkpt>
      <trkpt lat="42.69125" lon="1.39658">
        <ele>2238.484</ele>
        <time>2024-08-31T10:30:25Z</time>
      </trkpt>
      <trkpt lat="42.69125" lon="1.39658">
        <ele>2238.494</ele>
        <time>2024-08-31T10:30:27Z</time>
      </trkpt>
      <trkpt lat="42.69125" lon="1.39658">
        <ele>2238.485</ele>
        <time>2024-08-31T10:30:29Z</time>
      </trkpt>
      <trkpt lat="42.69125" lon="1.39658">
        <ele>2238.488</ele>
        <time>2024-08-31T10:30:31Z</time>
      </trkpt>
      <trkpt lat="42.69125" lon="1.39658">
        <ele>2238.488</ele>
        <time>2024-08-31T10:30:33Z</time>
      </trkpt>
      <trkpt lat="42.69125" lon="1.39658">
        <ele>2238.481</ele>
        <time>2024-08-31T10:30:35Z</time>
      </trkpt>
      <trkpt lat="42.69125" lon="1.39658">
        <ele>2238.478</ele>
        <time>2024-08-31T10:30:37Z</time>
      </trkpt>
      <trkpt lat="42.69125" lon="1.39658">
        <ele>2238.47</ele>
        <time>2024-08-31T10:30:39Z</time>
      </trkpt>
      <trkpt lat="42.69125" lon="1.39658">
        <ele>2238.472</ele>
        <time>2024-08-31T10:30:41Z</time>
      </trkpt>
      <trkpt lat="42.69125" lon="1.39658">
        <ele>2238.476</ele>
        <time>2024-08-31T10:30:43Z</time>
      </trkpt>
      <trkpt lat="42.69125" lon="1.39658">
        <ele>2238.474</ele>
        <time>2024-08-31T10:30:45Z</time>
      </trkpt>
      <trkpt lat="42.69125" lon="1.39658">
        <ele>2238.476</ele>
        <time>2024-08-31T10:30:47Z</time>
      </trkpt>
      <trkpt lat="42.69125" lon="1.39658">
        <ele>2238.473</ele>
        <time>2024-08-31T10:30:49Z</time>
      </trkpt>
      <trkpt lat="42.69125" lon="1.39658">
        <ele>2238.469</ele>
        <time>2024-08-31T10:30:51Z</time>
      </trkpt>
      <trkpt lat="42.69125" lon="1.39658">
        <ele>2238.471</ele>
        <time>2024-08-31T10:30:53Z</time>
      </trkpt>
      <trkpt lat="42.69125" lon="1.39658">
        <ele>2238.473</ele>
        <time>2024-08-31T10:30:55Z</time>
      </trkpt>
      <trkpt lat="42.69125" lon="1.39658">
        <ele>2238.477</ele>
        <time>2024-08-31T10:30:57Z</time>
      </trkpt>
      <trkpt lat="42.69125" lon="1.39658">
        <ele>2238.48</ele>
        <time>2024-08-31T10:30:59Z</time>
      </trkpt>
      <trkpt lat="42.69125" lon="1.39658">
        <ele>2238.476</ele>
        <time>2024-08-31T10:31:01Z</time>
      </trkpt>
      <trkpt lat="42.69125" lon="1.39658">
        <ele>2238.47</ele>
        <time>2024-08-31T10:31:03Z</time>
      </trkpt>
      <trkpt lat="42.69125" lon="1.39658">
        <ele>2238.471</ele>
        <time>2024-08-31T10:31:05Z</time>
      </trkpt>
      <trkpt lat="42.69125" lon="1.39658">
        <ele>2238.476</ele>
        <time>2024-08-31T10:31:07Z</time>
      </trkpt>
      <trkpt lat="42.69125" lon="1.39658">
        <ele>2238.483</ele>
        <time>2024-08-31T10:31:09Z</time>
      </trkpt>
      <trkpt lat="42.69125" lon="1.39658">
        <ele>2238.484</ele>
        <time>2024-08-31T10:31:11Z</time>
      </trkpt>
      <trkpt lat="42.69125" lon="1.39658">
        <ele>2238.482</ele>
        <time>2024-08-31T10:31:13Z</time>
      </trkpt>
      <trkpt lat="42.69125" lon="1.39658">
        <ele>2238.484</ele>
        <time>2024-08-31T10:31:15Z</time>
      </trkpt>
      <trkpt lat="42.69125" lon="1.39658">
        <ele>2238.484</ele>
        <time>2024-08-31T10:31:17Z</time>
      </trkpt>
      <trkpt lat="42.69125" lon="1.39658">
        <ele>2238.483</ele>
        <time>2024-08-31T10:31:19Z</time>
      </trkpt>
      <trkpt lat="42.69125" lon="1.39658">
        <ele>2238.482</ele>
        <time>2024-08-31T10:31:21Z</time>
      </trkpt>
      <trkpt lat="42.69125" lon="1.39658">
        <ele>2238.48</ele>
        <time>2024-08-31T10:31:23Z</time>
      </trkpt>
      <trkpt lat="42.69125" lon="1.39658">
        <ele>2238.471</ele>
        <time>2024-08-31T10:31:25Z</time>
      </trkpt>
      <trkpt lat="42.69125" lon="1.39658">
        <ele>2238.457</ele>
        <time>2024-08-31T10:31:27Z</time>
      </trkpt>
      <trkpt lat="42.69125" lon="1.39658">
        <ele>2238.462</ele>
        <time>2024-08-31T10:31:29Z</time>
      </trkpt>
      <trkpt lat="42.69125" lon="1.39658">
        <ele>2238.473</ele>
        <time>2024-08-31T10:31:31Z</time>
      </trkpt>
      <trkpt lat="42.69125" lon="1.39658">
        <ele>2238.469</ele>
        <time>2024-08-31T10:31:33Z</time>
      </trkpt>
      <trkpt lat="42.69125" lon="1.39658">
        <ele>2238.457</ele>
        <time>2024-08-31T10:31:35Z</time>
      </trkpt>
      <trkpt lat="42.69125" lon="1.39658">
        <ele>2238.453</ele>
        <time>2024-08-31T10:31:37Z</time>
      </trkpt>
      <trkpt lat="42.69125" lon="1.39658">
        <ele>2238.456</ele>
        <time>2024-08-31T10:31:39Z</time>
      </trkpt>
      <trkpt lat="42.69125" lon="1.39658">
        <ele>2238.47</ele>
        <time>2024-08-31T10:31:41Z</time>
      </trkpt>
      <trkpt lat="42.69125" lon="1.39658">
        <ele>2238.456</ele>
        <time>2024-08-31T10:31:43Z</time>
      </trkpt>
      <trkpt lat="42.69125" lon="1.39658">
        <ele>2238.449</ele>
        <time>2024-08-31T10:31:45Z</time>
      </trkpt>
      <trkpt lat="42.69125" lon="1.39658">
        <ele>2238.445</ele>
        <time>2024-08-31T10:31:47Z</time>
      </trkpt>
      <trkpt lat="42.69125" lon="1.39658">
        <ele>2238.431</ele>
        <time>2024-08-31T10:31:49Z</time>
      </trkpt>
      <trkpt lat="42.69125" lon="1.39658">
        <ele>2238.414</ele>
        <time>2024-08-31T10:31:51Z</time>
      </trkpt>
      <trkpt lat="42.69125" lon="1.39658">
        <ele>2238.406</ele>
        <time>2024-08-31T10:31:53Z</time>
      </trkpt>
      <trkpt lat="42.69125" lon="1.39658">
        <ele>2238.394</ele>
        <time>2024-08-31T10:31:55Z</time>
      </trkpt>
      <trkpt lat="42.69125" lon="1.39658">
        <ele>2238.379</ele>
        <time>2024-08-31T10:31:57Z</time>
      </trkpt>
      <trkpt lat="42.69125" lon="1.39658">
        <ele>2238.362</ele>
        <time>2024-08-31T10:31:59Z</time>
      </trkpt>
      <trkpt lat="42.69125" lon="1.39658">
        <ele>2238.361</ele>
        <time>2024-08-31T10:32:01Z</time>
      </trkpt>
      <trkpt lat="42.69125" lon="1.39658">
        <ele>2238.36</ele>
        <time>2024-08-31T10:32:03Z</time>
      </trkpt>
      <trkpt lat="42.69125" lon="1.39658">
        <ele>2238.367</ele>
        <time>2024-08-31T10:32:05Z</time>
      </trkpt>
      <trkpt lat="42.69125" lon="1.39658">
        <ele>2238.373</ele>
        <time>2024-08-31T10:32:07Z</time>
      </trkpt>
      <trkpt lat="42.69125" lon="1.39658">
        <ele>2238.373</ele>
        <time>2024-08-31T10:32:09Z</time>
      </trkpt>
      <trkpt lat="42.69125" lon="1.39658">
        <ele>2238.367</ele>
        <time>2024-08-31T10:32:11Z</time>
      </trkpt>
      <trkpt lat="42.69125" lon="1.39658">
        <ele>2238.366</ele>
        <time>2024-08-31T10:32:13Z</time>
      </trkpt>
      <trkpt lat="42.69125" lon="1.39658">
        <ele>2238.363</ele>
        <time>2024-08-31T10:32:15Z</time>
      </trkpt>
      <trkpt lat="42.69125" lon="1.39658">
        <ele>2238.352</ele>
        <time>2024-08-31T10:32:17Z</time>
      </trkpt>
      <trkpt lat="42.69125" lon="1.39658">
        <ele>2238.334</ele>
        <time>2024-08-31T10:32:19Z</time>
      </trkpt>
      <trkpt lat="42.69125" lon="1.39658">
        <ele>2238.308</ele>
        <time>2024-08-31T10:32:21Z</time>
      </trkpt>
      <trkpt lat="42.69125" lon="1.39658">
        <ele>2238.3</ele>
        <time>2024-08-31T10:32:23Z</time>
      </trkpt>
      <trkpt lat="42.69125" lon="1.39658">
        <ele>2238.298</ele>
        <time>2024-08-31T10:32:25Z</time>
      </trkpt>
      <trkpt lat="42.69125" lon="1.39658">
        <ele>2238.297</ele>
        <time>2024-08-31T10:32:27Z</time>
      </trkpt>
      <trkpt lat="42.69125" lon="1.39658">
        <ele>2238.291</ele>
        <time>2024-08-31T10:32:29Z</time>
      </trkpt>
      <trkpt lat="42.69125" lon="1.39658">
        <ele>2238.276</ele>
        <time>2024-08-31T10:32:31Z</time>
      </trkpt>
      <trkpt lat="42.69125" lon="1.39658">
        <ele>2238.288</ele>
        <time>2024-08-31T10:32:33Z</time>
      </trkpt>
      <trkpt lat="42.69125" lon="1.39658">
        <ele>2238.296</ele>
        <time>2024-08-31T10:32:35Z</time>
      </trkpt>
      <trkpt lat="42.69125" lon="1.39658">
        <ele>2238.292</ele>
        <time>2024-08-31T10:32:37Z</time>
      </trkpt>
      <trkpt lat="42.69125" lon="1.39658">
        <ele>2238.287</ele>
        <time>2024-08-31T10:32:39Z</time>
      </trkpt>
      <trkpt lat="42.69125" lon="1.39658">
        <ele>2238.284</ele>
        <time>2024-08-31T10:32:41Z</time>
      </trkpt>
      <trkpt lat="42.69125" lon="1.39658">
        <ele>2238.3</ele>
        <time>2024-08-31T10:32:43Z</time>
      </trkpt>
      <trkpt lat="42.69125" lon="1.39658">
        <ele>2238.309</ele>
        <time>2024-08-31T10:32:45Z</time>
      </trkpt>
      <trkpt lat="42.69125" lon="1.39658">
        <ele>2238.316</ele>
        <time>2024-08-31T10:32:47Z</time>
      </trkpt>
      <trkpt lat="42.69125" lon="1.39658">
        <ele>2238.315</ele>
        <time>2024-08-31T10:32:49Z</time>
      </trkpt>
      <trkpt lat="42.69125" lon="1.39658">
        <ele>2238.318</ele>
        <time>2024-08-31T10:32:51Z</time>
      </trkpt>
      <trkpt lat="42.69125" lon="1.39658">
        <ele>2238.329</ele>
        <time>2024-08-31T10:32:53Z</time>
      </trkpt>
      <trkpt lat="42.69125" lon="1.39658">
        <ele>2238.344</ele>
        <time>2024-08-31T10:32:55Z</time>
      </trkpt>
      <trkpt lat="42.69125" lon="1.39658">
        <ele>2238.355</ele>
        <time>2024-08-31T10:32:57Z</time>
      </trkpt>
      <trkpt lat="42.69125" lon="1.39658">
        <ele>2238.359</ele>
        <time>2024-08-31T10:32:59Z</time>
      </trkpt>
      <trkpt lat="42.69125" lon="1.39658">
        <ele>2238.354</ele>
        <time>2024-08-31T10:33:01Z</time>
      </trkpt>
      <trkpt lat="42.69125" lon="1.39658">
        <ele>2238.351</ele>
        <time>2024-08-31T10:33:03Z</time>
      </trkpt>
      <trkpt lat="42.69125" lon="1.39658">
        <ele>2238.351</ele>
        <time>2024-08-31T10:33:05Z</time>
      </trkpt>
      <trkpt lat="42.69125" lon="1.39658">
        <ele>2238.369</ele>
        <time>2024-08-31T10:33:07Z</time>
      </trkpt>
      <trkpt lat="42.69125" lon="1.39658">
        <ele>2238.385</ele>
        <time>2024-08-31T10:33:09Z</time>
      </trkpt>
      <trkpt lat="42.69125" lon="1.39658">
        <ele>2238.388</ele>
        <time>2024-08-31T10:33:11Z</time>
      </trkpt>
      <trkpt lat="42.69125" lon="1.39658">
        <ele>2238.389</ele>
        <time>2024-08-31T10:33:13Z</time>
      </trkpt>
      <trkpt lat="42.69125" lon="1.39658">
        <ele>2238.39</ele>
        <time>2024-08-31T10:33:15Z</time>
      </trkpt>
      <trkpt lat="42.69125" lon="1.39658">
        <ele>2238.398</ele>
        <time>2024-08-31T10:33:17Z</time>
      </trkpt>
      <trkpt lat="42.69125" lon="1.39658">
        <ele>2238.404</ele>
        <time>2024-08-31T10:33:19Z</time>
      </trkpt>
      <trkpt lat="42.69125" lon="1.39658">
        <ele>2238.4</ele>
        <time>2024-08-31T10:33:21Z</time>
      </trkpt>
      <trkpt lat="42.69125" lon="1.39658">
        <ele>2238.405</ele>
        <time>2024-08-31T10:33:23Z</time>
      </trkpt>
      <trkpt lat="42.69125" lon="1.39658">
        <ele>2238.411</ele>
        <time>2024-08-31T10:33:25Z</time>
      </trkpt>
      <trkpt lat="42.69125" lon="1.39658">
        <ele>2238.415</ele>
        <time>2024-08-31T10:33:27Z</time>
      </trkpt>
      <trkpt lat="42.69125" lon="1.39658">
        <ele>2238.413</ele>
        <time>2024-08-31T10:33:29Z</time>
      </trkpt>
      <trkpt lat="42.69125" lon="1.39658">
        <ele>2238.412</ele>
        <time>2024-08-31T10:33:31Z</time>
      </trkpt>
      <trkpt lat="42.69125" lon="1.39658">
        <ele>2238.414</ele>
        <time>2024-08-31T10:33:33Z</time>
      </trkpt>
      <trkpt lat="42.69125" lon="1.39658">
        <ele>2238.418</ele>
        <time>2024-08-31T10:33:35Z</time>
      </trkpt>
      <trkpt lat="42.69125" lon="1.39658">
        <ele>2238.426</ele>
        <time>2024-08-31T10:33:37Z</time>
      </trkpt>
      <trkpt lat="42.69125" lon="1.39658">
        <ele>2238.426</ele>
        <time>2024-08-31T10:33:39Z</time>
      </trkpt>
      <trkpt lat="42.69125" lon="1.39658">
        <ele>2238.43</ele>
        <time>2024-08-31T10:33:41Z</time>
      </trkpt>
      <trkpt lat="42.69125" lon="1.39658">
        <ele>2238.427</ele>
        <time>2024-08-31T10:33:43Z</time>
      </trkpt>
      <trkpt lat="42.69125" lon="1.39658">
        <ele>2238.416</ele>
        <time>2024-08-31T10:33:45Z</time>
      </trkpt>
      <trkpt lat="42.69125" lon="1.39658">
        <ele>2238.419</ele>
        <time>2024-08-31T10:33:47Z</time>
      </trkpt>
      <trkpt lat="42.69125" lon="1.39658">
        <ele>2238.432</ele>
        <time>2024-08-31T10:33:49Z</time>
      </trkpt>
      <trkpt lat="42.69125" lon="1.39658">
        <ele>2238.438</ele>
        <time>2024-08-31T10:33:51Z</time>
      </trkpt>
      <trkpt lat="42.69125" lon="1.39658">
        <ele>2238.43</ele>
        <time>2024-08-31T10:33:53Z</time>
      </trkpt>
      <trkpt lat="42.69125" lon="1.39658">
        <ele>2238.43</ele>
        <time>2024-08-31T10:33:55Z</time>
      </trkpt>
      <trkpt lat="42.69125" lon="1.39658">
        <ele>2238.423</ele>
        <time>2024-08-31T10:33:57Z</time>
      </trkpt>
      <trkpt lat="42.69125" lon="1.39658">
        <ele>2238.429</ele>
        <time>2024-08-31T10:33:59Z</time>
      </trkpt>
      <trkpt lat="42.69125" lon="1.39658">
        <ele>2238.449</ele>
        <time>2024-08-31T10:34:01Z</time>
      </trkpt>
      <trkpt lat="42.69125" lon="1.39658">
        <ele>2238.453</ele>
        <time>2024-08-31T10:34:03Z</time>
      </trkpt>
      <trkpt lat="42.69125" lon="1.39658">
        <ele>2238.46</ele>
        <time>2024-08-31T10:34:05Z</time>
      </trkpt>
      <trkpt lat="42.69125" lon="1.39658">
        <ele>2238.472</ele>
        <time>2024-08-31T10:34:07Z</time>
      </trkpt>
      <trkpt lat="42.69125" lon="1.39658">
        <ele>2238.469</ele>
        <time>2024-08-31T10:34:09Z</time>
      </trkpt>
      <trkpt lat="42.69125" lon="1.39658">
        <ele>2238.469</ele>
        <time>2024-08-31T10:34:11Z</time>
      </trkpt>
      <trkpt lat="42.69125" lon="1.39658">
        <ele>2238.472</ele>
        <time>2024-08-31T10:34:13Z</time>
      </trkpt>
      <trkpt lat="42.69125" lon="1.39658">
        <ele>2238.49</ele>
        <time>2024-08-31T10:34:15Z</time>
      </trkpt>
      <trkpt lat="42.69125" lon="1.39658">
        <ele>2238.501</ele>
        <time>2024-08-31T10:34:17Z</time>
      </trkpt>
      <trkpt lat="42.69125" lon="1.39658">
        <ele>2238.507</ele>
        <time>2024-08-31T10:34:19Z</time>
      </trkpt>
      <trkpt lat="42.69125" lon="1.39658">
        <ele>2238.513</ele>
        <time>2024-08-31T10:34:21Z</time>
      </trkpt>
      <trkpt lat="42.69125" lon="1.39658">
        <ele>2238.507</ele>
        <time>2024-08-31T10:34:23Z</time>
      </trkpt>
      <trkpt lat="42.69125" lon="1.39658">
        <ele>2238.492</ele>
        <time>2024-08-31T10:34:25Z</time>
      </trkpt>
      <trkpt lat="42.69125" lon="1.39658">
        <ele>2238.482</ele>
        <time>2024-08-31T10:34:27Z</time>
      </trkpt>
      <trkpt lat="42.69125" lon="1.39658">
        <ele>2238.487</ele>
        <time>2024-08-31T10:34:29Z</time>
      </trkpt>
      <trkpt lat="42.69125" lon="1.39658">
        <ele>2238.494</ele>
        <time>2024-08-31T10:34:31Z</time>
      </trkpt>
      <trkpt lat="42.69125" lon="1.39658">
        <ele>2238.501</ele>
        <time>2024-08-31T10:34:33Z</time>
      </trkpt>
      <trkpt lat="42.69125" lon="1.39658">
        <ele>2238.509</ele>
        <time>2024-08-31T10:34:35Z</time>
      </trkpt>
      <trkpt lat="42.69125" lon="1.39658">
        <ele>2238.504</ele>
        <time>2024-08-31T10:34:37Z</time>
      </trkpt>
      <trkpt lat="42.69125" lon="1.39658">
        <ele>2238.504</ele>
        <time>2024-08-31T10:34:39Z</time>
      </trkpt>
      <trkpt lat="42.69125" lon="1.39658">
        <ele>2238.518</ele>
        <time>2024-08-31T10:34:41Z</time>
      </trkpt>
      <trkpt lat="42.69125" lon="1.39658">
        <ele>2238.52</ele>
        <time>2024-08-31T10:34:43Z</time>
      </trkpt>
      <trkpt lat="42.69125" lon="1.39658">
        <ele>2238.515</ele>
        <time>2024-08-31T10:34:45Z</time>
      </trkpt>
      <trkpt lat="42.69125" lon="1.39658">
        <ele>2238.512</ele>
        <time>2024-08-31T10:34:47Z</time>
      </trkpt>
      <trkpt lat="42.69125" lon="1.39658">
        <ele>2238.501</ele>
        <time>2024-08-31T10:34:49Z</time>
      </trkpt>
      <trkpt lat="42.69125" lon="1.39658">
        <ele>2238.502</ele>
        <time>2024-08-31T10:34:51Z</time>
      </trkpt>
      <trkpt lat="42.69125" lon="1.39658">
        <ele>2238.496</ele>
        <time>2024-08-31T10:34:53Z</time>
      </trkpt>
      <trkpt lat="42.69125" lon="1.39658">
        <ele>2238.491</ele>
        <time>2024-08-31T10:34:55Z</time>
      </trkpt>
      <trkpt lat="42.69125" lon="1.39658">
        <ele>2238.497</ele>
        <time>2024-08-31T10:34:57Z</time>
      </trkpt>
      <trkpt lat="42.69125" lon="1.39658">
        <ele>2238.511</ele>
        <time>2024-08-31T10:34:59Z</time>
      </trkpt>
      <trkpt lat="42.69125" lon="1.39658">
        <ele>2238.525</ele>
        <time>2024-08-31T10:35:01Z</time>
      </trkpt>
      <trkpt lat="42.69125" lon="1.39658">
        <ele>2238.542</ele>
        <time>2024-08-31T10:35:03Z</time>
      </trkpt>
      <trkpt lat="42.69125" lon="1.39658">
        <ele>2238.559</ele>
        <time>2024-08-31T10:35:05Z</time>
      </trkpt>
      <trkpt lat="42.69125" lon="1.39658">
        <ele>2238.57</ele>
        <time>2024-08-31T10:35:07Z</time>
      </trkpt>
      <trkpt lat="42.69125" lon="1.39658">
        <ele>2238.572</ele>
        <time>2024-08-31T10:35:09Z</time>
      </trkpt>
      <trkpt lat="42.69125" lon="1.39658">
        <ele>2238.568</ele>
        <time>2024-08-31T10:35:11Z</time>
      </trkpt>
      <trkpt lat="42.69125" lon="1.39658">
        <ele>2238.571</ele>
        <time>2024-08-31T10:35:13Z</time>
      </trkpt>
      <trkpt lat="42.69125" lon="1.39658">
        <ele>2238.582</ele>
        <time>2024-08-31T10:35:15Z</time>
      </trkpt>
      <trkpt lat="42.69125" lon="1.39658">
        <ele>2238.597</ele>
        <time>2024-08-31T10:35:17Z</time>
      </trkpt>
      <trkpt lat="42.69125" lon="1.39658">
        <ele>2238.607</ele>
        <time>2024-08-31T10:35:19Z</time>
      </trkpt>
      <trkpt lat="42.69125" lon="1.39658">
        <ele>2238.609</ele>
        <time>2024-08-31T10:35:21Z</time>
      </trkpt>
      <trkpt lat="42.69125" lon="1.39658">
        <ele>2238.607</ele>
        <time>2024-08-31T10:35:23Z</time>
      </trkpt>
      <trkpt lat="42.69125" lon="1.39658">
        <ele>2238.614</ele>
        <time>2024-08-31T10:35:25Z</time>
      </trkpt>
      <trkpt lat="42.69125" lon="1.39658">
        <ele>2238.635</ele>
        <time>2024-08-31T10:35:27Z</time>
      </trkpt>
      <trkpt lat="42.69125" lon="1.39658">
        <ele>2238.65</ele>
        <time>2024-08-31T10:35:29Z</time>
      </trkpt>
      <trkpt lat="42.69125" lon="1.39658">
        <ele>2238.659</ele>
        <time>2024-08-31T10:35:31Z</time>
      </trkpt>
      <trkpt lat="42.69125" lon="1.39658">
        <ele>2238.657</ele>
        <time>2024-08-31T10:35:33Z</time>
      </trkpt>
      <trkpt lat="42.69125" lon="1.39658">
        <ele>2238.648</ele>
        <time>2024-08-31T10:35:35Z</time>
      </trkpt>
      <trkpt lat="42.69125" lon="1.39658">
        <ele>2238.649</ele>
        <time>2024-08-31T10:35:37Z</time>
      </trkpt>
      <trkpt lat="42.69125" lon="1.39658">
        <ele>2238.668</ele>
        <time>2024-08-31T10:35:39Z</time>
      </trkpt>
      <trkpt lat="42.69125" lon="1.39658">
        <ele>2238.664</ele>
        <time>2024-08-31T10:35:41Z</time>
      </trkpt>
      <trkpt lat="42.69125" lon="1.39658">
        <ele>2238.663</ele>
        <time>2024-08-31T10:35:43Z</time>
      </trkpt>
      <trkpt lat="42.69125" lon="1.39658">
        <ele>2238.673</ele>
        <time>2024-08-31T10:35:45Z</time>
      </trkpt>
      <trkpt lat="42.69125" lon="1.39658">
        <ele>2238.676</ele>
        <time>2024-08-31T10:35:47Z</time>
      </trkpt>
      <trkpt lat="42.69125" lon="1.39658">
        <ele>2238.684</ele>
        <time>2024-08-31T10:35:49Z</time>
      </trkpt>
      <trkpt lat="42.69125" lon="1.39658">
        <ele>2238.674</ele>
        <time>2024-08-31T10:35:51Z</time>
      </trkpt>
      <trkpt lat="42.69125" lon="1.39658">
        <ele>2238.671</ele>
        <time>2024-08-31T10:35:53Z</time>
      </trkpt>
      <trkpt lat="42.69125" lon="1.39658">
        <ele>2238.678</ele>
        <time>2024-08-31T10:35:55Z</time>
      </trkpt>
      <trkpt lat="42.69125" lon="1.39658">
        <ele>2238.686</ele>
        <time>2024-08-31T10:35:57Z</time>
      </trkpt>
      <trkpt lat="42.69125" lon="1.39658">
        <ele>2238.692</ele>
        <time>2024-08-31T10:35:59Z</time>
      </trkpt>
      <trkpt lat="42.69125" lon="1.39658">
        <ele>2238.696</ele>
        <time>2024-08-31T10:36:01Z</time>
      </trkpt>
      <trkpt lat="42.69125" lon="1.39658">
        <ele>2238.704</ele>
        <time>2024-08-31T10:36:03Z</time>
      </trkpt>
      <trkpt lat="42.69125" lon="1.39658">
        <ele>2238.7</ele>
        <time>2024-08-31T10:36:05Z</time>
      </trkpt>
      <trkpt lat="42.69125" lon="1.39658">
        <ele>2238.696</ele>
        <time>2024-08-31T10:36:07Z</time>
      </trkpt>
      <trkpt lat="42.69125" lon="1.39658">
        <ele>2238.697</ele>
        <time>2024-08-31T10:36:09Z</time>
      </trkpt>
      <trkpt lat="42.69125" lon="1.39658">
        <ele>2238.705</ele>
        <time>2024-08-31T10:36:11Z</time>
      </trkpt>
      <trkpt lat="42.69125" lon="1.39658">
        <ele>2238.71</ele>
        <time>2024-08-31T10:36:13Z</time>
      </trkpt>
      <trkpt lat="42.69125" lon="1.39658">
        <ele>2238.702</ele>
        <time>2024-08-31T10:36:15Z</time>
      </trkpt>
      <trkpt lat="42.69125" lon="1.39658">
        <ele>2238.703</ele>
        <time>2024-08-31T10:36:17Z</time>
      </trkpt>
      <trkpt lat="42.69125" lon="1.39658">
        <ele>2238.707</ele>
        <time>2024-08-31T10:36:19Z</time>
      </trkpt>
      <trkpt lat="42.69125" lon="1.39658">
        <ele>2238.708</ele>
        <time>2024-08-31T10:36:21Z</time>
      </trkpt>
      <trkpt lat="42.69125" lon="1.39658">
        <ele>2238.693</ele>
        <time>2024-08-31T10:36:23Z</time>
      </trkpt>
      <trkpt lat="42.69125" lon="1.39658">
        <ele>2238.688</ele>
        <time>2024-08-31T10:36:25Z</time>
      </trkpt>
      <trkpt lat="42.69125" lon="1.39658">
        <ele>2238.689</ele>
        <time>2024-08-31T10:36:27Z</time>
      </trkpt>
      <trkpt lat="42.69125" lon="1.39658">
        <ele>2238.692</ele>
        <time>2024-08-31T10:36:29Z</time>
      </trkpt>
      <trkpt lat="42.69125" lon="1.39658">
        <ele>2238.69</ele>
        <time>2024-08-31T10:36:31Z</time>
      </trkpt>
      <trkpt lat="42.69125" lon="1.39658">
        <ele>2238.69</ele>
        <time>2024-08-31T10:36:33Z</time>
      </trkpt>
      <trkpt lat="42.69125" lon="1.39658">
        <ele>2238.688</ele>
        <time>2024-08-31T10:36:35Z</time>
      </trkpt>
      <trkpt lat="42.69125" lon="1.39658">
        <ele>2238.689</ele>
        <time>2024-08-31T10:36:37Z</time>
      </trkpt>
      <trkpt lat="42.69125" lon="1.39658">
        <ele>2238.701</ele>
        <time>2024-08-31T10:36:39Z</time>
      </trkpt>
      <trkpt lat="42.69125" lon="1.39658">
        <ele>2238.702</ele>
        <time>2024-08-31T10:36:41Z</time>
      </trkpt>
      <trkpt lat="42.69125" lon="1.39658">
        <ele>2238.715</ele>
        <time>2024-08-31T10:36:43Z</time>
      </trkpt>
      <trkpt lat="42.69125" lon="1.39658">
        <ele>2238.727</ele>
        <time>2024-08-31T10:36:45Z</time>
      </trkpt>
      <trkpt lat="42.69125" lon="1.39658">
        <ele>2238.733</ele>
        <time>2024-08-31T10:36:47Z</time>
      </trkpt>
      <trkpt lat="42.69125" lon="1.39658">
        <ele>2238.731</ele>
        <time>2024-08-31T10:36:49Z</time>
      </trkpt>
      <trkpt lat="42.69125" lon="1.39658">
        <ele>2238.73</ele>
        <time>2024-08-31T10:36:51Z</time>
      </trkpt>
      <trkpt lat="42.69125" lon="1.39658">
        <ele>2238.73</ele>
        <time>2024-08-31T10:36:53Z</time>
      </trkpt>
      <trkpt lat="42.69125" lon="1.39658">
        <ele>2238.737</ele>
        <time>2024-08-31T10:36:55Z</time>
      </trkpt>
      <trkpt lat="42.69125" lon="1.39658">
        <ele>2238.748</ele>
        <time>2024-08-31T10:36:57Z</time>
      </trkpt>
      <trkpt lat="42.69125" lon="1.39658">
        <ele>2238.759</ele>
        <time>2024-08-31T10:36:59Z</time>
      </trkpt>
      <trkpt lat="42.69125" lon="1.39658">
        <ele>2238.768</ele>
        <time>2024-08-31T10:37:01Z</time>
      </trkpt>
      <trkpt lat="42.69125" lon="1.39658">
        <ele>2238.769</ele>
        <time>2024-08-31T10:37:03Z</time>
      </trkpt>
      <trkpt lat="42.69125" lon="1.39658">
        <ele>2238.768</ele>
        <time>2024-08-31T10:37:05Z</time>
      </trkpt>
      <trkpt lat="42.69125" lon="1.39658">
        <ele>2238.771</ele>
        <time>2024-08-31T10:37:07Z</time>
      </trkpt>
      <trkpt lat="42.69125" lon="1.39658">
        <ele>2238.785</ele>
        <time>2024-08-31T10:37:09Z</time>
      </trkpt>
      <trkpt lat="42.69125" lon="1.39658">
        <ele>2238.783</ele>
        <time>2024-08-31T10:37:11Z</time>
      </trkpt>
      <trkpt lat="42.69125" lon="1.39658">
        <ele>2238.777</ele>
        <time>2024-08-31T10:37:13Z</time>
      </trkpt>
      <trkpt lat="42.69125" lon="1.39658">
        <ele>2238.773</ele>
        <time>2024-08-31T10:37:15Z</time>
      </trkpt>
      <trkpt lat="42.69125" lon="1.39658">
        <ele>2238.775</ele>
        <time>2024-08-31T10:37:17Z</time>
      </trkpt>
      <trkpt lat="42.69125" lon="1.39658">
        <ele>2238.774</ele>
        <time>2024-08-31T10:37:19Z</time>
      </trkpt>
      <trkpt lat="42.69125" lon="1.39658">
        <ele>2238.772</ele>
        <time>2024-08-31T10:37:21Z</time>
      </trkpt>
      <trkpt lat="42.69125" lon="1.39658">
        <ele>2238.775</ele>
        <time>2024-08-31T10:37:23Z</time>
      </trkpt>
      <trkpt lat="42.69125" lon="1.39658">
        <ele>2238.781</ele>
        <time>2024-08-31T10:37:25Z</time>
      </trkpt>
      <trkpt lat="42.69125" lon="1.39658">
        <ele>2238.778</ele>
        <time>2024-08-31T10:37:27Z</time>
      </trkpt>
      <trkpt lat="42.69125" lon="1.39658">
        <ele>2238.77</ele>
        <time>2024-08-31T10:37:29Z</time>
      </trkpt>
      <trkpt lat="42.69125" lon="1.39658">
        <ele>2238.757</ele>
        <time>2024-08-31T10:37:31Z</time>
      </trkpt>
      <trkpt lat="42.69125" lon="1.39658">
        <ele>2238.75</ele>
        <time>2024-08-31T10:37:33Z</time>
      </trkpt>
      <trkpt lat="42.69125" lon="1.39658">
        <ele>2238.742</ele>
        <time>2024-08-31T10:37:35Z</time>
      </trkpt>
      <trkpt lat="42.69125" lon="1.39658">
        <ele>2238.742</ele>
        <time>2024-08-31T10:37:37Z</time>
      </trkpt>
      <trkpt lat="42.69125" lon="1.39658">
        <ele>2238.749</ele>
        <time>2024-08-31T10:37:39Z</time>
      </trkpt>
      <trkpt lat="42.69125" lon="1.39658">
        <ele>2238.749</ele>
        <time>2024-08-31T10:37:41Z</time>
      </trkpt>
      <trkpt lat="42.69125" lon="1.39658">
        <ele>2238.748</ele>
        <time>2024-08-31T10:37:43Z</time>
      </trkpt>
      <trkpt lat="42.69125" lon="1.39658">
        <ele>2238.75</ele>
        <time>2024-08-31T10:37:45Z</time>
      </trkpt>
      <trkpt lat="42.69125" lon="1.39658">
        <ele>2238.753</ele>
        <time>2024-08-31T10:37:47Z</time>
      </trkpt>
      <trkpt lat="42.69125" lon="1.39658">
        <ele>2238.762</ele>
        <time>2024-08-31T10:37:49Z</time>
      </trkpt>
      <trkpt lat="42.69125" lon="1.39658">
        <ele>2238.754</ele>
        <time>2024-08-31T10:37:51Z</time>
      </trkpt>
      <trkpt lat="42.69125" lon="1.39658">
        <ele>2238.749</ele>
        <time>2024-08-31T10:37:53Z</time>
      </trkpt>
      <trkpt lat="42.69125" lon="1.39658">
        <ele>2238.753</ele>
        <time>2024-08-31T10:37:55Z</time>
      </trkpt>
      <trkpt lat="42.69125" lon="1.39658">
        <ele>2238.75</ele>
        <time>2024-08-31T10:37:57Z</time>
      </trkpt>
      <trkpt lat="42.69125" lon="1.39658">
        <ele>2238.576</ele>
        <time>2024-08-31T10:37:59Z</time>
      </trkpt>
      <trkpt lat="42.69125" lon="1.39658">
        <ele>2238.575</ele>
        <time>2024-08-31T10:38:01Z</time>
      </trkpt>
      <trkpt lat="42.69125" lon="1.39658">
        <ele>2238.575</ele>
        <time>2024-08-31T10:38:03Z</time>
      </trkpt>
      <trkpt lat="42.69125" lon="1.39658">
        <ele>2238.575</ele>
        <time>2024-08-31T10:38:05Z</time>
      </trkpt>
      <trkpt lat="42.69125" lon="1.39658">
        <ele>2238.585</ele>
        <time>2024-08-31T10:38:07Z</time>
      </trkpt>
      <trkpt lat="42.69125" lon="1.39658">
        <ele>2238.586</ele>
        <time>2024-08-31T10:38:09Z</time>
      </trkpt>
      <trkpt lat="42.69125" lon="1.39658">
        <ele>2238.588</ele>
        <time>2024-08-31T10:38:11Z</time>
      </trkpt>
      <trkpt lat="42.69125" lon="1.39658">
        <ele>2238.599</ele>
        <time>2024-08-31T10:38:13Z</time>
      </trkpt>
      <trkpt lat="42.69125" lon="1.39658">
        <ele>2238.606</ele>
        <time>2024-08-31T10:38:15Z</time>
      </trkpt>
      <trkpt lat="42.69125" lon="1.39658">
        <ele>2238.606</ele>
        <time>2024-08-31T10:38:17Z</time>
      </trkpt>
      <trkpt lat="42.69125" lon="1.39658">
        <ele>2238.607</ele>
        <time>2024-08-31T10:38:19Z</time>
      </trkpt>
      <trkpt lat="42.69125" lon="1.39658">
        <ele>2238.611</ele>
        <time>2024-08-31T10:38:21Z</time>
      </trkpt>
      <trkpt lat="42.69125" lon="1.39658">
        <ele>2238.608</ele>
        <time>2024-08-31T10:38:23Z</time>
      </trkpt>
      <trkpt lat="42.69125" lon="1.39658">
        <ele>2238.609</ele>
        <time>2024-08-31T10:38:25Z</time>
      </trkpt>
      <trkpt lat="42.69125" lon="1.39658">
        <ele>2238.61</ele>
        <time>2024-08-31T10:38:27Z</time>
      </trkpt>
      <trkpt lat="42.69125" lon="1.39658">
        <ele>2238.612</ele>
        <time>2024-08-31T10:38:29Z</time>
      </trkpt>
      <trkpt lat="42.69125" lon="1.39658">
        <ele>2238.606</ele>
        <time>2024-08-31T10:38:31Z</time>
      </trkpt>
      <trkpt lat="42.69125" lon="1.39658">
        <ele>2238.604</ele>
        <time>2024-08-31T10:38:33Z</time>
      </trkpt>
      <trkpt lat="42.69125" lon="1.39658">
        <ele>2238.603</ele>
        <time>2024-08-31T10:38:35Z</time>
      </trkpt>
      <trkpt lat="42.69125" lon="1.39658">
        <ele>2238.606</ele>
        <time>2024-08-31T10:38:37Z</time>
      </trkpt>
      <trkpt lat="42.69125" lon="1.39658">
        <ele>2238.607</ele>
        <time>2024-08-31T10:38:39Z</time>
      </trkpt>
      <trkpt lat="42.69125" lon="1.39658">
        <ele>2238.612</ele>
        <time>2024-08-31T10:38:41Z</time>
      </trkpt>
      <trkpt lat="42.69125" lon="1.39658">
        <ele>2238.62</ele>
        <time>2024-08-31T10:38:43Z</time>
      </trkpt>
      <trkpt lat="42.69125" lon="1.39658">
        <ele>2238.618</ele>
        <time>2024-08-31T10:38:45Z</time>
      </trkpt>
      <trkpt lat="42.69125" lon="1.39658">
        <ele>2238.621</ele>
        <time>2024-08-31T10:38:47Z</time>
      </trkpt>
      <trkpt lat="42.69125" lon="1.39658">
        <ele>2238.627</ele>
        <time>2024-08-31T10:38:49Z</time>
      </trkpt>
      <trkpt lat="42.69125" lon="1.39658">
        <ele>2238.631</ele>
        <time>2024-08-31T10:38:51Z</time>
      </trkpt>
      <trkpt lat="42.69125" lon="1.39658">
        <ele>2238.64</ele>
        <time>2024-08-31T10:38:53Z</time>
      </trkpt>
      <trkpt lat="42.69125" lon="1.39658">
        <ele>2238.63</ele>
        <time>2024-08-31T10:38:55Z</time>
      </trkpt>
      <trkpt lat="42.69125" lon="1.39658">
        <ele>2238.635</ele>
        <time>2024-08-31T10:38:57Z</time>
      </trkpt>
      <trkpt lat="42.69125" lon="1.39658">
        <ele>2238.644</ele>
        <time>2024-08-31T10:38:59Z</time>
      </trkpt>
      <trkpt lat="42.69125" lon="1.39658">
        <ele>2238.649</ele>
        <time>2024-08-31T10:39:01Z</time>
      </trkpt>
      <trkpt lat="42.69125" lon="1.39658">
        <ele>2238.659</ele>
        <time>2024-08-31T10:39:03Z</time>
      </trkpt>
      <trkpt lat="42.69125" lon="1.39658">
        <ele>2238.662</ele>
        <time>2024-08-31T10:39:05Z</time>
      </trkpt>
      <trkpt lat="42.69125" lon="1.39658">
        <ele>2238.662</ele>
        <time>2024-08-31T10:39:07Z</time>
      </trkpt>
      <trkpt lat="42.69125" lon="1.39658">
        <ele>2238.664</ele>
        <time>2024-08-31T10:39:09Z</time>
      </trkpt>
      <trkpt lat="42.69125" lon="1.39658">
        <ele>2238.664</ele>
        <time>2024-08-31T10:39:11Z</time>
      </trkpt>
      <trkpt lat="42.69125" lon="1.39658">
        <ele>2238.663</ele>
        <time>2024-08-31T10:39:13Z</time>
      </trkpt>
      <trkpt lat="42.69125" lon="1.39658">
        <ele>2238.666</ele>
        <time>2024-08-31T10:39:15Z</time>
      </trkpt>
      <trkpt lat="42.69125" lon="1.39658">
        <ele>2238.665</ele>
        <time>2024-08-31T10:39:17Z</time>
      </trkpt>
      <trkpt lat="42.69125" lon="1.39658">
        <ele>2238.665</ele>
        <time>2024-08-31T10:39:19Z</time>
      </trkpt>
      <trkpt lat="42.69125" lon="1.39658">
        <ele>2238.669</ele>
        <time>2024-08-31T10:39:21Z</time>
      </trkpt>
      <trkpt lat="42.69125" lon="1.39658">
        <ele>2238.671</ele>
        <time>2024-08-31T10:39:23Z</time>
      </trkpt>
      <trkpt lat="42.69125" lon="1.39658">
        <ele>2238.668</ele>
        <time>2024-08-31T10:39:25Z</time>
      </trkpt>
      <trkpt lat="42.69125" lon="1.39658">
        <ele>2238.665</ele>
        <time>2024-08-31T10:39:27Z</time>
      </trkpt>
      <trkpt lat="42.69125" lon="1.39658">
        <ele>2238.664</ele>
        <time>2024-08-31T10:39:29Z</time>
      </trkpt>
      <trkpt lat="42.69125" lon="1.39658">
        <ele>2238.667</ele>
        <time>2024-08-31T10:39:31Z</time>
      </trkpt>
      <trkpt lat="42.69125" lon="1.39658">
        <ele>2238.669</ele>
        <time>2024-08-31T10:39:33Z</time>
      </trkpt>
      <trkpt lat="42.69125" lon="1.39658">
        <ele>2238.677</ele>
        <time>2024-08-31T10:39:35Z</time>
      </trkpt>
      <trkpt lat="42.69125" lon="1.39658">
        <ele>2238.68</ele>
        <time>2024-08-31T10:39:37Z</time>
      </trkpt>
      <trkpt lat="42.69125" lon="1.39658">
        <ele>2238.688</ele>
        <time>2024-08-31T10:39:39Z</time>
      </trkpt>
      <trkpt lat="42.69125" lon="1.39658">
        <ele>2238.696</ele>
        <time>2024-08-31T10:39:41Z</time>
      </trkpt>
      <trkpt lat="42.69125" lon="1.39658">
        <ele>2238.694</ele>
        <time>2024-08-31T10:39:43Z</time>
      </trkpt>
      <trkpt lat="42.69125" lon="1.39658">
        <ele>2238.692</ele>
        <time>2024-08-31T10:39:45Z</time>
      </trkpt>
      <trkpt lat="42.69125" lon="1.39658">
        <ele>2238.687</ele>
        <time>2024-08-31T10:39:47Z</time>
      </trkpt>
      <trkpt lat="42.69125" lon="1.39658">
        <ele>2238.681</ele>
        <time>2024-08-31T10:39:49Z</time>
      </trkpt>
      <trkpt lat="42.69125" lon="1.39658">
        <ele>2238.679</ele>
        <time>2024-08-31T10:39:51Z</time>
      </trkpt>
      <trkpt lat="42.69125" lon="1.39658">
        <ele>2238.674</ele>
        <time>2024-08-31T10:39:53Z</time>
      </trkpt>
      <trkpt lat="42.69125" lon="1.39658">
        <ele>2238.675</ele>
        <time>2024-08-31T10:39:55Z</time>
      </trkpt>
      <trkpt lat="42.69125" lon="1.39658">
        <ele>2238.681</ele>
        <time>2024-08-31T10:39:57Z</time>
      </trkpt>
      <trkpt lat="42.69125" lon="1.39658">
        <ele>2238.689</ele>
        <time>2024-08-31T10:39:59Z</time>
      </trkpt>
      <trkpt lat="42.69125" lon="1.39658">
        <ele>2238.688</ele>
        <time>2024-08-31T10:40:01Z</time>
      </trkpt>
      <trkpt lat="42.69125" lon="1.39658">
        <ele>2238.684</ele>
        <time>2024-08-31T10:40:03Z</time>
      </trkpt>
      <trkpt lat="42.69125" lon="1.39658">
        <ele>2238.683</ele>
        <time>2024-08-31T10:40:05Z</time>
      </trkpt>
      <trkpt lat="42.69125" lon="1.39658">
        <ele>2238.686</ele>
        <time>2024-08-31T10:40:07Z</time>
      </trkpt>
      <trkpt lat="42.69125" lon="1.39658">
        <ele>2238.689</ele>
        <time>2024-08-31T10:40:09Z</time>
      </trkpt>
      <trkpt lat="42.69125" lon="1.39658">
        <ele>2238.686</ele>
        <time>2024-08-31T10:40:11Z</time>
      </trkpt>
      <trkpt lat="42.69125" lon="1.39658">
        <ele>2238.684</ele>
        <time>2024-08-31T10:40:13Z</time>
      </trkpt>
      <trkpt lat="42.69125" lon="1.39658">
        <ele>2238.691</ele>
        <time>2024-08-31T10:40:15Z</time>
      </trkpt>
      <trkpt lat="42.69125" lon="1.39658">
        <ele>2238.69</ele>
        <time>2024-08-31T10:40:17Z</time>
      </trkpt>
      <trkpt lat="42.69125" lon="1.39658">
        <ele>2238.687</ele>
        <time>2024-08-31T10:40:19Z</time>
      </trkpt>
      <trkpt lat="42.69125" lon="1.39658">
        <ele>2238.69</ele>
        <time>2024-08-31T10:40:21Z</time>
      </trkpt>
      <trkpt lat="42.69125" lon="1.39658">
        <ele>2238.693</ele>
        <time>2024-08-31T10:40:23Z</time>
      </trkpt>
      <trkpt lat="42.69125" lon="1.39658">
        <ele>2238.697</ele>
        <time>2024-08-31T10:40:25Z</time>
      </trkpt>
      <trkpt lat="42.69125" lon="1.39658">
        <ele>2238.702</ele>
        <time>2024-08-31T10:40:27Z</time>
      </trkpt>
      <trkpt lat="42.69125" lon="1.39658">
        <ele>2238.702</ele>
        <time>2024-08-31T10:40:29Z</time>
      </trkpt>
      <trkpt lat="42.69125" lon="1.39658">
        <ele>2238.705</ele>
        <time>2024-08-31T10:40:31Z</time>
      </trkpt>
      <trkpt lat="42.69125" lon="1.39658">
        <ele>2238.701</ele>
        <time>2024-08-31T10:40:33Z</time>
      </trkpt>
      <trkpt lat="42.69125" lon="1.39658">
        <ele>2238.697</ele>
        <time>2024-08-31T10:40:35Z</time>
      </trkpt>
      <trkpt lat="42.69125" lon="1.39658">
        <ele>2238.697</ele>
        <time>2024-08-31T10:40:37Z</time>
      </trkpt>
      <trkpt lat="42.69125" lon="1.39658">
        <ele>2238.706</ele>
        <time>2024-08-31T10:40:39Z</time>
      </trkpt>
      <trkpt lat="42.69125" lon="1.39658">
        <ele>2238.713</ele>
        <time>2024-08-31T10:40:41Z</time>
      </trkpt>
      <trkpt lat="42.69125" lon="1.39658">
        <ele>2238.709</ele>
        <time>2024-08-31T10:40:43Z</time>
      </trkpt>
      <trkpt lat="42.69125" lon="1.39658">
        <ele>2238.704</ele>
        <time>2024-08-31T10:40:45Z</time>
      </trkpt>
      <trkpt lat="42.69125" lon="1.39658">
        <ele>2238.708</ele>
        <time>2024-08-31T10:40:47Z</time>
      </trkpt>
      <trkpt lat="42.69125" lon="1.39658">
        <ele>2238.711</ele>
        <time>2024-08-31T10:40:49Z</time>
      </trkpt>
      <trkpt lat="42.69125" lon="1.39658">
        <ele>2238.711</ele>
        <time>2024-08-31T10:40:51Z</time>
      </trkpt>
      <trkpt lat="42.69125" lon="1.39658">
        <ele>2238.714</ele>
        <time>2024-08-31T10:40:53Z</time>
      </trkpt>
      <trkpt lat="42.69125" lon="1.39658">
        <ele>2238.721</ele>
        <time>2024-08-31T10:40:55Z</time>
      </trkpt>
      <trkpt lat="42.69125" lon="1.39658">
        <ele>2238.725</ele>
        <time>2024-08-31T10:40:57Z</time>
      </trkpt>
      <trkpt lat="42.69125" lon="1.39658">
        <ele>2238.733</ele>
        <time>2024-08-31T10:40:59Z</time>
      </trkpt>
      <trkpt lat="42.69125" lon="1.39658">
        <ele>2238.733</ele>
        <time>2024-08-31T10:41:01Z</time>
      </trkpt>
      <trkpt lat="42.69125" lon="1.39658">
        <ele>2238.733</ele>
        <time>2024-08-31T10:41:03Z</time>
      </trkpt>
      <trkpt lat="42.69125" lon="1.39658">
        <ele>2238.735</ele>
        <time>2024-08-31T10:41:05Z</time>
      </trkpt>
      <trkpt lat="42.69125" lon="1.39658">
        <ele>2238.742</ele>
        <time>2024-08-31T10:41:07Z</time>
      </trkpt>
      <trkpt lat="42.69125" lon="1.39658">
        <ele>2238.746</ele>
        <time>2024-08-31T10:41:09Z</time>
      </trkpt>
      <trkpt lat="42.69125" lon="1.39658">
        <ele>2238.748</ele>
        <time>2024-08-31T10:41:11Z</time>
      </trkpt>
      <trkpt lat="42.69125" lon="1.39658">
        <ele>2238.75</ele>
        <time>2024-08-31T10:41:13Z</time>
      </trkpt>
      <trkpt lat="42.69125" lon="1.39658">
        <ele>2238.75</ele>
        <time>2024-08-31T10:41:15Z</time>
      </trkpt>
      <trkpt lat="42.69125" lon="1.39658">
        <ele>2238.747</ele>
        <time>2024-08-31T10:41:17Z</time>
      </trkpt>
      <trkpt lat="42.69125" lon="1.39658">
        <ele>2238.751</ele>
        <time>2024-08-31T10:41:19Z</time>
      </trkpt>
      <trkpt lat="42.69125" lon="1.39658">
        <ele>2238.756</ele>
        <time>2024-08-31T10:41:21Z</time>
      </trkpt>
      <trkpt lat="42.69125" lon="1.39658">
        <ele>2238.765</ele>
        <time>2024-08-31T10:41:23Z</time>
      </trkpt>
      <trkpt lat="42.69125" lon="1.39658">
        <ele>2238.767</ele>
        <time>2024-08-31T10:41:25Z</time>
      </trkpt>
      <trkpt lat="42.69125" lon="1.39658">
        <ele>2238.761</ele>
        <time>2024-08-31T10:41:27Z</time>
      </trkpt>
      <trkpt lat="42.69125" lon="1.39658">
        <ele>2238.758</ele>
        <time>2024-08-31T10:41:29Z</time>
      </trkpt>
      <trkpt lat="42.69125" lon="1.39658">
        <ele>2238.755</ele>
        <time>2024-08-31T10:41:31Z</time>
      </trkpt>
      <trkpt lat="42.69125" lon="1.39658">
        <ele>2238.759</ele>
        <time>2024-08-31T10:41:33Z</time>
      </trkpt>
      <trkpt lat="42.69125" lon="1.39658">
        <ele>2238.76</ele>
        <time>2024-08-31T10:41:35Z</time>
      </trkpt>
      <trkpt lat="42.69125" lon="1.39658">
        <ele>2238.758</ele>
        <time>2024-08-31T10:41:37Z</time>
      </trkpt>
      <trkpt lat="42.69125" lon="1.39658">
        <ele>2238.764</ele>
        <time>2024-08-31T10:41:39Z</time>
      </trkpt>
      <trkpt lat="42.69125" lon="1.39658">
        <ele>2238.765</ele>
        <time>2024-08-31T10:41:41Z</time>
      </trkpt>
      <trkpt lat="42.69125" lon="1.39658">
        <ele>2238.76</ele>
        <time>2024-08-31T10:41:43Z</time>
      </trkpt>
      <trkpt lat="42.69125" lon="1.39658">
        <ele>2238.762</ele>
        <time>2024-08-31T10:41:45Z</time>
      </trkpt>
      <trkpt lat="42.69125" lon="1.39658">
        <ele>2238.764</ele>
        <time>2024-08-31T10:41:47Z</time>
      </trkpt>
      <trkpt lat="42.69125" lon="1.39658">
        <ele>2238.765</ele>
        <time>2024-08-31T10:41:49Z</time>
      </trkpt>
      <trkpt lat="42.69125" lon="1.39658">
        <ele>2238.769</ele>
        <time>2024-08-31T10:41:51Z</time>
      </trkpt>
      <trkpt lat="42.69125" lon="1.39658">
        <ele>2238.775</ele>
        <time>2024-08-31T10:41:53Z</time>
      </trkpt>
      <trkpt lat="42.69125" lon="1.39658">
        <ele>2238.783</ele>
        <time>2024-08-31T10:41:55Z</time>
      </trkpt>
      <trkpt lat="42.69125" lon="1.39658">
        <ele>2238.788</ele>
        <time>2024-08-31T10:41:57Z</time>
      </trkpt>
      <trkpt lat="42.69125" lon="1.39658">
        <ele>2238.786</ele>
        <time>2024-08-31T10:41:59Z</time>
      </trkpt>
      <trkpt lat="42.69125" lon="1.39658">
        <ele>2238.779</ele>
        <time>2024-08-31T10:42:01Z</time>
      </trkpt>
      <trkpt lat="42.69125" lon="1.39658">
        <ele>2238.776</ele>
        <time>2024-08-31T10:42:03Z</time>
      </trkpt>
      <trkpt lat="42.69125" lon="1.39658">
        <ele>2238.781</ele>
        <time>2024-08-31T10:42:05Z</time>
      </trkpt>
      <trkpt lat="42.69125" lon="1.39658">
        <ele>2238.783</ele>
        <time>2024-08-31T10:42:07Z</time>
      </trkpt>
      <trkpt lat="42.69125" lon="1.39658">
        <ele>2238.785</ele>
        <time>2024-08-31T10:42:09Z</time>
      </trkpt>
      <trkpt lat="42.69125" lon="1.39658">
        <ele>2238.784</ele>
        <time>2024-08-31T10:42:11Z</time>
      </trkpt>
      <trkpt lat="42.69125" lon="1.39658">
        <ele>2238.782</ele>
        <time>2024-08-31T10:42:13Z</time>
      </trkpt>
      <trkpt lat="42.69125" lon="1.39658">
        <ele>2238.779</ele>
        <time>2024-08-31T10:42:15Z</time>
      </trkpt>
      <trkpt lat="42.69125" lon="1.39658">
        <ele>2238.776</ele>
        <time>2024-08-31T10:42:17Z</time>
      </trkpt>
      <trkpt lat="42.69125" lon="1.39658">
        <ele>2238.782</ele>
        <time>2024-08-31T10:42:19Z</time>
      </trkpt>
      <trkpt lat="42.69125" lon="1.39658">
        <ele>2238.791</ele>
        <time>2024-08-31T10:42:21Z</time>
      </trkpt>
      <trkpt lat="42.69125" lon="1.39658">
        <ele>2238.79</ele>
        <time>2024-08-31T10:42:23Z</time>
      </trkpt>
      <trkpt lat="42.69125" lon="1.39658">
        <ele>2238.78</ele>
        <time>2024-08-31T10:42:25Z</time>
      </trkpt>
      <trkpt lat="42.69125" lon="1.39658">
        <ele>2238.768</ele>
        <time>2024-08-31T10:42:27Z</time>
      </trkpt>
      <trkpt lat="42.69125" lon="1.39658">
        <ele>2238.771</ele>
        <time>2024-08-31T10:42:29Z</time>
      </trkpt>
      <trkpt lat="42.69125" lon="1.39658">
        <ele>2238.781</ele>
        <time>2024-08-31T10:42:31Z</time>
      </trkpt>
      <trkpt lat="42.69125" lon="1.39658">
        <ele>2238.793</ele>
        <time>2024-08-31T10:42:33Z</time>
      </trkpt>
      <trkpt lat="42.69125" lon="1.39658">
        <ele>2238.802</ele>
        <time>2024-08-31T10:42:35Z</time>
      </trkpt>
      <trkpt lat="42.69125" lon="1.39658">
        <ele>2238.803</ele>
        <time>2024-08-31T10:42:37Z</time>
      </trkpt>
      <trkpt lat="42.69125" lon="1.39658">
        <ele>2238.811</ele>
        <time>2024-08-31T10:42:39Z</time>
      </trkpt>
      <trkpt lat="42.69125" lon="1.39658">
        <ele>2238.818</ele>
        <time>2024-08-31T10:42:41Z</time>
      </trkpt>
      <trkpt lat="42.69125" lon="1.39658">
        <ele>2238.817</ele>
        <time>2024-08-31T10:42:43Z</time>
      </trkpt>
      <trkpt lat="42.69125" lon="1.39658">
        <ele>2238.808</ele>
        <time>2024-08-31T10:42:45Z</time>
      </trkpt>
      <trkpt lat="42.69125" lon="1.39658">
        <ele>2238.809</ele>
        <time>2024-08-31T10:42:47Z</time>
      </trkpt>
      <trkpt lat="42.69125" lon="1.39658">
        <ele>2238.816</ele>
        <time>2024-08-31T10:42:49Z</time>
      </trkpt>
      <trkpt lat="42.69125" lon="1.39658">
        <ele>2238.813</ele>
        <time>2024-08-31T10:42:51Z</time>
      </trkpt>
      <trkpt lat="42.69125" lon="1.39658">
        <ele>2238.801</ele>
        <time>2024-08-31T10:42:53Z</time>
      </trkpt>
      <trkpt lat="42.69125" lon="1.39658">
        <ele>2238.79</ele>
        <time>2024-08-31T10:42:55Z</time>
      </trkpt>
      <trkpt lat="42.69125" lon="1.39658">
        <ele>2238.789</ele>
        <time>2024-08-31T10:42:57Z</time>
      </trkpt>
      <trkpt lat="42.69125" lon="1.39658">
        <ele>2238.794</ele>
        <time>2024-08-31T10:42:59Z</time>
      </trkpt>
      <trkpt lat="42.69125" lon="1.39658">
        <ele>2238.792</ele>
        <time>2024-08-31T10:43:01Z</time>
      </trkpt>
      <trkpt lat="42.69125" lon="1.39658">
        <ele>2238.789</ele>
        <time>2024-08-31T10:43:03Z</time>
      </trkpt>
      <trkpt lat="42.69125" lon="1.39658">
        <ele>2238.788</ele>
        <time>2024-08-31T10:43:05Z</time>
      </trkpt>
      <trkpt lat="42.69125" lon="1.39658">
        <ele>2238.786</ele>
        <time>2024-08-31T10:43:07Z</time>
      </trkpt>
      <trkpt lat="42.69125" lon="1.39658">
        <ele>2238.785</ele>
        <time>2024-08-31T10:43:09Z</time>
      </trkpt>
      <trkpt lat="42.69125" lon="1.39658">
        <ele>2238.79</ele>
        <time>2024-08-31T10:43:11Z</time>
      </trkpt>
      <trkpt lat="42.69125" lon="1.39658">
        <ele>2238.784</ele>
        <time>2024-08-31T10:43:13Z</time>
      </trkpt>
      <trkpt lat="42.69125" lon="1.39658">
        <ele>2238.774</ele>
        <time>2024-08-31T10:43:15Z</time>
      </trkpt>
      <trkpt lat="42.69125" lon="1.39658">
        <ele>2238.774</ele>
        <time>2024-08-31T10:43:17Z</time>
      </trkpt>
      <trkpt lat="42.69125" lon="1.39658">
        <ele>2238.781</ele>
        <time>2024-08-31T10:43:19Z</time>
      </trkpt>
      <trkpt lat="42.69125" lon="1.39658">
        <ele>2238.777</ele>
        <time>2024-08-31T10:43:21Z</time>
      </trkpt>
      <trkpt lat="42.69125" lon="1.39658">
        <ele>2238.767</ele>
        <time>2024-08-31T10:43:23Z</time>
      </trkpt>
      <trkpt lat="42.69125" lon="1.39658">
        <ele>2238.756</ele>
        <time>2024-08-31T10:43:25Z</time>
      </trkpt>
      <trkpt lat="42.69125" lon="1.39658">
        <ele>2238.756</ele>
        <time>2024-08-31T10:43:27Z</time>
      </trkpt>
      <trkpt lat="42.69125" lon="1.39658">
        <ele>2238.762</ele>
        <time>2024-08-31T10:43:29Z</time>
      </trkpt>
      <trkpt lat="42.69125" lon="1.39658">
        <ele>2238.766</ele>
        <time>2024-08-31T10:43:31Z</time>
      </trkpt>
      <trkpt lat="42.69125" lon="1.39658">
        <ele>2238.761</ele>
        <time>2024-08-31T10:43:33Z</time>
      </trkpt>
      <trkpt lat="42.69125" lon="1.39658">
        <ele>2238.748</ele>
        <time>2024-08-31T10:43:35Z</time>
      </trkpt>
      <trkpt lat="42.69125" lon="1.39658">
        <ele>2238.743</ele>
        <time>2024-08-31T10:43:37Z</time>
      </trkpt>
      <trkpt lat="42.69125" lon="1.39658">
        <ele>2238.738</ele>
        <time>2024-08-31T10:43:39Z</time>
      </trkpt>
      <trkpt lat="42.69125" lon="1.39658">
        <ele>2238.733</ele>
        <time>2024-08-31T10:43:41Z</time>
      </trkpt>
      <trkpt lat="42.69125" lon="1.39658">
        <ele>2238.717</ele>
        <time>2024-08-31T10:43:43Z</time>
      </trkpt>
      <trkpt lat="42.69125" lon="1.39658">
        <ele>2238.713</ele>
        <time>2024-08-31T10:43:45Z</time>
      </trkpt>
      <trkpt lat="42.69125" lon="1.39658">
        <ele>2238.708</ele>
        <time>2024-08-31T10:43:47Z</time>
      </trkpt>
      <trkpt lat="42.69125" lon="1.39658">
        <ele>2238.704</ele>
        <time>2024-08-31T10:43:49Z</time>
      </trkpt>
      <trkpt lat="42.69125" lon="1.39658">
        <ele>2238.708</ele>
        <time>2024-08-31T10:43:51Z</time>
      </trkpt>
      <trkpt lat="42.69125" lon="1.39658">
        <ele>2238.71</ele>
        <time>2024-08-31T10:43:53Z</time>
      </trkpt>
      <trkpt lat="42.69125" lon="1.39658">
        <ele>2238.706</ele>
        <time>2024-08-31T10:43:55Z</time>
      </trkpt>
      <trkpt lat="42.69125" lon="1.39658">
        <ele>2238.704</ele>
        <time>2024-08-31T10:43:57Z</time>
      </trkpt>
      <trkpt lat="42.69125" lon="1.39658">
        <ele>2238.713</ele>
        <time>2024-08-31T10:43:59Z</time>
      </trkpt>
      <trkpt lat="42.69125" lon="1.39658">
        <ele>2238.717</ele>
        <time>2024-08-31T10:44:01Z</time>
      </trkpt>
      <trkpt lat="42.69125" lon="1.39658">
        <ele>2238.72</ele>
        <time>2024-08-31T10:44:03Z</time>
      </trkpt>
      <trkpt lat="42.69125" lon="1.39658">
        <ele>2238.717</ele>
        <time>2024-08-31T10:44:05Z</time>
      </trkpt>
      <trkpt lat="42.69125" lon="1.39658">
        <ele>2238.721</ele>
        <time>2024-08-31T10:44:07Z</time>
      </trkpt>
      <trkpt lat="42.69125" lon="1.39658">
        <ele>2238.725</ele>
        <time>2024-08-31T10:44:09Z</time>
      </trkpt>
      <trkpt lat="42.69125" lon="1.39658">
        <ele>2238.717</ele>
        <time>2024-08-31T10:44:11Z</time>
      </trkpt>
      <trkpt lat="42.69125" lon="1.39658">
        <ele>2238.718</ele>
        <time>2024-08-31T10:44:13Z</time>
      </trkpt>
      <trkpt lat="42.69125" lon="1.39658">
        <ele>2238.72</ele>
        <time>2024-08-31T10:44:15Z</time>
      </trkpt>
      <trkpt lat="42.69125" lon="1.39658">
        <ele>2238.718</ele>
        <time>2024-08-31T10:44:17Z</time>
      </trkpt>
      <trkpt lat="42.69125" lon="1.39658">
        <ele>2238.712</ele>
        <time>2024-08-31T10:44:19Z</time>
      </trkpt>
      <trkpt lat="42.69125" lon="1.39658">
        <ele>2238.717</ele>
        <time>2024-08-31T10:44:21Z</time>
      </trkpt>
      <trkpt lat="42.69125" lon="1.39658">
        <ele>2238.718</ele>
        <time>2024-08-31T10:44:23Z</time>
      </trkpt>
      <trkpt lat="42.69125" lon="1.39658">
        <ele>2238.709</ele>
        <time>2024-08-31T10:44:25Z</time>
      </trkpt>
      <trkpt lat="42.69125" lon="1.39658">
        <ele>2238.702</ele>
        <time>2024-08-31T10:44:27Z</time>
      </trkpt>
      <trkpt lat="42.69125" lon="1.39658">
        <ele>2238.71</ele>
        <time>2024-08-31T10:44:29Z</time>
      </trkpt>
      <trkpt lat="42.69125" lon="1.39658">
        <ele>2238.716</ele>
        <time>2024-08-31T10:44:31Z</time>
      </trkpt>
      <trkpt lat="42.69125" lon="1.39658">
        <ele>2238.719</ele>
        <time>2024-08-31T10:44:33Z</time>
      </trkpt>
      <trkpt lat="42.69125" lon="1.39658">
        <ele>2238.723</ele>
        <time>2024-08-31T10:44:35Z</time>
      </trkpt>
      <trkpt lat="42.69125" lon="1.39658">
        <ele>2238.726</ele>
        <time>2024-08-31T10:44:37Z</time>
      </trkpt>
      <trkpt lat="42.69125" lon="1.39658">
        <ele>2238.729</ele>
        <time>2024-08-31T10:44:38Z</time>
      </trkpt>
      <trkpt lat="42.69125" lon="1.39658">
        <ele>2238.728</ele>
        <time>2024-08-31T10:44:41Z</time>
      </trkpt>
      <trkpt lat="42.69125" lon="1.39658">
        <ele>2238.73</ele>
        <time>2024-08-31T10:44:43Z</time>
      </trkpt>
      <trkpt lat="42.69125" lon="1.39658">
        <ele>2238.729</ele>
        <time>2024-08-31T10:44:45Z</time>
      </trkpt>
      <trkpt lat="42.69125" lon="1.39658">
        <ele>2238.72</ele>
        <time>2024-08-31T10:44:47Z</time>
      </trkpt>
      <trkpt lat="42.69125" lon="1.39658">
        <ele>2238.721</ele>
        <time>2024-08-31T10:44:49Z</time>
      </trkpt>
      <trkpt lat="42.69125" lon="1.39658">
        <ele>2238.729</ele>
        <time>2024-08-31T10:44:51Z</time>
      </trkpt>
      <trkpt lat="42.69125" lon="1.39658">
        <ele>2238.73</ele>
        <time>2024-08-31T10:44:53Z</time>
      </trkpt>
      <trkpt lat="42.69125" lon="1.39658">
        <ele>2238.726</ele>
        <time>2024-08-31T10:44:55Z</time>
      </trkpt>
      <trkpt lat="42.69125" lon="1.39658">
        <ele>2238.722</ele>
        <time>2024-08-31T10:44:57Z</time>
      </trkpt>
      <trkpt lat="42.69125" lon="1.39658">
        <ele>2238.72</ele>
        <time>2024-08-31T10:44:59Z</time>
      </trkpt>
      <trkpt lat="42.69125" lon="1.39658">
        <ele>2238.725</ele>
        <time>2024-08-31T10:45:01Z</time>
      </trkpt>
      <trkpt lat="42.69125" lon="1.39658">
        <ele>2238.727</ele>
        <time>2024-08-31T10:45:03Z</time>
      </trkpt>
      <trkpt lat="42.69125" lon="1.39658">
        <ele>2238.725</ele>
        <time>2024-08-31T10:45:05Z</time>
      </trkpt>
      <trkpt lat="42.69125" lon="1.39658">
        <ele>2238.724</ele>
        <time>2024-08-31T10:45:07Z</time>
      </trkpt>
      <trkpt lat="42.69125" lon="1.39658">
        <ele>2238.725</ele>
        <time>2024-08-31T10:45:09Z</time>
      </trkpt>
      <trkpt lat="42.69125" lon="1.39658">
        <ele>2238.727</ele>
        <time>2024-08-31T10:45:11Z</time>
      </trkpt>
      <trkpt lat="42.69125" lon="1.39658">
        <ele>2238.732</ele>
        <time>2024-08-31T10:45:13Z</time>
      </trkpt>
      <trkpt lat="42.69125" lon="1.39658">
        <ele>2238.734</ele>
        <time>2024-08-31T10:45:15Z</time>
      </trkpt>
      <trkpt lat="42.69125" lon="1.39658">
        <ele>2238.731</ele>
        <time>2024-08-31T10:45:17Z</time>
      </trkpt>
      <trkpt lat="42.69125" lon="1.39658">
        <ele>2238.729</ele>
        <time>2024-08-31T10:45:19Z</time>
      </trkpt>
      <trkpt lat="42.69125" lon="1.39658">
        <ele>2238.727</ele>
        <time>2024-08-31T10:45:21Z</time>
      </trkpt>
      <trkpt lat="42.69125" lon="1.39658">
        <ele>2238.726</ele>
        <time>2024-08-31T10:45:23Z</time>
      </trkpt>
      <trkpt lat="42.69125" lon="1.39658">
        <ele>2238.724</ele>
        <time>2024-08-31T10:45:25Z</time>
      </trkpt>
      <trkpt lat="42.69125" lon="1.39658">
        <ele>2238.725</ele>
        <time>2024-08-31T10:45:27Z</time>
      </trkpt>
      <trkpt lat="42.69125" lon="1.39658">
        <ele>2238.724</ele>
        <time>2024-08-31T10:45:29Z</time>
      </trkpt>
      <trkpt lat="42.69125" lon="1.39658">
        <ele>2238.728</ele>
        <time>2024-08-31T10:45:31Z</time>
      </trkpt>
      <trkpt lat="42.69125" lon="1.39658">
        <ele>2238.723</ele>
        <time>2024-08-31T10:45:33Z</time>
      </trkpt>
      <trkpt lat="42.69125" lon="1.39658">
        <ele>2238.718</ele>
        <time>2024-08-31T10:45:35Z</time>
      </trkpt>
      <trkpt lat="42.69125" lon="1.39658">
        <ele>2238.713</ele>
        <time>2024-08-31T10:45:37Z</time>
      </trkpt>
      <trkpt lat="42.69125" lon="1.39658">
        <ele>2238.714</ele>
        <time>2024-08-31T10:45:39Z</time>
      </trkpt>
      <trkpt lat="42.69125" lon="1.39658">
        <ele>2238.72</ele>
        <time>2024-08-31T10:45:41Z</time>
      </trkpt>
      <trkpt lat="42.69125" lon="1.39658">
        <ele>2238.721</ele>
        <time>2024-08-31T10:45:43Z</time>
      </trkpt>
      <trkpt lat="42.69125" lon="1.39658">
        <ele>2238.72</ele>
        <time>2024-08-31T10:45:45Z</time>
      </trkpt>
      <trkpt lat="42.69125" lon="1.39658">
        <ele>2238.723</ele>
        <time>2024-08-31T10:45:47Z</time>
      </trkpt>
      <trkpt lat="42.69125" lon="1.39658">
        <ele>2238.73</ele>
        <time>2024-08-31T10:45:49Z</time>
      </trkpt>
      <trkpt lat="42.69125" lon="1.39658">
        <ele>2238.737</ele>
        <time>2024-08-31T10:45:51Z</time>
      </trkpt>
      <trkpt lat="42.69125" lon="1.39658">
        <ele>2238.736</ele>
        <time>2024-08-31T10:45:53Z</time>
      </trkpt>
      <trkpt lat="42.69125" lon="1.39658">
        <ele>2238.736</ele>
        <time>2024-08-31T10:45:55Z</time>
      </trkpt>
      <trkpt lat="42.69125" lon="1.39658">
        <ele>2238.735</ele>
        <time>2024-08-31T10:45:57Z</time>
      </trkpt>
      <trkpt lat="42.69125" lon="1.39658">
        <ele>2238.736</ele>
        <time>2024-08-31T10:45:59Z</time>
      </trkpt>
      <trkpt lat="42.69125" lon="1.39658">
        <ele>2238.738</ele>
        <time>2024-08-31T10:46:01Z</time>
      </trkpt>
      <trkpt lat="42.69125" lon="1.39658">
        <ele>2238.741</ele>
        <time>2024-08-31T10:46:03Z</time>
      </trkpt>
      <trkpt lat="42.69125" lon="1.39658">
        <ele>2238.747</ele>
        <time>2024-08-31T10:46:05Z</time>
      </trkpt>
      <trkpt lat="42.69125" lon="1.39658">
        <ele>2238.75</ele>
        <time>2024-08-31T10:46:07Z</time>
      </trkpt>
      <trkpt lat="42.69125" lon="1.39658">
        <ele>2238.752</ele>
        <time>2024-08-31T10:46:09Z</time>
      </trkpt>
      <trkpt lat="42.69125" lon="1.39658">
        <ele>2238.742</ele>
        <time>2024-08-31T10:46:11Z</time>
      </trkpt>
      <trkpt lat="42.69125" lon="1.39658">
        <ele>2238.748</ele>
        <time>2024-08-31T10:46:13Z</time>
      </trkpt>
      <trkpt lat="42.69125" lon="1.39658">
        <ele>2238.751</ele>
        <time>2024-08-31T10:46:15Z</time>
      </trkpt>
      <trkpt lat="42.69125" lon="1.39658">
        <ele>2238.751</ele>
        <time>2024-08-31T10:46:17Z</time>
      </trkpt>
      <trkpt lat="42.69125" lon="1.39658">
        <ele>2238.75</ele>
        <time>2024-08-31T10:46:19Z</time>
      </trkpt>
      <trkpt lat="42.69125" lon="1.39658">
        <ele>2238.745</ele>
        <time>2024-08-31T10:46:21Z</time>
      </trkpt>
      <trkpt lat="42.69125" lon="1.39658">
        <ele>2238.743</ele>
        <time>2024-08-31T10:46:23Z</time>
      </trkpt>
      <trkpt lat="42.69125" lon="1.39658">
        <ele>2238.746</ele>
        <time>2024-08-31T10:46:25Z</time>
      </trkpt>
      <trkpt lat="42.69125" lon="1.39658">
        <ele>2238.757</ele>
        <time>2024-08-31T10:46:27Z</time>
      </trkpt>
      <trkpt lat="42.69125" lon="1.39658">
        <ele>2238.764</ele>
        <time>2024-08-31T10:46:29Z</time>
      </trkpt>
      <trkpt lat="42.69125" lon="1.39658">
        <ele>2238.769</ele>
        <time>2024-08-31T10:46:31Z</time>
      </trkpt>
      <trkpt lat="42.69125" lon="1.39658">
        <ele>2238.77</ele>
        <time>2024-08-31T10:46:33Z</time>
      </trkpt>
      <trkpt lat="42.69125" lon="1.39658">
        <ele>2238.768</ele>
        <time>2024-08-31T10:46:35Z</time>
      </trkpt>
      <trkpt lat="42.69125" lon="1.39658">
        <ele>2238.77</ele>
        <time>2024-08-31T10:46:37Z</time>
      </trkpt>
      <trkpt lat="42.69125" lon="1.39658">
        <ele>2238.779</ele>
        <time>2024-08-31T10:46:39Z</time>
      </trkpt>
      <trkpt lat="42.69125" lon="1.39658">
        <ele>2238.779</ele>
        <time>2024-08-31T10:46:41Z</time>
      </trkpt>
      <trkpt lat="42.69125" lon="1.39658">
        <ele>2238.779</ele>
        <time>2024-08-31T10:46:43Z</time>
      </trkpt>
      <trkpt lat="42.69125" lon="1.39658">
        <ele>2238.774</ele>
        <time>2024-08-31T10:46:45Z</time>
      </trkpt>
      <trkpt lat="42.69125" lon="1.39658">
        <ele>2238.766</ele>
        <time>2024-08-31T10:46:47Z</time>
      </trkpt>
      <trkpt lat="42.69125" lon="1.39658">
        <ele>2238.763</ele>
        <time>2024-08-31T10:46:49Z</time>
      </trkpt>
      <trkpt lat="42.69125" lon="1.39658">
        <ele>2238.76</ele>
        <time>2024-08-31T10:46:51Z</time>
      </trkpt>
      <trkpt lat="42.69125" lon="1.39658">
        <ele>2238.761</ele>
        <time>2024-08-31T10:46:53Z</time>
      </trkpt>
      <trkpt lat="42.69125" lon="1.39658">
        <ele>2238.765</ele>
        <time>2024-08-31T10:46:55Z</time>
      </trkpt>
      <trkpt lat="42.69125" lon="1.39658">
        <ele>2238.767</ele>
        <time>2024-08-31T10:46:57Z</time>
      </trkpt>
      <trkpt lat="42.69125" lon="1.39658">
        <ele>2238.766</ele>
        <time>2024-08-31T10:46:59Z</time>
      </trkpt>
      <trkpt lat="42.69125" lon="1.39658">
        <ele>2238.771</ele>
        <time>2024-08-31T10:47:01Z</time>
      </trkpt>
      <trkpt lat="42.69125" lon="1.39658">
        <ele>2238.776</ele>
        <time>2024-08-31T10:47:03Z</time>
      </trkpt>
      <trkpt lat="42.69125" lon="1.39658">
        <ele>2238.783</ele>
        <time>2024-08-31T10:47:05Z</time>
      </trkpt>
      <trkpt lat="42.69125" lon="1.39658">
        <ele>2238.794</ele>
        <time>2024-08-31T10:47:07Z</time>
      </trkpt>
      <trkpt lat="42.69125" lon="1.39658">
        <ele>2238.795</ele>
        <time>2024-08-31T10:47:09Z</time>
      </trkpt>
      <trkpt lat="42.69125" lon="1.39658">
        <ele>2238.798</ele>
        <time>2024-08-31T10:47:11Z</time>
      </trkpt>
      <trkpt lat="42.69125" lon="1.39658">
        <ele>2238.8</ele>
        <time>2024-08-31T10:47:13Z</time>
      </trkpt>
      <trkpt lat="42.69125" lon="1.39658">
        <ele>2238.796</ele>
        <time>2024-08-31T10:47:15Z</time>
      </trkpt>
      <trkpt lat="42.69125" lon="1.39658">
        <ele>2238.792</ele>
        <time>2024-08-31T10:47:17Z</time>
      </trkpt>
      <trkpt lat="42.69125" lon="1.39658">
        <ele>2238.794</ele>
        <time>2024-08-31T10:47:19Z</time>
      </trkpt>
      <trkpt lat="42.69125" lon="1.39658">
        <ele>2238.797</ele>
        <time>2024-08-31T10:47:21Z</time>
      </trkpt>
      <trkpt lat="42.69125" lon="1.39658">
        <ele>2238.805</ele>
        <time>2024-08-31T10:47:23Z</time>
      </trkpt>
      <trkpt lat="42.69125" lon="1.39658">
        <ele>2238.805</ele>
        <time>2024-08-31T10:47:25Z</time>
      </trkpt>
      <trkpt lat="42.69125" lon="1.39658">
        <ele>2238.806</ele>
        <time>2024-08-31T10:47:27Z</time>
      </trkpt>
      <trkpt lat="42.69125" lon="1.39658">
        <ele>2238.805</ele>
        <time>2024-08-31T10:47:29Z</time>
      </trkpt>
      <trkpt lat="42.69125" lon="1.39658">
        <ele>2238.803</ele>
        <time>2024-08-31T10:47:31Z</time>
      </trkpt>
      <trkpt lat="42.69125" lon="1.39658">
        <ele>2238.805</ele>
        <time>2024-08-31T10:47:33Z</time>
      </trkpt>
      <trkpt lat="42.69125" lon="1.39658">
        <ele>2238.804</ele>
        <time>2024-08-31T10:47:35Z</time>
      </trkpt>
      <trkpt lat="42.69125" lon="1.39658">
        <ele>2238.809</ele>
        <time>2024-08-31T10:47:37Z</time>
      </trkpt>
      <trkpt lat="42.69125" lon="1.39658">
        <ele>2238.805</ele>
        <time>2024-08-31T10:47:39Z</time>
      </trkpt>
      <trkpt lat="42.69125" lon="1.39658">
        <ele>2238.798</ele>
        <time>2024-08-31T10:47:41Z</time>
      </trkpt>
      <trkpt lat="42.69125" lon="1.39658">
        <ele>2238.785</ele>
        <time>2024-08-31T10:47:43Z</time>
      </trkpt>
      <trkpt lat="42.69125" lon="1.39658">
        <ele>2238.777</ele>
        <time>2024-08-31T10:47:45Z</time>
      </trkpt>
      <trkpt lat="42.69125" lon="1.39658">
        <ele>2238.78</ele>
        <time>2024-08-31T10:47:47Z</time>
      </trkpt>
      <trkpt lat="42.69125" lon="1.39658">
        <ele>2238.784</ele>
        <time>2024-08-31T10:47:49Z</time>
      </trkpt>
      <trkpt lat="42.69125" lon="1.39658">
        <ele>2238.784</ele>
        <time>2024-08-31T10:47:51Z</time>
      </trkpt>
      <trkpt lat="42.69125" lon="1.39658">
        <ele>2238.781</ele>
        <time>2024-08-31T10:47:53Z</time>
      </trkpt>
      <trkpt lat="42.69125" lon="1.39658">
        <ele>2238.782</ele>
        <time>2024-08-31T10:47:55Z</time>
      </trkpt>
      <trkpt lat="42.69125" lon="1.39658">
        <ele>2238.784</ele>
        <time>2024-08-31T10:47:57Z</time>
      </trkpt>
      <trkpt lat="42.69125" lon="1.39658">
        <ele>2238.786</ele>
        <time>2024-08-31T10:47:59Z</time>
      </trkpt>
      <trkpt lat="42.69125" lon="1.39658">
        <ele>2238.784</ele>
        <time>2024-08-31T10:48:01Z</time>
      </trkpt>
      <trkpt lat="42.69125" lon="1.39658">
        <ele>2238.787</ele>
        <time>2024-08-31T10:48:03Z</time>
      </trkpt>
      <trkpt lat="42.69125" lon="1.39658">
        <ele>2238.787</ele>
        <time>2024-08-31T10:48:05Z</time>
      </trkpt>
      <trkpt lat="42.69125" lon="1.39658">
        <ele>2238.792</ele>
        <time>2024-08-31T10:48:07Z</time>
      </trkpt>
      <trkpt lat="42.69125" lon="1.39658">
        <ele>2238.79</ele>
        <time>2024-08-31T10:48:09Z</time>
      </trkpt>
      <trkpt lat="42.69125" lon="1.39658">
        <ele>2238.79</ele>
        <time>2024-08-31T10:48:11Z</time>
      </trkpt>
      <trkpt lat="42.69125" lon="1.39658">
        <ele>2238.784</ele>
        <time>2024-08-31T10:48:13Z</time>
      </trkpt>
      <trkpt lat="42.69125" lon="1.39658">
        <ele>2238.781</ele>
        <time>2024-08-31T10:48:15Z</time>
      </trkpt>
      <trkpt lat="42.69125" lon="1.39658">
        <ele>2238.785</ele>
        <time>2024-08-31T10:48:17Z</time>
      </trkpt>
      <trkpt lat="42.69125" lon="1.39658">
        <ele>2238.793</ele>
        <time>2024-08-31T10:48:19Z</time>
      </trkpt>
      <trkpt lat="42.69125" lon="1.39658">
        <ele>2238.792</ele>
        <time>2024-08-31T10:48:21Z</time>
      </trkpt>
      <trkpt lat="42.69125" lon="1.39658">
        <ele>2238.79</ele>
        <time>2024-08-31T10:48:23Z</time>
      </trkpt>
      <trkpt lat="42.69125" lon="1.39658">
        <ele>2238.789</ele>
        <time>2024-08-31T10:48:25Z</time>
      </trkpt>
      <trkpt lat="42.69125" lon="1.39658">
        <ele>2238.792</ele>
        <time>2024-08-31T10:48:27Z</time>
      </trkpt>
      <trkpt lat="42.69125" lon="1.39658">
        <ele>2238.798</ele>
        <time>2024-08-31T10:48:29Z</time>
      </trkpt>
      <trkpt lat="42.69125" lon="1.39658">
        <ele>2238.803</ele>
        <time>2024-08-31T10:48:31Z</time>
      </trkpt>
      <trkpt lat="42.69125" lon="1.39658">
        <ele>2238.799</ele>
        <time>2024-08-31T10:48:33Z</time>
      </trkpt>
      <trkpt lat="42.69125" lon="1.39658">
        <ele>2238.802</ele>
        <time>2024-08-31T10:48:35Z</time>
      </trkpt>
      <trkpt lat="42.69125" lon="1.39658">
        <ele>2238.806</ele>
        <time>2024-08-31T10:48:37Z</time>
      </trkpt>
      <trkpt lat="42.69125" lon="1.39658">
        <ele>2238.808</ele>
        <time>2024-08-31T10:48:39Z</time>
      </trkpt>
      <trkpt lat="42.69125" lon="1.39658">
        <ele>2238.641</ele>
        <time>2024-08-31T10:48:41Z</time>
      </trkpt>
      <trkpt lat="42.69125" lon="1.39658">
        <ele>2238.617</ele>
        <time>2024-08-31T10:48:43Z</time>
      </trkpt>
      <trkpt lat="42.69125" lon="1.39658">
        <ele>2238.624</ele>
        <time>2024-08-31T10:48:45Z</time>
      </trkpt>
      <trkpt lat="42.69125" lon="1.39658">
        <ele>2238.627</ele>
        <time>2024-08-31T10:48:47Z</time>
      </trkpt>
      <trkpt lat="42.69125" lon="1.39658">
        <ele>2238.627</ele>
        <time>2024-08-31T10:48:49Z</time>
      </trkpt>
      <trkpt lat="42.69125" lon="1.39658">
        <ele>2238.626</ele>
        <time>2024-08-31T10:48:51Z</time>
      </trkpt>
      <trkpt lat="42.69125" lon="1.39658">
        <ele>2238.627</ele>
        <time>2024-08-31T10:48:53Z</time>
      </trkpt>
      <trkpt lat="42.69125" lon="1.39658">
        <ele>2238.63</ele>
        <time>2024-08-31T10:48:55Z</time>
      </trkpt>
      <trkpt lat="42.69125" lon="1.39658">
        <ele>2238.63</ele>
        <time>2024-08-31T10:48:57Z</time>
      </trkpt>
      <trkpt lat="42.69125" lon="1.39658">
        <ele>2238.626</ele>
        <time>2024-08-31T10:48:59Z</time>
      </trkpt>
      <trkpt lat="42.69125" lon="1.39658">
        <ele>2238.626</ele>
        <time>2024-08-31T10:49:01Z</time>
      </trkpt>
      <trkpt lat="42.69125" lon="1.39658">
        <ele>2238.628</ele>
        <time>2024-08-31T10:49:03Z</time>
      </trkpt>
      <trkpt lat="42.69125" lon="1.39658">
        <ele>2238.62</ele>
        <time>2024-08-31T10:49:05Z</time>
      </trkpt>
      <trkpt lat="42.69125" lon="1.39658">
        <ele>2238.609</ele>
        <time>2024-08-31T10:49:07Z</time>
      </trkpt>
      <trkpt lat="42.69125" lon="1.39658">
        <ele>2238.599</ele>
        <time>2024-08-31T10:49:09Z</time>
      </trkpt>
      <trkpt lat="42.69125" lon="1.39658">
        <ele>2238.597</ele>
        <time>2024-08-31T10:49:11Z</time>
      </trkpt>
      <trkpt lat="42.69125" lon="1.39658">
        <ele>2238.6</ele>
        <time>2024-08-31T10:49:13Z</time>
      </trkpt>
      <trkpt lat="42.69125" lon="1.39658">
        <ele>2238.594</ele>
        <time>2024-08-31T10:49:15Z</time>
      </trkpt>
      <trkpt lat="42.69125" lon="1.39658">
        <ele>2238.596</ele>
        <time>2024-08-31T10:49:17Z</time>
      </trkpt>
      <trkpt lat="42.69125" lon="1.39658">
        <ele>2238.596</ele>
        <time>2024-08-31T10:49:19Z</time>
      </trkpt>
      <trkpt lat="42.69125" lon="1.39658">
        <ele>2238.6</ele>
        <time>2024-08-31T10:49:21Z</time>
      </trkpt>
      <trkpt lat="42.69125" lon="1.39658">
        <ele>2238.603</ele>
        <time>2024-08-31T10:49:23Z</time>
      </trkpt>
      <trkpt lat="42.69125" lon="1.39658">
        <ele>2238.606</ele>
        <time>2024-08-31T10:49:25Z</time>
      </trkpt>
      <trkpt lat="42.69125" lon="1.39658">
        <ele>2238.609</ele>
        <time>2024-08-31T10:49:27Z</time>
      </trkpt>
      <trkpt lat="42.69125" lon="1.39658">
        <ele>2238.619</ele>
        <time>2024-08-31T10:49:29Z</time>
      </trkpt>
      <trkpt lat="42.69125" lon="1.39658">
        <ele>2238.629</ele>
        <time>2024-08-31T10:49:31Z</time>
      </trkpt>
      <trkpt lat="42.69125" lon="1.39658">
        <ele>2238.641</ele>
        <time>2024-08-31T10:49:33Z</time>
      </trkpt>
      <trkpt lat="42.69125" lon="1.39658">
        <ele>2238.646</ele>
        <time>2024-08-31T10:49:35Z</time>
      </trkpt>
      <trkpt lat="42.69125" lon="1.39658">
        <ele>2238.649</ele>
        <time>2024-08-31T10:49:37Z</time>
      </trkpt>
      <trkpt lat="42.69125" lon="1.39658">
        <ele>2238.651</ele>
        <time>2024-08-31T10:49:39Z</time>
      </trkpt>
      <trkpt lat="42.69125" lon="1.39658">
        <ele>2238.659</ele>
        <time>2024-08-31T10:49:41Z</time>
      </trkpt>
      <trkpt lat="42.69125" lon="1.39658">
        <ele>2238.662</ele>
        <time>2024-08-31T10:49:43Z</time>
      </trkpt>
      <trkpt lat="42.69125" lon="1.39658">
        <ele>2238.663</ele>
        <time>2024-08-31T10:49:45Z</time>
      </trkpt>
      <trkpt lat="42.69125" lon="1.39658">
        <ele>2238.665</ele>
        <time>2024-08-31T10:49:47Z</time>
      </trkpt>
      <trkpt lat="42.69125" lon="1.39658">
        <ele>2238.669</ele>
        <time>2024-08-31T10:49:49Z</time>
      </trkpt>
      <trkpt lat="42.69125" lon="1.39658">
        <ele>2238.677</ele>
        <time>2024-08-31T10:49:51Z</time>
      </trkpt>
      <trkpt lat="42.69125" lon="1.39658">
        <ele>2238.671</ele>
        <time>2024-08-31T10:49:53Z</time>
      </trkpt>
      <trkpt lat="42.69125" lon="1.39658">
        <ele>2238.664</ele>
        <time>2024-08-31T10:49:55Z</time>
      </trkpt>
      <trkpt lat="42.69125" lon="1.39658">
        <ele>2238.661</ele>
        <time>2024-08-31T10:49:57Z</time>
      </trkpt>
      <trkpt lat="42.69125" lon="1.39658">
        <ele>2238.662</ele>
        <time>2024-08-31T10:49:59Z</time>
      </trkpt>
      <trkpt lat="42.69125" lon="1.39658">
        <ele>2238.661</ele>
        <time>2024-08-31T10:50:01Z</time>
      </trkpt>
      <trkpt lat="42.69125" lon="1.39658">
        <ele>2238.656</ele>
        <time>2024-08-31T10:50:03Z</time>
      </trkpt>
      <trkpt lat="42.69125" lon="1.39658">
        <ele>2238.651</ele>
        <time>2024-08-31T10:50:05Z</time>
      </trkpt>
      <trkpt lat="42.69125" lon="1.39658">
        <ele>2238.653</ele>
        <time>2024-08-31T10:50:07Z</time>
      </trkpt>
      <trkpt lat="42.69125" lon="1.39658">
        <ele>2238.651</ele>
        <time>2024-08-31T10:50:09Z</time>
      </trkpt>
      <trkpt lat="42.69125" lon="1.39658">
        <ele>2238.653</ele>
        <time>2024-08-31T10:50:11Z</time>
      </trkpt>
      <trkpt lat="42.69125" lon="1.39658">
        <ele>2238.65</ele>
        <time>2024-08-31T10:50:13Z</time>
      </trkpt>
      <trkpt lat="42.69125" lon="1.39658">
        <ele>2238.651</ele>
        <time>2024-08-31T10:50:15Z</time>
      </trkpt>
      <trkpt lat="42.69125" lon="1.39658">
        <ele>2238.659</ele>
        <time>2024-08-31T10:50:17Z</time>
      </trkpt>
      <trkpt lat="42.69125" lon="1.39658">
        <ele>2238.662</ele>
        <time>2024-08-31T10:50:19Z</time>
      </trkpt>
      <trkpt lat="42.69125" lon="1.39658">
        <ele>2238.663</ele>
        <time>2024-08-31T10:50:21Z</time>
      </trkpt>
      <trkpt lat="42.69125" lon="1.39658">
        <ele>2238.665</ele>
        <time>2024-08-31T10:50:23Z</time>
      </trkpt>
      <trkpt lat="42.69125" lon="1.39658">
        <ele>2238.672</ele>
        <time>2024-08-31T10:50:25Z</time>
      </trkpt>
      <trkpt lat="42.69125" lon="1.39658">
        <ele>2238.68</ele>
        <time>2024-08-31T10:50:27Z</time>
      </trkpt>
      <trkpt lat="42.69125" lon="1.39658">
        <ele>2238.69</ele>
        <time>2024-08-31T10:50:29Z</time>
      </trkpt>
      <trkpt lat="42.69125" lon="1.39658">
        <ele>2238.693</ele>
        <time>2024-08-31T10:50:31Z</time>
      </trkpt>
      <trkpt lat="42.69125" lon="1.39658">
        <ele>2238.694</ele>
        <time>2024-08-31T10:50:33Z</time>
      </trkpt>
      <trkpt lat="42.69125" lon="1.39658">
        <ele>2238.696</ele>
        <time>2024-08-31T10:50:35Z</time>
      </trkpt>
      <trkpt lat="42.69125" lon="1.39658">
        <ele>2238.696</ele>
        <time>2024-08-31T10:50:37Z</time>
      </trkpt>
      <trkpt lat="42.69125" lon="1.39658">
        <ele>2238.703</ele>
        <time>2024-08-31T10:50:39Z</time>
      </trkpt>
      <trkpt lat="42.69125" lon="1.39658">
        <ele>2238.704</ele>
        <time>2024-08-31T10:50:41Z</time>
      </trkpt>
      <trkpt lat="42.69125" lon="1.39658">
        <ele>2238.703</ele>
        <time>2024-08-31T10:50:43Z</time>
      </trkpt>
      <trkpt lat="42.69125" lon="1.39658">
        <ele>2238.708</ele>
        <time>2024-08-31T10:50:45Z</time>
      </trkpt>
      <trkpt lat="42.69125" lon="1.39658">
        <ele>2238.713</ele>
        <time>2024-08-31T10:50:47Z</time>
      </trkpt>
      <trkpt lat="42.69125" lon="1.39658">
        <ele>2238.715</ele>
        <time>2024-08-31T10:50:49Z</time>
      </trkpt>
      <trkpt lat="42.69125" lon="1.39658">
        <ele>2238.717</ele>
        <time>2024-08-31T10:50:51Z</time>
      </trkpt>
      <trkpt lat="42.69125" lon="1.39658">
        <ele>2238.721</ele>
        <time>2024-08-31T10:50:53Z</time>
      </trkpt>
      <trkpt lat="42.69125" lon="1.39658">
        <ele>2238.715</ele>
        <time>2024-08-31T10:50:55Z</time>
      </trkpt>
      <trkpt lat="42.69125" lon="1.39658">
        <ele>2238.705</ele>
        <time>2024-08-31T10:50:57Z</time>
      </trkpt>
      <trkpt lat="42.69125" lon="1.39658">
        <ele>2238.709</ele>
        <time>2024-08-31T10:50:59Z</time>
      </trkpt>
      <trkpt lat="42.69125" lon="1.39658">
        <ele>2238.718</ele>
        <time>2024-08-31T10:51:02Z</time>
      </trkpt>
      <trkpt lat="42.69125" lon="1.39658">
        <ele>2238.707</ele>
        <time>2024-08-31T10:51:04Z</time>
      </trkpt>
      <trkpt lat="42.69125" lon="1.39658">
        <ele>2238.699</ele>
        <time>2024-08-31T10:51:06Z</time>
      </trkpt>
      <trkpt lat="42.69125" lon="1.39658">
        <ele>2238.705</ele>
        <time>2024-08-31T10:51:08Z</time>
      </trkpt>
      <trkpt lat="42.69125" lon="1.39658">
        <ele>2238.717</ele>
        <time>2024-08-31T10:51:10Z</time>
      </trkpt>
      <trkpt lat="42.69125" lon="1.39658">
        <ele>2238.717</ele>
        <time>2024-08-31T10:51:12Z</time>
      </trkpt>
      <trkpt lat="42.69125" lon="1.39658">
        <ele>2238.711</ele>
        <time>2024-08-31T10:51:14Z</time>
      </trkpt>
      <trkpt lat="42.69125" lon="1.39658">
        <ele>2238.71</ele>
        <time>2024-08-31T10:51:16Z</time>
      </trkpt>
      <trkpt lat="42.69125" lon="1.39658">
        <ele>2238.708</ele>
        <time>2024-08-31T10:51:18Z</time>
      </trkpt>
      <trkpt lat="42.69125" lon="1.39658">
        <ele>2238.707</ele>
        <time>2024-08-31T10:51:20Z</time>
      </trkpt>
      <trkpt lat="42.69125" lon="1.39658">
        <ele>2238.71</ele>
        <time>2024-08-31T10:51:22Z</time>
      </trkpt>
      <trkpt lat="42.69125" lon="1.39658">
        <ele>2238.717</ele>
        <time>2024-08-31T10:51:24Z</time>
      </trkpt>
      <trkpt lat="42.69125" lon="1.39658">
        <ele>2238.727</ele>
        <time>2024-08-31T10:51:26Z</time>
      </trkpt>
      <trkpt lat="42.69125" lon="1.39658">
        <ele>2238.731</ele>
        <time>2024-08-31T10:51:28Z</time>
      </trkpt>
      <trkpt lat="42.69125" lon="1.39658">
        <ele>2238.734</ele>
        <time>2024-08-31T10:51:30Z</time>
      </trkpt>
      <trkpt lat="42.69125" lon="1.39658">
        <ele>2238.738</ele>
        <time>2024-08-31T10:51:32Z</time>
      </trkpt>
      <trkpt lat="42.69125" lon="1.39658">
        <ele>2238.744</ele>
        <time>2024-08-31T10:51:34Z</time>
      </trkpt>
      <trkpt lat="42.69125" lon="1.39658">
        <ele>2238.746</ele>
        <time>2024-08-31T10:51:36Z</time>
      </trkpt>
      <trkpt lat="42.69125" lon="1.39658">
        <ele>2238.743</ele>
        <time>2024-08-31T10:51:38Z</time>
      </trkpt>
      <trkpt lat="42.69125" lon="1.39658">
        <ele>2238.744</ele>
        <time>2024-08-31T10:51:40Z</time>
      </trkpt>
      <trkpt lat="42.69125" lon="1.39658">
        <ele>2238.738</ele>
        <time>2024-08-31T10:51:42Z</time>
      </trkpt>
      <trkpt lat="42.69125" lon="1.39658">
        <ele>2238.74</ele>
        <time>2024-08-31T10:51:44Z</time>
      </trkpt>
      <trkpt lat="42.69125" lon="1.39658">
        <ele>2238.739</ele>
        <time>2024-08-31T10:51:46Z</time>
      </trkpt>
      <trkpt lat="42.69125" lon="1.39658">
        <ele>2238.741</ele>
        <time>2024-08-31T10:51:48Z</time>
      </trkpt>
      <trkpt lat="42.69125" lon="1.39658">
        <ele>2238.74</ele>
        <time>2024-08-31T10:51:50Z</time>
      </trkpt>
      <trkpt lat="42.69125" lon="1.39658">
        <ele>2238.745</ele>
        <time>2024-08-31T10:51:52Z</time>
      </trkpt>
      <trkpt lat="42.69125" lon="1.39658">
        <ele>2238.746</ele>
        <time>2024-08-31T10:51:54Z</time>
      </trkpt>
      <trkpt lat="42.69125" lon="1.39658">
        <ele>2238.741</ele>
        <time>2024-08-31T10:51:56Z</time>
      </trkpt>
      <trkpt lat="42.69125" lon="1.39658">
        <ele>2238.746</ele>
        <time>2024-08-31T10:51:58Z</time>
      </trkpt>
      <trkpt lat="42.69125" lon="1.39658">
        <ele>2238.75</ele>
        <time>2024-08-31T10:52:00Z</time>
      </trkpt>
      <trkpt lat="42.69125" lon="1.39658">
        <ele>2238.749</ele>
        <time>2024-08-31T10:52:02Z</time>
      </trkpt>
      <trkpt lat="42.69125" lon="1.39658">
        <ele>2239.044</ele>
        <time>2024-08-31T10:52:04Z</time>
      </trkpt>
      <trkpt lat="42.69125" lon="1.39658">
        <ele>2239.025</ele>
        <time>2024-08-31T10:52:06Z</time>
      </trkpt>
      <trkpt lat="42.69125" lon="1.39658">
        <ele>2238.383</ele>
        <time>2024-08-31T10:52:08Z</time>
      </trkpt>
      <trkpt lat="42.69125" lon="1.39658">
        <ele>2238.382</ele>
        <time>2024-08-31T10:52:10Z</time>
      </trkpt>
      <trkpt lat="42.69125" lon="1.39658">
        <ele>2238.381</ele>
        <time>2024-08-31T10:52:12Z</time>
      </trkpt>
      <trkpt lat="42.69125" lon="1.39658">
        <ele>2238.378</ele>
        <time>2024-08-31T10:52:14Z</time>
      </trkpt>
      <trkpt lat="42.69125" lon="1.39658">
        <ele>2238.421</ele>
        <time>2024-08-31T10:52:16Z</time>
      </trkpt>
      <trkpt lat="42.69125" lon="1.39658">
        <ele>2238.146</ele>
        <time>2024-08-31T10:52:18Z</time>
      </trkpt>
      <trkpt lat="42.69125" lon="1.39658">
        <ele>2238.14</ele>
        <time>2024-08-31T10:52:20Z</time>
      </trkpt>
      <trkpt lat="42.69125" lon="1.39658">
        <ele>2238.102</ele>
        <time>2024-08-31T10:52:22Z</time>
      </trkpt>
      <trkpt lat="42.69125" lon="1.39658">
        <ele>2238.11</ele>
        <time>2024-08-31T10:52:24Z</time>
      </trkpt>
      <trkpt lat="42.69125" lon="1.39658">
        <ele>2238.112</ele>
        <time>2024-08-31T10:52:26Z</time>
      </trkpt>
      <trkpt lat="42.69125" lon="1.39658">
        <ele>2238.483</ele>
        <time>2024-08-31T10:52:28Z</time>
      </trkpt>
      <trkpt lat="42.69125" lon="1.39658">
        <ele>2238.664</ele>
        <time>2024-08-31T10:52:30Z</time>
      </trkpt>
      <trkpt lat="42.69125" lon="1.39658">
        <ele>2237.892</ele>
        <time>2024-08-31T10:52:32Z</time>
      </trkpt>
      <trkpt lat="42.69125" lon="1.39658">
        <ele>2238.523</ele>
        <time>2024-08-31T10:52:34Z</time>
      </trkpt>
      <trkpt lat="42.69125" lon="1.39658">
        <ele>2239.117</ele>
        <time>2024-08-31T10:52:36Z</time>
      </trkpt>
      <trkpt lat="42.69125" lon="1.39658">
        <ele>2239.361</ele>
        <time>2024-08-31T10:52:38Z</time>
      </trkpt>
      <trkpt lat="42.69125" lon="1.39658">
        <ele>2239.369</ele>
        <time>2024-08-31T10:52:40Z</time>
      </trkpt>
      <trkpt lat="42.69125" lon="1.39658">
        <ele>2239.376</ele>
        <time>2024-08-31T10:52:42Z</time>
      </trkpt>
      <trkpt lat="42.69125" lon="1.39658">
        <ele>2239.378</ele>
        <time>2024-08-31T10:52:44Z</time>
      </trkpt>
      <trkpt lat="42.69125" lon="1.39658">
        <ele>2239.046</ele>
        <time>2024-08-31T10:52:46Z</time>
      </trkpt>
      <trkpt lat="42.69125" lon="1.39658">
        <ele>2238.796</ele>
        <time>2024-08-31T10:52:48Z</time>
      </trkpt>
      <trkpt lat="42.69125" lon="1.39658">
        <ele>2238.464</ele>
        <time>2024-08-31T10:52:50Z</time>
      </trkpt>
      <trkpt lat="42.69125" lon="1.39658">
        <ele>2236.587</ele>
        <time>2024-08-31T10:52:52Z</time>
      </trkpt>
      <trkpt lat="42.69125" lon="1.39658">
        <ele>2236.696</ele>
        <time>2024-08-31T10:52:54Z</time>
      </trkpt>
      <trkpt lat="42.69125" lon="1.39658">
        <ele>2237.225</ele>
        <time>2024-08-31T10:52:56Z</time>
      </trkpt>
      <trkpt lat="42.69125" lon="1.39658">
        <ele>2238.538</ele>
        <time>2024-08-31T10:52:58Z</time>
      </trkpt>
      <trkpt lat="42.69125" lon="1.39658">
        <ele>2238.471</ele>
        <time>2024-08-31T10:53:00Z</time>
      </trkpt>
      <trkpt lat="42.69125" lon="1.39658">
        <ele>2238.45</ele>
        <time>2024-08-31T10:53:02Z</time>
      </trkpt>
      <trkpt lat="42.69125" lon="1.39658">
        <ele>2238.447</ele>
        <time>2024-08-31T10:53:04Z</time>
      </trkpt>
      <trkpt lat="42.69125" lon="1.39658">
        <ele>2238.455</ele>
        <time>2024-08-31T10:53:06Z</time>
      </trkpt>
      <trkpt lat="42.69125" lon="1.39658">
        <ele>2238.452</ele>
        <time>2024-08-31T10:53:08Z</time>
      </trkpt>
      <trkpt lat="42.69125" lon="1.39658">
        <ele>2238.445</ele>
        <time>2024-08-31T10:53:10Z</time>
      </trkpt>
      <trkpt lat="42.69125" lon="1.39658">
        <ele>2239.032</ele>
        <time>2024-08-31T10:53:12Z</time>
      </trkpt>
      <trkpt lat="42.69125" lon="1.39658">
        <ele>2239.032</ele>
        <time>2024-08-31T10:53:14Z</time>
      </trkpt>
      <trkpt lat="42.69125" lon="1.39658">
        <ele>2239.036</ele>
        <time>2024-08-31T10:53:16Z</time>
      </trkpt>
      <trkpt lat="42.69125" lon="1.39658">
        <ele>2239.029</ele>
        <time>2024-08-31T10:53:18Z</time>
      </trkpt>
      <trkpt lat="42.69125" lon="1.39658">
        <ele>2239.232</ele>
        <time>2024-08-31T10:53:20Z</time>
      </trkpt>
      <trkpt lat="42.69125" lon="1.39658">
        <ele>2239.243</ele>
        <time>2024-08-31T10:53:22Z</time>
      </trkpt>
      <trkpt lat="42.69125" lon="1.39658">
        <ele>2239.245</ele>
        <time>2024-08-31T10:53:24Z</time>
      </trkpt>
      <trkpt lat="42.69125" lon="1.39658">
        <ele>2239.246</ele>
        <time>2024-08-31T10:53:26Z</time>
      </trkpt>
      <trkpt lat="42.69125" lon="1.39658">
        <ele>2239.249</ele>
        <time>2024-08-31T10:53:28Z</time>
      </trkpt>
      <trkpt lat="42.69125" lon="1.39658">
        <ele>2239.257</ele>
        <time>2024-08-31T10:53:30Z</time>
      </trkpt>
      <trkpt lat="42.69125" lon="1.39658">
        <ele>2239.263</ele>
        <time>2024-08-31T10:53:32Z</time>
      </trkpt>
      <trkpt lat="42.69125" lon="1.39658">
        <ele>2239.274</ele>
        <time>2024-08-31T10:53:34Z</time>
      </trkpt>
      <trkpt lat="42.69125" lon="1.39658">
        <ele>2239.284</ele>
        <time>2024-08-31T10:53:36Z</time>
      </trkpt>
      <trkpt lat="42.69125" lon="1.39658">
        <ele>2239.294</ele>
        <time>2024-08-31T10:53:38Z</time>
      </trkpt>
      <trkpt lat="42.69125" lon="1.39658">
        <ele>2239.295</ele>
        <time>2024-08-31T10:53:40Z</time>
      </trkpt>
      <trkpt lat="42.69125" lon="1.39658">
        <ele>2239.278</ele>
        <time>2024-08-31T10:53:42Z</time>
      </trkpt>
      <trkpt lat="42.69125" lon="1.39658">
        <ele>2239.283</ele>
        <time>2024-08-31T10:53:44Z</time>
      </trkpt>
      <trkpt lat="42.69125" lon="1.39658">
        <ele>2239.291</ele>
        <time>2024-08-31T10:53:46Z</time>
      </trkpt>
      <trkpt lat="42.69125" lon="1.39658">
        <ele>2239.294</ele>
        <time>2024-08-31T10:53:48Z</time>
      </trkpt>
      <trkpt lat="42.69125" lon="1.39658">
        <ele>2239.305</ele>
        <time>2024-08-31T10:53:50Z</time>
      </trkpt>
      <trkpt lat="42.69125" lon="1.39658">
        <ele>2239.306</ele>
        <time>2024-08-31T10:53:52Z</time>
      </trkpt>
      <trkpt lat="42.69125" lon="1.39658">
        <ele>2239.297</ele>
        <time>2024-08-31T10:53:54Z</time>
      </trkpt>
      <trkpt lat="42.69125" lon="1.39658">
        <ele>2239.295</ele>
        <time>2024-08-31T10:53:56Z</time>
      </trkpt>
      <trkpt lat="42.69125" lon="1.39658">
        <ele>2239.299</ele>
        <time>2024-08-31T10:53:58Z</time>
      </trkpt>
      <trkpt lat="42.69125" lon="1.39658">
        <ele>2239.303</ele>
        <time>2024-08-31T10:54:00Z</time>
      </trkpt>
      <trkpt lat="42.69125" lon="1.39658">
        <ele>2239.315</ele>
        <time>2024-08-31T10:54:02Z</time>
      </trkpt>
      <trkpt lat="42.69125" lon="1.39658">
        <ele>2239.31</ele>
        <time>2024-08-31T10:54:04Z</time>
      </trkpt>
      <trkpt lat="42.69125" lon="1.39658">
        <ele>2239.299</ele>
        <time>2024-08-31T10:54:06Z</time>
      </trkpt>
      <trkpt lat="42.69125" lon="1.39658">
        <ele>2239.294</ele>
        <time>2024-08-31T10:54:08Z</time>
      </trkpt>
      <trkpt lat="42.69125" lon="1.39658">
        <ele>2239.288</ele>
        <time>2024-08-31T10:54:10Z</time>
      </trkpt>
      <trkpt lat="42.69125" lon="1.39658">
        <ele>2238.876</ele>
        <time>2024-08-31T10:54:12Z</time>
      </trkpt>
      <trkpt lat="42.69125" lon="1.39658">
        <ele>2238.869</ele>
        <time>2024-08-31T10:54:14Z</time>
      </trkpt>
      <trkpt lat="42.69125" lon="1.39658">
        <ele>2238.871</ele>
        <time>2024-08-31T10:54:16Z</time>
      </trkpt>
      <trkpt lat="42.69125" lon="1.39658">
        <ele>2238.738</ele>
        <time>2024-08-31T10:54:18Z</time>
      </trkpt>
      <trkpt lat="42.69125" lon="1.39658">
        <ele>2238.736</ele>
        <time>2024-08-31T10:54:20Z</time>
      </trkpt>
      <trkpt lat="42.69125" lon="1.39658">
        <ele>2238.748</ele>
        <time>2024-08-31T10:54:22Z</time>
      </trkpt>
      <trkpt lat="42.69125" lon="1.39658">
        <ele>2238.741</ele>
        <time>2024-08-31T10:54:24Z</time>
      </trkpt>
      <trkpt lat="42.69125" lon="1.39658">
        <ele>2238.722</ele>
        <time>2024-08-31T10:54:26Z</time>
      </trkpt>
      <trkpt lat="42.69125" lon="1.39658">
        <ele>2238.725</ele>
        <time>2024-08-31T10:54:28Z</time>
      </trkpt>
      <trkpt lat="42.69125" lon="1.39658">
        <ele>2238.265</ele>
        <time>2024-08-31T10:54:30Z</time>
      </trkpt>
      <trkpt lat="42.69125" lon="1.39658">
        <ele>2238.433</ele>
        <time>2024-08-31T10:54:32Z</time>
      </trkpt>
      <trkpt lat="42.69125" lon="1.39658">
        <ele>2238.214</ele>
        <time>2024-08-31T10:54:34Z</time>
      </trkpt>
      <trkpt lat="42.69125" lon="1.39658">
        <ele>2237.223</ele>
        <time>2024-08-31T10:54:36Z</time>
      </trkpt>
      <trkpt lat="42.69125" lon="1.39658">
        <ele>2239.657</ele>
        <time>2024-08-31T10:54:38Z</time>
      </trkpt>
      <trkpt lat="42.69125" lon="1.39658">
        <ele>2239.152</ele>
        <time>2024-08-31T10:54:40Z</time>
      </trkpt>
      <trkpt lat="42.69125" lon="1.39658">
        <ele>2239.375</ele>
        <time>2024-08-31T10:54:42Z</time>
      </trkpt>
      <trkpt lat="42.69125" lon="1.39658">
        <ele>2240.042</ele>
        <time>2024-08-31T10:54:44Z</time>
      </trkpt>
      <trkpt lat="42.69125" lon="1.39658">
        <ele>2239.669</ele>
        <time>2024-08-31T10:54:46Z</time>
      </trkpt>
      <trkpt lat="42.69125" lon="1.39658">
        <ele>2238.763</ele>
        <time>2024-08-31T10:54:48Z</time>
      </trkpt>
      <trkpt lat="42.69125" lon="1.39658">
        <ele>2238.231</ele>
        <time>2024-08-31T10:54:50Z</time>
      </trkpt>
      <trkpt lat="42.69125" lon="1.39658">
        <ele>2237.484</ele>
        <time>2024-08-31T10:54:52Z</time>
      </trkpt>
      <trkpt lat="42.69125" lon="1.39658">
        <ele>2236.11</ele>
        <time>2024-08-31T10:54:54Z</time>
      </trkpt>
      <trkpt lat="42.69125" lon="1.39658">
        <ele>2237.389</ele>
        <time>2024-08-31T10:54:56Z</time>
      </trkpt>
      <trkpt lat="42.69125" lon="1.39658">
        <ele>2239.282</ele>
        <time>2024-08-31T10:54:58Z</time>
      </trkpt>
      <trkpt lat="42.69125" lon="1.39658">
        <ele>2239.351</ele>
        <time>2024-08-31T10:55:00Z</time>
      </trkpt>
      <trkpt lat="42.69125" lon="1.39658">
        <ele>2239.351</ele>
        <time>2024-08-31T10:55:02Z</time>
      </trkpt>
      <trkpt lat="42.69125" lon="1.39658">
        <ele>2239.334</ele>
        <time>2024-08-31T10:55:04Z</time>
      </trkpt>
      <trkpt lat="42.69125" lon="1.39658">
        <ele>2239.318</ele>
        <time>2024-08-31T10:55:06Z</time>
      </trkpt>
      <trkpt lat="42.69125" lon="1.39658">
        <ele>2239.315</ele>
        <time>2024-08-31T10:55:08Z</time>
      </trkpt>
      <trkpt lat="42.69125" lon="1.39658">
        <ele>2239.31</ele>
        <time>2024-08-31T10:55:10Z</time>
      </trkpt>
      <trkpt lat="42.69125" lon="1.39658">
        <ele>2239.296</ele>
        <time>2024-08-31T10:55:12Z</time>
      </trkpt>
      <trkpt lat="42.69125" lon="1.39658">
        <ele>2239.284</ele>
        <time>2024-08-31T10:55:14Z</time>
      </trkpt>
      <trkpt lat="42.69125" lon="1.39658">
        <ele>2239.273</ele>
        <time>2024-08-31T10:55:16Z</time>
      </trkpt>
      <trkpt lat="42.69125" lon="1.39658">
        <ele>2239.278</ele>
        <time>2024-08-31T10:55:18Z</time>
      </trkpt>
      <trkpt lat="42.69125" lon="1.39658">
        <ele>2239.26</ele>
        <time>2024-08-31T10:55:20Z</time>
      </trkpt>
      <trkpt lat="42.69125" lon="1.39658">
        <ele>2239.241</ele>
        <time>2024-08-31T10:55:22Z</time>
      </trkpt>
      <trkpt lat="42.69117" lon="1.39673">
        <ele>2239.199</ele>
        <time>2024-08-31T10:55:24Z</time>
      </trkpt>
      <trkpt lat="42.69118" lon="1.39673">
        <ele>2239.104</ele>
        <time>2024-08-31T10:55:26Z</time>
      </trkpt>
      <trkpt lat="42.69118" lon="1.39674">
        <ele>2236.96</ele>
        <time>2024-08-31T10:55:28Z</time>
      </trkpt>
      <trkpt lat="42.69119" lon="1.39676">
        <ele>2235.966</ele>
        <time>2024-08-31T10:55:30Z</time>
      </trkpt>
      <trkpt lat="42.69121" lon="1.39676">
        <ele>2238.338</ele>
        <time>2024-08-31T10:55:32Z</time>
      </trkpt>
      <trkpt lat="42.69123" lon="1.39678">
        <ele>2238.218</ele>
        <time>2024-08-31T10:55:34Z</time>
      </trkpt>
      <trkpt lat="42.69126" lon="1.39678">
        <ele>2237.886</ele>
        <time>2024-08-31T10:55:36Z</time>
      </trkpt>
      <trkpt lat="42.69128" lon="1.39679">
        <ele>2237.6</ele>
        <time>2024-08-31T10:55:38Z</time>
      </trkpt>
      <trkpt lat="42.69129" lon="1.39681">
        <ele>2237.452</ele>
        <time>2024-08-31T10:55:40Z</time>
      </trkpt>
      <trkpt lat="42.6913" lon="1.39683">
        <ele>2236.866</ele>
        <time>2024-08-31T10:55:42Z</time>
      </trkpt>
      <trkpt lat="42.6913" lon="1.39686">
        <ele>2236.692</ele>
        <time>2024-08-31T10:55:44Z</time>
      </trkpt>
      <trkpt lat="42.69131" lon="1.39688">
        <ele>2236.446</ele>
        <time>2024-08-31T10:55:46Z</time>
      </trkpt>
      <trkpt lat="42.69132" lon="1.3969">
        <ele>2236.36</ele>
        <time>2024-08-31T10:55:48Z</time>
      </trkpt>
      <trkpt lat="42.69133" lon="1.39692">
        <ele>2236.074</ele>
        <time>2024-08-31T10:55:50Z</time>
      </trkpt>
      <trkpt lat="42.69133" lon="1.39695">
        <ele>2236.41</ele>
        <time>2024-08-31T10:55:52Z</time>
      </trkpt>
      <trkpt lat="42.69132" lon="1.39698">
        <ele>2236.021</ele>
        <time>2024-08-31T10:55:54Z</time>
      </trkpt>
      <trkpt lat="42.69132" lon="1.39701">
        <ele>2235.915</ele>
        <time>2024-08-31T10:55:56Z</time>
      </trkpt>
      <trkpt lat="42.69132" lon="1.39704">
        <ele>2235.761</ele>
        <time>2024-08-31T10:55:58Z</time>
      </trkpt>
      <trkpt lat="42.69132" lon="1.39706">
        <ele>2236.296</ele>
        <time>2024-08-31T10:56:00Z</time>
      </trkpt>
      <trkpt lat="42.69132" lon="1.39708">
        <ele>2236.642</ele>
        <time>2024-08-31T10:56:02Z</time>
      </trkpt>
      <trkpt lat="42.69133" lon="1.39711">
        <ele>2235.995</ele>
        <time>2024-08-31T10:56:04Z</time>
      </trkpt>
      <trkpt lat="42.69133" lon="1.39714">
        <ele>2236.908</ele>
        <time>2024-08-31T10:56:06Z</time>
      </trkpt>
      <trkpt lat="42.69134" lon="1.39716">
        <ele>2236.911</ele>
        <time>2024-08-31T10:56:08Z</time>
      </trkpt>
      <trkpt lat="42.69134" lon="1.39718">
        <ele>2237.337</ele>
        <time>2024-08-31T10:56:10Z</time>
      </trkpt>
      <trkpt lat="42.69134" lon="1.39721">
        <ele>2237.321</ele>
        <time>2024-08-31T10:56:12Z</time>
      </trkpt>
      <trkpt lat="42.69133" lon="1.39723">
        <ele>2236.811</ele>
        <time>2024-08-31T10:56:14Z</time>
      </trkpt>
      <trkpt lat="42.69133" lon="1.39726">
        <ele>2236.795</ele>
        <time>2024-08-31T10:56:16Z</time>
      </trkpt>
      <trkpt lat="42.69133" lon="1.39729">
        <ele>2237.148</ele>
        <time>2024-08-31T10:56:18Z</time>
      </trkpt>
      <trkpt lat="42.69133" lon="1.39731">
        <ele>2237.421</ele>
        <time>2024-08-31T10:56:20Z</time>
      </trkpt>
      <trkpt lat="42.69132" lon="1.39733">
        <ele>2237.561</ele>
        <time>2024-08-31T10:56:22Z</time>
      </trkpt>
      <trkpt lat="42.69132" lon="1.39736">
        <ele>2237.313</ele>
        <time>2024-08-31T10:56:24Z</time>
      </trkpt>
      <trkpt lat="42.69132" lon="1.39736">
        <ele>2237.53</ele>
        <time>2024-08-31T10:56:26Z</time>
      </trkpt>
      <trkpt lat="42.69132" lon="1.39736">
        <ele>2237.668</ele>
        <time>2024-08-31T10:56:28Z</time>
      </trkpt>
      <trkpt lat="42.69132" lon="1.39736">
        <ele>2237.644</ele>
        <time>2024-08-31T10:56:30Z</time>
      </trkpt>
      <trkpt lat="42.69132" lon="1.39736">
        <ele>2237.634</ele>
        <time>2024-08-31T10:56:32Z</time>
      </trkpt>
      <trkpt lat="42.69132" lon="1.39736">
        <ele>2237.649</ele>
        <time>2024-08-31T10:56:34Z</time>
      </trkpt>
      <trkpt lat="42.69132" lon="1.39736">
        <ele>2237.667</ele>
        <time>2024-08-31T10:56:36Z</time>
      </trkpt>
      <trkpt lat="42.69132" lon="1.39736">
        <ele>2237.681</ele>
        <time>2024-08-31T10:56:38Z</time>
      </trkpt>
      <trkpt lat="42.69132" lon="1.39736">
        <ele>2238.718</ele>
        <time>2024-08-31T10:56:40Z</time>
      </trkpt>
      <trkpt lat="42.69132" lon="1.39736">
        <ele>2238.72</ele>
        <time>2024-08-31T10:56:42Z</time>
      </trkpt>
      <trkpt lat="42.69132" lon="1.39736">
        <ele>2238.735</ele>
        <time>2024-08-31T10:56:44Z</time>
      </trkpt>
      <trkpt lat="42.69132" lon="1.39736">
        <ele>2238.736</ele>
        <time>2024-08-31T10:56:46Z</time>
      </trkpt>
      <trkpt lat="42.69132" lon="1.39736">
        <ele>2238.744</ele>
        <time>2024-08-31T10:56:48Z</time>
      </trkpt>
      <trkpt lat="42.69132" lon="1.39736">
        <ele>2238.749</ele>
        <time>2024-08-31T10:56:50Z</time>
      </trkpt>
      <trkpt lat="42.69132" lon="1.39736">
        <ele>2238.76</ele>
        <time>2024-08-31T10:56:52Z</time>
      </trkpt>
      <trkpt lat="42.69132" lon="1.39736">
        <ele>2238.78</ele>
        <time>2024-08-31T10:56:54Z</time>
      </trkpt>
      <trkpt lat="42.69132" lon="1.39736">
        <ele>2239.688</ele>
        <time>2024-08-31T10:56:56Z</time>
      </trkpt>
      <trkpt lat="42.69132" lon="1.39736">
        <ele>2240.225</ele>
        <time>2024-08-31T10:56:58Z</time>
      </trkpt>
      <trkpt lat="42.69132" lon="1.39736">
        <ele>2240.52</ele>
        <time>2024-08-31T10:57:00Z</time>
      </trkpt>
      <trkpt lat="42.69132" lon="1.39736">
        <ele>2240.523</ele>
        <time>2024-08-31T10:57:02Z</time>
      </trkpt>
      <trkpt lat="42.69132" lon="1.39736">
        <ele>2240.527</ele>
        <time>2024-08-31T10:57:04Z</time>
      </trkpt>
      <trkpt lat="42.69132" lon="1.39736">
        <ele>2240.497</ele>
        <time>2024-08-31T10:57:06Z</time>
      </trkpt>
      <trkpt lat="42.69132" lon="1.39736">
        <ele>2240.513</ele>
        <time>2024-08-31T10:57:08Z</time>
      </trkpt>
      <trkpt lat="42.69132" lon="1.39736">
        <ele>2240.518</ele>
        <time>2024-08-31T10:57:10Z</time>
      </trkpt>
      <trkpt lat="42.69132" lon="1.39736">
        <ele>2240.524</ele>
        <time>2024-08-31T10:57:12Z</time>
      </trkpt>
      <trkpt lat="42.69132" lon="1.39736">
        <ele>2240.524</ele>
        <time>2024-08-31T10:57:14Z</time>
      </trkpt>
      <trkpt lat="42.69132" lon="1.39736">
        <ele>2240.518</ele>
        <time>2024-08-31T10:57:16Z</time>
      </trkpt>
      <trkpt lat="42.69132" lon="1.39736">
        <ele>2239.992</ele>
        <time>2024-08-31T10:57:18Z</time>
      </trkpt>
      <trkpt lat="42.69132" lon="1.39736">
        <ele>2239.984</ele>
        <time>2024-08-31T10:57:20Z</time>
      </trkpt>
      <trkpt lat="42.69132" lon="1.39736">
        <ele>2239.985</ele>
        <time>2024-08-31T10:57:22Z</time>
      </trkpt>
      <trkpt lat="42.69132" lon="1.39736">
        <ele>2239.983</ele>
        <time>2024-08-31T10:57:24Z</time>
      </trkpt>
      <trkpt lat="42.69132" lon="1.39736">
        <ele>2240.065</ele>
        <time>2024-08-31T10:57:26Z</time>
      </trkpt>
      <trkpt lat="42.69132" lon="1.39736">
        <ele>2240.017</ele>
        <time>2024-08-31T10:57:28Z</time>
      </trkpt>
      <trkpt lat="42.69132" lon="1.39736">
        <ele>2239.977</ele>
        <time>2024-08-31T10:57:30Z</time>
      </trkpt>
      <trkpt lat="42.69132" lon="1.39736">
        <ele>2239.962</ele>
        <time>2024-08-31T10:57:32Z</time>
      </trkpt>
      <trkpt lat="42.69132" lon="1.39736">
        <ele>2239.953</ele>
        <time>2024-08-31T10:57:34Z</time>
      </trkpt>
      <trkpt lat="42.69132" lon="1.39736">
        <ele>2239.958</ele>
        <time>2024-08-31T10:57:36Z</time>
      </trkpt>
      <trkpt lat="42.69132" lon="1.39736">
        <ele>2240.145</ele>
        <time>2024-08-31T10:57:38Z</time>
      </trkpt>
      <trkpt lat="42.69132" lon="1.39736">
        <ele>2240.553</ele>
        <time>2024-08-31T10:57:40Z</time>
      </trkpt>
      <trkpt lat="42.69132" lon="1.39736">
        <ele>2241.233</ele>
        <time>2024-08-31T10:57:42Z</time>
      </trkpt>
      <trkpt lat="42.69132" lon="1.39736">
        <ele>2241.27</ele>
        <time>2024-08-31T10:57:44Z</time>
      </trkpt>
      <trkpt lat="42.69132" lon="1.39736">
        <ele>2241.269</ele>
        <time>2024-08-31T10:57:46Z</time>
      </trkpt>
      <trkpt lat="42.69132" lon="1.39736">
        <ele>2241.283</ele>
        <time>2024-08-31T10:57:48Z</time>
      </trkpt>
      <trkpt lat="42.69132" lon="1.39736">
        <ele>2241.321</ele>
        <time>2024-08-31T10:57:50Z</time>
      </trkpt>
      <trkpt lat="42.69132" lon="1.39736">
        <ele>2241.318</ele>
        <time>2024-08-31T10:57:52Z</time>
      </trkpt>
      <trkpt lat="42.69132" lon="1.39736">
        <ele>2241.32</ele>
        <time>2024-08-31T10:57:54Z</time>
      </trkpt>
      <trkpt lat="42.69132" lon="1.39736">
        <ele>2241.325</ele>
        <time>2024-08-31T10:57:56Z</time>
      </trkpt>
      <trkpt lat="42.69132" lon="1.39736">
        <ele>2241.328</ele>
        <time>2024-08-31T10:57:58Z</time>
      </trkpt>
      <trkpt lat="42.69132" lon="1.39736">
        <ele>2241.333</ele>
        <time>2024-08-31T10:58:00Z</time>
      </trkpt>
      <trkpt lat="42.69132" lon="1.39736">
        <ele>2241.325</ele>
        <time>2024-08-31T10:58:02Z</time>
      </trkpt>
      <trkpt lat="42.69132" lon="1.39736">
        <ele>2241.314</ele>
        <time>2024-08-31T10:58:04Z</time>
      </trkpt>
      <trkpt lat="42.69132" lon="1.39736">
        <ele>2241.318</ele>
        <time>2024-08-31T10:58:06Z</time>
      </trkpt>
      <trkpt lat="42.69132" lon="1.39736">
        <ele>2241.322</ele>
        <time>2024-08-31T10:58:08Z</time>
      </trkpt>
      <trkpt lat="42.69132" lon="1.39736">
        <ele>2241.335</ele>
        <time>2024-08-31T10:58:10Z</time>
      </trkpt>
      <trkpt lat="42.69132" lon="1.39736">
        <ele>2241.338</ele>
        <time>2024-08-31T10:58:12Z</time>
      </trkpt>
      <trkpt lat="42.69132" lon="1.39736">
        <ele>2241.335</ele>
        <time>2024-08-31T10:58:14Z</time>
      </trkpt>
      <trkpt lat="42.69132" lon="1.39736">
        <ele>2241.334</ele>
        <time>2024-08-31T10:58:16Z</time>
      </trkpt>
      <trkpt lat="42.69132" lon="1.39736">
        <ele>2241.342</ele>
        <time>2024-08-31T10:58:18Z</time>
      </trkpt>
      <trkpt lat="42.69132" lon="1.39736">
        <ele>2241.334</ele>
        <time>2024-08-31T10:58:20Z</time>
      </trkpt>
      <trkpt lat="42.69132" lon="1.39736">
        <ele>2241.332</ele>
        <time>2024-08-31T10:58:22Z</time>
      </trkpt>
      <trkpt lat="42.69132" lon="1.39736">
        <ele>2241.335</ele>
        <time>2024-08-31T10:58:24Z</time>
      </trkpt>
      <trkpt lat="42.69132" lon="1.39736">
        <ele>2241.329</ele>
        <time>2024-08-31T10:58:26Z</time>
      </trkpt>
      <trkpt lat="42.69132" lon="1.39736">
        <ele>2241.33</ele>
        <time>2024-08-31T10:58:28Z</time>
      </trkpt>
      <trkpt lat="42.69132" lon="1.39736">
        <ele>2241.337</ele>
        <time>2024-08-31T10:58:30Z</time>
      </trkpt>
      <trkpt lat="42.69132" lon="1.39736">
        <ele>2241.337</ele>
        <time>2024-08-31T10:58:32Z</time>
      </trkpt>
      <trkpt lat="42.69132" lon="1.39736">
        <ele>2241.334</ele>
        <time>2024-08-31T10:58:34Z</time>
      </trkpt>
      <trkpt lat="42.69132" lon="1.39736">
        <ele>2241.33</ele>
        <time>2024-08-31T10:58:36Z</time>
      </trkpt>
      <trkpt lat="42.69132" lon="1.39736">
        <ele>2241.329</ele>
        <time>2024-08-31T10:58:38Z</time>
      </trkpt>
      <trkpt lat="42.69132" lon="1.39736">
        <ele>2241.335</ele>
        <time>2024-08-31T10:58:40Z</time>
      </trkpt>
      <trkpt lat="42.69132" lon="1.39736">
        <ele>2241.339</ele>
        <time>2024-08-31T10:58:42Z</time>
      </trkpt>
      <trkpt lat="42.69132" lon="1.39736">
        <ele>2241.338</ele>
        <time>2024-08-31T10:58:44Z</time>
      </trkpt>
      <trkpt lat="42.69132" lon="1.39736">
        <ele>2241.339</ele>
        <time>2024-08-31T10:58:46Z</time>
      </trkpt>
      <trkpt lat="42.69132" lon="1.39736">
        <ele>2241.35</ele>
        <time>2024-08-31T10:58:48Z</time>
      </trkpt>
      <trkpt lat="42.69132" lon="1.39736">
        <ele>2241.348</ele>
        <time>2024-08-31T10:58:50Z</time>
      </trkpt>
      <trkpt lat="42.69132" lon="1.39736">
        <ele>2241.343</ele>
        <time>2024-08-31T10:58:52Z</time>
      </trkpt>
      <trkpt lat="42.69132" lon="1.39736">
        <ele>2241.35</ele>
        <time>2024-08-31T10:58:54Z</time>
      </trkpt>
      <trkpt lat="42.69132" lon="1.39736">
        <ele>2241.352</ele>
        <time>2024-08-31T10:58:56Z</time>
      </trkpt>
      <trkpt lat="42.69132" lon="1.39736">
        <ele>2241.353</ele>
        <time>2024-08-31T10:58:58Z</time>
      </trkpt>
      <trkpt lat="42.69132" lon="1.39736">
        <ele>2241.794</ele>
        <time>2024-08-31T10:59:00Z</time>
      </trkpt>
      <trkpt lat="42.69132" lon="1.39736">
        <ele>2241.856</ele>
        <time>2024-08-31T10:59:02Z</time>
      </trkpt>
      <trkpt lat="42.69132" lon="1.39736">
        <ele>2241.854</ele>
        <time>2024-08-31T10:59:04Z</time>
      </trkpt>
      <trkpt lat="42.69132" lon="1.39736">
        <ele>2241.861</ele>
        <time>2024-08-31T10:59:06Z</time>
      </trkpt>
      <trkpt lat="42.69132" lon="1.39736">
        <ele>2242.038</ele>
        <time>2024-08-31T10:59:08Z</time>
      </trkpt>
      <trkpt lat="42.69132" lon="1.39736">
        <ele>2241.125</ele>
        <time>2024-08-31T10:59:10Z</time>
      </trkpt>
      <trkpt lat="42.69132" lon="1.39736">
        <ele>2240.342</ele>
        <time>2024-08-31T10:59:12Z</time>
      </trkpt>
      <trkpt lat="42.69132" lon="1.39736">
        <ele>2240.495</ele>
        <time>2024-08-31T10:59:14Z</time>
      </trkpt>
      <trkpt lat="42.69132" lon="1.39736">
        <ele>2241.595</ele>
        <time>2024-08-31T10:59:16Z</time>
      </trkpt>
      <trkpt lat="42.69132" lon="1.39736">
        <ele>2241.402</ele>
        <time>2024-08-31T10:59:18Z</time>
      </trkpt>
      <trkpt lat="42.69132" lon="1.39736">
        <ele>2241.596</ele>
        <time>2024-08-31T10:59:20Z</time>
      </trkpt>
      <trkpt lat="42.69132" lon="1.39736">
        <ele>2241.85</ele>
        <time>2024-08-31T10:59:22Z</time>
      </trkpt>
      <trkpt lat="42.69132" lon="1.39736">
        <ele>2243.309</ele>
        <time>2024-08-31T10:59:24Z</time>
      </trkpt>
      <trkpt lat="42.69132" lon="1.39736">
        <ele>2242.903</ele>
        <time>2024-08-31T10:59:26Z</time>
      </trkpt>
      <trkpt lat="42.69132" lon="1.39736">
        <ele>2243.855</ele>
        <time>2024-08-31T10:59:28Z</time>
      </trkpt>
      <trkpt lat="42.69132" lon="1.39754">
        <ele>2243.388</ele>
        <time>2024-08-31T10:59:30Z</time>
      </trkpt>
      <trkpt lat="42.69131" lon="1.39755">
        <ele>2243.002</ele>
        <time>2024-08-31T10:59:32Z</time>
      </trkpt>
      <trkpt lat="42.6913" lon="1.39756">
        <ele>2242.496</ele>
        <time>2024-08-31T10:59:34Z</time>
      </trkpt>
      <trkpt lat="42.69129" lon="1.39759">
        <ele>2241.174</ele>
        <time>2024-08-31T10:59:36Z</time>
      </trkpt>
      <trkpt lat="42.69128" lon="1.39761">
        <ele>2241.208</ele>
        <time>2024-08-31T10:59:38Z</time>
      </trkpt>
      <trkpt lat="42.69128" lon="1.39763">
        <ele>2240.26</ele>
        <time>2024-08-31T10:59:40Z</time>
      </trkpt>
      <trkpt lat="42.69128" lon="1.39765">
        <ele>2239.51</ele>
        <time>2024-08-31T10:59:42Z</time>
      </trkpt>
      <trkpt lat="42.69127" lon="1.39768">
        <ele>2238.652</ele>
        <time>2024-08-31T10:59:44Z</time>
      </trkpt>
      <trkpt lat="42.69127" lon="1.3977">
        <ele>2239.088</ele>
        <time>2024-08-31T10:59:46Z</time>
      </trkpt>
      <trkpt lat="42.69127" lon="1.39772">
        <ele>2238.802</ele>
        <time>2024-08-31T10:59:48Z</time>
      </trkpt>
      <trkpt lat="42.69127" lon="1.39775">
        <ele>2237.395</ele>
        <time>2024-08-31T10:59:50Z</time>
      </trkpt>
      <trkpt lat="42.69128" lon="1.39778">
        <ele>2236.203</ele>
        <time>2024-08-31T10:59:52Z</time>
      </trkpt>
      <trkpt lat="42.69127" lon="1.3978">
        <ele>2235.422</ele>
        <time>2024-08-31T10:59:54Z</time>
      </trkpt>
      <trkpt lat="42.69126" lon="1.39782">
        <ele>2234.089</ele>
        <time>2024-08-31T10:59:56Z</time>
      </trkpt>
      <trkpt lat="42.69126" lon="1.39785">
        <ele>2232.535</ele>
        <time>2024-08-31T10:59:58Z</time>
      </trkpt>
      <trkpt lat="42.69126" lon="1.39785">
        <ele>2231.755</ele>
        <time>2024-08-31T11:00:00Z</time>
      </trkpt>
      <trkpt lat="42.69126" lon="1.39785">
        <ele>2231.313</ele>
        <time>2024-08-31T11:00:02Z</time>
      </trkpt>
      <trkpt lat="42.69126" lon="1.39785">
        <ele>2231.32</ele>
        <time>2024-08-31T11:00:04Z</time>
      </trkpt>
      <trkpt lat="42.69126" lon="1.39785">
        <ele>2231.915</ele>
        <time>2024-08-31T11:00:06Z</time>
      </trkpt>
      <trkpt lat="42.69126" lon="1.39785">
        <ele>2231.823</ele>
        <time>2024-08-31T11:00:08Z</time>
      </trkpt>
      <trkpt lat="42.69124" lon="1.39787">
        <ele>2231.625</ele>
        <time>2024-08-31T11:00:10Z</time>
      </trkpt>
      <trkpt lat="42.69124" lon="1.39789">
        <ele>2230.839</ele>
        <time>2024-08-31T11:00:12Z</time>
      </trkpt>
      <trkpt lat="42.69123" lon="1.3979">
        <ele>2231.758</ele>
        <time>2024-08-31T11:00:14Z</time>
      </trkpt>
      <trkpt lat="42.69122" lon="1.39791">
        <ele>2231.127</ele>
        <time>2024-08-31T11:00:16Z</time>
      </trkpt>
      <trkpt lat="42.69123" lon="1.39792">
        <ele>2230.764</ele>
        <time>2024-08-31T11:00:18Z</time>
      </trkpt>
      <trkpt lat="42.69124" lon="1.39794">
        <ele>2231.032</ele>
        <time>2024-08-31T11:00:20Z</time>
      </trkpt>
      <trkpt lat="42.69124" lon="1.39796">
        <ele>2230.138</ele>
        <time>2024-08-31T11:00:22Z</time>
      </trkpt>
      <trkpt lat="42.69126" lon="1.39797">
        <ele>2229.836</ele>
        <time>2024-08-31T11:00:24Z</time>
      </trkpt>
      <trkpt lat="42.69127" lon="1.39798">
        <ele>2229.77</ele>
        <time>2024-08-31T11:00:26Z</time>
      </trkpt>
      <trkpt lat="42.69127" lon="1.398">
        <ele>2229.844</ele>
        <time>2024-08-31T11:00:28Z</time>
      </trkpt>
      <trkpt lat="42.69126" lon="1.39803">
        <ele>2229.718</ele>
        <time>2024-08-31T11:00:30Z</time>
      </trkpt>
      <trkpt lat="42.69126" lon="1.39806">
        <ele>2230.285</ele>
        <time>2024-08-31T11:00:32Z</time>
      </trkpt>
      <trkpt lat="42.69127" lon="1.39808">
        <ele>2229.617</ele>
        <time>2024-08-31T11:00:34Z</time>
      </trkpt>
      <trkpt lat="42.69127" lon="1.39811">
        <ele>2228.688</ele>
        <time>2024-08-31T11:00:36Z</time>
      </trkpt>
      <trkpt lat="42.69128" lon="1.39812">
        <ele>2227.883</ele>
        <time>2024-08-31T11:00:38Z</time>
      </trkpt>
      <trkpt lat="42.69128" lon="1.39813">
        <ele>2227.126</ele>
        <time>2024-08-31T11:00:40Z</time>
      </trkpt>
      <trkpt lat="42.69128" lon="1.39815">
        <ele>2227.313</ele>
        <time>2024-08-31T11:00:42Z</time>
      </trkpt>
      <trkpt lat="42.69129" lon="1.39816">
        <ele>2226.32</ele>
        <time>2024-08-31T11:00:44Z</time>
      </trkpt>
      <trkpt lat="42.6913" lon="1.39817">
        <ele>2225.625</ele>
        <time>2024-08-31T11:00:46Z</time>
      </trkpt>
      <trkpt lat="42.69131" lon="1.39818">
        <ele>2225.046</ele>
        <time>2024-08-31T11:00:48Z</time>
      </trkpt>
      <trkpt lat="42.69132" lon="1.39819">
        <ele>2224.627</ele>
        <time>2024-08-31T11:00:50Z</time>
      </trkpt>
      <trkpt lat="42.69132" lon="1.3982">
        <ele>2224.371</ele>
        <time>2024-08-31T11:00:52Z</time>
      </trkpt>
      <trkpt lat="42.69132" lon="1.39822">
        <ele>2224.088</ele>
        <time>2024-08-31T11:00:54Z</time>
      </trkpt>
      <trkpt lat="42.69133" lon="1.39824">
        <ele>2223.989</ele>
        <time>2024-08-31T11:00:56Z</time>
      </trkpt>
      <trkpt lat="42.69134" lon="1.39826">
        <ele>2223.174</ele>
        <time>2024-08-31T11:00:58Z</time>
      </trkpt>
      <trkpt lat="42.69135" lon="1.39829">
        <ele>2222.358</ele>
        <time>2024-08-31T11:01:00Z</time>
      </trkpt>
      <trkpt lat="42.69135" lon="1.39831">
        <ele>2222.914</ele>
        <time>2024-08-31T11:01:02Z</time>
      </trkpt>
      <trkpt lat="42.69135" lon="1.39833">
        <ele>2222.341</ele>
        <time>2024-08-31T11:01:04Z</time>
      </trkpt>
      <trkpt lat="42.69137" lon="1.39835">
        <ele>2221.458</ele>
        <time>2024-08-31T11:01:06Z</time>
      </trkpt>
      <trkpt lat="42.69138" lon="1.39836">
        <ele>2220.529</ele>
        <time>2024-08-31T11:01:08Z</time>
      </trkpt>
      <trkpt lat="42.69138" lon="1.39839">
        <ele>2220.404</ele>
        <time>2024-08-31T11:01:10Z</time>
      </trkpt>
      <trkpt lat="42.69138" lon="1.39841">
        <ele>2220.211</ele>
        <time>2024-08-31T11:01:12Z</time>
      </trkpt>
      <trkpt lat="42.69138" lon="1.39843">
        <ele>2219.804</ele>
        <time>2024-08-31T11:01:14Z</time>
      </trkpt>
      <trkpt lat="42.69138" lon="1.39845">
        <ele>2219.506</ele>
        <time>2024-08-31T11:01:16Z</time>
      </trkpt>
      <trkpt lat="42.69139" lon="1.39847">
        <ele>2219.288</ele>
        <time>2024-08-31T11:01:18Z</time>
      </trkpt>
      <trkpt lat="42.69141" lon="1.39849">
        <ele>2219.584</ele>
        <time>2024-08-31T11:01:20Z</time>
      </trkpt>
      <trkpt lat="42.69142" lon="1.39851">
        <ele>2218.567</ele>
        <time>2024-08-31T11:01:22Z</time>
      </trkpt>
      <trkpt lat="42.69142" lon="1.39853">
        <ele>2218.146</ele>
        <time>2024-08-31T11:01:24Z</time>
      </trkpt>
      <trkpt lat="42.69142" lon="1.39855">
        <ele>2217.816</ele>
        <time>2024-08-31T11:01:26Z</time>
      </trkpt>
      <trkpt lat="42.69144" lon="1.39856">
        <ele>2217.733</ele>
        <time>2024-08-31T11:01:28Z</time>
      </trkpt>
      <trkpt lat="42.69145" lon="1.39859">
        <ele>2217.154</ele>
        <time>2024-08-31T11:01:30Z</time>
      </trkpt>
      <trkpt lat="42.69144" lon="1.39861">
        <ele>2217.144</ele>
        <time>2024-08-31T11:01:32Z</time>
      </trkpt>
      <trkpt lat="42.69145" lon="1.39864">
        <ele>2215.805</ele>
        <time>2024-08-31T11:01:34Z</time>
      </trkpt>
      <trkpt lat="42.69145" lon="1.39866">
        <ele>2215.394</ele>
        <time>2024-08-31T11:01:36Z</time>
      </trkpt>
      <trkpt lat="42.69145" lon="1.39869">
        <ele>2214.556</ele>
        <time>2024-08-31T11:01:38Z</time>
      </trkpt>
      <trkpt lat="42.69145" lon="1.39871">
        <ele>2213.753</ele>
        <time>2024-08-31T11:01:40Z</time>
      </trkpt>
      <trkpt lat="42.69145" lon="1.39873">
        <ele>2212.91</ele>
        <time>2024-08-31T11:01:42Z</time>
      </trkpt>
      <trkpt lat="42.69145" lon="1.39876">
        <ele>2212.33</ele>
        <time>2024-08-31T11:01:44Z</time>
      </trkpt>
      <trkpt lat="42.69146" lon="1.39878">
        <ele>2212.134</ele>
        <time>2024-08-31T11:01:46Z</time>
      </trkpt>
      <trkpt lat="42.69145" lon="1.3988">
        <ele>2211.554</ele>
        <time>2024-08-31T11:01:48Z</time>
      </trkpt>
      <trkpt lat="42.69145" lon="1.39882">
        <ele>2210.476</ele>
        <time>2024-08-31T11:01:50Z</time>
      </trkpt>
      <trkpt lat="42.69145" lon="1.39884">
        <ele>2210.233</ele>
        <time>2024-08-31T11:01:52Z</time>
      </trkpt>
      <trkpt lat="42.69145" lon="1.39886">
        <ele>2209.028</ele>
        <time>2024-08-31T11:01:54Z</time>
      </trkpt>
      <trkpt lat="42.69146" lon="1.39889">
        <ele>2209.465</ele>
        <time>2024-08-31T11:01:56Z</time>
      </trkpt>
      <trkpt lat="42.69146" lon="1.39891">
        <ele>2208.996</ele>
        <time>2024-08-31T11:01:58Z</time>
      </trkpt>
      <trkpt lat="42.69147" lon="1.39894">
        <ele>2208.897</ele>
        <time>2024-08-31T11:02:00Z</time>
      </trkpt>
      <trkpt lat="42.69147" lon="1.39896">
        <ele>2209.054</ele>
        <time>2024-08-31T11:02:02Z</time>
      </trkpt>
      <trkpt lat="42.69148" lon="1.39898">
        <ele>2208.392</ele>
        <time>2024-08-31T11:02:04Z</time>
      </trkpt>
      <trkpt lat="42.69149" lon="1.39901">
        <ele>2208.165</ele>
        <time>2024-08-31T11:02:06Z</time>
      </trkpt>
      <trkpt lat="42.69149" lon="1.39905">
        <ele>2208.136</ele>
        <time>2024-08-31T11:02:08Z</time>
      </trkpt>
      <trkpt lat="42.69149" lon="1.39908">
        <ele>2208.374</ele>
        <time>2024-08-31T11:02:10Z</time>
      </trkpt>
      <trkpt lat="42.6915" lon="1.39911">
        <ele>2208.482</ele>
        <time>2024-08-31T11:02:12Z</time>
      </trkpt>
      <trkpt lat="42.69149" lon="1.39914">
        <ele>2208.304</ele>
        <time>2024-08-31T11:02:14Z</time>
      </trkpt>
      <trkpt lat="42.69149" lon="1.39916">
        <ele>2207.972</ele>
        <time>2024-08-31T11:02:16Z</time>
      </trkpt>
      <trkpt lat="42.69149" lon="1.39918">
        <ele>2207.413</ele>
        <time>2024-08-31T11:02:18Z</time>
      </trkpt>
      <trkpt lat="42.69149" lon="1.3992">
        <ele>2206.914</ele>
        <time>2024-08-31T11:02:20Z</time>
      </trkpt>
      <trkpt lat="42.69148" lon="1.39923">
        <ele>2206.026</ele>
        <time>2024-08-31T11:02:22Z</time>
      </trkpt>
      <trkpt lat="42.69147" lon="1.39925">
        <ele>2205.51</ele>
        <time>2024-08-31T11:02:24Z</time>
      </trkpt>
      <trkpt lat="42.69147" lon="1.39929">
        <ele>2204.158</ele>
        <time>2024-08-31T11:02:26Z</time>
      </trkpt>
      <trkpt lat="42.69146" lon="1.39932">
        <ele>2203.801</ele>
        <time>2024-08-31T11:02:28Z</time>
      </trkpt>
      <trkpt lat="42.69146" lon="1.39934">
        <ele>2203.345</ele>
        <time>2024-08-31T11:02:30Z</time>
      </trkpt>
      <trkpt lat="42.69147" lon="1.39935">
        <ele>2202.503</ele>
        <time>2024-08-31T11:02:32Z</time>
      </trkpt>
      <trkpt lat="42.69147" lon="1.39937">
        <ele>2201.198</ele>
        <time>2024-08-31T11:02:34Z</time>
      </trkpt>
      <trkpt lat="42.69147" lon="1.39939">
        <ele>2201.1</ele>
        <time>2024-08-31T11:02:36Z</time>
      </trkpt>
      <trkpt lat="42.69146" lon="1.39942">
        <ele>2200.725</ele>
        <time>2024-08-31T11:02:38Z</time>
      </trkpt>
      <trkpt lat="42.69146" lon="1.39944">
        <ele>2201.827</ele>
        <time>2024-08-31T11:02:40Z</time>
      </trkpt>
      <trkpt lat="42.69146" lon="1.39946">
        <ele>2201.792</ele>
        <time>2024-08-31T11:02:42Z</time>
      </trkpt>
      <trkpt lat="42.69145" lon="1.3995">
        <ele>2201.068</ele>
        <time>2024-08-31T11:02:44Z</time>
      </trkpt>
      <trkpt lat="42.69144" lon="1.39954">
        <ele>2201.345</ele>
        <time>2024-08-31T11:02:46Z</time>
      </trkpt>
      <trkpt lat="42.69144" lon="1.39958">
        <ele>2200.516</ele>
        <time>2024-08-31T11:02:48Z</time>
      </trkpt>
      <trkpt lat="42.69144" lon="1.39961">
        <ele>2199.66</ele>
        <time>2024-08-31T11:02:50Z</time>
      </trkpt>
      <trkpt lat="42.69143" lon="1.39964">
        <ele>2200.056</ele>
        <time>2024-08-31T11:02:52Z</time>
      </trkpt>
      <trkpt lat="42.69142" lon="1.39967">
        <ele>2199.703</ele>
        <time>2024-08-31T11:02:54Z</time>
      </trkpt>
      <trkpt lat="42.69142" lon="1.39971">
        <ele>2198.402</ele>
        <time>2024-08-31T11:02:56Z</time>
      </trkpt>
      <trkpt lat="42.69141" lon="1.39973">
        <ele>2198.152</ele>
        <time>2024-08-31T11:02:58Z</time>
      </trkpt>
      <trkpt lat="42.69139" lon="1.39976">
        <ele>2198.138</ele>
        <time>2024-08-31T11:03:00Z</time>
      </trkpt>
      <trkpt lat="42.69138" lon="1.39978">
        <ele>2198.35</ele>
        <time>2024-08-31T11:03:02Z</time>
      </trkpt>
      <trkpt lat="42.69138" lon="1.39982">
        <ele>2197.896</ele>
        <time>2024-08-31T11:03:04Z</time>
      </trkpt>
      <trkpt lat="42.69138" lon="1.39985">
        <ele>2196.656</ele>
        <time>2024-08-31T11:03:06Z</time>
      </trkpt>
      <trkpt lat="42.69138" lon="1.39988">
        <ele>2196.441</ele>
        <time>2024-08-31T11:03:08Z</time>
      </trkpt>
      <trkpt lat="42.69138" lon="1.39992">
        <ele>2195.753</ele>
        <time>2024-08-31T11:03:10Z</time>
      </trkpt>
      <trkpt lat="42.69137" lon="1.39995">
        <ele>2194.358</ele>
        <time>2024-08-31T11:03:12Z</time>
      </trkpt>
      <trkpt lat="42.69137" lon="1.39998">
        <ele>2192.469</ele>
        <time>2024-08-31T11:03:14Z</time>
      </trkpt>
      <trkpt lat="42.69137" lon="1.40002">
        <ele>2191.228</ele>
        <time>2024-08-31T11:03:16Z</time>
      </trkpt>
      <trkpt lat="42.69138" lon="1.40005">
        <ele>2189.547</ele>
        <time>2024-08-31T11:03:18Z</time>
      </trkpt>
      <trkpt lat="42.69141" lon="1.40005">
        <ele>2190.566</ele>
        <time>2024-08-31T11:03:20Z</time>
      </trkpt>
      <trkpt lat="42.69144" lon="1.40004">
        <ele>2189.334</ele>
        <time>2024-08-31T11:03:22Z</time>
      </trkpt>
      <trkpt lat="42.69146" lon="1.40002">
        <ele>2189.264</ele>
        <time>2024-08-31T11:03:24Z</time>
      </trkpt>
      <trkpt lat="42.69147" lon="1.40001">
        <ele>2189.456</ele>
        <time>2024-08-31T11:03:26Z</time>
      </trkpt>
      <trkpt lat="42.69149" lon="1.4">
        <ele>2189.074</ele>
        <time>2024-08-31T11:03:28Z</time>
      </trkpt>
      <trkpt lat="42.69151" lon="1.4">
        <ele>2189.285</ele>
        <time>2024-08-31T11:03:30Z</time>
      </trkpt>
      <trkpt lat="42.69152" lon="1.40003">
        <ele>2188.782</ele>
        <time>2024-08-31T11:03:32Z</time>
      </trkpt>
      <trkpt lat="42.69151" lon="1.40006">
        <ele>2187.78</ele>
        <time>2024-08-31T11:03:34Z</time>
      </trkpt>
      <trkpt lat="42.6915" lon="1.40009">
        <ele>2187.222</ele>
        <time>2024-08-31T11:03:36Z</time>
      </trkpt>
      <trkpt lat="42.6915" lon="1.40011">
        <ele>2185.585</ele>
        <time>2024-08-31T11:03:38Z</time>
      </trkpt>
      <trkpt lat="42.6915" lon="1.40012">
        <ele>2185.23</ele>
        <time>2024-08-31T11:03:40Z</time>
      </trkpt>
      <trkpt lat="42.6915" lon="1.40014">
        <ele>2183.756</ele>
        <time>2024-08-31T11:03:42Z</time>
      </trkpt>
      <trkpt lat="42.6915" lon="1.40015">
        <ele>2183.328</ele>
        <time>2024-08-31T11:03:44Z</time>
      </trkpt>
      <trkpt lat="42.69149" lon="1.40017">
        <ele>2183.214</ele>
        <time>2024-08-31T11:03:46Z</time>
      </trkpt>
      <trkpt lat="42.69148" lon="1.40019">
        <ele>2182.989</ele>
        <time>2024-08-31T11:03:48Z</time>
      </trkpt>
      <trkpt lat="42.69148" lon="1.40021">
        <ele>2182.993</ele>
        <time>2024-08-31T11:03:50Z</time>
      </trkpt>
      <trkpt lat="42.69147" lon="1.40023">
        <ele>2182.98</ele>
        <time>2024-08-31T11:03:52Z</time>
      </trkpt>
      <trkpt lat="42.69147" lon="1.40025">
        <ele>2183.153</ele>
        <time>2024-08-31T11:03:54Z</time>
      </trkpt>
      <trkpt lat="42.69146" lon="1.40028">
        <ele>2182.973</ele>
        <time>2024-08-31T11:03:56Z</time>
      </trkpt>
      <trkpt lat="42.69147" lon="1.40029">
        <ele>2182.711</ele>
        <time>2024-08-31T11:03:58Z</time>
      </trkpt>
      <trkpt lat="42.69148" lon="1.40031">
        <ele>2182.031</ele>
        <time>2024-08-31T11:04:00Z</time>
      </trkpt>
      <trkpt lat="42.69149" lon="1.40033">
        <ele>2181.877</ele>
        <time>2024-08-31T11:04:02Z</time>
      </trkpt>
      <trkpt lat="42.69149" lon="1.40036">
        <ele>2181.057</ele>
        <time>2024-08-31T11:04:04Z</time>
      </trkpt>
      <trkpt lat="42.6915" lon="1.40037">
        <ele>2182.815</ele>
        <time>2024-08-31T11:04:06Z</time>
      </trkpt>
      <trkpt lat="42.69153" lon="1.40035">
        <ele>2182.327</ele>
        <time>2024-08-31T11:04:08Z</time>
      </trkpt>
      <trkpt lat="42.69154" lon="1.40034">
        <ele>2179.861</ele>
        <time>2024-08-31T11:04:10Z</time>
      </trkpt>
      <trkpt lat="42.69156" lon="1.40033">
        <ele>2179.252</ele>
        <time>2024-08-31T11:04:12Z</time>
      </trkpt>
      <trkpt lat="42.69157" lon="1.40033">
        <ele>2178.259</ele>
        <time>2024-08-31T11:04:14Z</time>
      </trkpt>
      <trkpt lat="42.69158" lon="1.40032">
        <ele>2177.621</ele>
        <time>2024-08-31T11:04:16Z</time>
      </trkpt>
      <trkpt lat="42.6916" lon="1.40031">
        <ele>2176.325</ele>
        <time>2024-08-31T11:04:18Z</time>
      </trkpt>
      <trkpt lat="42.69161" lon="1.40031">
        <ele>2175.578</ele>
        <time>2024-08-31T11:04:20Z</time>
      </trkpt>
      <trkpt lat="42.69162" lon="1.40031">
        <ele>2174.371</ele>
        <time>2024-08-31T11:04:22Z</time>
      </trkpt>
      <trkpt lat="42.69162" lon="1.40031">
        <ele>2173.987</ele>
        <time>2024-08-31T11:04:24Z</time>
      </trkpt>
      <trkpt lat="42.69162" lon="1.40031">
        <ele>2173.577</ele>
        <time>2024-08-31T11:04:26Z</time>
      </trkpt>
      <trkpt lat="42.69162" lon="1.40031">
        <ele>2173.574</ele>
        <time>2024-08-31T11:04:28Z</time>
      </trkpt>
      <trkpt lat="42.6916" lon="1.40035">
        <ele>2173.49</ele>
        <time>2024-08-31T11:04:30Z</time>
      </trkpt>
      <trkpt lat="42.69159" lon="1.40038">
        <ele>2173.386</ele>
        <time>2024-08-31T11:04:32Z</time>
      </trkpt>
      <trkpt lat="42.6916" lon="1.4004">
        <ele>2172.877</ele>
        <time>2024-08-31T11:04:34Z</time>
      </trkpt>
      <trkpt lat="42.69161" lon="1.40041">
        <ele>2172.909</ele>
        <time>2024-08-31T11:04:36Z</time>
      </trkpt>
      <trkpt lat="42.69162" lon="1.40042">
        <ele>2172.51</ele>
        <time>2024-08-31T11:04:38Z</time>
      </trkpt>
      <trkpt lat="42.69162" lon="1.40043">
        <ele>2173.276</ele>
        <time>2024-08-31T11:04:40Z</time>
      </trkpt>
      <trkpt lat="42.69162" lon="1.40045">
        <ele>2172.716</ele>
        <time>2024-08-31T11:04:42Z</time>
      </trkpt>
      <trkpt lat="42.69162" lon="1.40047">
        <ele>2172.278</ele>
        <time>2024-08-31T11:04:44Z</time>
      </trkpt>
      <trkpt lat="42.69164" lon="1.40047">
        <ele>2172.268</ele>
        <time>2024-08-31T11:04:46Z</time>
      </trkpt>
      <trkpt lat="42.69166" lon="1.40045">
        <ele>2171.154</ele>
        <time>2024-08-31T11:04:48Z</time>
      </trkpt>
      <trkpt lat="42.69167" lon="1.40043">
        <ele>2170.517</ele>
        <time>2024-08-31T11:04:50Z</time>
      </trkpt>
      <trkpt lat="42.69168" lon="1.40042">
        <ele>2170.286</ele>
        <time>2024-08-31T11:04:52Z</time>
      </trkpt>
      <trkpt lat="42.69169" lon="1.40043">
        <ele>2169.379</ele>
        <time>2024-08-31T11:04:54Z</time>
      </trkpt>
      <trkpt lat="42.69169" lon="1.40046">
        <ele>2168.217</ele>
        <time>2024-08-31T11:04:56Z</time>
      </trkpt>
      <trkpt lat="42.69168" lon="1.40048">
        <ele>2168.319</ele>
        <time>2024-08-31T11:04:58Z</time>
      </trkpt>
      <trkpt lat="42.69168" lon="1.4005">
        <ele>2167.597</ele>
        <time>2024-08-31T11:05:00Z</time>
      </trkpt>
      <trkpt lat="42.69168" lon="1.40052">
        <ele>2167.584</ele>
        <time>2024-08-31T11:05:02Z</time>
      </trkpt>
      <trkpt lat="42.69168" lon="1.40054">
        <ele>2167.186</ele>
        <time>2024-08-31T11:05:04Z</time>
      </trkpt>
      <trkpt lat="42.69167" lon="1.40056">
        <ele>2167.177</ele>
        <time>2024-08-31T11:05:06Z</time>
      </trkpt>
      <trkpt lat="42.69168" lon="1.40058">
        <ele>2166.771</ele>
        <time>2024-08-31T11:05:08Z</time>
      </trkpt>
      <trkpt lat="42.69167" lon="1.4006">
        <ele>2167.418</ele>
        <time>2024-08-31T11:05:10Z</time>
      </trkpt>
      <trkpt lat="42.69167" lon="1.40062">
        <ele>2167.111</ele>
        <time>2024-08-31T11:05:12Z</time>
      </trkpt>
      <trkpt lat="42.69167" lon="1.40064">
        <ele>2166.535</ele>
        <time>2024-08-31T11:05:14Z</time>
      </trkpt>
      <trkpt lat="42.69167" lon="1.40065">
        <ele>2166.231</ele>
        <time>2024-08-31T11:05:16Z</time>
      </trkpt>
      <trkpt lat="42.69168" lon="1.40067">
        <ele>2165.227</ele>
        <time>2024-08-31T11:05:18Z</time>
      </trkpt>
      <trkpt lat="42.6917" lon="1.40068">
        <ele>2164.563</ele>
        <time>2024-08-31T11:05:20Z</time>
      </trkpt>
      <trkpt lat="42.69171" lon="1.40069">
        <ele>2163.275</ele>
        <time>2024-08-31T11:05:22Z</time>
      </trkpt>
      <trkpt lat="42.69171" lon="1.40071">
        <ele>2163.278</ele>
        <time>2024-08-31T11:05:24Z</time>
      </trkpt>
      <trkpt lat="42.69171" lon="1.40073">
        <ele>2162.654</ele>
        <time>2024-08-31T11:05:26Z</time>
      </trkpt>
      <trkpt lat="42.69172" lon="1.40075">
        <ele>2162.155</ele>
        <time>2024-08-31T11:05:28Z</time>
      </trkpt>
      <trkpt lat="42.69173" lon="1.40077">
        <ele>2162.144</ele>
        <time>2024-08-31T11:05:30Z</time>
      </trkpt>
      <trkpt lat="42.69174" lon="1.40079">
        <ele>2162.098</ele>
        <time>2024-08-31T11:05:32Z</time>
      </trkpt>
      <trkpt lat="42.69175" lon="1.40081">
        <ele>2161.695</ele>
        <time>2024-08-31T11:05:34Z</time>
      </trkpt>
      <trkpt lat="42.69176" lon="1.40082">
        <ele>2161.412</ele>
        <time>2024-08-31T11:05:36Z</time>
      </trkpt>
      <trkpt lat="42.69178" lon="1.40083">
        <ele>2160.429</ele>
        <time>2024-08-31T11:05:38Z</time>
      </trkpt>
      <trkpt lat="42.6918" lon="1.40085">
        <ele>2159.714</ele>
        <time>2024-08-31T11:05:40Z</time>
      </trkpt>
      <trkpt lat="42.69181" lon="1.40087">
        <ele>2159.474</ele>
        <time>2024-08-31T11:05:42Z</time>
      </trkpt>
      <trkpt lat="42.69182" lon="1.4009">
        <ele>2159.2</ele>
        <time>2024-08-31T11:05:44Z</time>
      </trkpt>
      <trkpt lat="42.69182" lon="1.40092">
        <ele>2158.621</ele>
        <time>2024-08-31T11:05:46Z</time>
      </trkpt>
      <trkpt lat="42.69183" lon="1.40095">
        <ele>2157.785</ele>
        <time>2024-08-31T11:05:48Z</time>
      </trkpt>
      <trkpt lat="42.69184" lon="1.40097">
        <ele>2157.162</ele>
        <time>2024-08-31T11:05:50Z</time>
      </trkpt>
      <trkpt lat="42.69185" lon="1.40098">
        <ele>2156</ele>
        <time>2024-08-31T11:05:52Z</time>
      </trkpt>
      <trkpt lat="42.69185" lon="1.401">
        <ele>2155.261</ele>
        <time>2024-08-31T11:05:54Z</time>
      </trkpt>
      <trkpt lat="42.69185" lon="1.40101">
        <ele>2154.557</ele>
        <time>2024-08-31T11:05:56Z</time>
      </trkpt>
      <trkpt lat="42.69186" lon="1.40104">
        <ele>2153.895</ele>
        <time>2024-08-31T11:05:58Z</time>
      </trkpt>
      <trkpt lat="42.69186" lon="1.40105">
        <ele>2153.544</ele>
        <time>2024-08-31T11:06:00Z</time>
      </trkpt>
      <trkpt lat="42.69187" lon="1.40107">
        <ele>2152.598</ele>
        <time>2024-08-31T11:06:02Z</time>
      </trkpt>
      <trkpt lat="42.69187" lon="1.40109">
        <ele>2152.347</ele>
        <time>2024-08-31T11:06:04Z</time>
      </trkpt>
      <trkpt lat="42.69187" lon="1.40112">
        <ele>2151.56</ele>
        <time>2024-08-31T11:06:06Z</time>
      </trkpt>
      <trkpt lat="42.69188" lon="1.40115">
        <ele>2150.992</ele>
        <time>2024-08-31T11:06:08Z</time>
      </trkpt>
      <trkpt lat="42.69188" lon="1.40117">
        <ele>2150.251</ele>
        <time>2024-08-31T11:06:10Z</time>
      </trkpt>
      <trkpt lat="42.69189" lon="1.4012">
        <ele>2149.092</ele>
        <time>2024-08-31T11:06:12Z</time>
      </trkpt>
      <trkpt lat="42.6919" lon="1.40122">
        <ele>2148.361</ele>
        <time>2024-08-31T11:06:14Z</time>
      </trkpt>
      <trkpt lat="42.69189" lon="1.40124">
        <ele>2147.644</ele>
        <time>2024-08-31T11:06:16Z</time>
      </trkpt>
      <trkpt lat="42.6919" lon="1.40126">
        <ele>2147.249</ele>
        <time>2024-08-31T11:06:18Z</time>
      </trkpt>
      <trkpt lat="42.69191" lon="1.40128">
        <ele>2147.165</ele>
        <time>2024-08-31T11:06:20Z</time>
      </trkpt>
      <trkpt lat="42.69192" lon="1.4013">
        <ele>2146.727</ele>
        <time>2024-08-31T11:06:22Z</time>
      </trkpt>
      <trkpt lat="42.69193" lon="1.40132">
        <ele>2146.671</ele>
        <time>2024-08-31T11:06:24Z</time>
      </trkpt>
      <trkpt lat="42.69194" lon="1.40133">
        <ele>2146.37</ele>
        <time>2024-08-31T11:06:26Z</time>
      </trkpt>
      <trkpt lat="42.69195" lon="1.40135">
        <ele>2145.035</ele>
        <time>2024-08-31T11:06:28Z</time>
      </trkpt>
      <trkpt lat="42.69194" lon="1.40137">
        <ele>2144.149</ele>
        <time>2024-08-31T11:06:30Z</time>
      </trkpt>
      <trkpt lat="42.69195" lon="1.40139">
        <ele>2144.22</ele>
        <time>2024-08-31T11:06:32Z</time>
      </trkpt>
      <trkpt lat="42.69197" lon="1.40138">
        <ele>2143.536</ele>
        <time>2024-08-31T11:06:34Z</time>
      </trkpt>
      <trkpt lat="42.69198" lon="1.40139">
        <ele>2143.339</ele>
        <time>2024-08-31T11:06:36Z</time>
      </trkpt>
      <trkpt lat="42.69199" lon="1.40142">
        <ele>2142.674</ele>
        <time>2024-08-31T11:06:38Z</time>
      </trkpt>
      <trkpt lat="42.69199" lon="1.40144">
        <ele>2142.5</ele>
        <time>2024-08-31T11:06:40Z</time>
      </trkpt>
      <trkpt lat="42.692" lon="1.40146">
        <ele>2142.124</ele>
        <time>2024-08-31T11:06:42Z</time>
      </trkpt>
      <trkpt lat="42.69201" lon="1.40147">
        <ele>2141.807</ele>
        <time>2024-08-31T11:06:44Z</time>
      </trkpt>
      <trkpt lat="42.69202" lon="1.40148">
        <ele>2141.641</ele>
        <time>2024-08-31T11:06:46Z</time>
      </trkpt>
      <trkpt lat="42.69203" lon="1.40149">
        <ele>2141.132</ele>
        <time>2024-08-31T11:06:48Z</time>
      </trkpt>
      <trkpt lat="42.69204" lon="1.4015">
        <ele>2140.508</ele>
        <time>2024-08-31T11:06:50Z</time>
      </trkpt>
      <trkpt lat="42.69205" lon="1.40151">
        <ele>2140.12</ele>
        <time>2024-08-31T11:06:52Z</time>
      </trkpt>
      <trkpt lat="42.69206" lon="1.40153">
        <ele>2139.802</ele>
        <time>2024-08-31T11:06:54Z</time>
      </trkpt>
      <trkpt lat="42.69206" lon="1.40155">
        <ele>2140.032</ele>
        <time>2024-08-31T11:06:56Z</time>
      </trkpt>
      <trkpt lat="42.69206" lon="1.40156">
        <ele>2139.414</ele>
        <time>2024-08-31T11:06:58Z</time>
      </trkpt>
      <trkpt lat="42.69208" lon="1.40157">
        <ele>2139.245</ele>
        <time>2024-08-31T11:07:00Z</time>
      </trkpt>
      <trkpt lat="42.69208" lon="1.4016">
        <ele>2138.146</ele>
        <time>2024-08-31T11:07:02Z</time>
      </trkpt>
      <trkpt lat="42.69209" lon="1.40162">
        <ele>2137.917</ele>
        <time>2024-08-31T11:07:04Z</time>
      </trkpt>
      <trkpt lat="42.6921" lon="1.40164">
        <ele>2137.642</ele>
        <time>2024-08-31T11:07:06Z</time>
      </trkpt>
      <trkpt lat="42.6921" lon="1.40166">
        <ele>2137.285</ele>
        <time>2024-08-31T11:07:08Z</time>
      </trkpt>
      <trkpt lat="42.6921" lon="1.40167">
        <ele>2136.951</ele>
        <time>2024-08-31T11:07:10Z</time>
      </trkpt>
      <trkpt lat="42.6921" lon="1.40169">
        <ele>2136.498</ele>
        <time>2024-08-31T11:07:12Z</time>
      </trkpt>
      <trkpt lat="42.69211" lon="1.4017">
        <ele>2136.059</ele>
        <time>2024-08-31T11:07:14Z</time>
      </trkpt>
      <trkpt lat="42.69213" lon="1.40171">
        <ele>2134.636</ele>
        <time>2024-08-31T11:07:16Z</time>
      </trkpt>
      <trkpt lat="42.69214" lon="1.40173">
        <ele>2133.169</ele>
        <time>2024-08-31T11:07:18Z</time>
      </trkpt>
      <trkpt lat="42.69215" lon="1.40174">
        <ele>2133.129</ele>
        <time>2024-08-31T11:07:20Z</time>
      </trkpt>
      <trkpt lat="42.69216" lon="1.40175">
        <ele>2132.383</ele>
        <time>2024-08-31T11:07:22Z</time>
      </trkpt>
      <trkpt lat="42.69218" lon="1.40176">
        <ele>2132.776</ele>
        <time>2024-08-31T11:07:24Z</time>
      </trkpt>
      <trkpt lat="42.69219" lon="1.40176">
        <ele>2133.211</ele>
        <time>2024-08-31T11:07:26Z</time>
      </trkpt>
      <trkpt lat="42.69221" lon="1.40175">
        <ele>2133.122</ele>
        <time>2024-08-31T11:07:28Z</time>
      </trkpt>
      <trkpt lat="42.69221" lon="1.40177">
        <ele>2132.578</ele>
        <time>2024-08-31T11:07:30Z</time>
      </trkpt>
      <trkpt lat="42.69222" lon="1.40178">
        <ele>2132.06</ele>
        <time>2024-08-31T11:07:32Z</time>
      </trkpt>
      <trkpt lat="42.69222" lon="1.4018">
        <ele>2130.83</ele>
        <time>2024-08-31T11:07:34Z</time>
      </trkpt>
      <trkpt lat="42.69222" lon="1.40182">
        <ele>2130.094</ele>
        <time>2024-08-31T11:07:36Z</time>
      </trkpt>
      <trkpt lat="42.69224" lon="1.40183">
        <ele>2129.06</ele>
        <time>2024-08-31T11:07:38Z</time>
      </trkpt>
      <trkpt lat="42.69225" lon="1.40186">
        <ele>2128.952</ele>
        <time>2024-08-31T11:07:40Z</time>
      </trkpt>
      <trkpt lat="42.69226" lon="1.40187">
        <ele>2128.158</ele>
        <time>2024-08-31T11:07:42Z</time>
      </trkpt>
      <trkpt lat="42.69227" lon="1.40189">
        <ele>2127.668</ele>
        <time>2024-08-31T11:07:44Z</time>
      </trkpt>
      <trkpt lat="42.69229" lon="1.40191">
        <ele>2127.098</ele>
        <time>2024-08-31T11:07:46Z</time>
      </trkpt>
      <trkpt lat="42.69229" lon="1.40193">
        <ele>2126.984</ele>
        <time>2024-08-31T11:07:48Z</time>
      </trkpt>
      <trkpt lat="42.6923" lon="1.40195">
        <ele>2126.557</ele>
        <time>2024-08-31T11:07:50Z</time>
      </trkpt>
      <trkpt lat="42.69231" lon="1.40197">
        <ele>2126.14</ele>
        <time>2024-08-31T11:07:52Z</time>
      </trkpt>
      <trkpt lat="42.69231" lon="1.40199">
        <ele>2125.556</ele>
        <time>2024-08-31T11:07:54Z</time>
      </trkpt>
      <trkpt lat="42.69232" lon="1.402">
        <ele>2125.605</ele>
        <time>2024-08-31T11:07:56Z</time>
      </trkpt>
      <trkpt lat="42.69233" lon="1.40202">
        <ele>2124.983</ele>
        <time>2024-08-31T11:07:58Z</time>
      </trkpt>
      <trkpt lat="42.69235" lon="1.40203">
        <ele>2123.814</ele>
        <time>2024-08-31T11:08:00Z</time>
      </trkpt>
      <trkpt lat="42.69236" lon="1.40204">
        <ele>2123.316</ele>
        <time>2024-08-31T11:08:02Z</time>
      </trkpt>
      <trkpt lat="42.69237" lon="1.40206">
        <ele>2123.049</ele>
        <time>2024-08-31T11:08:04Z</time>
      </trkpt>
      <trkpt lat="42.69238" lon="1.40208">
        <ele>2122.044</ele>
        <time>2024-08-31T11:08:06Z</time>
      </trkpt>
      <trkpt lat="42.6924" lon="1.40208">
        <ele>2122.878</ele>
        <time>2024-08-31T11:08:08Z</time>
      </trkpt>
      <trkpt lat="42.6924" lon="1.40208">
        <ele>2122.847</ele>
        <time>2024-08-31T11:08:10Z</time>
      </trkpt>
      <trkpt lat="42.6924" lon="1.40208">
        <ele>2122.576</ele>
        <time>2024-08-31T11:08:12Z</time>
      </trkpt>
      <trkpt lat="42.69241" lon="1.40206">
        <ele>2122.867</ele>
        <time>2024-08-31T11:08:14Z</time>
      </trkpt>
      <trkpt lat="42.69242" lon="1.40203">
        <ele>2122.256</ele>
        <time>2024-08-31T11:08:16Z</time>
      </trkpt>
      <trkpt lat="42.6924" lon="1.402">
        <ele>2121.76</ele>
        <time>2024-08-31T11:08:18Z</time>
      </trkpt>
      <trkpt lat="42.6924" lon="1.40198">
        <ele>2121.026</ele>
        <time>2024-08-31T11:08:20Z</time>
      </trkpt>
      <trkpt lat="42.69239" lon="1.40196">
        <ele>2120.625</ele>
        <time>2024-08-31T11:08:22Z</time>
      </trkpt>
      <trkpt lat="42.69239" lon="1.40195">
        <ele>2120.504</ele>
        <time>2024-08-31T11:08:24Z</time>
      </trkpt>
      <trkpt lat="42.69239" lon="1.40192">
        <ele>2119.753</ele>
        <time>2024-08-31T11:08:26Z</time>
      </trkpt>
      <trkpt lat="42.69241" lon="1.40192">
        <ele>2119.319</ele>
        <time>2024-08-31T11:08:28Z</time>
      </trkpt>
      <trkpt lat="42.69241" lon="1.40194">
        <ele>2118.982</ele>
        <time>2024-08-31T11:08:30Z</time>
      </trkpt>
      <trkpt lat="42.69242" lon="1.40196">
        <ele>2118.584</ele>
        <time>2024-08-31T11:08:32Z</time>
      </trkpt>
      <trkpt lat="42.69243" lon="1.40198">
        <ele>2118.001</ele>
        <time>2024-08-31T11:08:34Z</time>
      </trkpt>
      <trkpt lat="42.69244" lon="1.40199">
        <ele>2118.88</ele>
        <time>2024-08-31T11:08:36Z</time>
      </trkpt>
      <trkpt lat="42.69244" lon="1.40201">
        <ele>2118.427</ele>
        <time>2024-08-31T11:08:38Z</time>
      </trkpt>
      <trkpt lat="42.69245" lon="1.40203">
        <ele>2117.501</ele>
        <time>2024-08-31T11:08:40Z</time>
      </trkpt>
      <trkpt lat="42.69246" lon="1.40204">
        <ele>2116.86</ele>
        <time>2024-08-31T11:08:42Z</time>
      </trkpt>
      <trkpt lat="42.69247" lon="1.40205">
        <ele>2115.917</ele>
        <time>2024-08-31T11:08:44Z</time>
      </trkpt>
      <trkpt lat="42.69248" lon="1.40207">
        <ele>2115.512</ele>
        <time>2024-08-31T11:08:46Z</time>
      </trkpt>
      <trkpt lat="42.69249" lon="1.40208">
        <ele>2114.652</ele>
        <time>2024-08-31T11:08:48Z</time>
      </trkpt>
      <trkpt lat="42.6925" lon="1.40209">
        <ele>2113.906</ele>
        <time>2024-08-31T11:08:50Z</time>
      </trkpt>
      <trkpt lat="42.6925" lon="1.4021">
        <ele>2113.433</ele>
        <time>2024-08-31T11:08:52Z</time>
      </trkpt>
      <trkpt lat="42.69251" lon="1.40211">
        <ele>2113.102</ele>
        <time>2024-08-31T11:08:54Z</time>
      </trkpt>
      <trkpt lat="42.69252" lon="1.40213">
        <ele>2112.83</ele>
        <time>2024-08-31T11:08:56Z</time>
      </trkpt>
      <trkpt lat="42.69252" lon="1.40215">
        <ele>2112.108</ele>
        <time>2024-08-31T11:08:58Z</time>
      </trkpt>
      <trkpt lat="42.69252" lon="1.40216">
        <ele>2111.282</ele>
        <time>2024-08-31T11:09:00Z</time>
      </trkpt>
      <trkpt lat="42.69252" lon="1.40217">
        <ele>2111.455</ele>
        <time>2024-08-31T11:09:02Z</time>
      </trkpt>
      <trkpt lat="42.69253" lon="1.40218">
        <ele>2110.332</ele>
        <time>2024-08-31T11:09:04Z</time>
      </trkpt>
      <trkpt lat="42.69254" lon="1.40219">
        <ele>2109.49</ele>
        <time>2024-08-31T11:09:06Z</time>
      </trkpt>
      <trkpt lat="42.69256" lon="1.40219">
        <ele>2109.921</ele>
        <time>2024-08-31T11:09:08Z</time>
      </trkpt>
      <trkpt lat="42.69257" lon="1.40221">
        <ele>2110.397</ele>
        <time>2024-08-31T11:09:10Z</time>
      </trkpt>
      <trkpt lat="42.69258" lon="1.40222">
        <ele>2110.181</ele>
        <time>2024-08-31T11:09:12Z</time>
      </trkpt>
      <trkpt lat="42.69259" lon="1.40223">
        <ele>2109.356</ele>
        <time>2024-08-31T11:09:14Z</time>
      </trkpt>
      <trkpt lat="42.69261" lon="1.40223">
        <ele>2108.341</ele>
        <time>2024-08-31T11:09:16Z</time>
      </trkpt>
      <trkpt lat="42.69262" lon="1.40224">
        <ele>2107.409</ele>
        <time>2024-08-31T11:09:18Z</time>
      </trkpt>
      <trkpt lat="42.69263" lon="1.40226">
        <ele>2106.444</ele>
        <time>2024-08-31T11:09:20Z</time>
      </trkpt>
      <trkpt lat="42.69264" lon="1.40227">
        <ele>2105.458</ele>
        <time>2024-08-31T11:09:22Z</time>
      </trkpt>
      <trkpt lat="42.69265" lon="1.40229">
        <ele>2104.643</ele>
        <time>2024-08-31T11:09:24Z</time>
      </trkpt>
      <trkpt lat="42.69266" lon="1.40231">
        <ele>2104.111</ele>
        <time>2024-08-31T11:09:26Z</time>
      </trkpt>
      <trkpt lat="42.69267" lon="1.40232">
        <ele>2104.492</ele>
        <time>2024-08-31T11:09:28Z</time>
      </trkpt>
      <trkpt lat="42.69268" lon="1.40234">
        <ele>2104.384</ele>
        <time>2024-08-31T11:09:30Z</time>
      </trkpt>
      <trkpt lat="42.69268" lon="1.40236">
        <ele>2104.326</ele>
        <time>2024-08-31T11:09:32Z</time>
      </trkpt>
      <trkpt lat="42.69269" lon="1.40238">
        <ele>2103.989</ele>
        <time>2024-08-31T11:09:34Z</time>
      </trkpt>
      <trkpt lat="42.6927" lon="1.40238">
        <ele>2103.142</ele>
        <time>2024-08-31T11:09:36Z</time>
      </trkpt>
      <trkpt lat="42.69271" lon="1.40238">
        <ele>2102.821</ele>
        <time>2024-08-31T11:09:38Z</time>
      </trkpt>
      <trkpt lat="42.69272" lon="1.4024">
        <ele>2102.055</ele>
        <time>2024-08-31T11:09:40Z</time>
      </trkpt>
      <trkpt lat="42.69274" lon="1.40242">
        <ele>2103.264</ele>
        <time>2024-08-31T11:09:42Z</time>
      </trkpt>
      <trkpt lat="42.69275" lon="1.40243">
        <ele>2102.529</ele>
        <time>2024-08-31T11:09:44Z</time>
      </trkpt>
      <trkpt lat="42.69276" lon="1.40245">
        <ele>2101.756</ele>
        <time>2024-08-31T11:09:46Z</time>
      </trkpt>
      <trkpt lat="42.69277" lon="1.40247">
        <ele>2101.377</ele>
        <time>2024-08-31T11:09:48Z</time>
      </trkpt>
      <trkpt lat="42.69278" lon="1.40249">
        <ele>2101.455</ele>
        <time>2024-08-31T11:09:50Z</time>
      </trkpt>
      <trkpt lat="42.69278" lon="1.4025">
        <ele>2101.635</ele>
        <time>2024-08-31T11:09:52Z</time>
      </trkpt>
      <trkpt lat="42.69279" lon="1.40251">
        <ele>2102.164</ele>
        <time>2024-08-31T11:09:54Z</time>
      </trkpt>
      <trkpt lat="42.69279" lon="1.40251">
        <ele>2102.666</ele>
        <time>2024-08-31T11:09:56Z</time>
      </trkpt>
      <trkpt lat="42.69279" lon="1.40251">
        <ele>2102.667</ele>
        <time>2024-08-31T11:09:58Z</time>
      </trkpt>
      <trkpt lat="42.69279" lon="1.40251">
        <ele>2102.665</ele>
        <time>2024-08-31T11:10:00Z</time>
      </trkpt>
      <trkpt lat="42.69279" lon="1.40251">
        <ele>2102.658</ele>
        <time>2024-08-31T11:10:02Z</time>
      </trkpt>
      <trkpt lat="42.69279" lon="1.40251">
        <ele>2102.655</ele>
        <time>2024-08-31T11:10:04Z</time>
      </trkpt>
      <trkpt lat="42.69279" lon="1.40251">
        <ele>2102.656</ele>
        <time>2024-08-31T11:10:06Z</time>
      </trkpt>
      <trkpt lat="42.69279" lon="1.40251">
        <ele>2102.654</ele>
        <time>2024-08-31T11:10:08Z</time>
      </trkpt>
      <trkpt lat="42.69279" lon="1.40251">
        <ele>2102.749</ele>
        <time>2024-08-31T11:10:10Z</time>
      </trkpt>
      <trkpt lat="42.69279" lon="1.40251">
        <ele>2102.674</ele>
        <time>2024-08-31T11:10:12Z</time>
      </trkpt>
      <trkpt lat="42.69279" lon="1.40251">
        <ele>2101.828</ele>
        <time>2024-08-31T11:10:14Z</time>
      </trkpt>
      <trkpt lat="42.69279" lon="1.40251">
        <ele>2101.771</ele>
        <time>2024-08-31T11:10:16Z</time>
      </trkpt>
      <trkpt lat="42.69279" lon="1.40251">
        <ele>2101.69</ele>
        <time>2024-08-31T11:10:18Z</time>
      </trkpt>
      <trkpt lat="42.69279" lon="1.40251">
        <ele>2101.683</ele>
        <time>2024-08-31T11:10:20Z</time>
      </trkpt>
      <trkpt lat="42.69279" lon="1.40251">
        <ele>2101.682</ele>
        <time>2024-08-31T11:10:22Z</time>
      </trkpt>
      <trkpt lat="42.69279" lon="1.40251">
        <ele>2101.68</ele>
        <time>2024-08-31T11:10:24Z</time>
      </trkpt>
      <trkpt lat="42.69279" lon="1.40251">
        <ele>2101.681</ele>
        <time>2024-08-31T11:10:26Z</time>
      </trkpt>
      <trkpt lat="42.69279" lon="1.40251">
        <ele>2101.676</ele>
        <time>2024-08-31T11:10:28Z</time>
      </trkpt>
      <trkpt lat="42.69279" lon="1.40251">
        <ele>2101.674</ele>
        <time>2024-08-31T11:10:30Z</time>
      </trkpt>
      <trkpt lat="42.69279" lon="1.40251">
        <ele>2101.676</ele>
        <time>2024-08-31T11:10:32Z</time>
      </trkpt>
      <trkpt lat="42.69279" lon="1.40251">
        <ele>2101.672</ele>
        <time>2024-08-31T11:10:34Z</time>
      </trkpt>
      <trkpt lat="42.69279" lon="1.40251">
        <ele>2101.673</ele>
        <time>2024-08-31T11:10:36Z</time>
      </trkpt>
      <trkpt lat="42.69279" lon="1.40251">
        <ele>2101.672</ele>
        <time>2024-08-31T11:10:38Z</time>
      </trkpt>
      <trkpt lat="42.69279" lon="1.40251">
        <ele>2101.671</ele>
        <time>2024-08-31T11:10:40Z</time>
      </trkpt>
      <trkpt lat="42.69279" lon="1.40251">
        <ele>2101.669</ele>
        <time>2024-08-31T11:10:42Z</time>
      </trkpt>
      <trkpt lat="42.69279" lon="1.40251">
        <ele>2101.67</ele>
        <time>2024-08-31T11:10:44Z</time>
      </trkpt>
      <trkpt lat="42.69279" lon="1.40251">
        <ele>2101.668</ele>
        <time>2024-08-31T11:10:46Z</time>
      </trkpt>
      <trkpt lat="42.69279" lon="1.40252">
        <ele>2101.374</ele>
        <time>2024-08-31T11:10:48Z</time>
      </trkpt>
      <trkpt lat="42.6928" lon="1.40254">
        <ele>2101.42</ele>
        <time>2024-08-31T11:10:50Z</time>
      </trkpt>
      <trkpt lat="42.69279" lon="1.40256">
        <ele>2101.124</ele>
        <time>2024-08-31T11:10:52Z</time>
      </trkpt>
      <trkpt lat="42.69279" lon="1.40257">
        <ele>2101.11</ele>
        <time>2024-08-31T11:10:54Z</time>
      </trkpt>
      <trkpt lat="42.69278" lon="1.40259">
        <ele>2100.83</ele>
        <time>2024-08-31T11:10:56Z</time>
      </trkpt>
      <trkpt lat="42.69278" lon="1.40261">
        <ele>2100.854</ele>
        <time>2024-08-31T11:10:58Z</time>
      </trkpt>
      <trkpt lat="42.69276" lon="1.40262">
        <ele>2101.009</ele>
        <time>2024-08-31T11:11:00Z</time>
      </trkpt>
      <trkpt lat="42.69275" lon="1.40264">
        <ele>2100.999</ele>
        <time>2024-08-31T11:11:02Z</time>
      </trkpt>
      <trkpt lat="42.69274" lon="1.40265">
        <ele>2100.17</ele>
        <time>2024-08-31T11:11:04Z</time>
      </trkpt>
      <trkpt lat="42.69273" lon="1.40267">
        <ele>2099.671</ele>
        <time>2024-08-31T11:11:06Z</time>
      </trkpt>
      <trkpt lat="42.69272" lon="1.40269">
        <ele>2098.358</ele>
        <time>2024-08-31T11:11:08Z</time>
      </trkpt>
      <trkpt lat="42.69272" lon="1.40272">
        <ele>2098.152</ele>
        <time>2024-08-31T11:11:10Z</time>
      </trkpt>
      <trkpt lat="42.69272" lon="1.40275">
        <ele>2096.924</ele>
        <time>2024-08-31T11:11:12Z</time>
      </trkpt>
      <trkpt lat="42.69271" lon="1.40277">
        <ele>2095.901</ele>
        <time>2024-08-31T11:11:14Z</time>
      </trkpt>
      <trkpt lat="42.6927" lon="1.40279">
        <ele>2095.859</ele>
        <time>2024-08-31T11:11:16Z</time>
      </trkpt>
      <trkpt lat="42.69271" lon="1.4028">
        <ele>2097.27</ele>
        <time>2024-08-31T11:11:18Z</time>
      </trkpt>
      <trkpt lat="42.69273" lon="1.40279">
        <ele>2096.151</ele>
        <time>2024-08-31T11:11:20Z</time>
      </trkpt>
      <trkpt lat="42.69274" lon="1.40278">
        <ele>2094.423</ele>
        <time>2024-08-31T11:11:22Z</time>
      </trkpt>
      <trkpt lat="42.69276" lon="1.40277">
        <ele>2093.531</ele>
        <time>2024-08-31T11:11:24Z</time>
      </trkpt>
      <trkpt lat="42.69278" lon="1.40278">
        <ele>2092.398</ele>
        <time>2024-08-31T11:11:26Z</time>
      </trkpt>
      <trkpt lat="42.69279" lon="1.40278">
        <ele>2091.215</ele>
        <time>2024-08-31T11:11:28Z</time>
      </trkpt>
      <trkpt lat="42.69281" lon="1.40279">
        <ele>2090.817</ele>
        <time>2024-08-31T11:11:30Z</time>
      </trkpt>
      <trkpt lat="42.69282" lon="1.40278">
        <ele>2089.977</ele>
        <time>2024-08-31T11:11:32Z</time>
      </trkpt>
      <trkpt lat="42.69284" lon="1.40278">
        <ele>2090.855</ele>
        <time>2024-08-31T11:11:34Z</time>
      </trkpt>
      <trkpt lat="42.69285" lon="1.4028">
        <ele>2089.864</ele>
        <time>2024-08-31T11:11:36Z</time>
      </trkpt>
      <trkpt lat="42.69287" lon="1.40281">
        <ele>2089.377</ele>
        <time>2024-08-31T11:11:38Z</time>
      </trkpt>
      <trkpt lat="42.69288" lon="1.40282">
        <ele>2088.675</ele>
        <time>2024-08-31T11:11:40Z</time>
      </trkpt>
      <trkpt lat="42.6929" lon="1.40281">
        <ele>2087.94</ele>
        <time>2024-08-31T11:11:42Z</time>
      </trkpt>
      <trkpt lat="42.69292" lon="1.4028">
        <ele>2087.175</ele>
        <time>2024-08-31T11:11:44Z</time>
      </trkpt>
      <trkpt lat="42.69293" lon="1.40281">
        <ele>2086.724</ele>
        <time>2024-08-31T11:11:46Z</time>
      </trkpt>
      <trkpt lat="42.69294" lon="1.40281">
        <ele>2085.831</ele>
        <time>2024-08-31T11:11:48Z</time>
      </trkpt>
      <trkpt lat="42.69295" lon="1.40281">
        <ele>2085.003</ele>
        <time>2024-08-31T11:11:50Z</time>
      </trkpt>
      <trkpt lat="42.69297" lon="1.40282">
        <ele>2083.773</ele>
        <time>2024-08-31T11:11:52Z</time>
      </trkpt>
      <trkpt lat="42.69298" lon="1.40282">
        <ele>2082.771</ele>
        <time>2024-08-31T11:11:54Z</time>
      </trkpt>
      <trkpt lat="42.69299" lon="1.40285">
        <ele>2082.291</ele>
        <time>2024-08-31T11:11:56Z</time>
      </trkpt>
      <trkpt lat="42.693" lon="1.40287">
        <ele>2081.683</ele>
        <time>2024-08-31T11:11:58Z</time>
      </trkpt>
      <trkpt lat="42.69302" lon="1.40287">
        <ele>2081.115</ele>
        <time>2024-08-31T11:12:00Z</time>
      </trkpt>
      <trkpt lat="42.69305" lon="1.40286">
        <ele>2080.716</ele>
        <time>2024-08-31T11:12:02Z</time>
      </trkpt>
      <trkpt lat="42.69306" lon="1.40285">
        <ele>2081.307</ele>
        <time>2024-08-31T11:12:04Z</time>
      </trkpt>
      <trkpt lat="42.69307" lon="1.40286">
        <ele>2081.131</ele>
        <time>2024-08-31T11:12:06Z</time>
      </trkpt>
      <trkpt lat="42.69307" lon="1.40289">
        <ele>2081.284</ele>
        <time>2024-08-31T11:12:08Z</time>
      </trkpt>
      <trkpt lat="42.69308" lon="1.40288">
        <ele>2081.081</ele>
        <time>2024-08-31T11:12:10Z</time>
      </trkpt>
      <trkpt lat="42.6931" lon="1.40289">
        <ele>2079.397</ele>
        <time>2024-08-31T11:12:12Z</time>
      </trkpt>
      <trkpt lat="42.6931" lon="1.40291">
        <ele>2078.275</ele>
        <time>2024-08-31T11:12:14Z</time>
      </trkpt>
      <trkpt lat="42.69311" lon="1.40292">
        <ele>2076.967</ele>
        <time>2024-08-31T11:12:16Z</time>
      </trkpt>
      <trkpt lat="42.69313" lon="1.40293">
        <ele>2076.334</ele>
        <time>2024-08-31T11:12:18Z</time>
      </trkpt>
      <trkpt lat="42.69313" lon="1.40296">
        <ele>2075.671</ele>
        <time>2024-08-31T11:12:20Z</time>
      </trkpt>
      <trkpt lat="42.69313" lon="1.40299">
        <ele>2074.925</ele>
        <time>2024-08-31T11:12:22Z</time>
      </trkpt>
      <trkpt lat="42.69315" lon="1.40301">
        <ele>2074.93</ele>
        <time>2024-08-31T11:12:24Z</time>
      </trkpt>
      <trkpt lat="42.69315" lon="1.40304">
        <ele>2073.895</ele>
        <time>2024-08-31T11:12:26Z</time>
      </trkpt>
      <trkpt lat="42.69315" lon="1.40307">
        <ele>2073.001</ele>
        <time>2024-08-31T11:12:28Z</time>
      </trkpt>
      <trkpt lat="42.69315" lon="1.4031">
        <ele>2072.104</ele>
        <time>2024-08-31T11:12:30Z</time>
      </trkpt>
      <trkpt lat="42.69315" lon="1.40313">
        <ele>2070.385</ele>
        <time>2024-08-31T11:12:32Z</time>
      </trkpt>
      <trkpt lat="42.69314" lon="1.40316">
        <ele>2071.108</ele>
        <time>2024-08-31T11:12:34Z</time>
      </trkpt>
      <trkpt lat="42.69315" lon="1.40318">
        <ele>2070.221</ele>
        <time>2024-08-31T11:12:36Z</time>
      </trkpt>
      <trkpt lat="42.69317" lon="1.4032">
        <ele>2069.815</ele>
        <time>2024-08-31T11:12:38Z</time>
      </trkpt>
      <trkpt lat="42.69317" lon="1.40323">
        <ele>2069.258</ele>
        <time>2024-08-31T11:12:40Z</time>
      </trkpt>
      <trkpt lat="42.69317" lon="1.40326">
        <ele>2068.897</ele>
        <time>2024-08-31T11:12:42Z</time>
      </trkpt>
      <trkpt lat="42.69317" lon="1.40328">
        <ele>2067.924</ele>
        <time>2024-08-31T11:12:44Z</time>
      </trkpt>
      <trkpt lat="42.69317" lon="1.4033">
        <ele>2067.259</ele>
        <time>2024-08-31T11:12:46Z</time>
      </trkpt>
      <trkpt lat="42.69318" lon="1.40332">
        <ele>2066.887</ele>
        <time>2024-08-31T11:12:48Z</time>
      </trkpt>
      <trkpt lat="42.69318" lon="1.40333">
        <ele>2066.7</ele>
        <time>2024-08-31T11:12:50Z</time>
      </trkpt>
      <trkpt lat="42.69318" lon="1.40335">
        <ele>2066.322</ele>
        <time>2024-08-31T11:12:52Z</time>
      </trkpt>
      <trkpt lat="42.69318" lon="1.40338">
        <ele>2065.548</ele>
        <time>2024-08-31T11:12:54Z</time>
      </trkpt>
      <trkpt lat="42.69319" lon="1.4034">
        <ele>2063.808</ele>
        <time>2024-08-31T11:12:56Z</time>
      </trkpt>
      <trkpt lat="42.6932" lon="1.40343">
        <ele>2064.389</ele>
        <time>2024-08-31T11:12:58Z</time>
      </trkpt>
      <trkpt lat="42.6932" lon="1.40346">
        <ele>2064.223</ele>
        <time>2024-08-31T11:13:00Z</time>
      </trkpt>
      <trkpt lat="42.6932" lon="1.40349">
        <ele>2063.016</ele>
        <time>2024-08-31T11:13:02Z</time>
      </trkpt>
      <trkpt lat="42.69321" lon="1.40352">
        <ele>2062.855</ele>
        <time>2024-08-31T11:13:04Z</time>
      </trkpt>
      <trkpt lat="42.69321" lon="1.40354">
        <ele>2062.51</ele>
        <time>2024-08-31T11:13:06Z</time>
      </trkpt>
      <trkpt lat="42.69321" lon="1.40357">
        <ele>2061.802</ele>
        <time>2024-08-31T11:13:08Z</time>
      </trkpt>
      <trkpt lat="42.69321" lon="1.40359">
        <ele>2061.867</ele>
        <time>2024-08-31T11:13:10Z</time>
      </trkpt>
      <trkpt lat="42.69322" lon="1.40362">
        <ele>2060.746</ele>
        <time>2024-08-31T11:13:12Z</time>
      </trkpt>
      <trkpt lat="42.69322" lon="1.40364">
        <ele>2059.609</ele>
        <time>2024-08-31T11:13:14Z</time>
      </trkpt>
      <trkpt lat="42.69323" lon="1.40366">
        <ele>2059.132</ele>
        <time>2024-08-31T11:13:16Z</time>
      </trkpt>
      <trkpt lat="42.69323" lon="1.40368">
        <ele>2058.024</ele>
        <time>2024-08-31T11:13:18Z</time>
      </trkpt>
      <trkpt lat="42.69323" lon="1.40371">
        <ele>2057.73</ele>
        <time>2024-08-31T11:13:20Z</time>
      </trkpt>
      <trkpt lat="42.69324" lon="1.40374">
        <ele>2056.829</ele>
        <time>2024-08-31T11:13:22Z</time>
      </trkpt>
      <trkpt lat="42.69325" lon="1.40376">
        <ele>2056.124</ele>
        <time>2024-08-31T11:13:24Z</time>
      </trkpt>
      <trkpt lat="42.69325" lon="1.40379">
        <ele>2055.243</ele>
        <time>2024-08-31T11:13:26Z</time>
      </trkpt>
      <trkpt lat="42.69325" lon="1.40382">
        <ele>2054.607</ele>
        <time>2024-08-31T11:13:28Z</time>
      </trkpt>
      <trkpt lat="42.69327" lon="1.40383">
        <ele>2053.613</ele>
        <time>2024-08-31T11:13:30Z</time>
      </trkpt>
      <trkpt lat="42.69328" lon="1.40385">
        <ele>2053.983</ele>
        <time>2024-08-31T11:13:32Z</time>
      </trkpt>
      <trkpt lat="42.69328" lon="1.40387">
        <ele>2053.574</ele>
        <time>2024-08-31T11:13:34Z</time>
      </trkpt>
      <trkpt lat="42.6933" lon="1.40389">
        <ele>2052.93</ele>
        <time>2024-08-31T11:13:36Z</time>
      </trkpt>
      <trkpt lat="42.69332" lon="1.4039">
        <ele>2052.865</ele>
        <time>2024-08-31T11:13:38Z</time>
      </trkpt>
      <trkpt lat="42.69334" lon="1.40391">
        <ele>2052.817</ele>
        <time>2024-08-31T11:13:40Z</time>
      </trkpt>
      <trkpt lat="42.69335" lon="1.40393">
        <ele>2052.505</ele>
        <time>2024-08-31T11:13:42Z</time>
      </trkpt>
      <trkpt lat="42.69336" lon="1.40394">
        <ele>2052.651</ele>
        <time>2024-08-31T11:13:44Z</time>
      </trkpt>
      <trkpt lat="42.69337" lon="1.40394">
        <ele>2052.343</ele>
        <time>2024-08-31T11:13:46Z</time>
      </trkpt>
      <trkpt lat="42.69338" lon="1.40396">
        <ele>2052.903</ele>
        <time>2024-08-31T11:13:48Z</time>
      </trkpt>
      <trkpt lat="42.69338" lon="1.40398">
        <ele>2052.518</ele>
        <time>2024-08-31T11:13:50Z</time>
      </trkpt>
      <trkpt lat="42.69338" lon="1.40401">
        <ele>2052.561</ele>
        <time>2024-08-31T11:13:52Z</time>
      </trkpt>
      <trkpt lat="42.69339" lon="1.40403">
        <ele>2053.139</ele>
        <time>2024-08-31T11:13:54Z</time>
      </trkpt>
      <trkpt lat="42.6934" lon="1.40405">
        <ele>2052.46</ele>
        <time>2024-08-31T11:13:56Z</time>
      </trkpt>
      <trkpt lat="42.6934" lon="1.40407">
        <ele>2051.745</ele>
        <time>2024-08-31T11:13:58Z</time>
      </trkpt>
      <trkpt lat="42.6934" lon="1.4041">
        <ele>2052.345</ele>
        <time>2024-08-31T11:14:00Z</time>
      </trkpt>
      <trkpt lat="42.6934" lon="1.40412">
        <ele>2051.567</ele>
        <time>2024-08-31T11:14:02Z</time>
      </trkpt>
      <trkpt lat="42.69339" lon="1.40415">
        <ele>2051.623</ele>
        <time>2024-08-31T11:14:04Z</time>
      </trkpt>
      <trkpt lat="42.69339" lon="1.40417">
        <ele>2050.631</ele>
        <time>2024-08-31T11:14:06Z</time>
      </trkpt>
      <trkpt lat="42.69339" lon="1.40419">
        <ele>2050.137</ele>
        <time>2024-08-31T11:14:08Z</time>
      </trkpt>
      <trkpt lat="42.69339" lon="1.40422">
        <ele>2050.405</ele>
        <time>2024-08-31T11:14:10Z</time>
      </trkpt>
      <trkpt lat="42.69339" lon="1.40424">
        <ele>2050.386</ele>
        <time>2024-08-31T11:14:12Z</time>
      </trkpt>
      <trkpt lat="42.69339" lon="1.40426">
        <ele>2050.232</ele>
        <time>2024-08-31T11:14:14Z</time>
      </trkpt>
      <trkpt lat="42.69339" lon="1.40429">
        <ele>2049.455</ele>
        <time>2024-08-31T11:14:16Z</time>
      </trkpt>
      <trkpt lat="42.6934" lon="1.40431">
        <ele>2048.276</ele>
        <time>2024-08-31T11:14:18Z</time>
      </trkpt>
      <trkpt lat="42.6934" lon="1.40433">
        <ele>2048.334</ele>
        <time>2024-08-31T11:14:20Z</time>
      </trkpt>
      <trkpt lat="42.69342" lon="1.40434">
        <ele>2047.985</ele>
        <time>2024-08-31T11:14:22Z</time>
      </trkpt>
      <trkpt lat="42.69343" lon="1.40435">
        <ele>2047.257</ele>
        <time>2024-08-31T11:14:24Z</time>
      </trkpt>
      <trkpt lat="42.69344" lon="1.40434">
        <ele>2046.536</ele>
        <time>2024-08-31T11:14:26Z</time>
      </trkpt>
      <trkpt lat="42.69346" lon="1.40433">
        <ele>2045.163</ele>
        <time>2024-08-31T11:14:28Z</time>
      </trkpt>
      <trkpt lat="42.69347" lon="1.40433">
        <ele>2044.572</ele>
        <time>2024-08-31T11:14:30Z</time>
      </trkpt>
      <trkpt lat="42.69349" lon="1.40434">
        <ele>2043.416</ele>
        <time>2024-08-31T11:14:32Z</time>
      </trkpt>
      <trkpt lat="42.6935" lon="1.40434">
        <ele>2043.522</ele>
        <time>2024-08-31T11:14:34Z</time>
      </trkpt>
      <trkpt lat="42.69352" lon="1.40434">
        <ele>2042.573</ele>
        <time>2024-08-31T11:14:36Z</time>
      </trkpt>
      <trkpt lat="42.69353" lon="1.40434">
        <ele>2042.227</ele>
        <time>2024-08-31T11:14:38Z</time>
      </trkpt>
      <trkpt lat="42.69354" lon="1.40436">
        <ele>2040.689</ele>
        <time>2024-08-31T11:14:40Z</time>
      </trkpt>
      <trkpt lat="42.69355" lon="1.40437">
        <ele>2040.764</ele>
        <time>2024-08-31T11:14:42Z</time>
      </trkpt>
      <trkpt lat="42.69357" lon="1.40437">
        <ele>2040.358</ele>
        <time>2024-08-31T11:14:44Z</time>
      </trkpt>
      <trkpt lat="42.69358" lon="1.40439">
        <ele>2039.08</ele>
        <time>2024-08-31T11:14:46Z</time>
      </trkpt>
      <trkpt lat="42.69361" lon="1.4044">
        <ele>2039.328</ele>
        <time>2024-08-31T11:14:48Z</time>
      </trkpt>
      <trkpt lat="42.69362" lon="1.40442">
        <ele>2038.421</ele>
        <time>2024-08-31T11:14:50Z</time>
      </trkpt>
      <trkpt lat="42.69363" lon="1.40443">
        <ele>2038.194</ele>
        <time>2024-08-31T11:14:52Z</time>
      </trkpt>
      <trkpt lat="42.69365" lon="1.40443">
        <ele>2038.127</ele>
        <time>2024-08-31T11:14:54Z</time>
      </trkpt>
      <trkpt lat="42.69366" lon="1.40445">
        <ele>2036.789</ele>
        <time>2024-08-31T11:14:56Z</time>
      </trkpt>
      <trkpt lat="42.69368" lon="1.40446">
        <ele>2035.721</ele>
        <time>2024-08-31T11:14:58Z</time>
      </trkpt>
      <trkpt lat="42.69369" lon="1.40448">
        <ele>2036.002</ele>
        <time>2024-08-31T11:15:00Z</time>
      </trkpt>
      <trkpt lat="42.6937" lon="1.4045">
        <ele>2035.447</ele>
        <time>2024-08-31T11:15:02Z</time>
      </trkpt>
      <trkpt lat="42.69371" lon="1.40452">
        <ele>2036.134</ele>
        <time>2024-08-31T11:15:04Z</time>
      </trkpt>
      <trkpt lat="42.69373" lon="1.40455">
        <ele>2034.037</ele>
        <time>2024-08-31T11:15:06Z</time>
      </trkpt>
      <trkpt lat="42.69374" lon="1.40457">
        <ele>2033.281</ele>
        <time>2024-08-31T11:15:08Z</time>
      </trkpt>
      <trkpt lat="42.69376" lon="1.40459">
        <ele>2033.367</ele>
        <time>2024-08-31T11:15:10Z</time>
      </trkpt>
      <trkpt lat="42.69377" lon="1.40461">
        <ele>2034.449</ele>
        <time>2024-08-31T11:15:12Z</time>
      </trkpt>
      <trkpt lat="42.69378" lon="1.40463">
        <ele>2035.301</ele>
        <time>2024-08-31T11:15:14Z</time>
      </trkpt>
      <trkpt lat="42.6938" lon="1.40466">
        <ele>2034.491</ele>
        <time>2024-08-31T11:15:16Z</time>
      </trkpt>
      <trkpt lat="42.69381" lon="1.40468">
        <ele>2034.226</ele>
        <time>2024-08-31T11:15:18Z</time>
      </trkpt>
      <trkpt lat="42.69382" lon="1.40471">
        <ele>2033.587</ele>
        <time>2024-08-31T11:15:20Z</time>
      </trkpt>
      <trkpt lat="42.69384" lon="1.40474">
        <ele>2033.241</ele>
        <time>2024-08-31T11:15:22Z</time>
      </trkpt>
      <trkpt lat="42.69386" lon="1.40476">
        <ele>2033.494</ele>
        <time>2024-08-31T11:15:24Z</time>
      </trkpt>
      <trkpt lat="42.69388" lon="1.40477">
        <ele>2033.506</ele>
        <time>2024-08-31T11:15:26Z</time>
      </trkpt>
      <trkpt lat="42.6939" lon="1.40479">
        <ele>2033.318</ele>
        <time>2024-08-31T11:15:28Z</time>
      </trkpt>
      <trkpt lat="42.69392" lon="1.4048">
        <ele>2033.372</ele>
        <time>2024-08-31T11:15:30Z</time>
      </trkpt>
      <trkpt lat="42.69394" lon="1.40482">
        <ele>2033.983</ele>
        <time>2024-08-31T11:15:32Z</time>
      </trkpt>
      <trkpt lat="42.69396" lon="1.40483">
        <ele>2033.488</ele>
        <time>2024-08-31T11:15:34Z</time>
      </trkpt>
      <trkpt lat="42.69397" lon="1.40485">
        <ele>2033.763</ele>
        <time>2024-08-31T11:15:36Z</time>
      </trkpt>
      <trkpt lat="42.69399" lon="1.40488">
        <ele>2033.907</ele>
        <time>2024-08-31T11:15:38Z</time>
      </trkpt>
      <trkpt lat="42.69401" lon="1.4049">
        <ele>2034.229</ele>
        <time>2024-08-31T11:15:40Z</time>
      </trkpt>
      <trkpt lat="42.69402" lon="1.40492">
        <ele>2034.34</ele>
        <time>2024-08-31T11:15:42Z</time>
      </trkpt>
      <trkpt lat="42.69404" lon="1.40494">
        <ele>2034.537</ele>
        <time>2024-08-31T11:15:44Z</time>
      </trkpt>
      <trkpt lat="42.69406" lon="1.40496">
        <ele>2034.961</ele>
        <time>2024-08-31T11:15:46Z</time>
      </trkpt>
      <trkpt lat="42.69407" lon="1.40497">
        <ele>2034.425</ele>
        <time>2024-08-31T11:15:48Z</time>
      </trkpt>
      <trkpt lat="42.69409" lon="1.40499">
        <ele>2034.524</ele>
        <time>2024-08-31T11:15:50Z</time>
      </trkpt>
      <trkpt lat="42.69411" lon="1.40501">
        <ele>2034.321</ele>
        <time>2024-08-31T11:15:52Z</time>
      </trkpt>
      <trkpt lat="42.69414" lon="1.40503">
        <ele>2034.211</ele>
        <time>2024-08-31T11:15:54Z</time>
      </trkpt>
      <trkpt lat="42.69416" lon="1.40505">
        <ele>2034.387</ele>
        <time>2024-08-31T11:15:56Z</time>
      </trkpt>
      <trkpt lat="42.69417" lon="1.40507">
        <ele>2033.984</ele>
        <time>2024-08-31T11:15:58Z</time>
      </trkpt>
      <trkpt lat="42.69419" lon="1.4051">
        <ele>2034.2</ele>
        <time>2024-08-31T11:16:00Z</time>
      </trkpt>
      <trkpt lat="42.69421" lon="1.40512">
        <ele>2034.467</ele>
        <time>2024-08-31T11:16:02Z</time>
      </trkpt>
      <trkpt lat="42.69422" lon="1.40513">
        <ele>2034.011</ele>
        <time>2024-08-31T11:16:04Z</time>
      </trkpt>
      <trkpt lat="42.69424" lon="1.40513">
        <ele>2033.832</ele>
        <time>2024-08-31T11:16:06Z</time>
      </trkpt>
      <trkpt lat="42.69426" lon="1.40514">
        <ele>2034.102</ele>
        <time>2024-08-31T11:16:08Z</time>
      </trkpt>
      <trkpt lat="42.69428" lon="1.40515">
        <ele>2033.878</ele>
        <time>2024-08-31T11:16:10Z</time>
      </trkpt>
      <trkpt lat="42.6943" lon="1.40516">
        <ele>2032.954</ele>
        <time>2024-08-31T11:16:12Z</time>
      </trkpt>
      <trkpt lat="42.69431" lon="1.40518">
        <ele>2032.718</ele>
        <time>2024-08-31T11:16:14Z</time>
      </trkpt>
      <trkpt lat="42.69433" lon="1.4052">
        <ele>2032.737</ele>
        <time>2024-08-31T11:16:16Z</time>
      </trkpt>
      <trkpt lat="42.69435" lon="1.4052">
        <ele>2032.555</ele>
        <time>2024-08-31T11:16:18Z</time>
      </trkpt>
      <trkpt lat="42.69437" lon="1.4052">
        <ele>2032.503</ele>
        <time>2024-08-31T11:16:20Z</time>
      </trkpt>
      <trkpt lat="42.69439" lon="1.4052">
        <ele>2032.994</ele>
        <time>2024-08-31T11:16:22Z</time>
      </trkpt>
      <trkpt lat="42.69441" lon="1.40521">
        <ele>2032.806</ele>
        <time>2024-08-31T11:16:24Z</time>
      </trkpt>
      <trkpt lat="42.69442" lon="1.40522">
        <ele>2032.486</ele>
        <time>2024-08-31T11:16:26Z</time>
      </trkpt>
      <trkpt lat="42.69444" lon="1.40522">
        <ele>2032.285</ele>
        <time>2024-08-31T11:16:28Z</time>
      </trkpt>
      <trkpt lat="42.69446" lon="1.40522">
        <ele>2031.563</ele>
        <time>2024-08-31T11:16:30Z</time>
      </trkpt>
      <trkpt lat="42.69448" lon="1.40523">
        <ele>2031.038</ele>
        <time>2024-08-31T11:16:32Z</time>
      </trkpt>
      <trkpt lat="42.6945" lon="1.40524">
        <ele>2030.752</ele>
        <time>2024-08-31T11:16:34Z</time>
      </trkpt>
      <trkpt lat="42.69452" lon="1.40525">
        <ele>2030.695</ele>
        <time>2024-08-31T11:16:36Z</time>
      </trkpt>
      <trkpt lat="42.69453" lon="1.40526">
        <ele>2030.764</ele>
        <time>2024-08-31T11:16:38Z</time>
      </trkpt>
      <trkpt lat="42.69455" lon="1.40527">
        <ele>2030.62</ele>
        <time>2024-08-31T11:16:40Z</time>
      </trkpt>
      <trkpt lat="42.69457" lon="1.40528">
        <ele>2029.578</ele>
        <time>2024-08-31T11:16:42Z</time>
      </trkpt>
      <trkpt lat="42.69458" lon="1.40528">
        <ele>2029.839</ele>
        <time>2024-08-31T11:16:44Z</time>
      </trkpt>
      <trkpt lat="42.6946" lon="1.40529">
        <ele>2029.65</ele>
        <time>2024-08-31T11:16:46Z</time>
      </trkpt>
      <trkpt lat="42.69462" lon="1.4053">
        <ele>2029.85</ele>
        <time>2024-08-31T11:16:48Z</time>
      </trkpt>
      <trkpt lat="42.69463" lon="1.40531">
        <ele>2029.716</ele>
        <time>2024-08-31T11:16:50Z</time>
      </trkpt>
      <trkpt lat="42.69465" lon="1.40532">
        <ele>2028.995</ele>
        <time>2024-08-31T11:16:52Z</time>
      </trkpt>
      <trkpt lat="42.69466" lon="1.40533">
        <ele>2028.99</ele>
        <time>2024-08-31T11:16:54Z</time>
      </trkpt>
      <trkpt lat="42.69467" lon="1.40534">
        <ele>2028.926</ele>
        <time>2024-08-31T11:16:56Z</time>
      </trkpt>
      <trkpt lat="42.69468" lon="1.40535">
        <ele>2028.573</ele>
        <time>2024-08-31T11:16:58Z</time>
      </trkpt>
      <trkpt lat="42.69469" lon="1.40535">
        <ele>2028.655</ele>
        <time>2024-08-31T11:17:00Z</time>
      </trkpt>
      <trkpt lat="42.69471" lon="1.40535">
        <ele>2027.857</ele>
        <time>2024-08-31T11:17:02Z</time>
      </trkpt>
      <trkpt lat="42.69472" lon="1.40536">
        <ele>2027.627</ele>
        <time>2024-08-31T11:17:04Z</time>
      </trkpt>
      <trkpt lat="42.69473" lon="1.40535">
        <ele>2027.394</ele>
        <time>2024-08-31T11:17:06Z</time>
      </trkpt>
      <trkpt lat="42.69475" lon="1.40533">
        <ele>2027.474</ele>
        <time>2024-08-31T11:17:08Z</time>
      </trkpt>
      <trkpt lat="42.69476" lon="1.40532">
        <ele>2027.184</ele>
        <time>2024-08-31T11:17:10Z</time>
      </trkpt>
      <trkpt lat="42.69477" lon="1.40533">
        <ele>2026.365</ele>
        <time>2024-08-31T11:17:12Z</time>
      </trkpt>
      <trkpt lat="42.69477" lon="1.40535">
        <ele>2026.828</ele>
        <time>2024-08-31T11:17:14Z</time>
      </trkpt>
      <trkpt lat="42.69478" lon="1.40536">
        <ele>2026.831</ele>
        <time>2024-08-31T11:17:16Z</time>
      </trkpt>
      <trkpt lat="42.69479" lon="1.40537">
        <ele>2025.856</ele>
        <time>2024-08-31T11:17:18Z</time>
      </trkpt>
      <trkpt lat="42.69481" lon="1.40537">
        <ele>2025.385</ele>
        <time>2024-08-31T11:17:20Z</time>
      </trkpt>
      <trkpt lat="42.69482" lon="1.40535">
        <ele>2025.111</ele>
        <time>2024-08-31T11:17:22Z</time>
      </trkpt>
      <trkpt lat="42.69483" lon="1.40534">
        <ele>2024.913</ele>
        <time>2024-08-31T11:17:24Z</time>
      </trkpt>
      <trkpt lat="42.69484" lon="1.40535">
        <ele>2024.073</ele>
        <time>2024-08-31T11:17:26Z</time>
      </trkpt>
      <trkpt lat="42.69485" lon="1.40536">
        <ele>2023.308</ele>
        <time>2024-08-31T11:17:28Z</time>
      </trkpt>
      <trkpt lat="42.69487" lon="1.40536">
        <ele>2023.119</ele>
        <time>2024-08-31T11:17:30Z</time>
      </trkpt>
      <trkpt lat="42.69489" lon="1.40537">
        <ele>2021.67</ele>
        <time>2024-08-31T11:17:32Z</time>
      </trkpt>
      <trkpt lat="42.6949" lon="1.40539">
        <ele>2020.6</ele>
        <time>2024-08-31T11:17:34Z</time>
      </trkpt>
      <trkpt lat="42.69492" lon="1.40539">
        <ele>2019.286</ele>
        <time>2024-08-31T11:17:36Z</time>
      </trkpt>
      <trkpt lat="42.69494" lon="1.40538">
        <ele>2017.509</ele>
        <time>2024-08-31T11:17:38Z</time>
      </trkpt>
      <trkpt lat="42.69495" lon="1.40539">
        <ele>2017.58</ele>
        <time>2024-08-31T11:17:40Z</time>
      </trkpt>
      <trkpt lat="42.69496" lon="1.40542">
        <ele>2017.381</ele>
        <time>2024-08-31T11:17:42Z</time>
      </trkpt>
      <trkpt lat="42.69498" lon="1.40542">
        <ele>2016.936</ele>
        <time>2024-08-31T11:17:45Z</time>
      </trkpt>
      <trkpt lat="42.695" lon="1.40541">
        <ele>2015.965</ele>
        <time>2024-08-31T11:17:47Z</time>
      </trkpt>
      <trkpt lat="42.69501" lon="1.40539">
        <ele>2015.219</ele>
        <time>2024-08-31T11:17:49Z</time>
      </trkpt>
      <trkpt lat="42.69503" lon="1.40538">
        <ele>2014.77</ele>
        <time>2024-08-31T11:17:51Z</time>
      </trkpt>
      <trkpt lat="42.69505" lon="1.40539">
        <ele>2013.853</ele>
        <time>2024-08-31T11:17:53Z</time>
      </trkpt>
      <trkpt lat="42.69505" lon="1.40541">
        <ele>2012.849</ele>
        <time>2024-08-31T11:17:55Z</time>
      </trkpt>
      <trkpt lat="42.69505" lon="1.40544">
        <ele>2012.137</ele>
        <time>2024-08-31T11:17:57Z</time>
      </trkpt>
      <trkpt lat="42.69507" lon="1.40545">
        <ele>2011.406</ele>
        <time>2024-08-31T11:17:59Z</time>
      </trkpt>
      <trkpt lat="42.69509" lon="1.40546">
        <ele>2010.694</ele>
        <time>2024-08-31T11:18:01Z</time>
      </trkpt>
      <trkpt lat="42.69511" lon="1.40546">
        <ele>2010.595</ele>
        <time>2024-08-31T11:18:03Z</time>
      </trkpt>
      <trkpt lat="42.69513" lon="1.40546">
        <ele>2009.29</ele>
        <time>2024-08-31T11:18:05Z</time>
      </trkpt>
      <trkpt lat="42.69516" lon="1.40545">
        <ele>2009.008</ele>
        <time>2024-08-31T11:18:07Z</time>
      </trkpt>
      <trkpt lat="42.69518" lon="1.40541">
        <ele>2010.195</ele>
        <time>2024-08-31T11:18:09Z</time>
      </trkpt>
      <trkpt lat="42.6952" lon="1.40538">
        <ele>2009.272</ele>
        <time>2024-08-31T11:18:11Z</time>
      </trkpt>
      <trkpt lat="42.69522" lon="1.40538">
        <ele>2008.039</ele>
        <time>2024-08-31T11:18:13Z</time>
      </trkpt>
      <trkpt lat="42.69524" lon="1.40539">
        <ele>2007.364</ele>
        <time>2024-08-31T11:18:15Z</time>
      </trkpt>
      <trkpt lat="42.69526" lon="1.40541">
        <ele>2006.29</ele>
        <time>2024-08-31T11:18:17Z</time>
      </trkpt>
      <trkpt lat="42.69527" lon="1.40541">
        <ele>2006.177</ele>
        <time>2024-08-31T11:18:19Z</time>
      </trkpt>
      <trkpt lat="42.69528" lon="1.40538">
        <ele>2006.002</ele>
        <time>2024-08-31T11:18:21Z</time>
      </trkpt>
      <trkpt lat="42.69529" lon="1.40537">
        <ele>2005.962</ele>
        <time>2024-08-31T11:18:23Z</time>
      </trkpt>
      <trkpt lat="42.69531" lon="1.40537">
        <ele>2005.914</ele>
        <time>2024-08-31T11:18:25Z</time>
      </trkpt>
      <trkpt lat="42.69532" lon="1.40538">
        <ele>2005.941</ele>
        <time>2024-08-31T11:18:27Z</time>
      </trkpt>
      <trkpt lat="42.69534" lon="1.4054">
        <ele>2005.89</ele>
        <time>2024-08-31T11:18:29Z</time>
      </trkpt>
      <trkpt lat="42.69536" lon="1.40541">
        <ele>2005.307</ele>
        <time>2024-08-31T11:18:31Z</time>
      </trkpt>
      <trkpt lat="42.69537" lon="1.40542">
        <ele>2004.529</ele>
        <time>2024-08-31T11:18:33Z</time>
      </trkpt>
      <trkpt lat="42.69539" lon="1.40543">
        <ele>2003.628</ele>
        <time>2024-08-31T11:18:35Z</time>
      </trkpt>
      <trkpt lat="42.6954" lon="1.40544">
        <ele>2002.19</ele>
        <time>2024-08-31T11:18:37Z</time>
      </trkpt>
      <trkpt lat="42.69542" lon="1.40542">
        <ele>2000.723</ele>
        <time>2024-08-31T11:18:39Z</time>
      </trkpt>
      <trkpt lat="42.69543" lon="1.40541">
        <ele>1999.958</ele>
        <time>2024-08-31T11:18:41Z</time>
      </trkpt>
      <trkpt lat="42.69545" lon="1.4054">
        <ele>1999.559</ele>
        <time>2024-08-31T11:18:43Z</time>
      </trkpt>
      <trkpt lat="42.69547" lon="1.4054">
        <ele>1999.321</ele>
        <time>2024-08-31T11:18:45Z</time>
      </trkpt>
      <trkpt lat="42.69549" lon="1.40541">
        <ele>1999.513</ele>
        <time>2024-08-31T11:18:47Z</time>
      </trkpt>
      <trkpt lat="42.6955" lon="1.40543">
        <ele>1999.13</ele>
        <time>2024-08-31T11:18:49Z</time>
      </trkpt>
      <trkpt lat="42.6955" lon="1.40544">
        <ele>1998.902</ele>
        <time>2024-08-31T11:18:51Z</time>
      </trkpt>
      <trkpt lat="42.69552" lon="1.40545">
        <ele>1997.484</ele>
        <time>2024-08-31T11:18:53Z</time>
      </trkpt>
      <trkpt lat="42.69553" lon="1.40544">
        <ele>1996.543</ele>
        <time>2024-08-31T11:18:55Z</time>
      </trkpt>
      <trkpt lat="42.69555" lon="1.40545">
        <ele>1996.307</ele>
        <time>2024-08-31T11:18:57Z</time>
      </trkpt>
      <trkpt lat="42.69555" lon="1.40547">
        <ele>1995.595</ele>
        <time>2024-08-31T11:18:59Z</time>
      </trkpt>
      <trkpt lat="42.69556" lon="1.40549">
        <ele>1995.344</ele>
        <time>2024-08-31T11:19:01Z</time>
      </trkpt>
      <trkpt lat="42.69557" lon="1.40551">
        <ele>1994.446</ele>
        <time>2024-08-31T11:19:03Z</time>
      </trkpt>
      <trkpt lat="42.69557" lon="1.40552">
        <ele>1994.273</ele>
        <time>2024-08-31T11:19:05Z</time>
      </trkpt>
      <trkpt lat="42.69559" lon="1.40551">
        <ele>1994.082</ele>
        <time>2024-08-31T11:19:07Z</time>
      </trkpt>
      <trkpt lat="42.69559" lon="1.4055">
        <ele>1993.135</ele>
        <time>2024-08-31T11:19:09Z</time>
      </trkpt>
      <trkpt lat="42.69561" lon="1.4055">
        <ele>1992.066</ele>
        <time>2024-08-31T11:19:11Z</time>
      </trkpt>
      <trkpt lat="42.69562" lon="1.4055">
        <ele>1991.258</ele>
        <time>2024-08-31T11:19:13Z</time>
      </trkpt>
      <trkpt lat="42.69564" lon="1.4055">
        <ele>1989.396</ele>
        <time>2024-08-31T11:19:15Z</time>
      </trkpt>
      <trkpt lat="42.69566" lon="1.40549">
        <ele>1987.92</ele>
        <time>2024-08-31T11:19:17Z</time>
      </trkpt>
      <trkpt lat="42.69568" lon="1.40547">
        <ele>1986.885</ele>
        <time>2024-08-31T11:19:19Z</time>
      </trkpt>
      <trkpt lat="42.69568" lon="1.40544">
        <ele>1986.541</ele>
        <time>2024-08-31T11:19:21Z</time>
      </trkpt>
      <trkpt lat="42.69568" lon="1.40541">
        <ele>1985.473</ele>
        <time>2024-08-31T11:19:23Z</time>
      </trkpt>
      <trkpt lat="42.69568" lon="1.40538">
        <ele>1985.354</ele>
        <time>2024-08-31T11:19:25Z</time>
      </trkpt>
      <trkpt lat="42.69568" lon="1.40536">
        <ele>1984.673</ele>
        <time>2024-08-31T11:19:27Z</time>
      </trkpt>
      <trkpt lat="42.69569" lon="1.40534">
        <ele>1983.554</ele>
        <time>2024-08-31T11:19:29Z</time>
      </trkpt>
      <trkpt lat="42.69571" lon="1.40533">
        <ele>1982.941</ele>
        <time>2024-08-31T11:19:31Z</time>
      </trkpt>
      <trkpt lat="42.69573" lon="1.40533">
        <ele>1982.201</ele>
        <time>2024-08-31T11:19:33Z</time>
      </trkpt>
      <trkpt lat="42.69575" lon="1.40534">
        <ele>1982.101</ele>
        <time>2024-08-31T11:19:35Z</time>
      </trkpt>
      <trkpt lat="42.69577" lon="1.40535">
        <ele>1981.255</ele>
        <time>2024-08-31T11:19:37Z</time>
      </trkpt>
      <trkpt lat="42.69578" lon="1.40536">
        <ele>1979.899</ele>
        <time>2024-08-31T11:19:39Z</time>
      </trkpt>
      <trkpt lat="42.69579" lon="1.40538">
        <ele>1980.364</ele>
        <time>2024-08-31T11:19:41Z</time>
      </trkpt>
      <trkpt lat="42.6958" lon="1.4054">
        <ele>1980.503</ele>
        <time>2024-08-31T11:19:43Z</time>
      </trkpt>
      <trkpt lat="42.69581" lon="1.40542">
        <ele>1980.079</ele>
        <time>2024-08-31T11:19:45Z</time>
      </trkpt>
      <trkpt lat="42.69581" lon="1.40544">
        <ele>1980.166</ele>
        <time>2024-08-31T11:19:47Z</time>
      </trkpt>
      <trkpt lat="42.69582" lon="1.40545">
        <ele>1980.329</ele>
        <time>2024-08-31T11:19:49Z</time>
      </trkpt>
      <trkpt lat="42.69583" lon="1.40546">
        <ele>1979.838</ele>
        <time>2024-08-31T11:19:51Z</time>
      </trkpt>
      <trkpt lat="42.69584" lon="1.40546">
        <ele>1980.365</ele>
        <time>2024-08-31T11:19:53Z</time>
      </trkpt>
      <trkpt lat="42.69585" lon="1.40547">
        <ele>1981.399</ele>
        <time>2024-08-31T11:19:55Z</time>
      </trkpt>
      <trkpt lat="42.69585" lon="1.40548">
        <ele>1980.812</ele>
        <time>2024-08-31T11:19:57Z</time>
      </trkpt>
      <trkpt lat="42.69585" lon="1.4055">
        <ele>1978.745</ele>
        <time>2024-08-31T11:19:59Z</time>
      </trkpt>
      <trkpt lat="42.69586" lon="1.40551">
        <ele>1978.012</ele>
        <time>2024-08-31T11:20:01Z</time>
      </trkpt>
      <trkpt lat="42.69587" lon="1.40551">
        <ele>1980.172</ele>
        <time>2024-08-31T11:20:03Z</time>
      </trkpt>
      <trkpt lat="42.69588" lon="1.40548">
        <ele>1979.449</ele>
        <time>2024-08-31T11:20:05Z</time>
      </trkpt>
      <trkpt lat="42.69587" lon="1.40546">
        <ele>1979.028</ele>
        <time>2024-08-31T11:20:07Z</time>
      </trkpt>
      <trkpt lat="42.69587" lon="1.40544">
        <ele>1977.459</ele>
        <time>2024-08-31T11:20:09Z</time>
      </trkpt>
      <trkpt lat="42.69589" lon="1.40543">
        <ele>1976.931</ele>
        <time>2024-08-31T11:20:11Z</time>
      </trkpt>
      <trkpt lat="42.6959" lon="1.40544">
        <ele>1977.706</ele>
        <time>2024-08-31T11:20:13Z</time>
      </trkpt>
      <trkpt lat="42.69591" lon="1.40546">
        <ele>1977.548</ele>
        <time>2024-08-31T11:20:15Z</time>
      </trkpt>
      <trkpt lat="42.69591" lon="1.40548">
        <ele>1976.805</ele>
        <time>2024-08-31T11:20:17Z</time>
      </trkpt>
      <trkpt lat="42.69591" lon="1.4055">
        <ele>1976.063</ele>
        <time>2024-08-31T11:20:19Z</time>
      </trkpt>
      <trkpt lat="42.69591" lon="1.40551">
        <ele>1975.399</ele>
        <time>2024-08-31T11:20:21Z</time>
      </trkpt>
      <trkpt lat="42.69592" lon="1.40552">
        <ele>1974.737</ele>
        <time>2024-08-31T11:20:23Z</time>
      </trkpt>
      <trkpt lat="42.69593" lon="1.40553">
        <ele>1974.304</ele>
        <time>2024-08-31T11:20:25Z</time>
      </trkpt>
      <trkpt lat="42.69595" lon="1.40554">
        <ele>1973.382</ele>
        <time>2024-08-31T11:20:27Z</time>
      </trkpt>
      <trkpt lat="42.69596" lon="1.40554">
        <ele>1972.679</ele>
        <time>2024-08-31T11:20:29Z</time>
      </trkpt>
      <trkpt lat="42.69598" lon="1.40553">
        <ele>1972.27</ele>
        <time>2024-08-31T11:20:31Z</time>
      </trkpt>
      <trkpt lat="42.69598" lon="1.40552">
        <ele>1972.076</ele>
        <time>2024-08-31T11:20:33Z</time>
      </trkpt>
      <trkpt lat="42.69598" lon="1.4055">
        <ele>1971.811</ele>
        <time>2024-08-31T11:20:35Z</time>
      </trkpt>
      <trkpt lat="42.69597" lon="1.40548">
        <ele>1971.094</ele>
        <time>2024-08-31T11:20:37Z</time>
      </trkpt>
      <trkpt lat="42.69597" lon="1.40546">
        <ele>1971.137</ele>
        <time>2024-08-31T11:20:39Z</time>
      </trkpt>
      <trkpt lat="42.69597" lon="1.40545">
        <ele>1970.75</ele>
        <time>2024-08-31T11:20:41Z</time>
      </trkpt>
      <trkpt lat="42.69596" lon="1.40543">
        <ele>1970.601</ele>
        <time>2024-08-31T11:20:43Z</time>
      </trkpt>
      <trkpt lat="42.69597" lon="1.40541">
        <ele>1969.027</ele>
        <time>2024-08-31T11:20:45Z</time>
      </trkpt>
      <trkpt lat="42.69597" lon="1.40541">
        <ele>1969.539</ele>
        <time>2024-08-31T11:20:47Z</time>
      </trkpt>
      <trkpt lat="42.69597" lon="1.40541">
        <ele>1968.96</ele>
        <time>2024-08-31T11:20:49Z</time>
      </trkpt>
      <trkpt lat="42.69597" lon="1.40541">
        <ele>1967.991</ele>
        <time>2024-08-31T11:20:51Z</time>
      </trkpt>
      <trkpt lat="42.69597" lon="1.40541">
        <ele>1967.133</ele>
        <time>2024-08-31T11:20:53Z</time>
      </trkpt>
      <trkpt lat="42.69597" lon="1.40541">
        <ele>1966.661</ele>
        <time>2024-08-31T11:20:55Z</time>
      </trkpt>
      <trkpt lat="42.69597" lon="1.40541">
        <ele>1966.057</ele>
        <time>2024-08-31T11:20:57Z</time>
      </trkpt>
      <trkpt lat="42.69597" lon="1.40541">
        <ele>1966.3</ele>
        <time>2024-08-31T11:20:59Z</time>
      </trkpt>
      <trkpt lat="42.69597" lon="1.40541">
        <ele>1965.194</ele>
        <time>2024-08-31T11:21:01Z</time>
      </trkpt>
      <trkpt lat="42.69604" lon="1.40534">
        <ele>1964.044</ele>
        <time>2024-08-31T11:21:03Z</time>
      </trkpt>
      <trkpt lat="42.69605" lon="1.40534">
        <ele>1963.781</ele>
        <time>2024-08-31T11:21:05Z</time>
      </trkpt>
      <trkpt lat="42.69606" lon="1.40532">
        <ele>1962.953</ele>
        <time>2024-08-31T11:21:07Z</time>
      </trkpt>
      <trkpt lat="42.69607" lon="1.40532">
        <ele>1961.929</ele>
        <time>2024-08-31T11:21:09Z</time>
      </trkpt>
      <trkpt lat="42.69607" lon="1.40533">
        <ele>1961.758</ele>
        <time>2024-08-31T11:21:11Z</time>
      </trkpt>
      <trkpt lat="42.69608" lon="1.40536">
        <ele>1960.637</ele>
        <time>2024-08-31T11:21:13Z</time>
      </trkpt>
      <trkpt lat="42.69609" lon="1.40537">
        <ele>1959.238</ele>
        <time>2024-08-31T11:21:15Z</time>
      </trkpt>
      <trkpt lat="42.69609" lon="1.4054">
        <ele>1958.842</ele>
        <time>2024-08-31T11:21:17Z</time>
      </trkpt>
      <trkpt lat="42.6961" lon="1.40541">
        <ele>1959.351</ele>
        <time>2024-08-31T11:21:19Z</time>
      </trkpt>
      <trkpt lat="42.69611" lon="1.40543">
        <ele>1959.505</ele>
        <time>2024-08-31T11:21:21Z</time>
      </trkpt>
      <trkpt lat="42.69612" lon="1.40543">
        <ele>1958.933</ele>
        <time>2024-08-31T11:21:23Z</time>
      </trkpt>
      <trkpt lat="42.69614" lon="1.40544">
        <ele>1958.312</ele>
        <time>2024-08-31T11:21:25Z</time>
      </trkpt>
      <trkpt lat="42.69614" lon="1.40545">
        <ele>1958.252</ele>
        <time>2024-08-31T11:21:27Z</time>
      </trkpt>
      <trkpt lat="42.69615" lon="1.40547">
        <ele>1958.292</ele>
        <time>2024-08-31T11:21:29Z</time>
      </trkpt>
      <trkpt lat="42.69616" lon="1.40549">
        <ele>1958.331</ele>
        <time>2024-08-31T11:21:31Z</time>
      </trkpt>
      <trkpt lat="42.69617" lon="1.40552">
        <ele>1957.213</ele>
        <time>2024-08-31T11:21:33Z</time>
      </trkpt>
      <trkpt lat="42.69618" lon="1.40554">
        <ele>1957.024</ele>
        <time>2024-08-31T11:21:35Z</time>
      </trkpt>
      <trkpt lat="42.69619" lon="1.40556">
        <ele>1956.362</ele>
        <time>2024-08-31T11:21:37Z</time>
      </trkpt>
      <trkpt lat="42.6962" lon="1.40557">
        <ele>1955.63</ele>
        <time>2024-08-31T11:21:39Z</time>
      </trkpt>
      <trkpt lat="42.69623" lon="1.4056">
        <ele>1953.927</ele>
        <time>2024-08-31T11:21:42Z</time>
      </trkpt>
      <trkpt lat="42.69624" lon="1.40562">
        <ele>1953.23</ele>
        <time>2024-08-31T11:21:44Z</time>
      </trkpt>
      <trkpt lat="42.69626" lon="1.40564">
        <ele>1952.797</ele>
        <time>2024-08-31T11:21:46Z</time>
      </trkpt>
      <trkpt lat="42.69626" lon="1.40567">
        <ele>1952.383</ele>
        <time>2024-08-31T11:21:48Z</time>
      </trkpt>
      <trkpt lat="42.69628" lon="1.40569">
        <ele>1951.905</ele>
        <time>2024-08-31T11:21:50Z</time>
      </trkpt>
      <trkpt lat="42.69629" lon="1.4057">
        <ele>1951.939</ele>
        <time>2024-08-31T11:21:52Z</time>
      </trkpt>
      <trkpt lat="42.69631" lon="1.40568">
        <ele>1951.327</ele>
        <time>2024-08-31T11:21:54Z</time>
      </trkpt>
      <trkpt lat="42.69632" lon="1.40566">
        <ele>1950.988</ele>
        <time>2024-08-31T11:21:56Z</time>
      </trkpt>
      <trkpt lat="42.69634" lon="1.40564">
        <ele>1949.72</ele>
        <time>2024-08-31T11:21:58Z</time>
      </trkpt>
      <trkpt lat="42.69635" lon="1.40562">
        <ele>1948.248</ele>
        <time>2024-08-31T11:22:00Z</time>
      </trkpt>
      <trkpt lat="42.69637" lon="1.4056">
        <ele>1947.631</ele>
        <time>2024-08-31T11:22:02Z</time>
      </trkpt>
      <trkpt lat="42.69638" lon="1.40562">
        <ele>1946.382</ele>
        <time>2024-08-31T11:22:04Z</time>
      </trkpt>
      <trkpt lat="42.69639" lon="1.40564">
        <ele>1946.733</ele>
        <time>2024-08-31T11:22:06Z</time>
      </trkpt>
      <trkpt lat="42.69641" lon="1.40566">
        <ele>1946.776</ele>
        <time>2024-08-31T11:22:08Z</time>
      </trkpt>
      <trkpt lat="42.69642" lon="1.40567">
        <ele>1946.182</ele>
        <time>2024-08-31T11:22:10Z</time>
      </trkpt>
      <trkpt lat="42.69643" lon="1.4057">
        <ele>1946.745</ele>
        <time>2024-08-31T11:22:12Z</time>
      </trkpt>
      <trkpt lat="42.69642" lon="1.40572">
        <ele>1946.486</ele>
        <time>2024-08-31T11:22:14Z</time>
      </trkpt>
      <trkpt lat="42.69642" lon="1.40574">
        <ele>1945.835</ele>
        <time>2024-08-31T11:22:16Z</time>
      </trkpt>
      <trkpt lat="42.69641" lon="1.40577">
        <ele>1946.532</ele>
        <time>2024-08-31T11:22:18Z</time>
      </trkpt>
      <trkpt lat="42.6964" lon="1.40578">
        <ele>1945.574</ele>
        <time>2024-08-31T11:22:20Z</time>
      </trkpt>
      <trkpt lat="42.69638" lon="1.4058">
        <ele>1945.849</ele>
        <time>2024-08-31T11:22:22Z</time>
      </trkpt>
      <trkpt lat="42.69637" lon="1.40581">
        <ele>1945.359</ele>
        <time>2024-08-31T11:22:24Z</time>
      </trkpt>
      <trkpt lat="42.69636" lon="1.40583">
        <ele>1944.909</ele>
        <time>2024-08-31T11:22:26Z</time>
      </trkpt>
      <trkpt lat="42.69636" lon="1.40586">
        <ele>1943.586</ele>
        <time>2024-08-31T11:22:28Z</time>
      </trkpt>
      <trkpt lat="42.69635" lon="1.40588">
        <ele>1943.505</ele>
        <time>2024-08-31T11:22:30Z</time>
      </trkpt>
      <trkpt lat="42.69634" lon="1.40589">
        <ele>1943.74</ele>
        <time>2024-08-31T11:22:32Z</time>
      </trkpt>
      <trkpt lat="42.69632" lon="1.40592">
        <ele>1943.258</ele>
        <time>2024-08-31T11:22:34Z</time>
      </trkpt>
      <trkpt lat="42.69631" lon="1.40593">
        <ele>1943.939</ele>
        <time>2024-08-31T11:22:36Z</time>
      </trkpt>
      <trkpt lat="42.69629" lon="1.40596">
        <ele>1943.826</ele>
        <time>2024-08-31T11:22:38Z</time>
      </trkpt>
      <trkpt lat="42.69628" lon="1.40597">
        <ele>1944.082</ele>
        <time>2024-08-31T11:22:40Z</time>
      </trkpt>
      <trkpt lat="42.69628" lon="1.406">
        <ele>1944.457</ele>
        <time>2024-08-31T11:22:42Z</time>
      </trkpt>
      <trkpt lat="42.69627" lon="1.40602">
        <ele>1945.049</ele>
        <time>2024-08-31T11:22:44Z</time>
      </trkpt>
      <trkpt lat="42.69627" lon="1.40605">
        <ele>1945.005</ele>
        <time>2024-08-31T11:22:46Z</time>
      </trkpt>
      <trkpt lat="42.69626" lon="1.40606">
        <ele>1945.276</ele>
        <time>2024-08-31T11:22:48Z</time>
      </trkpt>
      <trkpt lat="42.69626" lon="1.40608">
        <ele>1944.792</ele>
        <time>2024-08-31T11:22:50Z</time>
      </trkpt>
      <trkpt lat="42.69626" lon="1.40611">
        <ele>1945.272</ele>
        <time>2024-08-31T11:22:52Z</time>
      </trkpt>
      <trkpt lat="42.69626" lon="1.40613">
        <ele>1944.951</ele>
        <time>2024-08-31T11:22:54Z</time>
      </trkpt>
      <trkpt lat="42.69627" lon="1.40615">
        <ele>1943.565</ele>
        <time>2024-08-31T11:22:56Z</time>
      </trkpt>
      <trkpt lat="42.69627" lon="1.40617">
        <ele>1942.646</ele>
        <time>2024-08-31T11:22:58Z</time>
      </trkpt>
      <trkpt lat="42.69627" lon="1.40619">
        <ele>1943.273</ele>
        <time>2024-08-31T11:23:00Z</time>
      </trkpt>
      <trkpt lat="42.69627" lon="1.40622">
        <ele>1943.327</ele>
        <time>2024-08-31T11:23:02Z</time>
      </trkpt>
      <trkpt lat="42.69627" lon="1.40625">
        <ele>1943.768</ele>
        <time>2024-08-31T11:23:04Z</time>
      </trkpt>
      <trkpt lat="42.69627" lon="1.40627">
        <ele>1943.725</ele>
        <time>2024-08-31T11:23:06Z</time>
      </trkpt>
      <trkpt lat="42.69626" lon="1.40629">
        <ele>1944.724</ele>
        <time>2024-08-31T11:23:08Z</time>
      </trkpt>
      <trkpt lat="42.69626" lon="1.40631">
        <ele>1944.045</ele>
        <time>2024-08-31T11:23:10Z</time>
      </trkpt>
      <trkpt lat="42.69626" lon="1.40634">
        <ele>1944.322</ele>
        <time>2024-08-31T11:23:12Z</time>
      </trkpt>
      <trkpt lat="42.69627" lon="1.40636">
        <ele>1946.478</ele>
        <time>2024-08-31T11:23:14Z</time>
      </trkpt>
      <trkpt lat="42.69627" lon="1.40639">
        <ele>1946.347</ele>
        <time>2024-08-31T11:23:16Z</time>
      </trkpt>
      <trkpt lat="42.69627" lon="1.40641">
        <ele>1945.901</ele>
        <time>2024-08-31T11:23:18Z</time>
      </trkpt>
      <trkpt lat="42.69627" lon="1.40644">
        <ele>1945.776</ele>
        <time>2024-08-31T11:23:20Z</time>
      </trkpt>
      <trkpt lat="42.69627" lon="1.40647">
        <ele>1945.618</ele>
        <time>2024-08-31T11:23:22Z</time>
      </trkpt>
      <trkpt lat="42.69627" lon="1.4065">
        <ele>1944.892</ele>
        <time>2024-08-31T11:23:24Z</time>
      </trkpt>
      <trkpt lat="42.69626" lon="1.40652">
        <ele>1944.804</ele>
        <time>2024-08-31T11:23:26Z</time>
      </trkpt>
      <trkpt lat="42.69626" lon="1.40655">
        <ele>1943.954</ele>
        <time>2024-08-31T11:23:28Z</time>
      </trkpt>
      <trkpt lat="42.69625" lon="1.40657">
        <ele>1943.972</ele>
        <time>2024-08-31T11:23:30Z</time>
      </trkpt>
      <trkpt lat="42.69625" lon="1.40658">
        <ele>1943.317</ele>
        <time>2024-08-31T11:23:32Z</time>
      </trkpt>
      <trkpt lat="42.69624" lon="1.4066">
        <ele>1942.382</ele>
        <time>2024-08-31T11:23:34Z</time>
      </trkpt>
      <trkpt lat="42.69625" lon="1.40662">
        <ele>1942.44</ele>
        <time>2024-08-31T11:23:36Z</time>
      </trkpt>
      <trkpt lat="42.69626" lon="1.40663">
        <ele>1942.399</ele>
        <time>2024-08-31T11:23:38Z</time>
      </trkpt>
      <trkpt lat="42.69627" lon="1.40665">
        <ele>1942.433</ele>
        <time>2024-08-31T11:23:40Z</time>
      </trkpt>
      <trkpt lat="42.69629" lon="1.40666">
        <ele>1944.724</ele>
        <time>2024-08-31T11:23:42Z</time>
      </trkpt>
      <trkpt lat="42.69631" lon="1.40666">
        <ele>1945.734</ele>
        <time>2024-08-31T11:23:44Z</time>
      </trkpt>
      <trkpt lat="42.69631" lon="1.40666">
        <ele>1944.054</ele>
        <time>2024-08-31T11:23:46Z</time>
      </trkpt>
      <trkpt lat="42.69631" lon="1.40666">
        <ele>1943.473</ele>
        <time>2024-08-31T11:23:48Z</time>
      </trkpt>
      <trkpt lat="42.69631" lon="1.40666">
        <ele>1943.468</ele>
        <time>2024-08-31T11:23:50Z</time>
      </trkpt>
      <trkpt lat="42.69631" lon="1.40666">
        <ele>1943.645</ele>
        <time>2024-08-31T11:23:52Z</time>
      </trkpt>
      <trkpt lat="42.69631" lon="1.40666">
        <ele>1943.195</ele>
        <time>2024-08-31T11:23:54Z</time>
      </trkpt>
      <trkpt lat="42.69631" lon="1.40666">
        <ele>1943.194</ele>
        <time>2024-08-31T11:23:56Z</time>
      </trkpt>
      <trkpt lat="42.69631" lon="1.40666">
        <ele>1943.187</ele>
        <time>2024-08-31T11:23:58Z</time>
      </trkpt>
      <trkpt lat="42.69631" lon="1.40666">
        <ele>1942.841</ele>
        <time>2024-08-31T11:24:00Z</time>
      </trkpt>
      <trkpt lat="42.69631" lon="1.40666">
        <ele>1941.474</ele>
        <time>2024-08-31T11:24:02Z</time>
      </trkpt>
      <trkpt lat="42.69633" lon="1.40666">
        <ele>1941.273</ele>
        <time>2024-08-31T11:24:04Z</time>
      </trkpt>
      <trkpt lat="42.69634" lon="1.40666">
        <ele>1941.649</ele>
        <time>2024-08-31T11:24:06Z</time>
      </trkpt>
      <trkpt lat="42.69636" lon="1.40667">
        <ele>1941.836</ele>
        <time>2024-08-31T11:24:08Z</time>
      </trkpt>
      <trkpt lat="42.69638" lon="1.40667">
        <ele>1941.875</ele>
        <time>2024-08-31T11:24:10Z</time>
      </trkpt>
      <trkpt lat="42.6964" lon="1.40667">
        <ele>1941.695</ele>
        <time>2024-08-31T11:24:12Z</time>
      </trkpt>
      <trkpt lat="42.69641" lon="1.40668">
        <ele>1941.053</ele>
        <time>2024-08-31T11:24:14Z</time>
      </trkpt>
      <trkpt lat="42.69643" lon="1.40668">
        <ele>1941.027</ele>
        <time>2024-08-31T11:24:16Z</time>
      </trkpt>
      <trkpt lat="42.69645" lon="1.40669">
        <ele>1941.828</ele>
        <time>2024-08-31T11:24:18Z</time>
      </trkpt>
      <trkpt lat="42.69647" lon="1.40671">
        <ele>1941.439</ele>
        <time>2024-08-31T11:24:20Z</time>
      </trkpt>
      <trkpt lat="42.69648" lon="1.40672">
        <ele>1940.465</ele>
        <time>2024-08-31T11:24:22Z</time>
      </trkpt>
      <trkpt lat="42.6965" lon="1.40674">
        <ele>1940.033</ele>
        <time>2024-08-31T11:24:24Z</time>
      </trkpt>
      <trkpt lat="42.69652" lon="1.40675">
        <ele>1939.49</ele>
        <time>2024-08-31T11:24:26Z</time>
      </trkpt>
      <trkpt lat="42.69653" lon="1.40676">
        <ele>1938.826</ele>
        <time>2024-08-31T11:24:28Z</time>
      </trkpt>
      <trkpt lat="42.69655" lon="1.40677">
        <ele>1937.808</ele>
        <time>2024-08-31T11:24:30Z</time>
      </trkpt>
      <trkpt lat="42.69656" lon="1.40678">
        <ele>1937.44</ele>
        <time>2024-08-31T11:24:32Z</time>
      </trkpt>
      <trkpt lat="42.69658" lon="1.40679">
        <ele>1937.639</ele>
        <time>2024-08-31T11:24:34Z</time>
      </trkpt>
      <trkpt lat="42.6966" lon="1.40681">
        <ele>1936.648</ele>
        <time>2024-08-31T11:24:36Z</time>
      </trkpt>
      <trkpt lat="42.69661" lon="1.40683">
        <ele>1935.795</ele>
        <time>2024-08-31T11:24:38Z</time>
      </trkpt>
      <trkpt lat="42.69663" lon="1.40684">
        <ele>1936.084</ele>
        <time>2024-08-31T11:24:40Z</time>
      </trkpt>
      <trkpt lat="42.69665" lon="1.40686">
        <ele>1936.032</ele>
        <time>2024-08-31T11:24:42Z</time>
      </trkpt>
      <trkpt lat="42.69667" lon="1.40687">
        <ele>1936.425</ele>
        <time>2024-08-31T11:24:44Z</time>
      </trkpt>
      <trkpt lat="42.69669" lon="1.40688">
        <ele>1936.194</ele>
        <time>2024-08-31T11:24:46Z</time>
      </trkpt>
      <trkpt lat="42.6967" lon="1.4069">
        <ele>1936.703</ele>
        <time>2024-08-31T11:24:48Z</time>
      </trkpt>
      <trkpt lat="42.69672" lon="1.40692">
        <ele>1936.536</ele>
        <time>2024-08-31T11:24:50Z</time>
      </trkpt>
      <trkpt lat="42.69674" lon="1.40693">
        <ele>1936.73</ele>
        <time>2024-08-31T11:24:52Z</time>
      </trkpt>
      <trkpt lat="42.69675" lon="1.40695">
        <ele>1935.377</ele>
        <time>2024-08-31T11:24:54Z</time>
      </trkpt>
      <trkpt lat="42.69677" lon="1.40697">
        <ele>1936.834</ele>
        <time>2024-08-31T11:24:56Z</time>
      </trkpt>
      <trkpt lat="42.69677" lon="1.40697">
        <ele>1938.603</ele>
        <time>2024-08-31T11:24:58Z</time>
      </trkpt>
      <trkpt lat="42.69677" lon="1.40697">
        <ele>1937.495</ele>
        <time>2024-08-31T11:25:00Z</time>
      </trkpt>
      <trkpt lat="42.69677" lon="1.40697">
        <ele>1937.556</ele>
        <time>2024-08-31T11:25:02Z</time>
      </trkpt>
      <trkpt lat="42.69677" lon="1.40697">
        <ele>1937.898</ele>
        <time>2024-08-31T11:25:04Z</time>
      </trkpt>
      <trkpt lat="42.69677" lon="1.40697">
        <ele>1938.516</ele>
        <time>2024-08-31T11:25:06Z</time>
      </trkpt>
      <trkpt lat="42.69677" lon="1.40697">
        <ele>1938.83</ele>
        <time>2024-08-31T11:25:08Z</time>
      </trkpt>
      <trkpt lat="42.69677" lon="1.40697">
        <ele>1938.217</ele>
        <time>2024-08-31T11:25:10Z</time>
      </trkpt>
      <trkpt lat="42.69677" lon="1.40697">
        <ele>1937.809</ele>
        <time>2024-08-31T11:25:12Z</time>
      </trkpt>
      <trkpt lat="42.69677" lon="1.40697">
        <ele>1938.388</ele>
        <time>2024-08-31T11:25:14Z</time>
      </trkpt>
      <trkpt lat="42.69677" lon="1.40697">
        <ele>1938.157</ele>
        <time>2024-08-31T11:25:16Z</time>
      </trkpt>
      <trkpt lat="42.69677" lon="1.40697">
        <ele>1938.432</ele>
        <time>2024-08-31T11:25:18Z</time>
      </trkpt>
      <trkpt lat="42.69677" lon="1.40697">
        <ele>1937.26</ele>
        <time>2024-08-31T11:25:20Z</time>
      </trkpt>
      <trkpt lat="42.69677" lon="1.40697">
        <ele>1938.454</ele>
        <time>2024-08-31T11:25:22Z</time>
      </trkpt>
      <trkpt lat="42.69677" lon="1.40697">
        <ele>1938.224</ele>
        <time>2024-08-31T11:25:24Z</time>
      </trkpt>
      <trkpt lat="42.69677" lon="1.40697">
        <ele>1938.995</ele>
        <time>2024-08-31T11:25:26Z</time>
      </trkpt>
      <trkpt lat="42.69677" lon="1.40697">
        <ele>1938.601</ele>
        <time>2024-08-31T11:25:28Z</time>
      </trkpt>
      <trkpt lat="42.69677" lon="1.40697">
        <ele>1938.602</ele>
        <time>2024-08-31T11:25:30Z</time>
      </trkpt>
      <trkpt lat="42.69677" lon="1.40697">
        <ele>1938.605</ele>
        <time>2024-08-31T11:25:32Z</time>
      </trkpt>
      <trkpt lat="42.69677" lon="1.40697">
        <ele>1938.613</ele>
        <time>2024-08-31T11:25:34Z</time>
      </trkpt>
      <trkpt lat="42.69677" lon="1.40697">
        <ele>1938.535</ele>
        <time>2024-08-31T11:25:36Z</time>
      </trkpt>
      <trkpt lat="42.69677" lon="1.40697">
        <ele>1938.534</ele>
        <time>2024-08-31T11:25:38Z</time>
      </trkpt>
      <trkpt lat="42.69677" lon="1.40697">
        <ele>1938.262</ele>
        <time>2024-08-31T11:25:40Z</time>
      </trkpt>
      <trkpt lat="42.69677" lon="1.40697">
        <ele>1938.246</ele>
        <time>2024-08-31T11:25:42Z</time>
      </trkpt>
      <trkpt lat="42.69677" lon="1.40697">
        <ele>1938.243</ele>
        <time>2024-08-31T11:25:44Z</time>
      </trkpt>
      <trkpt lat="42.69677" lon="1.40697">
        <ele>1937.951</ele>
        <time>2024-08-31T11:25:46Z</time>
      </trkpt>
      <trkpt lat="42.69677" lon="1.40697">
        <ele>1937.942</ele>
        <time>2024-08-31T11:25:48Z</time>
      </trkpt>
      <trkpt lat="42.69677" lon="1.40697">
        <ele>1937.81</ele>
        <time>2024-08-31T11:25:50Z</time>
      </trkpt>
      <trkpt lat="42.69677" lon="1.40697">
        <ele>1937.576</ele>
        <time>2024-08-31T11:25:52Z</time>
      </trkpt>
      <trkpt lat="42.69677" lon="1.40697">
        <ele>1937.579</ele>
        <time>2024-08-31T11:25:54Z</time>
      </trkpt>
      <trkpt lat="42.69677" lon="1.40697">
        <ele>1937.666</ele>
        <time>2024-08-31T11:25:56Z</time>
      </trkpt>
      <trkpt lat="42.69677" lon="1.40697">
        <ele>1937.651</ele>
        <time>2024-08-31T11:25:58Z</time>
      </trkpt>
      <trkpt lat="42.69677" lon="1.40697">
        <ele>1937.652</ele>
        <time>2024-08-31T11:26:00Z</time>
      </trkpt>
      <trkpt lat="42.69677" lon="1.40697">
        <ele>1937.692</ele>
        <time>2024-08-31T11:26:02Z</time>
      </trkpt>
      <trkpt lat="42.69677" lon="1.40697">
        <ele>1937.667</ele>
        <time>2024-08-31T11:26:04Z</time>
      </trkpt>
      <trkpt lat="42.69677" lon="1.40697">
        <ele>1938.035</ele>
        <time>2024-08-31T11:26:06Z</time>
      </trkpt>
      <trkpt lat="42.69677" lon="1.40697">
        <ele>1938.221</ele>
        <time>2024-08-31T11:26:08Z</time>
      </trkpt>
      <trkpt lat="42.69677" lon="1.40697">
        <ele>1939.151</ele>
        <time>2024-08-31T11:26:10Z</time>
      </trkpt>
      <trkpt lat="42.69677" lon="1.40697">
        <ele>1939.079</ele>
        <time>2024-08-31T11:26:12Z</time>
      </trkpt>
      <trkpt lat="42.69677" lon="1.40697">
        <ele>1939.232</ele>
        <time>2024-08-31T11:26:14Z</time>
      </trkpt>
      <trkpt lat="42.69677" lon="1.40697">
        <ele>1939.21</ele>
        <time>2024-08-31T11:26:16Z</time>
      </trkpt>
      <trkpt lat="42.69677" lon="1.40697">
        <ele>1939.919</ele>
        <time>2024-08-31T11:26:18Z</time>
      </trkpt>
      <trkpt lat="42.69677" lon="1.40697">
        <ele>1939.896</ele>
        <time>2024-08-31T11:26:20Z</time>
      </trkpt>
      <trkpt lat="42.69677" lon="1.40697">
        <ele>1939.898</ele>
        <time>2024-08-31T11:26:22Z</time>
      </trkpt>
      <trkpt lat="42.69677" lon="1.40697">
        <ele>1939.902</ele>
        <time>2024-08-31T11:26:24Z</time>
      </trkpt>
      <trkpt lat="42.69677" lon="1.40697">
        <ele>1939.901</ele>
        <time>2024-08-31T11:26:26Z</time>
      </trkpt>
      <trkpt lat="42.69677" lon="1.40697">
        <ele>1939.895</ele>
        <time>2024-08-31T11:26:28Z</time>
      </trkpt>
      <trkpt lat="42.69677" lon="1.40697">
        <ele>1940.634</ele>
        <time>2024-08-31T11:26:30Z</time>
      </trkpt>
      <trkpt lat="42.69677" lon="1.40697">
        <ele>1941.253</ele>
        <time>2024-08-31T11:26:32Z</time>
      </trkpt>
      <trkpt lat="42.69677" lon="1.40697">
        <ele>1941.121</ele>
        <time>2024-08-31T11:26:34Z</time>
      </trkpt>
      <trkpt lat="42.69677" lon="1.40697">
        <ele>1941.134</ele>
        <time>2024-08-31T11:26:36Z</time>
      </trkpt>
      <trkpt lat="42.69677" lon="1.40697">
        <ele>1940.989</ele>
        <time>2024-08-31T11:26:38Z</time>
      </trkpt>
      <trkpt lat="42.69677" lon="1.40697">
        <ele>1941.214</ele>
        <time>2024-08-31T11:26:40Z</time>
      </trkpt>
      <trkpt lat="42.69677" lon="1.40697">
        <ele>1941.435</ele>
        <time>2024-08-31T11:26:42Z</time>
      </trkpt>
      <trkpt lat="42.69677" lon="1.40697">
        <ele>1941.433</ele>
        <time>2024-08-31T11:26:44Z</time>
      </trkpt>
      <trkpt lat="42.69677" lon="1.40697">
        <ele>1941.388</ele>
        <time>2024-08-31T11:26:46Z</time>
      </trkpt>
      <trkpt lat="42.69677" lon="1.40697">
        <ele>1941.361</ele>
        <time>2024-08-31T11:26:48Z</time>
      </trkpt>
      <trkpt lat="42.69677" lon="1.40697">
        <ele>1941.475</ele>
        <time>2024-08-31T11:26:50Z</time>
      </trkpt>
      <trkpt lat="42.69677" lon="1.40697">
        <ele>1941.471</ele>
        <time>2024-08-31T11:26:52Z</time>
      </trkpt>
      <trkpt lat="42.69677" lon="1.40697">
        <ele>1941.459</ele>
        <time>2024-08-31T11:26:54Z</time>
      </trkpt>
      <trkpt lat="42.69677" lon="1.40697">
        <ele>1941.472</ele>
        <time>2024-08-31T11:26:56Z</time>
      </trkpt>
      <trkpt lat="42.69677" lon="1.40697">
        <ele>1941.493</ele>
        <time>2024-08-31T11:26:58Z</time>
      </trkpt>
      <trkpt lat="42.69677" lon="1.40697">
        <ele>1941.518</ele>
        <time>2024-08-31T11:27:00Z</time>
      </trkpt>
      <trkpt lat="42.69677" lon="1.40697">
        <ele>1941.517</ele>
        <time>2024-08-31T11:27:02Z</time>
      </trkpt>
      <trkpt lat="42.69677" lon="1.40697">
        <ele>1941.489</ele>
        <time>2024-08-31T11:27:04Z</time>
      </trkpt>
      <trkpt lat="42.69677" lon="1.40697">
        <ele>1941.461</ele>
        <time>2024-08-31T11:27:06Z</time>
      </trkpt>
      <trkpt lat="42.69677" lon="1.40697">
        <ele>1941.443</ele>
        <time>2024-08-31T11:27:08Z</time>
      </trkpt>
      <trkpt lat="42.69677" lon="1.40697">
        <ele>1941.436</ele>
        <time>2024-08-31T11:27:10Z</time>
      </trkpt>
      <trkpt lat="42.69677" lon="1.40697">
        <ele>1941.428</ele>
        <time>2024-08-31T11:27:12Z</time>
      </trkpt>
      <trkpt lat="42.69677" lon="1.40697">
        <ele>1941.433</ele>
        <time>2024-08-31T11:27:14Z</time>
      </trkpt>
      <trkpt lat="42.69677" lon="1.40697">
        <ele>1941.436</ele>
        <time>2024-08-31T11:27:16Z</time>
      </trkpt>
      <trkpt lat="42.69677" lon="1.40697">
        <ele>1941.42</ele>
        <time>2024-08-31T11:27:18Z</time>
      </trkpt>
      <trkpt lat="42.69677" lon="1.40697">
        <ele>1941.407</ele>
        <time>2024-08-31T11:27:20Z</time>
      </trkpt>
      <trkpt lat="42.69677" lon="1.40697">
        <ele>1941.384</ele>
        <time>2024-08-31T11:27:22Z</time>
      </trkpt>
      <trkpt lat="42.69677" lon="1.40697">
        <ele>1941.352</ele>
        <time>2024-08-31T11:27:24Z</time>
      </trkpt>
      <trkpt lat="42.69677" lon="1.40697">
        <ele>1941.325</ele>
        <time>2024-08-31T11:27:26Z</time>
      </trkpt>
      <trkpt lat="42.69677" lon="1.40697">
        <ele>1941.299</ele>
        <time>2024-08-31T11:27:28Z</time>
      </trkpt>
      <trkpt lat="42.69677" lon="1.40697">
        <ele>1940.96</ele>
        <time>2024-08-31T11:27:30Z</time>
      </trkpt>
      <trkpt lat="42.69677" lon="1.40697">
        <ele>1940.935</ele>
        <time>2024-08-31T11:27:32Z</time>
      </trkpt>
      <trkpt lat="42.69677" lon="1.40697">
        <ele>1940.883</ele>
        <time>2024-08-31T11:27:34Z</time>
      </trkpt>
      <trkpt lat="42.69677" lon="1.40697">
        <ele>1940.876</ele>
        <time>2024-08-31T11:27:36Z</time>
      </trkpt>
      <trkpt lat="42.69677" lon="1.40697">
        <ele>1940.843</ele>
        <time>2024-08-31T11:27:38Z</time>
      </trkpt>
      <trkpt lat="42.69677" lon="1.40697">
        <ele>1940.836</ele>
        <time>2024-08-31T11:27:40Z</time>
      </trkpt>
      <trkpt lat="42.69677" lon="1.40697">
        <ele>1940.831</ele>
        <time>2024-08-31T11:27:42Z</time>
      </trkpt>
      <trkpt lat="42.69677" lon="1.40697">
        <ele>1940.829</ele>
        <time>2024-08-31T11:27:44Z</time>
      </trkpt>
      <trkpt lat="42.69677" lon="1.40697">
        <ele>1940.826</ele>
        <time>2024-08-31T11:27:46Z</time>
      </trkpt>
      <trkpt lat="42.69677" lon="1.40697">
        <ele>1940.836</ele>
        <time>2024-08-31T11:27:48Z</time>
      </trkpt>
      <trkpt lat="42.69677" lon="1.40697">
        <ele>1940.821</ele>
        <time>2024-08-31T11:27:50Z</time>
      </trkpt>
      <trkpt lat="42.69677" lon="1.40697">
        <ele>1940.81</ele>
        <time>2024-08-31T11:27:52Z</time>
      </trkpt>
      <trkpt lat="42.69677" lon="1.40697">
        <ele>1940.785</ele>
        <time>2024-08-31T11:27:54Z</time>
      </trkpt>
      <trkpt lat="42.69677" lon="1.40697">
        <ele>1940.74</ele>
        <time>2024-08-31T11:27:56Z</time>
      </trkpt>
      <trkpt lat="42.69677" lon="1.40697">
        <ele>1940.701</ele>
        <time>2024-08-31T11:27:58Z</time>
      </trkpt>
      <trkpt lat="42.69677" lon="1.40697">
        <ele>1940.691</ele>
        <time>2024-08-31T11:28:00Z</time>
      </trkpt>
      <trkpt lat="42.69677" lon="1.40697">
        <ele>1940.655</ele>
        <time>2024-08-31T11:28:02Z</time>
      </trkpt>
      <trkpt lat="42.69677" lon="1.40697">
        <ele>1940.627</ele>
        <time>2024-08-31T11:28:04Z</time>
      </trkpt>
      <trkpt lat="42.69677" lon="1.40697">
        <ele>1940.61</ele>
        <time>2024-08-31T11:28:06Z</time>
      </trkpt>
      <trkpt lat="42.69677" lon="1.40697">
        <ele>1940.588</ele>
        <time>2024-08-31T11:28:08Z</time>
      </trkpt>
      <trkpt lat="42.69677" lon="1.40697">
        <ele>1940.559</ele>
        <time>2024-08-31T11:28:10Z</time>
      </trkpt>
      <trkpt lat="42.69677" lon="1.40697">
        <ele>1940.505</ele>
        <time>2024-08-31T11:28:12Z</time>
      </trkpt>
      <trkpt lat="42.69677" lon="1.40697">
        <ele>1940.431</ele>
        <time>2024-08-31T11:28:14Z</time>
      </trkpt>
      <trkpt lat="42.69677" lon="1.40697">
        <ele>1940.346</ele>
        <time>2024-08-31T11:28:16Z</time>
      </trkpt>
      <trkpt lat="42.69677" lon="1.40697">
        <ele>1940.284</ele>
        <time>2024-08-31T11:28:18Z</time>
      </trkpt>
      <trkpt lat="42.69677" lon="1.40697">
        <ele>1940.246</ele>
        <time>2024-08-31T11:28:20Z</time>
      </trkpt>
      <trkpt lat="42.69677" lon="1.40697">
        <ele>1940.203</ele>
        <time>2024-08-31T11:28:22Z</time>
      </trkpt>
      <trkpt lat="42.69677" lon="1.40697">
        <ele>1940.158</ele>
        <time>2024-08-31T11:28:24Z</time>
      </trkpt>
      <trkpt lat="42.69677" lon="1.40697">
        <ele>1940.11</ele>
        <time>2024-08-31T11:28:26Z</time>
      </trkpt>
      <trkpt lat="42.69677" lon="1.40697">
        <ele>1940.081</ele>
        <time>2024-08-31T11:28:28Z</time>
      </trkpt>
      <trkpt lat="42.69677" lon="1.40697">
        <ele>1940.071</ele>
        <time>2024-08-31T11:28:30Z</time>
      </trkpt>
      <trkpt lat="42.69677" lon="1.40697">
        <ele>1939.782</ele>
        <time>2024-08-31T11:28:32Z</time>
      </trkpt>
      <trkpt lat="42.69677" lon="1.40697">
        <ele>1939.741</ele>
        <time>2024-08-31T11:28:34Z</time>
      </trkpt>
      <trkpt lat="42.69677" lon="1.40697">
        <ele>1939.706</ele>
        <time>2024-08-31T11:28:36Z</time>
      </trkpt>
      <trkpt lat="42.69677" lon="1.40697">
        <ele>1939.68</ele>
        <time>2024-08-31T11:28:38Z</time>
      </trkpt>
      <trkpt lat="42.69677" lon="1.40697">
        <ele>1939.62</ele>
        <time>2024-08-31T11:28:40Z</time>
      </trkpt>
      <trkpt lat="42.69677" lon="1.40697">
        <ele>1939.576</ele>
        <time>2024-08-31T11:28:42Z</time>
      </trkpt>
      <trkpt lat="42.69677" lon="1.40697">
        <ele>1939.113</ele>
        <time>2024-08-31T11:28:44Z</time>
      </trkpt>
      <trkpt lat="42.69677" lon="1.40697">
        <ele>1939.938</ele>
        <time>2024-08-31T11:28:46Z</time>
      </trkpt>
      <trkpt lat="42.69677" lon="1.40697">
        <ele>1939.928</ele>
        <time>2024-08-31T11:28:48Z</time>
      </trkpt>
      <trkpt lat="42.69677" lon="1.40697">
        <ele>1940.222</ele>
        <time>2024-08-31T11:28:50Z</time>
      </trkpt>
      <trkpt lat="42.69677" lon="1.40697">
        <ele>1939.824</ele>
        <time>2024-08-31T11:28:52Z</time>
      </trkpt>
      <trkpt lat="42.69677" lon="1.40697">
        <ele>1939.828</ele>
        <time>2024-08-31T11:28:54Z</time>
      </trkpt>
      <trkpt lat="42.69677" lon="1.40697">
        <ele>1939.822</ele>
        <time>2024-08-31T11:28:56Z</time>
      </trkpt>
      <trkpt lat="42.69677" lon="1.40697">
        <ele>1939.809</ele>
        <time>2024-08-31T11:28:58Z</time>
      </trkpt>
      <trkpt lat="42.69677" lon="1.40697">
        <ele>1939.808</ele>
        <time>2024-08-31T11:29:00Z</time>
      </trkpt>
      <trkpt lat="42.69677" lon="1.40697">
        <ele>1939.816</ele>
        <time>2024-08-31T11:29:02Z</time>
      </trkpt>
      <trkpt lat="42.69677" lon="1.40697">
        <ele>1939.811</ele>
        <time>2024-08-31T11:29:04Z</time>
      </trkpt>
      <trkpt lat="42.69677" lon="1.40697">
        <ele>1939.816</ele>
        <time>2024-08-31T11:29:06Z</time>
      </trkpt>
      <trkpt lat="42.69677" lon="1.40697">
        <ele>1939.818</ele>
        <time>2024-08-31T11:29:08Z</time>
      </trkpt>
      <trkpt lat="42.69677" lon="1.40697">
        <ele>1939.821</ele>
        <time>2024-08-31T11:29:10Z</time>
      </trkpt>
      <trkpt lat="42.69677" lon="1.40697">
        <ele>1939.812</ele>
        <time>2024-08-31T11:29:12Z</time>
      </trkpt>
      <trkpt lat="42.69677" lon="1.40697">
        <ele>1939.804</ele>
        <time>2024-08-31T11:29:14Z</time>
      </trkpt>
      <trkpt lat="42.69677" lon="1.40697">
        <ele>1939.79</ele>
        <time>2024-08-31T11:29:16Z</time>
      </trkpt>
      <trkpt lat="42.69677" lon="1.40697">
        <ele>1939.79</ele>
        <time>2024-08-31T11:29:18Z</time>
      </trkpt>
      <trkpt lat="42.69677" lon="1.40697">
        <ele>1939.787</ele>
        <time>2024-08-31T11:29:20Z</time>
      </trkpt>
      <trkpt lat="42.69677" lon="1.40697">
        <ele>1939.782</ele>
        <time>2024-08-31T11:29:22Z</time>
      </trkpt>
      <trkpt lat="42.69677" lon="1.40697">
        <ele>1939.78</ele>
        <time>2024-08-31T11:29:24Z</time>
      </trkpt>
      <trkpt lat="42.69677" lon="1.40697">
        <ele>1939.777</ele>
        <time>2024-08-31T11:29:26Z</time>
      </trkpt>
      <trkpt lat="42.69677" lon="1.40697">
        <ele>1939.785</ele>
        <time>2024-08-31T11:29:28Z</time>
      </trkpt>
      <trkpt lat="42.69677" lon="1.40697">
        <ele>1939.789</ele>
        <time>2024-08-31T11:29:30Z</time>
      </trkpt>
      <trkpt lat="42.69677" lon="1.40697">
        <ele>1939.785</ele>
        <time>2024-08-31T11:29:32Z</time>
      </trkpt>
      <trkpt lat="42.69677" lon="1.40697">
        <ele>1939.403</ele>
        <time>2024-08-31T11:29:34Z</time>
      </trkpt>
      <trkpt lat="42.69677" lon="1.40697">
        <ele>1939.417</ele>
        <time>2024-08-31T11:29:36Z</time>
      </trkpt>
      <trkpt lat="42.69677" lon="1.40697">
        <ele>1939.406</ele>
        <time>2024-08-31T11:29:38Z</time>
      </trkpt>
      <trkpt lat="42.69677" lon="1.40697">
        <ele>1939.102</ele>
        <time>2024-08-31T11:29:40Z</time>
      </trkpt>
      <trkpt lat="42.69677" lon="1.40697">
        <ele>1939.103</ele>
        <time>2024-08-31T11:29:42Z</time>
      </trkpt>
      <trkpt lat="42.69677" lon="1.40697">
        <ele>1939.101</ele>
        <time>2024-08-31T11:29:44Z</time>
      </trkpt>
      <trkpt lat="42.69677" lon="1.40697">
        <ele>1939.084</ele>
        <time>2024-08-31T11:29:46Z</time>
      </trkpt>
      <trkpt lat="42.69677" lon="1.40697">
        <ele>1939.073</ele>
        <time>2024-08-31T11:29:48Z</time>
      </trkpt>
      <trkpt lat="42.69677" lon="1.40697">
        <ele>1939.068</ele>
        <time>2024-08-31T11:29:50Z</time>
      </trkpt>
      <trkpt lat="42.69677" lon="1.40697">
        <ele>1939.071</ele>
        <time>2024-08-31T11:29:52Z</time>
      </trkpt>
      <trkpt lat="42.69677" lon="1.40697">
        <ele>1939.086</ele>
        <time>2024-08-31T11:29:54Z</time>
      </trkpt>
      <trkpt lat="42.69677" lon="1.40697">
        <ele>1939.088</ele>
        <time>2024-08-31T11:29:56Z</time>
      </trkpt>
      <trkpt lat="42.69677" lon="1.40697">
        <ele>1939.077</ele>
        <time>2024-08-31T11:29:58Z</time>
      </trkpt>
      <trkpt lat="42.69677" lon="1.40697">
        <ele>1939.102</ele>
        <time>2024-08-31T11:30:00Z</time>
      </trkpt>
      <trkpt lat="42.69677" lon="1.40697">
        <ele>1939.12</ele>
        <time>2024-08-31T11:30:02Z</time>
      </trkpt>
      <trkpt lat="42.69677" lon="1.40697">
        <ele>1939.123</ele>
        <time>2024-08-31T11:30:04Z</time>
      </trkpt>
      <trkpt lat="42.69677" lon="1.40697">
        <ele>1938.822</ele>
        <time>2024-08-31T11:30:06Z</time>
      </trkpt>
      <trkpt lat="42.69677" lon="1.40697">
        <ele>1938.731</ele>
        <time>2024-08-31T11:30:08Z</time>
      </trkpt>
      <trkpt lat="42.69677" lon="1.40697">
        <ele>1938.736</ele>
        <time>2024-08-31T11:30:10Z</time>
      </trkpt>
      <trkpt lat="42.69677" lon="1.40697">
        <ele>1938.719</ele>
        <time>2024-08-31T11:30:12Z</time>
      </trkpt>
      <trkpt lat="42.69677" lon="1.40697">
        <ele>1938.711</ele>
        <time>2024-08-31T11:30:14Z</time>
      </trkpt>
      <trkpt lat="42.69677" lon="1.40697">
        <ele>1938.698</ele>
        <time>2024-08-31T11:30:16Z</time>
      </trkpt>
      <trkpt lat="42.69677" lon="1.40697">
        <ele>1938.695</ele>
        <time>2024-08-31T11:30:18Z</time>
      </trkpt>
      <trkpt lat="42.69677" lon="1.40697">
        <ele>1938.963</ele>
        <time>2024-08-31T11:30:20Z</time>
      </trkpt>
      <trkpt lat="42.69677" lon="1.40697">
        <ele>1939.128</ele>
        <time>2024-08-31T11:30:22Z</time>
      </trkpt>
      <trkpt lat="42.69677" lon="1.40697">
        <ele>1939.301</ele>
        <time>2024-08-31T11:30:24Z</time>
      </trkpt>
      <trkpt lat="42.69677" lon="1.40697">
        <ele>1939.412</ele>
        <time>2024-08-31T11:30:26Z</time>
      </trkpt>
      <trkpt lat="42.69677" lon="1.40697">
        <ele>1939.406</ele>
        <time>2024-08-31T11:30:28Z</time>
      </trkpt>
      <trkpt lat="42.69677" lon="1.40697">
        <ele>1939.405</ele>
        <time>2024-08-31T11:30:30Z</time>
      </trkpt>
      <trkpt lat="42.69677" lon="1.40697">
        <ele>1939.909</ele>
        <time>2024-08-31T11:30:32Z</time>
      </trkpt>
      <trkpt lat="42.69677" lon="1.40697">
        <ele>1939.792</ele>
        <time>2024-08-31T11:30:34Z</time>
      </trkpt>
      <trkpt lat="42.69677" lon="1.40697">
        <ele>1939.822</ele>
        <time>2024-08-31T11:30:36Z</time>
      </trkpt>
      <trkpt lat="42.69677" lon="1.40697">
        <ele>1939.812</ele>
        <time>2024-08-31T11:30:38Z</time>
      </trkpt>
      <trkpt lat="42.69677" lon="1.40697">
        <ele>1939.803</ele>
        <time>2024-08-31T11:30:40Z</time>
      </trkpt>
      <trkpt lat="42.69677" lon="1.40697">
        <ele>1939.951</ele>
        <time>2024-08-31T11:30:42Z</time>
      </trkpt>
      <trkpt lat="42.69677" lon="1.40697">
        <ele>1940.249</ele>
        <time>2024-08-31T11:30:44Z</time>
      </trkpt>
      <trkpt lat="42.69677" lon="1.40697">
        <ele>1940.243</ele>
        <time>2024-08-31T11:30:46Z</time>
      </trkpt>
      <trkpt lat="42.69677" lon="1.40697">
        <ele>1940.173</ele>
        <time>2024-08-31T11:30:48Z</time>
      </trkpt>
      <trkpt lat="42.69677" lon="1.40697">
        <ele>1940.675</ele>
        <time>2024-08-31T11:30:50Z</time>
      </trkpt>
      <trkpt lat="42.69677" lon="1.40697">
        <ele>1940.416</ele>
        <time>2024-08-31T11:30:52Z</time>
      </trkpt>
      <trkpt lat="42.69677" lon="1.40697">
        <ele>1940.853</ele>
        <time>2024-08-31T11:30:54Z</time>
      </trkpt>
      <trkpt lat="42.69677" lon="1.40697">
        <ele>1940.844</ele>
        <time>2024-08-31T11:30:56Z</time>
      </trkpt>
      <trkpt lat="42.69677" lon="1.40697">
        <ele>1940.842</ele>
        <time>2024-08-31T11:30:58Z</time>
      </trkpt>
      <trkpt lat="42.69677" lon="1.40697">
        <ele>1940.84</ele>
        <time>2024-08-31T11:31:00Z</time>
      </trkpt>
      <trkpt lat="42.69677" lon="1.40697">
        <ele>1940.813</ele>
        <time>2024-08-31T11:31:02Z</time>
      </trkpt>
      <trkpt lat="42.69677" lon="1.40697">
        <ele>1940.789</ele>
        <time>2024-08-31T11:31:04Z</time>
      </trkpt>
      <trkpt lat="42.69677" lon="1.40697">
        <ele>1940.477</ele>
        <time>2024-08-31T11:31:06Z</time>
      </trkpt>
      <trkpt lat="42.69677" lon="1.40697">
        <ele>1940.528</ele>
        <time>2024-08-31T11:31:08Z</time>
      </trkpt>
      <trkpt lat="42.69677" lon="1.40697">
        <ele>1940.501</ele>
        <time>2024-08-31T11:31:10Z</time>
      </trkpt>
      <trkpt lat="42.69677" lon="1.40697">
        <ele>1940.506</ele>
        <time>2024-08-31T11:31:12Z</time>
      </trkpt>
      <trkpt lat="42.69677" lon="1.40697">
        <ele>1940.501</ele>
        <time>2024-08-31T11:31:14Z</time>
      </trkpt>
      <trkpt lat="42.69677" lon="1.40697">
        <ele>1940.508</ele>
        <time>2024-08-31T11:31:16Z</time>
      </trkpt>
      <trkpt lat="42.69677" lon="1.40697">
        <ele>1940.497</ele>
        <time>2024-08-31T11:31:18Z</time>
      </trkpt>
      <trkpt lat="42.69677" lon="1.40697">
        <ele>1940.493</ele>
        <time>2024-08-31T11:31:20Z</time>
      </trkpt>
      <trkpt lat="42.69677" lon="1.40697">
        <ele>1940.491</ele>
        <time>2024-08-31T11:31:22Z</time>
      </trkpt>
      <trkpt lat="42.69677" lon="1.40697">
        <ele>1940.483</ele>
        <time>2024-08-31T11:31:24Z</time>
      </trkpt>
      <trkpt lat="42.69677" lon="1.40697">
        <ele>1940.599</ele>
        <time>2024-08-31T11:31:26Z</time>
      </trkpt>
      <trkpt lat="42.69677" lon="1.40697">
        <ele>1940.408</ele>
        <time>2024-08-31T11:31:28Z</time>
      </trkpt>
      <trkpt lat="42.69677" lon="1.40697">
        <ele>1940.393</ele>
        <time>2024-08-31T11:31:30Z</time>
      </trkpt>
      <trkpt lat="42.69677" lon="1.40697">
        <ele>1940.397</ele>
        <time>2024-08-31T11:31:32Z</time>
      </trkpt>
      <trkpt lat="42.69677" lon="1.40697">
        <ele>1940.497</ele>
        <time>2024-08-31T11:31:34Z</time>
      </trkpt>
      <trkpt lat="42.69677" lon="1.40697">
        <ele>1940.487</ele>
        <time>2024-08-31T11:31:36Z</time>
      </trkpt>
      <trkpt lat="42.69677" lon="1.40697">
        <ele>1940.481</ele>
        <time>2024-08-31T11:31:38Z</time>
      </trkpt>
      <trkpt lat="42.69677" lon="1.40697">
        <ele>1940.464</ele>
        <time>2024-08-31T11:31:40Z</time>
      </trkpt>
      <trkpt lat="42.69677" lon="1.40697">
        <ele>1940.457</ele>
        <time>2024-08-31T11:31:42Z</time>
      </trkpt>
      <trkpt lat="42.69677" lon="1.40697">
        <ele>1940.341</ele>
        <time>2024-08-31T11:31:44Z</time>
      </trkpt>
      <trkpt lat="42.69677" lon="1.40697">
        <ele>1940.223</ele>
        <time>2024-08-31T11:31:46Z</time>
      </trkpt>
      <trkpt lat="42.69677" lon="1.40697">
        <ele>1940.207</ele>
        <time>2024-08-31T11:31:48Z</time>
      </trkpt>
      <trkpt lat="42.69677" lon="1.40697">
        <ele>1940.192</ele>
        <time>2024-08-31T11:31:50Z</time>
      </trkpt>
      <trkpt lat="42.69677" lon="1.40697">
        <ele>1940.162</ele>
        <time>2024-08-31T11:31:52Z</time>
      </trkpt>
      <trkpt lat="42.69677" lon="1.40697">
        <ele>1940.119</ele>
        <time>2024-08-31T11:31:54Z</time>
      </trkpt>
      <trkpt lat="42.69677" lon="1.40697">
        <ele>1940.11</ele>
        <time>2024-08-31T11:31:56Z</time>
      </trkpt>
      <trkpt lat="42.69677" lon="1.40697">
        <ele>1940.107</ele>
        <time>2024-08-31T11:31:58Z</time>
      </trkpt>
      <trkpt lat="42.69677" lon="1.40697">
        <ele>1940.102</ele>
        <time>2024-08-31T11:32:00Z</time>
      </trkpt>
      <trkpt lat="42.69677" lon="1.40697">
        <ele>1940.091</ele>
        <time>2024-08-31T11:32:02Z</time>
      </trkpt>
      <trkpt lat="42.69677" lon="1.40697">
        <ele>1940.065</ele>
        <time>2024-08-31T11:32:04Z</time>
      </trkpt>
      <trkpt lat="42.69677" lon="1.40697">
        <ele>1940.039</ele>
        <time>2024-08-31T11:32:06Z</time>
      </trkpt>
      <trkpt lat="42.69677" lon="1.40697">
        <ele>1940.036</ele>
        <time>2024-08-31T11:32:08Z</time>
      </trkpt>
      <trkpt lat="42.69677" lon="1.40697">
        <ele>1940.033</ele>
        <time>2024-08-31T11:32:10Z</time>
      </trkpt>
      <trkpt lat="42.69677" lon="1.40697">
        <ele>1940.022</ele>
        <time>2024-08-31T11:32:12Z</time>
      </trkpt>
      <trkpt lat="42.69677" lon="1.40697">
        <ele>1940.012</ele>
        <time>2024-08-31T11:32:14Z</time>
      </trkpt>
      <trkpt lat="42.69677" lon="1.40697">
        <ele>1940.011</ele>
        <time>2024-08-31T11:32:16Z</time>
      </trkpt>
      <trkpt lat="42.69677" lon="1.40697">
        <ele>1939.981</ele>
        <time>2024-08-31T11:32:18Z</time>
      </trkpt>
      <trkpt lat="42.69677" lon="1.40697">
        <ele>1939.957</ele>
        <time>2024-08-31T11:32:20Z</time>
      </trkpt>
      <trkpt lat="42.69677" lon="1.40697">
        <ele>1939.933</ele>
        <time>2024-08-31T11:32:22Z</time>
      </trkpt>
      <trkpt lat="42.69677" lon="1.40697">
        <ele>1939.934</ele>
        <time>2024-08-31T11:32:24Z</time>
      </trkpt>
      <trkpt lat="42.69677" lon="1.40697">
        <ele>1939.727</ele>
        <time>2024-08-31T11:32:26Z</time>
      </trkpt>
      <trkpt lat="42.69677" lon="1.40697">
        <ele>1939.734</ele>
        <time>2024-08-31T11:32:28Z</time>
      </trkpt>
      <trkpt lat="42.69677" lon="1.40697">
        <ele>1939.719</ele>
        <time>2024-08-31T11:32:30Z</time>
      </trkpt>
      <trkpt lat="42.69677" lon="1.40697">
        <ele>1939.692</ele>
        <time>2024-08-31T11:32:32Z</time>
      </trkpt>
      <trkpt lat="42.69677" lon="1.40697">
        <ele>1939.545</ele>
        <time>2024-08-31T11:32:34Z</time>
      </trkpt>
      <trkpt lat="42.69677" lon="1.40697">
        <ele>1939.37</ele>
        <time>2024-08-31T11:32:36Z</time>
      </trkpt>
      <trkpt lat="42.69677" lon="1.40697">
        <ele>1939.363</ele>
        <time>2024-08-31T11:32:38Z</time>
      </trkpt>
      <trkpt lat="42.69677" lon="1.40697">
        <ele>1939.353</ele>
        <time>2024-08-31T11:32:40Z</time>
      </trkpt>
      <trkpt lat="42.69677" lon="1.40697">
        <ele>1939.325</ele>
        <time>2024-08-31T11:32:42Z</time>
      </trkpt>
      <trkpt lat="42.69677" lon="1.40697">
        <ele>1939.305</ele>
        <time>2024-08-31T11:32:44Z</time>
      </trkpt>
      <trkpt lat="42.69677" lon="1.40697">
        <ele>1939.29</ele>
        <time>2024-08-31T11:32:46Z</time>
      </trkpt>
      <trkpt lat="42.69677" lon="1.40697">
        <ele>1939.278</ele>
        <time>2024-08-31T11:32:48Z</time>
      </trkpt>
      <trkpt lat="42.69677" lon="1.40697">
        <ele>1939.269</ele>
        <time>2024-08-31T11:32:50Z</time>
      </trkpt>
      <trkpt lat="42.69677" lon="1.40697">
        <ele>1939.269</ele>
        <time>2024-08-31T11:32:52Z</time>
      </trkpt>
      <trkpt lat="42.69677" lon="1.40697">
        <ele>1939.085</ele>
        <time>2024-08-31T11:32:54Z</time>
      </trkpt>
      <trkpt lat="42.69677" lon="1.40697">
        <ele>1939.001</ele>
        <time>2024-08-31T11:32:56Z</time>
      </trkpt>
      <trkpt lat="42.69677" lon="1.40697">
        <ele>1939.001</ele>
        <time>2024-08-31T11:32:58Z</time>
      </trkpt>
      <trkpt lat="42.69677" lon="1.40697">
        <ele>1939.005</ele>
        <time>2024-08-31T11:33:00Z</time>
      </trkpt>
      <trkpt lat="42.69677" lon="1.40697">
        <ele>1938.99</ele>
        <time>2024-08-31T11:33:02Z</time>
      </trkpt>
      <trkpt lat="42.69677" lon="1.40697">
        <ele>1938.984</ele>
        <time>2024-08-31T11:33:04Z</time>
      </trkpt>
      <trkpt lat="42.69677" lon="1.40697">
        <ele>1938.974</ele>
        <time>2024-08-31T11:33:06Z</time>
      </trkpt>
      <trkpt lat="42.69677" lon="1.40697">
        <ele>1938.966</ele>
        <time>2024-08-31T11:33:08Z</time>
      </trkpt>
      <trkpt lat="42.69677" lon="1.40697">
        <ele>1938.968</ele>
        <time>2024-08-31T11:33:10Z</time>
      </trkpt>
      <trkpt lat="42.69677" lon="1.40697">
        <ele>1938.966</ele>
        <time>2024-08-31T11:33:12Z</time>
      </trkpt>
      <trkpt lat="42.69677" lon="1.40697">
        <ele>1938.963</ele>
        <time>2024-08-31T11:33:14Z</time>
      </trkpt>
      <trkpt lat="42.69677" lon="1.40697">
        <ele>1938.953</ele>
        <time>2024-08-31T11:33:16Z</time>
      </trkpt>
      <trkpt lat="42.69677" lon="1.40697">
        <ele>1938.936</ele>
        <time>2024-08-31T11:33:18Z</time>
      </trkpt>
      <trkpt lat="42.69677" lon="1.40697">
        <ele>1938.93</ele>
        <time>2024-08-31T11:33:20Z</time>
      </trkpt>
      <trkpt lat="42.69677" lon="1.40697">
        <ele>1938.928</ele>
        <time>2024-08-31T11:33:22Z</time>
      </trkpt>
      <trkpt lat="42.69677" lon="1.40697">
        <ele>1938.911</ele>
        <time>2024-08-31T11:33:24Z</time>
      </trkpt>
      <trkpt lat="42.69677" lon="1.40697">
        <ele>1938.908</ele>
        <time>2024-08-31T11:33:26Z</time>
      </trkpt>
      <trkpt lat="42.69677" lon="1.40697">
        <ele>1938.907</ele>
        <time>2024-08-31T11:33:28Z</time>
      </trkpt>
      <trkpt lat="42.69677" lon="1.40697">
        <ele>1938.9</ele>
        <time>2024-08-31T11:33:30Z</time>
      </trkpt>
      <trkpt lat="42.69677" lon="1.40697">
        <ele>1938.899</ele>
        <time>2024-08-31T11:33:32Z</time>
      </trkpt>
      <trkpt lat="42.69677" lon="1.40697">
        <ele>1938.898</ele>
        <time>2024-08-31T11:33:34Z</time>
      </trkpt>
      <trkpt lat="42.69677" lon="1.40697">
        <ele>1938.898</ele>
        <time>2024-08-31T11:33:36Z</time>
      </trkpt>
      <trkpt lat="42.69677" lon="1.40697">
        <ele>1938.899</ele>
        <time>2024-08-31T11:33:38Z</time>
      </trkpt>
      <trkpt lat="42.69677" lon="1.40697">
        <ele>1938.906</ele>
        <time>2024-08-31T11:33:40Z</time>
      </trkpt>
      <trkpt lat="42.69677" lon="1.40697">
        <ele>1938.816</ele>
        <time>2024-08-31T11:33:42Z</time>
      </trkpt>
      <trkpt lat="42.69677" lon="1.40697">
        <ele>1938.738</ele>
        <time>2024-08-31T11:33:44Z</time>
      </trkpt>
      <trkpt lat="42.69677" lon="1.40697">
        <ele>1938.675</ele>
        <time>2024-08-31T11:33:46Z</time>
      </trkpt>
      <trkpt lat="42.69677" lon="1.40697">
        <ele>1938.694</ele>
        <time>2024-08-31T11:33:48Z</time>
      </trkpt>
      <trkpt lat="42.69677" lon="1.40697">
        <ele>1938.311</ele>
        <time>2024-08-31T11:33:50Z</time>
      </trkpt>
      <trkpt lat="42.69677" lon="1.40697">
        <ele>1938.3</ele>
        <time>2024-08-31T11:33:52Z</time>
      </trkpt>
      <trkpt lat="42.69677" lon="1.40697">
        <ele>1938.291</ele>
        <time>2024-08-31T11:33:54Z</time>
      </trkpt>
      <trkpt lat="42.69677" lon="1.40697">
        <ele>1938.274</ele>
        <time>2024-08-31T11:33:56Z</time>
      </trkpt>
      <trkpt lat="42.69677" lon="1.40697">
        <ele>1938.246</ele>
        <time>2024-08-31T11:33:58Z</time>
      </trkpt>
      <trkpt lat="42.69677" lon="1.40697">
        <ele>1938.232</ele>
        <time>2024-08-31T11:34:00Z</time>
      </trkpt>
      <trkpt lat="42.69677" lon="1.40697">
        <ele>1938.211</ele>
        <time>2024-08-31T11:34:02Z</time>
      </trkpt>
      <trkpt lat="42.69677" lon="1.40697">
        <ele>1938.199</ele>
        <time>2024-08-31T11:34:04Z</time>
      </trkpt>
      <trkpt lat="42.69677" lon="1.40697">
        <ele>1938.101</ele>
        <time>2024-08-31T11:34:06Z</time>
      </trkpt>
      <trkpt lat="42.69677" lon="1.40697">
        <ele>1937.654</ele>
        <time>2024-08-31T11:34:08Z</time>
      </trkpt>
      <trkpt lat="42.69677" lon="1.40697">
        <ele>1937.023</ele>
        <time>2024-08-31T11:34:10Z</time>
      </trkpt>
      <trkpt lat="42.69677" lon="1.40697">
        <ele>1936.288</ele>
        <time>2024-08-31T11:34:12Z</time>
      </trkpt>
      <trkpt lat="42.69677" lon="1.40697">
        <ele>1936.153</ele>
        <time>2024-08-31T11:34:14Z</time>
      </trkpt>
      <trkpt lat="42.69677" lon="1.40697">
        <ele>1936.14</ele>
        <time>2024-08-31T11:34:16Z</time>
      </trkpt>
      <trkpt lat="42.69677" lon="1.40697">
        <ele>1936.14</ele>
        <time>2024-08-31T11:34:18Z</time>
      </trkpt>
      <trkpt lat="42.69677" lon="1.40697">
        <ele>1936.137</ele>
        <time>2024-08-31T11:34:20Z</time>
      </trkpt>
      <trkpt lat="42.69677" lon="1.40697">
        <ele>1936.605</ele>
        <time>2024-08-31T11:34:22Z</time>
      </trkpt>
      <trkpt lat="42.69677" lon="1.40697">
        <ele>1936.404</ele>
        <time>2024-08-31T11:34:24Z</time>
      </trkpt>
      <trkpt lat="42.69677" lon="1.40697">
        <ele>1936.455</ele>
        <time>2024-08-31T11:34:26Z</time>
      </trkpt>
      <trkpt lat="42.69677" lon="1.40697">
        <ele>1936.451</ele>
        <time>2024-08-31T11:34:28Z</time>
      </trkpt>
      <trkpt lat="42.69677" lon="1.40697">
        <ele>1936.786</ele>
        <time>2024-08-31T11:34:30Z</time>
      </trkpt>
      <trkpt lat="42.69677" lon="1.40697">
        <ele>1936.874</ele>
        <time>2024-08-31T11:34:32Z</time>
      </trkpt>
      <trkpt lat="42.69677" lon="1.40697">
        <ele>1936.41</ele>
        <time>2024-08-31T11:34:34Z</time>
      </trkpt>
      <trkpt lat="42.69677" lon="1.40697">
        <ele>1936.406</ele>
        <time>2024-08-31T11:34:36Z</time>
      </trkpt>
      <trkpt lat="42.69677" lon="1.40697">
        <ele>1936.397</ele>
        <time>2024-08-31T11:34:38Z</time>
      </trkpt>
      <trkpt lat="42.69677" lon="1.40697">
        <ele>1936.38</ele>
        <time>2024-08-31T11:34:40Z</time>
      </trkpt>
      <trkpt lat="42.69677" lon="1.40697">
        <ele>1936.122</ele>
        <time>2024-08-31T11:34:42Z</time>
      </trkpt>
      <trkpt lat="42.69677" lon="1.40697">
        <ele>1936.096</ele>
        <time>2024-08-31T11:34:44Z</time>
      </trkpt>
      <trkpt lat="42.69677" lon="1.40697">
        <ele>1936.845</ele>
        <time>2024-08-31T11:34:46Z</time>
      </trkpt>
      <trkpt lat="42.69677" lon="1.40697">
        <ele>1936.287</ele>
        <time>2024-08-31T11:34:48Z</time>
      </trkpt>
      <trkpt lat="42.69677" lon="1.40697">
        <ele>1936.248</ele>
        <time>2024-08-31T11:34:50Z</time>
      </trkpt>
      <trkpt lat="42.69677" lon="1.40697">
        <ele>1936.227</ele>
        <time>2024-08-31T11:34:52Z</time>
      </trkpt>
      <trkpt lat="42.69677" lon="1.40697">
        <ele>1936.21</ele>
        <time>2024-08-31T11:34:54Z</time>
      </trkpt>
      <trkpt lat="42.69677" lon="1.40697">
        <ele>1936.21</ele>
        <time>2024-08-31T11:34:56Z</time>
      </trkpt>
      <trkpt lat="42.69677" lon="1.40697">
        <ele>1936.215</ele>
        <time>2024-08-31T11:34:58Z</time>
      </trkpt>
      <trkpt lat="42.69677" lon="1.40697">
        <ele>1936.221</ele>
        <time>2024-08-31T11:35:00Z</time>
      </trkpt>
      <trkpt lat="42.69677" lon="1.40697">
        <ele>1936.215</ele>
        <time>2024-08-31T11:35:02Z</time>
      </trkpt>
      <trkpt lat="42.69677" lon="1.40697">
        <ele>1936.202</ele>
        <time>2024-08-31T11:35:04Z</time>
      </trkpt>
      <trkpt lat="42.69677" lon="1.40697">
        <ele>1936.189</ele>
        <time>2024-08-31T11:35:06Z</time>
      </trkpt>
      <trkpt lat="42.69677" lon="1.40697">
        <ele>1936.174</ele>
        <time>2024-08-31T11:35:08Z</time>
      </trkpt>
      <trkpt lat="42.69677" lon="1.40697">
        <ele>1936.161</ele>
        <time>2024-08-31T11:35:10Z</time>
      </trkpt>
      <trkpt lat="42.69677" lon="1.40697">
        <ele>1936.149</ele>
        <time>2024-08-31T11:35:12Z</time>
      </trkpt>
      <trkpt lat="42.69677" lon="1.40697">
        <ele>1936.159</ele>
        <time>2024-08-31T11:35:14Z</time>
      </trkpt>
      <trkpt lat="42.69677" lon="1.40697">
        <ele>1936.159</ele>
        <time>2024-08-31T11:35:16Z</time>
      </trkpt>
      <trkpt lat="42.69677" lon="1.40697">
        <ele>1936.154</ele>
        <time>2024-08-31T11:35:18Z</time>
      </trkpt>
      <trkpt lat="42.69677" lon="1.40697">
        <ele>1936.15</ele>
        <time>2024-08-31T11:35:20Z</time>
      </trkpt>
      <trkpt lat="42.69677" lon="1.40697">
        <ele>1936.151</ele>
        <time>2024-08-31T11:35:22Z</time>
      </trkpt>
      <trkpt lat="42.69677" lon="1.40697">
        <ele>1936.138</ele>
        <time>2024-08-31T11:35:24Z</time>
      </trkpt>
      <trkpt lat="42.69677" lon="1.40697">
        <ele>1936.141</ele>
        <time>2024-08-31T11:35:26Z</time>
      </trkpt>
      <trkpt lat="42.69677" lon="1.40697">
        <ele>1936.148</ele>
        <time>2024-08-31T11:35:28Z</time>
      </trkpt>
      <trkpt lat="42.69677" lon="1.40697">
        <ele>1936.147</ele>
        <time>2024-08-31T11:35:30Z</time>
      </trkpt>
      <trkpt lat="42.69677" lon="1.40697">
        <ele>1936.148</ele>
        <time>2024-08-31T11:35:32Z</time>
      </trkpt>
      <trkpt lat="42.69677" lon="1.40697">
        <ele>1936.149</ele>
        <time>2024-08-31T11:35:34Z</time>
      </trkpt>
      <trkpt lat="42.69677" lon="1.40697">
        <ele>1936.14</ele>
        <time>2024-08-31T11:35:36Z</time>
      </trkpt>
      <trkpt lat="42.69677" lon="1.40697">
        <ele>1936.141</ele>
        <time>2024-08-31T11:35:38Z</time>
      </trkpt>
      <trkpt lat="42.69677" lon="1.40697">
        <ele>1936.124</ele>
        <time>2024-08-31T11:35:40Z</time>
      </trkpt>
      <trkpt lat="42.69677" lon="1.40697">
        <ele>1936.098</ele>
        <time>2024-08-31T11:35:42Z</time>
      </trkpt>
      <trkpt lat="42.69677" lon="1.40697">
        <ele>1936.088</ele>
        <time>2024-08-31T11:35:44Z</time>
      </trkpt>
      <trkpt lat="42.69677" lon="1.40697">
        <ele>1936.095</ele>
        <time>2024-08-31T11:35:46Z</time>
      </trkpt>
      <trkpt lat="42.69677" lon="1.40697">
        <ele>1936.088</ele>
        <time>2024-08-31T11:35:48Z</time>
      </trkpt>
      <trkpt lat="42.69677" lon="1.40697">
        <ele>1936.087</ele>
        <time>2024-08-31T11:35:50Z</time>
      </trkpt>
      <trkpt lat="42.69677" lon="1.40697">
        <ele>1936.089</ele>
        <time>2024-08-31T11:35:52Z</time>
      </trkpt>
      <trkpt lat="42.69677" lon="1.40697">
        <ele>1936.085</ele>
        <time>2024-08-31T11:35:54Z</time>
      </trkpt>
      <trkpt lat="42.69677" lon="1.40697">
        <ele>1936.085</ele>
        <time>2024-08-31T11:35:56Z</time>
      </trkpt>
      <trkpt lat="42.69677" lon="1.40697">
        <ele>1936.086</ele>
        <time>2024-08-31T11:35:58Z</time>
      </trkpt>
      <trkpt lat="42.69677" lon="1.40697">
        <ele>1936.077</ele>
        <time>2024-08-31T11:36:00Z</time>
      </trkpt>
      <trkpt lat="42.69677" lon="1.40697">
        <ele>1936.06</ele>
        <time>2024-08-31T11:36:02Z</time>
      </trkpt>
      <trkpt lat="42.69677" lon="1.40697">
        <ele>1936.062</ele>
        <time>2024-08-31T11:36:04Z</time>
      </trkpt>
      <trkpt lat="42.69677" lon="1.40697">
        <ele>1936.059</ele>
        <time>2024-08-31T11:36:06Z</time>
      </trkpt>
      <trkpt lat="42.69677" lon="1.40697">
        <ele>1936.05</ele>
        <time>2024-08-31T11:36:08Z</time>
      </trkpt>
      <trkpt lat="42.69677" lon="1.40697">
        <ele>1936.03</ele>
        <time>2024-08-31T11:36:10Z</time>
      </trkpt>
      <trkpt lat="42.69677" lon="1.40697">
        <ele>1936.013</ele>
        <time>2024-08-31T11:36:12Z</time>
      </trkpt>
      <trkpt lat="42.69677" lon="1.40697">
        <ele>1936.001</ele>
        <time>2024-08-31T11:36:14Z</time>
      </trkpt>
      <trkpt lat="42.69677" lon="1.40697">
        <ele>1935.992</ele>
        <time>2024-08-31T11:36:16Z</time>
      </trkpt>
      <trkpt lat="42.69677" lon="1.40697">
        <ele>1935.989</ele>
        <time>2024-08-31T11:36:18Z</time>
      </trkpt>
      <trkpt lat="42.69677" lon="1.40697">
        <ele>1935.995</ele>
        <time>2024-08-31T11:36:20Z</time>
      </trkpt>
      <trkpt lat="42.69677" lon="1.40697">
        <ele>1935.999</ele>
        <time>2024-08-31T11:36:22Z</time>
      </trkpt>
      <trkpt lat="42.69677" lon="1.40697">
        <ele>1935.997</ele>
        <time>2024-08-31T11:36:24Z</time>
      </trkpt>
      <trkpt lat="42.69677" lon="1.40697">
        <ele>1935.977</ele>
        <time>2024-08-31T11:36:26Z</time>
      </trkpt>
      <trkpt lat="42.69677" lon="1.40697">
        <ele>1935.962</ele>
        <time>2024-08-31T11:36:28Z</time>
      </trkpt>
      <trkpt lat="42.69677" lon="1.40697">
        <ele>1935.94</ele>
        <time>2024-08-31T11:36:30Z</time>
      </trkpt>
      <trkpt lat="42.69677" lon="1.40697">
        <ele>1935.914</ele>
        <time>2024-08-31T11:36:32Z</time>
      </trkpt>
      <trkpt lat="42.69677" lon="1.40697">
        <ele>1935.902</ele>
        <time>2024-08-31T11:36:34Z</time>
      </trkpt>
      <trkpt lat="42.69677" lon="1.40697">
        <ele>1936.25</ele>
        <time>2024-08-31T11:36:36Z</time>
      </trkpt>
      <trkpt lat="42.69677" lon="1.40697">
        <ele>1935.918</ele>
        <time>2024-08-31T11:36:38Z</time>
      </trkpt>
      <trkpt lat="42.69677" lon="1.40697">
        <ele>1936.077</ele>
        <time>2024-08-31T11:36:40Z</time>
      </trkpt>
      <trkpt lat="42.69677" lon="1.40697">
        <ele>1936.067</ele>
        <time>2024-08-31T11:36:42Z</time>
      </trkpt>
      <trkpt lat="42.69677" lon="1.40697">
        <ele>1936.049</ele>
        <time>2024-08-31T11:36:44Z</time>
      </trkpt>
      <trkpt lat="42.69677" lon="1.40697">
        <ele>1936.031</ele>
        <time>2024-08-31T11:36:46Z</time>
      </trkpt>
      <trkpt lat="42.69677" lon="1.40697">
        <ele>1935.994</ele>
        <time>2024-08-31T11:36:48Z</time>
      </trkpt>
      <trkpt lat="42.69677" lon="1.40697">
        <ele>1935.965</ele>
        <time>2024-08-31T11:36:50Z</time>
      </trkpt>
      <trkpt lat="42.69677" lon="1.40697">
        <ele>1935.963</ele>
        <time>2024-08-31T11:36:52Z</time>
      </trkpt>
      <trkpt lat="42.69677" lon="1.40697">
        <ele>1935.946</ele>
        <time>2024-08-31T11:36:54Z</time>
      </trkpt>
      <trkpt lat="42.69677" lon="1.40697">
        <ele>1935.929</ele>
        <time>2024-08-31T11:36:56Z</time>
      </trkpt>
      <trkpt lat="42.69677" lon="1.40697">
        <ele>1935.926</ele>
        <time>2024-08-31T11:36:58Z</time>
      </trkpt>
      <trkpt lat="42.69677" lon="1.40697">
        <ele>1935.921</ele>
        <time>2024-08-31T11:37:00Z</time>
      </trkpt>
      <trkpt lat="42.69677" lon="1.40697">
        <ele>1935.908</ele>
        <time>2024-08-31T11:37:02Z</time>
      </trkpt>
      <trkpt lat="42.69677" lon="1.40697">
        <ele>1935.901</ele>
        <time>2024-08-31T11:37:04Z</time>
      </trkpt>
      <trkpt lat="42.69677" lon="1.40697">
        <ele>1935.893</ele>
        <time>2024-08-31T11:37:06Z</time>
      </trkpt>
      <trkpt lat="42.69677" lon="1.40697">
        <ele>1935.869</ele>
        <time>2024-08-31T11:37:08Z</time>
      </trkpt>
      <trkpt lat="42.69677" lon="1.40697">
        <ele>1935.841</ele>
        <time>2024-08-31T11:37:10Z</time>
      </trkpt>
      <trkpt lat="42.69677" lon="1.40697">
        <ele>1935.837</ele>
        <time>2024-08-31T11:37:12Z</time>
      </trkpt>
      <trkpt lat="42.69677" lon="1.40697">
        <ele>1935.843</ele>
        <time>2024-08-31T11:37:14Z</time>
      </trkpt>
      <trkpt lat="42.69677" lon="1.40697">
        <ele>1935.841</ele>
        <time>2024-08-31T11:37:16Z</time>
      </trkpt>
      <trkpt lat="42.69677" lon="1.40697">
        <ele>1935.834</ele>
        <time>2024-08-31T11:37:18Z</time>
      </trkpt>
      <trkpt lat="42.69677" lon="1.40697">
        <ele>1935.823</ele>
        <time>2024-08-31T11:37:20Z</time>
      </trkpt>
      <trkpt lat="42.69677" lon="1.40697">
        <ele>1935.811</ele>
        <time>2024-08-31T11:37:22Z</time>
      </trkpt>
      <trkpt lat="42.69677" lon="1.40697">
        <ele>1935.804</ele>
        <time>2024-08-31T11:37:24Z</time>
      </trkpt>
      <trkpt lat="42.69677" lon="1.40697">
        <ele>1935.805</ele>
        <time>2024-08-31T11:37:26Z</time>
      </trkpt>
      <trkpt lat="42.69677" lon="1.40697">
        <ele>1935.807</ele>
        <time>2024-08-31T11:37:28Z</time>
      </trkpt>
      <trkpt lat="42.69677" lon="1.40697">
        <ele>1935.801</ele>
        <time>2024-08-31T11:37:30Z</time>
      </trkpt>
      <trkpt lat="42.69677" lon="1.40697">
        <ele>1935.785</ele>
        <time>2024-08-31T11:37:32Z</time>
      </trkpt>
      <trkpt lat="42.69677" lon="1.40697">
        <ele>1935.773</ele>
        <time>2024-08-31T11:37:34Z</time>
      </trkpt>
      <trkpt lat="42.69677" lon="1.40697">
        <ele>1935.728</ele>
        <time>2024-08-31T11:37:36Z</time>
      </trkpt>
      <trkpt lat="42.69677" lon="1.40697">
        <ele>1935.722</ele>
        <time>2024-08-31T11:37:38Z</time>
      </trkpt>
      <trkpt lat="42.69677" lon="1.40697">
        <ele>1935.71</ele>
        <time>2024-08-31T11:37:40Z</time>
      </trkpt>
      <trkpt lat="42.69677" lon="1.40697">
        <ele>1935.688</ele>
        <time>2024-08-31T11:37:42Z</time>
      </trkpt>
      <trkpt lat="42.69677" lon="1.40697">
        <ele>1935.678</ele>
        <time>2024-08-31T11:37:44Z</time>
      </trkpt>
      <trkpt lat="42.69677" lon="1.40697">
        <ele>1935.665</ele>
        <time>2024-08-31T11:37:46Z</time>
      </trkpt>
      <trkpt lat="42.69677" lon="1.40697">
        <ele>1935.661</ele>
        <time>2024-08-31T11:37:48Z</time>
      </trkpt>
      <trkpt lat="42.69677" lon="1.40697">
        <ele>1935.662</ele>
        <time>2024-08-31T11:37:50Z</time>
      </trkpt>
      <trkpt lat="42.69677" lon="1.40697">
        <ele>1935.684</ele>
        <time>2024-08-31T11:37:52Z</time>
      </trkpt>
      <trkpt lat="42.69677" lon="1.40697">
        <ele>1935.686</ele>
        <time>2024-08-31T11:37:54Z</time>
      </trkpt>
      <trkpt lat="42.69677" lon="1.40697">
        <ele>1935.693</ele>
        <time>2024-08-31T11:37:56Z</time>
      </trkpt>
      <trkpt lat="42.69677" lon="1.40697">
        <ele>1935.684</ele>
        <time>2024-08-31T11:37:58Z</time>
      </trkpt>
      <trkpt lat="42.69677" lon="1.40697">
        <ele>1935.673</ele>
        <time>2024-08-31T11:38:00Z</time>
      </trkpt>
      <trkpt lat="42.69677" lon="1.40697">
        <ele>1935.661</ele>
        <time>2024-08-31T11:38:02Z</time>
      </trkpt>
      <trkpt lat="42.69677" lon="1.40697">
        <ele>1935.649</ele>
        <time>2024-08-31T11:38:04Z</time>
      </trkpt>
      <trkpt lat="42.69677" lon="1.40697">
        <ele>1935.648</ele>
        <time>2024-08-31T11:38:06Z</time>
      </trkpt>
      <trkpt lat="42.69677" lon="1.40697">
        <ele>1935.631</ele>
        <time>2024-08-31T11:38:08Z</time>
      </trkpt>
      <trkpt lat="42.69677" lon="1.40697">
        <ele>1935.626</ele>
        <time>2024-08-31T11:38:10Z</time>
      </trkpt>
      <trkpt lat="42.69677" lon="1.40697">
        <ele>1935.636</ele>
        <time>2024-08-31T11:38:12Z</time>
      </trkpt>
      <trkpt lat="42.69677" lon="1.40697">
        <ele>1935.643</ele>
        <time>2024-08-31T11:38:14Z</time>
      </trkpt>
      <trkpt lat="42.69677" lon="1.40697">
        <ele>1935.649</ele>
        <time>2024-08-31T11:38:16Z</time>
      </trkpt>
      <trkpt lat="42.69677" lon="1.40697">
        <ele>1935.661</ele>
        <time>2024-08-31T11:38:18Z</time>
      </trkpt>
      <trkpt lat="42.69677" lon="1.40697">
        <ele>1935.668</ele>
        <time>2024-08-31T11:38:20Z</time>
      </trkpt>
      <trkpt lat="42.69677" lon="1.40697">
        <ele>1935.666</ele>
        <time>2024-08-31T11:38:22Z</time>
      </trkpt>
      <trkpt lat="42.69677" lon="1.40697">
        <ele>1935.671</ele>
        <time>2024-08-31T11:38:24Z</time>
      </trkpt>
      <trkpt lat="42.69677" lon="1.40697">
        <ele>1935.67</ele>
        <time>2024-08-31T11:38:26Z</time>
      </trkpt>
      <trkpt lat="42.69677" lon="1.40697">
        <ele>1935.658</ele>
        <time>2024-08-31T11:38:28Z</time>
      </trkpt>
      <trkpt lat="42.69677" lon="1.40697">
        <ele>1935.635</ele>
        <time>2024-08-31T11:38:30Z</time>
      </trkpt>
      <trkpt lat="42.69677" lon="1.40697">
        <ele>1935.614</ele>
        <time>2024-08-31T11:38:32Z</time>
      </trkpt>
      <trkpt lat="42.69677" lon="1.40697">
        <ele>1935.605</ele>
        <time>2024-08-31T11:38:34Z</time>
      </trkpt>
      <trkpt lat="42.69677" lon="1.40697">
        <ele>1935.601</ele>
        <time>2024-08-31T11:38:36Z</time>
      </trkpt>
      <trkpt lat="42.69677" lon="1.40697">
        <ele>1935.606</ele>
        <time>2024-08-31T11:38:38Z</time>
      </trkpt>
      <trkpt lat="42.69677" lon="1.40697">
        <ele>1935.617</ele>
        <time>2024-08-31T11:38:40Z</time>
      </trkpt>
      <trkpt lat="42.69677" lon="1.40697">
        <ele>1935.619</ele>
        <time>2024-08-31T11:38:42Z</time>
      </trkpt>
      <trkpt lat="42.69677" lon="1.40697">
        <ele>1935.621</ele>
        <time>2024-08-31T11:38:44Z</time>
      </trkpt>
      <trkpt lat="42.69677" lon="1.40697">
        <ele>1935.626</ele>
        <time>2024-08-31T11:38:46Z</time>
      </trkpt>
      <trkpt lat="42.69677" lon="1.40697">
        <ele>1935.616</ele>
        <time>2024-08-31T11:38:48Z</time>
      </trkpt>
      <trkpt lat="42.69677" lon="1.40697">
        <ele>1935.599</ele>
        <time>2024-08-31T11:38:50Z</time>
      </trkpt>
      <trkpt lat="42.69677" lon="1.40697">
        <ele>1935.596</ele>
        <time>2024-08-31T11:38:52Z</time>
      </trkpt>
      <trkpt lat="42.69677" lon="1.40697">
        <ele>1935.599</ele>
        <time>2024-08-31T11:38:54Z</time>
      </trkpt>
      <trkpt lat="42.69677" lon="1.40697">
        <ele>1935.598</ele>
        <time>2024-08-31T11:38:56Z</time>
      </trkpt>
      <trkpt lat="42.69677" lon="1.40697">
        <ele>1935.594</ele>
        <time>2024-08-31T11:38:58Z</time>
      </trkpt>
      <trkpt lat="42.69677" lon="1.40697">
        <ele>1935.586</ele>
        <time>2024-08-31T11:39:00Z</time>
      </trkpt>
      <trkpt lat="42.69677" lon="1.40697">
        <ele>1935.572</ele>
        <time>2024-08-31T11:39:02Z</time>
      </trkpt>
      <trkpt lat="42.69677" lon="1.40697">
        <ele>1935.564</ele>
        <time>2024-08-31T11:39:04Z</time>
      </trkpt>
      <trkpt lat="42.69677" lon="1.40697">
        <ele>1935.55</ele>
        <time>2024-08-31T11:39:06Z</time>
      </trkpt>
      <trkpt lat="42.69677" lon="1.40697">
        <ele>1935.532</ele>
        <time>2024-08-31T11:39:08Z</time>
      </trkpt>
      <trkpt lat="42.69677" lon="1.40697">
        <ele>1935.534</ele>
        <time>2024-08-31T11:39:10Z</time>
      </trkpt>
      <trkpt lat="42.69677" lon="1.40697">
        <ele>1935.53</ele>
        <time>2024-08-31T11:39:12Z</time>
      </trkpt>
      <trkpt lat="42.69677" lon="1.40697">
        <ele>1935.519</ele>
        <time>2024-08-31T11:39:14Z</time>
      </trkpt>
      <trkpt lat="42.69677" lon="1.40697">
        <ele>1935.521</ele>
        <time>2024-08-31T11:39:16Z</time>
      </trkpt>
      <trkpt lat="42.69677" lon="1.40697">
        <ele>1935.519</ele>
        <time>2024-08-31T11:39:18Z</time>
      </trkpt>
      <trkpt lat="42.69677" lon="1.40697">
        <ele>1935.516</ele>
        <time>2024-08-31T11:39:20Z</time>
      </trkpt>
      <trkpt lat="42.69677" lon="1.40697">
        <ele>1935.516</ele>
        <time>2024-08-31T11:39:22Z</time>
      </trkpt>
      <trkpt lat="42.69677" lon="1.40697">
        <ele>1935.519</ele>
        <time>2024-08-31T11:39:24Z</time>
      </trkpt>
      <trkpt lat="42.69677" lon="1.40697">
        <ele>1935.513</ele>
        <time>2024-08-31T11:39:26Z</time>
      </trkpt>
      <trkpt lat="42.69677" lon="1.40697">
        <ele>1935.508</ele>
        <time>2024-08-31T11:39:28Z</time>
      </trkpt>
      <trkpt lat="42.69677" lon="1.40697">
        <ele>1935.507</ele>
        <time>2024-08-31T11:39:30Z</time>
      </trkpt>
      <trkpt lat="42.69677" lon="1.40697">
        <ele>1935.498</ele>
        <time>2024-08-31T11:39:32Z</time>
      </trkpt>
      <trkpt lat="42.69677" lon="1.40697">
        <ele>1935.491</ele>
        <time>2024-08-31T11:39:34Z</time>
      </trkpt>
      <trkpt lat="42.69677" lon="1.40697">
        <ele>1935.479</ele>
        <time>2024-08-31T11:39:36Z</time>
      </trkpt>
      <trkpt lat="42.69677" lon="1.40697">
        <ele>1935.471</ele>
        <time>2024-08-31T11:39:38Z</time>
      </trkpt>
      <trkpt lat="42.69677" lon="1.40697">
        <ele>1935.475</ele>
        <time>2024-08-31T11:39:40Z</time>
      </trkpt>
      <trkpt lat="42.69677" lon="1.40697">
        <ele>1935.462</ele>
        <time>2024-08-31T11:39:42Z</time>
      </trkpt>
      <trkpt lat="42.69677" lon="1.40697">
        <ele>1935.466</ele>
        <time>2024-08-31T11:39:44Z</time>
      </trkpt>
      <trkpt lat="42.69677" lon="1.40697">
        <ele>1935.469</ele>
        <time>2024-08-31T11:39:46Z</time>
      </trkpt>
      <trkpt lat="42.69677" lon="1.40697">
        <ele>1935.466</ele>
        <time>2024-08-31T11:39:48Z</time>
      </trkpt>
      <trkpt lat="42.69677" lon="1.40697">
        <ele>1935.466</ele>
        <time>2024-08-31T11:39:50Z</time>
      </trkpt>
      <trkpt lat="42.69677" lon="1.40697">
        <ele>1935.46</ele>
        <time>2024-08-31T11:39:52Z</time>
      </trkpt>
      <trkpt lat="42.69677" lon="1.40697">
        <ele>1935.456</ele>
        <time>2024-08-31T11:39:54Z</time>
      </trkpt>
      <trkpt lat="42.69677" lon="1.40697">
        <ele>1935.458</ele>
        <time>2024-08-31T11:39:56Z</time>
      </trkpt>
      <trkpt lat="42.69677" lon="1.40697">
        <ele>1935.46</ele>
        <time>2024-08-31T11:39:58Z</time>
      </trkpt>
      <trkpt lat="42.69677" lon="1.40697">
        <ele>1935.458</ele>
        <time>2024-08-31T11:40:00Z</time>
      </trkpt>
      <trkpt lat="42.69677" lon="1.40697">
        <ele>1935.448</ele>
        <time>2024-08-31T11:40:02Z</time>
      </trkpt>
      <trkpt lat="42.69677" lon="1.40697">
        <ele>1935.451</ele>
        <time>2024-08-31T11:40:04Z</time>
      </trkpt>
      <trkpt lat="42.69677" lon="1.40697">
        <ele>1935.456</ele>
        <time>2024-08-31T11:40:06Z</time>
      </trkpt>
      <trkpt lat="42.69677" lon="1.40697">
        <ele>1935.456</ele>
        <time>2024-08-31T11:40:08Z</time>
      </trkpt>
      <trkpt lat="42.69677" lon="1.40697">
        <ele>1935.459</ele>
        <time>2024-08-31T11:40:10Z</time>
      </trkpt>
      <trkpt lat="42.69677" lon="1.40697">
        <ele>1935.464</ele>
        <time>2024-08-31T11:40:12Z</time>
      </trkpt>
      <trkpt lat="42.69677" lon="1.40697">
        <ele>1935.466</ele>
        <time>2024-08-31T11:40:14Z</time>
      </trkpt>
      <trkpt lat="42.69677" lon="1.40697">
        <ele>1935.46</ele>
        <time>2024-08-31T11:40:16Z</time>
      </trkpt>
      <trkpt lat="42.69677" lon="1.40697">
        <ele>1935.458</ele>
        <time>2024-08-31T11:40:18Z</time>
      </trkpt>
      <trkpt lat="42.69677" lon="1.40697">
        <ele>1935.466</ele>
        <time>2024-08-31T11:40:20Z</time>
      </trkpt>
      <trkpt lat="42.69677" lon="1.40697">
        <ele>1935.47</ele>
        <time>2024-08-31T11:40:22Z</time>
      </trkpt>
      <trkpt lat="42.69677" lon="1.40697">
        <ele>1935.461</ele>
        <time>2024-08-31T11:40:24Z</time>
      </trkpt>
      <trkpt lat="42.69677" lon="1.40697">
        <ele>1935.453</ele>
        <time>2024-08-31T11:40:26Z</time>
      </trkpt>
      <trkpt lat="42.69677" lon="1.40697">
        <ele>1935.444</ele>
        <time>2024-08-31T11:40:28Z</time>
      </trkpt>
      <trkpt lat="42.69677" lon="1.40697">
        <ele>1935.441</ele>
        <time>2024-08-31T11:40:30Z</time>
      </trkpt>
      <trkpt lat="42.69677" lon="1.40697">
        <ele>1935.452</ele>
        <time>2024-08-31T11:40:32Z</time>
      </trkpt>
      <trkpt lat="42.69677" lon="1.40697">
        <ele>1935.461</ele>
        <time>2024-08-31T11:40:34Z</time>
      </trkpt>
      <trkpt lat="42.69677" lon="1.40697">
        <ele>1935.459</ele>
        <time>2024-08-31T11:40:36Z</time>
      </trkpt>
      <trkpt lat="42.69677" lon="1.40697">
        <ele>1935.457</ele>
        <time>2024-08-31T11:40:38Z</time>
      </trkpt>
      <trkpt lat="42.69677" lon="1.40697">
        <ele>1935.449</ele>
        <time>2024-08-31T11:40:40Z</time>
      </trkpt>
      <trkpt lat="42.69677" lon="1.40697">
        <ele>1935.449</ele>
        <time>2024-08-31T11:40:42Z</time>
      </trkpt>
      <trkpt lat="42.69677" lon="1.40697">
        <ele>1935.457</ele>
        <time>2024-08-31T11:40:44Z</time>
      </trkpt>
      <trkpt lat="42.69677" lon="1.40697">
        <ele>1935.459</ele>
        <time>2024-08-31T11:40:46Z</time>
      </trkpt>
      <trkpt lat="42.69677" lon="1.40697">
        <ele>1935.467</ele>
        <time>2024-08-31T11:40:48Z</time>
      </trkpt>
      <trkpt lat="42.69677" lon="1.40697">
        <ele>1935.478</ele>
        <time>2024-08-31T11:40:50Z</time>
      </trkpt>
      <trkpt lat="42.69677" lon="1.40697">
        <ele>1935.479</ele>
        <time>2024-08-31T11:40:52Z</time>
      </trkpt>
      <trkpt lat="42.69677" lon="1.40697">
        <ele>1935.458</ele>
        <time>2024-08-31T11:40:54Z</time>
      </trkpt>
      <trkpt lat="42.69677" lon="1.40697">
        <ele>1935.444</ele>
        <time>2024-08-31T11:40:56Z</time>
      </trkpt>
      <trkpt lat="42.69677" lon="1.40697">
        <ele>1935.436</ele>
        <time>2024-08-31T11:40:58Z</time>
      </trkpt>
      <trkpt lat="42.69677" lon="1.40697">
        <ele>1935.425</ele>
        <time>2024-08-31T11:41:00Z</time>
      </trkpt>
      <trkpt lat="42.69677" lon="1.40697">
        <ele>1935.423</ele>
        <time>2024-08-31T11:41:02Z</time>
      </trkpt>
      <trkpt lat="42.69677" lon="1.40697">
        <ele>1935.43</ele>
        <time>2024-08-31T11:41:04Z</time>
      </trkpt>
      <trkpt lat="42.69677" lon="1.40697">
        <ele>1935.44</ele>
        <time>2024-08-31T11:41:06Z</time>
      </trkpt>
      <trkpt lat="42.69677" lon="1.40697">
        <ele>1935.443</ele>
        <time>2024-08-31T11:41:08Z</time>
      </trkpt>
      <trkpt lat="42.69677" lon="1.40697">
        <ele>1935.45</ele>
        <time>2024-08-31T11:41:10Z</time>
      </trkpt>
      <trkpt lat="42.69677" lon="1.40697">
        <ele>1936.254</ele>
        <time>2024-08-31T11:41:12Z</time>
      </trkpt>
      <trkpt lat="42.69677" lon="1.40697">
        <ele>1936.329</ele>
        <time>2024-08-31T11:41:14Z</time>
      </trkpt>
      <trkpt lat="42.69677" lon="1.40697">
        <ele>1936.348</ele>
        <time>2024-08-31T11:41:16Z</time>
      </trkpt>
      <trkpt lat="42.69677" lon="1.40697">
        <ele>1936.445</ele>
        <time>2024-08-31T11:41:18Z</time>
      </trkpt>
      <trkpt lat="42.69677" lon="1.40697">
        <ele>1936.268</ele>
        <time>2024-08-31T11:41:20Z</time>
      </trkpt>
      <trkpt lat="42.69677" lon="1.40697">
        <ele>1936.264</ele>
        <time>2024-08-31T11:41:22Z</time>
      </trkpt>
      <trkpt lat="42.69677" lon="1.40697">
        <ele>1936.24</ele>
        <time>2024-08-31T11:41:24Z</time>
      </trkpt>
      <trkpt lat="42.69677" lon="1.40697">
        <ele>1936.221</ele>
        <time>2024-08-31T11:41:26Z</time>
      </trkpt>
      <trkpt lat="42.69677" lon="1.40697">
        <ele>1936.216</ele>
        <time>2024-08-31T11:41:28Z</time>
      </trkpt>
      <trkpt lat="42.69677" lon="1.40697">
        <ele>1936.21</ele>
        <time>2024-08-31T11:41:30Z</time>
      </trkpt>
      <trkpt lat="42.69677" lon="1.40697">
        <ele>1936.213</ele>
        <time>2024-08-31T11:41:32Z</time>
      </trkpt>
      <trkpt lat="42.69677" lon="1.40697">
        <ele>1936.216</ele>
        <time>2024-08-31T11:41:34Z</time>
      </trkpt>
      <trkpt lat="42.69677" lon="1.40697">
        <ele>1936.217</ele>
        <time>2024-08-31T11:41:36Z</time>
      </trkpt>
      <trkpt lat="42.69677" lon="1.40697">
        <ele>1936.209</ele>
        <time>2024-08-31T11:41:38Z</time>
      </trkpt>
      <trkpt lat="42.69677" lon="1.40697">
        <ele>1936.728</ele>
        <time>2024-08-31T11:41:40Z</time>
      </trkpt>
      <trkpt lat="42.69677" lon="1.40697">
        <ele>1936.732</ele>
        <time>2024-08-31T11:41:42Z</time>
      </trkpt>
      <trkpt lat="42.69677" lon="1.40697">
        <ele>1936.769</ele>
        <time>2024-08-31T11:41:44Z</time>
      </trkpt>
      <trkpt lat="42.69677" lon="1.40697">
        <ele>1936.763</ele>
        <time>2024-08-31T11:41:46Z</time>
      </trkpt>
      <trkpt lat="42.69677" lon="1.40697">
        <ele>1936.765</ele>
        <time>2024-08-31T11:41:48Z</time>
      </trkpt>
      <trkpt lat="42.69677" lon="1.40697">
        <ele>1936.76</ele>
        <time>2024-08-31T11:41:50Z</time>
      </trkpt>
      <trkpt lat="42.69677" lon="1.40697">
        <ele>1936.748</ele>
        <time>2024-08-31T11:41:52Z</time>
      </trkpt>
      <trkpt lat="42.69677" lon="1.40697">
        <ele>1936.73</ele>
        <time>2024-08-31T11:41:54Z</time>
      </trkpt>
      <trkpt lat="42.69677" lon="1.40697">
        <ele>1936.725</ele>
        <time>2024-08-31T11:41:56Z</time>
      </trkpt>
      <trkpt lat="42.69677" lon="1.40697">
        <ele>1936.73</ele>
        <time>2024-08-31T11:41:58Z</time>
      </trkpt>
      <trkpt lat="42.69677" lon="1.40697">
        <ele>1936.745</ele>
        <time>2024-08-31T11:42:00Z</time>
      </trkpt>
      <trkpt lat="42.69677" lon="1.40697">
        <ele>1936.762</ele>
        <time>2024-08-31T11:42:02Z</time>
      </trkpt>
      <trkpt lat="42.69677" lon="1.40697">
        <ele>1936.777</ele>
        <time>2024-08-31T11:42:04Z</time>
      </trkpt>
      <trkpt lat="42.69677" lon="1.40697">
        <ele>1936.782</ele>
        <time>2024-08-31T11:42:06Z</time>
      </trkpt>
      <trkpt lat="42.69677" lon="1.40697">
        <ele>1936.787</ele>
        <time>2024-08-31T11:42:08Z</time>
      </trkpt>
      <trkpt lat="42.69677" lon="1.40697">
        <ele>1936.784</ele>
        <time>2024-08-31T11:42:10Z</time>
      </trkpt>
      <trkpt lat="42.69677" lon="1.40697">
        <ele>1936.776</ele>
        <time>2024-08-31T11:42:12Z</time>
      </trkpt>
      <trkpt lat="42.69677" lon="1.40697">
        <ele>1936.775</ele>
        <time>2024-08-31T11:42:14Z</time>
      </trkpt>
      <trkpt lat="42.69677" lon="1.40697">
        <ele>1936.771</ele>
        <time>2024-08-31T11:42:16Z</time>
      </trkpt>
      <trkpt lat="42.69677" lon="1.40697">
        <ele>1936.788</ele>
        <time>2024-08-31T11:42:18Z</time>
      </trkpt>
      <trkpt lat="42.69677" lon="1.40697">
        <ele>1936.78</ele>
        <time>2024-08-31T11:42:20Z</time>
      </trkpt>
      <trkpt lat="42.69677" lon="1.40697">
        <ele>1936.786</ele>
        <time>2024-08-31T11:42:22Z</time>
      </trkpt>
      <trkpt lat="42.69677" lon="1.40697">
        <ele>1936.809</ele>
        <time>2024-08-31T11:42:24Z</time>
      </trkpt>
      <trkpt lat="42.69677" lon="1.40697">
        <ele>1936.828</ele>
        <time>2024-08-31T11:42:26Z</time>
      </trkpt>
      <trkpt lat="42.69677" lon="1.40697">
        <ele>1936.838</ele>
        <time>2024-08-31T11:42:28Z</time>
      </trkpt>
      <trkpt lat="42.69677" lon="1.40697">
        <ele>1936.849</ele>
        <time>2024-08-31T11:42:30Z</time>
      </trkpt>
      <trkpt lat="42.69677" lon="1.40697">
        <ele>1936.844</ele>
        <time>2024-08-31T11:42:32Z</time>
      </trkpt>
      <trkpt lat="42.69677" lon="1.40697">
        <ele>1936.837</ele>
        <time>2024-08-31T11:42:34Z</time>
      </trkpt>
      <trkpt lat="42.69677" lon="1.40697">
        <ele>1936.835</ele>
        <time>2024-08-31T11:42:36Z</time>
      </trkpt>
      <trkpt lat="42.69677" lon="1.40697">
        <ele>1936.833</ele>
        <time>2024-08-31T11:42:38Z</time>
      </trkpt>
      <trkpt lat="42.69677" lon="1.40697">
        <ele>1936.832</ele>
        <time>2024-08-31T11:42:40Z</time>
      </trkpt>
      <trkpt lat="42.69677" lon="1.40697">
        <ele>1936.831</ele>
        <time>2024-08-31T11:42:42Z</time>
      </trkpt>
      <trkpt lat="42.69677" lon="1.40697">
        <ele>1936.83</ele>
        <time>2024-08-31T11:42:44Z</time>
      </trkpt>
      <trkpt lat="42.69677" lon="1.40697">
        <ele>1936.828</ele>
        <time>2024-08-31T11:42:46Z</time>
      </trkpt>
      <trkpt lat="42.69677" lon="1.40697">
        <ele>1936.81</ele>
        <time>2024-08-31T11:42:48Z</time>
      </trkpt>
      <trkpt lat="42.69677" lon="1.40697">
        <ele>1936.794</ele>
        <time>2024-08-31T11:42:50Z</time>
      </trkpt>
      <trkpt lat="42.69677" lon="1.40697">
        <ele>1936.778</ele>
        <time>2024-08-31T11:42:52Z</time>
      </trkpt>
      <trkpt lat="42.69677" lon="1.40697">
        <ele>1936.766</ele>
        <time>2024-08-31T11:42:54Z</time>
      </trkpt>
      <trkpt lat="42.69677" lon="1.40697">
        <ele>1936.765</ele>
        <time>2024-08-31T11:42:56Z</time>
      </trkpt>
      <trkpt lat="42.69677" lon="1.40697">
        <ele>1936.747</ele>
        <time>2024-08-31T11:42:58Z</time>
      </trkpt>
      <trkpt lat="42.69677" lon="1.40697">
        <ele>1936.713</ele>
        <time>2024-08-31T11:43:00Z</time>
      </trkpt>
      <trkpt lat="42.69677" lon="1.40697">
        <ele>1936.713</ele>
        <time>2024-08-31T11:43:02Z</time>
      </trkpt>
      <trkpt lat="42.69677" lon="1.40697">
        <ele>1936.718</ele>
        <time>2024-08-31T11:43:04Z</time>
      </trkpt>
      <trkpt lat="42.69677" lon="1.40697">
        <ele>1936.722</ele>
        <time>2024-08-31T11:43:06Z</time>
      </trkpt>
      <trkpt lat="42.69677" lon="1.40697">
        <ele>1936.673</ele>
        <time>2024-08-31T11:43:08Z</time>
      </trkpt>
      <trkpt lat="42.69677" lon="1.40697">
        <ele>1936.641</ele>
        <time>2024-08-31T11:43:10Z</time>
      </trkpt>
      <trkpt lat="42.69677" lon="1.40697">
        <ele>1936.596</ele>
        <time>2024-08-31T11:43:12Z</time>
      </trkpt>
      <trkpt lat="42.69677" lon="1.40697">
        <ele>1936.58</ele>
        <time>2024-08-31T11:43:14Z</time>
      </trkpt>
      <trkpt lat="42.69677" lon="1.40697">
        <ele>1936.587</ele>
        <time>2024-08-31T11:43:16Z</time>
      </trkpt>
      <trkpt lat="42.69677" lon="1.40697">
        <ele>1936.602</ele>
        <time>2024-08-31T11:43:18Z</time>
      </trkpt>
      <trkpt lat="42.69677" lon="1.40697">
        <ele>1936.602</ele>
        <time>2024-08-31T11:43:20Z</time>
      </trkpt>
      <trkpt lat="42.69677" lon="1.40697">
        <ele>1936.592</ele>
        <time>2024-08-31T11:43:22Z</time>
      </trkpt>
      <trkpt lat="42.69677" lon="1.40697">
        <ele>1936.599</ele>
        <time>2024-08-31T11:43:24Z</time>
      </trkpt>
      <trkpt lat="42.69677" lon="1.40697">
        <ele>1936.612</ele>
        <time>2024-08-31T11:43:26Z</time>
      </trkpt>
      <trkpt lat="42.69677" lon="1.40697">
        <ele>1936.607</ele>
        <time>2024-08-31T11:43:28Z</time>
      </trkpt>
      <trkpt lat="42.69677" lon="1.40697">
        <ele>1936.599</ele>
        <time>2024-08-31T11:43:30Z</time>
      </trkpt>
      <trkpt lat="42.69677" lon="1.40697">
        <ele>1936.6</ele>
        <time>2024-08-31T11:43:32Z</time>
      </trkpt>
      <trkpt lat="42.69677" lon="1.40697">
        <ele>1936.609</ele>
        <time>2024-08-31T11:43:34Z</time>
      </trkpt>
      <trkpt lat="42.69677" lon="1.40697">
        <ele>1936.624</ele>
        <time>2024-08-31T11:43:36Z</time>
      </trkpt>
      <trkpt lat="42.69677" lon="1.40697">
        <ele>1936.632</ele>
        <time>2024-08-31T11:43:38Z</time>
      </trkpt>
      <trkpt lat="42.69677" lon="1.40697">
        <ele>1936.609</ele>
        <time>2024-08-31T11:43:40Z</time>
      </trkpt>
      <trkpt lat="42.69677" lon="1.40697">
        <ele>1936.587</ele>
        <time>2024-08-31T11:43:42Z</time>
      </trkpt>
      <trkpt lat="42.69677" lon="1.40697">
        <ele>1936.587</ele>
        <time>2024-08-31T11:43:44Z</time>
      </trkpt>
      <trkpt lat="42.69677" lon="1.40697">
        <ele>1936.593</ele>
        <time>2024-08-31T11:43:46Z</time>
      </trkpt>
      <trkpt lat="42.69677" lon="1.40697">
        <ele>1936.592</ele>
        <time>2024-08-31T11:43:48Z</time>
      </trkpt>
      <trkpt lat="42.69677" lon="1.40697">
        <ele>1936.591</ele>
        <time>2024-08-31T11:43:50Z</time>
      </trkpt>
      <trkpt lat="42.69677" lon="1.40697">
        <ele>1936.609</ele>
        <time>2024-08-31T11:43:52Z</time>
      </trkpt>
      <trkpt lat="42.69677" lon="1.40697">
        <ele>1936.611</ele>
        <time>2024-08-31T11:43:54Z</time>
      </trkpt>
      <trkpt lat="42.69677" lon="1.40697">
        <ele>1936.615</ele>
        <time>2024-08-31T11:43:56Z</time>
      </trkpt>
      <trkpt lat="42.69677" lon="1.40697">
        <ele>1936.629</ele>
        <time>2024-08-31T11:43:58Z</time>
      </trkpt>
      <trkpt lat="42.69677" lon="1.40697">
        <ele>1936.629</ele>
        <time>2024-08-31T11:44:00Z</time>
      </trkpt>
      <trkpt lat="42.69677" lon="1.40697">
        <ele>1936.621</ele>
        <time>2024-08-31T11:44:02Z</time>
      </trkpt>
      <trkpt lat="42.69677" lon="1.40697">
        <ele>1936.608</ele>
        <time>2024-08-31T11:44:04Z</time>
      </trkpt>
      <trkpt lat="42.69677" lon="1.40697">
        <ele>1936.61</ele>
        <time>2024-08-31T11:44:06Z</time>
      </trkpt>
      <trkpt lat="42.69677" lon="1.40697">
        <ele>1936.607</ele>
        <time>2024-08-31T11:44:08Z</time>
      </trkpt>
      <trkpt lat="42.69677" lon="1.40697">
        <ele>1935.955</ele>
        <time>2024-08-31T11:44:10Z</time>
      </trkpt>
      <trkpt lat="42.69677" lon="1.40697">
        <ele>1935.911</ele>
        <time>2024-08-31T11:44:12Z</time>
      </trkpt>
      <trkpt lat="42.69677" lon="1.40697">
        <ele>1936.01</ele>
        <time>2024-08-31T11:44:14Z</time>
      </trkpt>
      <trkpt lat="42.69677" lon="1.40697">
        <ele>1935.994</ele>
        <time>2024-08-31T11:44:16Z</time>
      </trkpt>
      <trkpt lat="42.69677" lon="1.40697">
        <ele>1935.992</ele>
        <time>2024-08-31T11:44:18Z</time>
      </trkpt>
      <trkpt lat="42.69677" lon="1.40697">
        <ele>1935.993</ele>
        <time>2024-08-31T11:44:20Z</time>
      </trkpt>
      <trkpt lat="42.69677" lon="1.40697">
        <ele>1936.007</ele>
        <time>2024-08-31T11:44:22Z</time>
      </trkpt>
      <trkpt lat="42.69677" lon="1.40697">
        <ele>1936.014</ele>
        <time>2024-08-31T11:44:24Z</time>
      </trkpt>
      <trkpt lat="42.69677" lon="1.40697">
        <ele>1936.01</ele>
        <time>2024-08-31T11:44:26Z</time>
      </trkpt>
      <trkpt lat="42.69677" lon="1.40697">
        <ele>1936.011</ele>
        <time>2024-08-31T11:44:28Z</time>
      </trkpt>
      <trkpt lat="42.69677" lon="1.40697">
        <ele>1936.021</ele>
        <time>2024-08-31T11:44:30Z</time>
      </trkpt>
      <trkpt lat="42.69677" lon="1.40697">
        <ele>1936.031</ele>
        <time>2024-08-31T11:44:32Z</time>
      </trkpt>
      <trkpt lat="42.69677" lon="1.40697">
        <ele>1936.028</ele>
        <time>2024-08-31T11:44:34Z</time>
      </trkpt>
      <trkpt lat="42.69677" lon="1.40697">
        <ele>1936.021</ele>
        <time>2024-08-31T11:44:36Z</time>
      </trkpt>
      <trkpt lat="42.69677" lon="1.40697">
        <ele>1936.015</ele>
        <time>2024-08-31T11:44:38Z</time>
      </trkpt>
      <trkpt lat="42.69677" lon="1.40697">
        <ele>1936.019</ele>
        <time>2024-08-31T11:44:40Z</time>
      </trkpt>
      <trkpt lat="42.69677" lon="1.40697">
        <ele>1936.022</ele>
        <time>2024-08-31T11:44:42Z</time>
      </trkpt>
      <trkpt lat="42.69677" lon="1.40697">
        <ele>1936.021</ele>
        <time>2024-08-31T11:44:44Z</time>
      </trkpt>
      <trkpt lat="42.69677" lon="1.40697">
        <ele>1936.02</ele>
        <time>2024-08-31T11:44:46Z</time>
      </trkpt>
      <trkpt lat="42.69677" lon="1.40697">
        <ele>1936.009</ele>
        <time>2024-08-31T11:44:48Z</time>
      </trkpt>
      <trkpt lat="42.69677" lon="1.40697">
        <ele>1936.005</ele>
        <time>2024-08-31T11:44:50Z</time>
      </trkpt>
      <trkpt lat="42.69677" lon="1.40697">
        <ele>1936.012</ele>
        <time>2024-08-31T11:44:52Z</time>
      </trkpt>
      <trkpt lat="42.69677" lon="1.40697">
        <ele>1936.018</ele>
        <time>2024-08-31T11:44:54Z</time>
      </trkpt>
      <trkpt lat="42.69677" lon="1.40697">
        <ele>1936.015</ele>
        <time>2024-08-31T11:44:56Z</time>
      </trkpt>
      <trkpt lat="42.69677" lon="1.40697">
        <ele>1936.036</ele>
        <time>2024-08-31T11:44:58Z</time>
      </trkpt>
      <trkpt lat="42.69677" lon="1.40697">
        <ele>1936.02</ele>
        <time>2024-08-31T11:45:00Z</time>
      </trkpt>
      <trkpt lat="42.69677" lon="1.40697">
        <ele>1936.021</ele>
        <time>2024-08-31T11:45:02Z</time>
      </trkpt>
      <trkpt lat="42.69677" lon="1.40697">
        <ele>1936.01</ele>
        <time>2024-08-31T11:45:04Z</time>
      </trkpt>
      <trkpt lat="42.69677" lon="1.40697">
        <ele>1936.007</ele>
        <time>2024-08-31T11:45:06Z</time>
      </trkpt>
      <trkpt lat="42.69677" lon="1.40697">
        <ele>1936.317</ele>
        <time>2024-08-31T11:45:08Z</time>
      </trkpt>
      <trkpt lat="42.69677" lon="1.40697">
        <ele>1936.317</ele>
        <time>2024-08-31T11:45:10Z</time>
      </trkpt>
      <trkpt lat="42.69677" lon="1.40697">
        <ele>1936.304</ele>
        <time>2024-08-31T11:45:12Z</time>
      </trkpt>
      <trkpt lat="42.69677" lon="1.40697">
        <ele>1936.29</ele>
        <time>2024-08-31T11:45:14Z</time>
      </trkpt>
      <trkpt lat="42.69677" lon="1.40697">
        <ele>1936.304</ele>
        <time>2024-08-31T11:45:16Z</time>
      </trkpt>
      <trkpt lat="42.69677" lon="1.40697">
        <ele>1936.314</ele>
        <time>2024-08-31T11:45:18Z</time>
      </trkpt>
      <trkpt lat="42.69677" lon="1.40697">
        <ele>1936.316</ele>
        <time>2024-08-31T11:45:20Z</time>
      </trkpt>
      <trkpt lat="42.69677" lon="1.40697">
        <ele>1936.324</ele>
        <time>2024-08-31T11:45:22Z</time>
      </trkpt>
      <trkpt lat="42.69677" lon="1.40697">
        <ele>1936.327</ele>
        <time>2024-08-31T11:45:24Z</time>
      </trkpt>
      <trkpt lat="42.69677" lon="1.40697">
        <ele>1936.327</ele>
        <time>2024-08-31T11:45:26Z</time>
      </trkpt>
      <trkpt lat="42.69677" lon="1.40697">
        <ele>1936.336</ele>
        <time>2024-08-31T11:45:28Z</time>
      </trkpt>
      <trkpt lat="42.69677" lon="1.40697">
        <ele>1936.34</ele>
        <time>2024-08-31T11:45:30Z</time>
      </trkpt>
      <trkpt lat="42.69677" lon="1.40697">
        <ele>1936.343</ele>
        <time>2024-08-31T11:45:32Z</time>
      </trkpt>
      <trkpt lat="42.69677" lon="1.40697">
        <ele>1936.349</ele>
        <time>2024-08-31T11:45:34Z</time>
      </trkpt>
      <trkpt lat="42.69677" lon="1.40697">
        <ele>1936.347</ele>
        <time>2024-08-31T11:45:36Z</time>
      </trkpt>
      <trkpt lat="42.69677" lon="1.40697">
        <ele>1936.353</ele>
        <time>2024-08-31T11:45:38Z</time>
      </trkpt>
      <trkpt lat="42.69677" lon="1.40697">
        <ele>1936.354</ele>
        <time>2024-08-31T11:45:40Z</time>
      </trkpt>
      <trkpt lat="42.69677" lon="1.40697">
        <ele>1936.349</ele>
        <time>2024-08-31T11:45:42Z</time>
      </trkpt>
      <trkpt lat="42.69677" lon="1.40697">
        <ele>1936.345</ele>
        <time>2024-08-31T11:45:44Z</time>
      </trkpt>
      <trkpt lat="42.69677" lon="1.40697">
        <ele>1936.338</ele>
        <time>2024-08-31T11:45:46Z</time>
      </trkpt>
      <trkpt lat="42.69677" lon="1.40697">
        <ele>1936.333</ele>
        <time>2024-08-31T11:45:48Z</time>
      </trkpt>
      <trkpt lat="42.69677" lon="1.40697">
        <ele>1936.338</ele>
        <time>2024-08-31T11:45:50Z</time>
      </trkpt>
      <trkpt lat="42.69677" lon="1.40697">
        <ele>1936.334</ele>
        <time>2024-08-31T11:45:52Z</time>
      </trkpt>
      <trkpt lat="42.69677" lon="1.40697">
        <ele>1936.342</ele>
        <time>2024-08-31T11:45:54Z</time>
      </trkpt>
      <trkpt lat="42.69677" lon="1.40697">
        <ele>1936.367</ele>
        <time>2024-08-31T11:45:56Z</time>
      </trkpt>
      <trkpt lat="42.69677" lon="1.40697">
        <ele>1936.576</ele>
        <time>2024-08-31T11:45:58Z</time>
      </trkpt>
      <trkpt lat="42.69677" lon="1.40697">
        <ele>1936.599</ele>
        <time>2024-08-31T11:46:00Z</time>
      </trkpt>
      <trkpt lat="42.69677" lon="1.40697">
        <ele>1936.53</ele>
        <time>2024-08-31T11:46:02Z</time>
      </trkpt>
      <trkpt lat="42.69677" lon="1.40697">
        <ele>1936.512</ele>
        <time>2024-08-31T11:46:04Z</time>
      </trkpt>
      <trkpt lat="42.69677" lon="1.40697">
        <ele>1936.48</ele>
        <time>2024-08-31T11:46:06Z</time>
      </trkpt>
      <trkpt lat="42.69677" lon="1.40697">
        <ele>1936.448</ele>
        <time>2024-08-31T11:46:08Z</time>
      </trkpt>
      <trkpt lat="42.69677" lon="1.40697">
        <ele>1936.708</ele>
        <time>2024-08-31T11:46:10Z</time>
      </trkpt>
      <trkpt lat="42.69677" lon="1.40697">
        <ele>1936.461</ele>
        <time>2024-08-31T11:46:12Z</time>
      </trkpt>
      <trkpt lat="42.69677" lon="1.40697">
        <ele>1936.425</ele>
        <time>2024-08-31T11:46:14Z</time>
      </trkpt>
      <trkpt lat="42.69677" lon="1.40697">
        <ele>1936.416</ele>
        <time>2024-08-31T11:46:16Z</time>
      </trkpt>
      <trkpt lat="42.69677" lon="1.40697">
        <ele>1936.412</ele>
        <time>2024-08-31T11:46:18Z</time>
      </trkpt>
      <trkpt lat="42.69677" lon="1.40697">
        <ele>1936.41</ele>
        <time>2024-08-31T11:46:20Z</time>
      </trkpt>
      <trkpt lat="42.69673" lon="1.40702">
        <ele>1936.403</ele>
        <time>2024-08-31T11:46:22Z</time>
      </trkpt>
      <trkpt lat="42.69673" lon="1.40702">
        <ele>1936.405</ele>
        <time>2024-08-31T11:46:24Z</time>
      </trkpt>
      <trkpt lat="42.69673" lon="1.40702">
        <ele>1936.405</ele>
        <time>2024-08-31T11:46:26Z</time>
      </trkpt>
      <trkpt lat="42.69673" lon="1.40702">
        <ele>1936.414</ele>
        <time>2024-08-31T11:46:28Z</time>
      </trkpt>
      <trkpt lat="42.69674" lon="1.40702">
        <ele>1936.78</ele>
        <time>2024-08-31T11:46:30Z</time>
      </trkpt>
      <trkpt lat="42.69674" lon="1.40704">
        <ele>1937.281</ele>
        <time>2024-08-31T11:46:32Z</time>
      </trkpt>
      <trkpt lat="42.69675" lon="1.40706">
        <ele>1937.553</ele>
        <time>2024-08-31T11:46:34Z</time>
      </trkpt>
      <trkpt lat="42.69676" lon="1.40708">
        <ele>1937.761</ele>
        <time>2024-08-31T11:46:36Z</time>
      </trkpt>
      <trkpt lat="42.69678" lon="1.4071">
        <ele>1938.022</ele>
        <time>2024-08-31T11:46:38Z</time>
      </trkpt>
      <trkpt lat="42.69679" lon="1.40711">
        <ele>1938.638</ele>
        <time>2024-08-31T11:46:40Z</time>
      </trkpt>
      <trkpt lat="42.6968" lon="1.40709">
        <ele>1939.615</ele>
        <time>2024-08-31T11:46:42Z</time>
      </trkpt>
      <trkpt lat="42.6968" lon="1.40707">
        <ele>1939.343</ele>
        <time>2024-08-31T11:46:44Z</time>
      </trkpt>
      <trkpt lat="42.69679" lon="1.40705">
        <ele>1939.462</ele>
        <time>2024-08-31T11:46:46Z</time>
      </trkpt>
      <trkpt lat="42.69679" lon="1.40703">
        <ele>1939.553</ele>
        <time>2024-08-31T11:46:48Z</time>
      </trkpt>
      <trkpt lat="42.69679" lon="1.40701">
        <ele>1940.067</ele>
        <time>2024-08-31T11:46:50Z</time>
      </trkpt>
      <trkpt lat="42.69681" lon="1.40701">
        <ele>1940.15</ele>
        <time>2024-08-31T11:46:52Z</time>
      </trkpt>
      <trkpt lat="42.69682" lon="1.40701">
        <ele>1940.075</ele>
        <time>2024-08-31T11:46:54Z</time>
      </trkpt>
      <trkpt lat="42.69682" lon="1.40703">
        <ele>1940.004</ele>
        <time>2024-08-31T11:46:56Z</time>
      </trkpt>
      <trkpt lat="42.69683" lon="1.40705">
        <ele>1940.144</ele>
        <time>2024-08-31T11:46:58Z</time>
      </trkpt>
      <trkpt lat="42.69684" lon="1.40707">
        <ele>1939.927</ele>
        <time>2024-08-31T11:47:00Z</time>
      </trkpt>
      <trkpt lat="42.69685" lon="1.40708">
        <ele>1940.407</ele>
        <time>2024-08-31T11:47:02Z</time>
      </trkpt>
      <trkpt lat="42.69685" lon="1.40711">
        <ele>1941.073</ele>
        <time>2024-08-31T11:47:04Z</time>
      </trkpt>
      <trkpt lat="42.69686" lon="1.40713">
        <ele>1941.063</ele>
        <time>2024-08-31T11:47:06Z</time>
      </trkpt>
      <trkpt lat="42.69687" lon="1.40716">
        <ele>1941.138</ele>
        <time>2024-08-31T11:47:08Z</time>
      </trkpt>
      <trkpt lat="42.69687" lon="1.40718">
        <ele>1940.404</ele>
        <time>2024-08-31T11:47:10Z</time>
      </trkpt>
      <trkpt lat="42.69688" lon="1.40721">
        <ele>1940.761</ele>
        <time>2024-08-31T11:47:12Z</time>
      </trkpt>
      <trkpt lat="42.69689" lon="1.40724">
        <ele>1940.109</ele>
        <time>2024-08-31T11:47:14Z</time>
      </trkpt>
      <trkpt lat="42.6969" lon="1.40727">
        <ele>1940.631</ele>
        <time>2024-08-31T11:47:16Z</time>
      </trkpt>
      <trkpt lat="42.6969" lon="1.40728">
        <ele>1940.618</ele>
        <time>2024-08-31T11:47:18Z</time>
      </trkpt>
      <trkpt lat="42.6969" lon="1.4073">
        <ele>1940.651</ele>
        <time>2024-08-31T11:47:20Z</time>
      </trkpt>
      <trkpt lat="42.6969" lon="1.40732">
        <ele>1941.714</ele>
        <time>2024-08-31T11:47:22Z</time>
      </trkpt>
      <trkpt lat="42.6969" lon="1.40733">
        <ele>1941.471</ele>
        <time>2024-08-31T11:47:24Z</time>
      </trkpt>
      <trkpt lat="42.6969" lon="1.40735">
        <ele>1941.278</ele>
        <time>2024-08-31T11:47:26Z</time>
      </trkpt>
      <trkpt lat="42.6969" lon="1.40737">
        <ele>1940.76</ele>
        <time>2024-08-31T11:47:28Z</time>
      </trkpt>
      <trkpt lat="42.6969" lon="1.40738">
        <ele>1938.725</ele>
        <time>2024-08-31T11:47:30Z</time>
      </trkpt>
      <trkpt lat="42.69689" lon="1.40741">
        <ele>1938.601</ele>
        <time>2024-08-31T11:47:32Z</time>
      </trkpt>
      <trkpt lat="42.69689" lon="1.40744">
        <ele>1937.927</ele>
        <time>2024-08-31T11:47:34Z</time>
      </trkpt>
      <trkpt lat="42.69689" lon="1.40747">
        <ele>1937.481</ele>
        <time>2024-08-31T11:47:36Z</time>
      </trkpt>
      <trkpt lat="42.69689" lon="1.40751">
        <ele>1937.144</ele>
        <time>2024-08-31T11:47:38Z</time>
      </trkpt>
      <trkpt lat="42.69689" lon="1.40754">
        <ele>1937.261</ele>
        <time>2024-08-31T11:47:40Z</time>
      </trkpt>
      <trkpt lat="42.69689" lon="1.40756">
        <ele>1937.233</ele>
        <time>2024-08-31T11:47:42Z</time>
      </trkpt>
      <trkpt lat="42.6969" lon="1.40758">
        <ele>1936.919</ele>
        <time>2024-08-31T11:47:44Z</time>
      </trkpt>
      <trkpt lat="42.69691" lon="1.40761">
        <ele>1937.168</ele>
        <time>2024-08-31T11:47:46Z</time>
      </trkpt>
      <trkpt lat="42.69692" lon="1.40763">
        <ele>1937.178</ele>
        <time>2024-08-31T11:47:48Z</time>
      </trkpt>
      <trkpt lat="42.69693" lon="1.40765">
        <ele>1936.778</ele>
        <time>2024-08-31T11:47:50Z</time>
      </trkpt>
      <trkpt lat="42.69694" lon="1.40768">
        <ele>1936.713</ele>
        <time>2024-08-31T11:47:52Z</time>
      </trkpt>
      <trkpt lat="42.69695" lon="1.4077">
        <ele>1936.555</ele>
        <time>2024-08-31T11:47:54Z</time>
      </trkpt>
      <trkpt lat="42.69695" lon="1.40773">
        <ele>1936.148</ele>
        <time>2024-08-31T11:47:56Z</time>
      </trkpt>
      <trkpt lat="42.69697" lon="1.40776">
        <ele>1935.985</ele>
        <time>2024-08-31T11:47:58Z</time>
      </trkpt>
      <trkpt lat="42.69698" lon="1.40779">
        <ele>1936.039</ele>
        <time>2024-08-31T11:48:00Z</time>
      </trkpt>
      <trkpt lat="42.69699" lon="1.40782">
        <ele>1935.95</ele>
        <time>2024-08-31T11:48:02Z</time>
      </trkpt>
      <trkpt lat="42.697" lon="1.40784">
        <ele>1935.782</ele>
        <time>2024-08-31T11:48:04Z</time>
      </trkpt>
      <trkpt lat="42.69702" lon="1.40786">
        <ele>1935.851</ele>
        <time>2024-08-31T11:48:06Z</time>
      </trkpt>
      <trkpt lat="42.69704" lon="1.40788">
        <ele>1935.487</ele>
        <time>2024-08-31T11:48:08Z</time>
      </trkpt>
      <trkpt lat="42.69705" lon="1.4079">
        <ele>1935.195</ele>
        <time>2024-08-31T11:48:10Z</time>
      </trkpt>
      <trkpt lat="42.69707" lon="1.40792">
        <ele>1934.777</ele>
        <time>2024-08-31T11:48:12Z</time>
      </trkpt>
      <trkpt lat="42.69708" lon="1.40794">
        <ele>1934.467</ele>
        <time>2024-08-31T11:48:14Z</time>
      </trkpt>
      <trkpt lat="42.6971" lon="1.40795">
        <ele>1934.339</ele>
        <time>2024-08-31T11:48:16Z</time>
      </trkpt>
      <trkpt lat="42.69712" lon="1.40797">
        <ele>1934.516</ele>
        <time>2024-08-31T11:48:18Z</time>
      </trkpt>
      <trkpt lat="42.69713" lon="1.40799">
        <ele>1934.144</ele>
        <time>2024-08-31T11:48:20Z</time>
      </trkpt>
      <trkpt lat="42.69715" lon="1.408">
        <ele>1933.202</ele>
        <time>2024-08-31T11:48:22Z</time>
      </trkpt>
      <trkpt lat="42.69718" lon="1.40801">
        <ele>1932.11</ele>
        <time>2024-08-31T11:48:24Z</time>
      </trkpt>
      <trkpt lat="42.6972" lon="1.408">
        <ele>1931.515</ele>
        <time>2024-08-31T11:48:26Z</time>
      </trkpt>
      <trkpt lat="42.69722" lon="1.40799">
        <ele>1930.094</ele>
        <time>2024-08-31T11:48:28Z</time>
      </trkpt>
      <trkpt lat="42.69725" lon="1.40798">
        <ele>1928.816</ele>
        <time>2024-08-31T11:48:30Z</time>
      </trkpt>
      <trkpt lat="42.69727" lon="1.40798">
        <ele>1928.469</ele>
        <time>2024-08-31T11:48:32Z</time>
      </trkpt>
      <trkpt lat="42.69729" lon="1.40799">
        <ele>1927.707</ele>
        <time>2024-08-31T11:48:34Z</time>
      </trkpt>
      <trkpt lat="42.69731" lon="1.40799">
        <ele>1927.61</ele>
        <time>2024-08-31T11:48:36Z</time>
      </trkpt>
      <trkpt lat="42.69734" lon="1.40799">
        <ele>1927.637</ele>
        <time>2024-08-31T11:48:38Z</time>
      </trkpt>
      <trkpt lat="42.69735" lon="1.408">
        <ele>1928.568</ele>
        <time>2024-08-31T11:48:40Z</time>
      </trkpt>
      <trkpt lat="42.69737" lon="1.408">
        <ele>1929.01</ele>
        <time>2024-08-31T11:48:42Z</time>
      </trkpt>
      <trkpt lat="42.69739" lon="1.40802">
        <ele>1928.997</ele>
        <time>2024-08-31T11:48:44Z</time>
      </trkpt>
      <trkpt lat="42.6974" lon="1.40804">
        <ele>1929.325</ele>
        <time>2024-08-31T11:48:46Z</time>
      </trkpt>
      <trkpt lat="42.6974" lon="1.40804">
        <ele>1928.597</ele>
        <time>2024-08-31T11:48:48Z</time>
      </trkpt>
      <trkpt lat="42.6974" lon="1.40804">
        <ele>1928.931</ele>
        <time>2024-08-31T11:48:50Z</time>
      </trkpt>
      <trkpt lat="42.6974" lon="1.40804">
        <ele>1928.94</ele>
        <time>2024-08-31T11:48:52Z</time>
      </trkpt>
      <trkpt lat="42.6974" lon="1.40804">
        <ele>1928.931</ele>
        <time>2024-08-31T11:48:54Z</time>
      </trkpt>
      <trkpt lat="42.6974" lon="1.40804">
        <ele>1928.939</ele>
        <time>2024-08-31T11:48:56Z</time>
      </trkpt>
      <trkpt lat="42.6974" lon="1.40804">
        <ele>1928.372</ele>
        <time>2024-08-31T11:48:58Z</time>
      </trkpt>
      <trkpt lat="42.6974" lon="1.40804">
        <ele>1928.054</ele>
        <time>2024-08-31T11:49:00Z</time>
      </trkpt>
      <trkpt lat="42.6974" lon="1.40804">
        <ele>1927.847</ele>
        <time>2024-08-31T11:49:02Z</time>
      </trkpt>
      <trkpt lat="42.69742" lon="1.40802">
        <ele>1927.348</ele>
        <time>2024-08-31T11:49:04Z</time>
      </trkpt>
      <trkpt lat="42.69744" lon="1.40803">
        <ele>1927.49</ele>
        <time>2024-08-31T11:49:06Z</time>
      </trkpt>
      <trkpt lat="42.69746" lon="1.40805">
        <ele>1926.505</ele>
        <time>2024-08-31T11:49:08Z</time>
      </trkpt>
      <trkpt lat="42.69747" lon="1.40805">
        <ele>1927.392</ele>
        <time>2024-08-31T11:49:10Z</time>
      </trkpt>
      <trkpt lat="42.69748" lon="1.40805">
        <ele>1927.822</ele>
        <time>2024-08-31T11:49:12Z</time>
      </trkpt>
      <trkpt lat="42.6975" lon="1.40805">
        <ele>1927.551</ele>
        <time>2024-08-31T11:49:14Z</time>
      </trkpt>
      <trkpt lat="42.69753" lon="1.40807">
        <ele>1926.902</ele>
        <time>2024-08-31T11:49:16Z</time>
      </trkpt>
      <trkpt lat="42.69755" lon="1.40809">
        <ele>1927.151</ele>
        <time>2024-08-31T11:49:18Z</time>
      </trkpt>
      <trkpt lat="42.69757" lon="1.40808">
        <ele>1927.35</ele>
        <time>2024-08-31T11:49:20Z</time>
      </trkpt>
      <trkpt lat="42.69759" lon="1.40807">
        <ele>1928.082</ele>
        <time>2024-08-31T11:49:22Z</time>
      </trkpt>
      <trkpt lat="42.6976" lon="1.40808">
        <ele>1926.634</ele>
        <time>2024-08-31T11:49:24Z</time>
      </trkpt>
      <trkpt lat="42.69761" lon="1.40809">
        <ele>1925.49</ele>
        <time>2024-08-31T11:49:26Z</time>
      </trkpt>
      <trkpt lat="42.69762" lon="1.40808">
        <ele>1924.752</ele>
        <time>2024-08-31T11:49:28Z</time>
      </trkpt>
      <trkpt lat="42.69764" lon="1.40809">
        <ele>1923.807</ele>
        <time>2024-08-31T11:49:30Z</time>
      </trkpt>
      <trkpt lat="42.69765" lon="1.40809">
        <ele>1922.778</ele>
        <time>2024-08-31T11:49:32Z</time>
      </trkpt>
      <trkpt lat="42.69767" lon="1.4081">
        <ele>1923.127</ele>
        <time>2024-08-31T11:49:34Z</time>
      </trkpt>
      <trkpt lat="42.6977" lon="1.40811">
        <ele>1922.702</ele>
        <time>2024-08-31T11:49:36Z</time>
      </trkpt>
      <trkpt lat="42.69772" lon="1.40811">
        <ele>1921.591</ele>
        <time>2024-08-31T11:49:38Z</time>
      </trkpt>
      <trkpt lat="42.69775" lon="1.40811">
        <ele>1919.605</ele>
        <time>2024-08-31T11:49:40Z</time>
      </trkpt>
      <trkpt lat="42.69776" lon="1.4081">
        <ele>1918.6</ele>
        <time>2024-08-31T11:49:42Z</time>
      </trkpt>
      <trkpt lat="42.69777" lon="1.40811">
        <ele>1917.941</ele>
        <time>2024-08-31T11:49:44Z</time>
      </trkpt>
      <trkpt lat="42.69779" lon="1.40812">
        <ele>1917.054</ele>
        <time>2024-08-31T11:49:46Z</time>
      </trkpt>
      <trkpt lat="42.69781" lon="1.40811">
        <ele>1915.322</ele>
        <time>2024-08-31T11:49:48Z</time>
      </trkpt>
      <trkpt lat="42.69783" lon="1.4081">
        <ele>1913.303</ele>
        <time>2024-08-31T11:49:50Z</time>
      </trkpt>
      <trkpt lat="42.69786" lon="1.40808">
        <ele>1912.603</ele>
        <time>2024-08-31T11:49:52Z</time>
      </trkpt>
      <trkpt lat="42.69787" lon="1.40806">
        <ele>1911.718</ele>
        <time>2024-08-31T11:49:54Z</time>
      </trkpt>
      <trkpt lat="42.69789" lon="1.40805">
        <ele>1911.405</ele>
        <time>2024-08-31T11:49:56Z</time>
      </trkpt>
      <trkpt lat="42.69791" lon="1.40805">
        <ele>1911.038</ele>
        <time>2024-08-31T11:49:58Z</time>
      </trkpt>
      <trkpt lat="42.69793" lon="1.40804">
        <ele>1909.474</ele>
        <time>2024-08-31T11:50:00Z</time>
      </trkpt>
      <trkpt lat="42.69795" lon="1.40802">
        <ele>1908.148</ele>
        <time>2024-08-31T11:50:02Z</time>
      </trkpt>
      <trkpt lat="42.69798" lon="1.40801">
        <ele>1905.845</ele>
        <time>2024-08-31T11:50:04Z</time>
      </trkpt>
      <trkpt lat="42.698" lon="1.40801">
        <ele>1905.843</ele>
        <time>2024-08-31T11:50:06Z</time>
      </trkpt>
      <trkpt lat="42.69802" lon="1.408">
        <ele>1903.66</ele>
        <time>2024-08-31T11:50:08Z</time>
      </trkpt>
      <trkpt lat="42.69804" lon="1.40799">
        <ele>1902.566</ele>
        <time>2024-08-31T11:50:10Z</time>
      </trkpt>
      <trkpt lat="42.69807" lon="1.40797">
        <ele>1900.077</ele>
        <time>2024-08-31T11:50:12Z</time>
      </trkpt>
      <trkpt lat="42.6981" lon="1.40796">
        <ele>1898.483</ele>
        <time>2024-08-31T11:50:14Z</time>
      </trkpt>
      <trkpt lat="42.69813" lon="1.40794">
        <ele>1896.611</ele>
        <time>2024-08-31T11:50:16Z</time>
      </trkpt>
      <trkpt lat="42.69815" lon="1.40792">
        <ele>1895.731</ele>
        <time>2024-08-31T11:50:18Z</time>
      </trkpt>
      <trkpt lat="42.69816" lon="1.40789">
        <ele>1899.738</ele>
        <time>2024-08-31T11:50:20Z</time>
      </trkpt>
      <trkpt lat="42.69817" lon="1.40789">
        <ele>1899.343</ele>
        <time>2024-08-31T11:50:22Z</time>
      </trkpt>
      <trkpt lat="42.6982" lon="1.4079">
        <ele>1897.531</ele>
        <time>2024-08-31T11:50:24Z</time>
      </trkpt>
      <trkpt lat="42.69822" lon="1.40789">
        <ele>1899.134</ele>
        <time>2024-08-31T11:50:26Z</time>
      </trkpt>
      <trkpt lat="42.69823" lon="1.40788">
        <ele>1899.682</ele>
        <time>2024-08-31T11:50:28Z</time>
      </trkpt>
      <trkpt lat="42.69824" lon="1.40787">
        <ele>1901.662</ele>
        <time>2024-08-31T11:50:30Z</time>
      </trkpt>
      <trkpt lat="42.69823" lon="1.40783">
        <ele>1903.684</ele>
        <time>2024-08-31T11:50:32Z</time>
      </trkpt>
      <trkpt lat="42.69824" lon="1.40782">
        <ele>1903.012</ele>
        <time>2024-08-31T11:50:34Z</time>
      </trkpt>
      <trkpt lat="42.69824" lon="1.40779">
        <ele>1902.078</ele>
        <time>2024-08-31T11:50:36Z</time>
      </trkpt>
      <trkpt lat="42.69824" lon="1.40776">
        <ele>1901.651</ele>
        <time>2024-08-31T11:50:38Z</time>
      </trkpt>
      <trkpt lat="42.69824" lon="1.40776">
        <ele>1899.952</ele>
        <time>2024-08-31T11:50:40Z</time>
      </trkpt>
      <trkpt lat="42.69824" lon="1.40776">
        <ele>1899.465</ele>
        <time>2024-08-31T11:50:42Z</time>
      </trkpt>
      <trkpt lat="42.69824" lon="1.40776">
        <ele>1899.147</ele>
        <time>2024-08-31T11:50:44Z</time>
      </trkpt>
      <trkpt lat="42.69824" lon="1.40776">
        <ele>1901.136</ele>
        <time>2024-08-31T11:50:46Z</time>
      </trkpt>
      <trkpt lat="42.69832" lon="1.40773">
        <ele>1901.224</ele>
        <time>2024-08-31T11:50:48Z</time>
      </trkpt>
      <trkpt lat="42.69834" lon="1.40772">
        <ele>1899.45</ele>
        <time>2024-08-31T11:50:50Z</time>
      </trkpt>
      <trkpt lat="42.69835" lon="1.40773">
        <ele>1896.028</ele>
        <time>2024-08-31T11:50:52Z</time>
      </trkpt>
      <trkpt lat="42.69837" lon="1.40774">
        <ele>1894.4</ele>
        <time>2024-08-31T11:50:54Z</time>
      </trkpt>
      <trkpt lat="42.69838" lon="1.40774">
        <ele>1893.312</ele>
        <time>2024-08-31T11:50:56Z</time>
      </trkpt>
      <trkpt lat="42.6984" lon="1.40773">
        <ele>1890.481</ele>
        <time>2024-08-31T11:50:58Z</time>
      </trkpt>
      <trkpt lat="42.6984" lon="1.40773">
        <ele>1893.191</ele>
        <time>2024-08-31T11:51:00Z</time>
      </trkpt>
      <trkpt lat="42.69841" lon="1.40772">
        <ele>1893.846</ele>
        <time>2024-08-31T11:51:02Z</time>
      </trkpt>
      <trkpt lat="42.69842" lon="1.40771">
        <ele>1893.62</ele>
        <time>2024-08-31T11:51:04Z</time>
      </trkpt>
      <trkpt lat="42.69842" lon="1.40771">
        <ele>1891.292</ele>
        <time>2024-08-31T11:51:06Z</time>
      </trkpt>
      <trkpt lat="42.69842" lon="1.40772">
        <ele>1890.229</ele>
        <time>2024-08-31T11:51:08Z</time>
      </trkpt>
      <trkpt lat="42.69843" lon="1.40772">
        <ele>1888.529</ele>
        <time>2024-08-31T11:51:10Z</time>
      </trkpt>
      <trkpt lat="42.69843" lon="1.40772">
        <ele>1886.832</ele>
        <time>2024-08-31T11:51:12Z</time>
      </trkpt>
      <trkpt lat="42.69845" lon="1.40773">
        <ele>1885.586</ele>
        <time>2024-08-31T11:51:14Z</time>
      </trkpt>
      <trkpt lat="42.69846" lon="1.40772">
        <ele>1884.967</ele>
        <time>2024-08-31T11:51:16Z</time>
      </trkpt>
      <trkpt lat="42.69847" lon="1.40772">
        <ele>1882.71</ele>
        <time>2024-08-31T11:51:18Z</time>
      </trkpt>
      <trkpt lat="42.69848" lon="1.40771">
        <ele>1882.482</ele>
        <time>2024-08-31T11:51:20Z</time>
      </trkpt>
      <trkpt lat="42.6985" lon="1.40771">
        <ele>1881.428</ele>
        <time>2024-08-31T11:51:22Z</time>
      </trkpt>
      <trkpt lat="42.69851" lon="1.40772">
        <ele>1880.258</ele>
        <time>2024-08-31T11:51:24Z</time>
      </trkpt>
      <trkpt lat="42.69853" lon="1.40772">
        <ele>1877.083</ele>
        <time>2024-08-31T11:51:26Z</time>
      </trkpt>
      <trkpt lat="42.69855" lon="1.40772">
        <ele>1876.193</ele>
        <time>2024-08-31T11:51:28Z</time>
      </trkpt>
      <trkpt lat="42.69856" lon="1.40771">
        <ele>1877.237</ele>
        <time>2024-08-31T11:51:30Z</time>
      </trkpt>
      <trkpt lat="42.69857" lon="1.4077">
        <ele>1876.884</ele>
        <time>2024-08-31T11:51:32Z</time>
      </trkpt>
      <trkpt lat="42.69858" lon="1.4077">
        <ele>1875.67</ele>
        <time>2024-08-31T11:51:34Z</time>
      </trkpt>
      <trkpt lat="42.69858" lon="1.40768">
        <ele>1877.8</ele>
        <time>2024-08-31T11:51:36Z</time>
      </trkpt>
      <trkpt lat="42.69856" lon="1.40766">
        <ele>1878.198</ele>
        <time>2024-08-31T11:51:38Z</time>
      </trkpt>
      <trkpt lat="42.69855" lon="1.40765">
        <ele>1877.874</ele>
        <time>2024-08-31T11:51:40Z</time>
      </trkpt>
      <trkpt lat="42.69856" lon="1.40765">
        <ele>1876.646</ele>
        <time>2024-08-31T11:51:42Z</time>
      </trkpt>
      <trkpt lat="42.69858" lon="1.40764">
        <ele>1875.421</ele>
        <time>2024-08-31T11:51:44Z</time>
      </trkpt>
      <trkpt lat="42.6986" lon="1.40764">
        <ele>1874.2</ele>
        <time>2024-08-31T11:51:46Z</time>
      </trkpt>
      <trkpt lat="42.69862" lon="1.40764">
        <ele>1873.657</ele>
        <time>2024-08-31T11:51:48Z</time>
      </trkpt>
      <trkpt lat="42.69863" lon="1.40763">
        <ele>1872.033</ele>
        <time>2024-08-31T11:51:50Z</time>
      </trkpt>
      <trkpt lat="42.69865" lon="1.40763">
        <ele>1871.6</ele>
        <time>2024-08-31T11:51:52Z</time>
      </trkpt>
      <trkpt lat="42.69867" lon="1.40764">
        <ele>1870.642</ele>
        <time>2024-08-31T11:51:54Z</time>
      </trkpt>
      <trkpt lat="42.69869" lon="1.40764">
        <ele>1869.242</ele>
        <time>2024-08-31T11:51:56Z</time>
      </trkpt>
      <trkpt lat="42.6987" lon="1.40762">
        <ele>1869.714</ele>
        <time>2024-08-31T11:51:58Z</time>
      </trkpt>
      <trkpt lat="42.69871" lon="1.40762">
        <ele>1868.673</ele>
        <time>2024-08-31T11:52:00Z</time>
      </trkpt>
      <trkpt lat="42.69873" lon="1.40762">
        <ele>1867.446</ele>
        <time>2024-08-31T11:52:02Z</time>
      </trkpt>
      <trkpt lat="42.69875" lon="1.40762">
        <ele>1866.451</ele>
        <time>2024-08-31T11:52:04Z</time>
      </trkpt>
      <trkpt lat="42.69876" lon="1.40762">
        <ele>1865.906</ele>
        <time>2024-08-31T11:52:06Z</time>
      </trkpt>
      <trkpt lat="42.69878" lon="1.40762">
        <ele>1863.985</ele>
        <time>2024-08-31T11:52:08Z</time>
      </trkpt>
      <trkpt lat="42.6988" lon="1.40761">
        <ele>1862.126</ele>
        <time>2024-08-31T11:52:10Z</time>
      </trkpt>
      <trkpt lat="42.69881" lon="1.40761">
        <ele>1861.648</ele>
        <time>2024-08-31T11:52:12Z</time>
      </trkpt>
      <trkpt lat="42.69883" lon="1.40762">
        <ele>1859.464</ele>
        <time>2024-08-31T11:52:14Z</time>
      </trkpt>
      <trkpt lat="42.69885" lon="1.40763">
        <ele>1858.336</ele>
        <time>2024-08-31T11:52:16Z</time>
      </trkpt>
      <trkpt lat="42.69887" lon="1.40764">
        <ele>1856.99</ele>
        <time>2024-08-31T11:52:18Z</time>
      </trkpt>
      <trkpt lat="42.69889" lon="1.40764">
        <ele>1855.487</ele>
        <time>2024-08-31T11:52:20Z</time>
      </trkpt>
      <trkpt lat="42.6989" lon="1.40764">
        <ele>1854.802</ele>
        <time>2024-08-31T11:52:22Z</time>
      </trkpt>
      <trkpt lat="42.69891" lon="1.40764">
        <ele>1856.855</ele>
        <time>2024-08-31T11:52:24Z</time>
      </trkpt>
      <trkpt lat="42.69892" lon="1.40763">
        <ele>1858.532</ele>
        <time>2024-08-31T11:52:26Z</time>
      </trkpt>
      <trkpt lat="42.69893" lon="1.40762">
        <ele>1856.502</ele>
        <time>2024-08-31T11:52:28Z</time>
      </trkpt>
      <trkpt lat="42.69894" lon="1.40764">
        <ele>1854.84</ele>
        <time>2024-08-31T11:52:30Z</time>
      </trkpt>
      <trkpt lat="42.69894" lon="1.40767">
        <ele>1854.167</ele>
        <time>2024-08-31T11:52:32Z</time>
      </trkpt>
      <trkpt lat="42.69895" lon="1.40768">
        <ele>1853.32</ele>
        <time>2024-08-31T11:52:34Z</time>
      </trkpt>
      <trkpt lat="42.69896" lon="1.40768">
        <ele>1852.622</ele>
        <time>2024-08-31T11:52:36Z</time>
      </trkpt>
      <trkpt lat="42.69897" lon="1.40768">
        <ele>1851.829</ele>
        <time>2024-08-31T11:52:38Z</time>
      </trkpt>
      <trkpt lat="42.69897" lon="1.40769">
        <ele>1852.634</ele>
        <time>2024-08-31T11:52:40Z</time>
      </trkpt>
      <trkpt lat="42.69898" lon="1.40768">
        <ele>1853.499</ele>
        <time>2024-08-31T11:52:42Z</time>
      </trkpt>
      <trkpt lat="42.69898" lon="1.40767">
        <ele>1854.086</ele>
        <time>2024-08-31T11:52:44Z</time>
      </trkpt>
      <trkpt lat="42.69898" lon="1.40765">
        <ele>1854.905</ele>
        <time>2024-08-31T11:52:46Z</time>
      </trkpt>
      <trkpt lat="42.69898" lon="1.40763">
        <ele>1854.928</ele>
        <time>2024-08-31T11:52:48Z</time>
      </trkpt>
      <trkpt lat="42.69899" lon="1.40762">
        <ele>1855.044</ele>
        <time>2024-08-31T11:52:50Z</time>
      </trkpt>
      <trkpt lat="42.699" lon="1.40761">
        <ele>1852.344</ele>
        <time>2024-08-31T11:52:52Z</time>
      </trkpt>
      <trkpt lat="42.69902" lon="1.40762">
        <ele>1851.059</ele>
        <time>2024-08-31T11:52:54Z</time>
      </trkpt>
      <trkpt lat="42.69903" lon="1.40764">
        <ele>1851.164</ele>
        <time>2024-08-31T11:52:56Z</time>
      </trkpt>
      <trkpt lat="42.69905" lon="1.40765">
        <ele>1850.418</ele>
        <time>2024-08-31T11:52:58Z</time>
      </trkpt>
      <trkpt lat="42.69906" lon="1.40765">
        <ele>1851.487</ele>
        <time>2024-08-31T11:53:00Z</time>
      </trkpt>
      <trkpt lat="42.69906" lon="1.40764">
        <ele>1853.492</ele>
        <time>2024-08-31T11:53:02Z</time>
      </trkpt>
      <trkpt lat="42.69907" lon="1.40764">
        <ele>1855.194</ele>
        <time>2024-08-31T11:53:04Z</time>
      </trkpt>
      <trkpt lat="42.69907" lon="1.40763">
        <ele>1853.022</ele>
        <time>2024-08-31T11:53:06Z</time>
      </trkpt>
      <trkpt lat="42.69908" lon="1.40765">
        <ele>1852.611</ele>
        <time>2024-08-31T11:53:08Z</time>
      </trkpt>
      <trkpt lat="42.69909" lon="1.40764">
        <ele>1854.201</ele>
        <time>2024-08-31T11:53:10Z</time>
      </trkpt>
      <trkpt lat="42.69908" lon="1.40762">
        <ele>1854.751</ele>
        <time>2024-08-31T11:53:12Z</time>
      </trkpt>
      <trkpt lat="42.69908" lon="1.40761">
        <ele>1853.868</ele>
        <time>2024-08-31T11:53:14Z</time>
      </trkpt>
      <trkpt lat="42.69908" lon="1.4076">
        <ele>1853.557</ele>
        <time>2024-08-31T11:53:16Z</time>
      </trkpt>
      <trkpt lat="42.69909" lon="1.4076">
        <ele>1853.959</ele>
        <time>2024-08-31T11:53:18Z</time>
      </trkpt>
      <trkpt lat="42.69909" lon="1.40759">
        <ele>1854.427</ele>
        <time>2024-08-31T11:53:20Z</time>
      </trkpt>
      <trkpt lat="42.69909" lon="1.40758">
        <ele>1853.756</ele>
        <time>2024-08-31T11:53:22Z</time>
      </trkpt>
      <trkpt lat="42.69911" lon="1.40757">
        <ele>1852.978</ele>
        <time>2024-08-31T11:53:24Z</time>
      </trkpt>
      <trkpt lat="42.69912" lon="1.40756">
        <ele>1851.595</ele>
        <time>2024-08-31T11:53:26Z</time>
      </trkpt>
      <trkpt lat="42.69914" lon="1.40757">
        <ele>1850.411</ele>
        <time>2024-08-31T11:53:28Z</time>
      </trkpt>
      <trkpt lat="42.69915" lon="1.40756">
        <ele>1849.955</ele>
        <time>2024-08-31T11:53:30Z</time>
      </trkpt>
      <trkpt lat="42.69916" lon="1.40754">
        <ele>1850.248</ele>
        <time>2024-08-31T11:53:32Z</time>
      </trkpt>
      <trkpt lat="42.69917" lon="1.40753">
        <ele>1849.519</ele>
        <time>2024-08-31T11:53:34Z</time>
      </trkpt>
      <trkpt lat="42.69917" lon="1.40752">
        <ele>1849.625</ele>
        <time>2024-08-31T11:53:36Z</time>
      </trkpt>
      <trkpt lat="42.69918" lon="1.40751">
        <ele>1849.252</ele>
        <time>2024-08-31T11:53:38Z</time>
      </trkpt>
      <trkpt lat="42.69919" lon="1.40749">
        <ele>1849.261</ele>
        <time>2024-08-31T11:53:40Z</time>
      </trkpt>
      <trkpt lat="42.6992" lon="1.40747">
        <ele>1849.208</ele>
        <time>2024-08-31T11:53:42Z</time>
      </trkpt>
      <trkpt lat="42.69922" lon="1.40746">
        <ele>1848.082</ele>
        <time>2024-08-31T11:53:44Z</time>
      </trkpt>
      <trkpt lat="42.69924" lon="1.40745">
        <ele>1847.113</ele>
        <time>2024-08-31T11:53:46Z</time>
      </trkpt>
      <trkpt lat="42.69925" lon="1.40743">
        <ele>1846.705</ele>
        <time>2024-08-31T11:53:48Z</time>
      </trkpt>
      <trkpt lat="42.69927" lon="1.40742">
        <ele>1845.615</ele>
        <time>2024-08-31T11:53:50Z</time>
      </trkpt>
      <trkpt lat="42.69929" lon="1.40741">
        <ele>1845.749</ele>
        <time>2024-08-31T11:53:52Z</time>
      </trkpt>
      <trkpt lat="42.69931" lon="1.4074">
        <ele>1845.946</ele>
        <time>2024-08-31T11:53:54Z</time>
      </trkpt>
      <trkpt lat="42.69932" lon="1.40739">
        <ele>1845.397</ele>
        <time>2024-08-31T11:53:56Z</time>
      </trkpt>
      <trkpt lat="42.69934" lon="1.40738">
        <ele>1844.36</ele>
        <time>2024-08-31T11:53:58Z</time>
      </trkpt>
      <trkpt lat="42.69936" lon="1.40738">
        <ele>1842.78</ele>
        <time>2024-08-31T11:54:00Z</time>
      </trkpt>
      <trkpt lat="42.69938" lon="1.40737">
        <ele>1841.485</ele>
        <time>2024-08-31T11:54:02Z</time>
      </trkpt>
      <trkpt lat="42.6994" lon="1.40737">
        <ele>1840.863</ele>
        <time>2024-08-31T11:54:04Z</time>
      </trkpt>
      <trkpt lat="42.69942" lon="1.40736">
        <ele>1839.816</ele>
        <time>2024-08-31T11:54:06Z</time>
      </trkpt>
      <trkpt lat="42.69944" lon="1.40736">
        <ele>1839.695</ele>
        <time>2024-08-31T11:54:08Z</time>
      </trkpt>
      <trkpt lat="42.69946" lon="1.40735">
        <ele>1838.363</ele>
        <time>2024-08-31T11:54:10Z</time>
      </trkpt>
      <trkpt lat="42.69949" lon="1.40734">
        <ele>1837.734</ele>
        <time>2024-08-31T11:54:12Z</time>
      </trkpt>
      <trkpt lat="42.69951" lon="1.40733">
        <ele>1835.856</ele>
        <time>2024-08-31T11:54:14Z</time>
      </trkpt>
      <trkpt lat="42.69953" lon="1.40733">
        <ele>1834.408</ele>
        <time>2024-08-31T11:54:16Z</time>
      </trkpt>
      <trkpt lat="42.69954" lon="1.40731">
        <ele>1834.591</ele>
        <time>2024-08-31T11:54:18Z</time>
      </trkpt>
      <trkpt lat="42.69954" lon="1.40729">
        <ele>1834.628</ele>
        <time>2024-08-31T11:54:20Z</time>
      </trkpt>
      <trkpt lat="42.69956" lon="1.40727">
        <ele>1833.572</ele>
        <time>2024-08-31T11:54:22Z</time>
      </trkpt>
      <trkpt lat="42.69958" lon="1.40727">
        <ele>1832.529</ele>
        <time>2024-08-31T11:54:24Z</time>
      </trkpt>
      <trkpt lat="42.69959" lon="1.40726">
        <ele>1831.272</ele>
        <time>2024-08-31T11:54:26Z</time>
      </trkpt>
      <trkpt lat="42.69961" lon="1.40725">
        <ele>1830.374</ele>
        <time>2024-08-31T11:54:28Z</time>
      </trkpt>
      <trkpt lat="42.69962" lon="1.40725">
        <ele>1830.111</ele>
        <time>2024-08-31T11:54:30Z</time>
      </trkpt>
      <trkpt lat="42.69964" lon="1.40724">
        <ele>1830.255</ele>
        <time>2024-08-31T11:54:32Z</time>
      </trkpt>
      <trkpt lat="42.69966" lon="1.40724">
        <ele>1829.147</ele>
        <time>2024-08-31T11:54:34Z</time>
      </trkpt>
      <trkpt lat="42.69967" lon="1.40722">
        <ele>1830.031</ele>
        <time>2024-08-31T11:54:36Z</time>
      </trkpt>
      <trkpt lat="42.69969" lon="1.40721">
        <ele>1830.132</ele>
        <time>2024-08-31T11:54:38Z</time>
      </trkpt>
      <trkpt lat="42.6997" lon="1.4072">
        <ele>1830.14</ele>
        <time>2024-08-31T11:54:40Z</time>
      </trkpt>
      <trkpt lat="42.69972" lon="1.40719">
        <ele>1830.804</ele>
        <time>2024-08-31T11:54:42Z</time>
      </trkpt>
      <trkpt lat="42.69972" lon="1.40718">
        <ele>1830.914</ele>
        <time>2024-08-31T11:54:44Z</time>
      </trkpt>
      <trkpt lat="42.69973" lon="1.40716">
        <ele>1830.539</ele>
        <time>2024-08-31T11:54:46Z</time>
      </trkpt>
      <trkpt lat="42.69974" lon="1.40714">
        <ele>1830.901</ele>
        <time>2024-08-31T11:54:48Z</time>
      </trkpt>
      <trkpt lat="42.69976" lon="1.40714">
        <ele>1830.16</ele>
        <time>2024-08-31T11:54:50Z</time>
      </trkpt>
      <trkpt lat="42.69977" lon="1.40714">
        <ele>1828.834</ele>
        <time>2024-08-31T11:54:52Z</time>
      </trkpt>
      <trkpt lat="42.69977" lon="1.40713">
        <ele>1828.244</ele>
        <time>2024-08-31T11:54:54Z</time>
      </trkpt>
      <trkpt lat="42.69978" lon="1.40712">
        <ele>1827.221</ele>
        <time>2024-08-31T11:54:56Z</time>
      </trkpt>
      <trkpt lat="42.6998" lon="1.40711">
        <ele>1825.966</ele>
        <time>2024-08-31T11:54:58Z</time>
      </trkpt>
      <trkpt lat="42.69982" lon="1.40712">
        <ele>1825.499</ele>
        <time>2024-08-31T11:55:00Z</time>
      </trkpt>
      <trkpt lat="42.69984" lon="1.40711">
        <ele>1825.584</ele>
        <time>2024-08-31T11:55:02Z</time>
      </trkpt>
      <trkpt lat="42.69985" lon="1.4071">
        <ele>1825.543</ele>
        <time>2024-08-31T11:55:04Z</time>
      </trkpt>
      <trkpt lat="42.69986" lon="1.4071">
        <ele>1825.069</ele>
        <time>2024-08-31T11:55:06Z</time>
      </trkpt>
      <trkpt lat="42.69987" lon="1.40709">
        <ele>1824.42</ele>
        <time>2024-08-31T11:55:08Z</time>
      </trkpt>
      <trkpt lat="42.69988" lon="1.40707">
        <ele>1823.066</ele>
        <time>2024-08-31T11:55:10Z</time>
      </trkpt>
      <trkpt lat="42.6999" lon="1.40706">
        <ele>1822.776</ele>
        <time>2024-08-31T11:55:12Z</time>
      </trkpt>
      <trkpt lat="42.69992" lon="1.40704">
        <ele>1821.869</ele>
        <time>2024-08-31T11:55:14Z</time>
      </trkpt>
      <trkpt lat="42.69993" lon="1.40703">
        <ele>1820.392</ele>
        <time>2024-08-31T11:55:16Z</time>
      </trkpt>
      <trkpt lat="42.69993" lon="1.407">
        <ele>1821.12</ele>
        <time>2024-08-31T11:55:18Z</time>
      </trkpt>
      <trkpt lat="42.69992" lon="1.40698">
        <ele>1819.91</ele>
        <time>2024-08-31T11:55:20Z</time>
      </trkpt>
      <trkpt lat="42.69993" lon="1.40696">
        <ele>1818.669</ele>
        <time>2024-08-31T11:55:22Z</time>
      </trkpt>
      <trkpt lat="42.69996" lon="1.40696">
        <ele>1817.763</ele>
        <time>2024-08-31T11:55:24Z</time>
      </trkpt>
      <trkpt lat="42.69998" lon="1.40696">
        <ele>1818.51</ele>
        <time>2024-08-31T11:55:26Z</time>
      </trkpt>
      <trkpt lat="42.69999" lon="1.40694">
        <ele>1817.259</ele>
        <time>2024-08-31T11:55:28Z</time>
      </trkpt>
      <trkpt lat="42.7" lon="1.40691">
        <ele>1817.228</ele>
        <time>2024-08-31T11:55:30Z</time>
      </trkpt>
      <trkpt lat="42.70002" lon="1.40691">
        <ele>1817.261</ele>
        <time>2024-08-31T11:55:32Z</time>
      </trkpt>
      <trkpt lat="42.70004" lon="1.40691">
        <ele>1815.948</ele>
        <time>2024-08-31T11:55:34Z</time>
      </trkpt>
      <trkpt lat="42.70004" lon="1.40688">
        <ele>1815.956</ele>
        <time>2024-08-31T11:55:36Z</time>
      </trkpt>
      <trkpt lat="42.70004" lon="1.40686">
        <ele>1815.226</ele>
        <time>2024-08-31T11:55:38Z</time>
      </trkpt>
      <trkpt lat="42.70004" lon="1.40684">
        <ele>1814.456</ele>
        <time>2024-08-31T11:55:40Z</time>
      </trkpt>
      <trkpt lat="42.70006" lon="1.40683">
        <ele>1814.451</ele>
        <time>2024-08-31T11:55:42Z</time>
      </trkpt>
      <trkpt lat="42.70008" lon="1.40682">
        <ele>1814.882</ele>
        <time>2024-08-31T11:55:44Z</time>
      </trkpt>
      <trkpt lat="42.7001" lon="1.40682">
        <ele>1815.062</ele>
        <time>2024-08-31T11:55:46Z</time>
      </trkpt>
      <trkpt lat="42.70012" lon="1.40681">
        <ele>1814.101</ele>
        <time>2024-08-31T11:55:48Z</time>
      </trkpt>
      <trkpt lat="42.70014" lon="1.4068">
        <ele>1811.773</ele>
        <time>2024-08-31T11:55:50Z</time>
      </trkpt>
      <trkpt lat="42.70017" lon="1.40679">
        <ele>1810.081</ele>
        <time>2024-08-31T11:55:52Z</time>
      </trkpt>
      <trkpt lat="42.70019" lon="1.40677">
        <ele>1809.454</ele>
        <time>2024-08-31T11:55:54Z</time>
      </trkpt>
      <trkpt lat="42.70021" lon="1.40675">
        <ele>1809.198</ele>
        <time>2024-08-31T11:55:56Z</time>
      </trkpt>
      <trkpt lat="42.70022" lon="1.40674">
        <ele>1808.374</ele>
        <time>2024-08-31T11:55:58Z</time>
      </trkpt>
      <trkpt lat="42.70024" lon="1.40673">
        <ele>1808.144</ele>
        <time>2024-08-31T11:56:00Z</time>
      </trkpt>
      <trkpt lat="42.70026" lon="1.40673">
        <ele>1807.512</ele>
        <time>2024-08-31T11:56:02Z</time>
      </trkpt>
      <trkpt lat="42.70028" lon="1.40673">
        <ele>1807.051</ele>
        <time>2024-08-31T11:56:04Z</time>
      </trkpt>
      <trkpt lat="42.7003" lon="1.40672">
        <ele>1806.427</ele>
        <time>2024-08-31T11:56:06Z</time>
      </trkpt>
      <trkpt lat="42.70031" lon="1.4067">
        <ele>1807.114</ele>
        <time>2024-08-31T11:56:08Z</time>
      </trkpt>
      <trkpt lat="42.70031" lon="1.40668">
        <ele>1805.369</ele>
        <time>2024-08-31T11:56:10Z</time>
      </trkpt>
      <trkpt lat="42.70031" lon="1.40666">
        <ele>1804.581</ele>
        <time>2024-08-31T11:56:12Z</time>
      </trkpt>
      <trkpt lat="42.70031" lon="1.40664">
        <ele>1803.425</ele>
        <time>2024-08-31T11:56:14Z</time>
      </trkpt>
      <trkpt lat="42.70033" lon="1.40663">
        <ele>1802.507</ele>
        <time>2024-08-31T11:56:16Z</time>
      </trkpt>
      <trkpt lat="42.70034" lon="1.40661">
        <ele>1801.614</ele>
        <time>2024-08-31T11:56:18Z</time>
      </trkpt>
      <trkpt lat="42.70035" lon="1.4066">
        <ele>1801.294</ele>
        <time>2024-08-31T11:56:20Z</time>
      </trkpt>
      <trkpt lat="42.70035" lon="1.40659">
        <ele>1800.738</ele>
        <time>2024-08-31T11:56:22Z</time>
      </trkpt>
      <trkpt lat="42.70036" lon="1.40658">
        <ele>1801.036</ele>
        <time>2024-08-31T11:56:24Z</time>
      </trkpt>
      <trkpt lat="42.70037" lon="1.40656">
        <ele>1800.265</ele>
        <time>2024-08-31T11:56:26Z</time>
      </trkpt>
      <trkpt lat="42.70037" lon="1.40654">
        <ele>1798.638</ele>
        <time>2024-08-31T11:56:28Z</time>
      </trkpt>
      <trkpt lat="42.70036" lon="1.40652">
        <ele>1798.495</ele>
        <time>2024-08-31T11:56:30Z</time>
      </trkpt>
      <trkpt lat="42.70036" lon="1.40651">
        <ele>1798.085</ele>
        <time>2024-08-31T11:56:32Z</time>
      </trkpt>
      <trkpt lat="42.70036" lon="1.40648">
        <ele>1797.756</ele>
        <time>2024-08-31T11:56:34Z</time>
      </trkpt>
      <trkpt lat="42.70035" lon="1.40646">
        <ele>1797.22</ele>
        <time>2024-08-31T11:56:36Z</time>
      </trkpt>
      <trkpt lat="42.70035" lon="1.40643">
        <ele>1797.051</ele>
        <time>2024-08-31T11:56:38Z</time>
      </trkpt>
      <trkpt lat="42.70035" lon="1.4064">
        <ele>1796.053</ele>
        <time>2024-08-31T11:56:40Z</time>
      </trkpt>
      <trkpt lat="42.70035" lon="1.40638">
        <ele>1795.047</ele>
        <time>2024-08-31T11:56:42Z</time>
      </trkpt>
      <trkpt lat="42.70035" lon="1.40635">
        <ele>1794.51</ele>
        <time>2024-08-31T11:56:44Z</time>
      </trkpt>
      <trkpt lat="42.70034" lon="1.40634">
        <ele>1794.385</ele>
        <time>2024-08-31T11:56:46Z</time>
      </trkpt>
      <trkpt lat="42.70035" lon="1.40633">
        <ele>1793.719</ele>
        <time>2024-08-31T11:56:48Z</time>
      </trkpt>
      <trkpt lat="42.70035" lon="1.40631">
        <ele>1792.899</ele>
        <time>2024-08-31T11:56:50Z</time>
      </trkpt>
      <trkpt lat="42.70033" lon="1.40629">
        <ele>1792.222</ele>
        <time>2024-08-31T11:56:52Z</time>
      </trkpt>
      <trkpt lat="42.70034" lon="1.40625">
        <ele>1791.288</ele>
        <time>2024-08-31T11:56:54Z</time>
      </trkpt>
      <trkpt lat="42.70034" lon="1.40624">
        <ele>1790.563</ele>
        <time>2024-08-31T11:56:56Z</time>
      </trkpt>
      <trkpt lat="42.70034" lon="1.40623">
        <ele>1790.428</ele>
        <time>2024-08-31T11:56:58Z</time>
      </trkpt>
      <trkpt lat="42.70034" lon="1.40621">
        <ele>1789.934</ele>
        <time>2024-08-31T11:57:00Z</time>
      </trkpt>
      <trkpt lat="42.70034" lon="1.4062">
        <ele>1788.876</ele>
        <time>2024-08-31T11:57:02Z</time>
      </trkpt>
      <trkpt lat="42.70036" lon="1.40618">
        <ele>1787.543</ele>
        <time>2024-08-31T11:57:04Z</time>
      </trkpt>
      <trkpt lat="42.70037" lon="1.40616">
        <ele>1786.769</ele>
        <time>2024-08-31T11:57:06Z</time>
      </trkpt>
      <trkpt lat="42.70036" lon="1.40614">
        <ele>1786.434</ele>
        <time>2024-08-31T11:57:08Z</time>
      </trkpt>
      <trkpt lat="42.70036" lon="1.40612">
        <ele>1786.693</ele>
        <time>2024-08-31T11:57:10Z</time>
      </trkpt>
      <trkpt lat="42.70034" lon="1.4061">
        <ele>1787.222</ele>
        <time>2024-08-31T11:57:12Z</time>
      </trkpt>
      <trkpt lat="42.70033" lon="1.40608">
        <ele>1786.997</ele>
        <time>2024-08-31T11:57:14Z</time>
      </trkpt>
      <trkpt lat="42.70031" lon="1.40604">
        <ele>1785.612</ele>
        <time>2024-08-31T11:57:16Z</time>
      </trkpt>
      <trkpt lat="42.70028" lon="1.40602">
        <ele>1784.253</ele>
        <time>2024-08-31T11:57:18Z</time>
      </trkpt>
      <trkpt lat="42.70029" lon="1.40598">
        <ele>1782.91</ele>
        <time>2024-08-31T11:57:20Z</time>
      </trkpt>
      <trkpt lat="42.70032" lon="1.40598">
        <ele>1782.436</ele>
        <time>2024-08-31T11:57:22Z</time>
      </trkpt>
      <trkpt lat="42.70034" lon="1.40598">
        <ele>1779.572</ele>
        <time>2024-08-31T11:57:24Z</time>
      </trkpt>
      <trkpt lat="42.70036" lon="1.40598">
        <ele>1779.814</ele>
        <time>2024-08-31T11:57:26Z</time>
      </trkpt>
      <trkpt lat="42.70038" lon="1.40598">
        <ele>1779.996</ele>
        <time>2024-08-31T11:57:28Z</time>
      </trkpt>
      <trkpt lat="42.70039" lon="1.40598">
        <ele>1778.848</ele>
        <time>2024-08-31T11:57:30Z</time>
      </trkpt>
      <trkpt lat="42.70041" lon="1.40598">
        <ele>1778.711</ele>
        <time>2024-08-31T11:57:32Z</time>
      </trkpt>
      <trkpt lat="42.70044" lon="1.40598">
        <ele>1777.268</ele>
        <time>2024-08-31T11:57:34Z</time>
      </trkpt>
      <trkpt lat="42.70046" lon="1.40598">
        <ele>1776.513</ele>
        <time>2024-08-31T11:57:36Z</time>
      </trkpt>
      <trkpt lat="42.70048" lon="1.40598">
        <ele>1775.123</ele>
        <time>2024-08-31T11:57:38Z</time>
      </trkpt>
      <trkpt lat="42.7005" lon="1.40599">
        <ele>1775.685</ele>
        <time>2024-08-31T11:57:40Z</time>
      </trkpt>
      <trkpt lat="42.70051" lon="1.40599">
        <ele>1775.31</ele>
        <time>2024-08-31T11:57:42Z</time>
      </trkpt>
      <trkpt lat="42.70053" lon="1.40599">
        <ele>1775.048</ele>
        <time>2024-08-31T11:57:44Z</time>
      </trkpt>
      <trkpt lat="42.70054" lon="1.40598">
        <ele>1774.377</ele>
        <time>2024-08-31T11:57:46Z</time>
      </trkpt>
      <trkpt lat="42.70056" lon="1.40597">
        <ele>1774.16</ele>
        <time>2024-08-31T11:57:48Z</time>
      </trkpt>
      <trkpt lat="42.70057" lon="1.40598">
        <ele>1773.734</ele>
        <time>2024-08-31T11:57:50Z</time>
      </trkpt>
      <trkpt lat="42.70058" lon="1.406">
        <ele>1773.287</ele>
        <time>2024-08-31T11:57:52Z</time>
      </trkpt>
      <trkpt lat="42.70059" lon="1.40601">
        <ele>1773.414</ele>
        <time>2024-08-31T11:57:54Z</time>
      </trkpt>
      <trkpt lat="42.7006" lon="1.40603">
        <ele>1773.365</ele>
        <time>2024-08-31T11:57:56Z</time>
      </trkpt>
      <trkpt lat="42.70061" lon="1.40603">
        <ele>1772.892</ele>
        <time>2024-08-31T11:57:58Z</time>
      </trkpt>
      <trkpt lat="42.70063" lon="1.40603">
        <ele>1773.875</ele>
        <time>2024-08-31T11:58:00Z</time>
      </trkpt>
      <trkpt lat="42.70064" lon="1.40604">
        <ele>1772.114</ele>
        <time>2024-08-31T11:58:02Z</time>
      </trkpt>
      <trkpt lat="42.70065" lon="1.40605">
        <ele>1771.608</ele>
        <time>2024-08-31T11:58:04Z</time>
      </trkpt>
      <trkpt lat="42.70066" lon="1.40607">
        <ele>1771.322</ele>
        <time>2024-08-31T11:58:06Z</time>
      </trkpt>
      <trkpt lat="42.70067" lon="1.40608">
        <ele>1771.301</ele>
        <time>2024-08-31T11:58:08Z</time>
      </trkpt>
      <trkpt lat="42.70068" lon="1.4061">
        <ele>1771.297</ele>
        <time>2024-08-31T11:58:10Z</time>
      </trkpt>
      <trkpt lat="42.70069" lon="1.40611">
        <ele>1770.567</ele>
        <time>2024-08-31T11:58:12Z</time>
      </trkpt>
      <trkpt lat="42.7007" lon="1.40612">
        <ele>1769.893</ele>
        <time>2024-08-31T11:58:14Z</time>
      </trkpt>
      <trkpt lat="42.70071" lon="1.40613">
        <ele>1770.416</ele>
        <time>2024-08-31T11:58:16Z</time>
      </trkpt>
      <trkpt lat="42.70071" lon="1.40613">
        <ele>1770.627</ele>
        <time>2024-08-31T11:58:18Z</time>
      </trkpt>
      <trkpt lat="42.70071" lon="1.40614">
        <ele>1770.633</ele>
        <time>2024-08-31T11:58:20Z</time>
      </trkpt>
      <trkpt lat="42.70071" lon="1.40614">
        <ele>1770.633</ele>
        <time>2024-08-31T11:58:22Z</time>
      </trkpt>
      <trkpt lat="42.70071" lon="1.40614">
        <ele>1770.637</ele>
        <time>2024-08-31T11:58:24Z</time>
      </trkpt>
      <trkpt lat="42.70071" lon="1.40614">
        <ele>1770.64</ele>
        <time>2024-08-31T11:58:26Z</time>
      </trkpt>
      <trkpt lat="42.70071" lon="1.40614">
        <ele>1770.726</ele>
        <time>2024-08-31T11:58:28Z</time>
      </trkpt>
      <trkpt lat="42.70071" lon="1.40614">
        <ele>1770.547</ele>
        <time>2024-08-31T11:58:30Z</time>
      </trkpt>
      <trkpt lat="42.70072" lon="1.40614">
        <ele>1770.172</ele>
        <time>2024-08-31T11:58:32Z</time>
      </trkpt>
      <trkpt lat="42.70073" lon="1.40615">
        <ele>1769.674</ele>
        <time>2024-08-31T11:58:34Z</time>
      </trkpt>
      <trkpt lat="42.70073" lon="1.40615">
        <ele>1770.101</ele>
        <time>2024-08-31T11:58:36Z</time>
      </trkpt>
      <trkpt lat="42.70074" lon="1.40615">
        <ele>1770.029</ele>
        <time>2024-08-31T11:58:38Z</time>
      </trkpt>
      <trkpt lat="42.70074" lon="1.40617">
        <ele>1768.545</ele>
        <time>2024-08-31T11:58:40Z</time>
      </trkpt>
      <trkpt lat="42.70074" lon="1.40617">
        <ele>1768.54</ele>
        <time>2024-08-31T11:58:42Z</time>
      </trkpt>
      <trkpt lat="42.70074" lon="1.40617">
        <ele>1768.547</ele>
        <time>2024-08-31T11:58:44Z</time>
      </trkpt>
      <trkpt lat="42.70074" lon="1.40617">
        <ele>1768.555</ele>
        <time>2024-08-31T11:58:46Z</time>
      </trkpt>
      <trkpt lat="42.70074" lon="1.40617">
        <ele>1768.552</ele>
        <time>2024-08-31T11:58:48Z</time>
      </trkpt>
      <trkpt lat="42.70074" lon="1.40617">
        <ele>1768.547</ele>
        <time>2024-08-31T11:58:50Z</time>
      </trkpt>
      <trkpt lat="42.70074" lon="1.40617">
        <ele>1768.547</ele>
        <time>2024-08-31T11:58:52Z</time>
      </trkpt>
      <trkpt lat="42.70074" lon="1.40617">
        <ele>1768.547</ele>
        <time>2024-08-31T11:58:54Z</time>
      </trkpt>
      <trkpt lat="42.70074" lon="1.40617">
        <ele>1768.547</ele>
        <time>2024-08-31T11:58:56Z</time>
      </trkpt>
      <trkpt lat="42.70074" lon="1.40617">
        <ele>1768.541</ele>
        <time>2024-08-31T11:58:58Z</time>
      </trkpt>
      <trkpt lat="42.70074" lon="1.40617">
        <ele>1768.281</ele>
        <time>2024-08-31T11:59:00Z</time>
      </trkpt>
      <trkpt lat="42.70074" lon="1.40617">
        <ele>1768.277</ele>
        <time>2024-08-31T11:59:02Z</time>
      </trkpt>
      <trkpt lat="42.70074" lon="1.40617">
        <ele>1768.281</ele>
        <time>2024-08-31T11:59:04Z</time>
      </trkpt>
      <trkpt lat="42.70074" lon="1.40617">
        <ele>1768.279</ele>
        <time>2024-08-31T11:59:06Z</time>
      </trkpt>
      <trkpt lat="42.70074" lon="1.40617">
        <ele>1768.279</ele>
        <time>2024-08-31T11:59:08Z</time>
      </trkpt>
      <trkpt lat="42.70074" lon="1.40617">
        <ele>1768.279</ele>
        <time>2024-08-31T11:59:10Z</time>
      </trkpt>
      <trkpt lat="42.70074" lon="1.40617">
        <ele>1768.273</ele>
        <time>2024-08-31T11:59:12Z</time>
      </trkpt>
      <trkpt lat="42.70074" lon="1.40617">
        <ele>1768.275</ele>
        <time>2024-08-31T11:59:14Z</time>
      </trkpt>
      <trkpt lat="42.70074" lon="1.40617">
        <ele>1768.276</ele>
        <time>2024-08-31T11:59:16Z</time>
      </trkpt>
      <trkpt lat="42.70073" lon="1.40617">
        <ele>1768.519</ele>
        <time>2024-08-31T11:59:18Z</time>
      </trkpt>
      <trkpt lat="42.70073" lon="1.40617">
        <ele>1768.49</ele>
        <time>2024-08-31T11:59:20Z</time>
      </trkpt>
      <trkpt lat="42.70073" lon="1.40617">
        <ele>1768.48</ele>
        <time>2024-08-31T11:59:22Z</time>
      </trkpt>
      <trkpt lat="42.70074" lon="1.40617">
        <ele>1767.616</ele>
        <time>2024-08-31T11:59:24Z</time>
      </trkpt>
      <trkpt lat="42.70074" lon="1.40617">
        <ele>1767.178</ele>
        <time>2024-08-31T11:59:26Z</time>
      </trkpt>
      <trkpt lat="42.70075" lon="1.40617">
        <ele>1766.87</ele>
        <time>2024-08-31T11:59:28Z</time>
      </trkpt>
      <trkpt lat="42.70077" lon="1.40618">
        <ele>1766.353</ele>
        <time>2024-08-31T11:59:30Z</time>
      </trkpt>
      <trkpt lat="42.70077" lon="1.40618">
        <ele>1765.056</ele>
        <time>2024-08-31T11:59:32Z</time>
      </trkpt>
      <trkpt lat="42.70078" lon="1.40619">
        <ele>1764.209</ele>
        <time>2024-08-31T11:59:34Z</time>
      </trkpt>
      <trkpt lat="42.70079" lon="1.40621">
        <ele>1763.43</ele>
        <time>2024-08-31T11:59:36Z</time>
      </trkpt>
      <trkpt lat="42.70081" lon="1.40622">
        <ele>1764.904</ele>
        <time>2024-08-31T11:59:38Z</time>
      </trkpt>
      <trkpt lat="42.70082" lon="1.40624">
        <ele>1764.445</ele>
        <time>2024-08-31T11:59:40Z</time>
      </trkpt>
      <trkpt lat="42.70083" lon="1.40626">
        <ele>1764.99</ele>
        <time>2024-08-31T11:59:42Z</time>
      </trkpt>
      <trkpt lat="42.70084" lon="1.40628">
        <ele>1764.595</ele>
        <time>2024-08-31T11:59:44Z</time>
      </trkpt>
      <trkpt lat="42.70086" lon="1.40629">
        <ele>1763.641</ele>
        <time>2024-08-31T11:59:46Z</time>
      </trkpt>
      <trkpt lat="42.70088" lon="1.4063">
        <ele>1763.032</ele>
        <time>2024-08-31T11:59:48Z</time>
      </trkpt>
      <trkpt lat="42.7009" lon="1.40632">
        <ele>1762.074</ele>
        <time>2024-08-31T11:59:50Z</time>
      </trkpt>
      <trkpt lat="42.70091" lon="1.40634">
        <ele>1762.234</ele>
        <time>2024-08-31T11:59:52Z</time>
      </trkpt>
      <trkpt lat="42.70093" lon="1.40635">
        <ele>1761.884</ele>
        <time>2024-08-31T11:59:54Z</time>
      </trkpt>
      <trkpt lat="42.70095" lon="1.40636">
        <ele>1761.691</ele>
        <time>2024-08-31T11:59:56Z</time>
      </trkpt>
      <trkpt lat="42.70096" lon="1.40638">
        <ele>1761.006</ele>
        <time>2024-08-31T11:59:58Z</time>
      </trkpt>
      <trkpt lat="42.70096" lon="1.4064">
        <ele>1761.142</ele>
        <time>2024-08-31T12:00:00Z</time>
      </trkpt>
      <trkpt lat="42.70097" lon="1.4064">
        <ele>1762.075</ele>
        <time>2024-08-31T12:00:02Z</time>
      </trkpt>
      <trkpt lat="42.70099" lon="1.40641">
        <ele>1761.478</ele>
        <time>2024-08-31T12:00:04Z</time>
      </trkpt>
      <trkpt lat="42.701" lon="1.40641">
        <ele>1761.697</ele>
        <time>2024-08-31T12:00:06Z</time>
      </trkpt>
      <trkpt lat="42.70101" lon="1.4064">
        <ele>1760.895</ele>
        <time>2024-08-31T12:00:08Z</time>
      </trkpt>
      <trkpt lat="42.70102" lon="1.40638">
        <ele>1761.668</ele>
        <time>2024-08-31T12:00:10Z</time>
      </trkpt>
      <trkpt lat="42.70104" lon="1.40638">
        <ele>1761.08</ele>
        <time>2024-08-31T12:00:12Z</time>
      </trkpt>
      <trkpt lat="42.70106" lon="1.40638">
        <ele>1760.033</ele>
        <time>2024-08-31T12:00:14Z</time>
      </trkpt>
      <trkpt lat="42.70107" lon="1.4064">
        <ele>1760.228</ele>
        <time>2024-08-31T12:00:16Z</time>
      </trkpt>
      <trkpt lat="42.70109" lon="1.40642">
        <ele>1759.135</ele>
        <time>2024-08-31T12:00:18Z</time>
      </trkpt>
      <trkpt lat="42.7011" lon="1.40643">
        <ele>1759.056</ele>
        <time>2024-08-31T12:00:20Z</time>
      </trkpt>
      <trkpt lat="42.7011" lon="1.40645">
        <ele>1757.876</ele>
        <time>2024-08-31T12:00:22Z</time>
      </trkpt>
      <trkpt lat="42.70111" lon="1.40647">
        <ele>1756.961</ele>
        <time>2024-08-31T12:00:24Z</time>
      </trkpt>
      <trkpt lat="42.7011" lon="1.40648">
        <ele>1757.295</ele>
        <time>2024-08-31T12:00:26Z</time>
      </trkpt>
      <trkpt lat="42.70111" lon="1.4065">
        <ele>1757.943</ele>
        <time>2024-08-31T12:00:28Z</time>
      </trkpt>
      <trkpt lat="42.70112" lon="1.4065">
        <ele>1757.602</ele>
        <time>2024-08-31T12:00:30Z</time>
      </trkpt>
      <trkpt lat="42.70113" lon="1.40651">
        <ele>1757.05</ele>
        <time>2024-08-31T12:00:32Z</time>
      </trkpt>
      <trkpt lat="42.70114" lon="1.40651">
        <ele>1757.088</ele>
        <time>2024-08-31T12:00:34Z</time>
      </trkpt>
      <trkpt lat="42.70115" lon="1.4065">
        <ele>1756.934</ele>
        <time>2024-08-31T12:00:36Z</time>
      </trkpt>
      <trkpt lat="42.70117" lon="1.40652">
        <ele>1755.461</ele>
        <time>2024-08-31T12:00:38Z</time>
      </trkpt>
      <trkpt lat="42.70118" lon="1.40654">
        <ele>1754.901</ele>
        <time>2024-08-31T12:00:40Z</time>
      </trkpt>
      <trkpt lat="42.70119" lon="1.40656">
        <ele>1754.584</ele>
        <time>2024-08-31T12:00:42Z</time>
      </trkpt>
      <trkpt lat="42.7012" lon="1.40658">
        <ele>1753.599</ele>
        <time>2024-08-31T12:00:44Z</time>
      </trkpt>
      <trkpt lat="42.70121" lon="1.40659">
        <ele>1753.231</ele>
        <time>2024-08-31T12:00:46Z</time>
      </trkpt>
      <trkpt lat="42.70122" lon="1.40659">
        <ele>1752.49</ele>
        <time>2024-08-31T12:00:48Z</time>
      </trkpt>
      <trkpt lat="42.70125" lon="1.4066">
        <ele>1752.32</ele>
        <time>2024-08-31T12:00:50Z</time>
      </trkpt>
      <trkpt lat="42.70126" lon="1.40661">
        <ele>1751.263</ele>
        <time>2024-08-31T12:00:52Z</time>
      </trkpt>
      <trkpt lat="42.70127" lon="1.40662">
        <ele>1749.959</ele>
        <time>2024-08-31T12:00:54Z</time>
      </trkpt>
      <trkpt lat="42.70129" lon="1.40663">
        <ele>1751.434</ele>
        <time>2024-08-31T12:00:56Z</time>
      </trkpt>
      <trkpt lat="42.70131" lon="1.40663">
        <ele>1749.092</ele>
        <time>2024-08-31T12:00:58Z</time>
      </trkpt>
      <trkpt lat="42.70131" lon="1.40665">
        <ele>1745.828</ele>
        <time>2024-08-31T12:01:00Z</time>
      </trkpt>
      <trkpt lat="42.70131" lon="1.40667">
        <ele>1745.985</ele>
        <time>2024-08-31T12:01:02Z</time>
      </trkpt>
      <trkpt lat="42.70131" lon="1.40667">
        <ele>1747.062</ele>
        <time>2024-08-31T12:01:04Z</time>
      </trkpt>
      <trkpt lat="42.70131" lon="1.40667">
        <ele>1745.711</ele>
        <time>2024-08-31T12:01:06Z</time>
      </trkpt>
      <trkpt lat="42.70131" lon="1.40667">
        <ele>1744.955</ele>
        <time>2024-08-31T12:01:08Z</time>
      </trkpt>
      <trkpt lat="42.70131" lon="1.40667">
        <ele>1744.222</ele>
        <time>2024-08-31T12:01:10Z</time>
      </trkpt>
      <trkpt lat="42.70131" lon="1.40667">
        <ele>1742.57</ele>
        <time>2024-08-31T12:01:12Z</time>
      </trkpt>
      <trkpt lat="42.70131" lon="1.40667">
        <ele>1742.521</ele>
        <time>2024-08-31T12:01:14Z</time>
      </trkpt>
      <trkpt lat="42.70131" lon="1.40667">
        <ele>1740.987</ele>
        <time>2024-08-31T12:01:16Z</time>
      </trkpt>
      <trkpt lat="42.70131" lon="1.40667">
        <ele>1740.352</ele>
        <time>2024-08-31T12:01:18Z</time>
      </trkpt>
      <trkpt lat="42.70131" lon="1.40667">
        <ele>1739.945</ele>
        <time>2024-08-31T12:01:20Z</time>
      </trkpt>
      <trkpt lat="42.70138" lon="1.40656">
        <ele>1739.119</ele>
        <time>2024-08-31T12:01:22Z</time>
      </trkpt>
      <trkpt lat="42.70138" lon="1.40654">
        <ele>1738.54</ele>
        <time>2024-08-31T12:01:24Z</time>
      </trkpt>
      <trkpt lat="42.7014" lon="1.40653">
        <ele>1738.384</ele>
        <time>2024-08-31T12:01:26Z</time>
      </trkpt>
      <trkpt lat="42.70141" lon="1.40654">
        <ele>1738.08</ele>
        <time>2024-08-31T12:01:28Z</time>
      </trkpt>
      <trkpt lat="42.70142" lon="1.40655">
        <ele>1738.231</ele>
        <time>2024-08-31T12:01:30Z</time>
      </trkpt>
      <trkpt lat="42.70143" lon="1.40656">
        <ele>1737.058</ele>
        <time>2024-08-31T12:01:32Z</time>
      </trkpt>
      <trkpt lat="42.70143" lon="1.40656">
        <ele>1736.486</ele>
        <time>2024-08-31T12:01:34Z</time>
      </trkpt>
      <trkpt lat="42.70143" lon="1.40656">
        <ele>1736.242</ele>
        <time>2024-08-31T12:01:36Z</time>
      </trkpt>
      <trkpt lat="42.70143" lon="1.40656">
        <ele>1736.949</ele>
        <time>2024-08-31T12:01:38Z</time>
      </trkpt>
      <trkpt lat="42.70143" lon="1.40656">
        <ele>1736.203</ele>
        <time>2024-08-31T12:01:40Z</time>
      </trkpt>
      <trkpt lat="42.70143" lon="1.40656">
        <ele>1735.22</ele>
        <time>2024-08-31T12:01:42Z</time>
      </trkpt>
      <trkpt lat="42.70143" lon="1.40656">
        <ele>1735.792</ele>
        <time>2024-08-31T12:01:44Z</time>
      </trkpt>
      <trkpt lat="42.70143" lon="1.40656">
        <ele>1733.695</ele>
        <time>2024-08-31T12:01:46Z</time>
      </trkpt>
      <trkpt lat="42.70143" lon="1.40656">
        <ele>1733.98</ele>
        <time>2024-08-31T12:01:48Z</time>
      </trkpt>
      <trkpt lat="42.70143" lon="1.40656">
        <ele>1733.681</ele>
        <time>2024-08-31T12:01:50Z</time>
      </trkpt>
      <trkpt lat="42.70143" lon="1.40656">
        <ele>1732.674</ele>
        <time>2024-08-31T12:01:52Z</time>
      </trkpt>
      <trkpt lat="42.70143" lon="1.40656">
        <ele>1732.935</ele>
        <time>2024-08-31T12:01:54Z</time>
      </trkpt>
      <trkpt lat="42.70143" lon="1.40656">
        <ele>1732.437</ele>
        <time>2024-08-31T12:01:56Z</time>
      </trkpt>
      <trkpt lat="42.70143" lon="1.40656">
        <ele>1731.755</ele>
        <time>2024-08-31T12:01:58Z</time>
      </trkpt>
      <trkpt lat="42.70143" lon="1.40656">
        <ele>1731.904</ele>
        <time>2024-08-31T12:02:00Z</time>
      </trkpt>
      <trkpt lat="42.70143" lon="1.40656">
        <ele>1730.573</ele>
        <time>2024-08-31T12:02:02Z</time>
      </trkpt>
      <trkpt lat="42.70154" lon="1.40649">
        <ele>1730.649</ele>
        <time>2024-08-31T12:02:04Z</time>
      </trkpt>
      <trkpt lat="42.70154" lon="1.40649">
        <ele>1729.447</ele>
        <time>2024-08-31T12:02:06Z</time>
      </trkpt>
      <trkpt lat="42.70155" lon="1.40649">
        <ele>1728.54</ele>
        <time>2024-08-31T12:02:08Z</time>
      </trkpt>
      <trkpt lat="42.70156" lon="1.40649">
        <ele>1727.484</ele>
        <time>2024-08-31T12:02:10Z</time>
      </trkpt>
      <trkpt lat="42.70157" lon="1.40649">
        <ele>1727.586</ele>
        <time>2024-08-31T12:02:12Z</time>
      </trkpt>
      <trkpt lat="42.70159" lon="1.40651">
        <ele>1728.251</ele>
        <time>2024-08-31T12:02:14Z</time>
      </trkpt>
      <trkpt lat="42.7016" lon="1.40651">
        <ele>1726.477</ele>
        <time>2024-08-31T12:02:16Z</time>
      </trkpt>
      <trkpt lat="42.70161" lon="1.40655">
        <ele>1727.317</ele>
        <time>2024-08-31T12:02:18Z</time>
      </trkpt>
      <trkpt lat="42.70162" lon="1.40656">
        <ele>1727.213</ele>
        <time>2024-08-31T12:02:20Z</time>
      </trkpt>
      <trkpt lat="42.70163" lon="1.40655">
        <ele>1726.923</ele>
        <time>2024-08-31T12:02:22Z</time>
      </trkpt>
      <trkpt lat="42.70164" lon="1.40655">
        <ele>1726.617</ele>
        <time>2024-08-31T12:02:24Z</time>
      </trkpt>
      <trkpt lat="42.70166" lon="1.40655">
        <ele>1725.166</ele>
        <time>2024-08-31T12:02:26Z</time>
      </trkpt>
      <trkpt lat="42.70167" lon="1.40657">
        <ele>1725.597</ele>
        <time>2024-08-31T12:02:28Z</time>
      </trkpt>
      <trkpt lat="42.70168" lon="1.40657">
        <ele>1725.803</ele>
        <time>2024-08-31T12:02:30Z</time>
      </trkpt>
      <trkpt lat="42.70169" lon="1.40659">
        <ele>1726.07</ele>
        <time>2024-08-31T12:02:32Z</time>
      </trkpt>
      <trkpt lat="42.7017" lon="1.4066">
        <ele>1725.147</ele>
        <time>2024-08-31T12:02:34Z</time>
      </trkpt>
      <trkpt lat="42.70172" lon="1.4066">
        <ele>1724.472</ele>
        <time>2024-08-31T12:02:36Z</time>
      </trkpt>
      <trkpt lat="42.70172" lon="1.40661">
        <ele>1723.205</ele>
        <time>2024-08-31T12:02:38Z</time>
      </trkpt>
      <trkpt lat="42.70174" lon="1.4066">
        <ele>1722.83</ele>
        <time>2024-08-31T12:02:40Z</time>
      </trkpt>
      <trkpt lat="42.70174" lon="1.4066">
        <ele>1722.463</ele>
        <time>2024-08-31T12:02:42Z</time>
      </trkpt>
      <trkpt lat="42.70175" lon="1.40658">
        <ele>1721.482</ele>
        <time>2024-08-31T12:02:44Z</time>
      </trkpt>
      <trkpt lat="42.70176" lon="1.40656">
        <ele>1720.481</ele>
        <time>2024-08-31T12:02:46Z</time>
      </trkpt>
      <trkpt lat="42.70177" lon="1.40657">
        <ele>1719.608</ele>
        <time>2024-08-31T12:02:48Z</time>
      </trkpt>
      <trkpt lat="42.70179" lon="1.40656">
        <ele>1718.077</ele>
        <time>2024-08-31T12:02:50Z</time>
      </trkpt>
      <trkpt lat="42.70181" lon="1.40656">
        <ele>1717.945</ele>
        <time>2024-08-31T12:02:52Z</time>
      </trkpt>
      <trkpt lat="42.70182" lon="1.40656">
        <ele>1717.397</ele>
        <time>2024-08-31T12:02:54Z</time>
      </trkpt>
      <trkpt lat="42.70184" lon="1.40655">
        <ele>1716.247</ele>
        <time>2024-08-31T12:02:56Z</time>
      </trkpt>
      <trkpt lat="42.70185" lon="1.40656">
        <ele>1715.841</ele>
        <time>2024-08-31T12:02:58Z</time>
      </trkpt>
      <trkpt lat="42.70187" lon="1.40656">
        <ele>1715.071</ele>
        <time>2024-08-31T12:03:00Z</time>
      </trkpt>
      <trkpt lat="42.70189" lon="1.40656">
        <ele>1714.482</ele>
        <time>2024-08-31T12:03:02Z</time>
      </trkpt>
      <trkpt lat="42.7019" lon="1.40657">
        <ele>1714.301</ele>
        <time>2024-08-31T12:03:04Z</time>
      </trkpt>
      <trkpt lat="42.70192" lon="1.40658">
        <ele>1714.424</ele>
        <time>2024-08-31T12:03:06Z</time>
      </trkpt>
      <trkpt lat="42.70194" lon="1.40658">
        <ele>1713.133</ele>
        <time>2024-08-31T12:03:08Z</time>
      </trkpt>
      <trkpt lat="42.70195" lon="1.40658">
        <ele>1713.177</ele>
        <time>2024-08-31T12:03:10Z</time>
      </trkpt>
      <trkpt lat="42.70197" lon="1.40657">
        <ele>1712.667</ele>
        <time>2024-08-31T12:03:12Z</time>
      </trkpt>
      <trkpt lat="42.70198" lon="1.40656">
        <ele>1713.258</ele>
        <time>2024-08-31T12:03:14Z</time>
      </trkpt>
      <trkpt lat="42.70199" lon="1.40656">
        <ele>1713.376</ele>
        <time>2024-08-31T12:03:16Z</time>
      </trkpt>
      <trkpt lat="42.70201" lon="1.40657">
        <ele>1713.749</ele>
        <time>2024-08-31T12:03:18Z</time>
      </trkpt>
      <trkpt lat="42.70203" lon="1.40658">
        <ele>1713.452</ele>
        <time>2024-08-31T12:03:20Z</time>
      </trkpt>
      <trkpt lat="42.70204" lon="1.40656">
        <ele>1712.978</ele>
        <time>2024-08-31T12:03:22Z</time>
      </trkpt>
      <trkpt lat="42.70206" lon="1.40654">
        <ele>1711.431</ele>
        <time>2024-08-31T12:03:24Z</time>
      </trkpt>
      <trkpt lat="42.70207" lon="1.40653">
        <ele>1710.73</ele>
        <time>2024-08-31T12:03:26Z</time>
      </trkpt>
      <trkpt lat="42.70208" lon="1.40652">
        <ele>1710.232</ele>
        <time>2024-08-31T12:03:28Z</time>
      </trkpt>
      <trkpt lat="42.7021" lon="1.40651">
        <ele>1708.925</ele>
        <time>2024-08-31T12:03:30Z</time>
      </trkpt>
      <trkpt lat="42.70211" lon="1.40651">
        <ele>1708.421</ele>
        <time>2024-08-31T12:03:32Z</time>
      </trkpt>
      <trkpt lat="42.70213" lon="1.4065">
        <ele>1708.981</ele>
        <time>2024-08-31T12:03:34Z</time>
      </trkpt>
      <trkpt lat="42.70214" lon="1.40647">
        <ele>1708.553</ele>
        <time>2024-08-31T12:03:36Z</time>
      </trkpt>
      <trkpt lat="42.70216" lon="1.40645">
        <ele>1706.849</ele>
        <time>2024-08-31T12:03:38Z</time>
      </trkpt>
      <trkpt lat="42.70218" lon="1.40645">
        <ele>1705.683</ele>
        <time>2024-08-31T12:03:40Z</time>
      </trkpt>
      <trkpt lat="42.70219" lon="1.40645">
        <ele>1705.961</ele>
        <time>2024-08-31T12:03:42Z</time>
      </trkpt>
      <trkpt lat="42.70221" lon="1.40644">
        <ele>1704.873</ele>
        <time>2024-08-31T12:03:44Z</time>
      </trkpt>
      <trkpt lat="42.70223" lon="1.40644">
        <ele>1703.492</ele>
        <time>2024-08-31T12:03:46Z</time>
      </trkpt>
      <trkpt lat="42.70224" lon="1.40643">
        <ele>1702.3</ele>
        <time>2024-08-31T12:03:48Z</time>
      </trkpt>
      <trkpt lat="42.70225" lon="1.40641">
        <ele>1701.06</ele>
        <time>2024-08-31T12:03:50Z</time>
      </trkpt>
      <trkpt lat="42.70226" lon="1.40638">
        <ele>1700.409</ele>
        <time>2024-08-31T12:03:52Z</time>
      </trkpt>
      <trkpt lat="42.70226" lon="1.40636">
        <ele>1699.279</ele>
        <time>2024-08-31T12:03:54Z</time>
      </trkpt>
      <trkpt lat="42.70227" lon="1.40634">
        <ele>1697.957</ele>
        <time>2024-08-31T12:03:56Z</time>
      </trkpt>
      <trkpt lat="42.70227" lon="1.40632">
        <ele>1697.824</ele>
        <time>2024-08-31T12:03:58Z</time>
      </trkpt>
      <trkpt lat="42.70229" lon="1.4063">
        <ele>1697.032</ele>
        <time>2024-08-31T12:04:00Z</time>
      </trkpt>
      <trkpt lat="42.7023" lon="1.40628">
        <ele>1698.15</ele>
        <time>2024-08-31T12:04:02Z</time>
      </trkpt>
      <trkpt lat="42.70231" lon="1.40625">
        <ele>1698.195</ele>
        <time>2024-08-31T12:04:04Z</time>
      </trkpt>
      <trkpt lat="42.7023" lon="1.40623">
        <ele>1697.71</ele>
        <time>2024-08-31T12:04:06Z</time>
      </trkpt>
      <trkpt lat="42.70229" lon="1.40621">
        <ele>1696.092</ele>
        <time>2024-08-31T12:04:08Z</time>
      </trkpt>
      <trkpt lat="42.70229" lon="1.40618">
        <ele>1695.474</ele>
        <time>2024-08-31T12:04:10Z</time>
      </trkpt>
      <trkpt lat="42.70228" lon="1.40616">
        <ele>1694.74</ele>
        <time>2024-08-31T12:04:12Z</time>
      </trkpt>
      <trkpt lat="42.70229" lon="1.40614">
        <ele>1693.919</ele>
        <time>2024-08-31T12:04:14Z</time>
      </trkpt>
      <trkpt lat="42.70231" lon="1.40614">
        <ele>1692.969</ele>
        <time>2024-08-31T12:04:16Z</time>
      </trkpt>
      <trkpt lat="42.70231" lon="1.40612">
        <ele>1691.763</ele>
        <time>2024-08-31T12:04:18Z</time>
      </trkpt>
      <trkpt lat="42.70231" lon="1.4061">
        <ele>1692.156</ele>
        <time>2024-08-31T12:04:20Z</time>
      </trkpt>
      <trkpt lat="42.7023" lon="1.40608">
        <ele>1692.062</ele>
        <time>2024-08-31T12:04:22Z</time>
      </trkpt>
      <trkpt lat="42.7023" lon="1.40606">
        <ele>1691.69</ele>
        <time>2024-08-31T12:04:24Z</time>
      </trkpt>
      <trkpt lat="42.70229" lon="1.40603">
        <ele>1692.423</ele>
        <time>2024-08-31T12:04:26Z</time>
      </trkpt>
      <trkpt lat="42.70229" lon="1.40601">
        <ele>1693.473</ele>
        <time>2024-08-31T12:04:28Z</time>
      </trkpt>
      <trkpt lat="42.7023" lon="1.40599">
        <ele>1695.013</ele>
        <time>2024-08-31T12:04:30Z</time>
      </trkpt>
      <trkpt lat="42.70231" lon="1.40599">
        <ele>1694.771</ele>
        <time>2024-08-31T12:04:32Z</time>
      </trkpt>
      <trkpt lat="42.70231" lon="1.40599">
        <ele>1694.861</ele>
        <time>2024-08-31T12:04:34Z</time>
      </trkpt>
      <trkpt lat="42.70231" lon="1.406">
        <ele>1694.489</ele>
        <time>2024-08-31T12:04:36Z</time>
      </trkpt>
      <trkpt lat="42.70231" lon="1.40599">
        <ele>1694.638</ele>
        <time>2024-08-31T12:04:38Z</time>
      </trkpt>
      <trkpt lat="42.70232" lon="1.40599">
        <ele>1694.292</ele>
        <time>2024-08-31T12:04:40Z</time>
      </trkpt>
      <trkpt lat="42.70233" lon="1.40599">
        <ele>1693.77</ele>
        <time>2024-08-31T12:04:42Z</time>
      </trkpt>
      <trkpt lat="42.70233" lon="1.40598">
        <ele>1693.773</ele>
        <time>2024-08-31T12:04:44Z</time>
      </trkpt>
      <trkpt lat="42.70235" lon="1.40597">
        <ele>1692.944</ele>
        <time>2024-08-31T12:04:46Z</time>
      </trkpt>
      <trkpt lat="42.70236" lon="1.40596">
        <ele>1692.841</ele>
        <time>2024-08-31T12:04:48Z</time>
      </trkpt>
      <trkpt lat="42.70236" lon="1.40594">
        <ele>1691.809</ele>
        <time>2024-08-31T12:04:50Z</time>
      </trkpt>
      <trkpt lat="42.70236" lon="1.40591">
        <ele>1690.266</ele>
        <time>2024-08-31T12:04:52Z</time>
      </trkpt>
      <trkpt lat="42.70235" lon="1.40589">
        <ele>1690.102</ele>
        <time>2024-08-31T12:04:54Z</time>
      </trkpt>
      <trkpt lat="42.70236" lon="1.40586">
        <ele>1688.774</ele>
        <time>2024-08-31T12:04:56Z</time>
      </trkpt>
      <trkpt lat="42.70236" lon="1.40583">
        <ele>1687.515</ele>
        <time>2024-08-31T12:04:58Z</time>
      </trkpt>
      <trkpt lat="42.70236" lon="1.40579">
        <ele>1685.967</ele>
        <time>2024-08-31T12:05:00Z</time>
      </trkpt>
      <trkpt lat="42.70237" lon="1.40576">
        <ele>1686.242</ele>
        <time>2024-08-31T12:05:02Z</time>
      </trkpt>
      <trkpt lat="42.70238" lon="1.40574">
        <ele>1686.53</ele>
        <time>2024-08-31T12:05:04Z</time>
      </trkpt>
      <trkpt lat="42.70239" lon="1.40572">
        <ele>1685.558</ele>
        <time>2024-08-31T12:05:06Z</time>
      </trkpt>
      <trkpt lat="42.7024" lon="1.40569">
        <ele>1684.509</ele>
        <time>2024-08-31T12:05:08Z</time>
      </trkpt>
      <trkpt lat="42.7024" lon="1.40567">
        <ele>1684.393</ele>
        <time>2024-08-31T12:05:10Z</time>
      </trkpt>
      <trkpt lat="42.70241" lon="1.40565">
        <ele>1682.514</ele>
        <time>2024-08-31T12:05:12Z</time>
      </trkpt>
      <trkpt lat="42.70242" lon="1.40562">
        <ele>1682.157</ele>
        <time>2024-08-31T12:05:14Z</time>
      </trkpt>
      <trkpt lat="42.7024" lon="1.4056">
        <ele>1681.566</ele>
        <time>2024-08-31T12:05:16Z</time>
      </trkpt>
      <trkpt lat="42.7024" lon="1.40558">
        <ele>1680.55</ele>
        <time>2024-08-31T12:05:18Z</time>
      </trkpt>
      <trkpt lat="42.7024" lon="1.40558">
        <ele>1680.595</ele>
        <time>2024-08-31T12:05:20Z</time>
      </trkpt>
      <trkpt lat="42.7024" lon="1.40558">
        <ele>1680.402</ele>
        <time>2024-08-31T12:05:22Z</time>
      </trkpt>
      <trkpt lat="42.7024" lon="1.40558">
        <ele>1680.501</ele>
        <time>2024-08-31T12:05:24Z</time>
      </trkpt>
      <trkpt lat="42.7024" lon="1.40558">
        <ele>1680.206</ele>
        <time>2024-08-31T12:05:26Z</time>
      </trkpt>
      <trkpt lat="42.7024" lon="1.40558">
        <ele>1681.928</ele>
        <time>2024-08-31T12:05:28Z</time>
      </trkpt>
      <trkpt lat="42.7024" lon="1.40558">
        <ele>1681.994</ele>
        <time>2024-08-31T12:05:30Z</time>
      </trkpt>
      <trkpt lat="42.7024" lon="1.40558">
        <ele>1681.88</ele>
        <time>2024-08-31T12:05:32Z</time>
      </trkpt>
      <trkpt lat="42.7024" lon="1.40558">
        <ele>1682.164</ele>
        <time>2024-08-31T12:05:34Z</time>
      </trkpt>
      <trkpt lat="42.7024" lon="1.40558">
        <ele>1682.169</ele>
        <time>2024-08-31T12:05:36Z</time>
      </trkpt>
      <trkpt lat="42.7024" lon="1.40558">
        <ele>1682.29</ele>
        <time>2024-08-31T12:05:38Z</time>
      </trkpt>
      <trkpt lat="42.7024" lon="1.40558">
        <ele>1681.901</ele>
        <time>2024-08-31T12:05:40Z</time>
      </trkpt>
      <trkpt lat="42.7024" lon="1.40558">
        <ele>1680.246</ele>
        <time>2024-08-31T12:05:42Z</time>
      </trkpt>
      <trkpt lat="42.7024" lon="1.40558">
        <ele>1680.61</ele>
        <time>2024-08-31T12:05:44Z</time>
      </trkpt>
      <trkpt lat="42.7024" lon="1.40558">
        <ele>1680.603</ele>
        <time>2024-08-31T12:05:46Z</time>
      </trkpt>
      <trkpt lat="42.7024" lon="1.40558">
        <ele>1680.379</ele>
        <time>2024-08-31T12:05:48Z</time>
      </trkpt>
      <trkpt lat="42.7024" lon="1.40558">
        <ele>1679.394</ele>
        <time>2024-08-31T12:05:50Z</time>
      </trkpt>
      <trkpt lat="42.7024" lon="1.40558">
        <ele>1678.476</ele>
        <time>2024-08-31T12:05:52Z</time>
      </trkpt>
      <trkpt lat="42.70246" lon="1.40565">
        <ele>1678.568</ele>
        <time>2024-08-31T12:05:54Z</time>
      </trkpt>
      <trkpt lat="42.70246" lon="1.40565">
        <ele>1678.567</ele>
        <time>2024-08-31T12:05:56Z</time>
      </trkpt>
      <trkpt lat="42.70246" lon="1.40565">
        <ele>1678.588</ele>
        <time>2024-08-31T12:05:58Z</time>
      </trkpt>
      <trkpt lat="42.70246" lon="1.40566">
        <ele>1678.164</ele>
        <time>2024-08-31T12:06:00Z</time>
      </trkpt>
      <trkpt lat="42.70248" lon="1.40568">
        <ele>1678.117</ele>
        <time>2024-08-31T12:06:02Z</time>
      </trkpt>
      <trkpt lat="42.70249" lon="1.40568">
        <ele>1678.242</ele>
        <time>2024-08-31T12:06:04Z</time>
      </trkpt>
      <trkpt lat="42.7025" lon="1.40568">
        <ele>1677.89</ele>
        <time>2024-08-31T12:06:06Z</time>
      </trkpt>
      <trkpt lat="42.70251" lon="1.40568">
        <ele>1677.929</ele>
        <time>2024-08-31T12:06:08Z</time>
      </trkpt>
      <trkpt lat="42.70253" lon="1.40569">
        <ele>1677.802</ele>
        <time>2024-08-31T12:06:10Z</time>
      </trkpt>
      <trkpt lat="42.70253" lon="1.40571">
        <ele>1678.516</ele>
        <time>2024-08-31T12:06:12Z</time>
      </trkpt>
      <trkpt lat="42.70254" lon="1.40571">
        <ele>1676.999</ele>
        <time>2024-08-31T12:06:14Z</time>
      </trkpt>
      <trkpt lat="42.70255" lon="1.40573">
        <ele>1676.55</ele>
        <time>2024-08-31T12:06:16Z</time>
      </trkpt>
      <trkpt lat="42.70256" lon="1.40574">
        <ele>1676.028</ele>
        <time>2024-08-31T12:06:18Z</time>
      </trkpt>
      <trkpt lat="42.70258" lon="1.40574">
        <ele>1675.408</ele>
        <time>2024-08-31T12:06:20Z</time>
      </trkpt>
      <trkpt lat="42.70259" lon="1.40576">
        <ele>1675.281</ele>
        <time>2024-08-31T12:06:22Z</time>
      </trkpt>
      <trkpt lat="42.70261" lon="1.40578">
        <ele>1674.863</ele>
        <time>2024-08-31T12:06:24Z</time>
      </trkpt>
      <trkpt lat="42.70262" lon="1.40579">
        <ele>1673.82</ele>
        <time>2024-08-31T12:06:26Z</time>
      </trkpt>
      <trkpt lat="42.70263" lon="1.40581">
        <ele>1673.682</ele>
        <time>2024-08-31T12:06:28Z</time>
      </trkpt>
      <trkpt lat="42.70265" lon="1.40581">
        <ele>1673.243</ele>
        <time>2024-08-31T12:06:30Z</time>
      </trkpt>
      <trkpt lat="42.70266" lon="1.40583">
        <ele>1673.712</ele>
        <time>2024-08-31T12:06:32Z</time>
      </trkpt>
      <trkpt lat="42.70268" lon="1.40583">
        <ele>1672.935</ele>
        <time>2024-08-31T12:06:34Z</time>
      </trkpt>
      <trkpt lat="42.70269" lon="1.40583">
        <ele>1672.267</ele>
        <time>2024-08-31T12:06:36Z</time>
      </trkpt>
      <trkpt lat="42.70271" lon="1.40582">
        <ele>1672.082</ele>
        <time>2024-08-31T12:06:38Z</time>
      </trkpt>
      <trkpt lat="42.70271" lon="1.40582">
        <ele>1672.177</ele>
        <time>2024-08-31T12:06:40Z</time>
      </trkpt>
      <trkpt lat="42.70272" lon="1.40582">
        <ele>1672.253</ele>
        <time>2024-08-31T12:06:42Z</time>
      </trkpt>
      <trkpt lat="42.70274" lon="1.40582">
        <ele>1672.262</ele>
        <time>2024-08-31T12:06:44Z</time>
      </trkpt>
      <trkpt lat="42.70275" lon="1.40582">
        <ele>1672.233</ele>
        <time>2024-08-31T12:06:46Z</time>
      </trkpt>
      <trkpt lat="42.70276" lon="1.40579">
        <ele>1674.023</ele>
        <time>2024-08-31T12:06:48Z</time>
      </trkpt>
      <trkpt lat="42.70276" lon="1.40579">
        <ele>1673.13</ele>
        <time>2024-08-31T12:06:50Z</time>
      </trkpt>
      <trkpt lat="42.70276" lon="1.40579">
        <ele>1674.167</ele>
        <time>2024-08-31T12:06:52Z</time>
      </trkpt>
      <trkpt lat="42.70276" lon="1.40579">
        <ele>1674.566</ele>
        <time>2024-08-31T12:06:54Z</time>
      </trkpt>
      <trkpt lat="42.70276" lon="1.40579">
        <ele>1674.561</ele>
        <time>2024-08-31T12:06:56Z</time>
      </trkpt>
      <trkpt lat="42.70276" lon="1.40579">
        <ele>1674.561</ele>
        <time>2024-08-31T12:06:58Z</time>
      </trkpt>
      <trkpt lat="42.70276" lon="1.40579">
        <ele>1674.568</ele>
        <time>2024-08-31T12:07:00Z</time>
      </trkpt>
      <trkpt lat="42.70276" lon="1.40579">
        <ele>1674.569</ele>
        <time>2024-08-31T12:07:02Z</time>
      </trkpt>
      <trkpt lat="42.70276" lon="1.40579">
        <ele>1674.573</ele>
        <time>2024-08-31T12:07:04Z</time>
      </trkpt>
      <trkpt lat="42.70276" lon="1.40579">
        <ele>1674.573</ele>
        <time>2024-08-31T12:07:06Z</time>
      </trkpt>
      <trkpt lat="42.70276" lon="1.40579">
        <ele>1674.573</ele>
        <time>2024-08-31T12:07:08Z</time>
      </trkpt>
      <trkpt lat="42.70276" lon="1.40579">
        <ele>1674.575</ele>
        <time>2024-08-31T12:07:10Z</time>
      </trkpt>
      <trkpt lat="42.70276" lon="1.40579">
        <ele>1674.572</ele>
        <time>2024-08-31T12:07:12Z</time>
      </trkpt>
      <trkpt lat="42.70276" lon="1.40579">
        <ele>1674.575</ele>
        <time>2024-08-31T12:07:14Z</time>
      </trkpt>
      <trkpt lat="42.70276" lon="1.40579">
        <ele>1674.577</ele>
        <time>2024-08-31T12:07:16Z</time>
      </trkpt>
      <trkpt lat="42.70276" lon="1.40579">
        <ele>1674.576</ele>
        <time>2024-08-31T12:07:18Z</time>
      </trkpt>
      <trkpt lat="42.70276" lon="1.40579">
        <ele>1674.58</ele>
        <time>2024-08-31T12:07:20Z</time>
      </trkpt>
      <trkpt lat="42.70276" lon="1.40579">
        <ele>1674.579</ele>
        <time>2024-08-31T12:07:22Z</time>
      </trkpt>
      <trkpt lat="42.70276" lon="1.40579">
        <ele>1674.581</ele>
        <time>2024-08-31T12:07:24Z</time>
      </trkpt>
      <trkpt lat="42.70276" lon="1.40579">
        <ele>1674.581</ele>
        <time>2024-08-31T12:07:26Z</time>
      </trkpt>
      <trkpt lat="42.70276" lon="1.40579">
        <ele>1674.575</ele>
        <time>2024-08-31T12:07:28Z</time>
      </trkpt>
      <trkpt lat="42.70276" lon="1.40579">
        <ele>1674.581</ele>
        <time>2024-08-31T12:07:30Z</time>
      </trkpt>
      <trkpt lat="42.70276" lon="1.40579">
        <ele>1674.585</ele>
        <time>2024-08-31T12:07:32Z</time>
      </trkpt>
      <trkpt lat="42.70276" lon="1.40579">
        <ele>1674.589</ele>
        <time>2024-08-31T12:07:34Z</time>
      </trkpt>
      <trkpt lat="42.70276" lon="1.40579">
        <ele>1674.587</ele>
        <time>2024-08-31T12:07:36Z</time>
      </trkpt>
      <trkpt lat="42.70276" lon="1.40579">
        <ele>1674.591</ele>
        <time>2024-08-31T12:07:38Z</time>
      </trkpt>
      <trkpt lat="42.70276" lon="1.40579">
        <ele>1674.411</ele>
        <time>2024-08-31T12:07:40Z</time>
      </trkpt>
      <trkpt lat="42.70276" lon="1.40579">
        <ele>1674.11</ele>
        <time>2024-08-31T12:07:42Z</time>
      </trkpt>
      <trkpt lat="42.70276" lon="1.40579">
        <ele>1673.562</ele>
        <time>2024-08-31T12:07:44Z</time>
      </trkpt>
      <trkpt lat="42.70276" lon="1.40579">
        <ele>1674.429</ele>
        <time>2024-08-31T12:07:46Z</time>
      </trkpt>
      <trkpt lat="42.70276" lon="1.40579">
        <ele>1673.877</ele>
        <time>2024-08-31T12:07:48Z</time>
      </trkpt>
      <trkpt lat="42.70278" lon="1.40578">
        <ele>1673.948</ele>
        <time>2024-08-31T12:07:50Z</time>
      </trkpt>
      <trkpt lat="42.70279" lon="1.40579">
        <ele>1673.233</ele>
        <time>2024-08-31T12:07:52Z</time>
      </trkpt>
      <trkpt lat="42.70281" lon="1.40578">
        <ele>1671.723</ele>
        <time>2024-08-31T12:07:54Z</time>
      </trkpt>
      <trkpt lat="42.70282" lon="1.40579">
        <ele>1671.177</ele>
        <time>2024-08-31T12:07:56Z</time>
      </trkpt>
      <trkpt lat="42.70284" lon="1.4058">
        <ele>1670.457</ele>
        <time>2024-08-31T12:07:58Z</time>
      </trkpt>
      <trkpt lat="42.70286" lon="1.40581">
        <ele>1671.431</ele>
        <time>2024-08-31T12:08:00Z</time>
      </trkpt>
      <trkpt lat="42.70288" lon="1.40581">
        <ele>1670.436</ele>
        <time>2024-08-31T12:08:02Z</time>
      </trkpt>
      <trkpt lat="42.7029" lon="1.40581">
        <ele>1670.646</ele>
        <time>2024-08-31T12:08:04Z</time>
      </trkpt>
      <trkpt lat="42.70291" lon="1.40582">
        <ele>1670.358</ele>
        <time>2024-08-31T12:08:06Z</time>
      </trkpt>
      <trkpt lat="42.70294" lon="1.40583">
        <ele>1669.831</ele>
        <time>2024-08-31T12:08:08Z</time>
      </trkpt>
      <trkpt lat="42.70295" lon="1.40582">
        <ele>1669.649</ele>
        <time>2024-08-31T12:08:10Z</time>
      </trkpt>
      <trkpt lat="42.70297" lon="1.4058">
        <ele>1669.606</ele>
        <time>2024-08-31T12:08:12Z</time>
      </trkpt>
      <trkpt lat="42.70298" lon="1.40579">
        <ele>1668.335</ele>
        <time>2024-08-31T12:08:14Z</time>
      </trkpt>
      <trkpt lat="42.70299" lon="1.40578">
        <ele>1666.964</ele>
        <time>2024-08-31T12:08:16Z</time>
      </trkpt>
      <trkpt lat="42.70301" lon="1.40578">
        <ele>1666.407</ele>
        <time>2024-08-31T12:08:18Z</time>
      </trkpt>
      <trkpt lat="42.70302" lon="1.4058">
        <ele>1666.614</ele>
        <time>2024-08-31T12:08:20Z</time>
      </trkpt>
      <trkpt lat="42.70304" lon="1.40581">
        <ele>1667.278</ele>
        <time>2024-08-31T12:08:22Z</time>
      </trkpt>
      <trkpt lat="42.70306" lon="1.4058">
        <ele>1666.444</ele>
        <time>2024-08-31T12:08:24Z</time>
      </trkpt>
      <trkpt lat="42.70307" lon="1.4058">
        <ele>1665.451</ele>
        <time>2024-08-31T12:08:26Z</time>
      </trkpt>
      <trkpt lat="42.70308" lon="1.40582">
        <ele>1665.482</ele>
        <time>2024-08-31T12:08:28Z</time>
      </trkpt>
      <trkpt lat="42.70309" lon="1.40582">
        <ele>1665.033</ele>
        <time>2024-08-31T12:08:30Z</time>
      </trkpt>
      <trkpt lat="42.70311" lon="1.40581">
        <ele>1663.853</ele>
        <time>2024-08-31T12:08:32Z</time>
      </trkpt>
      <trkpt lat="42.70312" lon="1.40579">
        <ele>1664.58</ele>
        <time>2024-08-31T12:08:34Z</time>
      </trkpt>
      <trkpt lat="42.70314" lon="1.40579">
        <ele>1664.273</ele>
        <time>2024-08-31T12:08:36Z</time>
      </trkpt>
      <trkpt lat="42.70315" lon="1.40579">
        <ele>1663.132</ele>
        <time>2024-08-31T12:08:38Z</time>
      </trkpt>
      <trkpt lat="42.70316" lon="1.4058">
        <ele>1662.815</ele>
        <time>2024-08-31T12:08:40Z</time>
      </trkpt>
      <trkpt lat="42.70318" lon="1.40579">
        <ele>1661.435</ele>
        <time>2024-08-31T12:08:42Z</time>
      </trkpt>
      <trkpt lat="42.70319" lon="1.40578">
        <ele>1661.032</ele>
        <time>2024-08-31T12:08:44Z</time>
      </trkpt>
      <trkpt lat="42.70321" lon="1.40579">
        <ele>1660.667</ele>
        <time>2024-08-31T12:08:46Z</time>
      </trkpt>
      <trkpt lat="42.70323" lon="1.40579">
        <ele>1660.645</ele>
        <time>2024-08-31T12:08:48Z</time>
      </trkpt>
      <trkpt lat="42.70324" lon="1.40579">
        <ele>1660.844</ele>
        <time>2024-08-31T12:08:50Z</time>
      </trkpt>
      <trkpt lat="42.70326" lon="1.40578">
        <ele>1659.414</ele>
        <time>2024-08-31T12:08:52Z</time>
      </trkpt>
      <trkpt lat="42.70327" lon="1.40579">
        <ele>1659.115</ele>
        <time>2024-08-31T12:08:54Z</time>
      </trkpt>
      <trkpt lat="42.70328" lon="1.4058">
        <ele>1659.075</ele>
        <time>2024-08-31T12:08:56Z</time>
      </trkpt>
      <trkpt lat="42.7033" lon="1.40581">
        <ele>1658.497</ele>
        <time>2024-08-31T12:08:58Z</time>
      </trkpt>
      <trkpt lat="42.70331" lon="1.40581">
        <ele>1658.575</ele>
        <time>2024-08-31T12:09:00Z</time>
      </trkpt>
      <trkpt lat="42.70333" lon="1.40582">
        <ele>1657.993</ele>
        <time>2024-08-31T12:09:02Z</time>
      </trkpt>
      <trkpt lat="42.70334" lon="1.40582">
        <ele>1656.777</ele>
        <time>2024-08-31T12:09:04Z</time>
      </trkpt>
      <trkpt lat="42.70336" lon="1.40583">
        <ele>1655.194</ele>
        <time>2024-08-31T12:09:06Z</time>
      </trkpt>
      <trkpt lat="42.70338" lon="1.40583">
        <ele>1654.714</ele>
        <time>2024-08-31T12:09:08Z</time>
      </trkpt>
      <trkpt lat="42.70339" lon="1.40583">
        <ele>1653.898</ele>
        <time>2024-08-31T12:09:10Z</time>
      </trkpt>
      <trkpt lat="42.7034" lon="1.40585">
        <ele>1653.725</ele>
        <time>2024-08-31T12:09:12Z</time>
      </trkpt>
      <trkpt lat="42.70342" lon="1.40585">
        <ele>1653.909</ele>
        <time>2024-08-31T12:09:14Z</time>
      </trkpt>
      <trkpt lat="42.70344" lon="1.40585">
        <ele>1653.003</ele>
        <time>2024-08-31T12:09:16Z</time>
      </trkpt>
      <trkpt lat="42.70345" lon="1.40584">
        <ele>1652.627</ele>
        <time>2024-08-31T12:09:18Z</time>
      </trkpt>
      <trkpt lat="42.70345" lon="1.40584">
        <ele>1652.984</ele>
        <time>2024-08-31T12:09:20Z</time>
      </trkpt>
      <trkpt lat="42.70345" lon="1.40584">
        <ele>1652.979</ele>
        <time>2024-08-31T12:09:22Z</time>
      </trkpt>
      <trkpt lat="42.70345" lon="1.40584">
        <ele>1652.977</ele>
        <time>2024-08-31T12:09:24Z</time>
      </trkpt>
      <trkpt lat="42.70345" lon="1.40584">
        <ele>1652.979</ele>
        <time>2024-08-31T12:09:26Z</time>
      </trkpt>
      <trkpt lat="42.70345" lon="1.40584">
        <ele>1652.977</ele>
        <time>2024-08-31T12:09:28Z</time>
      </trkpt>
      <trkpt lat="42.70345" lon="1.40584">
        <ele>1652.98</ele>
        <time>2024-08-31T12:09:30Z</time>
      </trkpt>
      <trkpt lat="42.70345" lon="1.40584">
        <ele>1652.972</ele>
        <time>2024-08-31T12:09:32Z</time>
      </trkpt>
      <trkpt lat="42.70346" lon="1.40584">
        <ele>1653.022</ele>
        <time>2024-08-31T12:09:34Z</time>
      </trkpt>
      <trkpt lat="42.70347" lon="1.40582">
        <ele>1652.999</ele>
        <time>2024-08-31T12:09:36Z</time>
      </trkpt>
      <trkpt lat="42.70348" lon="1.40581">
        <ele>1652.617</ele>
        <time>2024-08-31T12:09:38Z</time>
      </trkpt>
      <trkpt lat="42.70349" lon="1.40581">
        <ele>1652.229</ele>
        <time>2024-08-31T12:09:40Z</time>
      </trkpt>
      <trkpt lat="42.7035" lon="1.40582">
        <ele>1652.41</ele>
        <time>2024-08-31T12:09:42Z</time>
      </trkpt>
      <trkpt lat="42.70351" lon="1.40581">
        <ele>1652.193</ele>
        <time>2024-08-31T12:09:44Z</time>
      </trkpt>
      <trkpt lat="42.70351" lon="1.4058">
        <ele>1651.712</ele>
        <time>2024-08-31T12:09:46Z</time>
      </trkpt>
      <trkpt lat="42.70352" lon="1.40581">
        <ele>1650.35</ele>
        <time>2024-08-31T12:09:48Z</time>
      </trkpt>
      <trkpt lat="42.70353" lon="1.40583">
        <ele>1649.734</ele>
        <time>2024-08-31T12:09:50Z</time>
      </trkpt>
      <trkpt lat="42.70353" lon="1.40585">
        <ele>1649.713</ele>
        <time>2024-08-31T12:09:52Z</time>
      </trkpt>
      <trkpt lat="42.70355" lon="1.40586">
        <ele>1649.424</ele>
        <time>2024-08-31T12:09:54Z</time>
      </trkpt>
      <trkpt lat="42.70356" lon="1.40587">
        <ele>1649.935</ele>
        <time>2024-08-31T12:09:56Z</time>
      </trkpt>
      <trkpt lat="42.70357" lon="1.40588">
        <ele>1649.305</ele>
        <time>2024-08-31T12:09:58Z</time>
      </trkpt>
      <trkpt lat="42.70358" lon="1.40589">
        <ele>1648.822</ele>
        <time>2024-08-31T12:10:00Z</time>
      </trkpt>
      <trkpt lat="42.70359" lon="1.4059">
        <ele>1648.9</ele>
        <time>2024-08-31T12:10:02Z</time>
      </trkpt>
      <trkpt lat="42.70361" lon="1.40591">
        <ele>1649.254</ele>
        <time>2024-08-31T12:10:04Z</time>
      </trkpt>
      <trkpt lat="42.70362" lon="1.40592">
        <ele>1648.33</ele>
        <time>2024-08-31T12:10:06Z</time>
      </trkpt>
      <trkpt lat="42.70363" lon="1.40593">
        <ele>1647.541</ele>
        <time>2024-08-31T12:10:08Z</time>
      </trkpt>
      <trkpt lat="42.70365" lon="1.40594">
        <ele>1648.077</ele>
        <time>2024-08-31T12:10:10Z</time>
      </trkpt>
      <trkpt lat="42.70366" lon="1.40595">
        <ele>1647.972</ele>
        <time>2024-08-31T12:10:12Z</time>
      </trkpt>
      <trkpt lat="42.70367" lon="1.40595">
        <ele>1647.519</ele>
        <time>2024-08-31T12:10:14Z</time>
      </trkpt>
      <trkpt lat="42.70369" lon="1.40596">
        <ele>1647.261</ele>
        <time>2024-08-31T12:10:16Z</time>
      </trkpt>
      <trkpt lat="42.70371" lon="1.40598">
        <ele>1647.002</ele>
        <time>2024-08-31T12:10:18Z</time>
      </trkpt>
      <trkpt lat="42.70371" lon="1.406">
        <ele>1646.751</ele>
        <time>2024-08-31T12:10:20Z</time>
      </trkpt>
      <trkpt lat="42.70372" lon="1.40603">
        <ele>1646.172</ele>
        <time>2024-08-31T12:10:22Z</time>
      </trkpt>
      <trkpt lat="42.70373" lon="1.40604">
        <ele>1646.086</ele>
        <time>2024-08-31T12:10:24Z</time>
      </trkpt>
      <trkpt lat="42.70375" lon="1.40604">
        <ele>1644.763</ele>
        <time>2024-08-31T12:10:26Z</time>
      </trkpt>
      <trkpt lat="42.70377" lon="1.40605">
        <ele>1643.994</ele>
        <time>2024-08-31T12:10:28Z</time>
      </trkpt>
      <trkpt lat="42.70379" lon="1.40606">
        <ele>1645.229</ele>
        <time>2024-08-31T12:10:30Z</time>
      </trkpt>
      <trkpt lat="42.70381" lon="1.40605">
        <ele>1644.715</ele>
        <time>2024-08-31T12:10:32Z</time>
      </trkpt>
      <trkpt lat="42.70382" lon="1.40604">
        <ele>1643.673</ele>
        <time>2024-08-31T12:10:34Z</time>
      </trkpt>
      <trkpt lat="42.70384" lon="1.40605">
        <ele>1642.628</ele>
        <time>2024-08-31T12:10:36Z</time>
      </trkpt>
      <trkpt lat="42.70385" lon="1.40606">
        <ele>1641.825</ele>
        <time>2024-08-31T12:10:38Z</time>
      </trkpt>
      <trkpt lat="42.70386" lon="1.40605">
        <ele>1640.315</ele>
        <time>2024-08-31T12:10:40Z</time>
      </trkpt>
      <trkpt lat="42.70388" lon="1.40605">
        <ele>1639.316</ele>
        <time>2024-08-31T12:10:42Z</time>
      </trkpt>
      <trkpt lat="42.70388" lon="1.40607">
        <ele>1639.885</ele>
        <time>2024-08-31T12:10:44Z</time>
      </trkpt>
      <trkpt lat="42.7039" lon="1.40607">
        <ele>1639.669</ele>
        <time>2024-08-31T12:10:46Z</time>
      </trkpt>
      <trkpt lat="42.70392" lon="1.40606">
        <ele>1638.636</ele>
        <time>2024-08-31T12:10:48Z</time>
      </trkpt>
      <trkpt lat="42.70393" lon="1.40608">
        <ele>1637.878</ele>
        <time>2024-08-31T12:10:50Z</time>
      </trkpt>
      <trkpt lat="42.70395" lon="1.40609">
        <ele>1637.397</ele>
        <time>2024-08-31T12:10:52Z</time>
      </trkpt>
      <trkpt lat="42.70396" lon="1.4061">
        <ele>1636.681</ele>
        <time>2024-08-31T12:10:54Z</time>
      </trkpt>
      <trkpt lat="42.70396" lon="1.40612">
        <ele>1636.802</ele>
        <time>2024-08-31T12:10:56Z</time>
      </trkpt>
      <trkpt lat="42.70397" lon="1.40615">
        <ele>1636.55</ele>
        <time>2024-08-31T12:10:58Z</time>
      </trkpt>
      <trkpt lat="42.70397" lon="1.40616">
        <ele>1637.292</ele>
        <time>2024-08-31T12:11:00Z</time>
      </trkpt>
      <trkpt lat="42.70397" lon="1.40618">
        <ele>1637.143</ele>
        <time>2024-08-31T12:11:02Z</time>
      </trkpt>
      <trkpt lat="42.70398" lon="1.40619">
        <ele>1636.397</ele>
        <time>2024-08-31T12:11:04Z</time>
      </trkpt>
      <trkpt lat="42.704" lon="1.4062">
        <ele>1635.102</ele>
        <time>2024-08-31T12:11:06Z</time>
      </trkpt>
      <trkpt lat="42.70401" lon="1.40621">
        <ele>1634.241</ele>
        <time>2024-08-31T12:11:08Z</time>
      </trkpt>
      <trkpt lat="42.70401" lon="1.40623">
        <ele>1633.181</ele>
        <time>2024-08-31T12:11:10Z</time>
      </trkpt>
      <trkpt lat="42.70402" lon="1.40624">
        <ele>1632.702</ele>
        <time>2024-08-31T12:11:12Z</time>
      </trkpt>
      <trkpt lat="42.70402" lon="1.40626">
        <ele>1632.392</ele>
        <time>2024-08-31T12:11:14Z</time>
      </trkpt>
      <trkpt lat="42.70403" lon="1.40627">
        <ele>1631.666</ele>
        <time>2024-08-31T12:11:16Z</time>
      </trkpt>
      <trkpt lat="42.70403" lon="1.4063">
        <ele>1631.578</ele>
        <time>2024-08-31T12:11:18Z</time>
      </trkpt>
      <trkpt lat="42.70404" lon="1.40631">
        <ele>1630.46</ele>
        <time>2024-08-31T12:11:20Z</time>
      </trkpt>
      <trkpt lat="42.70405" lon="1.40632">
        <ele>1629.945</ele>
        <time>2024-08-31T12:11:22Z</time>
      </trkpt>
      <trkpt lat="42.70407" lon="1.40634">
        <ele>1629.671</ele>
        <time>2024-08-31T12:11:24Z</time>
      </trkpt>
      <trkpt lat="42.70408" lon="1.40635">
        <ele>1629.869</ele>
        <time>2024-08-31T12:11:26Z</time>
      </trkpt>
      <trkpt lat="42.7041" lon="1.40635">
        <ele>1630.495</ele>
        <time>2024-08-31T12:11:28Z</time>
      </trkpt>
      <trkpt lat="42.70411" lon="1.40638">
        <ele>1629.279</ele>
        <time>2024-08-31T12:11:30Z</time>
      </trkpt>
      <trkpt lat="42.70411" lon="1.4064">
        <ele>1629.502</ele>
        <time>2024-08-31T12:11:32Z</time>
      </trkpt>
      <trkpt lat="42.70412" lon="1.40641">
        <ele>1628.59</ele>
        <time>2024-08-31T12:11:34Z</time>
      </trkpt>
      <trkpt lat="42.70414" lon="1.40641">
        <ele>1628.485</ele>
        <time>2024-08-31T12:11:36Z</time>
      </trkpt>
      <trkpt lat="42.70416" lon="1.4064">
        <ele>1626.788</ele>
        <time>2024-08-31T12:11:38Z</time>
      </trkpt>
      <trkpt lat="42.70416" lon="1.40638">
        <ele>1625.337</ele>
        <time>2024-08-31T12:11:40Z</time>
      </trkpt>
      <trkpt lat="42.70417" lon="1.40636">
        <ele>1624.614</ele>
        <time>2024-08-31T12:11:42Z</time>
      </trkpt>
      <trkpt lat="42.70419" lon="1.40635">
        <ele>1623.882</ele>
        <time>2024-08-31T12:11:44Z</time>
      </trkpt>
      <trkpt lat="42.7042" lon="1.40635">
        <ele>1622.493</ele>
        <time>2024-08-31T12:11:46Z</time>
      </trkpt>
      <trkpt lat="42.70422" lon="1.40635">
        <ele>1621.42</ele>
        <time>2024-08-31T12:11:48Z</time>
      </trkpt>
      <trkpt lat="42.70423" lon="1.40637">
        <ele>1620.85</ele>
        <time>2024-08-31T12:11:50Z</time>
      </trkpt>
      <trkpt lat="42.70424" lon="1.40638">
        <ele>1620.811</ele>
        <time>2024-08-31T12:11:52Z</time>
      </trkpt>
      <trkpt lat="42.70425" lon="1.4064">
        <ele>1620.471</ele>
        <time>2024-08-31T12:11:54Z</time>
      </trkpt>
      <trkpt lat="42.70427" lon="1.40639">
        <ele>1620.712</ele>
        <time>2024-08-31T12:11:56Z</time>
      </trkpt>
      <trkpt lat="42.70428" lon="1.40641">
        <ele>1619.055</ele>
        <time>2024-08-31T12:11:58Z</time>
      </trkpt>
      <trkpt lat="42.70427" lon="1.40642">
        <ele>1618.861</ele>
        <time>2024-08-31T12:12:00Z</time>
      </trkpt>
      <trkpt lat="42.70427" lon="1.40642">
        <ele>1618.864</ele>
        <time>2024-08-31T12:12:02Z</time>
      </trkpt>
      <trkpt lat="42.70427" lon="1.40642">
        <ele>1619.163</ele>
        <time>2024-08-31T12:12:04Z</time>
      </trkpt>
      <trkpt lat="42.70427" lon="1.40642">
        <ele>1618.639</ele>
        <time>2024-08-31T12:12:06Z</time>
      </trkpt>
      <trkpt lat="42.70427" lon="1.40642">
        <ele>1618.637</ele>
        <time>2024-08-31T12:12:08Z</time>
      </trkpt>
      <trkpt lat="42.70427" lon="1.40642">
        <ele>1618.636</ele>
        <time>2024-08-31T12:12:10Z</time>
      </trkpt>
      <trkpt lat="42.70427" lon="1.40642">
        <ele>1618.635</ele>
        <time>2024-08-31T12:12:12Z</time>
      </trkpt>
      <trkpt lat="42.70427" lon="1.40642">
        <ele>1618.631</ele>
        <time>2024-08-31T12:12:14Z</time>
      </trkpt>
      <trkpt lat="42.70427" lon="1.40642">
        <ele>1618.63</ele>
        <time>2024-08-31T12:12:16Z</time>
      </trkpt>
      <trkpt lat="42.70427" lon="1.40642">
        <ele>1618.628</ele>
        <time>2024-08-31T12:12:18Z</time>
      </trkpt>
      <trkpt lat="42.70427" lon="1.40642">
        <ele>1618.623</ele>
        <time>2024-08-31T12:12:20Z</time>
      </trkpt>
      <trkpt lat="42.70427" lon="1.40642">
        <ele>1618.621</ele>
        <time>2024-08-31T12:12:22Z</time>
      </trkpt>
      <trkpt lat="42.70427" lon="1.40642">
        <ele>1618.617</ele>
        <time>2024-08-31T12:12:24Z</time>
      </trkpt>
      <trkpt lat="42.70427" lon="1.40642">
        <ele>1618.615</ele>
        <time>2024-08-31T12:12:26Z</time>
      </trkpt>
      <trkpt lat="42.70427" lon="1.40642">
        <ele>1618.612</ele>
        <time>2024-08-31T12:12:28Z</time>
      </trkpt>
      <trkpt lat="42.70427" lon="1.40642">
        <ele>1618.608</ele>
        <time>2024-08-31T12:12:30Z</time>
      </trkpt>
      <trkpt lat="42.70427" lon="1.40642">
        <ele>1618.608</ele>
        <time>2024-08-31T12:12:32Z</time>
      </trkpt>
      <trkpt lat="42.70427" lon="1.40642">
        <ele>1618.607</ele>
        <time>2024-08-31T12:12:34Z</time>
      </trkpt>
      <trkpt lat="42.70427" lon="1.40642">
        <ele>1618.607</ele>
        <time>2024-08-31T12:12:36Z</time>
      </trkpt>
      <trkpt lat="42.70427" lon="1.40642">
        <ele>1618.61</ele>
        <time>2024-08-31T12:12:38Z</time>
      </trkpt>
      <trkpt lat="42.70427" lon="1.40642">
        <ele>1618.608</ele>
        <time>2024-08-31T12:12:40Z</time>
      </trkpt>
      <trkpt lat="42.70427" lon="1.40642">
        <ele>1618.609</ele>
        <time>2024-08-31T12:12:42Z</time>
      </trkpt>
      <trkpt lat="42.70427" lon="1.40642">
        <ele>1618.609</ele>
        <time>2024-08-31T12:12:44Z</time>
      </trkpt>
      <trkpt lat="42.70427" lon="1.40642">
        <ele>1618.603</ele>
        <time>2024-08-31T12:12:46Z</time>
      </trkpt>
      <trkpt lat="42.70427" lon="1.40642">
        <ele>1618.598</ele>
        <time>2024-08-31T12:12:48Z</time>
      </trkpt>
      <trkpt lat="42.70427" lon="1.40642">
        <ele>1618.6</ele>
        <time>2024-08-31T12:12:50Z</time>
      </trkpt>
      <trkpt lat="42.70427" lon="1.40642">
        <ele>1618.596</ele>
        <time>2024-08-31T12:12:52Z</time>
      </trkpt>
      <trkpt lat="42.70427" lon="1.40642">
        <ele>1618.594</ele>
        <time>2024-08-31T12:12:54Z</time>
      </trkpt>
      <trkpt lat="42.70427" lon="1.40642">
        <ele>1618.594</ele>
        <time>2024-08-31T12:12:56Z</time>
      </trkpt>
      <trkpt lat="42.70427" lon="1.40642">
        <ele>1618.594</ele>
        <time>2024-08-31T12:12:58Z</time>
      </trkpt>
      <trkpt lat="42.70427" lon="1.40642">
        <ele>1618.598</ele>
        <time>2024-08-31T12:13:00Z</time>
      </trkpt>
      <trkpt lat="42.70427" lon="1.40642">
        <ele>1618.596</ele>
        <time>2024-08-31T12:13:02Z</time>
      </trkpt>
      <trkpt lat="42.70427" lon="1.40642">
        <ele>1618.597</ele>
        <time>2024-08-31T12:13:04Z</time>
      </trkpt>
      <trkpt lat="42.70427" lon="1.40642">
        <ele>1618.597</ele>
        <time>2024-08-31T12:13:06Z</time>
      </trkpt>
      <trkpt lat="42.70427" lon="1.40642">
        <ele>1618.597</ele>
        <time>2024-08-31T12:13:08Z</time>
      </trkpt>
      <trkpt lat="42.70427" lon="1.40642">
        <ele>1618.599</ele>
        <time>2024-08-31T12:13:10Z</time>
      </trkpt>
      <trkpt lat="42.70427" lon="1.40642">
        <ele>1618.599</ele>
        <time>2024-08-31T12:13:12Z</time>
      </trkpt>
      <trkpt lat="42.70427" lon="1.40642">
        <ele>1618.601</ele>
        <time>2024-08-31T12:13:14Z</time>
      </trkpt>
      <trkpt lat="42.70427" lon="1.40642">
        <ele>1618.594</ele>
        <time>2024-08-31T12:13:16Z</time>
      </trkpt>
      <trkpt lat="42.70427" lon="1.40642">
        <ele>1618.589</ele>
        <time>2024-08-31T12:13:18Z</time>
      </trkpt>
      <trkpt lat="42.70427" lon="1.40642">
        <ele>1618.585</ele>
        <time>2024-08-31T12:13:20Z</time>
      </trkpt>
      <trkpt lat="42.70427" lon="1.40642">
        <ele>1618.486</ele>
        <time>2024-08-31T12:13:22Z</time>
      </trkpt>
      <trkpt lat="42.70427" lon="1.40643">
        <ele>1619.325</ele>
        <time>2024-08-31T12:13:24Z</time>
      </trkpt>
      <trkpt lat="42.70427" lon="1.40644">
        <ele>1619.807</ele>
        <time>2024-08-31T12:13:26Z</time>
      </trkpt>
      <trkpt lat="42.70427" lon="1.40645">
        <ele>1620.466</ele>
        <time>2024-08-31T12:13:28Z</time>
      </trkpt>
      <trkpt lat="42.70428" lon="1.40647">
        <ele>1620.941</ele>
        <time>2024-08-31T12:13:30Z</time>
      </trkpt>
      <trkpt lat="42.70428" lon="1.40648">
        <ele>1621.507</ele>
        <time>2024-08-31T12:13:32Z</time>
      </trkpt>
      <trkpt lat="42.70428" lon="1.4065">
        <ele>1620.894</ele>
        <time>2024-08-31T12:13:34Z</time>
      </trkpt>
      <trkpt lat="42.70427" lon="1.40653">
        <ele>1621.296</ele>
        <time>2024-08-31T12:13:36Z</time>
      </trkpt>
      <trkpt lat="42.70427" lon="1.40654">
        <ele>1623.289</ele>
        <time>2024-08-31T12:13:38Z</time>
      </trkpt>
      <trkpt lat="42.70428" lon="1.40656">
        <ele>1622.961</ele>
        <time>2024-08-31T12:13:40Z</time>
      </trkpt>
      <trkpt lat="42.70429" lon="1.40657">
        <ele>1622.406</ele>
        <time>2024-08-31T12:13:42Z</time>
      </trkpt>
      <trkpt lat="42.7043" lon="1.40658">
        <ele>1622.214</ele>
        <time>2024-08-31T12:13:44Z</time>
      </trkpt>
      <trkpt lat="42.70431" lon="1.4066">
        <ele>1622.552</ele>
        <time>2024-08-31T12:13:46Z</time>
      </trkpt>
      <trkpt lat="42.70432" lon="1.40661">
        <ele>1622.407</ele>
        <time>2024-08-31T12:13:48Z</time>
      </trkpt>
      <trkpt lat="42.70433" lon="1.40662">
        <ele>1621.497</ele>
        <time>2024-08-31T12:13:50Z</time>
      </trkpt>
      <trkpt lat="42.70434" lon="1.40661">
        <ele>1620.498</ele>
        <time>2024-08-31T12:13:52Z</time>
      </trkpt>
      <trkpt lat="42.70436" lon="1.40659">
        <ele>1620.058</ele>
        <time>2024-08-31T12:13:54Z</time>
      </trkpt>
      <trkpt lat="42.70438" lon="1.40657">
        <ele>1619.97</ele>
        <time>2024-08-31T12:13:56Z</time>
      </trkpt>
      <trkpt lat="42.70439" lon="1.40656">
        <ele>1620.371</ele>
        <time>2024-08-31T12:13:58Z</time>
      </trkpt>
      <trkpt lat="42.7044" lon="1.40656">
        <ele>1619.927</ele>
        <time>2024-08-31T12:14:00Z</time>
      </trkpt>
      <trkpt lat="42.70441" lon="1.40656">
        <ele>1619.413</ele>
        <time>2024-08-31T12:14:02Z</time>
      </trkpt>
      <trkpt lat="42.70441" lon="1.40656">
        <ele>1618.962</ele>
        <time>2024-08-31T12:14:04Z</time>
      </trkpt>
      <trkpt lat="42.70443" lon="1.40658">
        <ele>1618.372</ele>
        <time>2024-08-31T12:14:06Z</time>
      </trkpt>
      <trkpt lat="42.70442" lon="1.4066">
        <ele>1616.63</ele>
        <time>2024-08-31T12:14:09Z</time>
      </trkpt>
      <trkpt lat="42.70444" lon="1.40664">
        <ele>1615.261</ele>
        <time>2024-08-31T12:14:11Z</time>
      </trkpt>
      <trkpt lat="42.70446" lon="1.40664">
        <ele>1615.662</ele>
        <time>2024-08-31T12:14:13Z</time>
      </trkpt>
      <trkpt lat="42.70448" lon="1.40664">
        <ele>1616.09</ele>
        <time>2024-08-31T12:14:15Z</time>
      </trkpt>
      <trkpt lat="42.7045" lon="1.40663">
        <ele>1614.867</ele>
        <time>2024-08-31T12:14:17Z</time>
      </trkpt>
      <trkpt lat="42.70452" lon="1.40664">
        <ele>1613.843</ele>
        <time>2024-08-31T12:14:19Z</time>
      </trkpt>
      <trkpt lat="42.70453" lon="1.40665">
        <ele>1613.398</ele>
        <time>2024-08-31T12:14:21Z</time>
      </trkpt>
      <trkpt lat="42.70453" lon="1.40665">
        <ele>1612.8</ele>
        <time>2024-08-31T12:14:23Z</time>
      </trkpt>
      <trkpt lat="42.70454" lon="1.40664">
        <ele>1612.395</ele>
        <time>2024-08-31T12:14:25Z</time>
      </trkpt>
      <trkpt lat="42.70456" lon="1.40663">
        <ele>1612.083</ele>
        <time>2024-08-31T12:14:27Z</time>
      </trkpt>
      <trkpt lat="42.70457" lon="1.40663">
        <ele>1612.666</ele>
        <time>2024-08-31T12:14:29Z</time>
      </trkpt>
      <trkpt lat="42.70459" lon="1.40662">
        <ele>1611.763</ele>
        <time>2024-08-31T12:14:31Z</time>
      </trkpt>
      <trkpt lat="42.70459" lon="1.40658">
        <ele>1610.27</ele>
        <time>2024-08-31T12:14:33Z</time>
      </trkpt>
      <trkpt lat="42.70459" lon="1.40655">
        <ele>1611.064</ele>
        <time>2024-08-31T12:14:35Z</time>
      </trkpt>
      <trkpt lat="42.70461" lon="1.40653">
        <ele>1610.529</ele>
        <time>2024-08-31T12:14:37Z</time>
      </trkpt>
      <trkpt lat="42.70462" lon="1.40654">
        <ele>1610.086</ele>
        <time>2024-08-31T12:14:39Z</time>
      </trkpt>
      <trkpt lat="42.70462" lon="1.40654">
        <ele>1609.682</ele>
        <time>2024-08-31T12:14:41Z</time>
      </trkpt>
      <trkpt lat="42.70462" lon="1.40654">
        <ele>1608.196</ele>
        <time>2024-08-31T12:14:43Z</time>
      </trkpt>
      <trkpt lat="42.70464" lon="1.40653">
        <ele>1607.599</ele>
        <time>2024-08-31T12:14:45Z</time>
      </trkpt>
      <trkpt lat="42.70465" lon="1.40651">
        <ele>1606.317</ele>
        <time>2024-08-31T12:14:47Z</time>
      </trkpt>
      <trkpt lat="42.70466" lon="1.40648">
        <ele>1605.684</ele>
        <time>2024-08-31T12:14:49Z</time>
      </trkpt>
      <trkpt lat="42.70467" lon="1.40646">
        <ele>1603.499</ele>
        <time>2024-08-31T12:14:51Z</time>
      </trkpt>
      <trkpt lat="42.70468" lon="1.40644">
        <ele>1603.41</ele>
        <time>2024-08-31T12:14:53Z</time>
      </trkpt>
      <trkpt lat="42.70469" lon="1.40643">
        <ele>1603.195</ele>
        <time>2024-08-31T12:14:55Z</time>
      </trkpt>
      <trkpt lat="42.7047" lon="1.40641">
        <ele>1603.035</ele>
        <time>2024-08-31T12:14:57Z</time>
      </trkpt>
      <trkpt lat="42.70471" lon="1.40639">
        <ele>1601.141</ele>
        <time>2024-08-31T12:14:59Z</time>
      </trkpt>
      <trkpt lat="42.70472" lon="1.40638">
        <ele>1601.809</ele>
        <time>2024-08-31T12:15:01Z</time>
      </trkpt>
      <trkpt lat="42.70473" lon="1.40639">
        <ele>1601.259</ele>
        <time>2024-08-31T12:15:03Z</time>
      </trkpt>
      <trkpt lat="42.70474" lon="1.40639">
        <ele>1601.486</ele>
        <time>2024-08-31T12:15:05Z</time>
      </trkpt>
      <trkpt lat="42.70475" lon="1.40641">
        <ele>1601.405</ele>
        <time>2024-08-31T12:15:07Z</time>
      </trkpt>
      <trkpt lat="42.70476" lon="1.40643">
        <ele>1601.005</ele>
        <time>2024-08-31T12:15:09Z</time>
      </trkpt>
      <trkpt lat="42.70476" lon="1.40644">
        <ele>1600.678</ele>
        <time>2024-08-31T12:15:11Z</time>
      </trkpt>
      <trkpt lat="42.70476" lon="1.40647">
        <ele>1600.106</ele>
        <time>2024-08-31T12:15:13Z</time>
      </trkpt>
      <trkpt lat="42.70475" lon="1.40648">
        <ele>1599.48</ele>
        <time>2024-08-31T12:15:15Z</time>
      </trkpt>
      <trkpt lat="42.70474" lon="1.4065">
        <ele>1597.848</ele>
        <time>2024-08-31T12:15:17Z</time>
      </trkpt>
      <trkpt lat="42.70474" lon="1.40652">
        <ele>1595.776</ele>
        <time>2024-08-31T12:15:19Z</time>
      </trkpt>
      <trkpt lat="42.70475" lon="1.40654">
        <ele>1595.133</ele>
        <time>2024-08-31T12:15:21Z</time>
      </trkpt>
      <trkpt lat="42.70476" lon="1.40655">
        <ele>1594.493</ele>
        <time>2024-08-31T12:15:23Z</time>
      </trkpt>
      <trkpt lat="42.70479" lon="1.40654">
        <ele>1594.557</ele>
        <time>2024-08-31T12:15:25Z</time>
      </trkpt>
      <trkpt lat="42.70481" lon="1.40655">
        <ele>1594.182</ele>
        <time>2024-08-31T12:15:27Z</time>
      </trkpt>
      <trkpt lat="42.70482" lon="1.40654">
        <ele>1594.421</ele>
        <time>2024-08-31T12:15:29Z</time>
      </trkpt>
      <trkpt lat="42.70483" lon="1.40652">
        <ele>1594.543</ele>
        <time>2024-08-31T12:15:31Z</time>
      </trkpt>
      <trkpt lat="42.70484" lon="1.40651">
        <ele>1594.095</ele>
        <time>2024-08-31T12:15:33Z</time>
      </trkpt>
      <trkpt lat="42.70486" lon="1.40651">
        <ele>1593.666</ele>
        <time>2024-08-31T12:15:35Z</time>
      </trkpt>
      <trkpt lat="42.70487" lon="1.40651">
        <ele>1591.599</ele>
        <time>2024-08-31T12:15:37Z</time>
      </trkpt>
      <trkpt lat="42.70489" lon="1.40652">
        <ele>1590.942</ele>
        <time>2024-08-31T12:15:39Z</time>
      </trkpt>
      <trkpt lat="42.70491" lon="1.40653">
        <ele>1591.259</ele>
        <time>2024-08-31T12:15:41Z</time>
      </trkpt>
      <trkpt lat="42.70492" lon="1.40654">
        <ele>1591.379</ele>
        <time>2024-08-31T12:15:43Z</time>
      </trkpt>
      <trkpt lat="42.70494" lon="1.40653">
        <ele>1591.137</ele>
        <time>2024-08-31T12:15:45Z</time>
      </trkpt>
      <trkpt lat="42.70494" lon="1.40655">
        <ele>1590.517</ele>
        <time>2024-08-31T12:15:47Z</time>
      </trkpt>
      <trkpt lat="42.70494" lon="1.40656">
        <ele>1589.285</ele>
        <time>2024-08-31T12:15:49Z</time>
      </trkpt>
      <trkpt lat="42.70495" lon="1.40657">
        <ele>1588.465</ele>
        <time>2024-08-31T12:15:51Z</time>
      </trkpt>
      <trkpt lat="42.70495" lon="1.40659">
        <ele>1587.299</ele>
        <time>2024-08-31T12:15:53Z</time>
      </trkpt>
      <trkpt lat="42.70495" lon="1.40661">
        <ele>1586.945</ele>
        <time>2024-08-31T12:15:55Z</time>
      </trkpt>
      <trkpt lat="42.70495" lon="1.40662">
        <ele>1585.576</ele>
        <time>2024-08-31T12:15:57Z</time>
      </trkpt>
      <trkpt lat="42.70495" lon="1.40664">
        <ele>1585.261</ele>
        <time>2024-08-31T12:15:59Z</time>
      </trkpt>
      <trkpt lat="42.70496" lon="1.40666">
        <ele>1584.802</ele>
        <time>2024-08-31T12:16:01Z</time>
      </trkpt>
      <trkpt lat="42.70496" lon="1.40668">
        <ele>1583.538</ele>
        <time>2024-08-31T12:16:03Z</time>
      </trkpt>
      <trkpt lat="42.70497" lon="1.40669">
        <ele>1583.314</ele>
        <time>2024-08-31T12:16:05Z</time>
      </trkpt>
      <trkpt lat="42.70498" lon="1.4067">
        <ele>1582.818</ele>
        <time>2024-08-31T12:16:07Z</time>
      </trkpt>
      <trkpt lat="42.705" lon="1.4067">
        <ele>1583.345</ele>
        <time>2024-08-31T12:16:09Z</time>
      </trkpt>
      <trkpt lat="42.70502" lon="1.40671">
        <ele>1583.009</ele>
        <time>2024-08-31T12:16:11Z</time>
      </trkpt>
      <trkpt lat="42.70503" lon="1.4067">
        <ele>1582.204</ele>
        <time>2024-08-31T12:16:13Z</time>
      </trkpt>
      <trkpt lat="42.70504" lon="1.40668">
        <ele>1581.759</ele>
        <time>2024-08-31T12:16:15Z</time>
      </trkpt>
      <trkpt lat="42.70506" lon="1.40666">
        <ele>1580.466</ele>
        <time>2024-08-31T12:16:17Z</time>
      </trkpt>
      <trkpt lat="42.70508" lon="1.40665">
        <ele>1580.384</ele>
        <time>2024-08-31T12:16:19Z</time>
      </trkpt>
      <trkpt lat="42.70509" lon="1.40663">
        <ele>1579.222</ele>
        <time>2024-08-31T12:16:21Z</time>
      </trkpt>
      <trkpt lat="42.70511" lon="1.40663">
        <ele>1578.688</ele>
        <time>2024-08-31T12:16:23Z</time>
      </trkpt>
      <trkpt lat="42.70512" lon="1.40664">
        <ele>1578.458</ele>
        <time>2024-08-31T12:16:25Z</time>
      </trkpt>
      <trkpt lat="42.70514" lon="1.40664">
        <ele>1578.035</ele>
        <time>2024-08-31T12:16:27Z</time>
      </trkpt>
      <trkpt lat="42.70516" lon="1.40662">
        <ele>1577.897</ele>
        <time>2024-08-31T12:16:29Z</time>
      </trkpt>
      <trkpt lat="42.70517" lon="1.4066">
        <ele>1577.761</ele>
        <time>2024-08-31T12:16:31Z</time>
      </trkpt>
      <trkpt lat="42.70519" lon="1.40659">
        <ele>1577.585</ele>
        <time>2024-08-31T12:16:33Z</time>
      </trkpt>
      <trkpt lat="42.7052" lon="1.40657">
        <ele>1576.441</ele>
        <time>2024-08-31T12:16:35Z</time>
      </trkpt>
      <trkpt lat="42.70519" lon="1.40654">
        <ele>1576.583</ele>
        <time>2024-08-31T12:16:37Z</time>
      </trkpt>
      <trkpt lat="42.70521" lon="1.40652">
        <ele>1574.499</ele>
        <time>2024-08-31T12:16:39Z</time>
      </trkpt>
      <trkpt lat="42.70522" lon="1.40654">
        <ele>1573.667</ele>
        <time>2024-08-31T12:16:41Z</time>
      </trkpt>
      <trkpt lat="42.70523" lon="1.40656">
        <ele>1573.576</ele>
        <time>2024-08-31T12:16:43Z</time>
      </trkpt>
      <trkpt lat="42.70523" lon="1.40659">
        <ele>1572.464</ele>
        <time>2024-08-31T12:16:45Z</time>
      </trkpt>
      <trkpt lat="42.70522" lon="1.4066">
        <ele>1572.749</ele>
        <time>2024-08-31T12:16:47Z</time>
      </trkpt>
      <trkpt lat="42.70523" lon="1.40662">
        <ele>1572.094</ele>
        <time>2024-08-31T12:16:49Z</time>
      </trkpt>
      <trkpt lat="42.70523" lon="1.40664">
        <ele>1572.342</ele>
        <time>2024-08-31T12:16:51Z</time>
      </trkpt>
      <trkpt lat="42.70523" lon="1.40666">
        <ele>1571.331</ele>
        <time>2024-08-31T12:16:53Z</time>
      </trkpt>
      <trkpt lat="42.70523" lon="1.40667">
        <ele>1570.025</ele>
        <time>2024-08-31T12:16:55Z</time>
      </trkpt>
      <trkpt lat="42.70522" lon="1.4067">
        <ele>1568.451</ele>
        <time>2024-08-31T12:16:57Z</time>
      </trkpt>
      <trkpt lat="42.70522" lon="1.40672">
        <ele>1568.901</ele>
        <time>2024-08-31T12:16:59Z</time>
      </trkpt>
      <trkpt lat="42.70523" lon="1.40673">
        <ele>1569.408</ele>
        <time>2024-08-31T12:17:01Z</time>
      </trkpt>
      <trkpt lat="42.70525" lon="1.40674">
        <ele>1569.572</ele>
        <time>2024-08-31T12:17:03Z</time>
      </trkpt>
      <trkpt lat="42.70526" lon="1.40676">
        <ele>1570.507</ele>
        <time>2024-08-31T12:17:05Z</time>
      </trkpt>
      <trkpt lat="42.70526" lon="1.40678">
        <ele>1569.96</ele>
        <time>2024-08-31T12:17:07Z</time>
      </trkpt>
      <trkpt lat="42.70526" lon="1.40679">
        <ele>1570.53</ele>
        <time>2024-08-31T12:17:09Z</time>
      </trkpt>
      <trkpt lat="42.70527" lon="1.40681">
        <ele>1571.159</ele>
        <time>2024-08-31T12:17:11Z</time>
      </trkpt>
      <trkpt lat="42.70526" lon="1.40682">
        <ele>1569.998</ele>
        <time>2024-08-31T12:17:13Z</time>
      </trkpt>
      <trkpt lat="42.70525" lon="1.40683">
        <ele>1567.735</ele>
        <time>2024-08-31T12:17:15Z</time>
      </trkpt>
      <trkpt lat="42.70526" lon="1.40684">
        <ele>1568.848</ele>
        <time>2024-08-31T12:17:17Z</time>
      </trkpt>
      <trkpt lat="42.70526" lon="1.40685">
        <ele>1568.238</ele>
        <time>2024-08-31T12:17:19Z</time>
      </trkpt>
      <trkpt lat="42.70527" lon="1.40685">
        <ele>1568.372</ele>
        <time>2024-08-31T12:17:21Z</time>
      </trkpt>
      <trkpt lat="42.70528" lon="1.40687">
        <ele>1567.081</ele>
        <time>2024-08-31T12:17:23Z</time>
      </trkpt>
      <trkpt lat="42.7053" lon="1.40687">
        <ele>1566.48</ele>
        <time>2024-08-31T12:17:25Z</time>
      </trkpt>
      <trkpt lat="42.70531" lon="1.40687">
        <ele>1567.052</ele>
        <time>2024-08-31T12:17:27Z</time>
      </trkpt>
      <trkpt lat="42.70532" lon="1.40689">
        <ele>1567.583</ele>
        <time>2024-08-31T12:17:29Z</time>
      </trkpt>
      <trkpt lat="42.70532" lon="1.4069">
        <ele>1567.103</ele>
        <time>2024-08-31T12:17:31Z</time>
      </trkpt>
      <trkpt lat="42.70534" lon="1.40691">
        <ele>1568.068</ele>
        <time>2024-08-31T12:17:33Z</time>
      </trkpt>
      <trkpt lat="42.70536" lon="1.40692">
        <ele>1568.131</ele>
        <time>2024-08-31T12:17:35Z</time>
      </trkpt>
      <trkpt lat="42.70537" lon="1.40692">
        <ele>1568.314</ele>
        <time>2024-08-31T12:17:37Z</time>
      </trkpt>
      <trkpt lat="42.70536" lon="1.40695">
        <ele>1567.998</ele>
        <time>2024-08-31T12:17:39Z</time>
      </trkpt>
      <trkpt lat="42.70535" lon="1.40697">
        <ele>1567.327</ele>
        <time>2024-08-31T12:17:41Z</time>
      </trkpt>
      <trkpt lat="42.70535" lon="1.40699">
        <ele>1568.724</ele>
        <time>2024-08-31T12:17:43Z</time>
      </trkpt>
      <trkpt lat="42.70535" lon="1.407">
        <ele>1569.394</ele>
        <time>2024-08-31T12:17:45Z</time>
      </trkpt>
      <trkpt lat="42.70535" lon="1.40701">
        <ele>1569.01</ele>
        <time>2024-08-31T12:17:47Z</time>
      </trkpt>
      <trkpt lat="42.70535" lon="1.40702">
        <ele>1569.193</ele>
        <time>2024-08-31T12:17:49Z</time>
      </trkpt>
      <trkpt lat="42.70535" lon="1.40702">
        <ele>1568.748</ele>
        <time>2024-08-31T12:17:51Z</time>
      </trkpt>
      <trkpt lat="42.70535" lon="1.40702">
        <ele>1568.756</ele>
        <time>2024-08-31T12:17:53Z</time>
      </trkpt>
      <trkpt lat="42.70535" lon="1.40703">
        <ele>1568.009</ele>
        <time>2024-08-31T12:17:55Z</time>
      </trkpt>
      <trkpt lat="42.70535" lon="1.40704">
        <ele>1567.728</ele>
        <time>2024-08-31T12:17:57Z</time>
      </trkpt>
      <trkpt lat="42.70536" lon="1.40706">
        <ele>1566.593</ele>
        <time>2024-08-31T12:17:59Z</time>
      </trkpt>
      <trkpt lat="42.70536" lon="1.40707">
        <ele>1566.274</ele>
        <time>2024-08-31T12:18:01Z</time>
      </trkpt>
      <trkpt lat="42.70536" lon="1.40708">
        <ele>1566.243</ele>
        <time>2024-08-31T12:18:03Z</time>
      </trkpt>
      <trkpt lat="42.70536" lon="1.4071">
        <ele>1565.915</ele>
        <time>2024-08-31T12:18:05Z</time>
      </trkpt>
      <trkpt lat="42.70536" lon="1.40711">
        <ele>1565.542</ele>
        <time>2024-08-31T12:18:07Z</time>
      </trkpt>
      <trkpt lat="42.70537" lon="1.40713">
        <ele>1563.913</ele>
        <time>2024-08-31T12:18:09Z</time>
      </trkpt>
      <trkpt lat="42.70538" lon="1.40714">
        <ele>1563.677</ele>
        <time>2024-08-31T12:18:11Z</time>
      </trkpt>
      <trkpt lat="42.70538" lon="1.40715">
        <ele>1562.95</ele>
        <time>2024-08-31T12:18:13Z</time>
      </trkpt>
      <trkpt lat="42.70538" lon="1.40716">
        <ele>1563.385</ele>
        <time>2024-08-31T12:18:15Z</time>
      </trkpt>
      <trkpt lat="42.70538" lon="1.40717">
        <ele>1561.977</ele>
        <time>2024-08-31T12:18:17Z</time>
      </trkpt>
      <trkpt lat="42.70537" lon="1.40719">
        <ele>1560.577</ele>
        <time>2024-08-31T12:18:19Z</time>
      </trkpt>
      <trkpt lat="42.70537" lon="1.40719">
        <ele>1560.343</ele>
        <time>2024-08-31T12:18:21Z</time>
      </trkpt>
      <trkpt lat="42.70537" lon="1.40719">
        <ele>1560.337</ele>
        <time>2024-08-31T12:18:23Z</time>
      </trkpt>
      <trkpt lat="42.70537" lon="1.40719">
        <ele>1560.336</ele>
        <time>2024-08-31T12:18:25Z</time>
      </trkpt>
      <trkpt lat="42.70537" lon="1.40719">
        <ele>1559.235</ele>
        <time>2024-08-31T12:18:27Z</time>
      </trkpt>
      <trkpt lat="42.70539" lon="1.40721">
        <ele>1557.932</ele>
        <time>2024-08-31T12:18:29Z</time>
      </trkpt>
      <trkpt lat="42.70538" lon="1.40724">
        <ele>1556.789</ele>
        <time>2024-08-31T12:18:31Z</time>
      </trkpt>
      <trkpt lat="42.70537" lon="1.40725">
        <ele>1553.789</ele>
        <time>2024-08-31T12:18:33Z</time>
      </trkpt>
      <trkpt lat="42.70538" lon="1.40727">
        <ele>1553.366</ele>
        <time>2024-08-31T12:18:35Z</time>
      </trkpt>
      <trkpt lat="42.70538" lon="1.4073">
        <ele>1552.755</ele>
        <time>2024-08-31T12:18:37Z</time>
      </trkpt>
      <trkpt lat="42.70538" lon="1.40733">
        <ele>1551.622</ele>
        <time>2024-08-31T12:18:39Z</time>
      </trkpt>
      <trkpt lat="42.70537" lon="1.40736">
        <ele>1551.05</ele>
        <time>2024-08-31T12:18:41Z</time>
      </trkpt>
      <trkpt lat="42.70538" lon="1.40738">
        <ele>1550.301</ele>
        <time>2024-08-31T12:18:43Z</time>
      </trkpt>
      <trkpt lat="42.70541" lon="1.4074">
        <ele>1551.663</ele>
        <time>2024-08-31T12:18:45Z</time>
      </trkpt>
      <trkpt lat="42.70543" lon="1.40741">
        <ele>1550.996</ele>
        <time>2024-08-31T12:18:47Z</time>
      </trkpt>
      <trkpt lat="42.70544" lon="1.40741">
        <ele>1552.497</ele>
        <time>2024-08-31T12:18:49Z</time>
      </trkpt>
      <trkpt lat="42.70546" lon="1.40741">
        <ele>1551.145</ele>
        <time>2024-08-31T12:18:51Z</time>
      </trkpt>
      <trkpt lat="42.70548" lon="1.40739">
        <ele>1550.312</ele>
        <time>2024-08-31T12:18:53Z</time>
      </trkpt>
      <trkpt lat="42.7055" lon="1.40738">
        <ele>1550.774</ele>
        <time>2024-08-31T12:18:55Z</time>
      </trkpt>
      <trkpt lat="42.70553" lon="1.40738">
        <ele>1551.088</ele>
        <time>2024-08-31T12:18:57Z</time>
      </trkpt>
      <trkpt lat="42.70555" lon="1.40738">
        <ele>1551.836</ele>
        <time>2024-08-31T12:18:59Z</time>
      </trkpt>
      <trkpt lat="42.70556" lon="1.40737">
        <ele>1551.686</ele>
        <time>2024-08-31T12:19:01Z</time>
      </trkpt>
      <trkpt lat="42.70557" lon="1.40738">
        <ele>1552.568</ele>
        <time>2024-08-31T12:19:03Z</time>
      </trkpt>
      <trkpt lat="42.70557" lon="1.40742">
        <ele>1552.368</ele>
        <time>2024-08-31T12:19:05Z</time>
      </trkpt>
      <trkpt lat="42.70557" lon="1.40744">
        <ele>1553.627</ele>
        <time>2024-08-31T12:19:07Z</time>
      </trkpt>
      <trkpt lat="42.70557" lon="1.40746">
        <ele>1553.081</ele>
        <time>2024-08-31T12:19:09Z</time>
      </trkpt>
      <trkpt lat="42.70557" lon="1.40748">
        <ele>1552.803</ele>
        <time>2024-08-31T12:19:11Z</time>
      </trkpt>
      <trkpt lat="42.70559" lon="1.4075">
        <ele>1552.213</ele>
        <time>2024-08-31T12:19:13Z</time>
      </trkpt>
      <trkpt lat="42.70559" lon="1.40752">
        <ele>1551.228</ele>
        <time>2024-08-31T12:19:15Z</time>
      </trkpt>
      <trkpt lat="42.70559" lon="1.40754">
        <ele>1549.717</ele>
        <time>2024-08-31T12:19:17Z</time>
      </trkpt>
      <trkpt lat="42.70562" lon="1.40756">
        <ele>1549.366</ele>
        <time>2024-08-31T12:19:19Z</time>
      </trkpt>
      <trkpt lat="42.70562" lon="1.40755">
        <ele>1548.836</ele>
        <time>2024-08-31T12:19:21Z</time>
      </trkpt>
      <trkpt lat="42.70563" lon="1.40754">
        <ele>1548.269</ele>
        <time>2024-08-31T12:19:23Z</time>
      </trkpt>
      <trkpt lat="42.70563" lon="1.40754">
        <ele>1548.03</ele>
        <time>2024-08-31T12:19:25Z</time>
      </trkpt>
      <trkpt lat="42.70563" lon="1.40754">
        <ele>1547.616</ele>
        <time>2024-08-31T12:19:27Z</time>
      </trkpt>
      <trkpt lat="42.70563" lon="1.40754">
        <ele>1547.598</ele>
        <time>2024-08-31T12:19:29Z</time>
      </trkpt>
      <trkpt lat="42.70563" lon="1.40754">
        <ele>1547.592</ele>
        <time>2024-08-31T12:19:31Z</time>
      </trkpt>
      <trkpt lat="42.70564" lon="1.40754">
        <ele>1548.067</ele>
        <time>2024-08-31T12:19:33Z</time>
      </trkpt>
      <trkpt lat="42.70566" lon="1.40754">
        <ele>1548.11</ele>
        <time>2024-08-31T12:19:35Z</time>
      </trkpt>
      <trkpt lat="42.70567" lon="1.40755">
        <ele>1548.184</ele>
        <time>2024-08-31T12:19:37Z</time>
      </trkpt>
      <trkpt lat="42.70567" lon="1.40756">
        <ele>1549.143</ele>
        <time>2024-08-31T12:19:39Z</time>
      </trkpt>
      <trkpt lat="42.70567" lon="1.40756">
        <ele>1548.832</ele>
        <time>2024-08-31T12:19:41Z</time>
      </trkpt>
      <trkpt lat="42.70567" lon="1.40756">
        <ele>1547.905</ele>
        <time>2024-08-31T12:19:43Z</time>
      </trkpt>
      <trkpt lat="42.70569" lon="1.40759">
        <ele>1548.404</ele>
        <time>2024-08-31T12:19:45Z</time>
      </trkpt>
      <trkpt lat="42.7057" lon="1.40762">
        <ele>1547.998</ele>
        <time>2024-08-31T12:19:47Z</time>
      </trkpt>
      <trkpt lat="42.70569" lon="1.40764">
        <ele>1547.166</ele>
        <time>2024-08-31T12:19:49Z</time>
      </trkpt>
      <trkpt lat="42.70568" lon="1.40763">
        <ele>1545.333</ele>
        <time>2024-08-31T12:19:51Z</time>
      </trkpt>
      <trkpt lat="42.70565" lon="1.40765">
        <ele>1545.536</ele>
        <time>2024-08-31T12:19:53Z</time>
      </trkpt>
      <trkpt lat="42.70563" lon="1.40768">
        <ele>1545.52</ele>
        <time>2024-08-31T12:19:55Z</time>
      </trkpt>
      <trkpt lat="42.70563" lon="1.4077">
        <ele>1545.681</ele>
        <time>2024-08-31T12:19:57Z</time>
      </trkpt>
      <trkpt lat="42.70563" lon="1.4077">
        <ele>1545.996</ele>
        <time>2024-08-31T12:19:59Z</time>
      </trkpt>
      <trkpt lat="42.70563" lon="1.4077">
        <ele>1546.209</ele>
        <time>2024-08-31T12:20:01Z</time>
      </trkpt>
      <trkpt lat="42.70563" lon="1.4077">
        <ele>1546.592</ele>
        <time>2024-08-31T12:20:03Z</time>
      </trkpt>
      <trkpt lat="42.70563" lon="1.4077">
        <ele>1548.044</ele>
        <time>2024-08-31T12:20:05Z</time>
      </trkpt>
      <trkpt lat="42.70563" lon="1.4077">
        <ele>1546.84</ele>
        <time>2024-08-31T12:20:07Z</time>
      </trkpt>
      <trkpt lat="42.70563" lon="1.4077">
        <ele>1545.317</ele>
        <time>2024-08-31T12:20:09Z</time>
      </trkpt>
      <trkpt lat="42.70563" lon="1.4077">
        <ele>1545.538</ele>
        <time>2024-08-31T12:20:11Z</time>
      </trkpt>
      <trkpt lat="42.70563" lon="1.4077">
        <ele>1545.798</ele>
        <time>2024-08-31T12:20:13Z</time>
      </trkpt>
      <trkpt lat="42.70563" lon="1.4077">
        <ele>1543.668</ele>
        <time>2024-08-31T12:20:15Z</time>
      </trkpt>
      <trkpt lat="42.70563" lon="1.4077">
        <ele>1542.599</ele>
        <time>2024-08-31T12:20:17Z</time>
      </trkpt>
      <trkpt lat="42.70563" lon="1.4077">
        <ele>1541.225</ele>
        <time>2024-08-31T12:20:19Z</time>
      </trkpt>
      <trkpt lat="42.70563" lon="1.4077">
        <ele>1541.376</ele>
        <time>2024-08-31T12:20:21Z</time>
      </trkpt>
      <trkpt lat="42.70563" lon="1.40787">
        <ele>1538.871</ele>
        <time>2024-08-31T12:20:23Z</time>
      </trkpt>
      <trkpt lat="42.70564" lon="1.40789">
        <ele>1538.514</ele>
        <time>2024-08-31T12:20:25Z</time>
      </trkpt>
      <trkpt lat="42.70565" lon="1.40791">
        <ele>1538.502</ele>
        <time>2024-08-31T12:20:27Z</time>
      </trkpt>
      <trkpt lat="42.70565" lon="1.40793">
        <ele>1538.544</ele>
        <time>2024-08-31T12:20:29Z</time>
      </trkpt>
      <trkpt lat="42.70565" lon="1.40794">
        <ele>1537.441</ele>
        <time>2024-08-31T12:20:31Z</time>
      </trkpt>
      <trkpt lat="42.70565" lon="1.40796">
        <ele>1536.445</ele>
        <time>2024-08-31T12:20:33Z</time>
      </trkpt>
      <trkpt lat="42.70565" lon="1.40797">
        <ele>1534.751</ele>
        <time>2024-08-31T12:20:35Z</time>
      </trkpt>
      <trkpt lat="42.70565" lon="1.40798">
        <ele>1533.978</ele>
        <time>2024-08-31T12:20:37Z</time>
      </trkpt>
      <trkpt lat="42.70565" lon="1.40801">
        <ele>1534.63</ele>
        <time>2024-08-31T12:20:39Z</time>
      </trkpt>
      <trkpt lat="42.70567" lon="1.40801">
        <ele>1532.88</ele>
        <time>2024-08-31T12:20:41Z</time>
      </trkpt>
      <trkpt lat="42.70567" lon="1.40803">
        <ele>1532.556</ele>
        <time>2024-08-31T12:20:43Z</time>
      </trkpt>
      <trkpt lat="42.70567" lon="1.40805">
        <ele>1532.623</ele>
        <time>2024-08-31T12:20:45Z</time>
      </trkpt>
      <trkpt lat="42.70567" lon="1.40806">
        <ele>1532.143</ele>
        <time>2024-08-31T12:20:47Z</time>
      </trkpt>
      <trkpt lat="42.70568" lon="1.40807">
        <ele>1532.1</ele>
        <time>2024-08-31T12:20:49Z</time>
      </trkpt>
      <trkpt lat="42.7057" lon="1.40808">
        <ele>1532.603</ele>
        <time>2024-08-31T12:20:51Z</time>
      </trkpt>
      <trkpt lat="42.70571" lon="1.40809">
        <ele>1532.187</ele>
        <time>2024-08-31T12:20:53Z</time>
      </trkpt>
      <trkpt lat="42.70573" lon="1.4081">
        <ele>1532.499</ele>
        <time>2024-08-31T12:20:55Z</time>
      </trkpt>
      <trkpt lat="42.70574" lon="1.40813">
        <ele>1531.978</ele>
        <time>2024-08-31T12:20:57Z</time>
      </trkpt>
      <trkpt lat="42.70575" lon="1.40814">
        <ele>1532.911</ele>
        <time>2024-08-31T12:20:59Z</time>
      </trkpt>
      <trkpt lat="42.70576" lon="1.40815">
        <ele>1534.742</ele>
        <time>2024-08-31T12:21:01Z</time>
      </trkpt>
      <trkpt lat="42.70577" lon="1.40813">
        <ele>1534.908</ele>
        <time>2024-08-31T12:21:03Z</time>
      </trkpt>
      <trkpt lat="42.70577" lon="1.40813">
        <ele>1534.913</ele>
        <time>2024-08-31T12:21:05Z</time>
      </trkpt>
      <trkpt lat="42.70577" lon="1.40813">
        <ele>1533.669</ele>
        <time>2024-08-31T12:21:07Z</time>
      </trkpt>
      <trkpt lat="42.70577" lon="1.40813">
        <ele>1534.461</ele>
        <time>2024-08-31T12:21:09Z</time>
      </trkpt>
      <trkpt lat="42.70577" lon="1.40813">
        <ele>1534.173</ele>
        <time>2024-08-31T12:21:11Z</time>
      </trkpt>
      <trkpt lat="42.70577" lon="1.40813">
        <ele>1533.843</ele>
        <time>2024-08-31T12:21:13Z</time>
      </trkpt>
      <trkpt lat="42.70581" lon="1.40819">
        <ele>1533.783</ele>
        <time>2024-08-31T12:21:15Z</time>
      </trkpt>
      <trkpt lat="42.70581" lon="1.4082">
        <ele>1534.242</ele>
        <time>2024-08-31T12:21:17Z</time>
      </trkpt>
      <trkpt lat="42.70581" lon="1.4082">
        <ele>1533.503</ele>
        <time>2024-08-31T12:21:19Z</time>
      </trkpt>
      <trkpt lat="42.70583" lon="1.40821">
        <ele>1532.861</ele>
        <time>2024-08-31T12:21:21Z</time>
      </trkpt>
      <trkpt lat="42.70584" lon="1.40821">
        <ele>1531.685</ele>
        <time>2024-08-31T12:21:23Z</time>
      </trkpt>
      <trkpt lat="42.70586" lon="1.40821">
        <ele>1530.944</ele>
        <time>2024-08-31T12:21:25Z</time>
      </trkpt>
      <trkpt lat="42.70587" lon="1.40818">
        <ele>1529.91</ele>
        <time>2024-08-31T12:21:27Z</time>
      </trkpt>
      <trkpt lat="42.70588" lon="1.40816">
        <ele>1527.831</ele>
        <time>2024-08-31T12:21:29Z</time>
      </trkpt>
      <trkpt lat="42.70588" lon="1.40813">
        <ele>1528.423</ele>
        <time>2024-08-31T12:21:31Z</time>
      </trkpt>
      <trkpt lat="42.70588" lon="1.40811">
        <ele>1527.871</ele>
        <time>2024-08-31T12:21:33Z</time>
      </trkpt>
      <trkpt lat="42.70589" lon="1.40808">
        <ele>1526.776</ele>
        <time>2024-08-31T12:21:35Z</time>
      </trkpt>
      <trkpt lat="42.7059" lon="1.40806">
        <ele>1525.943</ele>
        <time>2024-08-31T12:21:37Z</time>
      </trkpt>
      <trkpt lat="42.70589" lon="1.40804">
        <ele>1526.131</ele>
        <time>2024-08-31T12:21:39Z</time>
      </trkpt>
      <trkpt lat="42.70589" lon="1.40804">
        <ele>1525.161</ele>
        <time>2024-08-31T12:21:41Z</time>
      </trkpt>
      <trkpt lat="42.70589" lon="1.40804">
        <ele>1524.9</ele>
        <time>2024-08-31T12:21:43Z</time>
      </trkpt>
      <trkpt lat="42.70589" lon="1.40804">
        <ele>1524.302</ele>
        <time>2024-08-31T12:21:45Z</time>
      </trkpt>
      <trkpt lat="42.70589" lon="1.40804">
        <ele>1524.497</ele>
        <time>2024-08-31T12:21:47Z</time>
      </trkpt>
      <trkpt lat="42.70589" lon="1.40804">
        <ele>1524.8</ele>
        <time>2024-08-31T12:21:49Z</time>
      </trkpt>
      <trkpt lat="42.70589" lon="1.40804">
        <ele>1523.926</ele>
        <time>2024-08-31T12:21:51Z</time>
      </trkpt>
      <trkpt lat="42.70589" lon="1.40804">
        <ele>1523.551</ele>
        <time>2024-08-31T12:21:53Z</time>
      </trkpt>
      <trkpt lat="42.70589" lon="1.40804">
        <ele>1522.554</ele>
        <time>2024-08-31T12:21:55Z</time>
      </trkpt>
      <trkpt lat="42.70589" lon="1.40804">
        <ele>1521.369</ele>
        <time>2024-08-31T12:21:57Z</time>
      </trkpt>
      <trkpt lat="42.70589" lon="1.40804">
        <ele>1520.456</ele>
        <time>2024-08-31T12:21:59Z</time>
      </trkpt>
      <trkpt lat="42.70589" lon="1.40804">
        <ele>1520.441</ele>
        <time>2024-08-31T12:22:01Z</time>
      </trkpt>
      <trkpt lat="42.70589" lon="1.40804">
        <ele>1520.427</ele>
        <time>2024-08-31T12:22:03Z</time>
      </trkpt>
      <trkpt lat="42.70589" lon="1.40804">
        <ele>1520.425</ele>
        <time>2024-08-31T12:22:05Z</time>
      </trkpt>
      <trkpt lat="42.70589" lon="1.40804">
        <ele>1520.418</ele>
        <time>2024-08-31T12:22:07Z</time>
      </trkpt>
      <trkpt lat="42.70589" lon="1.40804">
        <ele>1521.093</ele>
        <time>2024-08-31T12:22:09Z</time>
      </trkpt>
      <trkpt lat="42.70589" lon="1.40804">
        <ele>1522.31</ele>
        <time>2024-08-31T12:22:11Z</time>
      </trkpt>
      <trkpt lat="42.70589" lon="1.40804">
        <ele>1522.5</ele>
        <time>2024-08-31T12:22:13Z</time>
      </trkpt>
      <trkpt lat="42.70589" lon="1.40804">
        <ele>1522.484</ele>
        <time>2024-08-31T12:22:15Z</time>
      </trkpt>
      <trkpt lat="42.70589" lon="1.40804">
        <ele>1522.476</ele>
        <time>2024-08-31T12:22:17Z</time>
      </trkpt>
      <trkpt lat="42.70589" lon="1.40804">
        <ele>1522.091</ele>
        <time>2024-08-31T12:22:19Z</time>
      </trkpt>
      <trkpt lat="42.70589" lon="1.40804">
        <ele>1522.054</ele>
        <time>2024-08-31T12:22:21Z</time>
      </trkpt>
      <trkpt lat="42.70589" lon="1.40804">
        <ele>1521.269</ele>
        <time>2024-08-31T12:22:23Z</time>
      </trkpt>
      <trkpt lat="42.70589" lon="1.40804">
        <ele>1521.73</ele>
        <time>2024-08-31T12:22:25Z</time>
      </trkpt>
      <trkpt lat="42.70589" lon="1.40804">
        <ele>1523.949</ele>
        <time>2024-08-31T12:22:27Z</time>
      </trkpt>
      <trkpt lat="42.70601" lon="1.40806">
        <ele>1523.313</ele>
        <time>2024-08-31T12:22:29Z</time>
      </trkpt>
      <trkpt lat="42.70603" lon="1.40806">
        <ele>1521.077</ele>
        <time>2024-08-31T12:22:31Z</time>
      </trkpt>
      <trkpt lat="42.70604" lon="1.40804">
        <ele>1518.655</ele>
        <time>2024-08-31T12:22:33Z</time>
      </trkpt>
      <trkpt lat="42.70605" lon="1.40803">
        <ele>1517.82</ele>
        <time>2024-08-31T12:22:35Z</time>
      </trkpt>
      <trkpt lat="42.70607" lon="1.40802">
        <ele>1518.307</ele>
        <time>2024-08-31T12:22:37Z</time>
      </trkpt>
      <trkpt lat="42.70608" lon="1.40801">
        <ele>1517.376</ele>
        <time>2024-08-31T12:22:39Z</time>
      </trkpt>
      <trkpt lat="42.70609" lon="1.40802">
        <ele>1516.992</ele>
        <time>2024-08-31T12:22:41Z</time>
      </trkpt>
      <trkpt lat="42.7061" lon="1.40802">
        <ele>1516.033</ele>
        <time>2024-08-31T12:22:43Z</time>
      </trkpt>
      <trkpt lat="42.70612" lon="1.408">
        <ele>1516.775</ele>
        <time>2024-08-31T12:22:45Z</time>
      </trkpt>
      <trkpt lat="42.70614" lon="1.40798">
        <ele>1519.39</ele>
        <time>2024-08-31T12:22:47Z</time>
      </trkpt>
      <trkpt lat="42.70615" lon="1.40797">
        <ele>1519.137</ele>
        <time>2024-08-31T12:22:49Z</time>
      </trkpt>
      <trkpt lat="42.70617" lon="1.40796">
        <ele>1519.032</ele>
        <time>2024-08-31T12:22:51Z</time>
      </trkpt>
      <trkpt lat="42.70618" lon="1.40797">
        <ele>1519.316</ele>
        <time>2024-08-31T12:22:53Z</time>
      </trkpt>
      <trkpt lat="42.70619" lon="1.40798">
        <ele>1520.072</ele>
        <time>2024-08-31T12:22:55Z</time>
      </trkpt>
      <trkpt lat="42.7062" lon="1.40797">
        <ele>1521.303</ele>
        <time>2024-08-31T12:22:57Z</time>
      </trkpt>
      <trkpt lat="42.70622" lon="1.40798">
        <ele>1520.583</ele>
        <time>2024-08-31T12:22:59Z</time>
      </trkpt>
      <trkpt lat="42.70623" lon="1.40798">
        <ele>1519.433</ele>
        <time>2024-08-31T12:23:01Z</time>
      </trkpt>
      <trkpt lat="42.70624" lon="1.40798">
        <ele>1519.024</ele>
        <time>2024-08-31T12:23:03Z</time>
      </trkpt>
      <trkpt lat="42.70626" lon="1.40796">
        <ele>1517.651</ele>
        <time>2024-08-31T12:23:05Z</time>
      </trkpt>
      <trkpt lat="42.70626" lon="1.40794">
        <ele>1516.991</ele>
        <time>2024-08-31T12:23:07Z</time>
      </trkpt>
      <trkpt lat="42.70627" lon="1.40793">
        <ele>1516.22</ele>
        <time>2024-08-31T12:23:09Z</time>
      </trkpt>
      <trkpt lat="42.70628" lon="1.40794">
        <ele>1516.235</ele>
        <time>2024-08-31T12:23:11Z</time>
      </trkpt>
      <trkpt lat="42.70628" lon="1.40795">
        <ele>1516.428</ele>
        <time>2024-08-31T12:23:13Z</time>
      </trkpt>
      <trkpt lat="42.70627" lon="1.40797">
        <ele>1516.052</ele>
        <time>2024-08-31T12:23:15Z</time>
      </trkpt>
      <trkpt lat="42.70627" lon="1.40798">
        <ele>1516.741</ele>
        <time>2024-08-31T12:23:17Z</time>
      </trkpt>
      <trkpt lat="42.70628" lon="1.408">
        <ele>1518.191</ele>
        <time>2024-08-31T12:23:19Z</time>
      </trkpt>
      <trkpt lat="42.70627" lon="1.40801">
        <ele>1517.361</ele>
        <time>2024-08-31T12:23:21Z</time>
      </trkpt>
      <trkpt lat="42.70626" lon="1.40802">
        <ele>1515.98</ele>
        <time>2024-08-31T12:23:23Z</time>
      </trkpt>
      <trkpt lat="42.70626" lon="1.40803">
        <ele>1515.366</ele>
        <time>2024-08-31T12:23:25Z</time>
      </trkpt>
      <trkpt lat="42.70626" lon="1.40804">
        <ele>1513.778</ele>
        <time>2024-08-31T12:23:27Z</time>
      </trkpt>
      <trkpt lat="42.70626" lon="1.40804">
        <ele>1513.253</ele>
        <time>2024-08-31T12:23:29Z</time>
      </trkpt>
      <trkpt lat="42.70626" lon="1.40804">
        <ele>1513.071</ele>
        <time>2024-08-31T12:23:31Z</time>
      </trkpt>
      <trkpt lat="42.70626" lon="1.40804">
        <ele>1512.46</ele>
        <time>2024-08-31T12:23:33Z</time>
      </trkpt>
      <trkpt lat="42.70626" lon="1.40804">
        <ele>1512.231</ele>
        <time>2024-08-31T12:23:35Z</time>
      </trkpt>
      <trkpt lat="42.70626" lon="1.40804">
        <ele>1512.456</ele>
        <time>2024-08-31T12:23:37Z</time>
      </trkpt>
      <trkpt lat="42.70626" lon="1.40804">
        <ele>1513.312</ele>
        <time>2024-08-31T12:23:39Z</time>
      </trkpt>
      <trkpt lat="42.70626" lon="1.40804">
        <ele>1512.476</ele>
        <time>2024-08-31T12:23:41Z</time>
      </trkpt>
      <trkpt lat="42.70626" lon="1.40804">
        <ele>1512.47</ele>
        <time>2024-08-31T12:23:43Z</time>
      </trkpt>
      <trkpt lat="42.70626" lon="1.40804">
        <ele>1512.613</ele>
        <time>2024-08-31T12:23:45Z</time>
      </trkpt>
      <trkpt lat="42.70626" lon="1.40804">
        <ele>1511.591</ele>
        <time>2024-08-31T12:23:47Z</time>
      </trkpt>
      <trkpt lat="42.70626" lon="1.40804">
        <ele>1509.816</ele>
        <time>2024-08-31T12:23:49Z</time>
      </trkpt>
      <trkpt lat="42.70631" lon="1.40809">
        <ele>1509.461</ele>
        <time>2024-08-31T12:23:51Z</time>
      </trkpt>
      <trkpt lat="42.70633" lon="1.40809">
        <ele>1507.585</ele>
        <time>2024-08-31T12:23:53Z</time>
      </trkpt>
      <trkpt lat="42.70634" lon="1.40809">
        <ele>1507.604</ele>
        <time>2024-08-31T12:23:55Z</time>
      </trkpt>
      <trkpt lat="42.70634" lon="1.40809">
        <ele>1506.143</ele>
        <time>2024-08-31T12:23:57Z</time>
      </trkpt>
      <trkpt lat="42.70635" lon="1.40808">
        <ele>1504.551</ele>
        <time>2024-08-31T12:23:59Z</time>
      </trkpt>
      <trkpt lat="42.70636" lon="1.40808">
        <ele>1504.24</ele>
        <time>2024-08-31T12:24:01Z</time>
      </trkpt>
      <trkpt lat="42.70636" lon="1.40809">
        <ele>1504.05</ele>
        <time>2024-08-31T12:24:03Z</time>
      </trkpt>
      <trkpt lat="42.70637" lon="1.4081">
        <ele>1503.71</ele>
        <time>2024-08-31T12:24:05Z</time>
      </trkpt>
      <trkpt lat="42.70638" lon="1.40811">
        <ele>1502.961</ele>
        <time>2024-08-31T12:24:07Z</time>
      </trkpt>
      <trkpt lat="42.70638" lon="1.40813">
        <ele>1502.757</ele>
        <time>2024-08-31T12:24:09Z</time>
      </trkpt>
      <trkpt lat="42.70639" lon="1.40814">
        <ele>1502.527</ele>
        <time>2024-08-31T12:24:11Z</time>
      </trkpt>
      <trkpt lat="42.70639" lon="1.40815">
        <ele>1502.23</ele>
        <time>2024-08-31T12:24:13Z</time>
      </trkpt>
      <trkpt lat="42.7064" lon="1.40816">
        <ele>1500.605</ele>
        <time>2024-08-31T12:24:15Z</time>
      </trkpt>
      <trkpt lat="42.70641" lon="1.40817">
        <ele>1500.09</ele>
        <time>2024-08-31T12:24:17Z</time>
      </trkpt>
      <trkpt lat="42.70642" lon="1.4082">
        <ele>1500.223</ele>
        <time>2024-08-31T12:24:19Z</time>
      </trkpt>
      <trkpt lat="42.70642" lon="1.40822">
        <ele>1498.908</ele>
        <time>2024-08-31T12:24:21Z</time>
      </trkpt>
      <trkpt lat="42.70642" lon="1.40824">
        <ele>1498.903</ele>
        <time>2024-08-31T12:24:23Z</time>
      </trkpt>
      <trkpt lat="42.70642" lon="1.40825">
        <ele>1498.587</ele>
        <time>2024-08-31T12:24:25Z</time>
      </trkpt>
      <trkpt lat="42.70643" lon="1.40824">
        <ele>1497.801</ele>
        <time>2024-08-31T12:24:27Z</time>
      </trkpt>
      <trkpt lat="42.70643" lon="1.40824">
        <ele>1497.139</ele>
        <time>2024-08-31T12:24:29Z</time>
      </trkpt>
      <trkpt lat="42.70643" lon="1.40824">
        <ele>1496.225</ele>
        <time>2024-08-31T12:24:31Z</time>
      </trkpt>
      <trkpt lat="42.70643" lon="1.40824">
        <ele>1495.678</ele>
        <time>2024-08-31T12:24:33Z</time>
      </trkpt>
      <trkpt lat="42.70643" lon="1.40824">
        <ele>1495.861</ele>
        <time>2024-08-31T12:24:35Z</time>
      </trkpt>
      <trkpt lat="42.70643" lon="1.40824">
        <ele>1495.854</ele>
        <time>2024-08-31T12:24:37Z</time>
      </trkpt>
      <trkpt lat="42.70643" lon="1.40824">
        <ele>1495.847</ele>
        <time>2024-08-31T12:24:39Z</time>
      </trkpt>
      <trkpt lat="42.70643" lon="1.40824">
        <ele>1495.841</ele>
        <time>2024-08-31T12:24:41Z</time>
      </trkpt>
      <trkpt lat="42.70643" lon="1.40824">
        <ele>1495.838</ele>
        <time>2024-08-31T12:24:43Z</time>
      </trkpt>
      <trkpt lat="42.70643" lon="1.40824">
        <ele>1495.829</ele>
        <time>2024-08-31T12:24:45Z</time>
      </trkpt>
      <trkpt lat="42.70643" lon="1.40824">
        <ele>1495.822</ele>
        <time>2024-08-31T12:24:47Z</time>
      </trkpt>
      <trkpt lat="42.70643" lon="1.40824">
        <ele>1495.821</ele>
        <time>2024-08-31T12:24:49Z</time>
      </trkpt>
      <trkpt lat="42.70643" lon="1.40824">
        <ele>1495.818</ele>
        <time>2024-08-31T12:24:51Z</time>
      </trkpt>
      <trkpt lat="42.70643" lon="1.40824">
        <ele>1495.82</ele>
        <time>2024-08-31T12:24:53Z</time>
      </trkpt>
      <trkpt lat="42.70643" lon="1.40824">
        <ele>1495.815</ele>
        <time>2024-08-31T12:24:55Z</time>
      </trkpt>
      <trkpt lat="42.70643" lon="1.40824">
        <ele>1495.811</ele>
        <time>2024-08-31T12:24:57Z</time>
      </trkpt>
      <trkpt lat="42.70643" lon="1.40824">
        <ele>1495.805</ele>
        <time>2024-08-31T12:24:59Z</time>
      </trkpt>
      <trkpt lat="42.70643" lon="1.40824">
        <ele>1495.38</ele>
        <time>2024-08-31T12:25:01Z</time>
      </trkpt>
      <trkpt lat="42.70643" lon="1.40824">
        <ele>1495.239</ele>
        <time>2024-08-31T12:25:03Z</time>
      </trkpt>
      <trkpt lat="42.70643" lon="1.40824">
        <ele>1495.257</ele>
        <time>2024-08-31T12:25:05Z</time>
      </trkpt>
      <trkpt lat="42.70643" lon="1.40824">
        <ele>1495.698</ele>
        <time>2024-08-31T12:25:07Z</time>
      </trkpt>
      <trkpt lat="42.70643" lon="1.40824">
        <ele>1495.629</ele>
        <time>2024-08-31T12:25:09Z</time>
      </trkpt>
      <trkpt lat="42.70643" lon="1.40824">
        <ele>1495.623</ele>
        <time>2024-08-31T12:25:11Z</time>
      </trkpt>
      <trkpt lat="42.70643" lon="1.40824">
        <ele>1496.441</ele>
        <time>2024-08-31T12:25:13Z</time>
      </trkpt>
      <trkpt lat="42.70643" lon="1.40824">
        <ele>1496.525</ele>
        <time>2024-08-31T12:25:15Z</time>
      </trkpt>
      <trkpt lat="42.70642" lon="1.40828">
        <ele>1493.573</ele>
        <time>2024-08-31T12:25:17Z</time>
      </trkpt>
      <trkpt lat="42.70641" lon="1.40829">
        <ele>1492.986</ele>
        <time>2024-08-31T12:25:19Z</time>
      </trkpt>
      <trkpt lat="42.70642" lon="1.40831">
        <ele>1492.733</ele>
        <time>2024-08-31T12:25:21Z</time>
      </trkpt>
      <trkpt lat="42.70643" lon="1.40831">
        <ele>1492.135</ele>
        <time>2024-08-31T12:25:23Z</time>
      </trkpt>
      <trkpt lat="42.70644" lon="1.40832">
        <ele>1492.289</ele>
        <time>2024-08-31T12:25:25Z</time>
      </trkpt>
      <trkpt lat="42.70644" lon="1.40833">
        <ele>1491.947</ele>
        <time>2024-08-31T12:25:27Z</time>
      </trkpt>
      <trkpt lat="42.70644" lon="1.40835">
        <ele>1491.435</ele>
        <time>2024-08-31T12:25:29Z</time>
      </trkpt>
      <trkpt lat="42.70645" lon="1.40836">
        <ele>1491.731</ele>
        <time>2024-08-31T12:25:31Z</time>
      </trkpt>
      <trkpt lat="42.70645" lon="1.40838">
        <ele>1490.629</ele>
        <time>2024-08-31T12:25:33Z</time>
      </trkpt>
      <trkpt lat="42.70646" lon="1.4084">
        <ele>1489.14</ele>
        <time>2024-08-31T12:25:35Z</time>
      </trkpt>
      <trkpt lat="42.70646" lon="1.40842">
        <ele>1489.722</ele>
        <time>2024-08-31T12:25:37Z</time>
      </trkpt>
      <trkpt lat="42.70646" lon="1.40844">
        <ele>1490.301</ele>
        <time>2024-08-31T12:25:39Z</time>
      </trkpt>
      <trkpt lat="42.70648" lon="1.40846">
        <ele>1490.26</ele>
        <time>2024-08-31T12:25:41Z</time>
      </trkpt>
      <trkpt lat="42.70649" lon="1.40847">
        <ele>1489.786</ele>
        <time>2024-08-31T12:25:43Z</time>
      </trkpt>
      <trkpt lat="42.7065" lon="1.40849">
        <ele>1489.182</ele>
        <time>2024-08-31T12:25:45Z</time>
      </trkpt>
      <trkpt lat="42.7065" lon="1.40852">
        <ele>1489.354</ele>
        <time>2024-08-31T12:25:47Z</time>
      </trkpt>
      <trkpt lat="42.7065" lon="1.40854">
        <ele>1489.971</ele>
        <time>2024-08-31T12:25:49Z</time>
      </trkpt>
      <trkpt lat="42.70651" lon="1.40855">
        <ele>1490.319</ele>
        <time>2024-08-31T12:25:51Z</time>
      </trkpt>
      <trkpt lat="42.70651" lon="1.40858">
        <ele>1489.876</ele>
        <time>2024-08-31T12:25:53Z</time>
      </trkpt>
      <trkpt lat="42.70651" lon="1.40861">
        <ele>1490.817</ele>
        <time>2024-08-31T12:25:55Z</time>
      </trkpt>
      <trkpt lat="42.70652" lon="1.40864">
        <ele>1488.49</ele>
        <time>2024-08-31T12:25:57Z</time>
      </trkpt>
      <trkpt lat="42.70651" lon="1.40866">
        <ele>1487.639</ele>
        <time>2024-08-31T12:25:59Z</time>
      </trkpt>
      <trkpt lat="42.7065" lon="1.40868">
        <ele>1486.898</ele>
        <time>2024-08-31T12:26:01Z</time>
      </trkpt>
      <trkpt lat="42.70648" lon="1.4087">
        <ele>1485.334</ele>
        <time>2024-08-31T12:26:03Z</time>
      </trkpt>
      <trkpt lat="42.70648" lon="1.40872">
        <ele>1484.63</ele>
        <time>2024-08-31T12:26:05Z</time>
      </trkpt>
      <trkpt lat="42.70647" lon="1.40874">
        <ele>1484.965</ele>
        <time>2024-08-31T12:26:07Z</time>
      </trkpt>
      <trkpt lat="42.70648" lon="1.40876">
        <ele>1483.937</ele>
        <time>2024-08-31T12:26:09Z</time>
      </trkpt>
      <trkpt lat="42.70648" lon="1.40878">
        <ele>1484.6</ele>
        <time>2024-08-31T12:26:11Z</time>
      </trkpt>
      <trkpt lat="42.70649" lon="1.40881">
        <ele>1483.303</ele>
        <time>2024-08-31T12:26:13Z</time>
      </trkpt>
      <trkpt lat="42.7065" lon="1.40883">
        <ele>1483.421</ele>
        <time>2024-08-31T12:26:15Z</time>
      </trkpt>
      <trkpt lat="42.70651" lon="1.40885">
        <ele>1484.099</ele>
        <time>2024-08-31T12:26:17Z</time>
      </trkpt>
      <trkpt lat="42.70651" lon="1.40888">
        <ele>1484.083</ele>
        <time>2024-08-31T12:26:19Z</time>
      </trkpt>
      <trkpt lat="42.70651" lon="1.4089">
        <ele>1483.705</ele>
        <time>2024-08-31T12:26:21Z</time>
      </trkpt>
      <trkpt lat="42.7065" lon="1.40893">
        <ele>1484.085</ele>
        <time>2024-08-31T12:26:23Z</time>
      </trkpt>
      <trkpt lat="42.7065" lon="1.40895">
        <ele>1483.381</ele>
        <time>2024-08-31T12:26:25Z</time>
      </trkpt>
      <trkpt lat="42.70649" lon="1.40898">
        <ele>1483.221</ele>
        <time>2024-08-31T12:26:27Z</time>
      </trkpt>
      <trkpt lat="42.70649" lon="1.40899">
        <ele>1484.218</ele>
        <time>2024-08-31T12:26:29Z</time>
      </trkpt>
      <trkpt lat="42.70649" lon="1.40902">
        <ele>1483.05</ele>
        <time>2024-08-31T12:26:31Z</time>
      </trkpt>
      <trkpt lat="42.70649" lon="1.40905">
        <ele>1482.817</ele>
        <time>2024-08-31T12:26:33Z</time>
      </trkpt>
      <trkpt lat="42.70649" lon="1.40907">
        <ele>1484.055</ele>
        <time>2024-08-31T12:26:35Z</time>
      </trkpt>
      <trkpt lat="42.70648" lon="1.4091">
        <ele>1482.975</ele>
        <time>2024-08-31T12:26:37Z</time>
      </trkpt>
      <trkpt lat="42.70648" lon="1.40912">
        <ele>1483.059</ele>
        <time>2024-08-31T12:26:39Z</time>
      </trkpt>
      <trkpt lat="42.70648" lon="1.40915">
        <ele>1484.381</ele>
        <time>2024-08-31T12:26:41Z</time>
      </trkpt>
      <trkpt lat="42.70648" lon="1.40917">
        <ele>1486.269</ele>
        <time>2024-08-31T12:26:43Z</time>
      </trkpt>
      <trkpt lat="42.70648" lon="1.40919">
        <ele>1484.578</ele>
        <time>2024-08-31T12:26:45Z</time>
      </trkpt>
      <trkpt lat="42.70648" lon="1.40922">
        <ele>1484.291</ele>
        <time>2024-08-31T12:26:47Z</time>
      </trkpt>
      <trkpt lat="42.70648" lon="1.40924">
        <ele>1482.163</ele>
        <time>2024-08-31T12:26:49Z</time>
      </trkpt>
      <trkpt lat="42.70647" lon="1.40927">
        <ele>1482.335</ele>
        <time>2024-08-31T12:26:51Z</time>
      </trkpt>
      <trkpt lat="42.70646" lon="1.40929">
        <ele>1481.444</ele>
        <time>2024-08-31T12:26:53Z</time>
      </trkpt>
      <trkpt lat="42.70645" lon="1.40931">
        <ele>1481.14</ele>
        <time>2024-08-31T12:26:55Z</time>
      </trkpt>
      <trkpt lat="42.70645" lon="1.40933">
        <ele>1482.28</ele>
        <time>2024-08-31T12:26:57Z</time>
      </trkpt>
      <trkpt lat="42.70646" lon="1.40935">
        <ele>1483.17</ele>
        <time>2024-08-31T12:26:59Z</time>
      </trkpt>
      <trkpt lat="42.70645" lon="1.40938">
        <ele>1483.212</ele>
        <time>2024-08-31T12:27:01Z</time>
      </trkpt>
      <trkpt lat="42.70645" lon="1.4094">
        <ele>1482.628</ele>
        <time>2024-08-31T12:27:03Z</time>
      </trkpt>
      <trkpt lat="42.70644" lon="1.40943">
        <ele>1481.832</ele>
        <time>2024-08-31T12:27:05Z</time>
      </trkpt>
      <trkpt lat="42.70644" lon="1.40945">
        <ele>1481.699</ele>
        <time>2024-08-31T12:27:07Z</time>
      </trkpt>
      <trkpt lat="42.70644" lon="1.40946">
        <ele>1482.409</ele>
        <time>2024-08-31T12:27:09Z</time>
      </trkpt>
      <trkpt lat="42.70643" lon="1.40947">
        <ele>1481.441</ele>
        <time>2024-08-31T12:27:11Z</time>
      </trkpt>
      <trkpt lat="42.70642" lon="1.40949">
        <ele>1480.712</ele>
        <time>2024-08-31T12:27:13Z</time>
      </trkpt>
      <trkpt lat="42.70642" lon="1.40951">
        <ele>1477.986</ele>
        <time>2024-08-31T12:27:15Z</time>
      </trkpt>
      <trkpt lat="42.70642" lon="1.40952">
        <ele>1478.354</ele>
        <time>2024-08-31T12:27:17Z</time>
      </trkpt>
      <trkpt lat="42.70642" lon="1.40955">
        <ele>1478.907</ele>
        <time>2024-08-31T12:27:19Z</time>
      </trkpt>
      <trkpt lat="42.70643" lon="1.40957">
        <ele>1480.252</ele>
        <time>2024-08-31T12:27:21Z</time>
      </trkpt>
      <trkpt lat="42.70643" lon="1.4096">
        <ele>1478.983</ele>
        <time>2024-08-31T12:27:23Z</time>
      </trkpt>
      <trkpt lat="42.70645" lon="1.40962">
        <ele>1480.114</ele>
        <time>2024-08-31T12:27:25Z</time>
      </trkpt>
      <trkpt lat="42.70645" lon="1.40966">
        <ele>1479.894</ele>
        <time>2024-08-31T12:27:27Z</time>
      </trkpt>
      <trkpt lat="42.70645" lon="1.40967">
        <ele>1479.378</ele>
        <time>2024-08-31T12:27:29Z</time>
      </trkpt>
      <trkpt lat="42.70645" lon="1.4097">
        <ele>1478.701</ele>
        <time>2024-08-31T12:27:31Z</time>
      </trkpt>
      <trkpt lat="42.70645" lon="1.40971">
        <ele>1478.666</ele>
        <time>2024-08-31T12:27:33Z</time>
      </trkpt>
      <trkpt lat="42.70645" lon="1.40974">
        <ele>1478.549</ele>
        <time>2024-08-31T12:27:35Z</time>
      </trkpt>
      <trkpt lat="42.70645" lon="1.40975">
        <ele>1479.307</ele>
        <time>2024-08-31T12:27:37Z</time>
      </trkpt>
      <trkpt lat="42.70646" lon="1.40977">
        <ele>1479.259</ele>
        <time>2024-08-31T12:27:39Z</time>
      </trkpt>
      <trkpt lat="42.70647" lon="1.40979">
        <ele>1476.853</ele>
        <time>2024-08-31T12:27:41Z</time>
      </trkpt>
      <trkpt lat="42.70648" lon="1.4098">
        <ele>1478.331</ele>
        <time>2024-08-31T12:27:43Z</time>
      </trkpt>
      <trkpt lat="42.70649" lon="1.4098">
        <ele>1478.484</ele>
        <time>2024-08-31T12:27:45Z</time>
      </trkpt>
      <trkpt lat="42.70649" lon="1.4098">
        <ele>1478.617</ele>
        <time>2024-08-31T12:27:47Z</time>
      </trkpt>
      <trkpt lat="42.70649" lon="1.4098">
        <ele>1480.266</ele>
        <time>2024-08-31T12:27:49Z</time>
      </trkpt>
      <trkpt lat="42.70649" lon="1.4098">
        <ele>1478.719</ele>
        <time>2024-08-31T12:27:51Z</time>
      </trkpt>
      <trkpt lat="42.70649" lon="1.4098">
        <ele>1477.453</ele>
        <time>2024-08-31T12:27:53Z</time>
      </trkpt>
      <trkpt lat="42.70649" lon="1.4098">
        <ele>1476.815</ele>
        <time>2024-08-31T12:27:55Z</time>
      </trkpt>
      <trkpt lat="42.70649" lon="1.4098">
        <ele>1476.803</ele>
        <time>2024-08-31T12:27:57Z</time>
      </trkpt>
      <trkpt lat="42.70649" lon="1.4098">
        <ele>1476.812</ele>
        <time>2024-08-31T12:27:59Z</time>
      </trkpt>
      <trkpt lat="42.70649" lon="1.4098">
        <ele>1476.82</ele>
        <time>2024-08-31T12:28:01Z</time>
      </trkpt>
      <trkpt lat="42.70649" lon="1.4098">
        <ele>1476.824</ele>
        <time>2024-08-31T12:28:03Z</time>
      </trkpt>
      <trkpt lat="42.70649" lon="1.4098">
        <ele>1476.825</ele>
        <time>2024-08-31T12:28:05Z</time>
      </trkpt>
      <trkpt lat="42.70649" lon="1.4098">
        <ele>1476.835</ele>
        <time>2024-08-31T12:28:07Z</time>
      </trkpt>
      <trkpt lat="42.70649" lon="1.4098">
        <ele>1476.832</ele>
        <time>2024-08-31T12:28:09Z</time>
      </trkpt>
      <trkpt lat="42.70649" lon="1.4098">
        <ele>1476.095</ele>
        <time>2024-08-31T12:28:11Z</time>
      </trkpt>
      <trkpt lat="42.70649" lon="1.4098">
        <ele>1476.149</ele>
        <time>2024-08-31T12:28:13Z</time>
      </trkpt>
      <trkpt lat="42.70649" lon="1.4098">
        <ele>1476.443</ele>
        <time>2024-08-31T12:28:15Z</time>
      </trkpt>
      <trkpt lat="42.70649" lon="1.4098">
        <ele>1477.237</ele>
        <time>2024-08-31T12:28:17Z</time>
      </trkpt>
      <trkpt lat="42.70649" lon="1.4098">
        <ele>1477.232</ele>
        <time>2024-08-31T12:28:19Z</time>
      </trkpt>
      <trkpt lat="42.70649" lon="1.4098">
        <ele>1477.214</ele>
        <time>2024-08-31T12:28:21Z</time>
      </trkpt>
      <trkpt lat="42.70649" lon="1.4098">
        <ele>1477.2</ele>
        <time>2024-08-31T12:28:23Z</time>
      </trkpt>
      <trkpt lat="42.70649" lon="1.4098">
        <ele>1477.2</ele>
        <time>2024-08-31T12:28:25Z</time>
      </trkpt>
      <trkpt lat="42.70649" lon="1.4098">
        <ele>1477.203</ele>
        <time>2024-08-31T12:28:27Z</time>
      </trkpt>
      <trkpt lat="42.70649" lon="1.4098">
        <ele>1477.203</ele>
        <time>2024-08-31T12:28:29Z</time>
      </trkpt>
      <trkpt lat="42.70649" lon="1.4098">
        <ele>1477.192</ele>
        <time>2024-08-31T12:28:31Z</time>
      </trkpt>
      <trkpt lat="42.70649" lon="1.4098">
        <ele>1477.191</ele>
        <time>2024-08-31T12:28:33Z</time>
      </trkpt>
      <trkpt lat="42.70649" lon="1.4098">
        <ele>1477.173</ele>
        <time>2024-08-31T12:28:35Z</time>
      </trkpt>
      <trkpt lat="42.70649" lon="1.4098">
        <ele>1477.169</ele>
        <time>2024-08-31T12:28:37Z</time>
      </trkpt>
      <trkpt lat="42.70649" lon="1.4098">
        <ele>1476.879</ele>
        <time>2024-08-31T12:28:39Z</time>
      </trkpt>
      <trkpt lat="42.70649" lon="1.4098">
        <ele>1476.836</ele>
        <time>2024-08-31T12:28:41Z</time>
      </trkpt>
      <trkpt lat="42.70649" lon="1.4098">
        <ele>1476.813</ele>
        <time>2024-08-31T12:28:43Z</time>
      </trkpt>
      <trkpt lat="42.70649" lon="1.4098">
        <ele>1476.608</ele>
        <time>2024-08-31T12:28:45Z</time>
      </trkpt>
      <trkpt lat="42.70649" lon="1.4098">
        <ele>1476.167</ele>
        <time>2024-08-31T12:28:47Z</time>
      </trkpt>
      <trkpt lat="42.70649" lon="1.4098">
        <ele>1476.511</ele>
        <time>2024-08-31T12:28:49Z</time>
      </trkpt>
      <trkpt lat="42.70649" lon="1.4098">
        <ele>1476.526</ele>
        <time>2024-08-31T12:28:51Z</time>
      </trkpt>
      <trkpt lat="42.70649" lon="1.4098">
        <ele>1476.514</ele>
        <time>2024-08-31T12:28:53Z</time>
      </trkpt>
      <trkpt lat="42.70649" lon="1.4098">
        <ele>1476.513</ele>
        <time>2024-08-31T12:28:55Z</time>
      </trkpt>
      <trkpt lat="42.70649" lon="1.4098">
        <ele>1476.511</ele>
        <time>2024-08-31T12:28:57Z</time>
      </trkpt>
      <trkpt lat="42.70649" lon="1.4098">
        <ele>1476.514</ele>
        <time>2024-08-31T12:28:59Z</time>
      </trkpt>
      <trkpt lat="42.70649" lon="1.4098">
        <ele>1476.498</ele>
        <time>2024-08-31T12:29:01Z</time>
      </trkpt>
      <trkpt lat="42.70649" lon="1.4098">
        <ele>1476.029</ele>
        <time>2024-08-31T12:29:03Z</time>
      </trkpt>
      <trkpt lat="42.7065" lon="1.40979">
        <ele>1475.89</ele>
        <time>2024-08-31T12:29:05Z</time>
      </trkpt>
      <trkpt lat="42.70651" lon="1.4098">
        <ele>1475.185</ele>
        <time>2024-08-31T12:29:07Z</time>
      </trkpt>
      <trkpt lat="42.70653" lon="1.40982">
        <ele>1475.897</ele>
        <time>2024-08-31T12:29:09Z</time>
      </trkpt>
      <trkpt lat="42.70652" lon="1.40984">
        <ele>1476.962</ele>
        <time>2024-08-31T12:29:11Z</time>
      </trkpt>
      <trkpt lat="42.70653" lon="1.40987">
        <ele>1479.332</ele>
        <time>2024-08-31T12:29:13Z</time>
      </trkpt>
      <trkpt lat="42.70653" lon="1.40989">
        <ele>1478.042</ele>
        <time>2024-08-31T12:29:15Z</time>
      </trkpt>
      <trkpt lat="42.70653" lon="1.40992">
        <ele>1478.758</ele>
        <time>2024-08-31T12:29:17Z</time>
      </trkpt>
      <trkpt lat="42.70652" lon="1.40995">
        <ele>1478.225</ele>
        <time>2024-08-31T12:29:19Z</time>
      </trkpt>
      <trkpt lat="42.70652" lon="1.40999">
        <ele>1478.944</ele>
        <time>2024-08-31T12:29:21Z</time>
      </trkpt>
      <trkpt lat="42.70653" lon="1.41001">
        <ele>1478.89</ele>
        <time>2024-08-31T12:29:23Z</time>
      </trkpt>
      <trkpt lat="42.70655" lon="1.41004">
        <ele>1477.939</ele>
        <time>2024-08-31T12:29:25Z</time>
      </trkpt>
      <trkpt lat="42.70656" lon="1.41006">
        <ele>1477.634</ele>
        <time>2024-08-31T12:29:27Z</time>
      </trkpt>
      <trkpt lat="42.70656" lon="1.41009">
        <ele>1476.093</ele>
        <time>2024-08-31T12:29:29Z</time>
      </trkpt>
      <trkpt lat="42.70657" lon="1.41012">
        <ele>1476.633</ele>
        <time>2024-08-31T12:29:31Z</time>
      </trkpt>
      <trkpt lat="42.70658" lon="1.41015">
        <ele>1478.095</ele>
        <time>2024-08-31T12:29:33Z</time>
      </trkpt>
      <trkpt lat="42.7066" lon="1.41016">
        <ele>1478.228</ele>
        <time>2024-08-31T12:29:35Z</time>
      </trkpt>
      <trkpt lat="42.70661" lon="1.41018">
        <ele>1477.487</ele>
        <time>2024-08-31T12:29:37Z</time>
      </trkpt>
      <trkpt lat="42.70662" lon="1.4102">
        <ele>1475.121</ele>
        <time>2024-08-31T12:29:39Z</time>
      </trkpt>
      <trkpt lat="42.70662" lon="1.41023">
        <ele>1474.568</ele>
        <time>2024-08-31T12:29:41Z</time>
      </trkpt>
      <trkpt lat="42.70663" lon="1.41026">
        <ele>1474.567</ele>
        <time>2024-08-31T12:29:43Z</time>
      </trkpt>
      <trkpt lat="42.70663" lon="1.41028">
        <ele>1475.415</ele>
        <time>2024-08-31T12:29:45Z</time>
      </trkpt>
      <trkpt lat="42.70664" lon="1.4103">
        <ele>1475.58</ele>
        <time>2024-08-31T12:29:47Z</time>
      </trkpt>
      <trkpt lat="42.70664" lon="1.41032">
        <ele>1474.248</ele>
        <time>2024-08-31T12:29:49Z</time>
      </trkpt>
      <trkpt lat="42.70665" lon="1.41034">
        <ele>1475.582</ele>
        <time>2024-08-31T12:29:51Z</time>
      </trkpt>
      <trkpt lat="42.70664" lon="1.41037">
        <ele>1476.516</ele>
        <time>2024-08-31T12:29:53Z</time>
      </trkpt>
      <trkpt lat="42.70663" lon="1.41041">
        <ele>1474.292</ele>
        <time>2024-08-31T12:29:55Z</time>
      </trkpt>
      <trkpt lat="42.70663" lon="1.41044">
        <ele>1474.878</ele>
        <time>2024-08-31T12:29:57Z</time>
      </trkpt>
      <trkpt lat="42.70662" lon="1.41047">
        <ele>1472.443</ele>
        <time>2024-08-31T12:29:59Z</time>
      </trkpt>
      <trkpt lat="42.70661" lon="1.41049">
        <ele>1471.092</ele>
        <time>2024-08-31T12:30:01Z</time>
      </trkpt>
      <trkpt lat="42.70659" lon="1.41049">
        <ele>1469.761</ele>
        <time>2024-08-31T12:30:03Z</time>
      </trkpt>
      <trkpt lat="42.70658" lon="1.41046">
        <ele>1466.724</ele>
        <time>2024-08-31T12:30:05Z</time>
      </trkpt>
      <trkpt lat="42.70657" lon="1.41044">
        <ele>1464.491</ele>
        <time>2024-08-31T12:30:07Z</time>
      </trkpt>
      <trkpt lat="42.70658" lon="1.4104">
        <ele>1463.312</ele>
        <time>2024-08-31T12:30:09Z</time>
      </trkpt>
      <trkpt lat="42.70659" lon="1.41037">
        <ele>1464.805</ele>
        <time>2024-08-31T12:30:11Z</time>
      </trkpt>
      <trkpt lat="42.70661" lon="1.41034">
        <ele>1463.744</ele>
        <time>2024-08-31T12:30:13Z</time>
      </trkpt>
      <trkpt lat="42.70663" lon="1.41031">
        <ele>1464.165</ele>
        <time>2024-08-31T12:30:15Z</time>
      </trkpt>
      <trkpt lat="42.70665" lon="1.41029">
        <ele>1463.009</ele>
        <time>2024-08-31T12:30:17Z</time>
      </trkpt>
      <trkpt lat="42.70667" lon="1.41027">
        <ele>1462.898</ele>
        <time>2024-08-31T12:30:19Z</time>
      </trkpt>
      <trkpt lat="42.70669" lon="1.41025">
        <ele>1462.781</ele>
        <time>2024-08-31T12:30:21Z</time>
      </trkpt>
      <trkpt lat="42.7067" lon="1.41023">
        <ele>1460.092</ele>
        <time>2024-08-31T12:30:23Z</time>
      </trkpt>
      <trkpt lat="42.7067" lon="1.41023">
        <ele>1459.167</ele>
        <time>2024-08-31T12:30:25Z</time>
      </trkpt>
      <trkpt lat="42.7067" lon="1.41023">
        <ele>1459.146</ele>
        <time>2024-08-31T12:30:27Z</time>
      </trkpt>
      <trkpt lat="42.7067" lon="1.41023">
        <ele>1459.097</ele>
        <time>2024-08-31T12:30:29Z</time>
      </trkpt>
      <trkpt lat="42.7067" lon="1.41023">
        <ele>1458.515</ele>
        <time>2024-08-31T12:30:31Z</time>
      </trkpt>
      <trkpt lat="42.7067" lon="1.41023">
        <ele>1458.491</ele>
        <time>2024-08-31T12:30:33Z</time>
      </trkpt>
      <trkpt lat="42.7067" lon="1.41023">
        <ele>1458.649</ele>
        <time>2024-08-31T12:30:35Z</time>
      </trkpt>
      <trkpt lat="42.7067" lon="1.41023">
        <ele>1457.735</ele>
        <time>2024-08-31T12:30:37Z</time>
      </trkpt>
      <trkpt lat="42.70668" lon="1.41024">
        <ele>1456.444</ele>
        <time>2024-08-31T12:30:39Z</time>
      </trkpt>
      <trkpt lat="42.70668" lon="1.41028">
        <ele>1456.715</ele>
        <time>2024-08-31T12:30:41Z</time>
      </trkpt>
      <trkpt lat="42.70669" lon="1.41033">
        <ele>1457.745</ele>
        <time>2024-08-31T12:30:43Z</time>
      </trkpt>
      <trkpt lat="42.7067" lon="1.41036">
        <ele>1456.895</ele>
        <time>2024-08-31T12:30:45Z</time>
      </trkpt>
      <trkpt lat="42.7067" lon="1.41038">
        <ele>1457.347</ele>
        <time>2024-08-31T12:30:47Z</time>
      </trkpt>
      <trkpt lat="42.7067" lon="1.4104">
        <ele>1456.332</ele>
        <time>2024-08-31T12:30:49Z</time>
      </trkpt>
      <trkpt lat="42.70669" lon="1.41042">
        <ele>1456.858</ele>
        <time>2024-08-31T12:30:51Z</time>
      </trkpt>
      <trkpt lat="42.70671" lon="1.41045">
        <ele>1457.199</ele>
        <time>2024-08-31T12:30:53Z</time>
      </trkpt>
      <trkpt lat="42.70672" lon="1.41047">
        <ele>1456.139</ele>
        <time>2024-08-31T12:30:55Z</time>
      </trkpt>
      <trkpt lat="42.70673" lon="1.4105">
        <ele>1455.467</ele>
        <time>2024-08-31T12:30:57Z</time>
      </trkpt>
      <trkpt lat="42.70674" lon="1.41052">
        <ele>1455.22</ele>
        <time>2024-08-31T12:30:59Z</time>
      </trkpt>
      <trkpt lat="42.70676" lon="1.41056">
        <ele>1457.756</ele>
        <time>2024-08-31T12:31:01Z</time>
      </trkpt>
      <trkpt lat="42.70676" lon="1.41058">
        <ele>1458.175</ele>
        <time>2024-08-31T12:31:03Z</time>
      </trkpt>
      <trkpt lat="42.70675" lon="1.41061">
        <ele>1457.385</ele>
        <time>2024-08-31T12:31:05Z</time>
      </trkpt>
      <trkpt lat="42.70676" lon="1.41064">
        <ele>1457.196</ele>
        <time>2024-08-31T12:31:07Z</time>
      </trkpt>
      <trkpt lat="42.70678" lon="1.41066">
        <ele>1456.537</ele>
        <time>2024-08-31T12:31:09Z</time>
      </trkpt>
      <trkpt lat="42.70679" lon="1.41068">
        <ele>1456.693</ele>
        <time>2024-08-31T12:31:11Z</time>
      </trkpt>
      <trkpt lat="42.70681" lon="1.4107">
        <ele>1458.943</ele>
        <time>2024-08-31T12:31:13Z</time>
      </trkpt>
      <trkpt lat="42.70683" lon="1.41071">
        <ele>1459.388</ele>
        <time>2024-08-31T12:31:15Z</time>
      </trkpt>
      <trkpt lat="42.70683" lon="1.41073">
        <ele>1459.575</ele>
        <time>2024-08-31T12:31:17Z</time>
      </trkpt>
      <trkpt lat="42.70683" lon="1.41075">
        <ele>1458.464</ele>
        <time>2024-08-31T12:31:19Z</time>
      </trkpt>
      <trkpt lat="42.70684" lon="1.41077">
        <ele>1458.878</ele>
        <time>2024-08-31T12:31:21Z</time>
      </trkpt>
      <trkpt lat="42.70685" lon="1.41078">
        <ele>1459.143</ele>
        <time>2024-08-31T12:31:23Z</time>
      </trkpt>
      <trkpt lat="42.70685" lon="1.4108">
        <ele>1456.091</ele>
        <time>2024-08-31T12:31:25Z</time>
      </trkpt>
      <trkpt lat="42.70686" lon="1.41082">
        <ele>1454.964</ele>
        <time>2024-08-31T12:31:27Z</time>
      </trkpt>
      <trkpt lat="42.70686" lon="1.41083">
        <ele>1454.322</ele>
        <time>2024-08-31T12:31:29Z</time>
      </trkpt>
      <trkpt lat="42.70687" lon="1.41085">
        <ele>1453.873</ele>
        <time>2024-08-31T12:31:31Z</time>
      </trkpt>
      <trkpt lat="42.70688" lon="1.41087">
        <ele>1453.501</ele>
        <time>2024-08-31T12:31:33Z</time>
      </trkpt>
      <trkpt lat="42.70689" lon="1.41089">
        <ele>1453.05</ele>
        <time>2024-08-31T12:31:35Z</time>
      </trkpt>
      <trkpt lat="42.70689" lon="1.41091">
        <ele>1452.686</ele>
        <time>2024-08-31T12:31:37Z</time>
      </trkpt>
      <trkpt lat="42.7069" lon="1.41094">
        <ele>1450.699</ele>
        <time>2024-08-31T12:31:39Z</time>
      </trkpt>
      <trkpt lat="42.7069" lon="1.41097">
        <ele>1450.69</ele>
        <time>2024-08-31T12:31:41Z</time>
      </trkpt>
      <trkpt lat="42.70691" lon="1.41099">
        <ele>1448.636</ele>
        <time>2024-08-31T12:31:43Z</time>
      </trkpt>
      <trkpt lat="42.70692" lon="1.41101">
        <ele>1448.553</ele>
        <time>2024-08-31T12:31:45Z</time>
      </trkpt>
      <trkpt lat="42.70693" lon="1.41104">
        <ele>1447.599</ele>
        <time>2024-08-31T12:31:47Z</time>
      </trkpt>
      <trkpt lat="42.70693" lon="1.41106">
        <ele>1448.489</ele>
        <time>2024-08-31T12:31:49Z</time>
      </trkpt>
      <trkpt lat="42.70694" lon="1.41108">
        <ele>1448.014</ele>
        <time>2024-08-31T12:31:51Z</time>
      </trkpt>
      <trkpt lat="42.70694" lon="1.4111">
        <ele>1446.943</ele>
        <time>2024-08-31T12:31:53Z</time>
      </trkpt>
      <trkpt lat="42.70695" lon="1.41112">
        <ele>1444.977</ele>
        <time>2024-08-31T12:31:55Z</time>
      </trkpt>
      <trkpt lat="42.70696" lon="1.41115">
        <ele>1446.369</ele>
        <time>2024-08-31T12:31:57Z</time>
      </trkpt>
      <trkpt lat="42.70697" lon="1.41117">
        <ele>1446.884</ele>
        <time>2024-08-31T12:31:59Z</time>
      </trkpt>
      <trkpt lat="42.70698" lon="1.4112">
        <ele>1446.568</ele>
        <time>2024-08-31T12:32:01Z</time>
      </trkpt>
      <trkpt lat="42.70698" lon="1.41123">
        <ele>1446.397</ele>
        <time>2024-08-31T12:32:03Z</time>
      </trkpt>
      <trkpt lat="42.70698" lon="1.41125">
        <ele>1446.165</ele>
        <time>2024-08-31T12:32:05Z</time>
      </trkpt>
      <trkpt lat="42.70698" lon="1.41128">
        <ele>1445.275</ele>
        <time>2024-08-31T12:32:07Z</time>
      </trkpt>
      <trkpt lat="42.70698" lon="1.41131">
        <ele>1443.093</ele>
        <time>2024-08-31T12:32:09Z</time>
      </trkpt>
      <trkpt lat="42.70699" lon="1.41133">
        <ele>1442.297</ele>
        <time>2024-08-31T12:32:11Z</time>
      </trkpt>
      <trkpt lat="42.707" lon="1.41137">
        <ele>1442.423</ele>
        <time>2024-08-31T12:32:13Z</time>
      </trkpt>
      <trkpt lat="42.707" lon="1.41139">
        <ele>1441.341</ele>
        <time>2024-08-31T12:32:15Z</time>
      </trkpt>
      <trkpt lat="42.70699" lon="1.41141">
        <ele>1441.054</ele>
        <time>2024-08-31T12:32:17Z</time>
      </trkpt>
      <trkpt lat="42.70699" lon="1.41143">
        <ele>1438.268</ele>
        <time>2024-08-31T12:32:19Z</time>
      </trkpt>
      <trkpt lat="42.70701" lon="1.41147">
        <ele>1437.177</ele>
        <time>2024-08-31T12:32:21Z</time>
      </trkpt>
      <trkpt lat="42.70701" lon="1.41149">
        <ele>1436.845</ele>
        <time>2024-08-31T12:32:23Z</time>
      </trkpt>
      <trkpt lat="42.70702" lon="1.41154">
        <ele>1436.091</ele>
        <time>2024-08-31T12:32:25Z</time>
      </trkpt>
      <trkpt lat="42.70702" lon="1.41155">
        <ele>1433.682</ele>
        <time>2024-08-31T12:32:27Z</time>
      </trkpt>
      <trkpt lat="42.70702" lon="1.41157">
        <ele>1432.935</ele>
        <time>2024-08-31T12:32:29Z</time>
      </trkpt>
      <trkpt lat="42.70702" lon="1.41159">
        <ele>1433.663</ele>
        <time>2024-08-31T12:32:31Z</time>
      </trkpt>
      <trkpt lat="42.70702" lon="1.41161">
        <ele>1432.868</ele>
        <time>2024-08-31T12:32:33Z</time>
      </trkpt>
      <trkpt lat="42.70701" lon="1.41164">
        <ele>1432.607</ele>
        <time>2024-08-31T12:32:35Z</time>
      </trkpt>
      <trkpt lat="42.707" lon="1.41166">
        <ele>1432.426</ele>
        <time>2024-08-31T12:32:37Z</time>
      </trkpt>
      <trkpt lat="42.70699" lon="1.41169">
        <ele>1430.66</ele>
        <time>2024-08-31T12:32:39Z</time>
      </trkpt>
      <trkpt lat="42.70698" lon="1.41172">
        <ele>1429.869</ele>
        <time>2024-08-31T12:32:41Z</time>
      </trkpt>
      <trkpt lat="42.70698" lon="1.41175">
        <ele>1428.064</ele>
        <time>2024-08-31T12:32:43Z</time>
      </trkpt>
      <trkpt lat="42.70697" lon="1.41177">
        <ele>1425.033</ele>
        <time>2024-08-31T12:32:45Z</time>
      </trkpt>
      <trkpt lat="42.70696" lon="1.41179">
        <ele>1423.874</ele>
        <time>2024-08-31T12:32:47Z</time>
      </trkpt>
      <trkpt lat="42.70696" lon="1.41182">
        <ele>1423.033</ele>
        <time>2024-08-31T12:32:49Z</time>
      </trkpt>
      <trkpt lat="42.70696" lon="1.41184">
        <ele>1421.372</ele>
        <time>2024-08-31T12:32:51Z</time>
      </trkpt>
      <trkpt lat="42.70696" lon="1.41187">
        <ele>1420.072</ele>
        <time>2024-08-31T12:32:53Z</time>
      </trkpt>
      <trkpt lat="42.70696" lon="1.41191">
        <ele>1419.622</ele>
        <time>2024-08-31T12:32:55Z</time>
      </trkpt>
      <trkpt lat="42.70696" lon="1.41193">
        <ele>1419.205</ele>
        <time>2024-08-31T12:32:57Z</time>
      </trkpt>
      <trkpt lat="42.70696" lon="1.41195">
        <ele>1418.368</ele>
        <time>2024-08-31T12:32:59Z</time>
      </trkpt>
      <trkpt lat="42.70696" lon="1.41196">
        <ele>1417.745</ele>
        <time>2024-08-31T12:33:01Z</time>
      </trkpt>
      <trkpt lat="42.70696" lon="1.41198">
        <ele>1415.886</ele>
        <time>2024-08-31T12:33:03Z</time>
      </trkpt>
      <trkpt lat="42.70695" lon="1.41199">
        <ele>1416.748</ele>
        <time>2024-08-31T12:33:05Z</time>
      </trkpt>
      <trkpt lat="42.70695" lon="1.41201">
        <ele>1417.732</ele>
        <time>2024-08-31T12:33:07Z</time>
      </trkpt>
      <trkpt lat="42.70695" lon="1.41203">
        <ele>1419.152</ele>
        <time>2024-08-31T12:33:09Z</time>
      </trkpt>
      <trkpt lat="42.70695" lon="1.41205">
        <ele>1418.723</ele>
        <time>2024-08-31T12:33:11Z</time>
      </trkpt>
      <trkpt lat="42.70696" lon="1.41208">
        <ele>1416.842</ele>
        <time>2024-08-31T12:33:13Z</time>
      </trkpt>
      <trkpt lat="42.70696" lon="1.4121">
        <ele>1415.589</ele>
        <time>2024-08-31T12:33:15Z</time>
      </trkpt>
      <trkpt lat="42.70694" lon="1.41214">
        <ele>1416.004</ele>
        <time>2024-08-31T12:33:17Z</time>
      </trkpt>
      <trkpt lat="42.70693" lon="1.41217">
        <ele>1416.129</ele>
        <time>2024-08-31T12:33:19Z</time>
      </trkpt>
      <trkpt lat="42.70692" lon="1.41219">
        <ele>1416.133</ele>
        <time>2024-08-31T12:33:21Z</time>
      </trkpt>
      <trkpt lat="42.70692" lon="1.41222">
        <ele>1417.26</ele>
        <time>2024-08-31T12:33:23Z</time>
      </trkpt>
      <trkpt lat="42.70692" lon="1.41225">
        <ele>1416.872</ele>
        <time>2024-08-31T12:33:25Z</time>
      </trkpt>
      <trkpt lat="42.70692" lon="1.41228">
        <ele>1415.921</ele>
        <time>2024-08-31T12:33:27Z</time>
      </trkpt>
      <trkpt lat="42.70691" lon="1.41231">
        <ele>1416.419</ele>
        <time>2024-08-31T12:33:29Z</time>
      </trkpt>
      <trkpt lat="42.7069" lon="1.41234">
        <ele>1416.292</ele>
        <time>2024-08-31T12:33:31Z</time>
      </trkpt>
      <trkpt lat="42.70689" lon="1.41236">
        <ele>1418.327</ele>
        <time>2024-08-31T12:33:33Z</time>
      </trkpt>
      <trkpt lat="42.70689" lon="1.41239">
        <ele>1416.868</ele>
        <time>2024-08-31T12:33:35Z</time>
      </trkpt>
      <trkpt lat="42.70688" lon="1.41241">
        <ele>1416.519</ele>
        <time>2024-08-31T12:33:37Z</time>
      </trkpt>
      <trkpt lat="42.70688" lon="1.41244">
        <ele>1414.992</ele>
        <time>2024-08-31T12:33:39Z</time>
      </trkpt>
      <trkpt lat="42.70689" lon="1.41247">
        <ele>1416.085</ele>
        <time>2024-08-31T12:33:41Z</time>
      </trkpt>
      <trkpt lat="42.70689" lon="1.4125">
        <ele>1416.195</ele>
        <time>2024-08-31T12:33:43Z</time>
      </trkpt>
      <trkpt lat="42.70688" lon="1.41254">
        <ele>1414.789</ele>
        <time>2024-08-31T12:33:45Z</time>
      </trkpt>
      <trkpt lat="42.70687" lon="1.41257">
        <ele>1413.794</ele>
        <time>2024-08-31T12:33:47Z</time>
      </trkpt>
      <trkpt lat="42.70687" lon="1.41259">
        <ele>1414.902</ele>
        <time>2024-08-31T12:33:49Z</time>
      </trkpt>
      <trkpt lat="42.70688" lon="1.41262">
        <ele>1415.456</ele>
        <time>2024-08-31T12:33:51Z</time>
      </trkpt>
      <trkpt lat="42.70688" lon="1.41265">
        <ele>1415.509</ele>
        <time>2024-08-31T12:33:53Z</time>
      </trkpt>
      <trkpt lat="42.70687" lon="1.41268">
        <ele>1414.282</ele>
        <time>2024-08-31T12:33:55Z</time>
      </trkpt>
      <trkpt lat="42.70686" lon="1.41272">
        <ele>1415.132</ele>
        <time>2024-08-31T12:33:57Z</time>
      </trkpt>
      <trkpt lat="42.70685" lon="1.41274">
        <ele>1417.338</ele>
        <time>2024-08-31T12:33:59Z</time>
      </trkpt>
      <trkpt lat="42.70684" lon="1.41277">
        <ele>1417.173</ele>
        <time>2024-08-31T12:34:01Z</time>
      </trkpt>
      <trkpt lat="42.70685" lon="1.4128">
        <ele>1417.313</ele>
        <time>2024-08-31T12:34:03Z</time>
      </trkpt>
      <trkpt lat="42.70685" lon="1.41282">
        <ele>1416.636</ele>
        <time>2024-08-31T12:34:05Z</time>
      </trkpt>
      <trkpt lat="42.70683" lon="1.41285">
        <ele>1415.133</ele>
        <time>2024-08-31T12:34:07Z</time>
      </trkpt>
      <trkpt lat="42.70682" lon="1.41289">
        <ele>1414.573</ele>
        <time>2024-08-31T12:34:09Z</time>
      </trkpt>
      <trkpt lat="42.70682" lon="1.41291">
        <ele>1413.126</ele>
        <time>2024-08-31T12:34:11Z</time>
      </trkpt>
      <trkpt lat="42.70682" lon="1.41294">
        <ele>1412.048</ele>
        <time>2024-08-31T12:34:13Z</time>
      </trkpt>
      <trkpt lat="42.70682" lon="1.41298">
        <ele>1411.184</ele>
        <time>2024-08-31T12:34:15Z</time>
      </trkpt>
      <trkpt lat="42.70682" lon="1.413">
        <ele>1411.069</ele>
        <time>2024-08-31T12:34:17Z</time>
      </trkpt>
      <trkpt lat="42.70684" lon="1.41302">
        <ele>1411.138</ele>
        <time>2024-08-31T12:34:19Z</time>
      </trkpt>
      <trkpt lat="42.70686" lon="1.41304">
        <ele>1409.446</ele>
        <time>2024-08-31T12:34:21Z</time>
      </trkpt>
      <trkpt lat="42.70686" lon="1.41307">
        <ele>1409.012</ele>
        <time>2024-08-31T12:34:23Z</time>
      </trkpt>
      <trkpt lat="42.70686" lon="1.4131">
        <ele>1410.014</ele>
        <time>2024-08-31T12:34:25Z</time>
      </trkpt>
      <trkpt lat="42.70686" lon="1.41313">
        <ele>1409.452</ele>
        <time>2024-08-31T12:34:27Z</time>
      </trkpt>
      <trkpt lat="42.70686" lon="1.41316">
        <ele>1410.433</ele>
        <time>2024-08-31T12:34:29Z</time>
      </trkpt>
      <trkpt lat="42.70685" lon="1.41319">
        <ele>1409.814</ele>
        <time>2024-08-31T12:34:31Z</time>
      </trkpt>
      <trkpt lat="42.70686" lon="1.41322">
        <ele>1409.36</ele>
        <time>2024-08-31T12:34:33Z</time>
      </trkpt>
      <trkpt lat="42.70686" lon="1.41325">
        <ele>1409.043</ele>
        <time>2024-08-31T12:34:35Z</time>
      </trkpt>
      <trkpt lat="42.70685" lon="1.41329">
        <ele>1408.624</ele>
        <time>2024-08-31T12:34:37Z</time>
      </trkpt>
      <trkpt lat="42.70684" lon="1.41332">
        <ele>1408.147</ele>
        <time>2024-08-31T12:34:39Z</time>
      </trkpt>
      <trkpt lat="42.70684" lon="1.41335">
        <ele>1408.879</ele>
        <time>2024-08-31T12:34:41Z</time>
      </trkpt>
      <trkpt lat="42.70685" lon="1.41338">
        <ele>1409.16</ele>
        <time>2024-08-31T12:34:43Z</time>
      </trkpt>
      <trkpt lat="42.70684" lon="1.41341">
        <ele>1407.162</ele>
        <time>2024-08-31T12:34:45Z</time>
      </trkpt>
      <trkpt lat="42.70685" lon="1.41343">
        <ele>1407.332</ele>
        <time>2024-08-31T12:34:47Z</time>
      </trkpt>
      <trkpt lat="42.70685" lon="1.41348">
        <ele>1406.579</ele>
        <time>2024-08-31T12:34:49Z</time>
      </trkpt>
      <trkpt lat="42.70683" lon="1.41351">
        <ele>1407.186</ele>
        <time>2024-08-31T12:34:51Z</time>
      </trkpt>
      <trkpt lat="42.70683" lon="1.41353">
        <ele>1408.576</ele>
        <time>2024-08-31T12:34:53Z</time>
      </trkpt>
      <trkpt lat="42.70683" lon="1.41356">
        <ele>1409.469</ele>
        <time>2024-08-31T12:34:55Z</time>
      </trkpt>
      <trkpt lat="42.70682" lon="1.41359">
        <ele>1409.392</ele>
        <time>2024-08-31T12:34:57Z</time>
      </trkpt>
      <trkpt lat="42.70681" lon="1.41362">
        <ele>1408.221</ele>
        <time>2024-08-31T12:34:59Z</time>
      </trkpt>
      <trkpt lat="42.7068" lon="1.41365">
        <ele>1407.386</ele>
        <time>2024-08-31T12:35:01Z</time>
      </trkpt>
      <trkpt lat="42.70681" lon="1.41367">
        <ele>1406.797</ele>
        <time>2024-08-31T12:35:03Z</time>
      </trkpt>
      <trkpt lat="42.70681" lon="1.4137">
        <ele>1405.772</ele>
        <time>2024-08-31T12:35:05Z</time>
      </trkpt>
      <trkpt lat="42.70681" lon="1.41373">
        <ele>1405.733</ele>
        <time>2024-08-31T12:35:07Z</time>
      </trkpt>
      <trkpt lat="42.70681" lon="1.41375">
        <ele>1404.365</ele>
        <time>2024-08-31T12:35:09Z</time>
      </trkpt>
      <trkpt lat="42.70681" lon="1.4138">
        <ele>1402.211</ele>
        <time>2024-08-31T12:35:11Z</time>
      </trkpt>
      <trkpt lat="42.70681" lon="1.41383">
        <ele>1401.673</ele>
        <time>2024-08-31T12:35:13Z</time>
      </trkpt>
      <trkpt lat="42.70682" lon="1.41386">
        <ele>1400.526</ele>
        <time>2024-08-31T12:35:15Z</time>
      </trkpt>
      <trkpt lat="42.70682" lon="1.41389">
        <ele>1399.097</ele>
        <time>2024-08-31T12:35:17Z</time>
      </trkpt>
      <trkpt lat="42.70682" lon="1.41393">
        <ele>1400.831</ele>
        <time>2024-08-31T12:35:19Z</time>
      </trkpt>
      <trkpt lat="42.70682" lon="1.41396">
        <ele>1401.371</ele>
        <time>2024-08-31T12:35:21Z</time>
      </trkpt>
      <trkpt lat="42.70681" lon="1.41399">
        <ele>1403.371</ele>
        <time>2024-08-31T12:35:23Z</time>
      </trkpt>
      <trkpt lat="42.70681" lon="1.41402">
        <ele>1403.349</ele>
        <time>2024-08-31T12:35:25Z</time>
      </trkpt>
      <trkpt lat="42.7068" lon="1.41404">
        <ele>1404.374</ele>
        <time>2024-08-31T12:35:27Z</time>
      </trkpt>
      <trkpt lat="42.70679" lon="1.41407">
        <ele>1404.371</ele>
        <time>2024-08-31T12:35:29Z</time>
      </trkpt>
      <trkpt lat="42.70679" lon="1.4141">
        <ele>1406.158</ele>
        <time>2024-08-31T12:35:31Z</time>
      </trkpt>
      <trkpt lat="42.7068" lon="1.41412">
        <ele>1406.659</ele>
        <time>2024-08-31T12:35:33Z</time>
      </trkpt>
      <trkpt lat="42.7068" lon="1.41415">
        <ele>1405.598</ele>
        <time>2024-08-31T12:35:35Z</time>
      </trkpt>
      <trkpt lat="42.7068" lon="1.41418">
        <ele>1403.732</ele>
        <time>2024-08-31T12:35:37Z</time>
      </trkpt>
      <trkpt lat="42.70679" lon="1.4142">
        <ele>1401.875</ele>
        <time>2024-08-31T12:35:39Z</time>
      </trkpt>
      <trkpt lat="42.70678" lon="1.41423">
        <ele>1401.5</ele>
        <time>2024-08-31T12:35:41Z</time>
      </trkpt>
      <trkpt lat="42.70678" lon="1.41426">
        <ele>1401.256</ele>
        <time>2024-08-31T12:35:43Z</time>
      </trkpt>
      <trkpt lat="42.70678" lon="1.41428">
        <ele>1401.231</ele>
        <time>2024-08-31T12:35:45Z</time>
      </trkpt>
      <trkpt lat="42.70678" lon="1.41431">
        <ele>1401.402</ele>
        <time>2024-08-31T12:35:47Z</time>
      </trkpt>
      <trkpt lat="42.70678" lon="1.41433">
        <ele>1403.281</ele>
        <time>2024-08-31T12:35:49Z</time>
      </trkpt>
      <trkpt lat="42.70678" lon="1.41436">
        <ele>1404.064</ele>
        <time>2024-08-31T12:35:51Z</time>
      </trkpt>
      <trkpt lat="42.70678" lon="1.41439">
        <ele>1403.059</ele>
        <time>2024-08-31T12:35:53Z</time>
      </trkpt>
      <trkpt lat="42.70679" lon="1.41442">
        <ele>1401.864</ele>
        <time>2024-08-31T12:35:55Z</time>
      </trkpt>
      <trkpt lat="42.70679" lon="1.41446">
        <ele>1399.826</ele>
        <time>2024-08-31T12:35:57Z</time>
      </trkpt>
      <trkpt lat="42.70678" lon="1.4145">
        <ele>1399.742</ele>
        <time>2024-08-31T12:35:59Z</time>
      </trkpt>
      <trkpt lat="42.70678" lon="1.41452">
        <ele>1400.141</ele>
        <time>2024-08-31T12:36:00Z</time>
      </trkpt>
      <trkpt lat="42.70678" lon="1.41457">
        <ele>1400.13</ele>
        <time>2024-08-31T12:36:03Z</time>
      </trkpt>
      <trkpt lat="42.70678" lon="1.4146">
        <ele>1400.339</ele>
        <time>2024-08-31T12:36:05Z</time>
      </trkpt>
      <trkpt lat="42.70677" lon="1.41463">
        <ele>1400.086</ele>
        <time>2024-08-31T12:36:07Z</time>
      </trkpt>
      <trkpt lat="42.70677" lon="1.41466">
        <ele>1399.819</ele>
        <time>2024-08-31T12:36:09Z</time>
      </trkpt>
      <trkpt lat="42.70677" lon="1.41469">
        <ele>1399.033</ele>
        <time>2024-08-31T12:36:11Z</time>
      </trkpt>
      <trkpt lat="42.70677" lon="1.41473">
        <ele>1398.262</ele>
        <time>2024-08-31T12:36:13Z</time>
      </trkpt>
      <trkpt lat="42.70677" lon="1.41477">
        <ele>1398.301</ele>
        <time>2024-08-31T12:36:15Z</time>
      </trkpt>
      <trkpt lat="42.70678" lon="1.41479">
        <ele>1398.103</ele>
        <time>2024-08-31T12:36:17Z</time>
      </trkpt>
      <trkpt lat="42.70679" lon="1.41482">
        <ele>1397.448</ele>
        <time>2024-08-31T12:36:19Z</time>
      </trkpt>
      <trkpt lat="42.7068" lon="1.41485">
        <ele>1397.365</ele>
        <time>2024-08-31T12:36:21Z</time>
      </trkpt>
      <trkpt lat="42.7068" lon="1.41489">
        <ele>1397.351</ele>
        <time>2024-08-31T12:36:23Z</time>
      </trkpt>
      <trkpt lat="42.70679" lon="1.41491">
        <ele>1397.979</ele>
        <time>2024-08-31T12:36:25Z</time>
      </trkpt>
      <trkpt lat="42.70678" lon="1.41493">
        <ele>1398.598</ele>
        <time>2024-08-31T12:36:27Z</time>
      </trkpt>
      <trkpt lat="42.70678" lon="1.41496">
        <ele>1397.168</ele>
        <time>2024-08-31T12:36:29Z</time>
      </trkpt>
      <trkpt lat="42.70677" lon="1.41499">
        <ele>1396.389</ele>
        <time>2024-08-31T12:36:31Z</time>
      </trkpt>
      <trkpt lat="42.70676" lon="1.41502">
        <ele>1396.719</ele>
        <time>2024-08-31T12:36:33Z</time>
      </trkpt>
      <trkpt lat="42.70675" lon="1.41506">
        <ele>1394.128</ele>
        <time>2024-08-31T12:36:35Z</time>
      </trkpt>
      <trkpt lat="42.70675" lon="1.41509">
        <ele>1393.644</ele>
        <time>2024-08-31T12:36:37Z</time>
      </trkpt>
      <trkpt lat="42.70674" lon="1.41512">
        <ele>1393.734</ele>
        <time>2024-08-31T12:36:39Z</time>
      </trkpt>
      <trkpt lat="42.70674" lon="1.41514">
        <ele>1394.331</ele>
        <time>2024-08-31T12:36:41Z</time>
      </trkpt>
      <trkpt lat="42.70672" lon="1.41515">
        <ele>1394.495</ele>
        <time>2024-08-31T12:36:43Z</time>
      </trkpt>
      <trkpt lat="42.70671" lon="1.41516">
        <ele>1395.569</ele>
        <time>2024-08-31T12:36:45Z</time>
      </trkpt>
      <trkpt lat="42.70669" lon="1.41517">
        <ele>1395.833</ele>
        <time>2024-08-31T12:36:47Z</time>
      </trkpt>
      <trkpt lat="42.70668" lon="1.41517">
        <ele>1396.346</ele>
        <time>2024-08-31T12:36:49Z</time>
      </trkpt>
      <trkpt lat="42.70666" lon="1.41517">
        <ele>1395.82</ele>
        <time>2024-08-31T12:36:51Z</time>
      </trkpt>
      <trkpt lat="42.70664" lon="1.41518">
        <ele>1395.754</ele>
        <time>2024-08-31T12:36:53Z</time>
      </trkpt>
      <trkpt lat="42.70663" lon="1.41517">
        <ele>1394.712</ele>
        <time>2024-08-31T12:36:55Z</time>
      </trkpt>
      <trkpt lat="42.70663" lon="1.41516">
        <ele>1394.008</ele>
        <time>2024-08-31T12:36:57Z</time>
      </trkpt>
      <trkpt lat="42.70661" lon="1.41516">
        <ele>1392.715</ele>
        <time>2024-08-31T12:36:59Z</time>
      </trkpt>
      <trkpt lat="42.7066" lon="1.41517">
        <ele>1392.089</ele>
        <time>2024-08-31T12:37:01Z</time>
      </trkpt>
      <trkpt lat="42.7066" lon="1.41518">
        <ele>1391.672</ele>
        <time>2024-08-31T12:37:03Z</time>
      </trkpt>
      <trkpt lat="42.7066" lon="1.41519">
        <ele>1391.345</ele>
        <time>2024-08-31T12:37:05Z</time>
      </trkpt>
      <trkpt lat="42.70659" lon="1.4152">
        <ele>1391.974</ele>
        <time>2024-08-31T12:37:07Z</time>
      </trkpt>
      <trkpt lat="42.70659" lon="1.41521">
        <ele>1392.394</ele>
        <time>2024-08-31T12:37:09Z</time>
      </trkpt>
      <trkpt lat="42.7066" lon="1.41522">
        <ele>1391.959</ele>
        <time>2024-08-31T12:37:11Z</time>
      </trkpt>
      <trkpt lat="42.7066" lon="1.41524">
        <ele>1392.568</ele>
        <time>2024-08-31T12:37:13Z</time>
      </trkpt>
      <trkpt lat="42.70659" lon="1.41526">
        <ele>1392.442</ele>
        <time>2024-08-31T12:37:15Z</time>
      </trkpt>
      <trkpt lat="42.7066" lon="1.41528">
        <ele>1393.77</ele>
        <time>2024-08-31T12:37:17Z</time>
      </trkpt>
      <trkpt lat="42.70661" lon="1.41529">
        <ele>1394.38</ele>
        <time>2024-08-31T12:37:19Z</time>
      </trkpt>
      <trkpt lat="42.70661" lon="1.41531">
        <ele>1394.189</ele>
        <time>2024-08-31T12:37:21Z</time>
      </trkpt>
      <trkpt lat="42.7066" lon="1.41533">
        <ele>1393.529</ele>
        <time>2024-08-31T12:37:23Z</time>
      </trkpt>
      <trkpt lat="42.7066" lon="1.41534">
        <ele>1393.937</ele>
        <time>2024-08-31T12:37:25Z</time>
      </trkpt>
      <trkpt lat="42.70661" lon="1.41536">
        <ele>1393.32</ele>
        <time>2024-08-31T12:37:27Z</time>
      </trkpt>
      <trkpt lat="42.70662" lon="1.41538">
        <ele>1393.451</ele>
        <time>2024-08-31T12:37:29Z</time>
      </trkpt>
      <trkpt lat="42.70662" lon="1.41539">
        <ele>1394.583</ele>
        <time>2024-08-31T12:37:31Z</time>
      </trkpt>
      <trkpt lat="42.70663" lon="1.41539">
        <ele>1394.909</ele>
        <time>2024-08-31T12:37:33Z</time>
      </trkpt>
      <trkpt lat="42.70662" lon="1.41542">
        <ele>1395.015</ele>
        <time>2024-08-31T12:37:35Z</time>
      </trkpt>
      <trkpt lat="42.7066" lon="1.41543">
        <ele>1394.16</ele>
        <time>2024-08-31T12:37:37Z</time>
      </trkpt>
      <trkpt lat="42.70659" lon="1.41542">
        <ele>1392.89</ele>
        <time>2024-08-31T12:37:39Z</time>
      </trkpt>
      <trkpt lat="42.70658" lon="1.41542">
        <ele>1394.261</ele>
        <time>2024-08-31T12:37:41Z</time>
      </trkpt>
      <trkpt lat="42.70658" lon="1.41542">
        <ele>1393.389</ele>
        <time>2024-08-31T12:37:43Z</time>
      </trkpt>
      <trkpt lat="42.70657" lon="1.41544">
        <ele>1393.902</ele>
        <time>2024-08-31T12:37:45Z</time>
      </trkpt>
      <trkpt lat="42.70657" lon="1.41546">
        <ele>1396.051</ele>
        <time>2024-08-31T12:37:47Z</time>
      </trkpt>
      <trkpt lat="42.70657" lon="1.41547">
        <ele>1398.096</ele>
        <time>2024-08-31T12:37:49Z</time>
      </trkpt>
      <trkpt lat="42.70657" lon="1.41548">
        <ele>1397.788</ele>
        <time>2024-08-31T12:37:51Z</time>
      </trkpt>
      <trkpt lat="42.70657" lon="1.41549">
        <ele>1395.586</ele>
        <time>2024-08-31T12:37:53Z</time>
      </trkpt>
      <trkpt lat="42.70656" lon="1.41551">
        <ele>1394.709</ele>
        <time>2024-08-31T12:37:55Z</time>
      </trkpt>
      <trkpt lat="42.70657" lon="1.41552">
        <ele>1395.08</ele>
        <time>2024-08-31T12:37:57Z</time>
      </trkpt>
      <trkpt lat="42.70658" lon="1.41554">
        <ele>1394.272</ele>
        <time>2024-08-31T12:37:59Z</time>
      </trkpt>
      <trkpt lat="42.70659" lon="1.41555">
        <ele>1395.045</ele>
        <time>2024-08-31T12:38:01Z</time>
      </trkpt>
      <trkpt lat="42.70659" lon="1.41555">
        <ele>1394.357</ele>
        <time>2024-08-31T12:38:03Z</time>
      </trkpt>
      <trkpt lat="42.70659" lon="1.41555">
        <ele>1393.508</ele>
        <time>2024-08-31T12:38:05Z</time>
      </trkpt>
      <trkpt lat="42.70659" lon="1.41555">
        <ele>1394.745</ele>
        <time>2024-08-31T12:38:07Z</time>
      </trkpt>
      <trkpt lat="42.70659" lon="1.41555">
        <ele>1395.07</ele>
        <time>2024-08-31T12:38:09Z</time>
      </trkpt>
      <trkpt lat="42.70659" lon="1.41555">
        <ele>1395.079</ele>
        <time>2024-08-31T12:38:11Z</time>
      </trkpt>
      <trkpt lat="42.70659" lon="1.41555">
        <ele>1395.078</ele>
        <time>2024-08-31T12:38:13Z</time>
      </trkpt>
      <trkpt lat="42.70659" lon="1.41555">
        <ele>1395.081</ele>
        <time>2024-08-31T12:38:15Z</time>
      </trkpt>
      <trkpt lat="42.70659" lon="1.41555">
        <ele>1395.085</ele>
        <time>2024-08-31T12:38:17Z</time>
      </trkpt>
      <trkpt lat="42.70659" lon="1.41555">
        <ele>1395.088</ele>
        <time>2024-08-31T12:38:19Z</time>
      </trkpt>
      <trkpt lat="42.70659" lon="1.41555">
        <ele>1395.093</ele>
        <time>2024-08-31T12:38:21Z</time>
      </trkpt>
      <trkpt lat="42.70659" lon="1.41555">
        <ele>1395.096</ele>
        <time>2024-08-31T12:38:23Z</time>
      </trkpt>
      <trkpt lat="42.70659" lon="1.41555">
        <ele>1395.094</ele>
        <time>2024-08-31T12:38:25Z</time>
      </trkpt>
      <trkpt lat="42.70659" lon="1.41555">
        <ele>1395.091</ele>
        <time>2024-08-31T12:38:27Z</time>
      </trkpt>
      <trkpt lat="42.70659" lon="1.41555">
        <ele>1395.097</ele>
        <time>2024-08-31T12:38:29Z</time>
      </trkpt>
      <trkpt lat="42.70659" lon="1.41555">
        <ele>1394.765</ele>
        <time>2024-08-31T12:38:31Z</time>
      </trkpt>
      <trkpt lat="42.70659" lon="1.41555">
        <ele>1393.643</ele>
        <time>2024-08-31T12:38:33Z</time>
      </trkpt>
      <trkpt lat="42.70659" lon="1.41555">
        <ele>1393.579</ele>
        <time>2024-08-31T12:38:35Z</time>
      </trkpt>
      <trkpt lat="42.70659" lon="1.41555">
        <ele>1393.636</ele>
        <time>2024-08-31T12:38:37Z</time>
      </trkpt>
      <trkpt lat="42.70659" lon="1.41555">
        <ele>1393.647</ele>
        <time>2024-08-31T12:38:39Z</time>
      </trkpt>
      <trkpt lat="42.70659" lon="1.41555">
        <ele>1393.661</ele>
        <time>2024-08-31T12:38:41Z</time>
      </trkpt>
      <trkpt lat="42.70659" lon="1.41555">
        <ele>1393.663</ele>
        <time>2024-08-31T12:38:43Z</time>
      </trkpt>
      <trkpt lat="42.70659" lon="1.41555">
        <ele>1393.664</ele>
        <time>2024-08-31T12:38:45Z</time>
      </trkpt>
      <trkpt lat="42.70659" lon="1.41555">
        <ele>1393.668</ele>
        <time>2024-08-31T12:38:47Z</time>
      </trkpt>
      <trkpt lat="42.70659" lon="1.41555">
        <ele>1393.665</ele>
        <time>2024-08-31T12:38:49Z</time>
      </trkpt>
      <trkpt lat="42.70659" lon="1.41555">
        <ele>1393.666</ele>
        <time>2024-08-31T12:38:51Z</time>
      </trkpt>
      <trkpt lat="42.70659" lon="1.41555">
        <ele>1393.665</ele>
        <time>2024-08-31T12:38:53Z</time>
      </trkpt>
      <trkpt lat="42.70659" lon="1.41555">
        <ele>1393.215</ele>
        <time>2024-08-31T12:38:55Z</time>
      </trkpt>
      <trkpt lat="42.70659" lon="1.41555">
        <ele>1393.154</ele>
        <time>2024-08-31T12:38:57Z</time>
      </trkpt>
      <trkpt lat="42.70659" lon="1.41555">
        <ele>1392.077</ele>
        <time>2024-08-31T12:38:59Z</time>
      </trkpt>
      <trkpt lat="42.70659" lon="1.41555">
        <ele>1392.073</ele>
        <time>2024-08-31T12:39:01Z</time>
      </trkpt>
      <trkpt lat="42.70659" lon="1.41555">
        <ele>1391.717</ele>
        <time>2024-08-31T12:39:03Z</time>
      </trkpt>
      <trkpt lat="42.70659" lon="1.41555">
        <ele>1391.711</ele>
        <time>2024-08-31T12:39:05Z</time>
      </trkpt>
      <trkpt lat="42.70659" lon="1.41555">
        <ele>1391.694</ele>
        <time>2024-08-31T12:39:07Z</time>
      </trkpt>
      <trkpt lat="42.70659" lon="1.41555">
        <ele>1391.703</ele>
        <time>2024-08-31T12:39:09Z</time>
      </trkpt>
      <trkpt lat="42.70659" lon="1.41555">
        <ele>1391.713</ele>
        <time>2024-08-31T12:39:11Z</time>
      </trkpt>
      <trkpt lat="42.70659" lon="1.41555">
        <ele>1391.709</ele>
        <time>2024-08-31T12:39:13Z</time>
      </trkpt>
      <trkpt lat="42.70659" lon="1.41555">
        <ele>1391.706</ele>
        <time>2024-08-31T12:39:15Z</time>
      </trkpt>
      <trkpt lat="42.70659" lon="1.41555">
        <ele>1391.72</ele>
        <time>2024-08-31T12:39:17Z</time>
      </trkpt>
      <trkpt lat="42.70659" lon="1.41555">
        <ele>1391.736</ele>
        <time>2024-08-31T12:39:19Z</time>
      </trkpt>
      <trkpt lat="42.70659" lon="1.41555">
        <ele>1391.743</ele>
        <time>2024-08-31T12:39:21Z</time>
      </trkpt>
      <trkpt lat="42.70659" lon="1.41555">
        <ele>1391.748</ele>
        <time>2024-08-31T12:39:23Z</time>
      </trkpt>
      <trkpt lat="42.70659" lon="1.41555">
        <ele>1391.748</ele>
        <time>2024-08-31T12:39:25Z</time>
      </trkpt>
      <trkpt lat="42.70659" lon="1.41555">
        <ele>1391.742</ele>
        <time>2024-08-31T12:39:27Z</time>
      </trkpt>
      <trkpt lat="42.70659" lon="1.41555">
        <ele>1391.751</ele>
        <time>2024-08-31T12:39:29Z</time>
      </trkpt>
      <trkpt lat="42.70659" lon="1.41555">
        <ele>1391.756</ele>
        <time>2024-08-31T12:39:31Z</time>
      </trkpt>
      <trkpt lat="42.70659" lon="1.41555">
        <ele>1391.758</ele>
        <time>2024-08-31T12:39:33Z</time>
      </trkpt>
      <trkpt lat="42.70659" lon="1.41555">
        <ele>1391.753</ele>
        <time>2024-08-31T12:39:35Z</time>
      </trkpt>
      <trkpt lat="42.70659" lon="1.41555">
        <ele>1391.758</ele>
        <time>2024-08-31T12:39:37Z</time>
      </trkpt>
      <trkpt lat="42.70659" lon="1.41555">
        <ele>1391.77</ele>
        <time>2024-08-31T12:39:39Z</time>
      </trkpt>
      <trkpt lat="42.70659" lon="1.41555">
        <ele>1391.772</ele>
        <time>2024-08-31T12:39:41Z</time>
      </trkpt>
      <trkpt lat="42.70659" lon="1.41555">
        <ele>1391.773</ele>
        <time>2024-08-31T12:39:43Z</time>
      </trkpt>
      <trkpt lat="42.70659" lon="1.41555">
        <ele>1391.761</ele>
        <time>2024-08-31T12:39:45Z</time>
      </trkpt>
      <trkpt lat="42.70659" lon="1.41555">
        <ele>1391.749</ele>
        <time>2024-08-31T12:39:47Z</time>
      </trkpt>
      <trkpt lat="42.70659" lon="1.41555">
        <ele>1392.649</ele>
        <time>2024-08-31T12:39:49Z</time>
      </trkpt>
      <trkpt lat="42.70659" lon="1.41555">
        <ele>1392.833</ele>
        <time>2024-08-31T12:39:51Z</time>
      </trkpt>
      <trkpt lat="42.70659" lon="1.41555">
        <ele>1392.879</ele>
        <time>2024-08-31T12:39:53Z</time>
      </trkpt>
      <trkpt lat="42.70659" lon="1.41555">
        <ele>1392.874</ele>
        <time>2024-08-31T12:39:55Z</time>
      </trkpt>
      <trkpt lat="42.70659" lon="1.41555">
        <ele>1393.083</ele>
        <time>2024-08-31T12:39:57Z</time>
      </trkpt>
      <trkpt lat="42.70659" lon="1.41555">
        <ele>1392.367</ele>
        <time>2024-08-31T12:39:59Z</time>
      </trkpt>
      <trkpt lat="42.70659" lon="1.41555">
        <ele>1392.361</ele>
        <time>2024-08-31T12:40:01Z</time>
      </trkpt>
      <trkpt lat="42.70659" lon="1.41555">
        <ele>1392.325</ele>
        <time>2024-08-31T12:40:03Z</time>
      </trkpt>
      <trkpt lat="42.70659" lon="1.41555">
        <ele>1392.343</ele>
        <time>2024-08-31T12:40:05Z</time>
      </trkpt>
      <trkpt lat="42.70659" lon="1.41555">
        <ele>1392.362</ele>
        <time>2024-08-31T12:40:07Z</time>
      </trkpt>
      <trkpt lat="42.70659" lon="1.41555">
        <ele>1392.377</ele>
        <time>2024-08-31T12:40:09Z</time>
      </trkpt>
      <trkpt lat="42.70659" lon="1.41555">
        <ele>1392.378</ele>
        <time>2024-08-31T12:40:11Z</time>
      </trkpt>
      <trkpt lat="42.70659" lon="1.41555">
        <ele>1392.379</ele>
        <time>2024-08-31T12:40:13Z</time>
      </trkpt>
      <trkpt lat="42.70659" lon="1.41555">
        <ele>1392.386</ele>
        <time>2024-08-31T12:40:15Z</time>
      </trkpt>
      <trkpt lat="42.70659" lon="1.41555">
        <ele>1392.378</ele>
        <time>2024-08-31T12:40:17Z</time>
      </trkpt>
      <trkpt lat="42.70659" lon="1.41555">
        <ele>1392.376</ele>
        <time>2024-08-31T12:40:19Z</time>
      </trkpt>
      <trkpt lat="42.70659" lon="1.41555">
        <ele>1392.189</ele>
        <time>2024-08-31T12:40:21Z</time>
      </trkpt>
      <trkpt lat="42.70659" lon="1.41555">
        <ele>1392.254</ele>
        <time>2024-08-31T12:40:23Z</time>
      </trkpt>
      <trkpt lat="42.70659" lon="1.41555">
        <ele>1392.257</ele>
        <time>2024-08-31T12:40:25Z</time>
      </trkpt>
      <trkpt lat="42.70659" lon="1.41555">
        <ele>1392.262</ele>
        <time>2024-08-31T12:40:27Z</time>
      </trkpt>
      <trkpt lat="42.70659" lon="1.41555">
        <ele>1392.267</ele>
        <time>2024-08-31T12:40:29Z</time>
      </trkpt>
      <trkpt lat="42.70659" lon="1.41555">
        <ele>1392.272</ele>
        <time>2024-08-31T12:40:31Z</time>
      </trkpt>
      <trkpt lat="42.70659" lon="1.41555">
        <ele>1392.281</ele>
        <time>2024-08-31T12:40:33Z</time>
      </trkpt>
      <trkpt lat="42.70659" lon="1.41555">
        <ele>1392.276</ele>
        <time>2024-08-31T12:40:35Z</time>
      </trkpt>
      <trkpt lat="42.70659" lon="1.41555">
        <ele>1392.269</ele>
        <time>2024-08-31T12:40:37Z</time>
      </trkpt>
      <trkpt lat="42.70659" lon="1.41555">
        <ele>1392.272</ele>
        <time>2024-08-31T12:40:39Z</time>
      </trkpt>
      <trkpt lat="42.70659" lon="1.41555">
        <ele>1392.277</ele>
        <time>2024-08-31T12:40:41Z</time>
      </trkpt>
      <trkpt lat="42.70659" lon="1.41555">
        <ele>1392.285</ele>
        <time>2024-08-31T12:40:43Z</time>
      </trkpt>
      <trkpt lat="42.70659" lon="1.41555">
        <ele>1392.285</ele>
        <time>2024-08-31T12:40:45Z</time>
      </trkpt>
      <trkpt lat="42.70659" lon="1.41555">
        <ele>1392.281</ele>
        <time>2024-08-31T12:40:47Z</time>
      </trkpt>
      <trkpt lat="42.70659" lon="1.41555">
        <ele>1392.587</ele>
        <time>2024-08-31T12:40:49Z</time>
      </trkpt>
      <trkpt lat="42.70659" lon="1.41555">
        <ele>1392.57</ele>
        <time>2024-08-31T12:40:51Z</time>
      </trkpt>
      <trkpt lat="42.70659" lon="1.41555">
        <ele>1392.244</ele>
        <time>2024-08-31T12:40:53Z</time>
      </trkpt>
      <trkpt lat="42.70659" lon="1.41555">
        <ele>1391.618</ele>
        <time>2024-08-31T12:40:55Z</time>
      </trkpt>
      <trkpt lat="42.70659" lon="1.41555">
        <ele>1391.593</ele>
        <time>2024-08-31T12:40:57Z</time>
      </trkpt>
      <trkpt lat="42.70659" lon="1.41555">
        <ele>1391.589</ele>
        <time>2024-08-31T12:40:59Z</time>
      </trkpt>
      <trkpt lat="42.70659" lon="1.41555">
        <ele>1391.575</ele>
        <time>2024-08-31T12:41:01Z</time>
      </trkpt>
      <trkpt lat="42.70659" lon="1.41555">
        <ele>1391.572</ele>
        <time>2024-08-31T12:41:03Z</time>
      </trkpt>
      <trkpt lat="42.70659" lon="1.41555">
        <ele>1391.942</ele>
        <time>2024-08-31T12:41:05Z</time>
      </trkpt>
      <trkpt lat="42.70659" lon="1.41555">
        <ele>1390.285</ele>
        <time>2024-08-31T12:41:07Z</time>
      </trkpt>
      <trkpt lat="42.70659" lon="1.41555">
        <ele>1390.096</ele>
        <time>2024-08-31T12:41:09Z</time>
      </trkpt>
      <trkpt lat="42.70659" lon="1.41555">
        <ele>1389.212</ele>
        <time>2024-08-31T12:41:11Z</time>
      </trkpt>
      <trkpt lat="42.70659" lon="1.41555">
        <ele>1389.907</ele>
        <time>2024-08-31T12:41:13Z</time>
      </trkpt>
      <trkpt lat="42.70659" lon="1.41555">
        <ele>1390</ele>
        <time>2024-08-31T12:41:15Z</time>
      </trkpt>
      <trkpt lat="42.70659" lon="1.41555">
        <ele>1389.924</ele>
        <time>2024-08-31T12:41:17Z</time>
      </trkpt>
      <trkpt lat="42.70665" lon="1.41565">
        <ele>1390.219</ele>
        <time>2024-08-31T12:41:19Z</time>
      </trkpt>
      <trkpt lat="42.70665" lon="1.41567">
        <ele>1389.497</ele>
        <time>2024-08-31T12:41:21Z</time>
      </trkpt>
      <trkpt lat="42.70665" lon="1.41569">
        <ele>1388.156</ele>
        <time>2024-08-31T12:41:23Z</time>
      </trkpt>
      <trkpt lat="42.70665" lon="1.41571">
        <ele>1387.163</ele>
        <time>2024-08-31T12:41:25Z</time>
      </trkpt>
      <trkpt lat="42.70663" lon="1.41573">
        <ele>1384.593</ele>
        <time>2024-08-31T12:41:27Z</time>
      </trkpt>
      <trkpt lat="42.70664" lon="1.41579">
        <ele>1382.747</ele>
        <time>2024-08-31T12:41:29Z</time>
      </trkpt>
      <trkpt lat="42.70667" lon="1.41581">
        <ele>1383.463</ele>
        <time>2024-08-31T12:41:31Z</time>
      </trkpt>
      <trkpt lat="42.70669" lon="1.41582">
        <ele>1382.998</ele>
        <time>2024-08-31T12:41:33Z</time>
      </trkpt>
      <trkpt lat="42.70671" lon="1.41584">
        <ele>1383.635</ele>
        <time>2024-08-31T12:41:35Z</time>
      </trkpt>
      <trkpt lat="42.70673" lon="1.41586">
        <ele>1382.575</ele>
        <time>2024-08-31T12:41:37Z</time>
      </trkpt>
      <trkpt lat="42.70675" lon="1.41586">
        <ele>1382.049</ele>
        <time>2024-08-31T12:41:39Z</time>
      </trkpt>
      <trkpt lat="42.70676" lon="1.41587">
        <ele>1384.257</ele>
        <time>2024-08-31T12:41:41Z</time>
      </trkpt>
      <trkpt lat="42.70677" lon="1.41589">
        <ele>1385.839</ele>
        <time>2024-08-31T12:41:43Z</time>
      </trkpt>
      <trkpt lat="42.70678" lon="1.41592">
        <ele>1386.13</ele>
        <time>2024-08-31T12:41:45Z</time>
      </trkpt>
      <trkpt lat="42.70679" lon="1.41593">
        <ele>1386.108</ele>
        <time>2024-08-31T12:41:47Z</time>
      </trkpt>
      <trkpt lat="42.70681" lon="1.41595">
        <ele>1385.057</ele>
        <time>2024-08-31T12:41:49Z</time>
      </trkpt>
      <trkpt lat="42.7068" lon="1.41598">
        <ele>1385.378</ele>
        <time>2024-08-31T12:41:51Z</time>
      </trkpt>
      <trkpt lat="42.7068" lon="1.41599">
        <ele>1383.957</ele>
        <time>2024-08-31T12:41:53Z</time>
      </trkpt>
      <trkpt lat="42.70681" lon="1.41601">
        <ele>1384.982</ele>
        <time>2024-08-31T12:41:55Z</time>
      </trkpt>
      <trkpt lat="42.70682" lon="1.41603">
        <ele>1384.231</ele>
        <time>2024-08-31T12:41:57Z</time>
      </trkpt>
      <trkpt lat="42.70681" lon="1.41605">
        <ele>1383.086</ele>
        <time>2024-08-31T12:41:59Z</time>
      </trkpt>
      <trkpt lat="42.70681" lon="1.41608">
        <ele>1381.8</ele>
        <time>2024-08-31T12:42:01Z</time>
      </trkpt>
      <trkpt lat="42.70683" lon="1.4161">
        <ele>1380.682</ele>
        <time>2024-08-31T12:42:03Z</time>
      </trkpt>
      <trkpt lat="42.70683" lon="1.41612">
        <ele>1378.731</ele>
        <time>2024-08-31T12:42:05Z</time>
      </trkpt>
      <trkpt lat="42.70683" lon="1.41614">
        <ele>1378.978</ele>
        <time>2024-08-31T12:42:07Z</time>
      </trkpt>
      <trkpt lat="42.70682" lon="1.41615">
        <ele>1379.621</ele>
        <time>2024-08-31T12:42:09Z</time>
      </trkpt>
      <trkpt lat="42.70681" lon="1.41616">
        <ele>1378.764</ele>
        <time>2024-08-31T12:42:11Z</time>
      </trkpt>
      <trkpt lat="42.70679" lon="1.41618">
        <ele>1377.878</ele>
        <time>2024-08-31T12:42:13Z</time>
      </trkpt>
      <trkpt lat="42.7068" lon="1.41619">
        <ele>1379.34</ele>
        <time>2024-08-31T12:42:15Z</time>
      </trkpt>
      <trkpt lat="42.70682" lon="1.41621">
        <ele>1379.288</ele>
        <time>2024-08-31T12:42:17Z</time>
      </trkpt>
      <trkpt lat="42.70682" lon="1.41623">
        <ele>1378.71</ele>
        <time>2024-08-31T12:42:19Z</time>
      </trkpt>
      <trkpt lat="42.70682" lon="1.41624">
        <ele>1376.816</ele>
        <time>2024-08-31T12:42:21Z</time>
      </trkpt>
      <trkpt lat="42.70682" lon="1.41626">
        <ele>1376.202</ele>
        <time>2024-08-31T12:42:23Z</time>
      </trkpt>
      <trkpt lat="42.70683" lon="1.41627">
        <ele>1375.287</ele>
        <time>2024-08-31T12:42:25Z</time>
      </trkpt>
      <trkpt lat="42.70685" lon="1.41629">
        <ele>1374.697</ele>
        <time>2024-08-31T12:42:27Z</time>
      </trkpt>
      <trkpt lat="42.70685" lon="1.41631">
        <ele>1373.765</ele>
        <time>2024-08-31T12:42:29Z</time>
      </trkpt>
      <trkpt lat="42.70684" lon="1.41633">
        <ele>1372.827</ele>
        <time>2024-08-31T12:42:31Z</time>
      </trkpt>
      <trkpt lat="42.70684" lon="1.41635">
        <ele>1371.172</ele>
        <time>2024-08-31T12:42:33Z</time>
      </trkpt>
      <trkpt lat="42.70685" lon="1.41638">
        <ele>1370.882</ele>
        <time>2024-08-31T12:42:35Z</time>
      </trkpt>
      <trkpt lat="42.70685" lon="1.4164">
        <ele>1369.4</ele>
        <time>2024-08-31T12:42:37Z</time>
      </trkpt>
      <trkpt lat="42.70685" lon="1.41643">
        <ele>1368.627</ele>
        <time>2024-08-31T12:42:39Z</time>
      </trkpt>
      <trkpt lat="42.70686" lon="1.41646">
        <ele>1369.114</ele>
        <time>2024-08-31T12:42:41Z</time>
      </trkpt>
      <trkpt lat="42.70687" lon="1.41648">
        <ele>1367.63</ele>
        <time>2024-08-31T12:42:43Z</time>
      </trkpt>
      <trkpt lat="42.70687" lon="1.4165">
        <ele>1366.943</ele>
        <time>2024-08-31T12:42:45Z</time>
      </trkpt>
      <trkpt lat="42.70687" lon="1.41653">
        <ele>1366.121</ele>
        <time>2024-08-31T12:42:47Z</time>
      </trkpt>
      <trkpt lat="42.70687" lon="1.41656">
        <ele>1365.225</ele>
        <time>2024-08-31T12:42:49Z</time>
      </trkpt>
      <trkpt lat="42.70688" lon="1.41659">
        <ele>1365.085</ele>
        <time>2024-08-31T12:42:51Z</time>
      </trkpt>
      <trkpt lat="42.70688" lon="1.41661">
        <ele>1364.69</ele>
        <time>2024-08-31T12:42:53Z</time>
      </trkpt>
      <trkpt lat="42.70689" lon="1.41665">
        <ele>1364.479</ele>
        <time>2024-08-31T12:42:55Z</time>
      </trkpt>
      <trkpt lat="42.70691" lon="1.41667">
        <ele>1364.013</ele>
        <time>2024-08-31T12:42:57Z</time>
      </trkpt>
      <trkpt lat="42.70691" lon="1.41669">
        <ele>1364.702</ele>
        <time>2024-08-31T12:42:59Z</time>
      </trkpt>
      <trkpt lat="42.70692" lon="1.41672">
        <ele>1363.792</ele>
        <time>2024-08-31T12:43:01Z</time>
      </trkpt>
      <trkpt lat="42.70694" lon="1.41674">
        <ele>1365.381</ele>
        <time>2024-08-31T12:43:03Z</time>
      </trkpt>
      <trkpt lat="42.70695" lon="1.41678">
        <ele>1365.818</ele>
        <time>2024-08-31T12:43:05Z</time>
      </trkpt>
      <trkpt lat="42.70697" lon="1.4168">
        <ele>1365.296</ele>
        <time>2024-08-31T12:43:07Z</time>
      </trkpt>
      <trkpt lat="42.70698" lon="1.41682">
        <ele>1365.192</ele>
        <time>2024-08-31T12:43:09Z</time>
      </trkpt>
      <trkpt lat="42.70699" lon="1.41683">
        <ele>1364.391</ele>
        <time>2024-08-31T12:43:11Z</time>
      </trkpt>
      <trkpt lat="42.70699" lon="1.41685">
        <ele>1364.195</ele>
        <time>2024-08-31T12:43:13Z</time>
      </trkpt>
      <trkpt lat="42.70698" lon="1.41687">
        <ele>1362.872</ele>
        <time>2024-08-31T12:43:15Z</time>
      </trkpt>
      <trkpt lat="42.70699" lon="1.4169">
        <ele>1361.682</ele>
        <time>2024-08-31T12:43:17Z</time>
      </trkpt>
      <trkpt lat="42.70701" lon="1.41692">
        <ele>1361.061</ele>
        <time>2024-08-31T12:43:19Z</time>
      </trkpt>
      <trkpt lat="42.70701" lon="1.41694">
        <ele>1360.705</ele>
        <time>2024-08-31T12:43:21Z</time>
      </trkpt>
      <trkpt lat="42.70701" lon="1.41697">
        <ele>1360.289</ele>
        <time>2024-08-31T12:43:23Z</time>
      </trkpt>
      <trkpt lat="42.70701" lon="1.41699">
        <ele>1359.518</ele>
        <time>2024-08-31T12:43:25Z</time>
      </trkpt>
      <trkpt lat="42.70702" lon="1.41703">
        <ele>1359.737</ele>
        <time>2024-08-31T12:43:27Z</time>
      </trkpt>
      <trkpt lat="42.70701" lon="1.41706">
        <ele>1357.783</ele>
        <time>2024-08-31T12:43:29Z</time>
      </trkpt>
      <trkpt lat="42.70701" lon="1.41709">
        <ele>1358.507</ele>
        <time>2024-08-31T12:43:31Z</time>
      </trkpt>
      <trkpt lat="42.70703" lon="1.41711">
        <ele>1357.965</ele>
        <time>2024-08-31T12:43:33Z</time>
      </trkpt>
      <trkpt lat="42.70703" lon="1.41714">
        <ele>1358.008</ele>
        <time>2024-08-31T12:43:35Z</time>
      </trkpt>
      <trkpt lat="42.70704" lon="1.41716">
        <ele>1358.453</ele>
        <time>2024-08-31T12:43:37Z</time>
      </trkpt>
      <trkpt lat="42.70706" lon="1.41718">
        <ele>1358.1</ele>
        <time>2024-08-31T12:43:39Z</time>
      </trkpt>
      <trkpt lat="42.70707" lon="1.41718">
        <ele>1356.869</ele>
        <time>2024-08-31T12:43:41Z</time>
      </trkpt>
      <trkpt lat="42.70709" lon="1.41719">
        <ele>1356.604</ele>
        <time>2024-08-31T12:43:43Z</time>
      </trkpt>
      <trkpt lat="42.70711" lon="1.41718">
        <ele>1353.713</ele>
        <time>2024-08-31T12:43:45Z</time>
      </trkpt>
      <trkpt lat="42.70712" lon="1.41715">
        <ele>1353.638</ele>
        <time>2024-08-31T12:43:47Z</time>
      </trkpt>
      <trkpt lat="42.70714" lon="1.41713">
        <ele>1353.552</ele>
        <time>2024-08-31T12:43:49Z</time>
      </trkpt>
      <trkpt lat="42.70715" lon="1.41711">
        <ele>1352.813</ele>
        <time>2024-08-31T12:43:51Z</time>
      </trkpt>
      <trkpt lat="42.70715" lon="1.41708">
        <ele>1351.88</ele>
        <time>2024-08-31T12:43:53Z</time>
      </trkpt>
      <trkpt lat="42.70716" lon="1.41706">
        <ele>1351.566</ele>
        <time>2024-08-31T12:43:55Z</time>
      </trkpt>
      <trkpt lat="42.70717" lon="1.41705">
        <ele>1349.21</ele>
        <time>2024-08-31T12:43:57Z</time>
      </trkpt>
      <trkpt lat="42.70718" lon="1.41703">
        <ele>1348.976</ele>
        <time>2024-08-31T12:43:59Z</time>
      </trkpt>
      <trkpt lat="42.70719" lon="1.417">
        <ele>1348.787</ele>
        <time>2024-08-31T12:44:01Z</time>
      </trkpt>
      <trkpt lat="42.70719" lon="1.41698">
        <ele>1346.723</ele>
        <time>2024-08-31T12:44:03Z</time>
      </trkpt>
      <trkpt lat="42.7072" lon="1.41695">
        <ele>1347.566</ele>
        <time>2024-08-31T12:44:05Z</time>
      </trkpt>
      <trkpt lat="42.70722" lon="1.41693">
        <ele>1347.6</ele>
        <time>2024-08-31T12:44:07Z</time>
      </trkpt>
      <trkpt lat="42.70723" lon="1.41692">
        <ele>1347.224</ele>
        <time>2024-08-31T12:44:09Z</time>
      </trkpt>
      <trkpt lat="42.70724" lon="1.41689">
        <ele>1346.104</ele>
        <time>2024-08-31T12:44:11Z</time>
      </trkpt>
      <trkpt lat="42.70726" lon="1.41687">
        <ele>1343.156</ele>
        <time>2024-08-31T12:44:13Z</time>
      </trkpt>
      <trkpt lat="42.70726" lon="1.41685">
        <ele>1342.774</ele>
        <time>2024-08-31T12:44:15Z</time>
      </trkpt>
      <trkpt lat="42.70727" lon="1.41682">
        <ele>1342.218</ele>
        <time>2024-08-31T12:44:17Z</time>
      </trkpt>
      <trkpt lat="42.70727" lon="1.41681">
        <ele>1340.525</ele>
        <time>2024-08-31T12:44:19Z</time>
      </trkpt>
      <trkpt lat="42.70728" lon="1.41677">
        <ele>1342.158</ele>
        <time>2024-08-31T12:44:21Z</time>
      </trkpt>
      <trkpt lat="42.70729" lon="1.41676">
        <ele>1342.253</ele>
        <time>2024-08-31T12:44:23Z</time>
      </trkpt>
      <trkpt lat="42.70731" lon="1.41674">
        <ele>1341.072</ele>
        <time>2024-08-31T12:44:25Z</time>
      </trkpt>
      <trkpt lat="42.70733" lon="1.41673">
        <ele>1340.083</ele>
        <time>2024-08-31T12:44:27Z</time>
      </trkpt>
      <trkpt lat="42.70735" lon="1.41673">
        <ele>1339.526</ele>
        <time>2024-08-31T12:44:29Z</time>
      </trkpt>
      <trkpt lat="42.70736" lon="1.41672">
        <ele>1338.198</ele>
        <time>2024-08-31T12:44:31Z</time>
      </trkpt>
      <trkpt lat="42.70738" lon="1.41668">
        <ele>1338.207</ele>
        <time>2024-08-31T12:44:33Z</time>
      </trkpt>
      <trkpt lat="42.70739" lon="1.41667">
        <ele>1338.975</ele>
        <time>2024-08-31T12:44:35Z</time>
      </trkpt>
      <trkpt lat="42.70741" lon="1.41664">
        <ele>1337.408</ele>
        <time>2024-08-31T12:44:37Z</time>
      </trkpt>
      <trkpt lat="42.70744" lon="1.41664">
        <ele>1337.671</ele>
        <time>2024-08-31T12:44:39Z</time>
      </trkpt>
      <trkpt lat="42.70746" lon="1.41664">
        <ele>1337.785</ele>
        <time>2024-08-31T12:44:41Z</time>
      </trkpt>
      <trkpt lat="42.70747" lon="1.41664">
        <ele>1337.613</ele>
        <time>2024-08-31T12:44:43Z</time>
      </trkpt>
      <trkpt lat="42.70749" lon="1.41665">
        <ele>1337.035</ele>
        <time>2024-08-31T12:44:45Z</time>
      </trkpt>
      <trkpt lat="42.7075" lon="1.41661">
        <ele>1335.348</ele>
        <time>2024-08-31T12:44:47Z</time>
      </trkpt>
      <trkpt lat="42.70752" lon="1.4166">
        <ele>1335.253</ele>
        <time>2024-08-31T12:44:49Z</time>
      </trkpt>
      <trkpt lat="42.70754" lon="1.41659">
        <ele>1335.174</ele>
        <time>2024-08-31T12:44:51Z</time>
      </trkpt>
      <trkpt lat="42.70756" lon="1.41658">
        <ele>1334.176</ele>
        <time>2024-08-31T12:44:53Z</time>
      </trkpt>
      <trkpt lat="42.70757" lon="1.41656">
        <ele>1333.363</ele>
        <time>2024-08-31T12:44:55Z</time>
      </trkpt>
      <trkpt lat="42.70758" lon="1.41654">
        <ele>1332.908</ele>
        <time>2024-08-31T12:44:57Z</time>
      </trkpt>
      <trkpt lat="42.70758" lon="1.41652">
        <ele>1332.76</ele>
        <time>2024-08-31T12:44:59Z</time>
      </trkpt>
      <trkpt lat="42.70759" lon="1.41649">
        <ele>1331.977</ele>
        <time>2024-08-31T12:45:01Z</time>
      </trkpt>
      <trkpt lat="42.7076" lon="1.41647">
        <ele>1332.532</ele>
        <time>2024-08-31T12:45:03Z</time>
      </trkpt>
      <trkpt lat="42.70761" lon="1.41646">
        <ele>1332.429</ele>
        <time>2024-08-31T12:45:05Z</time>
      </trkpt>
      <trkpt lat="42.70762" lon="1.41645">
        <ele>1332.141</ele>
        <time>2024-08-31T12:45:07Z</time>
      </trkpt>
      <trkpt lat="42.70761" lon="1.41643">
        <ele>1331.721</ele>
        <time>2024-08-31T12:45:09Z</time>
      </trkpt>
      <trkpt lat="42.7076" lon="1.41641">
        <ele>1331.596</ele>
        <time>2024-08-31T12:45:11Z</time>
      </trkpt>
      <trkpt lat="42.70761" lon="1.4164">
        <ele>1331.668</ele>
        <time>2024-08-31T12:45:13Z</time>
      </trkpt>
      <trkpt lat="42.70762" lon="1.41639">
        <ele>1330.298</ele>
        <time>2024-08-31T12:45:15Z</time>
      </trkpt>
      <trkpt lat="42.70762" lon="1.41637">
        <ele>1331.869</ele>
        <time>2024-08-31T12:45:17Z</time>
      </trkpt>
      <trkpt lat="42.70764" lon="1.41635">
        <ele>1331.59</ele>
        <time>2024-08-31T12:45:19Z</time>
      </trkpt>
      <trkpt lat="42.70764" lon="1.41635">
        <ele>1330.685</ele>
        <time>2024-08-31T12:45:21Z</time>
      </trkpt>
      <trkpt lat="42.70764" lon="1.41635">
        <ele>1330.402</ele>
        <time>2024-08-31T12:45:23Z</time>
      </trkpt>
      <trkpt lat="42.70764" lon="1.41635">
        <ele>1329.394</ele>
        <time>2024-08-31T12:45:25Z</time>
      </trkpt>
      <trkpt lat="42.70764" lon="1.41635">
        <ele>1329.648</ele>
        <time>2024-08-31T12:45:27Z</time>
      </trkpt>
      <trkpt lat="42.70764" lon="1.41635">
        <ele>1329.222</ele>
        <time>2024-08-31T12:45:29Z</time>
      </trkpt>
      <trkpt lat="42.70764" lon="1.41635">
        <ele>1329.024</ele>
        <time>2024-08-31T12:45:31Z</time>
      </trkpt>
      <trkpt lat="42.70764" lon="1.41635">
        <ele>1328.913</ele>
        <time>2024-08-31T12:45:33Z</time>
      </trkpt>
      <trkpt lat="42.70764" lon="1.41635">
        <ele>1327.369</ele>
        <time>2024-08-31T12:45:35Z</time>
      </trkpt>
      <trkpt lat="42.70764" lon="1.41635">
        <ele>1324.247</ele>
        <time>2024-08-31T12:45:37Z</time>
      </trkpt>
      <trkpt lat="42.70764" lon="1.41635">
        <ele>1324.159</ele>
        <time>2024-08-31T12:45:39Z</time>
      </trkpt>
      <trkpt lat="42.70771" lon="1.41634">
        <ele>1323.944</ele>
        <time>2024-08-31T12:45:41Z</time>
      </trkpt>
      <trkpt lat="42.70771" lon="1.41636">
        <ele>1323.091</ele>
        <time>2024-08-31T12:45:43Z</time>
      </trkpt>
      <trkpt lat="42.70772" lon="1.41638">
        <ele>1322.796</ele>
        <time>2024-08-31T12:45:45Z</time>
      </trkpt>
      <trkpt lat="42.70777" lon="1.41637">
        <ele>1325.507</ele>
        <time>2024-08-31T12:45:47Z</time>
      </trkpt>
      <trkpt lat="42.70778" lon="1.41636">
        <ele>1325.496</ele>
        <time>2024-08-31T12:45:49Z</time>
      </trkpt>
      <trkpt lat="42.70778" lon="1.41636">
        <ele>1325.473</ele>
        <time>2024-08-31T12:45:51Z</time>
      </trkpt>
      <trkpt lat="42.70778" lon="1.41636">
        <ele>1325.475</ele>
        <time>2024-08-31T12:45:53Z</time>
      </trkpt>
      <trkpt lat="42.70778" lon="1.41636">
        <ele>1325.476</ele>
        <time>2024-08-31T12:45:55Z</time>
      </trkpt>
      <trkpt lat="42.70778" lon="1.41636">
        <ele>1325.461</ele>
        <time>2024-08-31T12:45:57Z</time>
      </trkpt>
      <trkpt lat="42.70778" lon="1.41636">
        <ele>1325.479</ele>
        <time>2024-08-31T12:45:59Z</time>
      </trkpt>
      <trkpt lat="42.70778" lon="1.41636">
        <ele>1325.476</ele>
        <time>2024-08-31T12:46:01Z</time>
      </trkpt>
      <trkpt lat="42.70778" lon="1.41636">
        <ele>1325.448</ele>
        <time>2024-08-31T12:46:03Z</time>
      </trkpt>
      <trkpt lat="42.70778" lon="1.41636">
        <ele>1324.808</ele>
        <time>2024-08-31T12:46:05Z</time>
      </trkpt>
      <trkpt lat="42.70778" lon="1.41636">
        <ele>1324.028</ele>
        <time>2024-08-31T12:46:07Z</time>
      </trkpt>
      <trkpt lat="42.70778" lon="1.41636">
        <ele>1323.6</ele>
        <time>2024-08-31T12:46:09Z</time>
      </trkpt>
      <trkpt lat="42.70778" lon="1.41636">
        <ele>1323.465</ele>
        <time>2024-08-31T12:46:11Z</time>
      </trkpt>
      <trkpt lat="42.70778" lon="1.41636">
        <ele>1322.855</ele>
        <time>2024-08-31T12:46:13Z</time>
      </trkpt>
      <trkpt lat="42.70781" lon="1.41638">
        <ele>1321.388</ele>
        <time>2024-08-31T12:46:15Z</time>
      </trkpt>
      <trkpt lat="42.70782" lon="1.41634">
        <ele>1322.061</ele>
        <time>2024-08-31T12:46:17Z</time>
      </trkpt>
      <trkpt lat="42.70783" lon="1.41631">
        <ele>1322.193</ele>
        <time>2024-08-31T12:46:19Z</time>
      </trkpt>
      <trkpt lat="42.70785" lon="1.41629">
        <ele>1322.571</ele>
        <time>2024-08-31T12:46:21Z</time>
      </trkpt>
      <trkpt lat="42.70786" lon="1.41626">
        <ele>1322.406</ele>
        <time>2024-08-31T12:46:23Z</time>
      </trkpt>
      <trkpt lat="42.70787" lon="1.41624">
        <ele>1322.451</ele>
        <time>2024-08-31T12:46:25Z</time>
      </trkpt>
      <trkpt lat="42.70788" lon="1.41621">
        <ele>1322.416</ele>
        <time>2024-08-31T12:46:27Z</time>
      </trkpt>
      <trkpt lat="42.7079" lon="1.4162">
        <ele>1323.347</ele>
        <time>2024-08-31T12:46:29Z</time>
      </trkpt>
      <trkpt lat="42.70792" lon="1.4162">
        <ele>1323.625</ele>
        <time>2024-08-31T12:46:31Z</time>
      </trkpt>
      <trkpt lat="42.70792" lon="1.4162">
        <ele>1321.94</ele>
        <time>2024-08-31T12:46:33Z</time>
      </trkpt>
      <trkpt lat="42.70792" lon="1.4162">
        <ele>1321.712</ele>
        <time>2024-08-31T12:46:35Z</time>
      </trkpt>
      <trkpt lat="42.70792" lon="1.4162">
        <ele>1321.047</ele>
        <time>2024-08-31T12:46:37Z</time>
      </trkpt>
      <trkpt lat="42.70792" lon="1.4162">
        <ele>1319.223</ele>
        <time>2024-08-31T12:46:39Z</time>
      </trkpt>
      <trkpt lat="42.70792" lon="1.4162">
        <ele>1318.849</ele>
        <time>2024-08-31T12:46:41Z</time>
      </trkpt>
      <trkpt lat="42.70792" lon="1.4162">
        <ele>1318.832</ele>
        <time>2024-08-31T12:46:43Z</time>
      </trkpt>
      <trkpt lat="42.70792" lon="1.4162">
        <ele>1319.542</ele>
        <time>2024-08-31T12:46:45Z</time>
      </trkpt>
      <trkpt lat="42.70792" lon="1.4162">
        <ele>1319.545</ele>
        <time>2024-08-31T12:46:47Z</time>
      </trkpt>
      <trkpt lat="42.70792" lon="1.4162">
        <ele>1319.251</ele>
        <time>2024-08-31T12:46:49Z</time>
      </trkpt>
      <trkpt lat="42.70792" lon="1.4162">
        <ele>1319.239</ele>
        <time>2024-08-31T12:46:51Z</time>
      </trkpt>
      <trkpt lat="42.70792" lon="1.4162">
        <ele>1319.231</ele>
        <time>2024-08-31T12:46:53Z</time>
      </trkpt>
      <trkpt lat="42.70792" lon="1.4162">
        <ele>1319.216</ele>
        <time>2024-08-31T12:46:55Z</time>
      </trkpt>
      <trkpt lat="42.70792" lon="1.4162">
        <ele>1319.205</ele>
        <time>2024-08-31T12:46:57Z</time>
      </trkpt>
      <trkpt lat="42.70792" lon="1.4162">
        <ele>1319.174</ele>
        <time>2024-08-31T12:46:59Z</time>
      </trkpt>
      <trkpt lat="42.70792" lon="1.4162">
        <ele>1319.16</ele>
        <time>2024-08-31T12:47:01Z</time>
      </trkpt>
      <trkpt lat="42.70792" lon="1.4162">
        <ele>1319.148</ele>
        <time>2024-08-31T12:47:03Z</time>
      </trkpt>
      <trkpt lat="42.70792" lon="1.4162">
        <ele>1319.146</ele>
        <time>2024-08-31T12:47:05Z</time>
      </trkpt>
      <trkpt lat="42.70792" lon="1.4162">
        <ele>1318.253</ele>
        <time>2024-08-31T12:47:07Z</time>
      </trkpt>
      <trkpt lat="42.70792" lon="1.4162">
        <ele>1317.278</ele>
        <time>2024-08-31T12:47:09Z</time>
      </trkpt>
      <trkpt lat="42.70792" lon="1.4162">
        <ele>1316.118</ele>
        <time>2024-08-31T12:47:11Z</time>
      </trkpt>
      <trkpt lat="42.70792" lon="1.4162">
        <ele>1315.158</ele>
        <time>2024-08-31T12:47:13Z</time>
      </trkpt>
      <trkpt lat="42.70792" lon="1.4162">
        <ele>1314.754</ele>
        <time>2024-08-31T12:47:15Z</time>
      </trkpt>
      <trkpt lat="42.70792" lon="1.4162">
        <ele>1314.111</ele>
        <time>2024-08-31T12:47:17Z</time>
      </trkpt>
      <trkpt lat="42.70792" lon="1.4162">
        <ele>1313.212</ele>
        <time>2024-08-31T12:47:19Z</time>
      </trkpt>
      <trkpt lat="42.70792" lon="1.4162">
        <ele>1312.38</ele>
        <time>2024-08-31T12:47:21Z</time>
      </trkpt>
      <trkpt lat="42.70792" lon="1.4162">
        <ele>1312.847</ele>
        <time>2024-08-31T12:47:23Z</time>
      </trkpt>
      <trkpt lat="42.70792" lon="1.4162">
        <ele>1312.763</ele>
        <time>2024-08-31T12:47:25Z</time>
      </trkpt>
      <trkpt lat="42.70792" lon="1.4162">
        <ele>1312.916</ele>
        <time>2024-08-31T12:47:27Z</time>
      </trkpt>
      <trkpt lat="42.70792" lon="1.4162">
        <ele>1313.313</ele>
        <time>2024-08-31T12:47:29Z</time>
      </trkpt>
      <trkpt lat="42.70792" lon="1.4162">
        <ele>1310.731</ele>
        <time>2024-08-31T12:47:31Z</time>
      </trkpt>
      <trkpt lat="42.70792" lon="1.4162">
        <ele>1309.222</ele>
        <time>2024-08-31T12:47:33Z</time>
      </trkpt>
      <trkpt lat="42.70792" lon="1.4162">
        <ele>1306.978</ele>
        <time>2024-08-31T12:47:35Z</time>
      </trkpt>
      <trkpt lat="42.70792" lon="1.4162">
        <ele>1306.054</ele>
        <time>2024-08-31T12:47:37Z</time>
      </trkpt>
      <trkpt lat="42.70792" lon="1.4162">
        <ele>1304.663</ele>
        <time>2024-08-31T12:47:39Z</time>
      </trkpt>
      <trkpt lat="42.70792" lon="1.4162">
        <ele>1304.323</ele>
        <time>2024-08-31T12:47:41Z</time>
      </trkpt>
      <trkpt lat="42.70792" lon="1.4162">
        <ele>1302.101</ele>
        <time>2024-08-31T12:47:43Z</time>
      </trkpt>
      <trkpt lat="42.70792" lon="1.4162">
        <ele>1301.104</ele>
        <time>2024-08-31T12:47:45Z</time>
      </trkpt>
      <trkpt lat="42.70792" lon="1.4162">
        <ele>1300.341</ele>
        <time>2024-08-31T12:47:47Z</time>
      </trkpt>
      <trkpt lat="42.70796" lon="1.41613">
        <ele>1299.36</ele>
        <time>2024-08-31T12:47:49Z</time>
      </trkpt>
      <trkpt lat="42.70797" lon="1.41612">
        <ele>1297.219</ele>
        <time>2024-08-31T12:47:51Z</time>
      </trkpt>
      <trkpt lat="42.70798" lon="1.4161">
        <ele>1296.977</ele>
        <time>2024-08-31T12:47:53Z</time>
      </trkpt>
      <trkpt lat="42.70798" lon="1.41608">
        <ele>1295.961</ele>
        <time>2024-08-31T12:47:55Z</time>
      </trkpt>
      <trkpt lat="42.70799" lon="1.41605">
        <ele>1295.704</ele>
        <time>2024-08-31T12:47:57Z</time>
      </trkpt>
      <trkpt lat="42.70798" lon="1.41604">
        <ele>1295.029</ele>
        <time>2024-08-31T12:47:59Z</time>
      </trkpt>
      <trkpt lat="42.70799" lon="1.41603">
        <ele>1294.543</ele>
        <time>2024-08-31T12:48:01Z</time>
      </trkpt>
      <trkpt lat="42.70799" lon="1.41603">
        <ele>1295.278</ele>
        <time>2024-08-31T12:48:03Z</time>
      </trkpt>
      <trkpt lat="42.70799" lon="1.41603">
        <ele>1293.362</ele>
        <time>2024-08-31T12:48:05Z</time>
      </trkpt>
      <trkpt lat="42.70799" lon="1.41603">
        <ele>1293.129</ele>
        <time>2024-08-31T12:48:07Z</time>
      </trkpt>
      <trkpt lat="42.70799" lon="1.41603">
        <ele>1291.725</ele>
        <time>2024-08-31T12:48:09Z</time>
      </trkpt>
      <trkpt lat="42.70799" lon="1.41603">
        <ele>1291.975</ele>
        <time>2024-08-31T12:48:11Z</time>
      </trkpt>
      <trkpt lat="42.70799" lon="1.41603">
        <ele>1291.104</ele>
        <time>2024-08-31T12:48:13Z</time>
      </trkpt>
      <trkpt lat="42.70799" lon="1.41603">
        <ele>1291.032</ele>
        <time>2024-08-31T12:48:15Z</time>
      </trkpt>
      <trkpt lat="42.70799" lon="1.41603">
        <ele>1290.757</ele>
        <time>2024-08-31T12:48:17Z</time>
      </trkpt>
      <trkpt lat="42.70799" lon="1.41603">
        <ele>1290.261</ele>
        <time>2024-08-31T12:48:19Z</time>
      </trkpt>
      <trkpt lat="42.70799" lon="1.41603">
        <ele>1289.505</ele>
        <time>2024-08-31T12:48:21Z</time>
      </trkpt>
      <trkpt lat="42.70799" lon="1.41603">
        <ele>1290.956</ele>
        <time>2024-08-31T12:48:23Z</time>
      </trkpt>
      <trkpt lat="42.70799" lon="1.41603">
        <ele>1292.693</ele>
        <time>2024-08-31T12:48:25Z</time>
      </trkpt>
      <trkpt lat="42.70799" lon="1.41603">
        <ele>1293.633</ele>
        <time>2024-08-31T12:48:27Z</time>
      </trkpt>
      <trkpt lat="42.70799" lon="1.41603">
        <ele>1294.673</ele>
        <time>2024-08-31T12:48:29Z</time>
      </trkpt>
      <trkpt lat="42.70809" lon="1.41597">
        <ele>1294.564</ele>
        <time>2024-08-31T12:48:31Z</time>
      </trkpt>
      <trkpt lat="42.7081" lon="1.41599">
        <ele>1293.421</ele>
        <time>2024-08-31T12:48:33Z</time>
      </trkpt>
      <trkpt lat="42.70811" lon="1.41598">
        <ele>1292.718</ele>
        <time>2024-08-31T12:48:35Z</time>
      </trkpt>
      <trkpt lat="42.70811" lon="1.41596">
        <ele>1291.679</ele>
        <time>2024-08-31T12:48:37Z</time>
      </trkpt>
      <trkpt lat="42.70811" lon="1.41595">
        <ele>1291.567</ele>
        <time>2024-08-31T12:48:39Z</time>
      </trkpt>
      <trkpt lat="42.70812" lon="1.41593">
        <ele>1290.345</ele>
        <time>2024-08-31T12:48:41Z</time>
      </trkpt>
      <trkpt lat="42.70813" lon="1.41592">
        <ele>1290.155</ele>
        <time>2024-08-31T12:48:43Z</time>
      </trkpt>
      <trkpt lat="42.70813" lon="1.41591">
        <ele>1288.97</ele>
        <time>2024-08-31T12:48:45Z</time>
      </trkpt>
      <trkpt lat="42.70814" lon="1.4159">
        <ele>1288.782</ele>
        <time>2024-08-31T12:48:47Z</time>
      </trkpt>
      <trkpt lat="42.70815" lon="1.41589">
        <ele>1287.974</ele>
        <time>2024-08-31T12:48:49Z</time>
      </trkpt>
      <trkpt lat="42.70816" lon="1.41587">
        <ele>1287.001</ele>
        <time>2024-08-31T12:48:51Z</time>
      </trkpt>
      <trkpt lat="42.70816" lon="1.41584">
        <ele>1285.835</ele>
        <time>2024-08-31T12:48:53Z</time>
      </trkpt>
      <trkpt lat="42.70815" lon="1.41582">
        <ele>1285.061</ele>
        <time>2024-08-31T12:48:55Z</time>
      </trkpt>
      <trkpt lat="42.70815" lon="1.41581">
        <ele>1283.986</ele>
        <time>2024-08-31T12:48:57Z</time>
      </trkpt>
      <trkpt lat="42.70817" lon="1.4158">
        <ele>1283.035</ele>
        <time>2024-08-31T12:48:59Z</time>
      </trkpt>
      <trkpt lat="42.70818" lon="1.41581">
        <ele>1281.843</ele>
        <time>2024-08-31T12:49:01Z</time>
      </trkpt>
      <trkpt lat="42.70818" lon="1.41583">
        <ele>1280.45</ele>
        <time>2024-08-31T12:49:03Z</time>
      </trkpt>
      <trkpt lat="42.70819" lon="1.41584">
        <ele>1279.882</ele>
        <time>2024-08-31T12:49:05Z</time>
      </trkpt>
      <trkpt lat="42.70821" lon="1.41585">
        <ele>1279.303</ele>
        <time>2024-08-31T12:49:07Z</time>
      </trkpt>
      <trkpt lat="42.70822" lon="1.41583">
        <ele>1278.433</ele>
        <time>2024-08-31T12:49:09Z</time>
      </trkpt>
      <trkpt lat="42.70822" lon="1.41581">
        <ele>1278.015</ele>
        <time>2024-08-31T12:49:11Z</time>
      </trkpt>
      <trkpt lat="42.70821" lon="1.4158">
        <ele>1276.526</ele>
        <time>2024-08-31T12:49:13Z</time>
      </trkpt>
      <trkpt lat="42.7082" lon="1.41579">
        <ele>1274.601</ele>
        <time>2024-08-31T12:49:15Z</time>
      </trkpt>
      <trkpt lat="42.70821" lon="1.41577">
        <ele>1275.09</ele>
        <time>2024-08-31T12:49:17Z</time>
      </trkpt>
      <trkpt lat="42.70822" lon="1.41576">
        <ele>1274.292</ele>
        <time>2024-08-31T12:49:19Z</time>
      </trkpt>
      <trkpt lat="42.70823" lon="1.41578">
        <ele>1273.955</ele>
        <time>2024-08-31T12:49:21Z</time>
      </trkpt>
      <trkpt lat="42.70824" lon="1.4158">
        <ele>1273.197</ele>
        <time>2024-08-31T12:49:23Z</time>
      </trkpt>
      <trkpt lat="42.70824" lon="1.4158">
        <ele>1273.51</ele>
        <time>2024-08-31T12:49:25Z</time>
      </trkpt>
      <trkpt lat="42.70824" lon="1.4158">
        <ele>1273.225</ele>
        <time>2024-08-31T12:49:27Z</time>
      </trkpt>
      <trkpt lat="42.70824" lon="1.4158">
        <ele>1272.717</ele>
        <time>2024-08-31T12:49:29Z</time>
      </trkpt>
      <trkpt lat="42.70824" lon="1.4158">
        <ele>1272.329</ele>
        <time>2024-08-31T12:49:31Z</time>
      </trkpt>
      <trkpt lat="42.70824" lon="1.4158">
        <ele>1272.552</ele>
        <time>2024-08-31T12:49:33Z</time>
      </trkpt>
      <trkpt lat="42.70824" lon="1.4158">
        <ele>1272.205</ele>
        <time>2024-08-31T12:49:35Z</time>
      </trkpt>
      <trkpt lat="42.70824" lon="1.4158">
        <ele>1272.967</ele>
        <time>2024-08-31T12:49:37Z</time>
      </trkpt>
      <trkpt lat="42.70824" lon="1.4158">
        <ele>1272.666</ele>
        <time>2024-08-31T12:49:39Z</time>
      </trkpt>
      <trkpt lat="42.70824" lon="1.4158">
        <ele>1273.084</ele>
        <time>2024-08-31T12:49:41Z</time>
      </trkpt>
      <trkpt lat="42.70824" lon="1.4158">
        <ele>1272.403</ele>
        <time>2024-08-31T12:49:43Z</time>
      </trkpt>
      <trkpt lat="42.70824" lon="1.4158">
        <ele>1271.663</ele>
        <time>2024-08-31T12:49:45Z</time>
      </trkpt>
      <trkpt lat="42.70824" lon="1.4158">
        <ele>1271.59</ele>
        <time>2024-08-31T12:49:47Z</time>
      </trkpt>
      <trkpt lat="42.70831" lon="1.41567">
        <ele>1271.57</ele>
        <time>2024-08-31T12:49:49Z</time>
      </trkpt>
      <trkpt lat="42.70832" lon="1.41568">
        <ele>1272.018</ele>
        <time>2024-08-31T12:49:51Z</time>
      </trkpt>
      <trkpt lat="42.70834" lon="1.41568">
        <ele>1270.762</ele>
        <time>2024-08-31T12:49:53Z</time>
      </trkpt>
      <trkpt lat="42.70833" lon="1.41566">
        <ele>1269.595</ele>
        <time>2024-08-31T12:49:55Z</time>
      </trkpt>
      <trkpt lat="42.70832" lon="1.41563">
        <ele>1269.167</ele>
        <time>2024-08-31T12:49:57Z</time>
      </trkpt>
      <trkpt lat="42.70832" lon="1.41562">
        <ele>1267.79</ele>
        <time>2024-08-31T12:49:59Z</time>
      </trkpt>
      <trkpt lat="42.70832" lon="1.4156">
        <ele>1267.904</ele>
        <time>2024-08-31T12:50:01Z</time>
      </trkpt>
      <trkpt lat="42.70833" lon="1.41559">
        <ele>1268.605</ele>
        <time>2024-08-31T12:50:03Z</time>
      </trkpt>
      <trkpt lat="42.70833" lon="1.41559">
        <ele>1268.515</ele>
        <time>2024-08-31T12:50:05Z</time>
      </trkpt>
      <trkpt lat="42.70833" lon="1.41559">
        <ele>1267.916</ele>
        <time>2024-08-31T12:50:07Z</time>
      </trkpt>
      <trkpt lat="42.70834" lon="1.41558">
        <ele>1267.779</ele>
        <time>2024-08-31T12:50:09Z</time>
      </trkpt>
      <trkpt lat="42.70835" lon="1.41555">
        <ele>1266.764</ele>
        <time>2024-08-31T12:50:11Z</time>
      </trkpt>
      <trkpt lat="42.70836" lon="1.41553">
        <ele>1266.794</ele>
        <time>2024-08-31T12:50:13Z</time>
      </trkpt>
      <trkpt lat="42.70836" lon="1.4155">
        <ele>1266.172</ele>
        <time>2024-08-31T12:50:15Z</time>
      </trkpt>
      <trkpt lat="42.70836" lon="1.41549">
        <ele>1265.71</ele>
        <time>2024-08-31T12:50:17Z</time>
      </trkpt>
      <trkpt lat="42.70836" lon="1.41546">
        <ele>1265.253</ele>
        <time>2024-08-31T12:50:19Z</time>
      </trkpt>
      <trkpt lat="42.70836" lon="1.41544">
        <ele>1264.381</ele>
        <time>2024-08-31T12:50:21Z</time>
      </trkpt>
      <trkpt lat="42.70835" lon="1.41542">
        <ele>1264.652</ele>
        <time>2024-08-31T12:50:23Z</time>
      </trkpt>
      <trkpt lat="42.70836" lon="1.4154">
        <ele>1264.234</ele>
        <time>2024-08-31T12:50:25Z</time>
      </trkpt>
      <trkpt lat="42.70836" lon="1.41538">
        <ele>1263.695</ele>
        <time>2024-08-31T12:50:27Z</time>
      </trkpt>
      <trkpt lat="42.70836" lon="1.41536">
        <ele>1262.995</ele>
        <time>2024-08-31T12:50:29Z</time>
      </trkpt>
      <trkpt lat="42.70837" lon="1.41535">
        <ele>1263.046</ele>
        <time>2024-08-31T12:50:31Z</time>
      </trkpt>
      <trkpt lat="42.70839" lon="1.41533">
        <ele>1262.703</ele>
        <time>2024-08-31T12:50:33Z</time>
      </trkpt>
      <trkpt lat="42.70839" lon="1.4153">
        <ele>1262.42</ele>
        <time>2024-08-31T12:50:35Z</time>
      </trkpt>
      <trkpt lat="42.7084" lon="1.4153">
        <ele>1261.318</ele>
        <time>2024-08-31T12:50:37Z</time>
      </trkpt>
      <trkpt lat="42.70841" lon="1.41531">
        <ele>1259.447</ele>
        <time>2024-08-31T12:50:39Z</time>
      </trkpt>
      <trkpt lat="42.70842" lon="1.41533">
        <ele>1258.366</ele>
        <time>2024-08-31T12:50:41Z</time>
      </trkpt>
      <trkpt lat="42.70844" lon="1.41534">
        <ele>1258.129</ele>
        <time>2024-08-31T12:50:43Z</time>
      </trkpt>
      <trkpt lat="42.70845" lon="1.41535">
        <ele>1256.091</ele>
        <time>2024-08-31T12:50:45Z</time>
      </trkpt>
      <trkpt lat="42.70847" lon="1.41535">
        <ele>1254.952</ele>
        <time>2024-08-31T12:50:47Z</time>
      </trkpt>
      <trkpt lat="42.70848" lon="1.41536">
        <ele>1254.684</ele>
        <time>2024-08-31T12:50:49Z</time>
      </trkpt>
      <trkpt lat="42.7085" lon="1.41536">
        <ele>1254.567</ele>
        <time>2024-08-31T12:50:51Z</time>
      </trkpt>
      <trkpt lat="42.70851" lon="1.41537">
        <ele>1254.603</ele>
        <time>2024-08-31T12:50:53Z</time>
      </trkpt>
      <trkpt lat="42.70852" lon="1.41537">
        <ele>1254.519</ele>
        <time>2024-08-31T12:50:55Z</time>
      </trkpt>
      <trkpt lat="42.70852" lon="1.41537">
        <ele>1254.496</ele>
        <time>2024-08-31T12:50:57Z</time>
      </trkpt>
      <trkpt lat="42.70852" lon="1.41537">
        <ele>1254.476</ele>
        <time>2024-08-31T12:50:59Z</time>
      </trkpt>
      <trkpt lat="42.70852" lon="1.41537">
        <ele>1254.465</ele>
        <time>2024-08-31T12:51:01Z</time>
      </trkpt>
      <trkpt lat="42.70852" lon="1.41537">
        <ele>1254.448</ele>
        <time>2024-08-31T12:51:03Z</time>
      </trkpt>
      <trkpt lat="42.70852" lon="1.41537">
        <ele>1254.45</ele>
        <time>2024-08-31T12:51:05Z</time>
      </trkpt>
      <trkpt lat="42.70852" lon="1.41537">
        <ele>1254.449</ele>
        <time>2024-08-31T12:51:07Z</time>
      </trkpt>
      <trkpt lat="42.70852" lon="1.41537">
        <ele>1254.447</ele>
        <time>2024-08-31T12:51:09Z</time>
      </trkpt>
      <trkpt lat="42.70852" lon="1.41537">
        <ele>1254.166</ele>
        <time>2024-08-31T12:51:11Z</time>
      </trkpt>
      <trkpt lat="42.70854" lon="1.41536">
        <ele>1254.202</ele>
        <time>2024-08-31T12:51:13Z</time>
      </trkpt>
      <trkpt lat="42.70855" lon="1.41536">
        <ele>1254.116</ele>
        <time>2024-08-31T12:51:15Z</time>
      </trkpt>
      <trkpt lat="42.70857" lon="1.41536">
        <ele>1253.962</ele>
        <time>2024-08-31T12:51:17Z</time>
      </trkpt>
      <trkpt lat="42.70858" lon="1.41536">
        <ele>1253.269</ele>
        <time>2024-08-31T12:51:19Z</time>
      </trkpt>
      <trkpt lat="42.70859" lon="1.41532">
        <ele>1253.27</ele>
        <time>2024-08-31T12:51:21Z</time>
      </trkpt>
      <trkpt lat="42.70862" lon="1.41529">
        <ele>1252.531</ele>
        <time>2024-08-31T12:51:23Z</time>
      </trkpt>
      <trkpt lat="42.70862" lon="1.41529">
        <ele>1253.116</ele>
        <time>2024-08-31T12:51:25Z</time>
      </trkpt>
      <trkpt lat="42.70862" lon="1.41529">
        <ele>1254.429</ele>
        <time>2024-08-31T12:51:27Z</time>
      </trkpt>
      <trkpt lat="42.70862" lon="1.41529">
        <ele>1254.404</ele>
        <time>2024-08-31T12:51:29Z</time>
      </trkpt>
      <trkpt lat="42.70862" lon="1.41529">
        <ele>1254.412</ele>
        <time>2024-08-31T12:51:31Z</time>
      </trkpt>
      <trkpt lat="42.70862" lon="1.41529">
        <ele>1254.397</ele>
        <time>2024-08-31T12:51:33Z</time>
      </trkpt>
      <trkpt lat="42.70862" lon="1.41529">
        <ele>1254.4</ele>
        <time>2024-08-31T12:51:35Z</time>
      </trkpt>
      <trkpt lat="42.70862" lon="1.41529">
        <ele>1254.418</ele>
        <time>2024-08-31T12:51:37Z</time>
      </trkpt>
      <trkpt lat="42.70862" lon="1.41529">
        <ele>1254.387</ele>
        <time>2024-08-31T12:51:39Z</time>
      </trkpt>
      <trkpt lat="42.70862" lon="1.41529">
        <ele>1254.374</ele>
        <time>2024-08-31T12:51:41Z</time>
      </trkpt>
      <trkpt lat="42.70862" lon="1.41529">
        <ele>1254.365</ele>
        <time>2024-08-31T12:51:43Z</time>
      </trkpt>
      <trkpt lat="42.70862" lon="1.41529">
        <ele>1254.381</ele>
        <time>2024-08-31T12:51:45Z</time>
      </trkpt>
      <trkpt lat="42.70862" lon="1.41529">
        <ele>1254.378</ele>
        <time>2024-08-31T12:51:47Z</time>
      </trkpt>
      <trkpt lat="42.70862" lon="1.41529">
        <ele>1254.374</ele>
        <time>2024-08-31T12:51:49Z</time>
      </trkpt>
      <trkpt lat="42.70862" lon="1.41529">
        <ele>1254.253</ele>
        <time>2024-08-31T12:51:51Z</time>
      </trkpt>
      <trkpt lat="42.70862" lon="1.41529">
        <ele>1254.582</ele>
        <time>2024-08-31T12:51:53Z</time>
      </trkpt>
      <trkpt lat="42.70862" lon="1.41529">
        <ele>1254.572</ele>
        <time>2024-08-31T12:51:55Z</time>
      </trkpt>
      <trkpt lat="42.70862" lon="1.41529">
        <ele>1254.565</ele>
        <time>2024-08-31T12:51:57Z</time>
      </trkpt>
      <trkpt lat="42.70862" lon="1.41529">
        <ele>1254.567</ele>
        <time>2024-08-31T12:51:59Z</time>
      </trkpt>
      <trkpt lat="42.70862" lon="1.41529">
        <ele>1254.582</ele>
        <time>2024-08-31T12:52:01Z</time>
      </trkpt>
      <trkpt lat="42.70862" lon="1.41529">
        <ele>1254.62</ele>
        <time>2024-08-31T12:52:03Z</time>
      </trkpt>
      <trkpt lat="42.70862" lon="1.41529">
        <ele>1254.616</ele>
        <time>2024-08-31T12:52:05Z</time>
      </trkpt>
      <trkpt lat="42.70862" lon="1.41529">
        <ele>1254.543</ele>
        <time>2024-08-31T12:52:07Z</time>
      </trkpt>
      <trkpt lat="42.70862" lon="1.41529">
        <ele>1254.315</ele>
        <time>2024-08-31T12:52:09Z</time>
      </trkpt>
      <trkpt lat="42.70867" lon="1.41533">
        <ele>1254.787</ele>
        <time>2024-08-31T12:52:11Z</time>
      </trkpt>
      <trkpt lat="42.70869" lon="1.41532">
        <ele>1254.493</ele>
        <time>2024-08-31T12:52:13Z</time>
      </trkpt>
      <trkpt lat="42.70869" lon="1.41531">
        <ele>1254.517</ele>
        <time>2024-08-31T12:52:15Z</time>
      </trkpt>
      <trkpt lat="42.70871" lon="1.41529">
        <ele>1253.786</ele>
        <time>2024-08-31T12:52:17Z</time>
      </trkpt>
      <trkpt lat="42.70872" lon="1.41528">
        <ele>1254.133</ele>
        <time>2024-08-31T12:52:19Z</time>
      </trkpt>
      <trkpt lat="42.70873" lon="1.41528">
        <ele>1253.677</ele>
        <time>2024-08-31T12:52:21Z</time>
      </trkpt>
      <trkpt lat="42.70873" lon="1.41529">
        <ele>1253.979</ele>
        <time>2024-08-31T12:52:23Z</time>
      </trkpt>
      <trkpt lat="42.70875" lon="1.41529">
        <ele>1253.923</ele>
        <time>2024-08-31T12:52:25Z</time>
      </trkpt>
      <trkpt lat="42.70876" lon="1.4153">
        <ele>1253.731</ele>
        <time>2024-08-31T12:52:27Z</time>
      </trkpt>
      <trkpt lat="42.70877" lon="1.4153">
        <ele>1253.351</ele>
        <time>2024-08-31T12:52:29Z</time>
      </trkpt>
      <trkpt lat="42.70878" lon="1.4153">
        <ele>1252.656</ele>
        <time>2024-08-31T12:52:31Z</time>
      </trkpt>
      <trkpt lat="42.7088" lon="1.41531">
        <ele>1252.336</ele>
        <time>2024-08-31T12:52:33Z</time>
      </trkpt>
      <trkpt lat="42.70881" lon="1.41531">
        <ele>1251.628</ele>
        <time>2024-08-31T12:52:35Z</time>
      </trkpt>
      <trkpt lat="42.70883" lon="1.4153">
        <ele>1251.092</ele>
        <time>2024-08-31T12:52:37Z</time>
      </trkpt>
      <trkpt lat="42.70884" lon="1.4153">
        <ele>1250.905</ele>
        <time>2024-08-31T12:52:39Z</time>
      </trkpt>
      <trkpt lat="42.70885" lon="1.41531">
        <ele>1250.593</ele>
        <time>2024-08-31T12:52:41Z</time>
      </trkpt>
      <trkpt lat="42.70886" lon="1.41532">
        <ele>1250.815</ele>
        <time>2024-08-31T12:52:43Z</time>
      </trkpt>
      <trkpt lat="42.70887" lon="1.41533">
        <ele>1251.262</ele>
        <time>2024-08-31T12:52:45Z</time>
      </trkpt>
      <trkpt lat="42.70888" lon="1.41534">
        <ele>1250.593</ele>
        <time>2024-08-31T12:52:47Z</time>
      </trkpt>
      <trkpt lat="42.70888" lon="1.41534">
        <ele>1248.74</ele>
        <time>2024-08-31T12:52:49Z</time>
      </trkpt>
      <trkpt lat="42.70888" lon="1.41534">
        <ele>1247.97</ele>
        <time>2024-08-31T12:52:51Z</time>
      </trkpt>
      <trkpt lat="42.70888" lon="1.41534">
        <ele>1247.697</ele>
        <time>2024-08-31T12:52:53Z</time>
      </trkpt>
      <trkpt lat="42.70888" lon="1.41534">
        <ele>1247.733</ele>
        <time>2024-08-31T12:52:55Z</time>
      </trkpt>
      <trkpt lat="42.70888" lon="1.41534">
        <ele>1247.644</ele>
        <time>2024-08-31T12:52:57Z</time>
      </trkpt>
      <trkpt lat="42.70888" lon="1.41534">
        <ele>1246.514</ele>
        <time>2024-08-31T12:52:59Z</time>
      </trkpt>
      <trkpt lat="42.70888" lon="1.41534">
        <ele>1245.99</ele>
        <time>2024-08-31T12:53:01Z</time>
      </trkpt>
      <trkpt lat="42.70888" lon="1.41534">
        <ele>1245.353</ele>
        <time>2024-08-31T12:53:03Z</time>
      </trkpt>
      <trkpt lat="42.70888" lon="1.41534">
        <ele>1245.886</ele>
        <time>2024-08-31T12:53:05Z</time>
      </trkpt>
      <trkpt lat="42.70888" lon="1.41534">
        <ele>1245.291</ele>
        <time>2024-08-31T12:53:07Z</time>
      </trkpt>
      <trkpt lat="42.70888" lon="1.41534">
        <ele>1245.68</ele>
        <time>2024-08-31T12:53:09Z</time>
      </trkpt>
      <trkpt lat="42.70888" lon="1.41534">
        <ele>1247.467</ele>
        <time>2024-08-31T12:53:11Z</time>
      </trkpt>
      <trkpt lat="42.70888" lon="1.41534">
        <ele>1247.811</ele>
        <time>2024-08-31T12:53:13Z</time>
      </trkpt>
      <trkpt lat="42.70888" lon="1.41534">
        <ele>1248.308</ele>
        <time>2024-08-31T12:53:15Z</time>
      </trkpt>
      <trkpt lat="42.70888" lon="1.41534">
        <ele>1248.882</ele>
        <time>2024-08-31T12:53:17Z</time>
      </trkpt>
      <trkpt lat="42.70888" lon="1.41534">
        <ele>1248.872</ele>
        <time>2024-08-31T12:53:19Z</time>
      </trkpt>
      <trkpt lat="42.70888" lon="1.41534">
        <ele>1248.87</ele>
        <time>2024-08-31T12:53:21Z</time>
      </trkpt>
      <trkpt lat="42.70888" lon="1.41534">
        <ele>1248.861</ele>
        <time>2024-08-31T12:53:23Z</time>
      </trkpt>
      <trkpt lat="42.70888" lon="1.41534">
        <ele>1248.858</ele>
        <time>2024-08-31T12:53:25Z</time>
      </trkpt>
      <trkpt lat="42.70888" lon="1.41534">
        <ele>1248.731</ele>
        <time>2024-08-31T12:53:27Z</time>
      </trkpt>
      <trkpt lat="42.70888" lon="1.41534">
        <ele>1248.832</ele>
        <time>2024-08-31T12:53:29Z</time>
      </trkpt>
      <trkpt lat="42.70888" lon="1.41534">
        <ele>1248.833</ele>
        <time>2024-08-31T12:53:31Z</time>
      </trkpt>
      <trkpt lat="42.70888" lon="1.41534">
        <ele>1248.832</ele>
        <time>2024-08-31T12:53:33Z</time>
      </trkpt>
      <trkpt lat="42.70888" lon="1.41534">
        <ele>1248.834</ele>
        <time>2024-08-31T12:53:35Z</time>
      </trkpt>
      <trkpt lat="42.70888" lon="1.41534">
        <ele>1248.831</ele>
        <time>2024-08-31T12:53:37Z</time>
      </trkpt>
      <trkpt lat="42.70888" lon="1.41534">
        <ele>1248.833</ele>
        <time>2024-08-31T12:53:39Z</time>
      </trkpt>
      <trkpt lat="42.70888" lon="1.41534">
        <ele>1248.833</ele>
        <time>2024-08-31T12:53:41Z</time>
      </trkpt>
      <trkpt lat="42.70888" lon="1.41534">
        <ele>1248.834</ele>
        <time>2024-08-31T12:53:43Z</time>
      </trkpt>
      <trkpt lat="42.70888" lon="1.41534">
        <ele>1248.839</ele>
        <time>2024-08-31T12:53:45Z</time>
      </trkpt>
      <trkpt lat="42.70888" lon="1.41534">
        <ele>1248.829</ele>
        <time>2024-08-31T12:53:47Z</time>
      </trkpt>
      <trkpt lat="42.70888" lon="1.41534">
        <ele>1248.822</ele>
        <time>2024-08-31T12:53:49Z</time>
      </trkpt>
      <trkpt lat="42.70888" lon="1.41534">
        <ele>1248.812</ele>
        <time>2024-08-31T12:53:51Z</time>
      </trkpt>
      <trkpt lat="42.70888" lon="1.41534">
        <ele>1248.803</ele>
        <time>2024-08-31T12:53:53Z</time>
      </trkpt>
      <trkpt lat="42.70888" lon="1.41534">
        <ele>1248.804</ele>
        <time>2024-08-31T12:53:55Z</time>
      </trkpt>
      <trkpt lat="42.70888" lon="1.41534">
        <ele>1248.802</ele>
        <time>2024-08-31T12:53:57Z</time>
      </trkpt>
      <trkpt lat="42.70888" lon="1.41534">
        <ele>1248.813</ele>
        <time>2024-08-31T12:53:59Z</time>
      </trkpt>
      <trkpt lat="42.70888" lon="1.41534">
        <ele>1248.823</ele>
        <time>2024-08-31T12:54:01Z</time>
      </trkpt>
      <trkpt lat="42.70888" lon="1.41534">
        <ele>1248.816</ele>
        <time>2024-08-31T12:54:03Z</time>
      </trkpt>
      <trkpt lat="42.70888" lon="1.41534">
        <ele>1248.818</ele>
        <time>2024-08-31T12:54:05Z</time>
      </trkpt>
      <trkpt lat="42.70888" lon="1.41534">
        <ele>1248.813</ele>
        <time>2024-08-31T12:54:07Z</time>
      </trkpt>
      <trkpt lat="42.70895" lon="1.4152">
        <ele>1248.818</ele>
        <time>2024-08-31T12:54:09Z</time>
      </trkpt>
      <trkpt lat="42.70895" lon="1.4152">
        <ele>1248.823</ele>
        <time>2024-08-31T12:54:11Z</time>
      </trkpt>
      <trkpt lat="42.70895" lon="1.4152">
        <ele>1248.828</ele>
        <time>2024-08-31T12:54:13Z</time>
      </trkpt>
      <trkpt lat="42.70895" lon="1.41519">
        <ele>1248.778</ele>
        <time>2024-08-31T12:54:15Z</time>
      </trkpt>
      <trkpt lat="42.70895" lon="1.41518">
        <ele>1249.13</ele>
        <time>2024-08-31T12:54:17Z</time>
      </trkpt>
      <trkpt lat="42.70896" lon="1.41517">
        <ele>1249.862</ele>
        <time>2024-08-31T12:54:19Z</time>
      </trkpt>
      <trkpt lat="42.70898" lon="1.41516">
        <ele>1249.95</ele>
        <time>2024-08-31T12:54:21Z</time>
      </trkpt>
      <trkpt lat="42.70898" lon="1.41516">
        <ele>1250.249</ele>
        <time>2024-08-31T12:54:23Z</time>
      </trkpt>
      <trkpt lat="42.70898" lon="1.41516">
        <ele>1249.983</ele>
        <time>2024-08-31T12:54:25Z</time>
      </trkpt>
      <trkpt lat="42.70899" lon="1.41515">
        <ele>1249.584</ele>
        <time>2024-08-31T12:54:27Z</time>
      </trkpt>
      <trkpt lat="42.70899" lon="1.41514">
        <ele>1249.906</ele>
        <time>2024-08-31T12:54:29Z</time>
      </trkpt>
      <trkpt lat="42.70897" lon="1.41511">
        <ele>1249.752</ele>
        <time>2024-08-31T12:54:31Z</time>
      </trkpt>
      <trkpt lat="42.70896" lon="1.41509">
        <ele>1248.791</ele>
        <time>2024-08-31T12:54:33Z</time>
      </trkpt>
      <trkpt lat="42.70894" lon="1.41508">
        <ele>1249.182</ele>
        <time>2024-08-31T12:54:35Z</time>
      </trkpt>
      <trkpt lat="42.70893" lon="1.41506">
        <ele>1249.116</ele>
        <time>2024-08-31T12:54:37Z</time>
      </trkpt>
      <trkpt lat="42.70892" lon="1.41505">
        <ele>1248.192</ele>
        <time>2024-08-31T12:54:39Z</time>
      </trkpt>
      <trkpt lat="42.70892" lon="1.41504">
        <ele>1247.193</ele>
        <time>2024-08-31T12:54:41Z</time>
      </trkpt>
      <trkpt lat="42.70892" lon="1.41502">
        <ele>1248.041</ele>
        <time>2024-08-31T12:54:43Z</time>
      </trkpt>
      <trkpt lat="42.70891" lon="1.415">
        <ele>1247.861</ele>
        <time>2024-08-31T12:54:45Z</time>
      </trkpt>
      <trkpt lat="42.7089" lon="1.41498">
        <ele>1248.408</ele>
        <time>2024-08-31T12:54:47Z</time>
      </trkpt>
      <trkpt lat="42.7089" lon="1.41496">
        <ele>1251.029</ele>
        <time>2024-08-31T12:54:49Z</time>
      </trkpt>
      <trkpt lat="42.7089" lon="1.41494">
        <ele>1251.342</ele>
        <time>2024-08-31T12:54:51Z</time>
      </trkpt>
      <trkpt lat="42.7089" lon="1.41493">
        <ele>1251.496</ele>
        <time>2024-08-31T12:54:53Z</time>
      </trkpt>
      <trkpt lat="42.70889" lon="1.41492">
        <ele>1251.819</ele>
        <time>2024-08-31T12:54:55Z</time>
      </trkpt>
      <trkpt lat="42.70889" lon="1.4149">
        <ele>1252.545</ele>
        <time>2024-08-31T12:54:57Z</time>
      </trkpt>
      <trkpt lat="42.70889" lon="1.41489">
        <ele>1253.926</ele>
        <time>2024-08-31T12:54:59Z</time>
      </trkpt>
      <trkpt lat="42.70889" lon="1.41488">
        <ele>1254.551</ele>
        <time>2024-08-31T12:55:01Z</time>
      </trkpt>
      <trkpt lat="42.70888" lon="1.41487">
        <ele>1254.081</ele>
        <time>2024-08-31T12:55:03Z</time>
      </trkpt>
      <trkpt lat="42.70888" lon="1.41486">
        <ele>1254.883</ele>
        <time>2024-08-31T12:55:05Z</time>
      </trkpt>
      <trkpt lat="42.70888" lon="1.41484">
        <ele>1254.853</ele>
        <time>2024-08-31T12:55:07Z</time>
      </trkpt>
      <trkpt lat="42.70888" lon="1.41482">
        <ele>1254.85</ele>
        <time>2024-08-31T12:55:09Z</time>
      </trkpt>
      <trkpt lat="42.70889" lon="1.41481">
        <ele>1254.933</ele>
        <time>2024-08-31T12:55:11Z</time>
      </trkpt>
      <trkpt lat="42.70889" lon="1.41479">
        <ele>1254.054</ele>
        <time>2024-08-31T12:55:13Z</time>
      </trkpt>
      <trkpt lat="42.70888" lon="1.41476">
        <ele>1254.076</ele>
        <time>2024-08-31T12:55:15Z</time>
      </trkpt>
      <trkpt lat="42.70888" lon="1.41474">
        <ele>1254.95</ele>
        <time>2024-08-31T12:55:17Z</time>
      </trkpt>
      <trkpt lat="42.70887" lon="1.41472">
        <ele>1255.317</ele>
        <time>2024-08-31T12:55:19Z</time>
      </trkpt>
      <trkpt lat="42.70886" lon="1.4147">
        <ele>1256.003</ele>
        <time>2024-08-31T12:55:21Z</time>
      </trkpt>
      <trkpt lat="42.70884" lon="1.41467">
        <ele>1255.031</ele>
        <time>2024-08-31T12:55:23Z</time>
      </trkpt>
      <trkpt lat="42.70883" lon="1.41463">
        <ele>1253.571</ele>
        <time>2024-08-31T12:55:25Z</time>
      </trkpt>
      <trkpt lat="42.70884" lon="1.41462">
        <ele>1252.956</ele>
        <time>2024-08-31T12:55:27Z</time>
      </trkpt>
      <trkpt lat="42.70884" lon="1.4146">
        <ele>1251.704</ele>
        <time>2024-08-31T12:55:29Z</time>
      </trkpt>
      <trkpt lat="42.70884" lon="1.41458">
        <ele>1251.757</ele>
        <time>2024-08-31T12:55:31Z</time>
      </trkpt>
      <trkpt lat="42.70883" lon="1.41457">
        <ele>1252.755</ele>
        <time>2024-08-31T12:55:33Z</time>
      </trkpt>
      <trkpt lat="42.70881" lon="1.41456">
        <ele>1251.829</ele>
        <time>2024-08-31T12:55:35Z</time>
      </trkpt>
      <trkpt lat="42.70878" lon="1.41453">
        <ele>1251.505</ele>
        <time>2024-08-31T12:55:37Z</time>
      </trkpt>
      <trkpt lat="42.70876" lon="1.41453">
        <ele>1247.492</ele>
        <time>2024-08-31T12:55:39Z</time>
      </trkpt>
      <trkpt lat="42.70876" lon="1.41452">
        <ele>1248.93</ele>
        <time>2024-08-31T12:55:41Z</time>
      </trkpt>
      <trkpt lat="42.70876" lon="1.41452">
        <ele>1249.923</ele>
        <time>2024-08-31T12:55:43Z</time>
      </trkpt>
      <trkpt lat="42.70876" lon="1.41452">
        <ele>1250.419</ele>
        <time>2024-08-31T12:55:45Z</time>
      </trkpt>
      <trkpt lat="42.70876" lon="1.41452">
        <ele>1251.187</ele>
        <time>2024-08-31T12:55:47Z</time>
      </trkpt>
      <trkpt lat="42.70876" lon="1.41452">
        <ele>1251.293</ele>
        <time>2024-08-31T12:55:49Z</time>
      </trkpt>
      <trkpt lat="42.70875" lon="1.41447">
        <ele>1251.946</ele>
        <time>2024-08-31T12:55:51Z</time>
      </trkpt>
      <trkpt lat="42.70874" lon="1.41444">
        <ele>1253.278</ele>
        <time>2024-08-31T12:55:53Z</time>
      </trkpt>
      <trkpt lat="42.70874" lon="1.41441">
        <ele>1252.857</ele>
        <time>2024-08-31T12:55:55Z</time>
      </trkpt>
      <trkpt lat="42.70873" lon="1.41439">
        <ele>1253.847</ele>
        <time>2024-08-31T12:55:57Z</time>
      </trkpt>
      <trkpt lat="42.70873" lon="1.41437">
        <ele>1253.706</ele>
        <time>2024-08-31T12:55:59Z</time>
      </trkpt>
      <trkpt lat="42.70872" lon="1.41435">
        <ele>1254.435</ele>
        <time>2024-08-31T12:56:01Z</time>
      </trkpt>
      <trkpt lat="42.70871" lon="1.41432">
        <ele>1255.379</ele>
        <time>2024-08-31T12:56:03Z</time>
      </trkpt>
      <trkpt lat="42.70871" lon="1.4143">
        <ele>1255.095</ele>
        <time>2024-08-31T12:56:05Z</time>
      </trkpt>
      <trkpt lat="42.70871" lon="1.41428">
        <ele>1256.322</ele>
        <time>2024-08-31T12:56:07Z</time>
      </trkpt>
      <trkpt lat="42.70871" lon="1.41425">
        <ele>1257.615</ele>
        <time>2024-08-31T12:56:09Z</time>
      </trkpt>
      <trkpt lat="42.70871" lon="1.41423">
        <ele>1256.625</ele>
        <time>2024-08-31T12:56:11Z</time>
      </trkpt>
      <trkpt lat="42.70872" lon="1.41421">
        <ele>1257.566</ele>
        <time>2024-08-31T12:56:13Z</time>
      </trkpt>
      <trkpt lat="42.70872" lon="1.41419">
        <ele>1257.767</ele>
        <time>2024-08-31T12:56:15Z</time>
      </trkpt>
      <trkpt lat="42.70873" lon="1.41417">
        <ele>1258.3</ele>
        <time>2024-08-31T12:56:17Z</time>
      </trkpt>
      <trkpt lat="42.70873" lon="1.41416">
        <ele>1258.847</ele>
        <time>2024-08-31T12:56:19Z</time>
      </trkpt>
      <trkpt lat="42.70874" lon="1.41413">
        <ele>1259.782</ele>
        <time>2024-08-31T12:56:21Z</time>
      </trkpt>
      <trkpt lat="42.70874" lon="1.41412">
        <ele>1259.511</ele>
        <time>2024-08-31T12:56:23Z</time>
      </trkpt>
      <trkpt lat="42.70875" lon="1.4141">
        <ele>1260.154</ele>
        <time>2024-08-31T12:56:25Z</time>
      </trkpt>
      <trkpt lat="42.70875" lon="1.41408">
        <ele>1259.451</ele>
        <time>2024-08-31T12:56:27Z</time>
      </trkpt>
      <trkpt lat="42.70875" lon="1.41406">
        <ele>1258.261</ele>
        <time>2024-08-31T12:56:29Z</time>
      </trkpt>
      <trkpt lat="42.70875" lon="1.41403">
        <ele>1257.862</ele>
        <time>2024-08-31T12:56:31Z</time>
      </trkpt>
      <trkpt lat="42.70875" lon="1.414">
        <ele>1258.176</ele>
        <time>2024-08-31T12:56:33Z</time>
      </trkpt>
      <trkpt lat="42.70877" lon="1.41398">
        <ele>1259.017</ele>
        <time>2024-08-31T12:56:35Z</time>
      </trkpt>
      <trkpt lat="42.70877" lon="1.41396">
        <ele>1259.227</ele>
        <time>2024-08-31T12:56:37Z</time>
      </trkpt>
      <trkpt lat="42.70878" lon="1.41395">
        <ele>1259.779</ele>
        <time>2024-08-31T12:56:39Z</time>
      </trkpt>
      <trkpt lat="42.70879" lon="1.41393">
        <ele>1258.386</ele>
        <time>2024-08-31T12:56:41Z</time>
      </trkpt>
      <trkpt lat="42.70879" lon="1.41391">
        <ele>1258.661</ele>
        <time>2024-08-31T12:56:43Z</time>
      </trkpt>
      <trkpt lat="42.7088" lon="1.4139">
        <ele>1257.467</ele>
        <time>2024-08-31T12:56:45Z</time>
      </trkpt>
      <trkpt lat="42.7088" lon="1.41389">
        <ele>1258.313</ele>
        <time>2024-08-31T12:56:47Z</time>
      </trkpt>
      <trkpt lat="42.70881" lon="1.41387">
        <ele>1258.977</ele>
        <time>2024-08-31T12:56:49Z</time>
      </trkpt>
      <trkpt lat="42.70882" lon="1.41386">
        <ele>1258.736</ele>
        <time>2024-08-31T12:56:51Z</time>
      </trkpt>
      <trkpt lat="42.70883" lon="1.41385">
        <ele>1258.837</ele>
        <time>2024-08-31T12:56:53Z</time>
      </trkpt>
      <trkpt lat="42.70884" lon="1.41383">
        <ele>1259.028</ele>
        <time>2024-08-31T12:56:55Z</time>
      </trkpt>
      <trkpt lat="42.70885" lon="1.41381">
        <ele>1260.268</ele>
        <time>2024-08-31T12:56:57Z</time>
      </trkpt>
      <trkpt lat="42.70885" lon="1.4138">
        <ele>1262.297</ele>
        <time>2024-08-31T12:56:59Z</time>
      </trkpt>
      <trkpt lat="42.70886" lon="1.41379">
        <ele>1262.352</ele>
        <time>2024-08-31T12:57:01Z</time>
      </trkpt>
      <trkpt lat="42.70886" lon="1.41377">
        <ele>1262.83</ele>
        <time>2024-08-31T12:57:03Z</time>
      </trkpt>
      <trkpt lat="42.70886" lon="1.41376">
        <ele>1263.116</ele>
        <time>2024-08-31T12:57:05Z</time>
      </trkpt>
      <trkpt lat="42.70886" lon="1.41375">
        <ele>1262.874</ele>
        <time>2024-08-31T12:57:07Z</time>
      </trkpt>
      <trkpt lat="42.70886" lon="1.41373">
        <ele>1262.708</ele>
        <time>2024-08-31T12:57:09Z</time>
      </trkpt>
      <trkpt lat="42.70887" lon="1.41371">
        <ele>1261.547</ele>
        <time>2024-08-31T12:57:11Z</time>
      </trkpt>
      <trkpt lat="42.70887" lon="1.4137">
        <ele>1261.805</ele>
        <time>2024-08-31T12:57:13Z</time>
      </trkpt>
      <trkpt lat="42.70888" lon="1.41368">
        <ele>1262.683</ele>
        <time>2024-08-31T12:57:15Z</time>
      </trkpt>
      <trkpt lat="42.70887" lon="1.41367">
        <ele>1264.581</ele>
        <time>2024-08-31T12:57:17Z</time>
      </trkpt>
      <trkpt lat="42.70887" lon="1.41366">
        <ele>1265.627</ele>
        <time>2024-08-31T12:57:19Z</time>
      </trkpt>
      <trkpt lat="42.70887" lon="1.41364">
        <ele>1265.031</ele>
        <time>2024-08-31T12:57:21Z</time>
      </trkpt>
      <trkpt lat="42.70886" lon="1.41362">
        <ele>1265.346</ele>
        <time>2024-08-31T12:57:23Z</time>
      </trkpt>
      <trkpt lat="42.70885" lon="1.4136">
        <ele>1266.249</ele>
        <time>2024-08-31T12:57:25Z</time>
      </trkpt>
      <trkpt lat="42.70884" lon="1.41358">
        <ele>1266.383</ele>
        <time>2024-08-31T12:57:27Z</time>
      </trkpt>
      <trkpt lat="42.70883" lon="1.41355">
        <ele>1266.56</ele>
        <time>2024-08-31T12:57:29Z</time>
      </trkpt>
      <trkpt lat="42.70883" lon="1.41353">
        <ele>1267.27</ele>
        <time>2024-08-31T12:57:31Z</time>
      </trkpt>
      <trkpt lat="42.70882" lon="1.41351">
        <ele>1267.863</ele>
        <time>2024-08-31T12:57:33Z</time>
      </trkpt>
      <trkpt lat="42.70881" lon="1.4135">
        <ele>1268.651</ele>
        <time>2024-08-31T12:57:35Z</time>
      </trkpt>
      <trkpt lat="42.70881" lon="1.41347">
        <ele>1268.983</ele>
        <time>2024-08-31T12:57:37Z</time>
      </trkpt>
      <trkpt lat="42.7088" lon="1.41345">
        <ele>1268.618</ele>
        <time>2024-08-31T12:57:39Z</time>
      </trkpt>
      <trkpt lat="42.7088" lon="1.41342">
        <ele>1269.144</ele>
        <time>2024-08-31T12:57:41Z</time>
      </trkpt>
      <trkpt lat="42.70879" lon="1.41338">
        <ele>1268.691</ele>
        <time>2024-08-31T12:57:43Z</time>
      </trkpt>
      <trkpt lat="42.70879" lon="1.41333">
        <ele>1268.138</ele>
        <time>2024-08-31T12:57:45Z</time>
      </trkpt>
      <trkpt lat="42.7088" lon="1.41331">
        <ele>1267.931</ele>
        <time>2024-08-31T12:57:47Z</time>
      </trkpt>
      <trkpt lat="42.70879" lon="1.41329">
        <ele>1267.363</ele>
        <time>2024-08-31T12:57:49Z</time>
      </trkpt>
      <trkpt lat="42.7088" lon="1.41327">
        <ele>1268.158</ele>
        <time>2024-08-31T12:57:51Z</time>
      </trkpt>
      <trkpt lat="42.70881" lon="1.41326">
        <ele>1268.062</ele>
        <time>2024-08-31T12:57:53Z</time>
      </trkpt>
      <trkpt lat="42.70881" lon="1.41325">
        <ele>1269.059</ele>
        <time>2024-08-31T12:57:55Z</time>
      </trkpt>
      <trkpt lat="42.70882" lon="1.41324">
        <ele>1269.844</ele>
        <time>2024-08-31T12:57:57Z</time>
      </trkpt>
      <trkpt lat="42.70883" lon="1.41323">
        <ele>1270.526</ele>
        <time>2024-08-31T12:57:59Z</time>
      </trkpt>
      <trkpt lat="42.70883" lon="1.41321">
        <ele>1271.558</ele>
        <time>2024-08-31T12:58:01Z</time>
      </trkpt>
      <trkpt lat="42.70883" lon="1.4132">
        <ele>1271.353</ele>
        <time>2024-08-31T12:58:03Z</time>
      </trkpt>
      <trkpt lat="42.70884" lon="1.4132">
        <ele>1272.695</ele>
        <time>2024-08-31T12:58:05Z</time>
      </trkpt>
      <trkpt lat="42.70883" lon="1.41317">
        <ele>1272.708</ele>
        <time>2024-08-31T12:58:07Z</time>
      </trkpt>
      <trkpt lat="42.70883" lon="1.41316">
        <ele>1272.112</ele>
        <time>2024-08-31T12:58:09Z</time>
      </trkpt>
      <trkpt lat="42.70884" lon="1.41314">
        <ele>1272.294</ele>
        <time>2024-08-31T12:58:11Z</time>
      </trkpt>
      <trkpt lat="42.70884" lon="1.41312">
        <ele>1271.806</ele>
        <time>2024-08-31T12:58:13Z</time>
      </trkpt>
      <trkpt lat="42.70885" lon="1.41311">
        <ele>1273.56</ele>
        <time>2024-08-31T12:58:15Z</time>
      </trkpt>
      <trkpt lat="42.70886" lon="1.4131">
        <ele>1272.374</ele>
        <time>2024-08-31T12:58:17Z</time>
      </trkpt>
      <trkpt lat="42.70887" lon="1.41308">
        <ele>1272.188</ele>
        <time>2024-08-31T12:58:19Z</time>
      </trkpt>
      <trkpt lat="42.70887" lon="1.41306">
        <ele>1272.74</ele>
        <time>2024-08-31T12:58:21Z</time>
      </trkpt>
      <trkpt lat="42.70889" lon="1.41305">
        <ele>1273.484</ele>
        <time>2024-08-31T12:58:23Z</time>
      </trkpt>
      <trkpt lat="42.70889" lon="1.41303">
        <ele>1272.725</ele>
        <time>2024-08-31T12:58:25Z</time>
      </trkpt>
      <trkpt lat="42.7089" lon="1.41301">
        <ele>1273.165</ele>
        <time>2024-08-31T12:58:27Z</time>
      </trkpt>
      <trkpt lat="42.70889" lon="1.41299">
        <ele>1272.965</ele>
        <time>2024-08-31T12:58:29Z</time>
      </trkpt>
      <trkpt lat="42.70889" lon="1.41298">
        <ele>1272.943</ele>
        <time>2024-08-31T12:58:31Z</time>
      </trkpt>
      <trkpt lat="42.70888" lon="1.41296">
        <ele>1272.778</ele>
        <time>2024-08-31T12:58:33Z</time>
      </trkpt>
      <trkpt lat="42.70888" lon="1.41294">
        <ele>1272.158</ele>
        <time>2024-08-31T12:58:35Z</time>
      </trkpt>
      <trkpt lat="42.70887" lon="1.41291">
        <ele>1272.185</ele>
        <time>2024-08-31T12:58:37Z</time>
      </trkpt>
      <trkpt lat="42.70887" lon="1.41288">
        <ele>1273.664</ele>
        <time>2024-08-31T12:58:39Z</time>
      </trkpt>
      <trkpt lat="42.70888" lon="1.41285">
        <ele>1274.142</ele>
        <time>2024-08-31T12:58:41Z</time>
      </trkpt>
      <trkpt lat="42.70888" lon="1.41282">
        <ele>1273.667</ele>
        <time>2024-08-31T12:58:43Z</time>
      </trkpt>
      <trkpt lat="42.70888" lon="1.4128">
        <ele>1273.586</ele>
        <time>2024-08-31T12:58:45Z</time>
      </trkpt>
      <trkpt lat="42.70888" lon="1.41278">
        <ele>1274.708</ele>
        <time>2024-08-31T12:58:47Z</time>
      </trkpt>
      <trkpt lat="42.70888" lon="1.41275">
        <ele>1274.362</ele>
        <time>2024-08-31T12:58:49Z</time>
      </trkpt>
      <trkpt lat="42.70888" lon="1.41272">
        <ele>1275.395</ele>
        <time>2024-08-31T12:58:51Z</time>
      </trkpt>
      <trkpt lat="42.70887" lon="1.41269">
        <ele>1274.28</ele>
        <time>2024-08-31T12:58:53Z</time>
      </trkpt>
      <trkpt lat="42.70886" lon="1.41267">
        <ele>1274.795</ele>
        <time>2024-08-31T12:58:55Z</time>
      </trkpt>
      <trkpt lat="42.70884" lon="1.41264">
        <ele>1273.711</ele>
        <time>2024-08-31T12:58:57Z</time>
      </trkpt>
      <trkpt lat="42.70884" lon="1.41261">
        <ele>1272.595</ele>
        <time>2024-08-31T12:58:59Z</time>
      </trkpt>
      <trkpt lat="42.70884" lon="1.41257">
        <ele>1273.753</ele>
        <time>2024-08-31T12:59:01Z</time>
      </trkpt>
      <trkpt lat="42.70885" lon="1.41254">
        <ele>1274.467</ele>
        <time>2024-08-31T12:59:03Z</time>
      </trkpt>
      <trkpt lat="42.70885" lon="1.41252">
        <ele>1276.105</ele>
        <time>2024-08-31T12:59:05Z</time>
      </trkpt>
      <trkpt lat="42.70886" lon="1.41249">
        <ele>1276.866</ele>
        <time>2024-08-31T12:59:07Z</time>
      </trkpt>
      <trkpt lat="42.70887" lon="1.41247">
        <ele>1277.066</ele>
        <time>2024-08-31T12:59:09Z</time>
      </trkpt>
      <trkpt lat="42.70887" lon="1.41245">
        <ele>1276.817</ele>
        <time>2024-08-31T12:59:11Z</time>
      </trkpt>
      <trkpt lat="42.70886" lon="1.41243">
        <ele>1278.117</ele>
        <time>2024-08-31T12:59:13Z</time>
      </trkpt>
      <trkpt lat="42.70886" lon="1.41241">
        <ele>1277.952</ele>
        <time>2024-08-31T12:59:15Z</time>
      </trkpt>
      <trkpt lat="42.70887" lon="1.41239">
        <ele>1278.281</ele>
        <time>2024-08-31T12:59:17Z</time>
      </trkpt>
      <trkpt lat="42.70887" lon="1.41236">
        <ele>1278.872</ele>
        <time>2024-08-31T12:59:19Z</time>
      </trkpt>
      <trkpt lat="42.70888" lon="1.41234">
        <ele>1279.141</ele>
        <time>2024-08-31T12:59:21Z</time>
      </trkpt>
      <trkpt lat="42.70887" lon="1.41232">
        <ele>1278.486</ele>
        <time>2024-08-31T12:59:23Z</time>
      </trkpt>
      <trkpt lat="42.70888" lon="1.4123">
        <ele>1279.829</ele>
        <time>2024-08-31T12:59:25Z</time>
      </trkpt>
      <trkpt lat="42.70889" lon="1.41227">
        <ele>1280.422</ele>
        <time>2024-08-31T12:59:27Z</time>
      </trkpt>
      <trkpt lat="42.7089" lon="1.41225">
        <ele>1281.472</ele>
        <time>2024-08-31T12:59:29Z</time>
      </trkpt>
      <trkpt lat="42.70891" lon="1.41223">
        <ele>1281.206</ele>
        <time>2024-08-31T12:59:31Z</time>
      </trkpt>
      <trkpt lat="42.70892" lon="1.41221">
        <ele>1281.799</ele>
        <time>2024-08-31T12:59:33Z</time>
      </trkpt>
      <trkpt lat="42.70892" lon="1.41219">
        <ele>1280.815</ele>
        <time>2024-08-31T12:59:35Z</time>
      </trkpt>
      <trkpt lat="42.70891" lon="1.41216">
        <ele>1280.946</ele>
        <time>2024-08-31T12:59:37Z</time>
      </trkpt>
      <trkpt lat="42.70891" lon="1.41214">
        <ele>1281.195</ele>
        <time>2024-08-31T12:59:39Z</time>
      </trkpt>
      <trkpt lat="42.70891" lon="1.41212">
        <ele>1281.554</ele>
        <time>2024-08-31T12:59:41Z</time>
      </trkpt>
      <trkpt lat="42.70891" lon="1.4121">
        <ele>1281.958</ele>
        <time>2024-08-31T12:59:43Z</time>
      </trkpt>
      <trkpt lat="42.7089" lon="1.41207">
        <ele>1281.704</ele>
        <time>2024-08-31T12:59:45Z</time>
      </trkpt>
      <trkpt lat="42.70891" lon="1.41203">
        <ele>1283.445</ele>
        <time>2024-08-31T12:59:47Z</time>
      </trkpt>
      <trkpt lat="42.70893" lon="1.41201">
        <ele>1284.397</ele>
        <time>2024-08-31T12:59:49Z</time>
      </trkpt>
      <trkpt lat="42.70895" lon="1.41198">
        <ele>1282.615</ele>
        <time>2024-08-31T12:59:51Z</time>
      </trkpt>
      <trkpt lat="42.70895" lon="1.41195">
        <ele>1283.656</ele>
        <time>2024-08-31T12:59:53Z</time>
      </trkpt>
      <trkpt lat="42.70895" lon="1.41193">
        <ele>1283.243</ele>
        <time>2024-08-31T12:59:55Z</time>
      </trkpt>
      <trkpt lat="42.70895" lon="1.4119">
        <ele>1283.398</ele>
        <time>2024-08-31T12:59:57Z</time>
      </trkpt>
      <trkpt lat="42.70895" lon="1.41188">
        <ele>1283.752</ele>
        <time>2024-08-31T12:59:59Z</time>
      </trkpt>
      <trkpt lat="42.70895" lon="1.41186">
        <ele>1284.087</ele>
        <time>2024-08-31T13:00:01Z</time>
      </trkpt>
      <trkpt lat="42.70895" lon="1.41184">
        <ele>1283.415</ele>
        <time>2024-08-31T13:00:03Z</time>
      </trkpt>
      <trkpt lat="42.70894" lon="1.41182">
        <ele>1283.38</ele>
        <time>2024-08-31T13:00:05Z</time>
      </trkpt>
      <trkpt lat="42.70895" lon="1.41179">
        <ele>1284.363</ele>
        <time>2024-08-31T13:00:07Z</time>
      </trkpt>
      <trkpt lat="42.70895" lon="1.41176">
        <ele>1283.782</ele>
        <time>2024-08-31T13:00:09Z</time>
      </trkpt>
      <trkpt lat="42.70894" lon="1.41174">
        <ele>1284.591</ele>
        <time>2024-08-31T13:00:11Z</time>
      </trkpt>
      <trkpt lat="42.70895" lon="1.4117">
        <ele>1284.263</ele>
        <time>2024-08-31T13:00:13Z</time>
      </trkpt>
      <trkpt lat="42.70895" lon="1.41167">
        <ele>1283.562</ele>
        <time>2024-08-31T13:00:15Z</time>
      </trkpt>
      <trkpt lat="42.70897" lon="1.41163">
        <ele>1284.606</ele>
        <time>2024-08-31T13:00:17Z</time>
      </trkpt>
      <trkpt lat="42.70897" lon="1.4116">
        <ele>1285.51</ele>
        <time>2024-08-31T13:00:19Z</time>
      </trkpt>
      <trkpt lat="42.70897" lon="1.41158">
        <ele>1284.561</ele>
        <time>2024-08-31T13:00:21Z</time>
      </trkpt>
      <trkpt lat="42.70898" lon="1.41155">
        <ele>1284.216</ele>
        <time>2024-08-31T13:00:23Z</time>
      </trkpt>
      <trkpt lat="42.70898" lon="1.41152">
        <ele>1282.67</ele>
        <time>2024-08-31T13:00:25Z</time>
      </trkpt>
      <trkpt lat="42.70899" lon="1.4115">
        <ele>1283</ele>
        <time>2024-08-31T13:00:27Z</time>
      </trkpt>
      <trkpt lat="42.709" lon="1.41147">
        <ele>1282.559</ele>
        <time>2024-08-31T13:00:29Z</time>
      </trkpt>
      <trkpt lat="42.70901" lon="1.41144">
        <ele>1282.795</ele>
        <time>2024-08-31T13:00:31Z</time>
      </trkpt>
      <trkpt lat="42.70902" lon="1.41142">
        <ele>1282.239</ele>
        <time>2024-08-31T13:00:33Z</time>
      </trkpt>
      <trkpt lat="42.70903" lon="1.41139">
        <ele>1282.106</ele>
        <time>2024-08-31T13:00:35Z</time>
      </trkpt>
      <trkpt lat="42.70904" lon="1.41136">
        <ele>1281.349</ele>
        <time>2024-08-31T13:00:37Z</time>
      </trkpt>
      <trkpt lat="42.70906" lon="1.41134">
        <ele>1281.523</ele>
        <time>2024-08-31T13:00:39Z</time>
      </trkpt>
      <trkpt lat="42.70907" lon="1.41131">
        <ele>1281.809</ele>
        <time>2024-08-31T13:00:41Z</time>
      </trkpt>
      <trkpt lat="42.70907" lon="1.41129">
        <ele>1281.144</ele>
        <time>2024-08-31T13:00:43Z</time>
      </trkpt>
      <trkpt lat="42.70909" lon="1.41126">
        <ele>1282.253</ele>
        <time>2024-08-31T13:00:45Z</time>
      </trkpt>
      <trkpt lat="42.7091" lon="1.41124">
        <ele>1282.109</ele>
        <time>2024-08-31T13:00:47Z</time>
      </trkpt>
      <trkpt lat="42.70912" lon="1.41121">
        <ele>1282.59</ele>
        <time>2024-08-31T13:00:49Z</time>
      </trkpt>
      <trkpt lat="42.70913" lon="1.41118">
        <ele>1283.006</ele>
        <time>2024-08-31T13:00:51Z</time>
      </trkpt>
      <trkpt lat="42.70914" lon="1.41115">
        <ele>1282.384</ele>
        <time>2024-08-31T13:00:53Z</time>
      </trkpt>
      <trkpt lat="42.70915" lon="1.41113">
        <ele>1282.394</ele>
        <time>2024-08-31T13:00:55Z</time>
      </trkpt>
      <trkpt lat="42.70917" lon="1.4111">
        <ele>1281.632</ele>
        <time>2024-08-31T13:00:57Z</time>
      </trkpt>
      <trkpt lat="42.70918" lon="1.41107">
        <ele>1282.035</ele>
        <time>2024-08-31T13:00:59Z</time>
      </trkpt>
      <trkpt lat="42.70918" lon="1.41104">
        <ele>1281.283</ele>
        <time>2024-08-31T13:01:01Z</time>
      </trkpt>
      <trkpt lat="42.70919" lon="1.41102">
        <ele>1282.087</ele>
        <time>2024-08-31T13:01:03Z</time>
      </trkpt>
      <trkpt lat="42.70919" lon="1.41099">
        <ele>1283.006</ele>
        <time>2024-08-31T13:01:05Z</time>
      </trkpt>
      <trkpt lat="42.70919" lon="1.41097">
        <ele>1281.615</ele>
        <time>2024-08-31T13:01:07Z</time>
      </trkpt>
      <trkpt lat="42.70918" lon="1.41093">
        <ele>1282.285</ele>
        <time>2024-08-31T13:01:09Z</time>
      </trkpt>
      <trkpt lat="42.70917" lon="1.4109">
        <ele>1281.788</ele>
        <time>2024-08-31T13:01:11Z</time>
      </trkpt>
      <trkpt lat="42.70916" lon="1.41088">
        <ele>1281.529</ele>
        <time>2024-08-31T13:01:13Z</time>
      </trkpt>
      <trkpt lat="42.70915" lon="1.41085">
        <ele>1282.285</ele>
        <time>2024-08-31T13:01:15Z</time>
      </trkpt>
      <trkpt lat="42.70915" lon="1.41082">
        <ele>1282.176</ele>
        <time>2024-08-31T13:01:17Z</time>
      </trkpt>
      <trkpt lat="42.70916" lon="1.41079">
        <ele>1282.147</ele>
        <time>2024-08-31T13:01:19Z</time>
      </trkpt>
      <trkpt lat="42.70916" lon="1.41077">
        <ele>1282.648</ele>
        <time>2024-08-31T13:01:21Z</time>
      </trkpt>
      <trkpt lat="42.70916" lon="1.41074">
        <ele>1283.148</ele>
        <time>2024-08-31T13:01:23Z</time>
      </trkpt>
      <trkpt lat="42.70915" lon="1.41072">
        <ele>1284.101</ele>
        <time>2024-08-31T13:01:25Z</time>
      </trkpt>
      <trkpt lat="42.70914" lon="1.4107">
        <ele>1285.142</ele>
        <time>2024-08-31T13:01:27Z</time>
      </trkpt>
      <trkpt lat="42.70912" lon="1.41068">
        <ele>1285.025</ele>
        <time>2024-08-31T13:01:29Z</time>
      </trkpt>
      <trkpt lat="42.70909" lon="1.41065">
        <ele>1285.212</ele>
        <time>2024-08-31T13:01:31Z</time>
      </trkpt>
      <trkpt lat="42.70908" lon="1.41061">
        <ele>1284.885</ele>
        <time>2024-08-31T13:01:33Z</time>
      </trkpt>
      <trkpt lat="42.70907" lon="1.4106">
        <ele>1285.279</ele>
        <time>2024-08-31T13:01:35Z</time>
      </trkpt>
      <trkpt lat="42.70907" lon="1.41057">
        <ele>1285.861</ele>
        <time>2024-08-31T13:01:37Z</time>
      </trkpt>
      <trkpt lat="42.70906" lon="1.41054">
        <ele>1285.78</ele>
        <time>2024-08-31T13:01:39Z</time>
      </trkpt>
      <trkpt lat="42.70905" lon="1.41052">
        <ele>1286.092</ele>
        <time>2024-08-31T13:01:41Z</time>
      </trkpt>
      <trkpt lat="42.70904" lon="1.4105">
        <ele>1287.763</ele>
        <time>2024-08-31T13:01:43Z</time>
      </trkpt>
      <trkpt lat="42.70903" lon="1.41047">
        <ele>1288.066</ele>
        <time>2024-08-31T13:01:45Z</time>
      </trkpt>
      <trkpt lat="42.70901" lon="1.41045">
        <ele>1288.661</ele>
        <time>2024-08-31T13:01:47Z</time>
      </trkpt>
      <trkpt lat="42.70899" lon="1.41043">
        <ele>1289.018</ele>
        <time>2024-08-31T13:01:49Z</time>
      </trkpt>
      <trkpt lat="42.70898" lon="1.41041">
        <ele>1288.794</ele>
        <time>2024-08-31T13:01:51Z</time>
      </trkpt>
      <trkpt lat="42.70896" lon="1.41038">
        <ele>1289.224</ele>
        <time>2024-08-31T13:01:53Z</time>
      </trkpt>
      <trkpt lat="42.70895" lon="1.41034">
        <ele>1286.867</ele>
        <time>2024-08-31T13:01:55Z</time>
      </trkpt>
      <trkpt lat="42.70894" lon="1.41031">
        <ele>1288.338</ele>
        <time>2024-08-31T13:01:57Z</time>
      </trkpt>
      <trkpt lat="42.70894" lon="1.41029">
        <ele>1289.863</ele>
        <time>2024-08-31T13:01:59Z</time>
      </trkpt>
      <trkpt lat="42.70893" lon="1.41026">
        <ele>1291.202</ele>
        <time>2024-08-31T13:02:01Z</time>
      </trkpt>
      <trkpt lat="42.70893" lon="1.41025">
        <ele>1288.57</ele>
        <time>2024-08-31T13:02:03Z</time>
      </trkpt>
      <trkpt lat="42.70892" lon="1.41024">
        <ele>1288.262</ele>
        <time>2024-08-31T13:02:05Z</time>
      </trkpt>
      <trkpt lat="42.70892" lon="1.41022">
        <ele>1288.434</ele>
        <time>2024-08-31T13:02:07Z</time>
      </trkpt>
      <trkpt lat="42.70892" lon="1.4102">
        <ele>1287.928</ele>
        <time>2024-08-31T13:02:09Z</time>
      </trkpt>
      <trkpt lat="42.70893" lon="1.41017">
        <ele>1288.607</ele>
        <time>2024-08-31T13:02:11Z</time>
      </trkpt>
      <trkpt lat="42.70893" lon="1.41015">
        <ele>1288.531</ele>
        <time>2024-08-31T13:02:13Z</time>
      </trkpt>
      <trkpt lat="42.70893" lon="1.41013">
        <ele>1288.249</ele>
        <time>2024-08-31T13:02:15Z</time>
      </trkpt>
      <trkpt lat="42.70892" lon="1.4101">
        <ele>1288.917</ele>
        <time>2024-08-31T13:02:17Z</time>
      </trkpt>
      <trkpt lat="42.70892" lon="1.41008">
        <ele>1288.556</ele>
        <time>2024-08-31T13:02:19Z</time>
      </trkpt>
      <trkpt lat="42.70891" lon="1.41006">
        <ele>1288.617</ele>
        <time>2024-08-31T13:02:21Z</time>
      </trkpt>
      <trkpt lat="42.7089" lon="1.41004">
        <ele>1288.034</ele>
        <time>2024-08-31T13:02:23Z</time>
      </trkpt>
      <trkpt lat="42.70889" lon="1.41001">
        <ele>1286.277</ele>
        <time>2024-08-31T13:02:25Z</time>
      </trkpt>
      <trkpt lat="42.7089" lon="1.40998">
        <ele>1286.409</ele>
        <time>2024-08-31T13:02:27Z</time>
      </trkpt>
      <trkpt lat="42.7089" lon="1.40996">
        <ele>1287.807</ele>
        <time>2024-08-31T13:02:29Z</time>
      </trkpt>
      <trkpt lat="42.70889" lon="1.40993">
        <ele>1286.515</ele>
        <time>2024-08-31T13:02:31Z</time>
      </trkpt>
      <trkpt lat="42.70888" lon="1.40991">
        <ele>1285.906</ele>
        <time>2024-08-31T13:02:33Z</time>
      </trkpt>
      <trkpt lat="42.70888" lon="1.40989">
        <ele>1285.099</ele>
        <time>2024-08-31T13:02:35Z</time>
      </trkpt>
      <trkpt lat="42.70888" lon="1.40987">
        <ele>1283.946</ele>
        <time>2024-08-31T13:02:37Z</time>
      </trkpt>
      <trkpt lat="42.70888" lon="1.40984">
        <ele>1282.676</ele>
        <time>2024-08-31T13:02:39Z</time>
      </trkpt>
      <trkpt lat="42.70887" lon="1.40982">
        <ele>1281.952</ele>
        <time>2024-08-31T13:02:41Z</time>
      </trkpt>
      <trkpt lat="42.70886" lon="1.4098">
        <ele>1281.803</ele>
        <time>2024-08-31T13:02:43Z</time>
      </trkpt>
      <trkpt lat="42.70886" lon="1.40977">
        <ele>1281.469</ele>
        <time>2024-08-31T13:02:45Z</time>
      </trkpt>
      <trkpt lat="42.70886" lon="1.40974">
        <ele>1280.606</ele>
        <time>2024-08-31T13:02:47Z</time>
      </trkpt>
      <trkpt lat="42.70886" lon="1.40971">
        <ele>1280.607</ele>
        <time>2024-08-31T13:02:49Z</time>
      </trkpt>
      <trkpt lat="42.70886" lon="1.40968">
        <ele>1281.047</ele>
        <time>2024-08-31T13:02:51Z</time>
      </trkpt>
      <trkpt lat="42.70886" lon="1.40965">
        <ele>1281.571</ele>
        <time>2024-08-31T13:02:53Z</time>
      </trkpt>
      <trkpt lat="42.70885" lon="1.40963">
        <ele>1280.721</ele>
        <time>2024-08-31T13:02:55Z</time>
      </trkpt>
      <trkpt lat="42.70884" lon="1.4096">
        <ele>1281.506</ele>
        <time>2024-08-31T13:02:57Z</time>
      </trkpt>
      <trkpt lat="42.70884" lon="1.40957">
        <ele>1281.031</ele>
        <time>2024-08-31T13:02:59Z</time>
      </trkpt>
      <trkpt lat="42.70884" lon="1.40955">
        <ele>1281.794</ele>
        <time>2024-08-31T13:03:01Z</time>
      </trkpt>
      <trkpt lat="42.70883" lon="1.40952">
        <ele>1280.856</ele>
        <time>2024-08-31T13:03:03Z</time>
      </trkpt>
      <trkpt lat="42.70882" lon="1.40949">
        <ele>1280.845</ele>
        <time>2024-08-31T13:03:05Z</time>
      </trkpt>
      <trkpt lat="42.70881" lon="1.40946">
        <ele>1281.722</ele>
        <time>2024-08-31T13:03:07Z</time>
      </trkpt>
      <trkpt lat="42.70879" lon="1.40944">
        <ele>1281.679</ele>
        <time>2024-08-31T13:03:09Z</time>
      </trkpt>
      <trkpt lat="42.70878" lon="1.40942">
        <ele>1281.503</ele>
        <time>2024-08-31T13:03:11Z</time>
      </trkpt>
      <trkpt lat="42.70877" lon="1.4094">
        <ele>1279.333</ele>
        <time>2024-08-31T13:03:13Z</time>
      </trkpt>
      <trkpt lat="42.70876" lon="1.40939">
        <ele>1276.95</ele>
        <time>2024-08-31T13:03:15Z</time>
      </trkpt>
      <trkpt lat="42.70875" lon="1.40937">
        <ele>1275.707</ele>
        <time>2024-08-31T13:03:17Z</time>
      </trkpt>
      <trkpt lat="42.70874" lon="1.40935">
        <ele>1275.43</ele>
        <time>2024-08-31T13:03:19Z</time>
      </trkpt>
      <trkpt lat="42.70874" lon="1.40933">
        <ele>1276.488</ele>
        <time>2024-08-31T13:03:21Z</time>
      </trkpt>
      <trkpt lat="42.70873" lon="1.40931">
        <ele>1275.331</ele>
        <time>2024-08-31T13:03:23Z</time>
      </trkpt>
      <trkpt lat="42.70872" lon="1.40929">
        <ele>1275.302</ele>
        <time>2024-08-31T13:03:25Z</time>
      </trkpt>
      <trkpt lat="42.70871" lon="1.40927">
        <ele>1275.499</ele>
        <time>2024-08-31T13:03:27Z</time>
      </trkpt>
      <trkpt lat="42.7087" lon="1.40924">
        <ele>1276.052</ele>
        <time>2024-08-31T13:03:29Z</time>
      </trkpt>
      <trkpt lat="42.70869" lon="1.40923">
        <ele>1276.973</ele>
        <time>2024-08-31T13:03:31Z</time>
      </trkpt>
      <trkpt lat="42.70869" lon="1.40921">
        <ele>1276.694</ele>
        <time>2024-08-31T13:03:33Z</time>
      </trkpt>
      <trkpt lat="42.70869" lon="1.40918">
        <ele>1276.097</ele>
        <time>2024-08-31T13:03:35Z</time>
      </trkpt>
      <trkpt lat="42.70869" lon="1.40916">
        <ele>1276.969</ele>
        <time>2024-08-31T13:03:37Z</time>
      </trkpt>
      <trkpt lat="42.70869" lon="1.40914">
        <ele>1277.209</ele>
        <time>2024-08-31T13:03:39Z</time>
      </trkpt>
      <trkpt lat="42.70868" lon="1.40912">
        <ele>1277.839</ele>
        <time>2024-08-31T13:03:41Z</time>
      </trkpt>
      <trkpt lat="42.70868" lon="1.4091">
        <ele>1277.748</ele>
        <time>2024-08-31T13:03:43Z</time>
      </trkpt>
      <trkpt lat="42.70868" lon="1.40908">
        <ele>1277.735</ele>
        <time>2024-08-31T13:03:45Z</time>
      </trkpt>
      <trkpt lat="42.70867" lon="1.40906">
        <ele>1280.618</ele>
        <time>2024-08-31T13:03:47Z</time>
      </trkpt>
      <trkpt lat="42.70866" lon="1.40904">
        <ele>1279.994</ele>
        <time>2024-08-31T13:03:49Z</time>
      </trkpt>
      <trkpt lat="42.70865" lon="1.40902">
        <ele>1280.525</ele>
        <time>2024-08-31T13:03:51Z</time>
      </trkpt>
      <trkpt lat="42.70864" lon="1.409">
        <ele>1279.861</ele>
        <time>2024-08-31T13:03:53Z</time>
      </trkpt>
      <trkpt lat="42.70863" lon="1.40898">
        <ele>1279.698</ele>
        <time>2024-08-31T13:03:55Z</time>
      </trkpt>
      <trkpt lat="42.70862" lon="1.40895">
        <ele>1278.431</ele>
        <time>2024-08-31T13:03:57Z</time>
      </trkpt>
      <trkpt lat="42.70861" lon="1.40893">
        <ele>1277.732</ele>
        <time>2024-08-31T13:03:59Z</time>
      </trkpt>
      <trkpt lat="42.70859" lon="1.40892">
        <ele>1277.524</ele>
        <time>2024-08-31T13:04:01Z</time>
      </trkpt>
      <trkpt lat="42.70857" lon="1.4089">
        <ele>1275.881</ele>
        <time>2024-08-31T13:04:03Z</time>
      </trkpt>
      <trkpt lat="42.70857" lon="1.40886">
        <ele>1276.924</ele>
        <time>2024-08-31T13:04:05Z</time>
      </trkpt>
      <trkpt lat="42.70858" lon="1.40886">
        <ele>1276.937</ele>
        <time>2024-08-31T13:04:07Z</time>
      </trkpt>
      <trkpt lat="42.70858" lon="1.40886">
        <ele>1276.945</ele>
        <time>2024-08-31T13:04:09Z</time>
      </trkpt>
      <trkpt lat="42.70858" lon="1.40886">
        <ele>1276.915</ele>
        <time>2024-08-31T13:04:11Z</time>
      </trkpt>
      <trkpt lat="42.70858" lon="1.40886">
        <ele>1276.921</ele>
        <time>2024-08-31T13:04:13Z</time>
      </trkpt>
      <trkpt lat="42.70861" lon="1.40884">
        <ele>1276.777</ele>
        <time>2024-08-31T13:04:15Z</time>
      </trkpt>
      <trkpt lat="42.70861" lon="1.40884">
        <ele>1277.115</ele>
        <time>2024-08-31T13:04:17Z</time>
      </trkpt>
      <trkpt lat="42.70861" lon="1.40884">
        <ele>1276.731</ele>
        <time>2024-08-31T13:04:19Z</time>
      </trkpt>
      <trkpt lat="42.70861" lon="1.40884">
        <ele>1276.728</ele>
        <time>2024-08-31T13:04:21Z</time>
      </trkpt>
      <trkpt lat="42.70861" lon="1.40884">
        <ele>1276.706</ele>
        <time>2024-08-31T13:04:23Z</time>
      </trkpt>
      <trkpt lat="42.70861" lon="1.40884">
        <ele>1277.152</ele>
        <time>2024-08-31T13:04:25Z</time>
      </trkpt>
      <trkpt lat="42.70861" lon="1.40884">
        <ele>1278.137</ele>
        <time>2024-08-31T13:04:27Z</time>
      </trkpt>
      <trkpt lat="42.70861" lon="1.40884">
        <ele>1277.875</ele>
        <time>2024-08-31T13:04:29Z</time>
      </trkpt>
      <trkpt lat="42.70861" lon="1.40884">
        <ele>1277.852</ele>
        <time>2024-08-31T13:04:31Z</time>
      </trkpt>
      <trkpt lat="42.70861" lon="1.40884">
        <ele>1277.857</ele>
        <time>2024-08-31T13:04:33Z</time>
      </trkpt>
      <trkpt lat="42.70861" lon="1.40884">
        <ele>1277.853</ele>
        <time>2024-08-31T13:04:35Z</time>
      </trkpt>
      <trkpt lat="42.70861" lon="1.40884">
        <ele>1277.858</ele>
        <time>2024-08-31T13:04:37Z</time>
      </trkpt>
      <trkpt lat="42.70861" lon="1.40884">
        <ele>1277.868</ele>
        <time>2024-08-31T13:04:39Z</time>
      </trkpt>
      <trkpt lat="42.70861" lon="1.40884">
        <ele>1277.864</ele>
        <time>2024-08-31T13:04:41Z</time>
      </trkpt>
      <trkpt lat="42.70861" lon="1.40884">
        <ele>1277.657</ele>
        <time>2024-08-31T13:04:43Z</time>
      </trkpt>
      <trkpt lat="42.70861" lon="1.40884">
        <ele>1277.622</ele>
        <time>2024-08-31T13:04:45Z</time>
      </trkpt>
      <trkpt lat="42.70861" lon="1.40884">
        <ele>1277.516</ele>
        <time>2024-08-31T13:04:47Z</time>
      </trkpt>
      <trkpt lat="42.70861" lon="1.40884">
        <ele>1276.517</ele>
        <time>2024-08-31T13:04:49Z</time>
      </trkpt>
      <trkpt lat="42.70861" lon="1.40884">
        <ele>1276.535</ele>
        <time>2024-08-31T13:04:51Z</time>
      </trkpt>
      <trkpt lat="42.70861" lon="1.40884">
        <ele>1276.545</ele>
        <time>2024-08-31T13:04:53Z</time>
      </trkpt>
      <trkpt lat="42.70861" lon="1.40884">
        <ele>1276.541</ele>
        <time>2024-08-31T13:04:55Z</time>
      </trkpt>
      <trkpt lat="42.70861" lon="1.40884">
        <ele>1276.54</ele>
        <time>2024-08-31T13:04:57Z</time>
      </trkpt>
      <trkpt lat="42.70861" lon="1.40884">
        <ele>1276.543</ele>
        <time>2024-08-31T13:04:59Z</time>
      </trkpt>
      <trkpt lat="42.70861" lon="1.40884">
        <ele>1276.548</ele>
        <time>2024-08-31T13:05:01Z</time>
      </trkpt>
      <trkpt lat="42.70861" lon="1.40884">
        <ele>1276.543</ele>
        <time>2024-08-31T13:05:03Z</time>
      </trkpt>
      <trkpt lat="42.70861" lon="1.40884">
        <ele>1276.55</ele>
        <time>2024-08-31T13:05:05Z</time>
      </trkpt>
      <trkpt lat="42.70861" lon="1.40884">
        <ele>1276.549</ele>
        <time>2024-08-31T13:05:07Z</time>
      </trkpt>
      <trkpt lat="42.70861" lon="1.40884">
        <ele>1276.052</ele>
        <time>2024-08-31T13:05:09Z</time>
      </trkpt>
      <trkpt lat="42.70861" lon="1.40884">
        <ele>1276.073</ele>
        <time>2024-08-31T13:05:11Z</time>
      </trkpt>
      <trkpt lat="42.70861" lon="1.40884">
        <ele>1276.086</ele>
        <time>2024-08-31T13:05:13Z</time>
      </trkpt>
      <trkpt lat="42.70861" lon="1.40884">
        <ele>1276.087</ele>
        <time>2024-08-31T13:05:15Z</time>
      </trkpt>
      <trkpt lat="42.70861" lon="1.40884">
        <ele>1276.1</ele>
        <time>2024-08-31T13:05:17Z</time>
      </trkpt>
      <trkpt lat="42.70861" lon="1.40884">
        <ele>1276.009</ele>
        <time>2024-08-31T13:05:19Z</time>
      </trkpt>
      <trkpt lat="42.70861" lon="1.40884">
        <ele>1276.014</ele>
        <time>2024-08-31T13:05:21Z</time>
      </trkpt>
      <trkpt lat="42.70861" lon="1.40884">
        <ele>1276.017</ele>
        <time>2024-08-31T13:05:23Z</time>
      </trkpt>
      <trkpt lat="42.70861" lon="1.40884">
        <ele>1276.024</ele>
        <time>2024-08-31T13:05:25Z</time>
      </trkpt>
      <trkpt lat="42.70861" lon="1.40884">
        <ele>1276.024</ele>
        <time>2024-08-31T13:05:27Z</time>
      </trkpt>
      <trkpt lat="42.70861" lon="1.40884">
        <ele>1276.017</ele>
        <time>2024-08-31T13:05:29Z</time>
      </trkpt>
      <trkpt lat="42.70861" lon="1.40884">
        <ele>1276.01</ele>
        <time>2024-08-31T13:05:31Z</time>
      </trkpt>
      <trkpt lat="42.70861" lon="1.40884">
        <ele>1276.01</ele>
        <time>2024-08-31T13:05:33Z</time>
      </trkpt>
      <trkpt lat="42.70861" lon="1.40884">
        <ele>1276.007</ele>
        <time>2024-08-31T13:05:35Z</time>
      </trkpt>
      <trkpt lat="42.70861" lon="1.40884">
        <ele>1276.007</ele>
        <time>2024-08-31T13:05:37Z</time>
      </trkpt>
      <trkpt lat="42.70861" lon="1.40884">
        <ele>1276.006</ele>
        <time>2024-08-31T13:05:39Z</time>
      </trkpt>
      <trkpt lat="42.70861" lon="1.40884">
        <ele>1275.999</ele>
        <time>2024-08-31T13:05:41Z</time>
      </trkpt>
      <trkpt lat="42.70861" lon="1.40884">
        <ele>1275.722</ele>
        <time>2024-08-31T13:05:43Z</time>
      </trkpt>
      <trkpt lat="42.70861" lon="1.40884">
        <ele>1275.719</ele>
        <time>2024-08-31T13:05:45Z</time>
      </trkpt>
      <trkpt lat="42.70861" lon="1.40884">
        <ele>1275.715</ele>
        <time>2024-08-31T13:05:47Z</time>
      </trkpt>
      <trkpt lat="42.70861" lon="1.40884">
        <ele>1275.712</ele>
        <time>2024-08-31T13:05:49Z</time>
      </trkpt>
      <trkpt lat="42.70861" lon="1.40884">
        <ele>1275.718</ele>
        <time>2024-08-31T13:05:51Z</time>
      </trkpt>
      <trkpt lat="42.70861" lon="1.40884">
        <ele>1275.724</ele>
        <time>2024-08-31T13:05:53Z</time>
      </trkpt>
      <trkpt lat="42.70861" lon="1.40884">
        <ele>1275.732</ele>
        <time>2024-08-31T13:05:55Z</time>
      </trkpt>
      <trkpt lat="42.70861" lon="1.40884">
        <ele>1275.737</ele>
        <time>2024-08-31T13:05:57Z</time>
      </trkpt>
      <trkpt lat="42.70861" lon="1.40884">
        <ele>1275.734</ele>
        <time>2024-08-31T13:05:59Z</time>
      </trkpt>
      <trkpt lat="42.70861" lon="1.40884">
        <ele>1275.721</ele>
        <time>2024-08-31T13:06:01Z</time>
      </trkpt>
      <trkpt lat="42.70861" lon="1.40884">
        <ele>1275.701</ele>
        <time>2024-08-31T13:06:03Z</time>
      </trkpt>
      <trkpt lat="42.70861" lon="1.40884">
        <ele>1275.682</ele>
        <time>2024-08-31T13:06:05Z</time>
      </trkpt>
      <trkpt lat="42.70861" lon="1.40884">
        <ele>1275.673</ele>
        <time>2024-08-31T13:06:07Z</time>
      </trkpt>
      <trkpt lat="42.70861" lon="1.40884">
        <ele>1275.66</ele>
        <time>2024-08-31T13:06:09Z</time>
      </trkpt>
      <trkpt lat="42.70861" lon="1.40884">
        <ele>1275.658</ele>
        <time>2024-08-31T13:06:11Z</time>
      </trkpt>
      <trkpt lat="42.70861" lon="1.40884">
        <ele>1275.651</ele>
        <time>2024-08-31T13:06:13Z</time>
      </trkpt>
      <trkpt lat="42.70861" lon="1.40884">
        <ele>1275.638</ele>
        <time>2024-08-31T13:06:15Z</time>
      </trkpt>
      <trkpt lat="42.70861" lon="1.40884">
        <ele>1275.614</ele>
        <time>2024-08-31T13:06:17Z</time>
      </trkpt>
      <trkpt lat="42.70861" lon="1.40884">
        <ele>1275.6</ele>
        <time>2024-08-31T13:06:19Z</time>
      </trkpt>
      <trkpt lat="42.70861" lon="1.40884">
        <ele>1275.594</ele>
        <time>2024-08-31T13:06:21Z</time>
      </trkpt>
      <trkpt lat="42.70861" lon="1.40884">
        <ele>1275.585</ele>
        <time>2024-08-31T13:06:23Z</time>
      </trkpt>
      <trkpt lat="42.70861" lon="1.40884">
        <ele>1275.583</ele>
        <time>2024-08-31T13:06:25Z</time>
      </trkpt>
      <trkpt lat="42.70861" lon="1.40884">
        <ele>1275.591</ele>
        <time>2024-08-31T13:06:27Z</time>
      </trkpt>
      <trkpt lat="42.70861" lon="1.40884">
        <ele>1275.603</ele>
        <time>2024-08-31T13:06:29Z</time>
      </trkpt>
      <trkpt lat="42.70861" lon="1.40884">
        <ele>1275.613</ele>
        <time>2024-08-31T13:06:31Z</time>
      </trkpt>
      <trkpt lat="42.70861" lon="1.40884">
        <ele>1275.625</ele>
        <time>2024-08-31T13:06:33Z</time>
      </trkpt>
      <trkpt lat="42.70861" lon="1.40884">
        <ele>1275.62</ele>
        <time>2024-08-31T13:06:35Z</time>
      </trkpt>
      <trkpt lat="42.70861" lon="1.40884">
        <ele>1275.326</ele>
        <time>2024-08-31T13:06:37Z</time>
      </trkpt>
      <trkpt lat="42.70861" lon="1.40884">
        <ele>1275.315</ele>
        <time>2024-08-31T13:06:39Z</time>
      </trkpt>
      <trkpt lat="42.70861" lon="1.40884">
        <ele>1275.305</ele>
        <time>2024-08-31T13:06:41Z</time>
      </trkpt>
      <trkpt lat="42.70861" lon="1.40884">
        <ele>1275.299</ele>
        <time>2024-08-31T13:06:43Z</time>
      </trkpt>
      <trkpt lat="42.70861" lon="1.40884">
        <ele>1275.298</ele>
        <time>2024-08-31T13:06:45Z</time>
      </trkpt>
      <trkpt lat="42.70861" lon="1.40884">
        <ele>1275.286</ele>
        <time>2024-08-31T13:06:47Z</time>
      </trkpt>
      <trkpt lat="42.70861" lon="1.40884">
        <ele>1275.277</ele>
        <time>2024-08-31T13:06:49Z</time>
      </trkpt>
      <trkpt lat="42.70861" lon="1.40884">
        <ele>1274.825</ele>
        <time>2024-08-31T13:06:51Z</time>
      </trkpt>
      <trkpt lat="42.70861" lon="1.40884">
        <ele>1274.822</ele>
        <time>2024-08-31T13:06:53Z</time>
      </trkpt>
      <trkpt lat="42.70861" lon="1.40884">
        <ele>1274.813</ele>
        <time>2024-08-31T13:06:55Z</time>
      </trkpt>
      <trkpt lat="42.70861" lon="1.40884">
        <ele>1274.81</ele>
        <time>2024-08-31T13:06:57Z</time>
      </trkpt>
      <trkpt lat="42.70861" lon="1.40884">
        <ele>1274.803</ele>
        <time>2024-08-31T13:06:59Z</time>
      </trkpt>
      <trkpt lat="42.70861" lon="1.40884">
        <ele>1274.779</ele>
        <time>2024-08-31T13:07:01Z</time>
      </trkpt>
      <trkpt lat="42.70861" lon="1.40884">
        <ele>1274.783</ele>
        <time>2024-08-31T13:07:03Z</time>
      </trkpt>
      <trkpt lat="42.70861" lon="1.40884">
        <ele>1274.775</ele>
        <time>2024-08-31T13:07:05Z</time>
      </trkpt>
      <trkpt lat="42.70861" lon="1.40884">
        <ele>1274.769</ele>
        <time>2024-08-31T13:07:07Z</time>
      </trkpt>
      <trkpt lat="42.70861" lon="1.40884">
        <ele>1274.781</ele>
        <time>2024-08-31T13:07:09Z</time>
      </trkpt>
      <trkpt lat="42.70861" lon="1.40884">
        <ele>1274.803</ele>
        <time>2024-08-31T13:07:11Z</time>
      </trkpt>
      <trkpt lat="42.70861" lon="1.40884">
        <ele>1275.456</ele>
        <time>2024-08-31T13:07:13Z</time>
      </trkpt>
      <trkpt lat="42.70861" lon="1.40884">
        <ele>1274.652</ele>
        <time>2024-08-31T13:07:15Z</time>
      </trkpt>
      <trkpt lat="42.70861" lon="1.40884">
        <ele>1273.978</ele>
        <time>2024-08-31T13:07:17Z</time>
      </trkpt>
      <trkpt lat="42.70861" lon="1.40884">
        <ele>1274.104</ele>
        <time>2024-08-31T13:07:19Z</time>
      </trkpt>
      <trkpt lat="42.70861" lon="1.40884">
        <ele>1274.095</ele>
        <time>2024-08-31T13:07:21Z</time>
      </trkpt>
      <trkpt lat="42.70861" lon="1.40884">
        <ele>1274.075</ele>
        <time>2024-08-31T13:07:23Z</time>
      </trkpt>
      <trkpt lat="42.70861" lon="1.40884">
        <ele>1274.102</ele>
        <time>2024-08-31T13:07:25Z</time>
      </trkpt>
      <trkpt lat="42.70861" lon="1.40884">
        <ele>1274.103</ele>
        <time>2024-08-31T13:07:27Z</time>
      </trkpt>
      <trkpt lat="42.70861" lon="1.40884">
        <ele>1274.101</ele>
        <time>2024-08-31T13:07:29Z</time>
      </trkpt>
      <trkpt lat="42.70861" lon="1.40884">
        <ele>1274.104</ele>
        <time>2024-08-31T13:07:31Z</time>
      </trkpt>
      <trkpt lat="42.70861" lon="1.40884">
        <ele>1274.111</ele>
        <time>2024-08-31T13:07:33Z</time>
      </trkpt>
      <trkpt lat="42.70861" lon="1.40884">
        <ele>1274.106</ele>
        <time>2024-08-31T13:07:35Z</time>
      </trkpt>
      <trkpt lat="42.70861" lon="1.40884">
        <ele>1274.107</ele>
        <time>2024-08-31T13:07:37Z</time>
      </trkpt>
      <trkpt lat="42.70861" lon="1.40884">
        <ele>1274.11</ele>
        <time>2024-08-31T13:07:39Z</time>
      </trkpt>
      <trkpt lat="42.70861" lon="1.40884">
        <ele>1274.094</ele>
        <time>2024-08-31T13:07:41Z</time>
      </trkpt>
      <trkpt lat="42.70861" lon="1.40884">
        <ele>1273.774</ele>
        <time>2024-08-31T13:07:43Z</time>
      </trkpt>
      <trkpt lat="42.70861" lon="1.40884">
        <ele>1273.755</ele>
        <time>2024-08-31T13:07:45Z</time>
      </trkpt>
      <trkpt lat="42.70861" lon="1.40884">
        <ele>1273.741</ele>
        <time>2024-08-31T13:07:47Z</time>
      </trkpt>
      <trkpt lat="42.70861" lon="1.40884">
        <ele>1273.717</ele>
        <time>2024-08-31T13:07:49Z</time>
      </trkpt>
      <trkpt lat="42.70861" lon="1.40884">
        <ele>1273.715</ele>
        <time>2024-08-31T13:07:51Z</time>
      </trkpt>
      <trkpt lat="42.70861" lon="1.40884">
        <ele>1273.724</ele>
        <time>2024-08-31T13:07:53Z</time>
      </trkpt>
      <trkpt lat="42.70861" lon="1.40884">
        <ele>1273.716</ele>
        <time>2024-08-31T13:07:55Z</time>
      </trkpt>
      <trkpt lat="42.70861" lon="1.40884">
        <ele>1273.719</ele>
        <time>2024-08-31T13:07:57Z</time>
      </trkpt>
      <trkpt lat="42.70861" lon="1.40884">
        <ele>1273.716</ele>
        <time>2024-08-31T13:07:59Z</time>
      </trkpt>
      <trkpt lat="42.70861" lon="1.40884">
        <ele>1273.713</ele>
        <time>2024-08-31T13:08:01Z</time>
      </trkpt>
      <trkpt lat="42.70861" lon="1.40884">
        <ele>1273.712</ele>
        <time>2024-08-31T13:08:03Z</time>
      </trkpt>
      <trkpt lat="42.70861" lon="1.40884">
        <ele>1273.711</ele>
        <time>2024-08-31T13:08:05Z</time>
      </trkpt>
      <trkpt lat="42.70861" lon="1.40884">
        <ele>1273.715</ele>
        <time>2024-08-31T13:08:07Z</time>
      </trkpt>
      <trkpt lat="42.70861" lon="1.40884">
        <ele>1273.716</ele>
        <time>2024-08-31T13:08:09Z</time>
      </trkpt>
      <trkpt lat="42.70861" lon="1.40884">
        <ele>1273.721</ele>
        <time>2024-08-31T13:08:11Z</time>
      </trkpt>
      <trkpt lat="42.70861" lon="1.40884">
        <ele>1273.726</ele>
        <time>2024-08-31T13:08:13Z</time>
      </trkpt>
      <trkpt lat="42.70861" lon="1.40884">
        <ele>1273.727</ele>
        <time>2024-08-31T13:08:15Z</time>
      </trkpt>
      <trkpt lat="42.70861" lon="1.40884">
        <ele>1273.732</ele>
        <time>2024-08-31T13:08:17Z</time>
      </trkpt>
      <trkpt lat="42.70861" lon="1.40884">
        <ele>1273.728</ele>
        <time>2024-08-31T13:08:19Z</time>
      </trkpt>
      <trkpt lat="42.70861" lon="1.40884">
        <ele>1273.723</ele>
        <time>2024-08-31T13:08:21Z</time>
      </trkpt>
      <trkpt lat="42.70861" lon="1.40884">
        <ele>1273.721</ele>
        <time>2024-08-31T13:08:23Z</time>
      </trkpt>
      <trkpt lat="42.70861" lon="1.40884">
        <ele>1273.717</ele>
        <time>2024-08-31T13:08:25Z</time>
      </trkpt>
      <trkpt lat="42.70861" lon="1.40884">
        <ele>1273.722</ele>
        <time>2024-08-31T13:08:27Z</time>
      </trkpt>
      <trkpt lat="42.70861" lon="1.40884">
        <ele>1273.721</ele>
        <time>2024-08-31T13:08:29Z</time>
      </trkpt>
      <trkpt lat="42.70861" lon="1.40884">
        <ele>1273.725</ele>
        <time>2024-08-31T13:08:31Z</time>
      </trkpt>
      <trkpt lat="42.70861" lon="1.40884">
        <ele>1273.73</ele>
        <time>2024-08-31T13:08:33Z</time>
      </trkpt>
      <trkpt lat="42.70861" lon="1.40884">
        <ele>1273.721</ele>
        <time>2024-08-31T13:08:35Z</time>
      </trkpt>
      <trkpt lat="42.70861" lon="1.40884">
        <ele>1273.722</ele>
        <time>2024-08-31T13:08:37Z</time>
      </trkpt>
      <trkpt lat="42.70861" lon="1.40884">
        <ele>1273.728</ele>
        <time>2024-08-31T13:08:39Z</time>
      </trkpt>
      <trkpt lat="42.70861" lon="1.40884">
        <ele>1273.724</ele>
        <time>2024-08-31T13:08:41Z</time>
      </trkpt>
      <trkpt lat="42.70861" lon="1.40884">
        <ele>1273.72</ele>
        <time>2024-08-31T13:08:43Z</time>
      </trkpt>
      <trkpt lat="42.70861" lon="1.40884">
        <ele>1273.592</ele>
        <time>2024-08-31T13:08:45Z</time>
      </trkpt>
      <trkpt lat="42.70861" lon="1.40884">
        <ele>1274.013</ele>
        <time>2024-08-31T13:08:47Z</time>
      </trkpt>
      <trkpt lat="42.70861" lon="1.40884">
        <ele>1274.196</ele>
        <time>2024-08-31T13:08:49Z</time>
      </trkpt>
      <trkpt lat="42.70861" lon="1.40884">
        <ele>1274.396</ele>
        <time>2024-08-31T13:08:51Z</time>
      </trkpt>
      <trkpt lat="42.70861" lon="1.40884">
        <ele>1274.382</ele>
        <time>2024-08-31T13:08:53Z</time>
      </trkpt>
      <trkpt lat="42.70861" lon="1.40884">
        <ele>1274.372</ele>
        <time>2024-08-31T13:08:55Z</time>
      </trkpt>
      <trkpt lat="42.70861" lon="1.40884">
        <ele>1274.367</ele>
        <time>2024-08-31T13:08:57Z</time>
      </trkpt>
      <trkpt lat="42.70861" lon="1.40884">
        <ele>1274.376</ele>
        <time>2024-08-31T13:08:59Z</time>
      </trkpt>
      <trkpt lat="42.70861" lon="1.40884">
        <ele>1274.377</ele>
        <time>2024-08-31T13:09:01Z</time>
      </trkpt>
      <trkpt lat="42.70861" lon="1.40884">
        <ele>1274.379</ele>
        <time>2024-08-31T13:09:03Z</time>
      </trkpt>
      <trkpt lat="42.70861" lon="1.40884">
        <ele>1274.376</ele>
        <time>2024-08-31T13:09:05Z</time>
      </trkpt>
      <trkpt lat="42.70861" lon="1.40884">
        <ele>1274.372</ele>
        <time>2024-08-31T13:09:07Z</time>
      </trkpt>
      <trkpt lat="42.70861" lon="1.40884">
        <ele>1274.059</ele>
        <time>2024-08-31T13:09:09Z</time>
      </trkpt>
      <trkpt lat="42.70861" lon="1.40884">
        <ele>1273.467</ele>
        <time>2024-08-31T13:09:11Z</time>
      </trkpt>
      <trkpt lat="42.7086" lon="1.40883">
        <ele>1272.001</ele>
        <time>2024-08-31T13:09:13Z</time>
      </trkpt>
      <trkpt lat="42.70859" lon="1.4088">
        <ele>1272.628</ele>
        <time>2024-08-31T13:09:15Z</time>
      </trkpt>
      <trkpt lat="42.70859" lon="1.40878">
        <ele>1273.417</ele>
        <time>2024-08-31T13:09:17Z</time>
      </trkpt>
      <trkpt lat="42.70859" lon="1.40876">
        <ele>1273.245</ele>
        <time>2024-08-31T13:09:19Z</time>
      </trkpt>
      <trkpt lat="42.70857" lon="1.40874">
        <ele>1272.139</ele>
        <time>2024-08-31T13:09:21Z</time>
      </trkpt>
      <trkpt lat="42.70857" lon="1.40873">
        <ele>1270.766</ele>
        <time>2024-08-31T13:09:23Z</time>
      </trkpt>
      <trkpt lat="42.70856" lon="1.40872">
        <ele>1270.206</ele>
        <time>2024-08-31T13:09:25Z</time>
      </trkpt>
      <trkpt lat="42.70856" lon="1.4087">
        <ele>1269.614</ele>
        <time>2024-08-31T13:09:27Z</time>
      </trkpt>
      <trkpt lat="42.70856" lon="1.40868">
        <ele>1268.592</ele>
        <time>2024-08-31T13:09:29Z</time>
      </trkpt>
      <trkpt lat="42.70857" lon="1.40866">
        <ele>1269.208</ele>
        <time>2024-08-31T13:09:31Z</time>
      </trkpt>
      <trkpt lat="42.70857" lon="1.40865">
        <ele>1269.696</ele>
        <time>2024-08-31T13:09:33Z</time>
      </trkpt>
      <trkpt lat="42.70857" lon="1.40864">
        <ele>1268.527</ele>
        <time>2024-08-31T13:09:35Z</time>
      </trkpt>
      <trkpt lat="42.70857" lon="1.40862">
        <ele>1268.176</ele>
        <time>2024-08-31T13:09:37Z</time>
      </trkpt>
      <trkpt lat="42.70857" lon="1.4086">
        <ele>1267.411</ele>
        <time>2024-08-31T13:09:39Z</time>
      </trkpt>
      <trkpt lat="42.70856" lon="1.40858">
        <ele>1267.01</ele>
        <time>2024-08-31T13:09:41Z</time>
      </trkpt>
      <trkpt lat="42.70856" lon="1.40856">
        <ele>1267.08</ele>
        <time>2024-08-31T13:09:43Z</time>
      </trkpt>
      <trkpt lat="42.70856" lon="1.40854">
        <ele>1267.511</ele>
        <time>2024-08-31T13:09:45Z</time>
      </trkpt>
      <trkpt lat="42.70856" lon="1.40853">
        <ele>1268.918</ele>
        <time>2024-08-31T13:09:47Z</time>
      </trkpt>
      <trkpt lat="42.70856" lon="1.40852">
        <ele>1268.14</ele>
        <time>2024-08-31T13:09:49Z</time>
      </trkpt>
      <trkpt lat="42.70856" lon="1.4085">
        <ele>1268.812</ele>
        <time>2024-08-31T13:09:51Z</time>
      </trkpt>
      <trkpt lat="42.70856" lon="1.40849">
        <ele>1267.849</ele>
        <time>2024-08-31T13:09:53Z</time>
      </trkpt>
      <trkpt lat="42.70857" lon="1.40847">
        <ele>1267.192</ele>
        <time>2024-08-31T13:09:55Z</time>
      </trkpt>
      <trkpt lat="42.70857" lon="1.40845">
        <ele>1266.512</ele>
        <time>2024-08-31T13:09:57Z</time>
      </trkpt>
      <trkpt lat="42.70857" lon="1.40842">
        <ele>1266.74</ele>
        <time>2024-08-31T13:09:59Z</time>
      </trkpt>
      <trkpt lat="42.70857" lon="1.4084">
        <ele>1266.138</ele>
        <time>2024-08-31T13:10:01Z</time>
      </trkpt>
      <trkpt lat="42.70857" lon="1.40838">
        <ele>1266.102</ele>
        <time>2024-08-31T13:10:03Z</time>
      </trkpt>
      <trkpt lat="42.70856" lon="1.40836">
        <ele>1266.453</ele>
        <time>2024-08-31T13:10:05Z</time>
      </trkpt>
      <trkpt lat="42.70856" lon="1.40834">
        <ele>1266.597</ele>
        <time>2024-08-31T13:10:07Z</time>
      </trkpt>
      <trkpt lat="42.70855" lon="1.40833">
        <ele>1266.419</ele>
        <time>2024-08-31T13:10:09Z</time>
      </trkpt>
      <trkpt lat="42.70856" lon="1.4083">
        <ele>1265.882</ele>
        <time>2024-08-31T13:10:11Z</time>
      </trkpt>
      <trkpt lat="42.70857" lon="1.40829">
        <ele>1266.141</ele>
        <time>2024-08-31T13:10:13Z</time>
      </trkpt>
      <trkpt lat="42.70857" lon="1.40827">
        <ele>1265.426</ele>
        <time>2024-08-31T13:10:15Z</time>
      </trkpt>
      <trkpt lat="42.70858" lon="1.40826">
        <ele>1264.489</ele>
        <time>2024-08-31T13:10:17Z</time>
      </trkpt>
      <trkpt lat="42.70859" lon="1.40825">
        <ele>1264.107</ele>
        <time>2024-08-31T13:10:19Z</time>
      </trkpt>
      <trkpt lat="42.7086" lon="1.40824">
        <ele>1265.532</ele>
        <time>2024-08-31T13:10:21Z</time>
      </trkpt>
      <trkpt lat="42.7086" lon="1.40824">
        <ele>1265.5</ele>
        <time>2024-08-31T13:10:23Z</time>
      </trkpt>
      <trkpt lat="42.7086" lon="1.40824">
        <ele>1265.803</ele>
        <time>2024-08-31T13:10:25Z</time>
      </trkpt>
      <trkpt lat="42.7086" lon="1.40824">
        <ele>1265.891</ele>
        <time>2024-08-31T13:10:27Z</time>
      </trkpt>
      <trkpt lat="42.7086" lon="1.40824">
        <ele>1265.903</ele>
        <time>2024-08-31T13:10:29Z</time>
      </trkpt>
      <trkpt lat="42.7086" lon="1.40824">
        <ele>1265.915</ele>
        <time>2024-08-31T13:10:31Z</time>
      </trkpt>
      <trkpt lat="42.7086" lon="1.40824">
        <ele>1265.915</ele>
        <time>2024-08-31T13:10:33Z</time>
      </trkpt>
      <trkpt lat="42.7086" lon="1.40824">
        <ele>1265.915</ele>
        <time>2024-08-31T13:10:35Z</time>
      </trkpt>
      <trkpt lat="42.7086" lon="1.40824">
        <ele>1265.916</ele>
        <time>2024-08-31T13:10:37Z</time>
      </trkpt>
      <trkpt lat="42.7086" lon="1.40824">
        <ele>1266.397</ele>
        <time>2024-08-31T13:10:39Z</time>
      </trkpt>
      <trkpt lat="42.7086" lon="1.40824">
        <ele>1266.48</ele>
        <time>2024-08-31T13:10:41Z</time>
      </trkpt>
      <trkpt lat="42.7086" lon="1.40824">
        <ele>1266.978</ele>
        <time>2024-08-31T13:10:43Z</time>
      </trkpt>
      <trkpt lat="42.7086" lon="1.40824">
        <ele>1266.988</ele>
        <time>2024-08-31T13:10:45Z</time>
      </trkpt>
      <trkpt lat="42.7086" lon="1.40824">
        <ele>1266.986</ele>
        <time>2024-08-31T13:10:47Z</time>
      </trkpt>
      <trkpt lat="42.7086" lon="1.40824">
        <ele>1266.986</ele>
        <time>2024-08-31T13:10:49Z</time>
      </trkpt>
      <trkpt lat="42.7086" lon="1.40824">
        <ele>1266.985</ele>
        <time>2024-08-31T13:10:51Z</time>
      </trkpt>
      <trkpt lat="42.7086" lon="1.40824">
        <ele>1266.968</ele>
        <time>2024-08-31T13:10:53Z</time>
      </trkpt>
      <trkpt lat="42.7086" lon="1.40824">
        <ele>1266.96</ele>
        <time>2024-08-31T13:10:55Z</time>
      </trkpt>
      <trkpt lat="42.7086" lon="1.40824">
        <ele>1266.965</ele>
        <time>2024-08-31T13:10:57Z</time>
      </trkpt>
      <trkpt lat="42.7086" lon="1.40824">
        <ele>1266.968</ele>
        <time>2024-08-31T13:10:59Z</time>
      </trkpt>
      <trkpt lat="42.7086" lon="1.40824">
        <ele>1266.974</ele>
        <time>2024-08-31T13:11:01Z</time>
      </trkpt>
      <trkpt lat="42.7086" lon="1.40824">
        <ele>1266.984</ele>
        <time>2024-08-31T13:11:03Z</time>
      </trkpt>
      <trkpt lat="42.7086" lon="1.40824">
        <ele>1266.993</ele>
        <time>2024-08-31T13:11:05Z</time>
      </trkpt>
      <trkpt lat="42.7086" lon="1.40824">
        <ele>1266.995</ele>
        <time>2024-08-31T13:11:07Z</time>
      </trkpt>
      <trkpt lat="42.7086" lon="1.40824">
        <ele>1266.999</ele>
        <time>2024-08-31T13:11:09Z</time>
      </trkpt>
      <trkpt lat="42.7086" lon="1.40824">
        <ele>1267.003</ele>
        <time>2024-08-31T13:11:11Z</time>
      </trkpt>
      <trkpt lat="42.7086" lon="1.40824">
        <ele>1267.007</ele>
        <time>2024-08-31T13:11:13Z</time>
      </trkpt>
      <trkpt lat="42.7086" lon="1.40824">
        <ele>1267.003</ele>
        <time>2024-08-31T13:11:15Z</time>
      </trkpt>
      <trkpt lat="42.7086" lon="1.40824">
        <ele>1266.999</ele>
        <time>2024-08-31T13:11:17Z</time>
      </trkpt>
      <trkpt lat="42.7086" lon="1.40824">
        <ele>1266.989</ele>
        <time>2024-08-31T13:11:19Z</time>
      </trkpt>
      <trkpt lat="42.7086" lon="1.40824">
        <ele>1266.988</ele>
        <time>2024-08-31T13:11:21Z</time>
      </trkpt>
      <trkpt lat="42.7086" lon="1.40824">
        <ele>1266.987</ele>
        <time>2024-08-31T13:11:23Z</time>
      </trkpt>
      <trkpt lat="42.7086" lon="1.40824">
        <ele>1266.991</ele>
        <time>2024-08-31T13:11:25Z</time>
      </trkpt>
      <trkpt lat="42.7086" lon="1.40824">
        <ele>1266.993</ele>
        <time>2024-08-31T13:11:27Z</time>
      </trkpt>
      <trkpt lat="42.7086" lon="1.40824">
        <ele>1266.998</ele>
        <time>2024-08-31T13:11:29Z</time>
      </trkpt>
      <trkpt lat="42.7086" lon="1.40824">
        <ele>1267.148</ele>
        <time>2024-08-31T13:11:31Z</time>
      </trkpt>
      <trkpt lat="42.7086" lon="1.40824">
        <ele>1267.115</ele>
        <time>2024-08-31T13:11:33Z</time>
      </trkpt>
      <trkpt lat="42.7086" lon="1.40824">
        <ele>1267.12</ele>
        <time>2024-08-31T13:11:35Z</time>
      </trkpt>
      <trkpt lat="42.7086" lon="1.40824">
        <ele>1266.946</ele>
        <time>2024-08-31T13:11:37Z</time>
      </trkpt>
      <trkpt lat="42.7086" lon="1.40824">
        <ele>1266.944</ele>
        <time>2024-08-31T13:11:39Z</time>
      </trkpt>
      <trkpt lat="42.7086" lon="1.40824">
        <ele>1266.459</ele>
        <time>2024-08-31T13:11:41Z</time>
      </trkpt>
      <trkpt lat="42.7086" lon="1.40824">
        <ele>1266.767</ele>
        <time>2024-08-31T13:11:43Z</time>
      </trkpt>
      <trkpt lat="42.7086" lon="1.40824">
        <ele>1266.736</ele>
        <time>2024-08-31T13:11:45Z</time>
      </trkpt>
      <trkpt lat="42.7086" lon="1.40824">
        <ele>1266.554</ele>
        <time>2024-08-31T13:11:47Z</time>
      </trkpt>
      <trkpt lat="42.7086" lon="1.40824">
        <ele>1266.736</ele>
        <time>2024-08-31T13:11:49Z</time>
      </trkpt>
      <trkpt lat="42.7086" lon="1.40824">
        <ele>1266.754</ele>
        <time>2024-08-31T13:11:51Z</time>
      </trkpt>
      <trkpt lat="42.7086" lon="1.40824">
        <ele>1267.63</ele>
        <time>2024-08-31T13:11:53Z</time>
      </trkpt>
      <trkpt lat="42.7086" lon="1.40824">
        <ele>1266.508</ele>
        <time>2024-08-31T13:11:55Z</time>
      </trkpt>
      <trkpt lat="42.7086" lon="1.40824">
        <ele>1266.518</ele>
        <time>2024-08-31T13:11:57Z</time>
      </trkpt>
      <trkpt lat="42.7086" lon="1.40824">
        <ele>1266.509</ele>
        <time>2024-08-31T13:11:59Z</time>
      </trkpt>
      <trkpt lat="42.7086" lon="1.40824">
        <ele>1266.505</ele>
        <time>2024-08-31T13:12:01Z</time>
      </trkpt>
      <trkpt lat="42.7086" lon="1.40824">
        <ele>1266.651</ele>
        <time>2024-08-31T13:12:03Z</time>
      </trkpt>
      <trkpt lat="42.7086" lon="1.40824">
        <ele>1266.649</ele>
        <time>2024-08-31T13:12:05Z</time>
      </trkpt>
      <trkpt lat="42.7086" lon="1.40824">
        <ele>1266.651</ele>
        <time>2024-08-31T13:12:07Z</time>
      </trkpt>
      <trkpt lat="42.7086" lon="1.40824">
        <ele>1266.648</ele>
        <time>2024-08-31T13:12:09Z</time>
      </trkpt>
      <trkpt lat="42.7086" lon="1.40824">
        <ele>1266.646</ele>
        <time>2024-08-31T13:12:11Z</time>
      </trkpt>
      <trkpt lat="42.7086" lon="1.40824">
        <ele>1266.645</ele>
        <time>2024-08-31T13:12:13Z</time>
      </trkpt>
      <trkpt lat="42.7086" lon="1.40824">
        <ele>1266.648</ele>
        <time>2024-08-31T13:12:15Z</time>
      </trkpt>
      <trkpt lat="42.7086" lon="1.40824">
        <ele>1266.645</ele>
        <time>2024-08-31T13:12:17Z</time>
      </trkpt>
      <trkpt lat="42.7086" lon="1.40824">
        <ele>1266.647</ele>
        <time>2024-08-31T13:12:19Z</time>
      </trkpt>
      <trkpt lat="42.7086" lon="1.40824">
        <ele>1266.648</ele>
        <time>2024-08-31T13:12:21Z</time>
      </trkpt>
      <trkpt lat="42.7086" lon="1.40824">
        <ele>1266.652</ele>
        <time>2024-08-31T13:12:23Z</time>
      </trkpt>
      <trkpt lat="42.7086" lon="1.40824">
        <ele>1266.656</ele>
        <time>2024-08-31T13:12:25Z</time>
      </trkpt>
      <trkpt lat="42.7086" lon="1.40824">
        <ele>1266.652</ele>
        <time>2024-08-31T13:12:27Z</time>
      </trkpt>
      <trkpt lat="42.7086" lon="1.40824">
        <ele>1266.654</ele>
        <time>2024-08-31T13:12:29Z</time>
      </trkpt>
      <trkpt lat="42.7086" lon="1.40824">
        <ele>1266.658</ele>
        <time>2024-08-31T13:12:31Z</time>
      </trkpt>
      <trkpt lat="42.7086" lon="1.40824">
        <ele>1266.658</ele>
        <time>2024-08-31T13:12:33Z</time>
      </trkpt>
      <trkpt lat="42.7086" lon="1.40824">
        <ele>1266.655</ele>
        <time>2024-08-31T13:12:35Z</time>
      </trkpt>
      <trkpt lat="42.7086" lon="1.40824">
        <ele>1266.659</ele>
        <time>2024-08-31T13:12:37Z</time>
      </trkpt>
      <trkpt lat="42.7086" lon="1.40824">
        <ele>1266.668</ele>
        <time>2024-08-31T13:12:39Z</time>
      </trkpt>
      <trkpt lat="42.7086" lon="1.40824">
        <ele>1266.661</ele>
        <time>2024-08-31T13:12:41Z</time>
      </trkpt>
      <trkpt lat="42.7086" lon="1.40824">
        <ele>1266.662</ele>
        <time>2024-08-31T13:12:43Z</time>
      </trkpt>
      <trkpt lat="42.7086" lon="1.40824">
        <ele>1266.662</ele>
        <time>2024-08-31T13:12:45Z</time>
      </trkpt>
      <trkpt lat="42.7086" lon="1.40824">
        <ele>1266.659</ele>
        <time>2024-08-31T13:12:47Z</time>
      </trkpt>
      <trkpt lat="42.7086" lon="1.40824">
        <ele>1266.656</ele>
        <time>2024-08-31T13:12:49Z</time>
      </trkpt>
      <trkpt lat="42.7086" lon="1.40824">
        <ele>1266.654</ele>
        <time>2024-08-31T13:12:51Z</time>
      </trkpt>
      <trkpt lat="42.7086" lon="1.40824">
        <ele>1266.658</ele>
        <time>2024-08-31T13:12:53Z</time>
      </trkpt>
      <trkpt lat="42.7086" lon="1.40824">
        <ele>1266.654</ele>
        <time>2024-08-31T13:12:55Z</time>
      </trkpt>
      <trkpt lat="42.7086" lon="1.40824">
        <ele>1266.655</ele>
        <time>2024-08-31T13:12:57Z</time>
      </trkpt>
      <trkpt lat="42.7086" lon="1.40824">
        <ele>1266.659</ele>
        <time>2024-08-31T13:12:59Z</time>
      </trkpt>
      <trkpt lat="42.7086" lon="1.40824">
        <ele>1266.661</ele>
        <time>2024-08-31T13:13:01Z</time>
      </trkpt>
      <trkpt lat="42.7086" lon="1.40824">
        <ele>1266.657</ele>
        <time>2024-08-31T13:13:03Z</time>
      </trkpt>
      <trkpt lat="42.7086" lon="1.40824">
        <ele>1266.658</ele>
        <time>2024-08-31T13:13:05Z</time>
      </trkpt>
      <trkpt lat="42.7086" lon="1.40824">
        <ele>1266.657</ele>
        <time>2024-08-31T13:13:07Z</time>
      </trkpt>
      <trkpt lat="42.7086" lon="1.40824">
        <ele>1266.655</ele>
        <time>2024-08-31T13:13:09Z</time>
      </trkpt>
      <trkpt lat="42.7086" lon="1.40824">
        <ele>1266.661</ele>
        <time>2024-08-31T13:13:11Z</time>
      </trkpt>
      <trkpt lat="42.7086" lon="1.40824">
        <ele>1266.667</ele>
        <time>2024-08-31T13:13:13Z</time>
      </trkpt>
      <trkpt lat="42.7086" lon="1.40824">
        <ele>1266.668</ele>
        <time>2024-08-31T13:13:15Z</time>
      </trkpt>
      <trkpt lat="42.7086" lon="1.40824">
        <ele>1266.791</ele>
        <time>2024-08-31T13:13:17Z</time>
      </trkpt>
      <trkpt lat="42.7086" lon="1.40824">
        <ele>1266.788</ele>
        <time>2024-08-31T13:13:19Z</time>
      </trkpt>
      <trkpt lat="42.7086" lon="1.40824">
        <ele>1266.791</ele>
        <time>2024-08-31T13:13:21Z</time>
      </trkpt>
      <trkpt lat="42.7086" lon="1.40824">
        <ele>1266.786</ele>
        <time>2024-08-31T13:13:23Z</time>
      </trkpt>
      <trkpt lat="42.7086" lon="1.40824">
        <ele>1266.786</ele>
        <time>2024-08-31T13:13:25Z</time>
      </trkpt>
      <trkpt lat="42.7086" lon="1.40824">
        <ele>1266.785</ele>
        <time>2024-08-31T13:13:27Z</time>
      </trkpt>
      <trkpt lat="42.7086" lon="1.40824">
        <ele>1266.785</ele>
        <time>2024-08-31T13:13:29Z</time>
      </trkpt>
      <trkpt lat="42.7086" lon="1.40824">
        <ele>1266.786</ele>
        <time>2024-08-31T13:13:31Z</time>
      </trkpt>
      <trkpt lat="42.7086" lon="1.40824">
        <ele>1266.784</ele>
        <time>2024-08-31T13:13:33Z</time>
      </trkpt>
      <trkpt lat="42.7086" lon="1.40824">
        <ele>1266.789</ele>
        <time>2024-08-31T13:13:35Z</time>
      </trkpt>
      <trkpt lat="42.7086" lon="1.40824">
        <ele>1266.785</ele>
        <time>2024-08-31T13:13:37Z</time>
      </trkpt>
      <trkpt lat="42.7086" lon="1.40824">
        <ele>1266.784</ele>
        <time>2024-08-31T13:13:39Z</time>
      </trkpt>
      <trkpt lat="42.7086" lon="1.40824">
        <ele>1266.783</ele>
        <time>2024-08-31T13:13:41Z</time>
      </trkpt>
      <trkpt lat="42.7086" lon="1.40824">
        <ele>1266.784</ele>
        <time>2024-08-31T13:13:43Z</time>
      </trkpt>
      <trkpt lat="42.7086" lon="1.40824">
        <ele>1266.784</ele>
        <time>2024-08-31T13:13:45Z</time>
      </trkpt>
      <trkpt lat="42.7086" lon="1.40824">
        <ele>1266.783</ele>
        <time>2024-08-31T13:13:47Z</time>
      </trkpt>
      <trkpt lat="42.7086" lon="1.40824">
        <ele>1266.779</ele>
        <time>2024-08-31T13:13:49Z</time>
      </trkpt>
      <trkpt lat="42.7086" lon="1.40824">
        <ele>1266.784</ele>
        <time>2024-08-31T13:13:51Z</time>
      </trkpt>
      <trkpt lat="42.7086" lon="1.40824">
        <ele>1266.708</ele>
        <time>2024-08-31T13:13:53Z</time>
      </trkpt>
      <trkpt lat="42.7086" lon="1.40824">
        <ele>1266.697</ele>
        <time>2024-08-31T13:13:55Z</time>
      </trkpt>
      <trkpt lat="42.7086" lon="1.40824">
        <ele>1266.697</ele>
        <time>2024-08-31T13:13:57Z</time>
      </trkpt>
      <trkpt lat="42.7086" lon="1.40824">
        <ele>1266.693</ele>
        <time>2024-08-31T13:13:59Z</time>
      </trkpt>
      <trkpt lat="42.7086" lon="1.40824">
        <ele>1266.695</ele>
        <time>2024-08-31T13:14:01Z</time>
      </trkpt>
      <trkpt lat="42.7086" lon="1.40824">
        <ele>1266.694</ele>
        <time>2024-08-31T13:14:03Z</time>
      </trkpt>
      <trkpt lat="42.7086" lon="1.40824">
        <ele>1266.686</ele>
        <time>2024-08-31T13:14:05Z</time>
      </trkpt>
      <trkpt lat="42.7086" lon="1.40824">
        <ele>1266.677</ele>
        <time>2024-08-31T13:14:07Z</time>
      </trkpt>
      <trkpt lat="42.7086" lon="1.40824">
        <ele>1266.678</ele>
        <time>2024-08-31T13:14:09Z</time>
      </trkpt>
      <trkpt lat="42.7086" lon="1.40824">
        <ele>1266.676</ele>
        <time>2024-08-31T13:14:11Z</time>
      </trkpt>
      <trkpt lat="42.7086" lon="1.40824">
        <ele>1266.677</ele>
        <time>2024-08-31T13:14:13Z</time>
      </trkpt>
      <trkpt lat="42.7086" lon="1.40824">
        <ele>1266.675</ele>
        <time>2024-08-31T13:14:15Z</time>
      </trkpt>
      <trkpt lat="42.7086" lon="1.40824">
        <ele>1266.675</ele>
        <time>2024-08-31T13:14:17Z</time>
      </trkpt>
      <trkpt lat="42.7086" lon="1.40824">
        <ele>1266.675</ele>
        <time>2024-08-31T13:14:19Z</time>
      </trkpt>
      <trkpt lat="42.7086" lon="1.40824">
        <ele>1266.674</ele>
        <time>2024-08-31T13:14:21Z</time>
      </trkpt>
      <trkpt lat="42.7086" lon="1.40824">
        <ele>1266.676</ele>
        <time>2024-08-31T13:14:23Z</time>
      </trkpt>
      <trkpt lat="42.7086" lon="1.40824">
        <ele>1266.679</ele>
        <time>2024-08-31T13:14:25Z</time>
      </trkpt>
      <trkpt lat="42.7086" lon="1.40824">
        <ele>1266.684</ele>
        <time>2024-08-31T13:14:27Z</time>
      </trkpt>
      <trkpt lat="42.7086" lon="1.40824">
        <ele>1266.691</ele>
        <time>2024-08-31T13:14:29Z</time>
      </trkpt>
      <trkpt lat="42.7086" lon="1.40824">
        <ele>1266.707</ele>
        <time>2024-08-31T13:14:31Z</time>
      </trkpt>
      <trkpt lat="42.7086" lon="1.40824">
        <ele>1266.707</ele>
        <time>2024-08-31T13:14:33Z</time>
      </trkpt>
      <trkpt lat="42.7086" lon="1.40824">
        <ele>1266.713</ele>
        <time>2024-08-31T13:14:35Z</time>
      </trkpt>
      <trkpt lat="42.7086" lon="1.40824">
        <ele>1266.716</ele>
        <time>2024-08-31T13:14:37Z</time>
      </trkpt>
      <trkpt lat="42.7086" lon="1.40824">
        <ele>1266.718</ele>
        <time>2024-08-31T13:14:39Z</time>
      </trkpt>
      <trkpt lat="42.7086" lon="1.40824">
        <ele>1266.71</ele>
        <time>2024-08-31T13:14:41Z</time>
      </trkpt>
      <trkpt lat="42.7086" lon="1.40824">
        <ele>1266.71</ele>
        <time>2024-08-31T13:14:43Z</time>
      </trkpt>
      <trkpt lat="42.7086" lon="1.40824">
        <ele>1266.711</ele>
        <time>2024-08-31T13:14:45Z</time>
      </trkpt>
      <trkpt lat="42.7086" lon="1.40824">
        <ele>1266.716</ele>
        <time>2024-08-31T13:14:47Z</time>
      </trkpt>
      <trkpt lat="42.7086" lon="1.40824">
        <ele>1266.718</ele>
        <time>2024-08-31T13:14:49Z</time>
      </trkpt>
      <trkpt lat="42.7086" lon="1.40824">
        <ele>1266.723</ele>
        <time>2024-08-31T13:14:51Z</time>
      </trkpt>
      <trkpt lat="42.7086" lon="1.40824">
        <ele>1266.729</ele>
        <time>2024-08-31T13:14:53Z</time>
      </trkpt>
      <trkpt lat="42.7086" lon="1.40824">
        <ele>1266.723</ele>
        <time>2024-08-31T13:14:55Z</time>
      </trkpt>
      <trkpt lat="42.7086" lon="1.40824">
        <ele>1266.722</ele>
        <time>2024-08-31T13:14:57Z</time>
      </trkpt>
      <trkpt lat="42.7086" lon="1.40824">
        <ele>1266.722</ele>
        <time>2024-08-31T13:14:59Z</time>
      </trkpt>
      <trkpt lat="42.7086" lon="1.40824">
        <ele>1266.723</ele>
        <time>2024-08-31T13:15:01Z</time>
      </trkpt>
      <trkpt lat="42.7086" lon="1.40824">
        <ele>1266.719</ele>
        <time>2024-08-31T13:15:03Z</time>
      </trkpt>
      <trkpt lat="42.7086" lon="1.40824">
        <ele>1266.717</ele>
        <time>2024-08-31T13:15:05Z</time>
      </trkpt>
      <trkpt lat="42.7086" lon="1.40824">
        <ele>1266.712</ele>
        <time>2024-08-31T13:15:07Z</time>
      </trkpt>
      <trkpt lat="42.7086" lon="1.40824">
        <ele>1266.714</ele>
        <time>2024-08-31T13:15:09Z</time>
      </trkpt>
      <trkpt lat="42.7086" lon="1.40824">
        <ele>1266.707</ele>
        <time>2024-08-31T13:15:11Z</time>
      </trkpt>
      <trkpt lat="42.7086" lon="1.40824">
        <ele>1266.709</ele>
        <time>2024-08-31T13:15:13Z</time>
      </trkpt>
      <trkpt lat="42.7086" lon="1.40824">
        <ele>1266.708</ele>
        <time>2024-08-31T13:15:15Z</time>
      </trkpt>
      <trkpt lat="42.7086" lon="1.40824">
        <ele>1266.719</ele>
        <time>2024-08-31T13:15:17Z</time>
      </trkpt>
      <trkpt lat="42.7086" lon="1.40824">
        <ele>1266.722</ele>
        <time>2024-08-31T13:15:19Z</time>
      </trkpt>
      <trkpt lat="42.7086" lon="1.40824">
        <ele>1266.726</ele>
        <time>2024-08-31T13:15:21Z</time>
      </trkpt>
      <trkpt lat="42.7086" lon="1.40824">
        <ele>1266.726</ele>
        <time>2024-08-31T13:15:23Z</time>
      </trkpt>
      <trkpt lat="42.7086" lon="1.40824">
        <ele>1266.723</ele>
        <time>2024-08-31T13:15:25Z</time>
      </trkpt>
      <trkpt lat="42.7086" lon="1.40824">
        <ele>1266.73</ele>
        <time>2024-08-31T13:15:27Z</time>
      </trkpt>
      <trkpt lat="42.7086" lon="1.40824">
        <ele>1266.732</ele>
        <time>2024-08-31T13:15:29Z</time>
      </trkpt>
      <trkpt lat="42.7086" lon="1.40824">
        <ele>1266.737</ele>
        <time>2024-08-31T13:15:31Z</time>
      </trkpt>
      <trkpt lat="42.7086" lon="1.40824">
        <ele>1266.745</ele>
        <time>2024-08-31T13:15:33Z</time>
      </trkpt>
      <trkpt lat="42.7086" lon="1.40824">
        <ele>1266.827</ele>
        <time>2024-08-31T13:15:35Z</time>
      </trkpt>
      <trkpt lat="42.7086" lon="1.40824">
        <ele>1266.828</ele>
        <time>2024-08-31T13:15:37Z</time>
      </trkpt>
      <trkpt lat="42.7086" lon="1.40824">
        <ele>1266.83</ele>
        <time>2024-08-31T13:15:39Z</time>
      </trkpt>
      <trkpt lat="42.7086" lon="1.40824">
        <ele>1266.829</ele>
        <time>2024-08-31T13:15:41Z</time>
      </trkpt>
      <trkpt lat="42.7086" lon="1.40824">
        <ele>1266.826</ele>
        <time>2024-08-31T13:15:43Z</time>
      </trkpt>
      <trkpt lat="42.7086" lon="1.40824">
        <ele>1266.824</ele>
        <time>2024-08-31T13:15:45Z</time>
      </trkpt>
      <trkpt lat="42.7086" lon="1.40824">
        <ele>1266.824</ele>
        <time>2024-08-31T13:15:47Z</time>
      </trkpt>
      <trkpt lat="42.7086" lon="1.40824">
        <ele>1266.828</ele>
        <time>2024-08-31T13:15:49Z</time>
      </trkpt>
      <trkpt lat="42.7086" lon="1.40824">
        <ele>1266.832</ele>
        <time>2024-08-31T13:15:51Z</time>
      </trkpt>
      <trkpt lat="42.7086" lon="1.40824">
        <ele>1266.834</ele>
        <time>2024-08-31T13:15:53Z</time>
      </trkpt>
      <trkpt lat="42.7086" lon="1.40824">
        <ele>1266.84</ele>
        <time>2024-08-31T13:15:55Z</time>
      </trkpt>
      <trkpt lat="42.7086" lon="1.40824">
        <ele>1266.844</ele>
        <time>2024-08-31T13:15:57Z</time>
      </trkpt>
      <trkpt lat="42.7086" lon="1.40824">
        <ele>1266.851</ele>
        <time>2024-08-31T13:15:59Z</time>
      </trkpt>
      <trkpt lat="42.7086" lon="1.40824">
        <ele>1266.85</ele>
        <time>2024-08-31T13:16:01Z</time>
      </trkpt>
      <trkpt lat="42.7086" lon="1.40824">
        <ele>1266.853</ele>
        <time>2024-08-31T13:16:03Z</time>
      </trkpt>
      <trkpt lat="42.7086" lon="1.40824">
        <ele>1266.853</ele>
        <time>2024-08-31T13:16:05Z</time>
      </trkpt>
      <trkpt lat="42.7086" lon="1.40824">
        <ele>1266.857</ele>
        <time>2024-08-31T13:16:07Z</time>
      </trkpt>
      <trkpt lat="42.7086" lon="1.40824">
        <ele>1266.862</ele>
        <time>2024-08-31T13:16:09Z</time>
      </trkpt>
      <trkpt lat="42.7086" lon="1.40824">
        <ele>1266.871</ele>
        <time>2024-08-31T13:16:11Z</time>
      </trkpt>
      <trkpt lat="42.7086" lon="1.40824">
        <ele>1266.876</ele>
        <time>2024-08-31T13:16:13Z</time>
      </trkpt>
      <trkpt lat="42.7086" lon="1.40824">
        <ele>1266.878</ele>
        <time>2024-08-31T13:16:15Z</time>
      </trkpt>
      <trkpt lat="42.7086" lon="1.40824">
        <ele>1266.988</ele>
        <time>2024-08-31T13:16:17Z</time>
      </trkpt>
      <trkpt lat="42.7086" lon="1.40824">
        <ele>1267.078</ele>
        <time>2024-08-31T13:16:19Z</time>
      </trkpt>
      <trkpt lat="42.7086" lon="1.40824">
        <ele>1267.102</ele>
        <time>2024-08-31T13:16:21Z</time>
      </trkpt>
      <trkpt lat="42.7086" lon="1.40824">
        <ele>1267.115</ele>
        <time>2024-08-31T13:16:23Z</time>
      </trkpt>
      <trkpt lat="42.7086" lon="1.40824">
        <ele>1267.133</ele>
        <time>2024-08-31T13:16:25Z</time>
      </trkpt>
      <trkpt lat="42.7086" lon="1.40824">
        <ele>1267.137</ele>
        <time>2024-08-31T13:16:27Z</time>
      </trkpt>
      <trkpt lat="42.7086" lon="1.40824">
        <ele>1267.138</ele>
        <time>2024-08-31T13:16:29Z</time>
      </trkpt>
      <trkpt lat="42.7086" lon="1.40824">
        <ele>1267.143</ele>
        <time>2024-08-31T13:16:31Z</time>
      </trkpt>
      <trkpt lat="42.7086" lon="1.40824">
        <ele>1267.143</ele>
        <time>2024-08-31T13:16:33Z</time>
      </trkpt>
      <trkpt lat="42.7086" lon="1.40824">
        <ele>1267.146</ele>
        <time>2024-08-31T13:16:35Z</time>
      </trkpt>
      <trkpt lat="42.7086" lon="1.40824">
        <ele>1267.153</ele>
        <time>2024-08-31T13:16:37Z</time>
      </trkpt>
      <trkpt lat="42.7086" lon="1.40824">
        <ele>1267.155</ele>
        <time>2024-08-31T13:16:39Z</time>
      </trkpt>
      <trkpt lat="42.7086" lon="1.40824">
        <ele>1267.168</ele>
        <time>2024-08-31T13:16:41Z</time>
      </trkpt>
      <trkpt lat="42.7086" lon="1.40824">
        <ele>1267.172</ele>
        <time>2024-08-31T13:16:43Z</time>
      </trkpt>
      <trkpt lat="42.7086" lon="1.40824">
        <ele>1267.174</ele>
        <time>2024-08-31T13:16:45Z</time>
      </trkpt>
      <trkpt lat="42.7086" lon="1.40824">
        <ele>1267.182</ele>
        <time>2024-08-31T13:16:47Z</time>
      </trkpt>
      <trkpt lat="42.7086" lon="1.40824">
        <ele>1267.185</ele>
        <time>2024-08-31T13:16:49Z</time>
      </trkpt>
      <trkpt lat="42.7086" lon="1.40824">
        <ele>1267.186</ele>
        <time>2024-08-31T13:16:51Z</time>
      </trkpt>
      <trkpt lat="42.7086" lon="1.40824">
        <ele>1267.193</ele>
        <time>2024-08-31T13:16:53Z</time>
      </trkpt>
      <trkpt lat="42.7086" lon="1.40824">
        <ele>1267.196</ele>
        <time>2024-08-31T13:16:55Z</time>
      </trkpt>
      <trkpt lat="42.7086" lon="1.40824">
        <ele>1267.204</ele>
        <time>2024-08-31T13:16:57Z</time>
      </trkpt>
      <trkpt lat="42.7086" lon="1.40824">
        <ele>1267.205</ele>
        <time>2024-08-31T13:16:59Z</time>
      </trkpt>
      <trkpt lat="42.7086" lon="1.40824">
        <ele>1267.21</ele>
        <time>2024-08-31T13:17:01Z</time>
      </trkpt>
      <trkpt lat="42.7086" lon="1.40824">
        <ele>1267.213</ele>
        <time>2024-08-31T13:17:03Z</time>
      </trkpt>
      <trkpt lat="42.7086" lon="1.40824">
        <ele>1267.212</ele>
        <time>2024-08-31T13:17:05Z</time>
      </trkpt>
      <trkpt lat="42.7086" lon="1.40824">
        <ele>1266.939</ele>
        <time>2024-08-31T13:17:07Z</time>
      </trkpt>
      <trkpt lat="42.7086" lon="1.40824">
        <ele>1265.881</ele>
        <time>2024-08-31T13:17:09Z</time>
      </trkpt>
      <trkpt lat="42.7086" lon="1.40824">
        <ele>1265.439</ele>
        <time>2024-08-31T13:17:11Z</time>
      </trkpt>
      <trkpt lat="42.7086" lon="1.40824">
        <ele>1265.438</ele>
        <time>2024-08-31T13:17:13Z</time>
      </trkpt>
      <trkpt lat="42.7086" lon="1.40824">
        <ele>1265.437</ele>
        <time>2024-08-31T13:17:15Z</time>
      </trkpt>
      <trkpt lat="42.7086" lon="1.40824">
        <ele>1265.514</ele>
        <time>2024-08-31T13:17:17Z</time>
      </trkpt>
      <trkpt lat="42.7086" lon="1.40824">
        <ele>1266.369</ele>
        <time>2024-08-31T13:17:19Z</time>
      </trkpt>
      <trkpt lat="42.7086" lon="1.40824">
        <ele>1265.46</ele>
        <time>2024-08-31T13:17:21Z</time>
      </trkpt>
      <trkpt lat="42.7086" lon="1.40824">
        <ele>1264.481</ele>
        <time>2024-08-31T13:17:23Z</time>
      </trkpt>
      <trkpt lat="42.7086" lon="1.40824">
        <ele>1265.022</ele>
        <time>2024-08-31T13:17:25Z</time>
      </trkpt>
      <trkpt lat="42.7086" lon="1.40824">
        <ele>1265.38</ele>
        <time>2024-08-31T13:17:27Z</time>
      </trkpt>
      <trkpt lat="42.7086" lon="1.40824">
        <ele>1265.384</ele>
        <time>2024-08-31T13:17:29Z</time>
      </trkpt>
      <trkpt lat="42.7086" lon="1.40824">
        <ele>1265.381</ele>
        <time>2024-08-31T13:17:31Z</time>
      </trkpt>
      <trkpt lat="42.7086" lon="1.40824">
        <ele>1265.386</ele>
        <time>2024-08-31T13:17:33Z</time>
      </trkpt>
      <trkpt lat="42.7086" lon="1.40824">
        <ele>1265.386</ele>
        <time>2024-08-31T13:17:35Z</time>
      </trkpt>
      <trkpt lat="42.7086" lon="1.40824">
        <ele>1265.384</ele>
        <time>2024-08-31T13:17:37Z</time>
      </trkpt>
      <trkpt lat="42.7086" lon="1.40824">
        <ele>1265.375</ele>
        <time>2024-08-31T13:17:39Z</time>
      </trkpt>
      <trkpt lat="42.7086" lon="1.40824">
        <ele>1265.375</ele>
        <time>2024-08-31T13:17:41Z</time>
      </trkpt>
      <trkpt lat="42.7086" lon="1.40824">
        <ele>1265.369</ele>
        <time>2024-08-31T13:17:43Z</time>
      </trkpt>
      <trkpt lat="42.7086" lon="1.40824">
        <ele>1264.903</ele>
        <time>2024-08-31T13:17:45Z</time>
      </trkpt>
      <trkpt lat="42.7086" lon="1.40824">
        <ele>1264.257</ele>
        <time>2024-08-31T13:17:47Z</time>
      </trkpt>
      <trkpt lat="42.7086" lon="1.40824">
        <ele>1264.349</ele>
        <time>2024-08-31T13:17:49Z</time>
      </trkpt>
      <trkpt lat="42.7086" lon="1.40824">
        <ele>1264.348</ele>
        <time>2024-08-31T13:17:51Z</time>
      </trkpt>
      <trkpt lat="42.70857" lon="1.40834">
        <ele>1263.949</ele>
        <time>2024-08-31T13:17:53Z</time>
      </trkpt>
      <trkpt lat="42.70857" lon="1.40836">
        <ele>1263.957</ele>
        <time>2024-08-31T13:17:55Z</time>
      </trkpt>
      <trkpt lat="42.70857" lon="1.40838">
        <ele>1264.098</ele>
        <time>2024-08-31T13:17:57Z</time>
      </trkpt>
      <trkpt lat="42.70857" lon="1.40841">
        <ele>1263.873</ele>
        <time>2024-08-31T13:17:59Z</time>
      </trkpt>
      <trkpt lat="42.70857" lon="1.40843">
        <ele>1264.444</ele>
        <time>2024-08-31T13:18:01Z</time>
      </trkpt>
      <trkpt lat="42.70856" lon="1.40845">
        <ele>1264.257</ele>
        <time>2024-08-31T13:18:03Z</time>
      </trkpt>
      <trkpt lat="42.70855" lon="1.40846">
        <ele>1264.787</ele>
        <time>2024-08-31T13:18:05Z</time>
      </trkpt>
      <trkpt lat="42.70855" lon="1.40848">
        <ele>1265.352</ele>
        <time>2024-08-31T13:18:07Z</time>
      </trkpt>
      <trkpt lat="42.70854" lon="1.4085">
        <ele>1266.47</ele>
        <time>2024-08-31T13:18:09Z</time>
      </trkpt>
      <trkpt lat="42.70854" lon="1.40852">
        <ele>1266.796</ele>
        <time>2024-08-31T13:18:11Z</time>
      </trkpt>
      <trkpt lat="42.70854" lon="1.40854">
        <ele>1266.788</ele>
        <time>2024-08-31T13:18:13Z</time>
      </trkpt>
      <trkpt lat="42.70855" lon="1.40855">
        <ele>1267.031</ele>
        <time>2024-08-31T13:18:15Z</time>
      </trkpt>
      <trkpt lat="42.70856" lon="1.40857">
        <ele>1267.897</ele>
        <time>2024-08-31T13:18:17Z</time>
      </trkpt>
      <trkpt lat="42.70856" lon="1.40859">
        <ele>1270.707</ele>
        <time>2024-08-31T13:18:19Z</time>
      </trkpt>
      <trkpt lat="42.70857" lon="1.4086">
        <ele>1270.258</ele>
        <time>2024-08-31T13:18:21Z</time>
      </trkpt>
      <trkpt lat="42.70856" lon="1.40862">
        <ele>1270.791</ele>
        <time>2024-08-31T13:18:23Z</time>
      </trkpt>
      <trkpt lat="42.70856" lon="1.40864">
        <ele>1270.433</ele>
        <time>2024-08-31T13:18:25Z</time>
      </trkpt>
      <trkpt lat="42.70855" lon="1.40865">
        <ele>1270.373</ele>
        <time>2024-08-31T13:18:27Z</time>
      </trkpt>
      <trkpt lat="42.70856" lon="1.40867">
        <ele>1274.058</ele>
        <time>2024-08-31T13:18:29Z</time>
      </trkpt>
      <trkpt lat="42.70857" lon="1.40869">
        <ele>1274.379</ele>
        <time>2024-08-31T13:18:31Z</time>
      </trkpt>
      <trkpt lat="42.70858" lon="1.4087">
        <ele>1275.691</ele>
        <time>2024-08-31T13:18:33Z</time>
      </trkpt>
      <trkpt lat="42.70858" lon="1.40871">
        <ele>1275.137</ele>
        <time>2024-08-31T13:18:35Z</time>
      </trkpt>
      <trkpt lat="42.70858" lon="1.40873">
        <ele>1274.228</ele>
        <time>2024-08-31T13:18:37Z</time>
      </trkpt>
      <trkpt lat="42.70858" lon="1.40875">
        <ele>1274.256</ele>
        <time>2024-08-31T13:18:39Z</time>
      </trkpt>
      <trkpt lat="42.70859" lon="1.40878">
        <ele>1273.898</ele>
        <time>2024-08-31T13:18:41Z</time>
      </trkpt>
      <trkpt lat="42.7086" lon="1.40881">
        <ele>1273.573</ele>
        <time>2024-08-31T13:18:43Z</time>
      </trkpt>
      <trkpt lat="42.70861" lon="1.40883">
        <ele>1274.063</ele>
        <time>2024-08-31T13:18:45Z</time>
      </trkpt>
      <trkpt lat="42.70861" lon="1.40885">
        <ele>1274.91</ele>
        <time>2024-08-31T13:18:47Z</time>
      </trkpt>
      <trkpt lat="42.70861" lon="1.40886">
        <ele>1275.292</ele>
        <time>2024-08-31T13:18:49Z</time>
      </trkpt>
      <trkpt lat="42.7086" lon="1.40888">
        <ele>1275.311</ele>
        <time>2024-08-31T13:18:51Z</time>
      </trkpt>
      <trkpt lat="42.70859" lon="1.40889">
        <ele>1274.777</ele>
        <time>2024-08-31T13:18:53Z</time>
      </trkpt>
      <trkpt lat="42.70859" lon="1.40891">
        <ele>1276.149</ele>
        <time>2024-08-31T13:18:55Z</time>
      </trkpt>
      <trkpt lat="42.70859" lon="1.40893">
        <ele>1277.125</ele>
        <time>2024-08-31T13:18:57Z</time>
      </trkpt>
      <trkpt lat="42.7086" lon="1.40895">
        <ele>1277.966</ele>
        <time>2024-08-31T13:18:59Z</time>
      </trkpt>
      <trkpt lat="42.7086" lon="1.40897">
        <ele>1279.368</ele>
        <time>2024-08-31T13:19:01Z</time>
      </trkpt>
      <trkpt lat="42.70861" lon="1.40899">
        <ele>1280.53</ele>
        <time>2024-08-31T13:19:03Z</time>
      </trkpt>
      <trkpt lat="42.70861" lon="1.40901">
        <ele>1280.655</ele>
        <time>2024-08-31T13:19:05Z</time>
      </trkpt>
      <trkpt lat="42.70863" lon="1.40904">
        <ele>1280.342</ele>
        <time>2024-08-31T13:19:07Z</time>
      </trkpt>
      <trkpt lat="42.70864" lon="1.40905">
        <ele>1279.841</ele>
        <time>2024-08-31T13:19:09Z</time>
      </trkpt>
      <trkpt lat="42.70866" lon="1.40907">
        <ele>1280.726</ele>
        <time>2024-08-31T13:19:11Z</time>
      </trkpt>
      <trkpt lat="42.70867" lon="1.40908">
        <ele>1280.465</ele>
        <time>2024-08-31T13:19:13Z</time>
      </trkpt>
      <trkpt lat="42.70868" lon="1.4091">
        <ele>1280.59</ele>
        <time>2024-08-31T13:19:15Z</time>
      </trkpt>
      <trkpt lat="42.70868" lon="1.40912">
        <ele>1279.354</ele>
        <time>2024-08-31T13:19:17Z</time>
      </trkpt>
      <trkpt lat="42.70869" lon="1.40914">
        <ele>1280.309</ele>
        <time>2024-08-31T13:19:19Z</time>
      </trkpt>
      <trkpt lat="42.7087" lon="1.40916">
        <ele>1280.203</ele>
        <time>2024-08-31T13:19:21Z</time>
      </trkpt>
      <trkpt lat="42.70871" lon="1.40919">
        <ele>1279.296</ele>
        <time>2024-08-31T13:19:23Z</time>
      </trkpt>
      <trkpt lat="42.70872" lon="1.40921">
        <ele>1279.521</ele>
        <time>2024-08-31T13:19:25Z</time>
      </trkpt>
      <trkpt lat="42.70872" lon="1.40924">
        <ele>1279.164</ele>
        <time>2024-08-31T13:19:27Z</time>
      </trkpt>
      <trkpt lat="42.70873" lon="1.40927">
        <ele>1279.01</ele>
        <time>2024-08-31T13:19:29Z</time>
      </trkpt>
      <trkpt lat="42.70873" lon="1.40929">
        <ele>1279.627</ele>
        <time>2024-08-31T13:19:31Z</time>
      </trkpt>
      <trkpt lat="42.70874" lon="1.4093">
        <ele>1280.387</ele>
        <time>2024-08-31T13:19:33Z</time>
      </trkpt>
      <trkpt lat="42.70875" lon="1.40932">
        <ele>1280.414</ele>
        <time>2024-08-31T13:19:35Z</time>
      </trkpt>
      <trkpt lat="42.70875" lon="1.40933">
        <ele>1282.491</ele>
        <time>2024-08-31T13:19:37Z</time>
      </trkpt>
      <trkpt lat="42.70876" lon="1.40935">
        <ele>1282.706</ele>
        <time>2024-08-31T13:19:39Z</time>
      </trkpt>
      <trkpt lat="42.70877" lon="1.40937">
        <ele>1284.035</ele>
        <time>2024-08-31T13:19:41Z</time>
      </trkpt>
      <trkpt lat="42.70877" lon="1.40939">
        <ele>1284.928</ele>
        <time>2024-08-31T13:19:43Z</time>
      </trkpt>
      <trkpt lat="42.70878" lon="1.40942">
        <ele>1285.347</ele>
        <time>2024-08-31T13:19:45Z</time>
      </trkpt>
      <trkpt lat="42.70879" lon="1.40944">
        <ele>1286.021</ele>
        <time>2024-08-31T13:19:47Z</time>
      </trkpt>
      <trkpt lat="42.7088" lon="1.40946">
        <ele>1286.685</ele>
        <time>2024-08-31T13:19:49Z</time>
      </trkpt>
      <trkpt lat="42.70881" lon="1.40947">
        <ele>1286.144</ele>
        <time>2024-08-31T13:19:51Z</time>
      </trkpt>
      <trkpt lat="42.70883" lon="1.4095">
        <ele>1285.905</ele>
        <time>2024-08-31T13:19:53Z</time>
      </trkpt>
      <trkpt lat="42.70884" lon="1.40952">
        <ele>1286.174</ele>
        <time>2024-08-31T13:19:55Z</time>
      </trkpt>
      <trkpt lat="42.70885" lon="1.40954">
        <ele>1285.506</ele>
        <time>2024-08-31T13:19:57Z</time>
      </trkpt>
      <trkpt lat="42.70886" lon="1.40957">
        <ele>1284.526</ele>
        <time>2024-08-31T13:19:59Z</time>
      </trkpt>
      <trkpt lat="42.70886" lon="1.40959">
        <ele>1284.247</ele>
        <time>2024-08-31T13:20:01Z</time>
      </trkpt>
      <trkpt lat="42.70887" lon="1.40961">
        <ele>1284.583</ele>
        <time>2024-08-31T13:20:03Z</time>
      </trkpt>
      <trkpt lat="42.70888" lon="1.40964">
        <ele>1283.296</ele>
        <time>2024-08-31T13:20:05Z</time>
      </trkpt>
      <trkpt lat="42.70889" lon="1.40966">
        <ele>1283.39</ele>
        <time>2024-08-31T13:20:07Z</time>
      </trkpt>
      <trkpt lat="42.70889" lon="1.40969">
        <ele>1283.381</ele>
        <time>2024-08-31T13:20:09Z</time>
      </trkpt>
      <trkpt lat="42.70889" lon="1.40972">
        <ele>1282.354</ele>
        <time>2024-08-31T13:20:11Z</time>
      </trkpt>
      <trkpt lat="42.70889" lon="1.40974">
        <ele>1283.809</ele>
        <time>2024-08-31T13:20:13Z</time>
      </trkpt>
      <trkpt lat="42.70889" lon="1.40977">
        <ele>1284.331</ele>
        <time>2024-08-31T13:20:15Z</time>
      </trkpt>
      <trkpt lat="42.70889" lon="1.40979">
        <ele>1284.036</ele>
        <time>2024-08-31T13:20:17Z</time>
      </trkpt>
      <trkpt lat="42.7089" lon="1.40982">
        <ele>1284.311</ele>
        <time>2024-08-31T13:20:19Z</time>
      </trkpt>
      <trkpt lat="42.7089" lon="1.40985">
        <ele>1285.833</ele>
        <time>2024-08-31T13:20:21Z</time>
      </trkpt>
      <trkpt lat="42.70891" lon="1.40987">
        <ele>1286.397</ele>
        <time>2024-08-31T13:20:23Z</time>
      </trkpt>
      <trkpt lat="42.70891" lon="1.4099">
        <ele>1287.821</ele>
        <time>2024-08-31T13:20:25Z</time>
      </trkpt>
      <trkpt lat="42.70892" lon="1.40992">
        <ele>1287.445</ele>
        <time>2024-08-31T13:20:27Z</time>
      </trkpt>
      <trkpt lat="42.70892" lon="1.40994">
        <ele>1288.525</ele>
        <time>2024-08-31T13:20:29Z</time>
      </trkpt>
      <trkpt lat="42.70893" lon="1.40996">
        <ele>1289.147</ele>
        <time>2024-08-31T13:20:31Z</time>
      </trkpt>
      <trkpt lat="42.70894" lon="1.40999">
        <ele>1289.45</ele>
        <time>2024-08-31T13:20:33Z</time>
      </trkpt>
      <trkpt lat="42.70894" lon="1.41001">
        <ele>1288.673</ele>
        <time>2024-08-31T13:20:35Z</time>
      </trkpt>
      <trkpt lat="42.70895" lon="1.41004">
        <ele>1288.928</ele>
        <time>2024-08-31T13:20:37Z</time>
      </trkpt>
      <trkpt lat="42.70896" lon="1.41007">
        <ele>1290.12</ele>
        <time>2024-08-31T13:20:39Z</time>
      </trkpt>
      <trkpt lat="42.70897" lon="1.4101">
        <ele>1291.308</ele>
        <time>2024-08-31T13:20:41Z</time>
      </trkpt>
      <trkpt lat="42.70897" lon="1.41013">
        <ele>1291.816</ele>
        <time>2024-08-31T13:20:43Z</time>
      </trkpt>
      <trkpt lat="42.70896" lon="1.41016">
        <ele>1292.674</ele>
        <time>2024-08-31T13:20:45Z</time>
      </trkpt>
      <trkpt lat="42.70896" lon="1.4102">
        <ele>1292.184</ele>
        <time>2024-08-31T13:20:47Z</time>
      </trkpt>
      <trkpt lat="42.70896" lon="1.41023">
        <ele>1293.193</ele>
        <time>2024-08-31T13:20:49Z</time>
      </trkpt>
      <trkpt lat="42.70896" lon="1.41026">
        <ele>1293.22</ele>
        <time>2024-08-31T13:20:51Z</time>
      </trkpt>
      <trkpt lat="42.70895" lon="1.41029">
        <ele>1293.119</ele>
        <time>2024-08-31T13:20:53Z</time>
      </trkpt>
      <trkpt lat="42.70895" lon="1.41032">
        <ele>1292.312</ele>
        <time>2024-08-31T13:20:55Z</time>
      </trkpt>
      <trkpt lat="42.70895" lon="1.41034">
        <ele>1292.503</ele>
        <time>2024-08-31T13:20:57Z</time>
      </trkpt>
      <trkpt lat="42.70896" lon="1.41037">
        <ele>1292.947</ele>
        <time>2024-08-31T13:20:59Z</time>
      </trkpt>
      <trkpt lat="42.70897" lon="1.4104">
        <ele>1292.795</ele>
        <time>2024-08-31T13:21:01Z</time>
      </trkpt>
      <trkpt lat="42.70897" lon="1.41042">
        <ele>1292.739</ele>
        <time>2024-08-31T13:21:03Z</time>
      </trkpt>
      <trkpt lat="42.70898" lon="1.41044">
        <ele>1292.852</ele>
        <time>2024-08-31T13:21:05Z</time>
      </trkpt>
      <trkpt lat="42.70898" lon="1.41046">
        <ele>1293.007</ele>
        <time>2024-08-31T13:21:07Z</time>
      </trkpt>
      <trkpt lat="42.70899" lon="1.41047">
        <ele>1292.38</ele>
        <time>2024-08-31T13:21:09Z</time>
      </trkpt>
      <trkpt lat="42.709" lon="1.41049">
        <ele>1292.234</ele>
        <time>2024-08-31T13:21:11Z</time>
      </trkpt>
      <trkpt lat="42.70901" lon="1.41051">
        <ele>1291.894</ele>
        <time>2024-08-31T13:21:13Z</time>
      </trkpt>
      <trkpt lat="42.70903" lon="1.41053">
        <ele>1290.649</ele>
        <time>2024-08-31T13:21:15Z</time>
      </trkpt>
      <trkpt lat="42.70904" lon="1.41054">
        <ele>1290.475</ele>
        <time>2024-08-31T13:21:17Z</time>
      </trkpt>
      <trkpt lat="42.70905" lon="1.41056">
        <ele>1289.914</ele>
        <time>2024-08-31T13:21:19Z</time>
      </trkpt>
      <trkpt lat="42.70905" lon="1.41058">
        <ele>1289.367</ele>
        <time>2024-08-31T13:21:21Z</time>
      </trkpt>
      <trkpt lat="42.70906" lon="1.4106">
        <ele>1288.727</ele>
        <time>2024-08-31T13:21:23Z</time>
      </trkpt>
      <trkpt lat="42.70907" lon="1.41063">
        <ele>1289.453</ele>
        <time>2024-08-31T13:21:25Z</time>
      </trkpt>
      <trkpt lat="42.70908" lon="1.41065">
        <ele>1289.72</ele>
        <time>2024-08-31T13:21:27Z</time>
      </trkpt>
      <trkpt lat="42.70909" lon="1.41067">
        <ele>1289.652</ele>
        <time>2024-08-31T13:21:29Z</time>
      </trkpt>
      <trkpt lat="42.7091" lon="1.41069">
        <ele>1288.831</ele>
        <time>2024-08-31T13:21:31Z</time>
      </trkpt>
      <trkpt lat="42.70911" lon="1.41071">
        <ele>1288.104</ele>
        <time>2024-08-31T13:21:33Z</time>
      </trkpt>
      <trkpt lat="42.70912" lon="1.41074">
        <ele>1288.314</ele>
        <time>2024-08-31T13:21:35Z</time>
      </trkpt>
      <trkpt lat="42.70913" lon="1.41078">
        <ele>1288.465</ele>
        <time>2024-08-31T13:21:37Z</time>
      </trkpt>
      <trkpt lat="42.70913" lon="1.41081">
        <ele>1288.642</ele>
        <time>2024-08-31T13:21:39Z</time>
      </trkpt>
      <trkpt lat="42.70913" lon="1.41083">
        <ele>1288.339</ele>
        <time>2024-08-31T13:21:41Z</time>
      </trkpt>
      <trkpt lat="42.70913" lon="1.41086">
        <ele>1289.735</ele>
        <time>2024-08-31T13:21:43Z</time>
      </trkpt>
      <trkpt lat="42.70914" lon="1.41088">
        <ele>1289.391</ele>
        <time>2024-08-31T13:21:45Z</time>
      </trkpt>
      <trkpt lat="42.70914" lon="1.41091">
        <ele>1288.826</ele>
        <time>2024-08-31T13:21:47Z</time>
      </trkpt>
      <trkpt lat="42.70915" lon="1.41094">
        <ele>1287.504</ele>
        <time>2024-08-31T13:21:49Z</time>
      </trkpt>
      <trkpt lat="42.70915" lon="1.41096">
        <ele>1286.856</ele>
        <time>2024-08-31T13:21:51Z</time>
      </trkpt>
      <trkpt lat="42.70916" lon="1.41098">
        <ele>1286.504</ele>
        <time>2024-08-31T13:21:53Z</time>
      </trkpt>
      <trkpt lat="42.70916" lon="1.41101">
        <ele>1285.709</ele>
        <time>2024-08-31T13:21:55Z</time>
      </trkpt>
      <trkpt lat="42.70916" lon="1.41104">
        <ele>1283.912</ele>
        <time>2024-08-31T13:21:57Z</time>
      </trkpt>
      <trkpt lat="42.70916" lon="1.41107">
        <ele>1283.906</ele>
        <time>2024-08-31T13:21:59Z</time>
      </trkpt>
      <trkpt lat="42.70915" lon="1.4111">
        <ele>1285.199</ele>
        <time>2024-08-31T13:22:01Z</time>
      </trkpt>
      <trkpt lat="42.70914" lon="1.41113">
        <ele>1285.911</ele>
        <time>2024-08-31T13:22:03Z</time>
      </trkpt>
      <trkpt lat="42.70913" lon="1.41115">
        <ele>1286.543</ele>
        <time>2024-08-31T13:22:05Z</time>
      </trkpt>
      <trkpt lat="42.70912" lon="1.41117">
        <ele>1287.235</ele>
        <time>2024-08-31T13:22:07Z</time>
      </trkpt>
      <trkpt lat="42.7091" lon="1.4112">
        <ele>1287.467</ele>
        <time>2024-08-31T13:22:09Z</time>
      </trkpt>
      <trkpt lat="42.70909" lon="1.41122">
        <ele>1287.186</ele>
        <time>2024-08-31T13:22:11Z</time>
      </trkpt>
      <trkpt lat="42.70909" lon="1.41123">
        <ele>1287.818</ele>
        <time>2024-08-31T13:22:13Z</time>
      </trkpt>
      <trkpt lat="42.70909" lon="1.41125">
        <ele>1287.576</ele>
        <time>2024-08-31T13:22:15Z</time>
      </trkpt>
      <trkpt lat="42.70908" lon="1.41127">
        <ele>1288.303</ele>
        <time>2024-08-31T13:22:17Z</time>
      </trkpt>
      <trkpt lat="42.70906" lon="1.41129">
        <ele>1289.027</ele>
        <time>2024-08-31T13:22:19Z</time>
      </trkpt>
      <trkpt lat="42.70906" lon="1.41131">
        <ele>1289.474</ele>
        <time>2024-08-31T13:22:21Z</time>
      </trkpt>
      <trkpt lat="42.70905" lon="1.41133">
        <ele>1288.318</ele>
        <time>2024-08-31T13:22:23Z</time>
      </trkpt>
      <trkpt lat="42.70904" lon="1.41137">
        <ele>1287.325</ele>
        <time>2024-08-31T13:22:25Z</time>
      </trkpt>
      <trkpt lat="42.70903" lon="1.4114">
        <ele>1287.899</ele>
        <time>2024-08-31T13:22:27Z</time>
      </trkpt>
      <trkpt lat="42.70902" lon="1.41142">
        <ele>1290.516</ele>
        <time>2024-08-31T13:22:29Z</time>
      </trkpt>
      <trkpt lat="42.70901" lon="1.41144">
        <ele>1291.913</ele>
        <time>2024-08-31T13:22:31Z</time>
      </trkpt>
      <trkpt lat="42.709" lon="1.41147">
        <ele>1291.279</ele>
        <time>2024-08-31T13:22:33Z</time>
      </trkpt>
      <trkpt lat="42.70899" lon="1.4115">
        <ele>1290.58</ele>
        <time>2024-08-31T13:22:35Z</time>
      </trkpt>
      <trkpt lat="42.70898" lon="1.41152">
        <ele>1292.831</ele>
        <time>2024-08-31T13:22:37Z</time>
      </trkpt>
      <trkpt lat="42.70897" lon="1.41154">
        <ele>1293.098</ele>
        <time>2024-08-31T13:22:39Z</time>
      </trkpt>
      <trkpt lat="42.70896" lon="1.41157">
        <ele>1294.257</ele>
        <time>2024-08-31T13:22:41Z</time>
      </trkpt>
      <trkpt lat="42.70895" lon="1.41161">
        <ele>1293.342</ele>
        <time>2024-08-31T13:22:43Z</time>
      </trkpt>
      <trkpt lat="42.70895" lon="1.41165">
        <ele>1294.666</ele>
        <time>2024-08-31T13:22:45Z</time>
      </trkpt>
      <trkpt lat="42.70895" lon="1.41168">
        <ele>1294.044</ele>
        <time>2024-08-31T13:22:47Z</time>
      </trkpt>
      <trkpt lat="42.70895" lon="1.41171">
        <ele>1293.243</ele>
        <time>2024-08-31T13:22:49Z</time>
      </trkpt>
      <trkpt lat="42.70894" lon="1.41174">
        <ele>1293.526</ele>
        <time>2024-08-31T13:22:51Z</time>
      </trkpt>
      <trkpt lat="42.70894" lon="1.41177">
        <ele>1292.259</ele>
        <time>2024-08-31T13:22:53Z</time>
      </trkpt>
      <trkpt lat="42.70893" lon="1.4118">
        <ele>1292.585</ele>
        <time>2024-08-31T13:22:55Z</time>
      </trkpt>
      <trkpt lat="42.70893" lon="1.41183">
        <ele>1290.121</ele>
        <time>2024-08-31T13:22:57Z</time>
      </trkpt>
      <trkpt lat="42.70893" lon="1.41186">
        <ele>1287.776</ele>
        <time>2024-08-31T13:22:59Z</time>
      </trkpt>
      <trkpt lat="42.70894" lon="1.41189">
        <ele>1286.468</ele>
        <time>2024-08-31T13:23:01Z</time>
      </trkpt>
      <trkpt lat="42.70894" lon="1.41191">
        <ele>1286.129</ele>
        <time>2024-08-31T13:23:03Z</time>
      </trkpt>
      <trkpt lat="42.70893" lon="1.41195">
        <ele>1285.795</ele>
        <time>2024-08-31T13:23:05Z</time>
      </trkpt>
      <trkpt lat="42.70893" lon="1.41198">
        <ele>1285.809</ele>
        <time>2024-08-31T13:23:07Z</time>
      </trkpt>
      <trkpt lat="42.70892" lon="1.41201">
        <ele>1285.975</ele>
        <time>2024-08-31T13:23:09Z</time>
      </trkpt>
      <trkpt lat="42.70891" lon="1.41203">
        <ele>1286.507</ele>
        <time>2024-08-31T13:23:11Z</time>
      </trkpt>
      <trkpt lat="42.70889" lon="1.41205">
        <ele>1286.196</ele>
        <time>2024-08-31T13:23:13Z</time>
      </trkpt>
      <trkpt lat="42.70888" lon="1.41207">
        <ele>1286.068</ele>
        <time>2024-08-31T13:23:15Z</time>
      </trkpt>
      <trkpt lat="42.70888" lon="1.4121">
        <ele>1285.254</ele>
        <time>2024-08-31T13:23:17Z</time>
      </trkpt>
      <trkpt lat="42.70888" lon="1.41212">
        <ele>1286.07</ele>
        <time>2024-08-31T13:23:19Z</time>
      </trkpt>
      <trkpt lat="42.70888" lon="1.41215">
        <ele>1286.333</ele>
        <time>2024-08-31T13:23:21Z</time>
      </trkpt>
      <trkpt lat="42.70889" lon="1.41219">
        <ele>1287.118</ele>
        <time>2024-08-31T13:23:23Z</time>
      </trkpt>
      <trkpt lat="42.70888" lon="1.41222">
        <ele>1286.638</ele>
        <time>2024-08-31T13:23:25Z</time>
      </trkpt>
      <trkpt lat="42.70888" lon="1.41225">
        <ele>1286.03</ele>
        <time>2024-08-31T13:23:27Z</time>
      </trkpt>
      <trkpt lat="42.70888" lon="1.41228">
        <ele>1285.249</ele>
        <time>2024-08-31T13:23:29Z</time>
      </trkpt>
      <trkpt lat="42.70887" lon="1.41231">
        <ele>1283.027</ele>
        <time>2024-08-31T13:23:31Z</time>
      </trkpt>
      <trkpt lat="42.70886" lon="1.41233">
        <ele>1282.096</ele>
        <time>2024-08-31T13:23:33Z</time>
      </trkpt>
      <trkpt lat="42.70885" lon="1.41236">
        <ele>1281.038</ele>
        <time>2024-08-31T13:23:35Z</time>
      </trkpt>
      <trkpt lat="42.70885" lon="1.41238">
        <ele>1281.475</ele>
        <time>2024-08-31T13:23:37Z</time>
      </trkpt>
      <trkpt lat="42.70885" lon="1.4124">
        <ele>1281.069</ele>
        <time>2024-08-31T13:23:39Z</time>
      </trkpt>
      <trkpt lat="42.70885" lon="1.41242">
        <ele>1281.44</ele>
        <time>2024-08-31T13:23:41Z</time>
      </trkpt>
      <trkpt lat="42.70885" lon="1.41245">
        <ele>1280.408</ele>
        <time>2024-08-31T13:23:43Z</time>
      </trkpt>
      <trkpt lat="42.70885" lon="1.41247">
        <ele>1281.591</ele>
        <time>2024-08-31T13:23:45Z</time>
      </trkpt>
      <trkpt lat="42.70885" lon="1.41249">
        <ele>1280.531</ele>
        <time>2024-08-31T13:23:47Z</time>
      </trkpt>
      <trkpt lat="42.70885" lon="1.41252">
        <ele>1279.997</ele>
        <time>2024-08-31T13:23:49Z</time>
      </trkpt>
      <trkpt lat="42.70884" lon="1.41255">
        <ele>1281.809</ele>
        <time>2024-08-31T13:23:51Z</time>
      </trkpt>
      <trkpt lat="42.70884" lon="1.41258">
        <ele>1281.614</ele>
        <time>2024-08-31T13:23:53Z</time>
      </trkpt>
      <trkpt lat="42.70884" lon="1.41261">
        <ele>1282.634</ele>
        <time>2024-08-31T13:23:55Z</time>
      </trkpt>
      <trkpt lat="42.70883" lon="1.41264">
        <ele>1284.043</ele>
        <time>2024-08-31T13:23:57Z</time>
      </trkpt>
      <trkpt lat="42.70884" lon="1.41267">
        <ele>1283.383</ele>
        <time>2024-08-31T13:23:59Z</time>
      </trkpt>
      <trkpt lat="42.70884" lon="1.4127">
        <ele>1283.029</ele>
        <time>2024-08-31T13:24:01Z</time>
      </trkpt>
      <trkpt lat="42.70884" lon="1.41273">
        <ele>1283.01</ele>
        <time>2024-08-31T13:24:03Z</time>
      </trkpt>
      <trkpt lat="42.70884" lon="1.41275">
        <ele>1281.732</ele>
        <time>2024-08-31T13:24:05Z</time>
      </trkpt>
      <trkpt lat="42.70885" lon="1.41277">
        <ele>1282.067</ele>
        <time>2024-08-31T13:24:07Z</time>
      </trkpt>
      <trkpt lat="42.70884" lon="1.4128">
        <ele>1281.559</ele>
        <time>2024-08-31T13:24:09Z</time>
      </trkpt>
      <trkpt lat="42.70885" lon="1.41282">
        <ele>1282.209</ele>
        <time>2024-08-31T13:24:11Z</time>
      </trkpt>
      <trkpt lat="42.70885" lon="1.41284">
        <ele>1281.548</ele>
        <time>2024-08-31T13:24:13Z</time>
      </trkpt>
      <trkpt lat="42.70885" lon="1.41287">
        <ele>1280.046</ele>
        <time>2024-08-31T13:24:15Z</time>
      </trkpt>
      <trkpt lat="42.70884" lon="1.41291">
        <ele>1279.665</ele>
        <time>2024-08-31T13:24:17Z</time>
      </trkpt>
      <trkpt lat="42.70883" lon="1.41294">
        <ele>1279.216</ele>
        <time>2024-08-31T13:24:19Z</time>
      </trkpt>
      <trkpt lat="42.70883" lon="1.41297">
        <ele>1277.491</ele>
        <time>2024-08-31T13:24:21Z</time>
      </trkpt>
      <trkpt lat="42.70884" lon="1.41299">
        <ele>1277.517</ele>
        <time>2024-08-31T13:24:23Z</time>
      </trkpt>
      <trkpt lat="42.70885" lon="1.41301">
        <ele>1277.171</ele>
        <time>2024-08-31T13:24:25Z</time>
      </trkpt>
      <trkpt lat="42.70885" lon="1.41304">
        <ele>1275.343</ele>
        <time>2024-08-31T13:24:27Z</time>
      </trkpt>
      <trkpt lat="42.70884" lon="1.41307">
        <ele>1275.609</ele>
        <time>2024-08-31T13:24:29Z</time>
      </trkpt>
      <trkpt lat="42.70882" lon="1.41309">
        <ele>1275.234</ele>
        <time>2024-08-31T13:24:31Z</time>
      </trkpt>
      <trkpt lat="42.70881" lon="1.4131">
        <ele>1274.601</ele>
        <time>2024-08-31T13:24:33Z</time>
      </trkpt>
      <trkpt lat="42.70881" lon="1.41311">
        <ele>1273.876</ele>
        <time>2024-08-31T13:24:35Z</time>
      </trkpt>
      <trkpt lat="42.7088" lon="1.41313">
        <ele>1275.052</ele>
        <time>2024-08-31T13:24:37Z</time>
      </trkpt>
      <trkpt lat="42.7088" lon="1.41314">
        <ele>1276.618</ele>
        <time>2024-08-31T13:24:39Z</time>
      </trkpt>
      <trkpt lat="42.7088" lon="1.41314">
        <ele>1276.622</ele>
        <time>2024-08-31T13:24:41Z</time>
      </trkpt>
      <trkpt lat="42.7088" lon="1.41314">
        <ele>1276.624</ele>
        <time>2024-08-31T13:24:43Z</time>
      </trkpt>
      <trkpt lat="42.7088" lon="1.41314">
        <ele>1276.618</ele>
        <time>2024-08-31T13:24:45Z</time>
      </trkpt>
      <trkpt lat="42.7088" lon="1.41314">
        <ele>1276.621</ele>
        <time>2024-08-31T13:24:47Z</time>
      </trkpt>
      <trkpt lat="42.7088" lon="1.41314">
        <ele>1276.606</ele>
        <time>2024-08-31T13:24:49Z</time>
      </trkpt>
      <trkpt lat="42.7088" lon="1.41314">
        <ele>1276.592</ele>
        <time>2024-08-31T13:24:51Z</time>
      </trkpt>
      <trkpt lat="42.7088" lon="1.41314">
        <ele>1276.368</ele>
        <time>2024-08-31T13:24:53Z</time>
      </trkpt>
      <trkpt lat="42.7088" lon="1.41314">
        <ele>1276.355</ele>
        <time>2024-08-31T13:24:55Z</time>
      </trkpt>
      <trkpt lat="42.7088" lon="1.41314">
        <ele>1276.351</ele>
        <time>2024-08-31T13:24:57Z</time>
      </trkpt>
      <trkpt lat="42.7088" lon="1.41314">
        <ele>1275.816</ele>
        <time>2024-08-31T13:24:59Z</time>
      </trkpt>
      <trkpt lat="42.7088" lon="1.41314">
        <ele>1276.887</ele>
        <time>2024-08-31T13:25:01Z</time>
      </trkpt>
      <trkpt lat="42.7088" lon="1.41314">
        <ele>1276.876</ele>
        <time>2024-08-31T13:25:03Z</time>
      </trkpt>
      <trkpt lat="42.7088" lon="1.41314">
        <ele>1276.879</ele>
        <time>2024-08-31T13:25:05Z</time>
      </trkpt>
      <trkpt lat="42.7088" lon="1.41314">
        <ele>1276.876</ele>
        <time>2024-08-31T13:25:07Z</time>
      </trkpt>
      <trkpt lat="42.7088" lon="1.41314">
        <ele>1276.876</ele>
        <time>2024-08-31T13:25:09Z</time>
      </trkpt>
      <trkpt lat="42.7088" lon="1.41314">
        <ele>1276.872</ele>
        <time>2024-08-31T13:25:11Z</time>
      </trkpt>
      <trkpt lat="42.7088" lon="1.41314">
        <ele>1276.867</ele>
        <time>2024-08-31T13:25:13Z</time>
      </trkpt>
      <trkpt lat="42.7088" lon="1.41314">
        <ele>1276.86</ele>
        <time>2024-08-31T13:25:15Z</time>
      </trkpt>
      <trkpt lat="42.7088" lon="1.41314">
        <ele>1276.856</ele>
        <time>2024-08-31T13:25:17Z</time>
      </trkpt>
      <trkpt lat="42.7088" lon="1.41314">
        <ele>1276.866</ele>
        <time>2024-08-31T13:25:19Z</time>
      </trkpt>
      <trkpt lat="42.7088" lon="1.41314">
        <ele>1276.862</ele>
        <time>2024-08-31T13:25:21Z</time>
      </trkpt>
      <trkpt lat="42.7088" lon="1.41314">
        <ele>1276.861</ele>
        <time>2024-08-31T13:25:23Z</time>
      </trkpt>
      <trkpt lat="42.7088" lon="1.41314">
        <ele>1276.856</ele>
        <time>2024-08-31T13:25:25Z</time>
      </trkpt>
      <trkpt lat="42.7088" lon="1.41314">
        <ele>1276.372</ele>
        <time>2024-08-31T13:25:27Z</time>
      </trkpt>
      <trkpt lat="42.7088" lon="1.41314">
        <ele>1276.355</ele>
        <time>2024-08-31T13:25:29Z</time>
      </trkpt>
      <trkpt lat="42.7088" lon="1.41314">
        <ele>1275.667</ele>
        <time>2024-08-31T13:25:31Z</time>
      </trkpt>
      <trkpt lat="42.70881" lon="1.41314">
        <ele>1275.656</ele>
        <time>2024-08-31T13:25:33Z</time>
      </trkpt>
      <trkpt lat="42.70881" lon="1.41314">
        <ele>1275.652</ele>
        <time>2024-08-31T13:25:35Z</time>
      </trkpt>
      <trkpt lat="42.70881" lon="1.41314">
        <ele>1275.647</ele>
        <time>2024-08-31T13:25:37Z</time>
      </trkpt>
      <trkpt lat="42.70881" lon="1.41314">
        <ele>1275.626</ele>
        <time>2024-08-31T13:25:39Z</time>
      </trkpt>
      <trkpt lat="42.70881" lon="1.41314">
        <ele>1275.616</ele>
        <time>2024-08-31T13:25:41Z</time>
      </trkpt>
      <trkpt lat="42.70881" lon="1.41314">
        <ele>1274.959</ele>
        <time>2024-08-31T13:25:43Z</time>
      </trkpt>
      <trkpt lat="42.70881" lon="1.41315">
        <ele>1273.785</ele>
        <time>2024-08-31T13:25:45Z</time>
      </trkpt>
      <trkpt lat="42.70881" lon="1.41316">
        <ele>1273.444</ele>
        <time>2024-08-31T13:25:47Z</time>
      </trkpt>
      <trkpt lat="42.70881" lon="1.41317">
        <ele>1272.456</ele>
        <time>2024-08-31T13:25:49Z</time>
      </trkpt>
      <trkpt lat="42.70881" lon="1.41319">
        <ele>1271.854</ele>
        <time>2024-08-31T13:25:51Z</time>
      </trkpt>
      <trkpt lat="42.70881" lon="1.41321">
        <ele>1271.517</ele>
        <time>2024-08-31T13:25:53Z</time>
      </trkpt>
      <trkpt lat="42.7088" lon="1.41323">
        <ele>1271.372</ele>
        <time>2024-08-31T13:25:55Z</time>
      </trkpt>
      <trkpt lat="42.7088" lon="1.41325">
        <ele>1272.554</ele>
        <time>2024-08-31T13:25:57Z</time>
      </trkpt>
      <trkpt lat="42.7088" lon="1.41327">
        <ele>1273.067</ele>
        <time>2024-08-31T13:25:59Z</time>
      </trkpt>
      <trkpt lat="42.70879" lon="1.41329">
        <ele>1272.204</ele>
        <time>2024-08-31T13:26:01Z</time>
      </trkpt>
      <trkpt lat="42.70878" lon="1.41331">
        <ele>1271.673</ele>
        <time>2024-08-31T13:26:03Z</time>
      </trkpt>
      <trkpt lat="42.70877" lon="1.41333">
        <ele>1270.307</ele>
        <time>2024-08-31T13:26:05Z</time>
      </trkpt>
      <trkpt lat="42.70876" lon="1.41335">
        <ele>1269.437</ele>
        <time>2024-08-31T13:26:07Z</time>
      </trkpt>
      <trkpt lat="42.70875" lon="1.41336">
        <ele>1268.978</ele>
        <time>2024-08-31T13:26:09Z</time>
      </trkpt>
      <trkpt lat="42.70875" lon="1.41338">
        <ele>1269.979</ele>
        <time>2024-08-31T13:26:11Z</time>
      </trkpt>
      <trkpt lat="42.70875" lon="1.4134">
        <ele>1271.247</ele>
        <time>2024-08-31T13:26:13Z</time>
      </trkpt>
      <trkpt lat="42.70875" lon="1.41342">
        <ele>1269.187</ele>
        <time>2024-08-31T13:26:15Z</time>
      </trkpt>
      <trkpt lat="42.70876" lon="1.41344">
        <ele>1268.874</ele>
        <time>2024-08-31T13:26:17Z</time>
      </trkpt>
      <trkpt lat="42.70876" lon="1.41346">
        <ele>1268.041</ele>
        <time>2024-08-31T13:26:19Z</time>
      </trkpt>
      <trkpt lat="42.70877" lon="1.41348">
        <ele>1267.259</ele>
        <time>2024-08-31T13:26:21Z</time>
      </trkpt>
      <trkpt lat="42.70877" lon="1.41349">
        <ele>1267.427</ele>
        <time>2024-08-31T13:26:23Z</time>
      </trkpt>
      <trkpt lat="42.70877" lon="1.41352">
        <ele>1267.383</ele>
        <time>2024-08-31T13:26:25Z</time>
      </trkpt>
      <trkpt lat="42.70876" lon="1.41355">
        <ele>1266.322</ele>
        <time>2024-08-31T13:26:27Z</time>
      </trkpt>
      <trkpt lat="42.70876" lon="1.41357">
        <ele>1265.846</ele>
        <time>2024-08-31T13:26:29Z</time>
      </trkpt>
      <trkpt lat="42.70876" lon="1.41359">
        <ele>1263.12</ele>
        <time>2024-08-31T13:26:31Z</time>
      </trkpt>
      <trkpt lat="42.70876" lon="1.41361">
        <ele>1262.858</ele>
        <time>2024-08-31T13:26:33Z</time>
      </trkpt>
      <trkpt lat="42.70877" lon="1.41363">
        <ele>1262.946</ele>
        <time>2024-08-31T13:26:35Z</time>
      </trkpt>
      <trkpt lat="42.70878" lon="1.41365">
        <ele>1263.563</ele>
        <time>2024-08-31T13:26:37Z</time>
      </trkpt>
      <trkpt lat="42.70879" lon="1.41367">
        <ele>1263.769</ele>
        <time>2024-08-31T13:26:39Z</time>
      </trkpt>
      <trkpt lat="42.70879" lon="1.41369">
        <ele>1263.626</ele>
        <time>2024-08-31T13:26:41Z</time>
      </trkpt>
      <trkpt lat="42.7088" lon="1.4137">
        <ele>1262.972</ele>
        <time>2024-08-31T13:26:43Z</time>
      </trkpt>
      <trkpt lat="42.7088" lon="1.41372">
        <ele>1262.547</ele>
        <time>2024-08-31T13:26:45Z</time>
      </trkpt>
      <trkpt lat="42.7088" lon="1.41373">
        <ele>1263.524</ele>
        <time>2024-08-31T13:26:47Z</time>
      </trkpt>
      <trkpt lat="42.7088" lon="1.41375">
        <ele>1263.224</ele>
        <time>2024-08-31T13:26:49Z</time>
      </trkpt>
      <trkpt lat="42.70881" lon="1.41376">
        <ele>1264.105</ele>
        <time>2024-08-31T13:26:51Z</time>
      </trkpt>
      <trkpt lat="42.70881" lon="1.41377">
        <ele>1264.35</ele>
        <time>2024-08-31T13:26:53Z</time>
      </trkpt>
      <trkpt lat="42.70881" lon="1.41378">
        <ele>1264.479</ele>
        <time>2024-08-31T13:26:55Z</time>
      </trkpt>
      <trkpt lat="42.70881" lon="1.41379">
        <ele>1264.559</ele>
        <time>2024-08-31T13:26:57Z</time>
      </trkpt>
      <trkpt lat="42.70881" lon="1.4138">
        <ele>1264.184</ele>
        <time>2024-08-31T13:26:59Z</time>
      </trkpt>
      <trkpt lat="42.70881" lon="1.41382">
        <ele>1263.908</ele>
        <time>2024-08-31T13:27:01Z</time>
      </trkpt>
      <trkpt lat="42.70881" lon="1.41383">
        <ele>1264.176</ele>
        <time>2024-08-31T13:27:03Z</time>
      </trkpt>
      <trkpt lat="42.7088" lon="1.41385">
        <ele>1263.83</ele>
        <time>2024-08-31T13:27:05Z</time>
      </trkpt>
      <trkpt lat="42.70879" lon="1.41387">
        <ele>1264.505</ele>
        <time>2024-08-31T13:27:07Z</time>
      </trkpt>
      <trkpt lat="42.70878" lon="1.41389">
        <ele>1263.627</ele>
        <time>2024-08-31T13:27:09Z</time>
      </trkpt>
      <trkpt lat="42.70878" lon="1.41391">
        <ele>1263.748</ele>
        <time>2024-08-31T13:27:11Z</time>
      </trkpt>
      <trkpt lat="42.70878" lon="1.41392">
        <ele>1263.881</ele>
        <time>2024-08-31T13:27:13Z</time>
      </trkpt>
      <trkpt lat="42.70877" lon="1.41394">
        <ele>1263.564</ele>
        <time>2024-08-31T13:27:15Z</time>
      </trkpt>
      <trkpt lat="42.70876" lon="1.41396">
        <ele>1262.767</ele>
        <time>2024-08-31T13:27:17Z</time>
      </trkpt>
      <trkpt lat="42.70875" lon="1.41398">
        <ele>1262.343</ele>
        <time>2024-08-31T13:27:19Z</time>
      </trkpt>
      <trkpt lat="42.70875" lon="1.41399">
        <ele>1262.304</ele>
        <time>2024-08-31T13:27:21Z</time>
      </trkpt>
      <trkpt lat="42.70874" lon="1.41401">
        <ele>1260.802</ele>
        <time>2024-08-31T13:27:23Z</time>
      </trkpt>
      <trkpt lat="42.70874" lon="1.41403">
        <ele>1261.463</ele>
        <time>2024-08-31T13:27:25Z</time>
      </trkpt>
      <trkpt lat="42.70874" lon="1.41404">
        <ele>1261.513</ele>
        <time>2024-08-31T13:27:27Z</time>
      </trkpt>
      <trkpt lat="42.70873" lon="1.41406">
        <ele>1263.035</ele>
        <time>2024-08-31T13:27:29Z</time>
      </trkpt>
      <trkpt lat="42.70873" lon="1.41407">
        <ele>1260.871</ele>
        <time>2024-08-31T13:27:31Z</time>
      </trkpt>
      <trkpt lat="42.70872" lon="1.41408">
        <ele>1260.72</ele>
        <time>2024-08-31T13:27:33Z</time>
      </trkpt>
      <trkpt lat="42.70872" lon="1.4141">
        <ele>1261.032</ele>
        <time>2024-08-31T13:27:35Z</time>
      </trkpt>
      <trkpt lat="42.70872" lon="1.41411">
        <ele>1260.012</ele>
        <time>2024-08-31T13:27:37Z</time>
      </trkpt>
      <trkpt lat="42.70872" lon="1.41413">
        <ele>1259.643</ele>
        <time>2024-08-31T13:27:39Z</time>
      </trkpt>
      <trkpt lat="42.70871" lon="1.41415">
        <ele>1260.658</ele>
        <time>2024-08-31T13:27:41Z</time>
      </trkpt>
      <trkpt lat="42.7087" lon="1.41418">
        <ele>1261.566</ele>
        <time>2024-08-31T13:27:43Z</time>
      </trkpt>
      <trkpt lat="42.7087" lon="1.41419">
        <ele>1261.697</ele>
        <time>2024-08-31T13:27:45Z</time>
      </trkpt>
      <trkpt lat="42.7087" lon="1.41421">
        <ele>1260.48</ele>
        <time>2024-08-31T13:27:47Z</time>
      </trkpt>
      <trkpt lat="42.7087" lon="1.41424">
        <ele>1260.316</ele>
        <time>2024-08-31T13:27:49Z</time>
      </trkpt>
      <trkpt lat="42.7087" lon="1.41427">
        <ele>1258.722</ele>
        <time>2024-08-31T13:27:51Z</time>
      </trkpt>
      <trkpt lat="42.7087" lon="1.4143">
        <ele>1259.508</ele>
        <time>2024-08-31T13:27:53Z</time>
      </trkpt>
      <trkpt lat="42.7087" lon="1.41433">
        <ele>1259.154</ele>
        <time>2024-08-31T13:27:55Z</time>
      </trkpt>
      <trkpt lat="42.70871" lon="1.41435">
        <ele>1259.073</ele>
        <time>2024-08-31T13:27:57Z</time>
      </trkpt>
      <trkpt lat="42.70871" lon="1.41438">
        <ele>1257.788</ele>
        <time>2024-08-31T13:27:59Z</time>
      </trkpt>
      <trkpt lat="42.70872" lon="1.4144">
        <ele>1256.226</ele>
        <time>2024-08-31T13:28:01Z</time>
      </trkpt>
      <trkpt lat="42.70872" lon="1.41442">
        <ele>1255.881</ele>
        <time>2024-08-31T13:28:03Z</time>
      </trkpt>
      <trkpt lat="42.70872" lon="1.41445">
        <ele>1255.531</ele>
        <time>2024-08-31T13:28:05Z</time>
      </trkpt>
      <trkpt lat="42.70872" lon="1.41447">
        <ele>1254.619</ele>
        <time>2024-08-31T13:28:07Z</time>
      </trkpt>
      <trkpt lat="42.70872" lon="1.41448">
        <ele>1254.873</ele>
        <time>2024-08-31T13:28:09Z</time>
      </trkpt>
      <trkpt lat="42.70872" lon="1.41448">
        <ele>1254.861</ele>
        <time>2024-08-31T13:28:11Z</time>
      </trkpt>
      <trkpt lat="42.70872" lon="1.41448">
        <ele>1254.855</ele>
        <time>2024-08-31T13:28:13Z</time>
      </trkpt>
      <trkpt lat="42.70872" lon="1.41448">
        <ele>1253.804</ele>
        <time>2024-08-31T13:28:15Z</time>
      </trkpt>
      <trkpt lat="42.70873" lon="1.4145">
        <ele>1254.464</ele>
        <time>2024-08-31T13:28:17Z</time>
      </trkpt>
      <trkpt lat="42.70873" lon="1.41451">
        <ele>1253.054</ele>
        <time>2024-08-31T13:28:19Z</time>
      </trkpt>
      <trkpt lat="42.70873" lon="1.41452">
        <ele>1252.612</ele>
        <time>2024-08-31T13:28:21Z</time>
      </trkpt>
      <trkpt lat="42.70873" lon="1.41453">
        <ele>1252.252</ele>
        <time>2024-08-31T13:28:23Z</time>
      </trkpt>
      <trkpt lat="42.70874" lon="1.41455">
        <ele>1252.284</ele>
        <time>2024-08-31T13:28:25Z</time>
      </trkpt>
      <trkpt lat="42.70875" lon="1.41456">
        <ele>1251.788</ele>
        <time>2024-08-31T13:28:27Z</time>
      </trkpt>
      <trkpt lat="42.70876" lon="1.41457">
        <ele>1250.557</ele>
        <time>2024-08-31T13:28:29Z</time>
      </trkpt>
      <trkpt lat="42.70878" lon="1.41459">
        <ele>1250.46</ele>
        <time>2024-08-31T13:28:31Z</time>
      </trkpt>
      <trkpt lat="42.70878" lon="1.4146">
        <ele>1250.513</ele>
        <time>2024-08-31T13:28:33Z</time>
      </trkpt>
      <trkpt lat="42.70879" lon="1.41463">
        <ele>1251.261</ele>
        <time>2024-08-31T13:28:35Z</time>
      </trkpt>
      <trkpt lat="42.70879" lon="1.41465">
        <ele>1251.089</ele>
        <time>2024-08-31T13:28:37Z</time>
      </trkpt>
      <trkpt lat="42.7088" lon="1.41467">
        <ele>1251.081</ele>
        <time>2024-08-31T13:28:39Z</time>
      </trkpt>
      <trkpt lat="42.7088" lon="1.41469">
        <ele>1251.208</ele>
        <time>2024-08-31T13:28:41Z</time>
      </trkpt>
      <trkpt lat="42.70881" lon="1.41471">
        <ele>1252.037</ele>
        <time>2024-08-31T13:28:43Z</time>
      </trkpt>
      <trkpt lat="42.70882" lon="1.41473">
        <ele>1251.435</ele>
        <time>2024-08-31T13:28:45Z</time>
      </trkpt>
      <trkpt lat="42.70882" lon="1.41474">
        <ele>1251.267</ele>
        <time>2024-08-31T13:28:47Z</time>
      </trkpt>
      <trkpt lat="42.70883" lon="1.41476">
        <ele>1253.022</ele>
        <time>2024-08-31T13:28:49Z</time>
      </trkpt>
      <trkpt lat="42.70883" lon="1.41478">
        <ele>1252.801</ele>
        <time>2024-08-31T13:28:51Z</time>
      </trkpt>
      <trkpt lat="42.70883" lon="1.41479">
        <ele>1253.931</ele>
        <time>2024-08-31T13:28:53Z</time>
      </trkpt>
      <trkpt lat="42.70883" lon="1.41481">
        <ele>1253.878</ele>
        <time>2024-08-31T13:28:55Z</time>
      </trkpt>
      <trkpt lat="42.70883" lon="1.41482">
        <ele>1254.497</ele>
        <time>2024-08-31T13:28:57Z</time>
      </trkpt>
      <trkpt lat="42.70882" lon="1.41484">
        <ele>1251.587</ele>
        <time>2024-08-31T13:28:59Z</time>
      </trkpt>
      <trkpt lat="42.70882" lon="1.41487">
        <ele>1251.6</ele>
        <time>2024-08-31T13:29:01Z</time>
      </trkpt>
      <trkpt lat="42.70882" lon="1.41489">
        <ele>1251.237</ele>
        <time>2024-08-31T13:29:03Z</time>
      </trkpt>
      <trkpt lat="42.70883" lon="1.41491">
        <ele>1250.641</ele>
        <time>2024-08-31T13:29:05Z</time>
      </trkpt>
      <trkpt lat="42.70883" lon="1.41494">
        <ele>1251.564</ele>
        <time>2024-08-31T13:29:07Z</time>
      </trkpt>
      <trkpt lat="42.70883" lon="1.41497">
        <ele>1251.441</ele>
        <time>2024-08-31T13:29:09Z</time>
      </trkpt>
      <trkpt lat="42.70882" lon="1.41501">
        <ele>1250.424</ele>
        <time>2024-08-31T13:29:11Z</time>
      </trkpt>
      <trkpt lat="42.70882" lon="1.41503">
        <ele>1249.783</ele>
        <time>2024-08-31T13:29:13Z</time>
      </trkpt>
      <trkpt lat="42.70882" lon="1.41505">
        <ele>1249.178</ele>
        <time>2024-08-31T13:29:15Z</time>
      </trkpt>
      <trkpt lat="42.70883" lon="1.41507">
        <ele>1249.534</ele>
        <time>2024-08-31T13:29:17Z</time>
      </trkpt>
      <trkpt lat="42.70884" lon="1.4151">
        <ele>1250.136</ele>
        <time>2024-08-31T13:29:19Z</time>
      </trkpt>
      <trkpt lat="42.70884" lon="1.41514">
        <ele>1249.735</ele>
        <time>2024-08-31T13:29:21Z</time>
      </trkpt>
      <trkpt lat="42.70885" lon="1.41516">
        <ele>1249.85</ele>
        <time>2024-08-31T13:29:23Z</time>
      </trkpt>
      <trkpt lat="42.70885" lon="1.41518">
        <ele>1249.407</ele>
        <time>2024-08-31T13:29:25Z</time>
      </trkpt>
      <trkpt lat="42.70886" lon="1.4152">
        <ele>1249.287</ele>
        <time>2024-08-31T13:29:27Z</time>
      </trkpt>
      <trkpt lat="42.70886" lon="1.41521">
        <ele>1249.652</ele>
        <time>2024-08-31T13:29:29Z</time>
      </trkpt>
      <trkpt lat="42.70886" lon="1.41522">
        <ele>1250.518</ele>
        <time>2024-08-31T13:29:31Z</time>
      </trkpt>
      <trkpt lat="42.70886" lon="1.41522">
        <ele>1251.283</ele>
        <time>2024-08-31T13:29:33Z</time>
      </trkpt>
      <trkpt lat="42.70886" lon="1.41522">
        <ele>1250.227</ele>
        <time>2024-08-31T13:29:35Z</time>
      </trkpt>
      <trkpt lat="42.70886" lon="1.41522">
        <ele>1250.795</ele>
        <time>2024-08-31T13:29:37Z</time>
      </trkpt>
      <trkpt lat="42.70886" lon="1.41522">
        <ele>1251.367</ele>
        <time>2024-08-31T13:29:39Z</time>
      </trkpt>
      <trkpt lat="42.70886" lon="1.41522">
        <ele>1251.882</ele>
        <time>2024-08-31T13:29:41Z</time>
      </trkpt>
      <trkpt lat="42.70886" lon="1.41522">
        <ele>1251.932</ele>
        <time>2024-08-31T13:29:43Z</time>
      </trkpt>
      <trkpt lat="42.70886" lon="1.41522">
        <ele>1251.934</ele>
        <time>2024-08-31T13:29:45Z</time>
      </trkpt>
      <trkpt lat="42.70886" lon="1.41522">
        <ele>1251.933</ele>
        <time>2024-08-31T13:29:47Z</time>
      </trkpt>
      <trkpt lat="42.70886" lon="1.41522">
        <ele>1251.926</ele>
        <time>2024-08-31T13:29:49Z</time>
      </trkpt>
      <trkpt lat="42.70886" lon="1.41522">
        <ele>1251.921</ele>
        <time>2024-08-31T13:29:51Z</time>
      </trkpt>
      <trkpt lat="42.70886" lon="1.41522">
        <ele>1251.932</ele>
        <time>2024-08-31T13:29:53Z</time>
      </trkpt>
      <trkpt lat="42.70886" lon="1.41522">
        <ele>1251.941</ele>
        <time>2024-08-31T13:29:55Z</time>
      </trkpt>
      <trkpt lat="42.70886" lon="1.41522">
        <ele>1251.933</ele>
        <time>2024-08-31T13:29:57Z</time>
      </trkpt>
      <trkpt lat="42.70886" lon="1.41522">
        <ele>1251.935</ele>
        <time>2024-08-31T13:29:59Z</time>
      </trkpt>
      <trkpt lat="42.70886" lon="1.41522">
        <ele>1251.929</ele>
        <time>2024-08-31T13:30:01Z</time>
      </trkpt>
      <trkpt lat="42.70886" lon="1.41522">
        <ele>1251.908</ele>
        <time>2024-08-31T13:30:03Z</time>
      </trkpt>
      <trkpt lat="42.70886" lon="1.41522">
        <ele>1251.89</ele>
        <time>2024-08-31T13:30:05Z</time>
      </trkpt>
      <trkpt lat="42.70886" lon="1.41522">
        <ele>1251.883</ele>
        <time>2024-08-31T13:30:07Z</time>
      </trkpt>
      <trkpt lat="42.70886" lon="1.41522">
        <ele>1251.877</ele>
        <time>2024-08-31T13:30:09Z</time>
      </trkpt>
      <trkpt lat="42.70886" lon="1.41522">
        <ele>1251.874</ele>
        <time>2024-08-31T13:30:11Z</time>
      </trkpt>
      <trkpt lat="42.70886" lon="1.41522">
        <ele>1251.875</ele>
        <time>2024-08-31T13:30:13Z</time>
      </trkpt>
      <trkpt lat="42.70886" lon="1.41522">
        <ele>1251.424</ele>
        <time>2024-08-31T13:30:15Z</time>
      </trkpt>
      <trkpt lat="42.70886" lon="1.41522">
        <ele>1251.417</ele>
        <time>2024-08-31T13:30:17Z</time>
      </trkpt>
      <trkpt lat="42.70886" lon="1.41522">
        <ele>1251.407</ele>
        <time>2024-08-31T13:30:19Z</time>
      </trkpt>
      <trkpt lat="42.70886" lon="1.41522">
        <ele>1251.391</ele>
        <time>2024-08-31T13:30:21Z</time>
      </trkpt>
      <trkpt lat="42.70886" lon="1.41522">
        <ele>1251.38</ele>
        <time>2024-08-31T13:30:23Z</time>
      </trkpt>
      <trkpt lat="42.70886" lon="1.41522">
        <ele>1251.058</ele>
        <time>2024-08-31T13:30:25Z</time>
      </trkpt>
      <trkpt lat="42.70886" lon="1.41522">
        <ele>1251.06</ele>
        <time>2024-08-31T13:30:27Z</time>
      </trkpt>
      <trkpt lat="42.70886" lon="1.41522">
        <ele>1251.07</ele>
        <time>2024-08-31T13:30:29Z</time>
      </trkpt>
      <trkpt lat="42.70886" lon="1.41522">
        <ele>1251.54</ele>
        <time>2024-08-31T13:30:31Z</time>
      </trkpt>
      <trkpt lat="42.70886" lon="1.41522">
        <ele>1251.532</ele>
        <time>2024-08-31T13:30:33Z</time>
      </trkpt>
      <trkpt lat="42.70886" lon="1.41522">
        <ele>1251.531</ele>
        <time>2024-08-31T13:30:35Z</time>
      </trkpt>
      <trkpt lat="42.70886" lon="1.41522">
        <ele>1251.534</ele>
        <time>2024-08-31T13:30:37Z</time>
      </trkpt>
      <trkpt lat="42.70886" lon="1.41522">
        <ele>1251.655</ele>
        <time>2024-08-31T13:30:39Z</time>
      </trkpt>
      <trkpt lat="42.70886" lon="1.41522">
        <ele>1251.658</ele>
        <time>2024-08-31T13:30:41Z</time>
      </trkpt>
      <trkpt lat="42.70886" lon="1.41522">
        <ele>1251.653</ele>
        <time>2024-08-31T13:30:43Z</time>
      </trkpt>
      <trkpt lat="42.70886" lon="1.41522">
        <ele>1251.651</ele>
        <time>2024-08-31T13:30:45Z</time>
      </trkpt>
      <trkpt lat="42.70886" lon="1.41522">
        <ele>1251.65</ele>
        <time>2024-08-31T13:30:47Z</time>
      </trkpt>
      <trkpt lat="42.70886" lon="1.41522">
        <ele>1251.651</ele>
        <time>2024-08-31T13:30:49Z</time>
      </trkpt>
      <trkpt lat="42.70886" lon="1.41522">
        <ele>1251.65</ele>
        <time>2024-08-31T13:30:51Z</time>
      </trkpt>
      <trkpt lat="42.70886" lon="1.41522">
        <ele>1251.645</ele>
        <time>2024-08-31T13:30:53Z</time>
      </trkpt>
      <trkpt lat="42.70886" lon="1.41522">
        <ele>1251.639</ele>
        <time>2024-08-31T13:30:55Z</time>
      </trkpt>
      <trkpt lat="42.70886" lon="1.41522">
        <ele>1251.637</ele>
        <time>2024-08-31T13:30:57Z</time>
      </trkpt>
      <trkpt lat="42.70886" lon="1.41522">
        <ele>1251.637</ele>
        <time>2024-08-31T13:30:59Z</time>
      </trkpt>
      <trkpt lat="42.70886" lon="1.41522">
        <ele>1251.639</ele>
        <time>2024-08-31T13:31:01Z</time>
      </trkpt>
      <trkpt lat="42.70886" lon="1.41522">
        <ele>1251.07</ele>
        <time>2024-08-31T13:31:03Z</time>
      </trkpt>
      <trkpt lat="42.70887" lon="1.41528">
        <ele>1251.327</ele>
        <time>2024-08-31T13:31:05Z</time>
      </trkpt>
      <trkpt lat="42.70888" lon="1.4153">
        <ele>1250.712</ele>
        <time>2024-08-31T13:31:07Z</time>
      </trkpt>
      <trkpt lat="42.70888" lon="1.41531">
        <ele>1251.036</ele>
        <time>2024-08-31T13:31:09Z</time>
      </trkpt>
      <trkpt lat="42.70888" lon="1.41532">
        <ele>1250.317</ele>
        <time>2024-08-31T13:31:11Z</time>
      </trkpt>
      <trkpt lat="42.70888" lon="1.41535">
        <ele>1247.921</ele>
        <time>2024-08-31T13:31:13Z</time>
      </trkpt>
      <trkpt lat="42.70889" lon="1.41536">
        <ele>1248.176</ele>
        <time>2024-08-31T13:31:15Z</time>
      </trkpt>
      <trkpt lat="42.7089" lon="1.41539">
        <ele>1249.476</ele>
        <time>2024-08-31T13:31:17Z</time>
      </trkpt>
      <trkpt lat="42.70891" lon="1.41539">
        <ele>1249.544</ele>
        <time>2024-08-31T13:31:19Z</time>
      </trkpt>
      <trkpt lat="42.70891" lon="1.41541">
        <ele>1250.669</ele>
        <time>2024-08-31T13:31:21Z</time>
      </trkpt>
      <trkpt lat="42.70891" lon="1.41543">
        <ele>1250.671</ele>
        <time>2024-08-31T13:31:23Z</time>
      </trkpt>
      <trkpt lat="42.70891" lon="1.41545">
        <ele>1250.626</ele>
        <time>2024-08-31T13:31:25Z</time>
      </trkpt>
      <trkpt lat="42.70892" lon="1.41546">
        <ele>1251.596</ele>
        <time>2024-08-31T13:31:27Z</time>
      </trkpt>
      <trkpt lat="42.70891" lon="1.41548">
        <ele>1252.12</ele>
        <time>2024-08-31T13:31:29Z</time>
      </trkpt>
      <trkpt lat="42.70891" lon="1.4155">
        <ele>1251.22</ele>
        <time>2024-08-31T13:31:31Z</time>
      </trkpt>
      <trkpt lat="42.70891" lon="1.41552">
        <ele>1251.972</ele>
        <time>2024-08-31T13:31:33Z</time>
      </trkpt>
      <trkpt lat="42.7089" lon="1.41554">
        <ele>1251.032</ele>
        <time>2024-08-31T13:31:35Z</time>
      </trkpt>
      <trkpt lat="42.7089" lon="1.41555">
        <ele>1250.73</ele>
        <time>2024-08-31T13:31:37Z</time>
      </trkpt>
      <trkpt lat="42.70889" lon="1.41557">
        <ele>1251.556</ele>
        <time>2024-08-31T13:31:39Z</time>
      </trkpt>
      <trkpt lat="42.70889" lon="1.41558">
        <ele>1250.858</ele>
        <time>2024-08-31T13:31:41Z</time>
      </trkpt>
      <trkpt lat="42.70889" lon="1.41559">
        <ele>1247.878</ele>
        <time>2024-08-31T13:31:43Z</time>
      </trkpt>
      <trkpt lat="42.70889" lon="1.41561">
        <ele>1247.869</ele>
        <time>2024-08-31T13:31:45Z</time>
      </trkpt>
      <trkpt lat="42.70888" lon="1.41563">
        <ele>1246.489</ele>
        <time>2024-08-31T13:31:47Z</time>
      </trkpt>
      <trkpt lat="42.70887" lon="1.41565">
        <ele>1246.845</ele>
        <time>2024-08-31T13:31:49Z</time>
      </trkpt>
      <trkpt lat="42.70886" lon="1.41568">
        <ele>1246.085</ele>
        <time>2024-08-31T13:31:51Z</time>
      </trkpt>
      <trkpt lat="42.70885" lon="1.4157">
        <ele>1245.874</ele>
        <time>2024-08-31T13:31:53Z</time>
      </trkpt>
      <trkpt lat="42.70885" lon="1.41573">
        <ele>1245.561</ele>
        <time>2024-08-31T13:31:55Z</time>
      </trkpt>
      <trkpt lat="42.70884" lon="1.41576">
        <ele>1244.33</ele>
        <time>2024-08-31T13:31:57Z</time>
      </trkpt>
      <trkpt lat="42.70884" lon="1.41579">
        <ele>1243.899</ele>
        <time>2024-08-31T13:31:59Z</time>
      </trkpt>
      <trkpt lat="42.70885" lon="1.41582">
        <ele>1243.547</ele>
        <time>2024-08-31T13:32:01Z</time>
      </trkpt>
      <trkpt lat="42.70885" lon="1.41584">
        <ele>1242.938</ele>
        <time>2024-08-31T13:32:03Z</time>
      </trkpt>
      <trkpt lat="42.70885" lon="1.41587">
        <ele>1240.449</ele>
        <time>2024-08-31T13:32:05Z</time>
      </trkpt>
      <trkpt lat="42.70885" lon="1.4159">
        <ele>1241.007</ele>
        <time>2024-08-31T13:32:07Z</time>
      </trkpt>
      <trkpt lat="42.70885" lon="1.41592">
        <ele>1242.84</ele>
        <time>2024-08-31T13:32:09Z</time>
      </trkpt>
      <trkpt lat="42.70886" lon="1.41593">
        <ele>1241.311</ele>
        <time>2024-08-31T13:32:11Z</time>
      </trkpt>
      <trkpt lat="42.70888" lon="1.41595">
        <ele>1240.847</ele>
        <time>2024-08-31T13:32:13Z</time>
      </trkpt>
      <trkpt lat="42.70889" lon="1.41598">
        <ele>1240.678</ele>
        <time>2024-08-31T13:32:15Z</time>
      </trkpt>
      <trkpt lat="42.70889" lon="1.41602">
        <ele>1240.301</ele>
        <time>2024-08-31T13:32:17Z</time>
      </trkpt>
      <trkpt lat="42.70889" lon="1.41605">
        <ele>1238.79</ele>
        <time>2024-08-31T13:32:19Z</time>
      </trkpt>
      <trkpt lat="42.70889" lon="1.41608">
        <ele>1240.524</ele>
        <time>2024-08-31T13:32:21Z</time>
      </trkpt>
      <trkpt lat="42.70889" lon="1.4161">
        <ele>1240.844</ele>
        <time>2024-08-31T13:32:23Z</time>
      </trkpt>
      <trkpt lat="42.70889" lon="1.41611">
        <ele>1240.519</ele>
        <time>2024-08-31T13:32:25Z</time>
      </trkpt>
      <trkpt lat="42.7089" lon="1.41613">
        <ele>1239.535</ele>
        <time>2024-08-31T13:32:27Z</time>
      </trkpt>
      <trkpt lat="42.7089" lon="1.41616">
        <ele>1240.044</ele>
        <time>2024-08-31T13:32:29Z</time>
      </trkpt>
      <trkpt lat="42.70889" lon="1.41618">
        <ele>1240.071</ele>
        <time>2024-08-31T13:32:31Z</time>
      </trkpt>
      <trkpt lat="42.7089" lon="1.4162">
        <ele>1240.608</ele>
        <time>2024-08-31T13:32:33Z</time>
      </trkpt>
      <trkpt lat="42.7089" lon="1.41623">
        <ele>1239.559</ele>
        <time>2024-08-31T13:32:35Z</time>
      </trkpt>
      <trkpt lat="42.7089" lon="1.41625">
        <ele>1239.351</ele>
        <time>2024-08-31T13:32:37Z</time>
      </trkpt>
      <trkpt lat="42.7089" lon="1.41626">
        <ele>1238.532</ele>
        <time>2024-08-31T13:32:39Z</time>
      </trkpt>
      <trkpt lat="42.7089" lon="1.41628">
        <ele>1237.907</ele>
        <time>2024-08-31T13:32:41Z</time>
      </trkpt>
      <trkpt lat="42.7089" lon="1.4163">
        <ele>1237.401</ele>
        <time>2024-08-31T13:32:43Z</time>
      </trkpt>
      <trkpt lat="42.7089" lon="1.41634">
        <ele>1237.793</ele>
        <time>2024-08-31T13:32:45Z</time>
      </trkpt>
      <trkpt lat="42.7089" lon="1.41636">
        <ele>1237.186</ele>
        <time>2024-08-31T13:32:47Z</time>
      </trkpt>
      <trkpt lat="42.70891" lon="1.41638">
        <ele>1236.156</ele>
        <time>2024-08-31T13:32:49Z</time>
      </trkpt>
      <trkpt lat="42.70891" lon="1.41641">
        <ele>1235.314</ele>
        <time>2024-08-31T13:32:51Z</time>
      </trkpt>
      <trkpt lat="42.70891" lon="1.41642">
        <ele>1235.01</ele>
        <time>2024-08-31T13:32:53Z</time>
      </trkpt>
      <trkpt lat="42.70891" lon="1.41644">
        <ele>1234.829</ele>
        <time>2024-08-31T13:32:55Z</time>
      </trkpt>
      <trkpt lat="42.70891" lon="1.41645">
        <ele>1234.444</ele>
        <time>2024-08-31T13:32:57Z</time>
      </trkpt>
      <trkpt lat="42.70891" lon="1.41647">
        <ele>1233.193</ele>
        <time>2024-08-31T13:32:59Z</time>
      </trkpt>
      <trkpt lat="42.70892" lon="1.4165">
        <ele>1232.813</ele>
        <time>2024-08-31T13:33:01Z</time>
      </trkpt>
      <trkpt lat="42.70893" lon="1.41652">
        <ele>1233.746</ele>
        <time>2024-08-31T13:33:03Z</time>
      </trkpt>
      <trkpt lat="42.70893" lon="1.41654">
        <ele>1232.97</ele>
        <time>2024-08-31T13:33:05Z</time>
      </trkpt>
      <trkpt lat="42.70895" lon="1.41657">
        <ele>1231.023</ele>
        <time>2024-08-31T13:33:07Z</time>
      </trkpt>
      <trkpt lat="42.70896" lon="1.41661">
        <ele>1230.836</ele>
        <time>2024-08-31T13:33:09Z</time>
      </trkpt>
      <trkpt lat="42.70896" lon="1.41664">
        <ele>1229.853</ele>
        <time>2024-08-31T13:33:11Z</time>
      </trkpt>
      <trkpt lat="42.70897" lon="1.41668">
        <ele>1229.055</ele>
        <time>2024-08-31T13:33:13Z</time>
      </trkpt>
      <trkpt lat="42.70897" lon="1.41672">
        <ele>1229.439</ele>
        <time>2024-08-31T13:33:15Z</time>
      </trkpt>
      <trkpt lat="42.70897" lon="1.41675">
        <ele>1229.395</ele>
        <time>2024-08-31T13:33:17Z</time>
      </trkpt>
      <trkpt lat="42.70898" lon="1.41678">
        <ele>1229.363</ele>
        <time>2024-08-31T13:33:19Z</time>
      </trkpt>
      <trkpt lat="42.70898" lon="1.41681">
        <ele>1229.576</ele>
        <time>2024-08-31T13:33:21Z</time>
      </trkpt>
      <trkpt lat="42.70898" lon="1.41684">
        <ele>1229.171</ele>
        <time>2024-08-31T13:33:23Z</time>
      </trkpt>
      <trkpt lat="42.70899" lon="1.41686">
        <ele>1227.568</ele>
        <time>2024-08-31T13:33:25Z</time>
      </trkpt>
      <trkpt lat="42.709" lon="1.41689">
        <ele>1227.23</ele>
        <time>2024-08-31T13:33:27Z</time>
      </trkpt>
      <trkpt lat="42.70901" lon="1.41692">
        <ele>1226.108</ele>
        <time>2024-08-31T13:33:29Z</time>
      </trkpt>
      <trkpt lat="42.70902" lon="1.41694">
        <ele>1225.969</ele>
        <time>2024-08-31T13:33:31Z</time>
      </trkpt>
      <trkpt lat="42.70902" lon="1.41697">
        <ele>1227.862</ele>
        <time>2024-08-31T13:33:33Z</time>
      </trkpt>
      <trkpt lat="42.70902" lon="1.417">
        <ele>1227.871</ele>
        <time>2024-08-31T13:33:35Z</time>
      </trkpt>
      <trkpt lat="42.70903" lon="1.41703">
        <ele>1228.347</ele>
        <time>2024-08-31T13:33:37Z</time>
      </trkpt>
      <trkpt lat="42.70902" lon="1.41706">
        <ele>1227.16</ele>
        <time>2024-08-31T13:33:39Z</time>
      </trkpt>
      <trkpt lat="42.70902" lon="1.41709">
        <ele>1227.605</ele>
        <time>2024-08-31T13:33:41Z</time>
      </trkpt>
      <trkpt lat="42.70902" lon="1.41711">
        <ele>1226.365</ele>
        <time>2024-08-31T13:33:43Z</time>
      </trkpt>
      <trkpt lat="42.70902" lon="1.41714">
        <ele>1223.413</ele>
        <time>2024-08-31T13:33:45Z</time>
      </trkpt>
      <trkpt lat="42.70902" lon="1.41717">
        <ele>1222.343</ele>
        <time>2024-08-31T13:33:47Z</time>
      </trkpt>
      <trkpt lat="42.70903" lon="1.41719">
        <ele>1221.966</ele>
        <time>2024-08-31T13:33:49Z</time>
      </trkpt>
      <trkpt lat="42.70905" lon="1.41721">
        <ele>1222.791</ele>
        <time>2024-08-31T13:33:51Z</time>
      </trkpt>
      <trkpt lat="42.70905" lon="1.41725">
        <ele>1222.475</ele>
        <time>2024-08-31T13:33:53Z</time>
      </trkpt>
      <trkpt lat="42.70906" lon="1.41728">
        <ele>1223.156</ele>
        <time>2024-08-31T13:33:55Z</time>
      </trkpt>
      <trkpt lat="42.70907" lon="1.41732">
        <ele>1225.204</ele>
        <time>2024-08-31T13:33:57Z</time>
      </trkpt>
      <trkpt lat="42.70909" lon="1.41735">
        <ele>1225.692</ele>
        <time>2024-08-31T13:33:59Z</time>
      </trkpt>
      <trkpt lat="42.7091" lon="1.41737">
        <ele>1224.9</ele>
        <time>2024-08-31T13:34:01Z</time>
      </trkpt>
      <trkpt lat="42.70912" lon="1.41739">
        <ele>1223.626</ele>
        <time>2024-08-31T13:34:03Z</time>
      </trkpt>
      <trkpt lat="42.70912" lon="1.41741">
        <ele>1221.994</ele>
        <time>2024-08-31T13:34:05Z</time>
      </trkpt>
      <trkpt lat="42.70912" lon="1.41742">
        <ele>1221.708</ele>
        <time>2024-08-31T13:34:07Z</time>
      </trkpt>
      <trkpt lat="42.70912" lon="1.41744">
        <ele>1221.91</ele>
        <time>2024-08-31T13:34:09Z</time>
      </trkpt>
      <trkpt lat="42.70914" lon="1.41746">
        <ele>1221.189</ele>
        <time>2024-08-31T13:34:11Z</time>
      </trkpt>
      <trkpt lat="42.70915" lon="1.41748">
        <ele>1221.544</ele>
        <time>2024-08-31T13:34:13Z</time>
      </trkpt>
      <trkpt lat="42.70916" lon="1.4175">
        <ele>1221.167</ele>
        <time>2024-08-31T13:34:15Z</time>
      </trkpt>
      <trkpt lat="42.70916" lon="1.41752">
        <ele>1220.557</ele>
        <time>2024-08-31T13:34:17Z</time>
      </trkpt>
      <trkpt lat="42.70916" lon="1.41755">
        <ele>1220.56</ele>
        <time>2024-08-31T13:34:19Z</time>
      </trkpt>
      <trkpt lat="42.70915" lon="1.41758">
        <ele>1219.965</ele>
        <time>2024-08-31T13:34:21Z</time>
      </trkpt>
      <trkpt lat="42.70915" lon="1.4176">
        <ele>1220.333</ele>
        <time>2024-08-31T13:34:23Z</time>
      </trkpt>
      <trkpt lat="42.70915" lon="1.41762">
        <ele>1219.756</ele>
        <time>2024-08-31T13:34:25Z</time>
      </trkpt>
      <trkpt lat="42.70916" lon="1.41764">
        <ele>1219.887</ele>
        <time>2024-08-31T13:34:27Z</time>
      </trkpt>
      <trkpt lat="42.70917" lon="1.41766">
        <ele>1219.766</ele>
        <time>2024-08-31T13:34:29Z</time>
      </trkpt>
      <trkpt lat="42.70917" lon="1.41769">
        <ele>1219.447</ele>
        <time>2024-08-31T13:34:31Z</time>
      </trkpt>
      <trkpt lat="42.70919" lon="1.41771">
        <ele>1218.424</ele>
        <time>2024-08-31T13:34:33Z</time>
      </trkpt>
      <trkpt lat="42.7092" lon="1.41772">
        <ele>1218.084</ele>
        <time>2024-08-31T13:34:35Z</time>
      </trkpt>
      <trkpt lat="42.70921" lon="1.41774">
        <ele>1218.434</ele>
        <time>2024-08-31T13:34:37Z</time>
      </trkpt>
      <trkpt lat="42.70922" lon="1.41776">
        <ele>1218.223</ele>
        <time>2024-08-31T13:34:39Z</time>
      </trkpt>
      <trkpt lat="42.70922" lon="1.41778">
        <ele>1218.38</ele>
        <time>2024-08-31T13:34:41Z</time>
      </trkpt>
      <trkpt lat="42.70923" lon="1.41779">
        <ele>1216.307</ele>
        <time>2024-08-31T13:34:43Z</time>
      </trkpt>
      <trkpt lat="42.70925" lon="1.4178">
        <ele>1215.657</ele>
        <time>2024-08-31T13:34:45Z</time>
      </trkpt>
      <trkpt lat="42.70925" lon="1.41782">
        <ele>1214.793</ele>
        <time>2024-08-31T13:34:47Z</time>
      </trkpt>
      <trkpt lat="42.70925" lon="1.41785">
        <ele>1214.577</ele>
        <time>2024-08-31T13:34:49Z</time>
      </trkpt>
      <trkpt lat="42.70925" lon="1.41787">
        <ele>1214.034</ele>
        <time>2024-08-31T13:34:51Z</time>
      </trkpt>
      <trkpt lat="42.70926" lon="1.4179">
        <ele>1215.154</ele>
        <time>2024-08-31T13:34:53Z</time>
      </trkpt>
      <trkpt lat="42.70926" lon="1.41793">
        <ele>1213.754</ele>
        <time>2024-08-31T13:34:55Z</time>
      </trkpt>
      <trkpt lat="42.70926" lon="1.41796">
        <ele>1213.613</ele>
        <time>2024-08-31T13:34:57Z</time>
      </trkpt>
      <trkpt lat="42.70926" lon="1.41799">
        <ele>1214.71</ele>
        <time>2024-08-31T13:34:59Z</time>
      </trkpt>
      <trkpt lat="42.70925" lon="1.41801">
        <ele>1213.828</ele>
        <time>2024-08-31T13:35:01Z</time>
      </trkpt>
      <trkpt lat="42.70924" lon="1.41803">
        <ele>1213.993</ele>
        <time>2024-08-31T13:35:03Z</time>
      </trkpt>
      <trkpt lat="42.70924" lon="1.41806">
        <ele>1212.936</ele>
        <time>2024-08-31T13:35:05Z</time>
      </trkpt>
      <trkpt lat="42.70924" lon="1.41809">
        <ele>1211.92</ele>
        <time>2024-08-31T13:35:07Z</time>
      </trkpt>
      <trkpt lat="42.70924" lon="1.41812">
        <ele>1212.825</ele>
        <time>2024-08-31T13:35:09Z</time>
      </trkpt>
      <trkpt lat="42.70924" lon="1.41814">
        <ele>1212.865</ele>
        <time>2024-08-31T13:35:11Z</time>
      </trkpt>
      <trkpt lat="42.70925" lon="1.41817">
        <ele>1213.427</ele>
        <time>2024-08-31T13:35:13Z</time>
      </trkpt>
      <trkpt lat="42.70926" lon="1.4182">
        <ele>1214.418</ele>
        <time>2024-08-31T13:35:15Z</time>
      </trkpt>
      <trkpt lat="42.70927" lon="1.41823">
        <ele>1213.618</ele>
        <time>2024-08-31T13:35:17Z</time>
      </trkpt>
      <trkpt lat="42.70927" lon="1.41825">
        <ele>1213.681</ele>
        <time>2024-08-31T13:35:19Z</time>
      </trkpt>
      <trkpt lat="42.70927" lon="1.41828">
        <ele>1213.103</ele>
        <time>2024-08-31T13:35:21Z</time>
      </trkpt>
      <trkpt lat="42.70926" lon="1.41831">
        <ele>1213.157</ele>
        <time>2024-08-31T13:35:23Z</time>
      </trkpt>
      <trkpt lat="42.70926" lon="1.41833">
        <ele>1213.341</ele>
        <time>2024-08-31T13:35:25Z</time>
      </trkpt>
      <trkpt lat="42.70927" lon="1.41836">
        <ele>1212.439</ele>
        <time>2024-08-31T13:35:27Z</time>
      </trkpt>
      <trkpt lat="42.70927" lon="1.41838">
        <ele>1211.933</ele>
        <time>2024-08-31T13:35:29Z</time>
      </trkpt>
      <trkpt lat="42.70928" lon="1.41841">
        <ele>1211.494</ele>
        <time>2024-08-31T13:35:31Z</time>
      </trkpt>
      <trkpt lat="42.70928" lon="1.41843">
        <ele>1210.068</ele>
        <time>2024-08-31T13:35:33Z</time>
      </trkpt>
      <trkpt lat="42.70929" lon="1.41846">
        <ele>1209.059</ele>
        <time>2024-08-31T13:35:35Z</time>
      </trkpt>
      <trkpt lat="42.70929" lon="1.41848">
        <ele>1208.53</ele>
        <time>2024-08-31T13:35:37Z</time>
      </trkpt>
      <trkpt lat="42.7093" lon="1.4185">
        <ele>1208.444</ele>
        <time>2024-08-31T13:35:39Z</time>
      </trkpt>
      <trkpt lat="42.7093" lon="1.41852">
        <ele>1207.93</ele>
        <time>2024-08-31T13:35:41Z</time>
      </trkpt>
      <trkpt lat="42.7093" lon="1.41854">
        <ele>1207.084</ele>
        <time>2024-08-31T13:35:43Z</time>
      </trkpt>
      <trkpt lat="42.7093" lon="1.41856">
        <ele>1207.156</ele>
        <time>2024-08-31T13:35:45Z</time>
      </trkpt>
      <trkpt lat="42.70929" lon="1.41858">
        <ele>1206.498</ele>
        <time>2024-08-31T13:35:47Z</time>
      </trkpt>
      <trkpt lat="42.70929" lon="1.4186">
        <ele>1206.364</ele>
        <time>2024-08-31T13:35:49Z</time>
      </trkpt>
      <trkpt lat="42.70929" lon="1.41862">
        <ele>1205.827</ele>
        <time>2024-08-31T13:35:51Z</time>
      </trkpt>
      <trkpt lat="42.70928" lon="1.41865">
        <ele>1206.149</ele>
        <time>2024-08-31T13:35:53Z</time>
      </trkpt>
      <trkpt lat="42.70928" lon="1.41867">
        <ele>1206.653</ele>
        <time>2024-08-31T13:35:55Z</time>
      </trkpt>
      <trkpt lat="42.70928" lon="1.41869">
        <ele>1206.907</ele>
        <time>2024-08-31T13:35:57Z</time>
      </trkpt>
      <trkpt lat="42.70928" lon="1.41872">
        <ele>1208.597</ele>
        <time>2024-08-31T13:35:59Z</time>
      </trkpt>
      <trkpt lat="42.70928" lon="1.41874">
        <ele>1208.593</ele>
        <time>2024-08-31T13:36:01Z</time>
      </trkpt>
      <trkpt lat="42.70929" lon="1.41877">
        <ele>1208.051</ele>
        <time>2024-08-31T13:36:03Z</time>
      </trkpt>
      <trkpt lat="42.7093" lon="1.41878">
        <ele>1208.812</ele>
        <time>2024-08-31T13:36:05Z</time>
      </trkpt>
      <trkpt lat="42.70931" lon="1.41879">
        <ele>1208.31</ele>
        <time>2024-08-31T13:36:07Z</time>
      </trkpt>
      <trkpt lat="42.70932" lon="1.41881">
        <ele>1208.117</ele>
        <time>2024-08-31T13:36:09Z</time>
      </trkpt>
      <trkpt lat="42.70933" lon="1.41883">
        <ele>1207.308</ele>
        <time>2024-08-31T13:36:11Z</time>
      </trkpt>
      <trkpt lat="42.70933" lon="1.41885">
        <ele>1207.409</ele>
        <time>2024-08-31T13:36:13Z</time>
      </trkpt>
      <trkpt lat="42.70934" lon="1.41888">
        <ele>1206.54</ele>
        <time>2024-08-31T13:36:15Z</time>
      </trkpt>
      <trkpt lat="42.70934" lon="1.4189">
        <ele>1204.869</ele>
        <time>2024-08-31T13:36:17Z</time>
      </trkpt>
      <trkpt lat="42.70934" lon="1.41892">
        <ele>1204.263</ele>
        <time>2024-08-31T13:36:19Z</time>
      </trkpt>
      <trkpt lat="42.70934" lon="1.41894">
        <ele>1205.173</ele>
        <time>2024-08-31T13:36:21Z</time>
      </trkpt>
      <trkpt lat="42.70935" lon="1.41896">
        <ele>1205.365</ele>
        <time>2024-08-31T13:36:23Z</time>
      </trkpt>
      <trkpt lat="42.70936" lon="1.41898">
        <ele>1206.243</ele>
        <time>2024-08-31T13:36:25Z</time>
      </trkpt>
      <trkpt lat="42.70936" lon="1.419">
        <ele>1207.009</ele>
        <time>2024-08-31T13:36:27Z</time>
      </trkpt>
      <trkpt lat="42.70937" lon="1.41903">
        <ele>1206.334</ele>
        <time>2024-08-31T13:36:29Z</time>
      </trkpt>
      <trkpt lat="42.70937" lon="1.41905">
        <ele>1207.324</ele>
        <time>2024-08-31T13:36:31Z</time>
      </trkpt>
      <trkpt lat="42.70937" lon="1.41907">
        <ele>1208.371</ele>
        <time>2024-08-31T13:36:33Z</time>
      </trkpt>
      <trkpt lat="42.70937" lon="1.41909">
        <ele>1209.726</ele>
        <time>2024-08-31T13:36:35Z</time>
      </trkpt>
      <trkpt lat="42.70936" lon="1.41912">
        <ele>1208.818</ele>
        <time>2024-08-31T13:36:37Z</time>
      </trkpt>
      <trkpt lat="42.70936" lon="1.41914">
        <ele>1209.395</ele>
        <time>2024-08-31T13:36:39Z</time>
      </trkpt>
      <trkpt lat="42.70936" lon="1.41917">
        <ele>1211.171</ele>
        <time>2024-08-31T13:36:41Z</time>
      </trkpt>
      <trkpt lat="42.70936" lon="1.41919">
        <ele>1211.649</ele>
        <time>2024-08-31T13:36:43Z</time>
      </trkpt>
      <trkpt lat="42.70935" lon="1.41922">
        <ele>1212.435</ele>
        <time>2024-08-31T13:36:45Z</time>
      </trkpt>
      <trkpt lat="42.70934" lon="1.41925">
        <ele>1211.952</ele>
        <time>2024-08-31T13:36:47Z</time>
      </trkpt>
      <trkpt lat="42.70934" lon="1.41928">
        <ele>1211.856</ele>
        <time>2024-08-31T13:36:49Z</time>
      </trkpt>
      <trkpt lat="42.70934" lon="1.4193">
        <ele>1213.219</ele>
        <time>2024-08-31T13:36:51Z</time>
      </trkpt>
      <trkpt lat="42.70935" lon="1.41932">
        <ele>1214.021</ele>
        <time>2024-08-31T13:36:53Z</time>
      </trkpt>
      <trkpt lat="42.70935" lon="1.41935">
        <ele>1213.134</ele>
        <time>2024-08-31T13:36:55Z</time>
      </trkpt>
      <trkpt lat="42.70934" lon="1.41937">
        <ele>1214.226</ele>
        <time>2024-08-31T13:36:57Z</time>
      </trkpt>
      <trkpt lat="42.70933" lon="1.41939">
        <ele>1215.314</ele>
        <time>2024-08-31T13:36:59Z</time>
      </trkpt>
      <trkpt lat="42.70933" lon="1.41941">
        <ele>1215.538</ele>
        <time>2024-08-31T13:37:01Z</time>
      </trkpt>
      <trkpt lat="42.70933" lon="1.41943">
        <ele>1215.1</ele>
        <time>2024-08-31T13:37:03Z</time>
      </trkpt>
      <trkpt lat="42.70933" lon="1.41944">
        <ele>1216.188</ele>
        <time>2024-08-31T13:37:05Z</time>
      </trkpt>
      <trkpt lat="42.70932" lon="1.41947">
        <ele>1216.391</ele>
        <time>2024-08-31T13:37:07Z</time>
      </trkpt>
      <trkpt lat="42.70931" lon="1.4195">
        <ele>1216.286</ele>
        <time>2024-08-31T13:37:09Z</time>
      </trkpt>
      <trkpt lat="42.7093" lon="1.41953">
        <ele>1218.83</ele>
        <time>2024-08-31T13:37:11Z</time>
      </trkpt>
      <trkpt lat="42.70929" lon="1.41955">
        <ele>1217.888</ele>
        <time>2024-08-31T13:37:13Z</time>
      </trkpt>
      <trkpt lat="42.70928" lon="1.41957">
        <ele>1216.593</ele>
        <time>2024-08-31T13:37:15Z</time>
      </trkpt>
      <trkpt lat="42.70927" lon="1.4196">
        <ele>1217.801</ele>
        <time>2024-08-31T13:37:17Z</time>
      </trkpt>
      <trkpt lat="42.70926" lon="1.41962">
        <ele>1218.677</ele>
        <time>2024-08-31T13:37:19Z</time>
      </trkpt>
      <trkpt lat="42.70925" lon="1.41964">
        <ele>1220.998</ele>
        <time>2024-08-31T13:37:21Z</time>
      </trkpt>
      <trkpt lat="42.70924" lon="1.41966">
        <ele>1221.294</ele>
        <time>2024-08-31T13:37:23Z</time>
      </trkpt>
      <trkpt lat="42.70923" lon="1.41968">
        <ele>1222.171</ele>
        <time>2024-08-31T13:37:25Z</time>
      </trkpt>
      <trkpt lat="42.70922" lon="1.4197">
        <ele>1223.131</ele>
        <time>2024-08-31T13:37:27Z</time>
      </trkpt>
      <trkpt lat="42.70921" lon="1.41973">
        <ele>1224.948</ele>
        <time>2024-08-31T13:37:29Z</time>
      </trkpt>
      <trkpt lat="42.7092" lon="1.41975">
        <ele>1225.094</ele>
        <time>2024-08-31T13:37:31Z</time>
      </trkpt>
      <trkpt lat="42.7092" lon="1.41977">
        <ele>1225.059</ele>
        <time>2024-08-31T13:37:33Z</time>
      </trkpt>
      <trkpt lat="42.7092" lon="1.41979">
        <ele>1224.803</ele>
        <time>2024-08-31T13:37:35Z</time>
      </trkpt>
      <trkpt lat="42.7092" lon="1.41981">
        <ele>1227.107</ele>
        <time>2024-08-31T13:37:37Z</time>
      </trkpt>
      <trkpt lat="42.70919" lon="1.41982">
        <ele>1227.11</ele>
        <time>2024-08-31T13:37:39Z</time>
      </trkpt>
      <trkpt lat="42.70919" lon="1.41984">
        <ele>1225.995</ele>
        <time>2024-08-31T13:37:41Z</time>
      </trkpt>
      <trkpt lat="42.70919" lon="1.41987">
        <ele>1225.298</ele>
        <time>2024-08-31T13:37:43Z</time>
      </trkpt>
      <trkpt lat="42.70919" lon="1.4199">
        <ele>1225.239</ele>
        <time>2024-08-31T13:37:45Z</time>
      </trkpt>
      <trkpt lat="42.70919" lon="1.41994">
        <ele>1222.087</ele>
        <time>2024-08-31T13:37:47Z</time>
      </trkpt>
      <trkpt lat="42.70918" lon="1.41998">
        <ele>1220.938</ele>
        <time>2024-08-31T13:37:49Z</time>
      </trkpt>
      <trkpt lat="42.70917" lon="1.42003">
        <ele>1219.588</ele>
        <time>2024-08-31T13:37:51Z</time>
      </trkpt>
      <trkpt lat="42.70917" lon="1.42008">
        <ele>1218.937</ele>
        <time>2024-08-31T13:37:53Z</time>
      </trkpt>
      <trkpt lat="42.70916" lon="1.42012">
        <ele>1219.51</ele>
        <time>2024-08-31T13:37:55Z</time>
      </trkpt>
      <trkpt lat="42.70916" lon="1.42015">
        <ele>1217.541</ele>
        <time>2024-08-31T13:37:57Z</time>
      </trkpt>
      <trkpt lat="42.70915" lon="1.42021">
        <ele>1218.047</ele>
        <time>2024-08-31T13:37:59Z</time>
      </trkpt>
      <trkpt lat="42.70914" lon="1.42025">
        <ele>1218.435</ele>
        <time>2024-08-31T13:38:01Z</time>
      </trkpt>
      <trkpt lat="42.70913" lon="1.42029">
        <ele>1217.608</ele>
        <time>2024-08-31T13:38:03Z</time>
      </trkpt>
      <trkpt lat="42.70913" lon="1.42031">
        <ele>1217.538</ele>
        <time>2024-08-31T13:38:05Z</time>
      </trkpt>
      <trkpt lat="42.70912" lon="1.42034">
        <ele>1218.009</ele>
        <time>2024-08-31T13:38:07Z</time>
      </trkpt>
      <trkpt lat="42.70912" lon="1.42038">
        <ele>1215.896</ele>
        <time>2024-08-31T13:38:09Z</time>
      </trkpt>
      <trkpt lat="42.70911" lon="1.42042">
        <ele>1213.84</ele>
        <time>2024-08-31T13:38:11Z</time>
      </trkpt>
      <trkpt lat="42.70911" lon="1.42046">
        <ele>1212.423</ele>
        <time>2024-08-31T13:38:13Z</time>
      </trkpt>
      <trkpt lat="42.7091" lon="1.4205">
        <ele>1208.772</ele>
        <time>2024-08-31T13:38:15Z</time>
      </trkpt>
      <trkpt lat="42.7091" lon="1.42054">
        <ele>1207.682</ele>
        <time>2024-08-31T13:38:17Z</time>
      </trkpt>
      <trkpt lat="42.7091" lon="1.42057">
        <ele>1208.154</ele>
        <time>2024-08-31T13:38:19Z</time>
      </trkpt>
      <trkpt lat="42.7091" lon="1.4206">
        <ele>1208.056</ele>
        <time>2024-08-31T13:38:21Z</time>
      </trkpt>
      <trkpt lat="42.7091" lon="1.42063">
        <ele>1206.628</ele>
        <time>2024-08-31T13:38:23Z</time>
      </trkpt>
      <trkpt lat="42.70911" lon="1.42066">
        <ele>1206.947</ele>
        <time>2024-08-31T13:38:25Z</time>
      </trkpt>
      <trkpt lat="42.70911" lon="1.4207">
        <ele>1206.617</ele>
        <time>2024-08-31T13:38:27Z</time>
      </trkpt>
      <trkpt lat="42.70912" lon="1.42074">
        <ele>1205.762</ele>
        <time>2024-08-31T13:38:29Z</time>
      </trkpt>
      <trkpt lat="42.70913" lon="1.42076">
        <ele>1205.446</ele>
        <time>2024-08-31T13:38:31Z</time>
      </trkpt>
      <trkpt lat="42.70914" lon="1.42078">
        <ele>1205.413</ele>
        <time>2024-08-31T13:38:33Z</time>
      </trkpt>
      <trkpt lat="42.70915" lon="1.42081">
        <ele>1205.222</ele>
        <time>2024-08-31T13:38:35Z</time>
      </trkpt>
      <trkpt lat="42.70917" lon="1.42084">
        <ele>1204.812</ele>
        <time>2024-08-31T13:38:37Z</time>
      </trkpt>
      <trkpt lat="42.70918" lon="1.42085">
        <ele>1204.193</ele>
        <time>2024-08-31T13:38:39Z</time>
      </trkpt>
      <trkpt lat="42.70919" lon="1.42087">
        <ele>1204.237</ele>
        <time>2024-08-31T13:38:41Z</time>
      </trkpt>
      <trkpt lat="42.70921" lon="1.42089">
        <ele>1203.949</ele>
        <time>2024-08-31T13:38:43Z</time>
      </trkpt>
      <trkpt lat="42.70922" lon="1.4209">
        <ele>1204.102</ele>
        <time>2024-08-31T13:38:45Z</time>
      </trkpt>
      <trkpt lat="42.70923" lon="1.42089">
        <ele>1204.437</ele>
        <time>2024-08-31T13:38:47Z</time>
      </trkpt>
      <trkpt lat="42.70925" lon="1.42089">
        <ele>1204.859</ele>
        <time>2024-08-31T13:38:49Z</time>
      </trkpt>
      <trkpt lat="42.70925" lon="1.42088">
        <ele>1204.863</ele>
        <time>2024-08-31T13:38:51Z</time>
      </trkpt>
      <trkpt lat="42.70925" lon="1.42088">
        <ele>1205.001</ele>
        <time>2024-08-31T13:38:53Z</time>
      </trkpt>
      <trkpt lat="42.70925" lon="1.42088">
        <ele>1204.961</ele>
        <time>2024-08-31T13:38:55Z</time>
      </trkpt>
      <trkpt lat="42.70925" lon="1.42088">
        <ele>1205.88</ele>
        <time>2024-08-31T13:38:57Z</time>
      </trkpt>
      <trkpt lat="42.70925" lon="1.42088">
        <ele>1206.159</ele>
        <time>2024-08-31T13:38:59Z</time>
      </trkpt>
      <trkpt lat="42.70925" lon="1.42088">
        <ele>1206.741</ele>
        <time>2024-08-31T13:39:01Z</time>
      </trkpt>
      <trkpt lat="42.70925" lon="1.42088">
        <ele>1207.196</ele>
        <time>2024-08-31T13:39:03Z</time>
      </trkpt>
      <trkpt lat="42.70925" lon="1.42088">
        <ele>1207.203</ele>
        <time>2024-08-31T13:39:05Z</time>
      </trkpt>
      <trkpt lat="42.70925" lon="1.42088">
        <ele>1206.524</ele>
        <time>2024-08-31T13:39:07Z</time>
      </trkpt>
      <trkpt lat="42.70925" lon="1.42088">
        <ele>1207.115</ele>
        <time>2024-08-31T13:39:09Z</time>
      </trkpt>
      <trkpt lat="42.70925" lon="1.42088">
        <ele>1207.257</ele>
        <time>2024-08-31T13:39:11Z</time>
      </trkpt>
      <trkpt lat="42.70925" lon="1.42088">
        <ele>1207.223</ele>
        <time>2024-08-31T13:39:13Z</time>
      </trkpt>
      <trkpt lat="42.70925" lon="1.42088">
        <ele>1207.235</ele>
        <time>2024-08-31T13:39:15Z</time>
      </trkpt>
      <trkpt lat="42.70925" lon="1.42088">
        <ele>1207.223</ele>
        <time>2024-08-31T13:39:17Z</time>
      </trkpt>
      <trkpt lat="42.70925" lon="1.42088">
        <ele>1207.222</ele>
        <time>2024-08-31T13:39:19Z</time>
      </trkpt>
      <trkpt lat="42.70925" lon="1.42088">
        <ele>1207.213</ele>
        <time>2024-08-31T13:39:21Z</time>
      </trkpt>
      <trkpt lat="42.70925" lon="1.42088">
        <ele>1206.955</ele>
        <time>2024-08-31T13:39:23Z</time>
      </trkpt>
      <trkpt lat="42.70925" lon="1.42088">
        <ele>1207.135</ele>
        <time>2024-08-31T13:39:25Z</time>
      </trkpt>
      <trkpt lat="42.70925" lon="1.42088">
        <ele>1206.863</ele>
        <time>2024-08-31T13:39:27Z</time>
      </trkpt>
      <trkpt lat="42.70925" lon="1.42088">
        <ele>1206.847</ele>
        <time>2024-08-31T13:39:29Z</time>
      </trkpt>
      <trkpt lat="42.70925" lon="1.42088">
        <ele>1206.454</ele>
        <time>2024-08-31T13:39:31Z</time>
      </trkpt>
      <trkpt lat="42.70925" lon="1.42088">
        <ele>1209.376</ele>
        <time>2024-08-31T13:39:33Z</time>
      </trkpt>
      <trkpt lat="42.70925" lon="1.42088">
        <ele>1208.15</ele>
        <time>2024-08-31T13:39:35Z</time>
      </trkpt>
      <trkpt lat="42.70925" lon="1.42088">
        <ele>1207.301</ele>
        <time>2024-08-31T13:39:37Z</time>
      </trkpt>
      <trkpt lat="42.70925" lon="1.42088">
        <ele>1206.312</ele>
        <time>2024-08-31T13:39:39Z</time>
      </trkpt>
      <trkpt lat="42.70925" lon="1.42088">
        <ele>1204.825</ele>
        <time>2024-08-31T13:39:41Z</time>
      </trkpt>
      <trkpt lat="42.70925" lon="1.42088">
        <ele>1204.378</ele>
        <time>2024-08-31T13:39:43Z</time>
      </trkpt>
      <trkpt lat="42.70927" lon="1.4209">
        <ele>1203.288</ele>
        <time>2024-08-31T13:39:45Z</time>
      </trkpt>
      <trkpt lat="42.70926" lon="1.42093">
        <ele>1204.718</ele>
        <time>2024-08-31T13:39:47Z</time>
      </trkpt>
      <trkpt lat="42.70925" lon="1.42096">
        <ele>1205.119</ele>
        <time>2024-08-31T13:39:49Z</time>
      </trkpt>
      <trkpt lat="42.70926" lon="1.42097">
        <ele>1203.689</ele>
        <time>2024-08-31T13:39:51Z</time>
      </trkpt>
      <trkpt lat="42.70926" lon="1.42098">
        <ele>1203.291</ele>
        <time>2024-08-31T13:39:53Z</time>
      </trkpt>
      <trkpt lat="42.70927" lon="1.421">
        <ele>1201.844</ele>
        <time>2024-08-31T13:39:55Z</time>
      </trkpt>
      <trkpt lat="42.70928" lon="1.42101">
        <ele>1202.061</ele>
        <time>2024-08-31T13:39:57Z</time>
      </trkpt>
      <trkpt lat="42.70929" lon="1.42104">
        <ele>1199.497</ele>
        <time>2024-08-31T13:39:59Z</time>
      </trkpt>
      <trkpt lat="42.7093" lon="1.42107">
        <ele>1198.867</ele>
        <time>2024-08-31T13:40:01Z</time>
      </trkpt>
      <trkpt lat="42.7093" lon="1.4211">
        <ele>1197.494</ele>
        <time>2024-08-31T13:40:03Z</time>
      </trkpt>
      <trkpt lat="42.70931" lon="1.42111">
        <ele>1199.192</ele>
        <time>2024-08-31T13:40:05Z</time>
      </trkpt>
      <trkpt lat="42.70933" lon="1.42113">
        <ele>1199.684</ele>
        <time>2024-08-31T13:40:07Z</time>
      </trkpt>
      <trkpt lat="42.70933" lon="1.42116">
        <ele>1199.612</ele>
        <time>2024-08-31T13:40:09Z</time>
      </trkpt>
      <trkpt lat="42.70932" lon="1.42118">
        <ele>1200.555</ele>
        <time>2024-08-31T13:40:11Z</time>
      </trkpt>
      <trkpt lat="42.70932" lon="1.42121">
        <ele>1198.963</ele>
        <time>2024-08-31T13:40:13Z</time>
      </trkpt>
      <trkpt lat="42.70932" lon="1.42123">
        <ele>1198.476</ele>
        <time>2024-08-31T13:40:15Z</time>
      </trkpt>
      <trkpt lat="42.70932" lon="1.42125">
        <ele>1197.272</ele>
        <time>2024-08-31T13:40:17Z</time>
      </trkpt>
      <trkpt lat="42.70932" lon="1.42127">
        <ele>1196.922</ele>
        <time>2024-08-31T13:40:19Z</time>
      </trkpt>
      <trkpt lat="42.70933" lon="1.42129">
        <ele>1197.445</ele>
        <time>2024-08-31T13:40:21Z</time>
      </trkpt>
      <trkpt lat="42.70934" lon="1.42131">
        <ele>1197.532</ele>
        <time>2024-08-31T13:40:23Z</time>
      </trkpt>
      <trkpt lat="42.70934" lon="1.42133">
        <ele>1196.254</ele>
        <time>2024-08-31T13:40:25Z</time>
      </trkpt>
      <trkpt lat="42.70934" lon="1.42135">
        <ele>1195.655</ele>
        <time>2024-08-31T13:40:27Z</time>
      </trkpt>
      <trkpt lat="42.70934" lon="1.42137">
        <ele>1195.317</ele>
        <time>2024-08-31T13:40:29Z</time>
      </trkpt>
      <trkpt lat="42.70933" lon="1.42139">
        <ele>1194.795</ele>
        <time>2024-08-31T13:40:31Z</time>
      </trkpt>
      <trkpt lat="42.70934" lon="1.4214">
        <ele>1194.871</ele>
        <time>2024-08-31T13:40:33Z</time>
      </trkpt>
      <trkpt lat="42.70933" lon="1.42143">
        <ele>1194.903</ele>
        <time>2024-08-31T13:40:35Z</time>
      </trkpt>
      <trkpt lat="42.70933" lon="1.42146">
        <ele>1194.546</ele>
        <time>2024-08-31T13:40:37Z</time>
      </trkpt>
      <trkpt lat="42.70935" lon="1.42151">
        <ele>1193.167</ele>
        <time>2024-08-31T13:40:39Z</time>
      </trkpt>
      <trkpt lat="42.70935" lon="1.42155">
        <ele>1195.019</ele>
        <time>2024-08-31T13:40:41Z</time>
      </trkpt>
      <trkpt lat="42.70936" lon="1.42157">
        <ele>1193.586</ele>
        <time>2024-08-31T13:40:43Z</time>
      </trkpt>
      <trkpt lat="42.70937" lon="1.4216">
        <ele>1192.966</ele>
        <time>2024-08-31T13:40:45Z</time>
      </trkpt>
      <trkpt lat="42.70937" lon="1.42164">
        <ele>1191.071</ele>
        <time>2024-08-31T13:40:47Z</time>
      </trkpt>
      <trkpt lat="42.70938" lon="1.42167">
        <ele>1189.022</ele>
        <time>2024-08-31T13:40:49Z</time>
      </trkpt>
      <trkpt lat="42.70939" lon="1.4217">
        <ele>1187.414</ele>
        <time>2024-08-31T13:40:51Z</time>
      </trkpt>
      <trkpt lat="42.7094" lon="1.42174">
        <ele>1186.732</ele>
        <time>2024-08-31T13:40:53Z</time>
      </trkpt>
      <trkpt lat="42.7094" lon="1.42178">
        <ele>1188.006</ele>
        <time>2024-08-31T13:40:55Z</time>
      </trkpt>
      <trkpt lat="42.70941" lon="1.42181">
        <ele>1188.304</ele>
        <time>2024-08-31T13:40:57Z</time>
      </trkpt>
      <trkpt lat="42.70942" lon="1.42184">
        <ele>1187.52</ele>
        <time>2024-08-31T13:40:59Z</time>
      </trkpt>
      <trkpt lat="42.70943" lon="1.42187">
        <ele>1186.912</ele>
        <time>2024-08-31T13:41:01Z</time>
      </trkpt>
      <trkpt lat="42.70944" lon="1.42191">
        <ele>1187.616</ele>
        <time>2024-08-31T13:41:03Z</time>
      </trkpt>
      <trkpt lat="42.70944" lon="1.42194">
        <ele>1188.233</ele>
        <time>2024-08-31T13:41:05Z</time>
      </trkpt>
      <trkpt lat="42.70945" lon="1.42197">
        <ele>1188.438</ele>
        <time>2024-08-31T13:41:07Z</time>
      </trkpt>
      <trkpt lat="42.70946" lon="1.42199">
        <ele>1188.687</ele>
        <time>2024-08-31T13:41:09Z</time>
      </trkpt>
      <trkpt lat="42.70946" lon="1.42203">
        <ele>1189.372</ele>
        <time>2024-08-31T13:41:11Z</time>
      </trkpt>
      <trkpt lat="42.70946" lon="1.42206">
        <ele>1188.8</ele>
        <time>2024-08-31T13:41:13Z</time>
      </trkpt>
      <trkpt lat="42.70947" lon="1.4221">
        <ele>1189.803</ele>
        <time>2024-08-31T13:41:15Z</time>
      </trkpt>
      <trkpt lat="42.70947" lon="1.42213">
        <ele>1188.959</ele>
        <time>2024-08-31T13:41:17Z</time>
      </trkpt>
      <trkpt lat="42.70947" lon="1.42215">
        <ele>1187.591</ele>
        <time>2024-08-31T13:41:19Z</time>
      </trkpt>
      <trkpt lat="42.70947" lon="1.42218">
        <ele>1186.439</ele>
        <time>2024-08-31T13:41:21Z</time>
      </trkpt>
      <trkpt lat="42.70947" lon="1.4222">
        <ele>1185.34</ele>
        <time>2024-08-31T13:41:23Z</time>
      </trkpt>
      <trkpt lat="42.70947" lon="1.42222">
        <ele>1185.661</ele>
        <time>2024-08-31T13:41:25Z</time>
      </trkpt>
      <trkpt lat="42.70947" lon="1.42225">
        <ele>1185.424</ele>
        <time>2024-08-31T13:41:27Z</time>
      </trkpt>
      <trkpt lat="42.70948" lon="1.42228">
        <ele>1186.216</ele>
        <time>2024-08-31T13:41:29Z</time>
      </trkpt>
      <trkpt lat="42.70949" lon="1.42231">
        <ele>1186.141</ele>
        <time>2024-08-31T13:41:31Z</time>
      </trkpt>
      <trkpt lat="42.70949" lon="1.42234">
        <ele>1187.16</ele>
        <time>2024-08-31T13:41:33Z</time>
      </trkpt>
      <trkpt lat="42.70951" lon="1.42236">
        <ele>1187.332</ele>
        <time>2024-08-31T13:41:35Z</time>
      </trkpt>
      <trkpt lat="42.70952" lon="1.42238">
        <ele>1187.532</ele>
        <time>2024-08-31T13:41:37Z</time>
      </trkpt>
      <trkpt lat="42.70952" lon="1.4224">
        <ele>1186.481</ele>
        <time>2024-08-31T13:41:39Z</time>
      </trkpt>
      <trkpt lat="42.70953" lon="1.42242">
        <ele>1186.086</ele>
        <time>2024-08-31T13:41:41Z</time>
      </trkpt>
      <trkpt lat="42.70954" lon="1.42244">
        <ele>1186.137</ele>
        <time>2024-08-31T13:41:43Z</time>
      </trkpt>
      <trkpt lat="42.70954" lon="1.42247">
        <ele>1186.096</ele>
        <time>2024-08-31T13:41:45Z</time>
      </trkpt>
      <trkpt lat="42.70955" lon="1.4225">
        <ele>1186.769</ele>
        <time>2024-08-31T13:41:47Z</time>
      </trkpt>
      <trkpt lat="42.70956" lon="1.42253">
        <ele>1187.539</ele>
        <time>2024-08-31T13:41:49Z</time>
      </trkpt>
      <trkpt lat="42.70956" lon="1.42256">
        <ele>1188.94</ele>
        <time>2024-08-31T13:41:51Z</time>
      </trkpt>
      <trkpt lat="42.70956" lon="1.42258">
        <ele>1189.375</ele>
        <time>2024-08-31T13:41:53Z</time>
      </trkpt>
      <trkpt lat="42.70957" lon="1.42261">
        <ele>1188.732</ele>
        <time>2024-08-31T13:41:55Z</time>
      </trkpt>
      <trkpt lat="42.70957" lon="1.42263">
        <ele>1189.14</ele>
        <time>2024-08-31T13:41:57Z</time>
      </trkpt>
      <trkpt lat="42.70957" lon="1.42266">
        <ele>1188.625</ele>
        <time>2024-08-31T13:41:59Z</time>
      </trkpt>
      <trkpt lat="42.70958" lon="1.42268">
        <ele>1188.908</ele>
        <time>2024-08-31T13:42:01Z</time>
      </trkpt>
      <trkpt lat="42.70957" lon="1.4227">
        <ele>1189.649</ele>
        <time>2024-08-31T13:42:03Z</time>
      </trkpt>
      <trkpt lat="42.70957" lon="1.42273">
        <ele>1189.953</ele>
        <time>2024-08-31T13:42:05Z</time>
      </trkpt>
      <trkpt lat="42.70957" lon="1.42276">
        <ele>1189.206</ele>
        <time>2024-08-31T13:42:07Z</time>
      </trkpt>
      <trkpt lat="42.70957" lon="1.42279">
        <ele>1189.25</ele>
        <time>2024-08-31T13:42:09Z</time>
      </trkpt>
      <trkpt lat="42.70958" lon="1.42282">
        <ele>1190.198</ele>
        <time>2024-08-31T13:42:11Z</time>
      </trkpt>
      <trkpt lat="42.70958" lon="1.42285">
        <ele>1190.278</ele>
        <time>2024-08-31T13:42:13Z</time>
      </trkpt>
      <trkpt lat="42.70958" lon="1.42288">
        <ele>1190.82</ele>
        <time>2024-08-31T13:42:15Z</time>
      </trkpt>
      <trkpt lat="42.70959" lon="1.42291">
        <ele>1190.602</ele>
        <time>2024-08-31T13:42:17Z</time>
      </trkpt>
      <trkpt lat="42.7096" lon="1.42295">
        <ele>1191.357</ele>
        <time>2024-08-31T13:42:19Z</time>
      </trkpt>
      <trkpt lat="42.7096" lon="1.42297">
        <ele>1190.085</ele>
        <time>2024-08-31T13:42:21Z</time>
      </trkpt>
      <trkpt lat="42.70961" lon="1.42301">
        <ele>1188.572</ele>
        <time>2024-08-31T13:42:23Z</time>
      </trkpt>
      <trkpt lat="42.70961" lon="1.42304">
        <ele>1190.009</ele>
        <time>2024-08-31T13:42:25Z</time>
      </trkpt>
      <trkpt lat="42.70961" lon="1.42308">
        <ele>1189.174</ele>
        <time>2024-08-31T13:42:27Z</time>
      </trkpt>
      <trkpt lat="42.70962" lon="1.42311">
        <ele>1188.734</ele>
        <time>2024-08-31T13:42:29Z</time>
      </trkpt>
      <trkpt lat="42.70963" lon="1.42314">
        <ele>1188.132</ele>
        <time>2024-08-31T13:42:31Z</time>
      </trkpt>
      <trkpt lat="42.70963" lon="1.42317">
        <ele>1186.498</ele>
        <time>2024-08-31T13:42:33Z</time>
      </trkpt>
      <trkpt lat="42.70964" lon="1.4232">
        <ele>1185.037</ele>
        <time>2024-08-31T13:42:35Z</time>
      </trkpt>
      <trkpt lat="42.70965" lon="1.42323">
        <ele>1185.084</ele>
        <time>2024-08-31T13:42:37Z</time>
      </trkpt>
      <trkpt lat="42.70967" lon="1.42325">
        <ele>1184.694</ele>
        <time>2024-08-31T13:42:39Z</time>
      </trkpt>
      <trkpt lat="42.70968" lon="1.42328">
        <ele>1185.191</ele>
        <time>2024-08-31T13:42:41Z</time>
      </trkpt>
      <trkpt lat="42.70969" lon="1.42331">
        <ele>1186.683</ele>
        <time>2024-08-31T13:42:43Z</time>
      </trkpt>
      <trkpt lat="42.70971" lon="1.42333">
        <ele>1186.82</ele>
        <time>2024-08-31T13:42:45Z</time>
      </trkpt>
      <trkpt lat="42.70973" lon="1.42336">
        <ele>1186.762</ele>
        <time>2024-08-31T13:42:47Z</time>
      </trkpt>
      <trkpt lat="42.70974" lon="1.42338">
        <ele>1186.756</ele>
        <time>2024-08-31T13:42:49Z</time>
      </trkpt>
      <trkpt lat="42.70976" lon="1.42341">
        <ele>1185.64</ele>
        <time>2024-08-31T13:42:51Z</time>
      </trkpt>
      <trkpt lat="42.70977" lon="1.42344">
        <ele>1184.817</ele>
        <time>2024-08-31T13:42:53Z</time>
      </trkpt>
      <trkpt lat="42.70979" lon="1.42347">
        <ele>1186.228</ele>
        <time>2024-08-31T13:42:55Z</time>
      </trkpt>
      <trkpt lat="42.70981" lon="1.4235">
        <ele>1186.808</ele>
        <time>2024-08-31T13:42:57Z</time>
      </trkpt>
      <trkpt lat="42.70982" lon="1.42352">
        <ele>1187.312</ele>
        <time>2024-08-31T13:42:59Z</time>
      </trkpt>
      <trkpt lat="42.70983" lon="1.42355">
        <ele>1188.029</ele>
        <time>2024-08-31T13:43:01Z</time>
      </trkpt>
      <trkpt lat="42.70983" lon="1.4236">
        <ele>1190.854</ele>
        <time>2024-08-31T13:43:03Z</time>
      </trkpt>
      <trkpt lat="42.70983" lon="1.42365">
        <ele>1190.632</ele>
        <time>2024-08-31T13:43:05Z</time>
      </trkpt>
      <trkpt lat="42.70983" lon="1.42369">
        <ele>1191.555</ele>
        <time>2024-08-31T13:43:07Z</time>
      </trkpt>
      <trkpt lat="42.70983" lon="1.42371">
        <ele>1190.831</ele>
        <time>2024-08-31T13:43:09Z</time>
      </trkpt>
      <trkpt lat="42.70984" lon="1.42374">
        <ele>1191.301</ele>
        <time>2024-08-31T13:43:11Z</time>
      </trkpt>
      <trkpt lat="42.70984" lon="1.42377">
        <ele>1189.541</ele>
        <time>2024-08-31T13:43:13Z</time>
      </trkpt>
      <trkpt lat="42.70985" lon="1.42379">
        <ele>1189.359</ele>
        <time>2024-08-31T13:43:15Z</time>
      </trkpt>
      <trkpt lat="42.70986" lon="1.42382">
        <ele>1188.529</ele>
        <time>2024-08-31T13:43:17Z</time>
      </trkpt>
      <trkpt lat="42.70988" lon="1.42385">
        <ele>1188.376</ele>
        <time>2024-08-31T13:43:19Z</time>
      </trkpt>
      <trkpt lat="42.70988" lon="1.42388">
        <ele>1187.827</ele>
        <time>2024-08-31T13:43:21Z</time>
      </trkpt>
      <trkpt lat="42.70989" lon="1.4239">
        <ele>1188.137</ele>
        <time>2024-08-31T13:43:23Z</time>
      </trkpt>
      <trkpt lat="42.70991" lon="1.42393">
        <ele>1188.715</ele>
        <time>2024-08-31T13:43:25Z</time>
      </trkpt>
      <trkpt lat="42.70991" lon="1.42396">
        <ele>1187.98</ele>
        <time>2024-08-31T13:43:27Z</time>
      </trkpt>
      <trkpt lat="42.70992" lon="1.42399">
        <ele>1187.944</ele>
        <time>2024-08-31T13:43:29Z</time>
      </trkpt>
      <trkpt lat="42.70993" lon="1.42402">
        <ele>1188.014</ele>
        <time>2024-08-31T13:43:31Z</time>
      </trkpt>
      <trkpt lat="42.70994" lon="1.42406">
        <ele>1186.925</ele>
        <time>2024-08-31T13:43:33Z</time>
      </trkpt>
      <trkpt lat="42.70995" lon="1.42409">
        <ele>1186.08</ele>
        <time>2024-08-31T13:43:35Z</time>
      </trkpt>
      <trkpt lat="42.70996" lon="1.42412">
        <ele>1186.202</ele>
        <time>2024-08-31T13:43:37Z</time>
      </trkpt>
      <trkpt lat="42.70996" lon="1.42416">
        <ele>1186.377</ele>
        <time>2024-08-31T13:43:39Z</time>
      </trkpt>
      <trkpt lat="42.70997" lon="1.42419">
        <ele>1185.977</ele>
        <time>2024-08-31T13:43:41Z</time>
      </trkpt>
      <trkpt lat="42.70997" lon="1.42422">
        <ele>1185.167</ele>
        <time>2024-08-31T13:43:43Z</time>
      </trkpt>
      <trkpt lat="42.70998" lon="1.42425">
        <ele>1185.531</ele>
        <time>2024-08-31T13:43:45Z</time>
      </trkpt>
      <trkpt lat="42.70999" lon="1.42429">
        <ele>1186.463</ele>
        <time>2024-08-31T13:43:47Z</time>
      </trkpt>
      <trkpt lat="42.70999" lon="1.42432">
        <ele>1185.725</ele>
        <time>2024-08-31T13:43:49Z</time>
      </trkpt>
      <trkpt lat="42.71" lon="1.42435">
        <ele>1185.58</ele>
        <time>2024-08-31T13:43:51Z</time>
      </trkpt>
      <trkpt lat="42.71001" lon="1.42438">
        <ele>1185.961</ele>
        <time>2024-08-31T13:43:53Z</time>
      </trkpt>
      <trkpt lat="42.71002" lon="1.42441">
        <ele>1186.793</ele>
        <time>2024-08-31T13:43:55Z</time>
      </trkpt>
      <trkpt lat="42.71002" lon="1.42444">
        <ele>1186.445</ele>
        <time>2024-08-31T13:43:57Z</time>
      </trkpt>
      <trkpt lat="42.71003" lon="1.42447">
        <ele>1185.508</ele>
        <time>2024-08-31T13:43:59Z</time>
      </trkpt>
      <trkpt lat="42.71003" lon="1.42451">
        <ele>1184.955</ele>
        <time>2024-08-31T13:44:01Z</time>
      </trkpt>
      <trkpt lat="42.71004" lon="1.42454">
        <ele>1183.99</ele>
        <time>2024-08-31T13:44:03Z</time>
      </trkpt>
      <trkpt lat="42.71004" lon="1.42458">
        <ele>1183.36</ele>
        <time>2024-08-31T13:44:05Z</time>
      </trkpt>
      <trkpt lat="42.71004" lon="1.42461">
        <ele>1182.915</ele>
        <time>2024-08-31T13:44:07Z</time>
      </trkpt>
      <trkpt lat="42.71004" lon="1.42465">
        <ele>1182.632</ele>
        <time>2024-08-31T13:44:09Z</time>
      </trkpt>
      <trkpt lat="42.71004" lon="1.42468">
        <ele>1182.259</ele>
        <time>2024-08-31T13:44:11Z</time>
      </trkpt>
      <trkpt lat="42.71005" lon="1.4247">
        <ele>1182.633</ele>
        <time>2024-08-31T13:44:13Z</time>
      </trkpt>
      <trkpt lat="42.71006" lon="1.42473">
        <ele>1183.011</ele>
        <time>2024-08-31T13:44:15Z</time>
      </trkpt>
      <trkpt lat="42.71007" lon="1.42475">
        <ele>1183.492</ele>
        <time>2024-08-31T13:44:17Z</time>
      </trkpt>
      <trkpt lat="42.71007" lon="1.42479">
        <ele>1184.063</ele>
        <time>2024-08-31T13:44:19Z</time>
      </trkpt>
      <trkpt lat="42.71009" lon="1.42482">
        <ele>1184.542</ele>
        <time>2024-08-31T13:44:21Z</time>
      </trkpt>
      <trkpt lat="42.7101" lon="1.42485">
        <ele>1184.697</ele>
        <time>2024-08-31T13:44:23Z</time>
      </trkpt>
      <trkpt lat="42.71011" lon="1.42487">
        <ele>1184.558</ele>
        <time>2024-08-31T13:44:25Z</time>
      </trkpt>
      <trkpt lat="42.71013" lon="1.4249">
        <ele>1185.456</ele>
        <time>2024-08-31T13:44:27Z</time>
      </trkpt>
      <trkpt lat="42.71014" lon="1.42492">
        <ele>1185.867</ele>
        <time>2024-08-31T13:44:29Z</time>
      </trkpt>
      <trkpt lat="42.71016" lon="1.42494">
        <ele>1185.904</ele>
        <time>2024-08-31T13:44:31Z</time>
      </trkpt>
      <trkpt lat="42.71017" lon="1.42496">
        <ele>1185.887</ele>
        <time>2024-08-31T13:44:33Z</time>
      </trkpt>
      <trkpt lat="42.7102" lon="1.42498">
        <ele>1186.097</ele>
        <time>2024-08-31T13:44:35Z</time>
      </trkpt>
      <trkpt lat="42.71021" lon="1.42499">
        <ele>1185.587</ele>
        <time>2024-08-31T13:44:37Z</time>
      </trkpt>
      <trkpt lat="42.71023" lon="1.42501">
        <ele>1185.363</ele>
        <time>2024-08-31T13:44:39Z</time>
      </trkpt>
      <trkpt lat="42.71025" lon="1.42503">
        <ele>1186.354</ele>
        <time>2024-08-31T13:44:41Z</time>
      </trkpt>
      <trkpt lat="42.71026" lon="1.42506">
        <ele>1186.391</ele>
        <time>2024-08-31T13:44:43Z</time>
      </trkpt>
      <trkpt lat="42.71026" lon="1.42509">
        <ele>1187.451</ele>
        <time>2024-08-31T13:44:45Z</time>
      </trkpt>
      <trkpt lat="42.71028" lon="1.42511">
        <ele>1187.745</ele>
        <time>2024-08-31T13:44:47Z</time>
      </trkpt>
      <trkpt lat="42.71028" lon="1.42513">
        <ele>1187.169</ele>
        <time>2024-08-31T13:44:49Z</time>
      </trkpt>
      <trkpt lat="42.7103" lon="1.42514">
        <ele>1187.533</ele>
        <time>2024-08-31T13:44:51Z</time>
      </trkpt>
      <trkpt lat="42.71031" lon="1.42516">
        <ele>1187.775</ele>
        <time>2024-08-31T13:44:53Z</time>
      </trkpt>
      <trkpt lat="42.71033" lon="1.42518">
        <ele>1187.922</ele>
        <time>2024-08-31T13:44:55Z</time>
      </trkpt>
      <trkpt lat="42.71034" lon="1.4252">
        <ele>1187.497</ele>
        <time>2024-08-31T13:44:57Z</time>
      </trkpt>
      <trkpt lat="42.71036" lon="1.42522">
        <ele>1187.866</ele>
        <time>2024-08-31T13:44:59Z</time>
      </trkpt>
      <trkpt lat="42.71037" lon="1.42524">
        <ele>1188.077</ele>
        <time>2024-08-31T13:45:01Z</time>
      </trkpt>
      <trkpt lat="42.71037" lon="1.42527">
        <ele>1187.25</ele>
        <time>2024-08-31T13:45:03Z</time>
      </trkpt>
      <trkpt lat="42.71038" lon="1.4253">
        <ele>1187.01</ele>
        <time>2024-08-31T13:45:05Z</time>
      </trkpt>
      <trkpt lat="42.71037" lon="1.42532">
        <ele>1186.571</ele>
        <time>2024-08-31T13:45:07Z</time>
      </trkpt>
      <trkpt lat="42.71035" lon="1.42534">
        <ele>1185.877</ele>
        <time>2024-08-31T13:45:09Z</time>
      </trkpt>
      <trkpt lat="42.71034" lon="1.42533">
        <ele>1185.339</ele>
        <time>2024-08-31T13:45:11Z</time>
      </trkpt>
      <trkpt lat="42.71032" lon="1.42533">
        <ele>1185.987</ele>
        <time>2024-08-31T13:45:13Z</time>
      </trkpt>
      <trkpt lat="42.71031" lon="1.42532">
        <ele>1186.73</ele>
        <time>2024-08-31T13:45:15Z</time>
      </trkpt>
      <trkpt lat="42.71029" lon="1.42532">
        <ele>1187.683</ele>
        <time>2024-08-31T13:45:17Z</time>
      </trkpt>
      <trkpt lat="42.71029" lon="1.42535">
        <ele>1186.065</ele>
        <time>2024-08-31T13:45:19Z</time>
      </trkpt>
      <trkpt lat="42.71029" lon="1.42535">
        <ele>1185.664</ele>
        <time>2024-08-31T13:45:21Z</time>
      </trkpt>
      <trkpt lat="42.71029" lon="1.42535">
        <ele>1185.644</ele>
        <time>2024-08-31T13:45:23Z</time>
      </trkpt>
      <trkpt lat="42.71029" lon="1.42535">
        <ele>1185.634</ele>
        <time>2024-08-31T13:45:25Z</time>
      </trkpt>
      <trkpt lat="42.71029" lon="1.42535">
        <ele>1185.07</ele>
        <time>2024-08-31T13:45:27Z</time>
      </trkpt>
      <trkpt lat="42.71029" lon="1.42535">
        <ele>1185.09</ele>
        <time>2024-08-31T13:45:29Z</time>
      </trkpt>
      <trkpt lat="42.71029" lon="1.42535">
        <ele>1185.119</ele>
        <time>2024-08-31T13:45:31Z</time>
      </trkpt>
      <trkpt lat="42.7103" lon="1.42535">
        <ele>1184.466</ele>
        <time>2024-08-31T13:45:33Z</time>
      </trkpt>
      <trkpt lat="42.71031" lon="1.42536">
        <ele>1183.789</ele>
        <time>2024-08-31T13:45:35Z</time>
      </trkpt>
      <trkpt lat="42.71031" lon="1.42538">
        <ele>1182.265</ele>
        <time>2024-08-31T13:45:37Z</time>
      </trkpt>
      <trkpt lat="42.71032" lon="1.4254">
        <ele>1180.632</ele>
        <time>2024-08-31T13:45:39Z</time>
      </trkpt>
      <trkpt lat="42.71033" lon="1.42542">
        <ele>1180.702</ele>
        <time>2024-08-31T13:45:41Z</time>
      </trkpt>
      <trkpt lat="42.71034" lon="1.42545">
        <ele>1179.817</ele>
        <time>2024-08-31T13:45:43Z</time>
      </trkpt>
      <trkpt lat="42.71035" lon="1.42547">
        <ele>1177.922</ele>
        <time>2024-08-31T13:45:45Z</time>
      </trkpt>
      <trkpt lat="42.71036" lon="1.4255">
        <ele>1177.781</ele>
        <time>2024-08-31T13:45:47Z</time>
      </trkpt>
      <trkpt lat="42.71037" lon="1.42552">
        <ele>1177.026</ele>
        <time>2024-08-31T13:45:49Z</time>
      </trkpt>
      <trkpt lat="42.71037" lon="1.42552">
        <ele>1176.014</ele>
        <time>2024-08-31T13:45:51Z</time>
      </trkpt>
      <trkpt lat="42.71037" lon="1.42552">
        <ele>1176.193</ele>
        <time>2024-08-31T13:45:53Z</time>
      </trkpt>
      <trkpt lat="42.71036" lon="1.42553">
        <ele>1174.464</ele>
        <time>2024-08-31T13:45:55Z</time>
      </trkpt>
      <trkpt lat="42.71035" lon="1.42553">
        <ele>1173.85</ele>
        <time>2024-08-31T13:45:57Z</time>
      </trkpt>
      <trkpt lat="42.71034" lon="1.42553">
        <ele>1173.802</ele>
        <time>2024-08-31T13:45:59Z</time>
      </trkpt>
      <trkpt lat="42.71032" lon="1.42554">
        <ele>1173.102</ele>
        <time>2024-08-31T13:46:01Z</time>
      </trkpt>
      <trkpt lat="42.71031" lon="1.42554">
        <ele>1172.106</ele>
        <time>2024-08-31T13:46:03Z</time>
      </trkpt>
      <trkpt lat="42.71029" lon="1.42554">
        <ele>1171.224</ele>
        <time>2024-08-31T13:46:05Z</time>
      </trkpt>
      <trkpt lat="42.71027" lon="1.42555">
        <ele>1171.914</ele>
        <time>2024-08-31T13:46:07Z</time>
      </trkpt>
      <trkpt lat="42.71026" lon="1.42555">
        <ele>1172.648</ele>
        <time>2024-08-31T13:46:09Z</time>
      </trkpt>
      <trkpt lat="42.71024" lon="1.42555">
        <ele>1172.252</ele>
        <time>2024-08-31T13:46:11Z</time>
      </trkpt>
      <trkpt lat="42.71023" lon="1.42555">
        <ele>1171.542</ele>
        <time>2024-08-31T13:46:13Z</time>
      </trkpt>
      <trkpt lat="42.71022" lon="1.42554">
        <ele>1172.27</ele>
        <time>2024-08-31T13:46:15Z</time>
      </trkpt>
      <trkpt lat="42.7102" lon="1.42553">
        <ele>1171.403</ele>
        <time>2024-08-31T13:46:17Z</time>
      </trkpt>
      <trkpt lat="42.71019" lon="1.42555">
        <ele>1170.398</ele>
        <time>2024-08-31T13:46:19Z</time>
      </trkpt>
      <trkpt lat="42.71018" lon="1.42558">
        <ele>1170.844</ele>
        <time>2024-08-31T13:46:21Z</time>
      </trkpt>
      <trkpt lat="42.71018" lon="1.4256">
        <ele>1170.751</ele>
        <time>2024-08-31T13:46:23Z</time>
      </trkpt>
      <trkpt lat="42.71016" lon="1.42562">
        <ele>1172</ele>
        <time>2024-08-31T13:46:25Z</time>
      </trkpt>
      <trkpt lat="42.71015" lon="1.42564">
        <ele>1171.592</ele>
        <time>2024-08-31T13:46:27Z</time>
      </trkpt>
      <trkpt lat="42.71015" lon="1.42568">
        <ele>1171.089</ele>
        <time>2024-08-31T13:46:29Z</time>
      </trkpt>
      <trkpt lat="42.71015" lon="1.42572">
        <ele>1170.55</ele>
        <time>2024-08-31T13:46:31Z</time>
      </trkpt>
      <trkpt lat="42.71015" lon="1.42575">
        <ele>1170.239</ele>
        <time>2024-08-31T13:46:33Z</time>
      </trkpt>
      <trkpt lat="42.71015" lon="1.42578">
        <ele>1169.183</ele>
        <time>2024-08-31T13:46:35Z</time>
      </trkpt>
      <trkpt lat="42.71015" lon="1.42581">
        <ele>1170.314</ele>
        <time>2024-08-31T13:46:37Z</time>
      </trkpt>
      <trkpt lat="42.71015" lon="1.42584">
        <ele>1169.767</ele>
        <time>2024-08-31T13:46:39Z</time>
      </trkpt>
      <trkpt lat="42.71015" lon="1.42586">
        <ele>1169.554</ele>
        <time>2024-08-31T13:46:41Z</time>
      </trkpt>
      <trkpt lat="42.71015" lon="1.42589">
        <ele>1169.203</ele>
        <time>2024-08-31T13:46:43Z</time>
      </trkpt>
      <trkpt lat="42.71015" lon="1.42592">
        <ele>1168.829</ele>
        <time>2024-08-31T13:46:45Z</time>
      </trkpt>
      <trkpt lat="42.71016" lon="1.42595">
        <ele>1168.565</ele>
        <time>2024-08-31T13:46:47Z</time>
      </trkpt>
      <trkpt lat="42.71016" lon="1.42597">
        <ele>1167.243</ele>
        <time>2024-08-31T13:46:49Z</time>
      </trkpt>
      <trkpt lat="42.71017" lon="1.426">
        <ele>1166.536</ele>
        <time>2024-08-31T13:46:51Z</time>
      </trkpt>
      <trkpt lat="42.71016" lon="1.42602">
        <ele>1165.671</ele>
        <time>2024-08-31T13:46:53Z</time>
      </trkpt>
      <trkpt lat="42.71016" lon="1.42605">
        <ele>1166.081</ele>
        <time>2024-08-31T13:46:55Z</time>
      </trkpt>
      <trkpt lat="42.71016" lon="1.42608">
        <ele>1165.796</ele>
        <time>2024-08-31T13:46:57Z</time>
      </trkpt>
      <trkpt lat="42.71016" lon="1.4261">
        <ele>1165.676</ele>
        <time>2024-08-31T13:46:59Z</time>
      </trkpt>
      <trkpt lat="42.71015" lon="1.42611">
        <ele>1165.358</ele>
        <time>2024-08-31T13:47:01Z</time>
      </trkpt>
      <trkpt lat="42.71013" lon="1.42611">
        <ele>1164.165</ele>
        <time>2024-08-31T13:47:03Z</time>
      </trkpt>
      <trkpt lat="42.71011" lon="1.42611">
        <ele>1165.364</ele>
        <time>2024-08-31T13:47:05Z</time>
      </trkpt>
      <trkpt lat="42.71011" lon="1.42613">
        <ele>1164.939</ele>
        <time>2024-08-31T13:47:07Z</time>
      </trkpt>
      <trkpt lat="42.71012" lon="1.42614">
        <ele>1164.975</ele>
        <time>2024-08-31T13:47:09Z</time>
      </trkpt>
      <trkpt lat="42.71012" lon="1.42614">
        <ele>1164.757</ele>
        <time>2024-08-31T13:47:11Z</time>
      </trkpt>
      <trkpt lat="42.71012" lon="1.42614">
        <ele>1164.754</ele>
        <time>2024-08-31T13:47:13Z</time>
      </trkpt>
      <trkpt lat="42.71012" lon="1.42613">
        <ele>1164.749</ele>
        <time>2024-08-31T13:47:15Z</time>
      </trkpt>
      <trkpt lat="42.71012" lon="1.42613">
        <ele>1164.097</ele>
        <time>2024-08-31T13:47:17Z</time>
      </trkpt>
      <trkpt lat="42.71012" lon="1.42613">
        <ele>1163.892</ele>
        <time>2024-08-31T13:47:19Z</time>
      </trkpt>
      <trkpt lat="42.71012" lon="1.42613">
        <ele>1163.858</ele>
        <time>2024-08-31T13:47:21Z</time>
      </trkpt>
      <trkpt lat="42.71012" lon="1.42613">
        <ele>1163.856</ele>
        <time>2024-08-31T13:47:23Z</time>
      </trkpt>
      <trkpt lat="42.71012" lon="1.42613">
        <ele>1163.383</ele>
        <time>2024-08-31T13:47:25Z</time>
      </trkpt>
      <trkpt lat="42.71012" lon="1.42613">
        <ele>1163.391</ele>
        <time>2024-08-31T13:47:27Z</time>
      </trkpt>
      <trkpt lat="42.71012" lon="1.42613">
        <ele>1163.387</ele>
        <time>2024-08-31T13:47:29Z</time>
      </trkpt>
      <trkpt lat="42.71012" lon="1.42613">
        <ele>1163.373</ele>
        <time>2024-08-31T13:47:31Z</time>
      </trkpt>
      <trkpt lat="42.71012" lon="1.42613">
        <ele>1163.636</ele>
        <time>2024-08-31T13:47:33Z</time>
      </trkpt>
      <trkpt lat="42.71012" lon="1.42613">
        <ele>1163.629</ele>
        <time>2024-08-31T13:47:35Z</time>
      </trkpt>
      <trkpt lat="42.71012" lon="1.42613">
        <ele>1163.626</ele>
        <time>2024-08-31T13:47:37Z</time>
      </trkpt>
      <trkpt lat="42.71012" lon="1.42613">
        <ele>1164.128</ele>
        <time>2024-08-31T13:47:39Z</time>
      </trkpt>
      <trkpt lat="42.71012" lon="1.42613">
        <ele>1164.449</ele>
        <time>2024-08-31T13:47:41Z</time>
      </trkpt>
      <trkpt lat="42.71013" lon="1.42614">
        <ele>1164.116</ele>
        <time>2024-08-31T13:47:43Z</time>
      </trkpt>
      <trkpt lat="42.71012" lon="1.42615">
        <ele>1164.06</ele>
        <time>2024-08-31T13:47:45Z</time>
      </trkpt>
      <trkpt lat="42.71012" lon="1.42617">
        <ele>1164.497</ele>
        <time>2024-08-31T13:47:47Z</time>
      </trkpt>
      <trkpt lat="42.71013" lon="1.42619">
        <ele>1164.343</ele>
        <time>2024-08-31T13:47:49Z</time>
      </trkpt>
      <trkpt lat="42.71013" lon="1.42619">
        <ele>1164.298</ele>
        <time>2024-08-31T13:47:51Z</time>
      </trkpt>
      <trkpt lat="42.71015" lon="1.42619">
        <ele>1164.694</ele>
        <time>2024-08-31T13:47:53Z</time>
      </trkpt>
      <trkpt lat="42.71016" lon="1.42619">
        <ele>1164.757</ele>
        <time>2024-08-31T13:47:55Z</time>
      </trkpt>
      <trkpt lat="42.71016" lon="1.42619">
        <ele>1164.744</ele>
        <time>2024-08-31T13:47:57Z</time>
      </trkpt>
    </trkseg>
  </trk>
</gpx>